<?xml version="1.0" encoding="UTF-8" standalone="no" ?>
<gpx xmlns="http://www.topografix.com/GPX/1/1" xmlns:xsi="http://www.w3.org/2001/XMLSchema-instance" xsi:schemaLocation="http://www.topografix.com/GPX/1/1 http://www.topografix.com/GPX/1/1/gpx.xsd" version="1.1" creator="VisuGPX - https://www.visugpx.com">
  <metadata>
    <name>La Lumineuse Gravel grande 2022</name>
  </metadata>
  <trk>
    <name><![CDATA[La Lumineuse Gravel grande]]></name>
    <extensions>
      <line xmlns="http://www.topografix.com/GPX/gpx_style/0/2">
        <color>0432ff</color>
        <width>4</width>
      </line>
    </extensions>
    <trkseg>
      <trkpt lat="45.86911" lon="-1.21239">
        <ele>2.9</ele>
      </trkpt>
      <trkpt lat="45.86986" lon="-1.21407">
        <ele>3.3</ele>
      </trkpt>
      <trkpt lat="45.87108" lon="-1.21747">
        <ele>-3.7999999523163</ele>
        <time>2021-11-21T07:03:18.000Z</time>
      </trkpt>
      <trkpt lat="45.87106" lon="-1.21754">
        <ele>-3.7999999523163</ele>
        <time>2021-11-21T07:03:19.000Z</time>
      </trkpt>
      <trkpt lat="45.87104" lon="-1.21771">
        <ele>-3.7999999523163</ele>
        <time>2021-11-21T07:03:21.000Z</time>
      </trkpt>
      <trkpt lat="45.87101" lon="-1.21789">
        <ele>-4</ele>
        <time>2021-11-21T07:03:23.000Z</time>
      </trkpt>
      <trkpt lat="45.87094" lon="-1.21805">
        <ele>-4.4000000953674</ele>
        <time>2021-11-21T07:03:25.000Z</time>
      </trkpt>
      <trkpt lat="45.87085" lon="-1.21821">
        <ele>-4.4000000953674</ele>
        <time>2021-11-21T07:03:27.000Z</time>
      </trkpt>
      <trkpt lat="45.87072" lon="-1.21844">
        <ele>-4.5999999046326</ele>
        <time>2021-11-21T07:03:30.000Z</time>
      </trkpt>
      <trkpt lat="45.8704" lon="-1.21884">
        <ele>-4.8000001907349</ele>
        <time>2021-11-21T07:03:36.000Z</time>
      </trkpt>
      <trkpt lat="45.87001" lon="-1.21916">
        <ele>-4.8000001907349</ele>
        <time>2021-11-21T07:03:42.000Z</time>
      </trkpt>
      <trkpt lat="45.86953" lon="-1.21952">
        <ele>-5.1999998092651</ele>
        <time>2021-11-21T07:03:49.000Z</time>
      </trkpt>
      <trkpt lat="45.86905" lon="-1.21988">
        <ele>-5.1999998092651</ele>
        <time>2021-11-21T07:03:56.000Z</time>
      </trkpt>
      <trkpt lat="45.86898" lon="-1.21991">
        <ele>-5.1999998092651</ele>
        <time>2021-11-21T07:03:57.000Z</time>
      </trkpt>
      <trkpt lat="45.86867" lon="-1.21994">
        <ele>-5.1999998092651</ele>
        <time>2021-11-21T07:04:01.000Z</time>
      </trkpt>
      <trkpt lat="45.86829" lon="-1.22006">
        <ele>-5.5999999046326</ele>
        <time>2021-11-21T07:04:06.000Z</time>
      </trkpt>
      <trkpt lat="45.86822" lon="-1.2201">
        <ele>-5.5999999046326</ele>
        <time>2021-11-21T07:04:07.000Z</time>
      </trkpt>
      <trkpt lat="45.86769" lon="-1.22033">
        <ele>-5.8000001907349</ele>
        <time>2021-11-21T07:04:14.000Z</time>
      </trkpt>
      <trkpt lat="45.86754" lon="-1.22039">
        <ele>-5.8000001907349</ele>
        <time>2021-11-21T07:04:16.000Z</time>
      </trkpt>
      <trkpt lat="45.86747" lon="-1.2204">
        <ele>-5.8000001907349</ele>
        <time>2021-11-21T07:04:17.000Z</time>
      </trkpt>
      <trkpt lat="45.86739" lon="-1.22039">
        <ele>-5.8000001907349</ele>
        <time>2021-11-21T07:04:18.000Z</time>
      </trkpt>
      <trkpt lat="45.86716" lon="-1.22037">
        <ele>-5.8000001907349</ele>
        <time>2021-11-21T07:04:21.000Z</time>
      </trkpt>
      <trkpt lat="45.86708" lon="-1.22038">
        <ele>-5.8000001907349</ele>
        <time>2021-11-21T07:04:22.000Z</time>
      </trkpt>
      <trkpt lat="45.86701" lon="-1.22042">
        <ele>-5.8000001907349</ele>
        <time>2021-11-21T07:04:23.000Z</time>
      </trkpt>
      <trkpt lat="45.8668" lon="-1.22059">
        <ele>-6</ele>
        <time>2021-11-21T07:04:26.000Z</time>
      </trkpt>
      <trkpt lat="45.86633" lon="-1.22103">
        <ele>-6.8000001907349</ele>
        <time>2021-11-21T07:04:33.000Z</time>
      </trkpt>
      <trkpt lat="45.86619" lon="-1.22114">
        <ele>-6.8000001907349</ele>
        <time>2021-11-21T07:04:35.000Z</time>
      </trkpt>
      <trkpt lat="45.86606" lon="-1.22127">
        <ele>-6.8000001907349</ele>
        <time>2021-11-21T07:04:37.000Z</time>
      </trkpt>
      <trkpt lat="45.866" lon="-1.22136">
        <ele>-6.8000001907349</ele>
        <time>2021-11-21T07:04:38.000Z</time>
      </trkpt>
      <trkpt lat="45.86597" lon="-1.22146">
        <ele>-7</ele>
        <time>2021-11-21T07:04:39.000Z</time>
      </trkpt>
      <trkpt lat="45.86598" lon="-1.22168">
        <ele>-7</ele>
        <time>2021-11-21T07:04:41.000Z</time>
      </trkpt>
      <trkpt lat="45.86603" lon="-1.22234">
        <ele>-7.5999999046326</ele>
        <time>2021-11-21T07:04:47.000Z</time>
      </trkpt>
      <trkpt lat="45.86596" lon="-1.22276">
        <ele>-7.5999999046326</ele>
        <time>2021-11-21T07:04:51.000Z</time>
      </trkpt>
      <trkpt lat="45.8659" lon="-1.22296">
        <ele>-7.5999999046326</ele>
        <time>2021-11-21T07:04:53.000Z</time>
      </trkpt>
      <trkpt lat="45.86566" lon="-1.22376">
        <ele>-7.5999999046326</ele>
        <time>2021-11-21T07:05:01.000Z</time>
      </trkpt>
      <trkpt lat="45.86563" lon="-1.22386">
        <ele>-7.5999999046326</ele>
        <time>2021-11-21T07:05:02.000Z</time>
      </trkpt>
      <trkpt lat="45.86552" lon="-1.22412">
        <ele>-7.8000001907349</ele>
        <time>2021-11-21T07:05:05.000Z</time>
      </trkpt>
      <trkpt lat="45.86548" lon="-1.2242">
        <ele>-8</ele>
        <time>2021-11-21T07:05:06.000Z</time>
      </trkpt>
      <trkpt lat="45.86544" lon="-1.22428">
        <ele>-8</ele>
        <time>2021-11-21T07:05:07.000Z</time>
      </trkpt>
      <trkpt lat="45.86536" lon="-1.22443">
        <ele>-8</ele>
        <time>2021-11-21T07:05:09.000Z</time>
      </trkpt>
      <trkpt lat="45.8651" lon="-1.22476">
        <ele>-7.8000001907349</ele>
        <time>2021-11-21T07:05:14.000Z</time>
      </trkpt>
      <trkpt lat="45.86501" lon="-1.22492">
        <ele>-7.8000001907349</ele>
        <time>2021-11-21T07:05:16.000Z</time>
      </trkpt>
      <trkpt lat="45.86495" lon="-1.22512">
        <ele>-7.8000001907349</ele>
        <time>2021-11-21T07:05:18.000Z</time>
      </trkpt>
      <trkpt lat="45.86471" lon="-1.22591">
        <ele>-8</ele>
        <time>2021-11-21T07:05:26.000Z</time>
      </trkpt>
      <trkpt lat="45.86468" lon="-1.226">
        <ele>-8</ele>
        <time>2021-11-21T07:05:27.000Z</time>
      </trkpt>
      <trkpt lat="45.86442" lon="-1.22679">
        <ele>-8.6000003814697</ele>
        <time>2021-11-21T07:05:35.000Z</time>
      </trkpt>
      <trkpt lat="45.86437" lon="-1.22688">
        <ele>-8.6000003814697</ele>
        <time>2021-11-21T07:05:36.000Z</time>
      </trkpt>
      <trkpt lat="45.86409" lon="-1.22725">
        <ele>-8.6000003814697</ele>
        <time>2021-11-21T07:05:41.000Z</time>
      </trkpt>
      <trkpt lat="45.86389" lon="-1.22758">
        <ele>-8.6000003814697</ele>
        <time>2021-11-21T07:05:45.000Z</time>
      </trkpt>
      <trkpt lat="45.86379" lon="-1.22776">
        <ele>-8.6000003814697</ele>
        <time>2021-11-21T07:05:47.000Z</time>
      </trkpt>
      <trkpt lat="45.86347" lon="-1.22836">
        <ele>-8.6000003814697</ele>
        <time>2021-11-21T07:05:54.000Z</time>
      </trkpt>
      <trkpt lat="45.86344" lon="-1.22845">
        <ele>-8.6000003814697</ele>
        <time>2021-11-21T07:05:55.000Z</time>
      </trkpt>
      <trkpt lat="45.86342" lon="-1.22855">
        <ele>-8.6000003814697</ele>
        <time>2021-11-21T07:05:56.000Z</time>
      </trkpt>
      <trkpt lat="45.86341" lon="-1.22876">
        <ele>-8.6000003814697</ele>
        <time>2021-11-21T07:05:58.000Z</time>
      </trkpt>
      <trkpt lat="45.86341" lon="-1.22886">
        <ele>-8.8000001907349</ele>
        <time>2021-11-21T07:05:59.000Z</time>
      </trkpt>
      <trkpt lat="45.86341" lon="-1.22897">
        <ele>-8.8000001907349</ele>
        <time>2021-11-21T07:06:00.000Z</time>
      </trkpt>
      <trkpt lat="45.86344" lon="-1.22949">
        <ele>-8.8000001907349</ele>
        <time>2021-11-21T07:06:05.000Z</time>
      </trkpt>
      <trkpt lat="45.86343" lon="-1.2296">
        <ele>-8.8000001907349</ele>
        <time>2021-11-21T07:06:06.000Z</time>
      </trkpt>
      <trkpt lat="45.8634" lon="-1.2298">
        <ele>-9</ele>
        <time>2021-11-21T07:06:08.000Z</time>
      </trkpt>
      <trkpt lat="45.86337" lon="-1.22989">
        <ele>-9</ele>
        <time>2021-11-21T07:06:09.000Z</time>
      </trkpt>
      <trkpt lat="45.86309" lon="-1.23063">
        <ele>-9.1999998092651</ele>
        <time>2021-11-21T07:06:17.000Z</time>
      </trkpt>
      <trkpt lat="45.86301" lon="-1.2308">
        <ele>-9.1999998092651</ele>
        <time>2021-11-21T07:06:19.000Z</time>
      </trkpt>
      <trkpt lat="45.8629" lon="-1.23095">
        <ele>-9</ele>
        <time>2021-11-21T07:06:21.000Z</time>
      </trkpt>
      <trkpt lat="45.86276" lon="-1.231">
        <ele>-9</ele>
        <time>2021-11-21T07:06:23.000Z</time>
      </trkpt>
      <trkpt lat="45.8627" lon="-1.231">
        <ele>-9</ele>
        <time>2021-11-21T07:06:24.000Z</time>
      </trkpt>
      <trkpt lat="45.86251" lon="-1.23101">
        <ele>-9</ele>
        <time>2021-11-21T07:06:27.000Z</time>
      </trkpt>
      <trkpt lat="45.86245" lon="-1.23099">
        <ele>-9</ele>
        <time>2021-11-21T07:06:28.000Z</time>
      </trkpt>
      <trkpt lat="45.8624" lon="-1.23094">
        <ele>-9</ele>
        <time>2021-11-21T07:06:29.000Z</time>
      </trkpt>
      <trkpt lat="45.86224" lon="-1.23076">
        <ele>-9</ele>
        <time>2021-11-21T07:06:32.000Z</time>
      </trkpt>
      <trkpt lat="45.8621" lon="-1.23059">
        <ele>-9.1999998092651</ele>
        <time>2021-11-21T07:06:35.000Z</time>
      </trkpt>
      <trkpt lat="45.86205" lon="-1.23058">
        <ele>-9.1999998092651</ele>
        <time>2021-11-21T07:06:36.000Z</time>
      </trkpt>
      <trkpt lat="45.86199" lon="-1.23065">
        <ele>-9.1999998092651</ele>
        <time>2021-11-21T07:06:38.000Z</time>
      </trkpt>
      <trkpt lat="45.86197" lon="-1.23071">
        <ele>-9.1999998092651</ele>
        <time>2021-11-21T07:06:39.000Z</time>
      </trkpt>
      <trkpt lat="45.86199" lon="-1.23077">
        <ele>-9.3999996185303</ele>
        <time>2021-11-21T07:06:40.000Z</time>
      </trkpt>
      <trkpt lat="45.86204" lon="-1.23089">
        <ele>-9.6000003814697</ele>
        <time>2021-11-21T07:06:42.000Z</time>
      </trkpt>
      <trkpt lat="45.86205" lon="-1.231">
        <ele>-9.8000001907349</ele>
        <time>2021-11-21T07:06:44.000Z</time>
      </trkpt>
      <trkpt lat="45.86205" lon="-1.23106">
        <ele>-9.8000001907349</ele>
        <time>2021-11-21T07:06:45.000Z</time>
      </trkpt>
      <trkpt lat="45.86203" lon="-1.23114">
        <ele>-9.8000001907349</ele>
        <time>2021-11-21T07:06:47.000Z</time>
      </trkpt>
      <trkpt lat="45.86202" lon="-1.23113">
        <ele>-9.8000001907349</ele>
        <time>2021-11-21T07:06:48.000Z</time>
      </trkpt>
      <trkpt lat="45.8619" lon="-1.23104">
        <ele>-9.6000003814697</ele>
        <time>2021-11-21T07:06:51.000Z</time>
      </trkpt>
      <trkpt lat="45.86186" lon="-1.23099">
        <ele>-9.6000003814697</ele>
        <time>2021-11-21T07:06:52.000Z</time>
      </trkpt>
      <trkpt lat="45.86177" lon="-1.23086">
        <ele>-9.6000003814697</ele>
        <time>2021-11-21T07:06:54.000Z</time>
      </trkpt>
      <trkpt lat="45.86168" lon="-1.23072">
        <ele>-9.6000003814697</ele>
        <time>2021-11-21T07:06:56.000Z</time>
      </trkpt>
      <trkpt lat="45.86152" lon="-1.23042">
        <ele>-9.8000001907349</ele>
        <time>2021-11-21T07:07:00.000Z</time>
      </trkpt>
      <trkpt lat="45.86148" lon="-1.23036">
        <ele>-9.8000001907349</ele>
        <time>2021-11-21T07:07:01.000Z</time>
      </trkpt>
      <trkpt lat="45.86144" lon="-1.23029">
        <ele>-9.8000001907349</ele>
        <time>2021-11-21T07:07:02.000Z</time>
      </trkpt>
      <trkpt lat="45.86137" lon="-1.23017">
        <ele>-9.8000001907349</ele>
        <time>2021-11-21T07:07:04.000Z</time>
      </trkpt>
      <trkpt lat="45.86128" lon="-1.23009">
        <ele>-9.8000001907349</ele>
        <time>2021-11-21T07:07:06.000Z</time>
      </trkpt>
      <trkpt lat="45.86121" lon="-1.23005">
        <ele>-10</ele>
        <time>2021-11-21T07:07:08.000Z</time>
      </trkpt>
      <trkpt lat="45.86119" lon="-1.23004">
        <ele>-10</ele>
        <time>2021-11-21T07:07:11.000Z</time>
      </trkpt>
      <trkpt lat="45.86116" lon="-1.23003">
        <ele>-10.39999961853</ele>
        <time>2021-11-21T07:07:28.000Z</time>
      </trkpt>
      <trkpt lat="45.8611" lon="-1.23002">
        <ele>-10.39999961853</ele>
        <time>2021-11-21T07:07:30.000Z</time>
      </trkpt>
      <trkpt lat="45.86101" lon="-1.23">
        <ele>-10.39999961853</ele>
        <time>2021-11-21T07:07:32.000Z</time>
      </trkpt>
      <trkpt lat="45.86089" lon="-1.23">
        <ele>-10.60000038147</ele>
        <time>2021-11-21T07:07:34.000Z</time>
      </trkpt>
      <trkpt lat="45.86069" lon="-1.22997">
        <ele>-11</ele>
        <time>2021-11-21T07:07:37.000Z</time>
      </trkpt>
      <trkpt lat="45.86062" lon="-1.22995">
        <ele>-11</ele>
        <time>2021-11-21T07:07:38.000Z</time>
      </trkpt>
      <trkpt lat="45.86056" lon="-1.22991">
        <ele>-11.199999809265</ele>
        <time>2021-11-21T07:07:39.000Z</time>
      </trkpt>
      <trkpt lat="45.86037" lon="-1.22977">
        <ele>-11.199999809265</ele>
        <time>2021-11-21T07:07:42.000Z</time>
      </trkpt>
      <trkpt lat="45.86031" lon="-1.22972">
        <ele>-11.199999809265</ele>
        <time>2021-11-21T07:07:43.000Z</time>
      </trkpt>
      <trkpt lat="45.86026" lon="-1.22968">
        <ele>-11.199999809265</ele>
        <time>2021-11-21T07:07:44.000Z</time>
      </trkpt>
      <trkpt lat="45.86013" lon="-1.22966">
        <ele>-11.199999809265</ele>
        <time>2021-11-21T07:07:46.000Z</time>
      </trkpt>
      <trkpt lat="45.85992" lon="-1.22966">
        <ele>-11.199999809265</ele>
        <time>2021-11-21T07:07:49.000Z</time>
      </trkpt>
      <trkpt lat="45.85971" lon="-1.22962">
        <ele>-11.199999809265</ele>
        <time>2021-11-21T07:07:52.000Z</time>
      </trkpt>
      <trkpt lat="45.85941" lon="-1.22961">
        <ele>-11.199999809265</ele>
        <time>2021-11-21T07:07:56.000Z</time>
      </trkpt>
      <trkpt lat="45.85933" lon="-1.22959">
        <ele>-11.199999809265</ele>
        <time>2021-11-21T07:07:57.000Z</time>
      </trkpt>
      <trkpt lat="45.8591" lon="-1.22952">
        <ele>-11.199999809265</ele>
        <time>2021-11-21T07:08:00.000Z</time>
      </trkpt>
      <trkpt lat="45.85895" lon="-1.22951">
        <ele>-11.199999809265</ele>
        <time>2021-11-21T07:08:02.000Z</time>
      </trkpt>
      <trkpt lat="45.85865" lon="-1.22965">
        <ele>-11.199999809265</ele>
        <time>2021-11-21T07:08:06.000Z</time>
      </trkpt>
      <trkpt lat="45.85857" lon="-1.22968">
        <ele>-11.199999809265</ele>
        <time>2021-11-21T07:08:07.000Z</time>
      </trkpt>
      <trkpt lat="45.85842" lon="-1.22965">
        <ele>-11.39999961853</ele>
        <time>2021-11-21T07:08:09.000Z</time>
      </trkpt>
      <trkpt lat="45.85818" lon="-1.2294">
        <ele>-11.199999809265</ele>
        <time>2021-11-21T07:08:13.000Z</time>
      </trkpt>
      <trkpt lat="45.85788" lon="-1.22914">
        <ele>-11.199999809265</ele>
        <time>2021-11-21T07:08:18.000Z</time>
      </trkpt>
      <trkpt lat="45.85775" lon="-1.22905">
        <ele>-11.199999809265</ele>
        <time>2021-11-21T07:08:20.000Z</time>
      </trkpt>
      <trkpt lat="45.85754" lon="-1.22896">
        <ele>-11</ele>
        <time>2021-11-21T07:08:23.000Z</time>
      </trkpt>
      <trkpt lat="45.8574" lon="-1.22889">
        <ele>-11.199999809265</ele>
        <time>2021-11-21T07:08:25.000Z</time>
      </trkpt>
      <trkpt lat="45.85722" lon="-1.22873">
        <ele>-11.199999809265</ele>
        <time>2021-11-21T07:08:28.000Z</time>
      </trkpt>
      <trkpt lat="45.85673" lon="-1.22836">
        <ele>-10.800000190735</ele>
        <time>2021-11-21T07:08:36.000Z</time>
      </trkpt>
      <trkpt lat="45.8566" lon="-1.22829">
        <ele>-10.800000190735</ele>
        <time>2021-11-21T07:08:38.000Z</time>
      </trkpt>
      <trkpt lat="45.85648" lon="-1.22827">
        <ele>-10.800000190735</ele>
        <time>2021-11-21T07:08:40.000Z</time>
      </trkpt>
      <trkpt lat="45.85643" lon="-1.2283">
        <ele>-10.60000038147</ele>
        <time>2021-11-21T07:08:41.000Z</time>
      </trkpt>
      <trkpt lat="45.85641" lon="-1.22835">
        <ele>-10.39999961853</ele>
        <time>2021-11-21T07:08:42.000Z</time>
      </trkpt>
      <trkpt lat="45.85635" lon="-1.22846">
        <ele>-10.60000038147</ele>
        <time>2021-11-21T07:08:45.000Z</time>
      </trkpt>
      <trkpt lat="45.85627" lon="-1.22841">
        <ele>-10.39999961853</ele>
        <time>2021-11-21T07:08:48.000Z</time>
      </trkpt>
      <trkpt lat="45.85619" lon="-1.22823">
        <ele>-10.199999809265</ele>
        <time>2021-11-21T07:08:51.000Z</time>
      </trkpt>
      <trkpt lat="45.85616" lon="-1.22816">
        <ele>-10</ele>
        <time>2021-11-21T07:08:52.000Z</time>
      </trkpt>
      <trkpt lat="45.85612" lon="-1.22809">
        <ele>-10</ele>
        <time>2021-11-21T07:08:53.000Z</time>
      </trkpt>
      <trkpt lat="45.85592" lon="-1.22767">
        <ele>-9.8000001907349</ele>
        <time>2021-11-21T07:08:59.000Z</time>
      </trkpt>
      <trkpt lat="45.85584" lon="-1.2276">
        <ele>-9.8000001907349</ele>
        <time>2021-11-21T07:09:01.000Z</time>
      </trkpt>
      <trkpt lat="45.8558" lon="-1.2276">
        <ele>-9.8000001907349</ele>
        <time>2021-11-21T07:09:02.000Z</time>
      </trkpt>
      <trkpt lat="45.85564" lon="-1.22763">
        <ele>-9.6000003814697</ele>
        <time>2021-11-21T07:09:07.000Z</time>
      </trkpt>
      <trkpt lat="45.8555" lon="-1.22774">
        <ele>-9</ele>
        <time>2021-11-21T07:09:12.000Z</time>
      </trkpt>
      <trkpt lat="45.85533" lon="-1.2279">
        <ele>-8</ele>
        <time>2021-11-21T07:09:17.000Z</time>
      </trkpt>
      <trkpt lat="45.8553" lon="-1.22793">
        <ele>-8</ele>
        <time>2021-11-21T07:09:18.000Z</time>
      </trkpt>
      <trkpt lat="45.85513" lon="-1.2281">
        <ele>-7.5999999046326</ele>
        <time>2021-11-21T07:09:22.000Z</time>
      </trkpt>
      <trkpt lat="45.85506" lon="-1.22814">
        <ele>-7.5999999046326</ele>
        <time>2021-11-21T07:09:23.000Z</time>
      </trkpt>
      <trkpt lat="45.85491" lon="-1.22821">
        <ele>-7.5999999046326</ele>
        <time>2021-11-21T07:09:25.000Z</time>
      </trkpt>
      <trkpt lat="45.85471" lon="-1.22837">
        <ele>-7.4000000953674</ele>
        <time>2021-11-21T07:09:28.000Z</time>
      </trkpt>
      <trkpt lat="45.85464" lon="-1.22842">
        <ele>-7.4000000953674</ele>
        <time>2021-11-21T07:09:29.000Z</time>
      </trkpt>
      <trkpt lat="45.85451" lon="-1.22848">
        <ele>-7.5999999046326</ele>
        <time>2021-11-21T07:09:31.000Z</time>
      </trkpt>
      <trkpt lat="45.85444" lon="-1.22849">
        <ele>-7.8000001907349</ele>
        <time>2021-11-21T07:09:32.000Z</time>
      </trkpt>
      <trkpt lat="45.85437" lon="-1.2285">
        <ele>-7.8000001907349</ele>
        <time>2021-11-21T07:09:33.000Z</time>
      </trkpt>
      <trkpt lat="45.85425" lon="-1.22857">
        <ele>-7.8000001907349</ele>
        <time>2021-11-21T07:09:35.000Z</time>
      </trkpt>
      <trkpt lat="45.85419" lon="-1.22861">
        <ele>-7.8000001907349</ele>
        <time>2021-11-21T07:09:36.000Z</time>
      </trkpt>
      <trkpt lat="45.85405" lon="-1.22872">
        <ele>-7.8000001907349</ele>
        <time>2021-11-21T07:09:39.000Z</time>
      </trkpt>
      <trkpt lat="45.85403" lon="-1.22872">
        <ele>-8</ele>
        <time>2021-11-21T07:09:40.000Z</time>
      </trkpt>
      <trkpt lat="45.85398" lon="-1.22862">
        <ele>-7.4000000953674</ele>
        <time>2021-11-21T07:09:43.000Z</time>
      </trkpt>
      <trkpt lat="45.85397" lon="-1.22856">
        <ele>-7.4000000953674</ele>
        <time>2021-11-21T07:09:44.000Z</time>
      </trkpt>
      <trkpt lat="45.85395" lon="-1.22844">
        <ele>-7</ele>
        <time>2021-11-21T07:09:46.000Z</time>
      </trkpt>
      <trkpt lat="45.85393" lon="-1.22836">
        <ele>-7</ele>
        <time>2021-11-21T07:09:47.000Z</time>
      </trkpt>
      <trkpt lat="45.85392" lon="-1.22829">
        <ele>-7</ele>
        <time>2021-11-21T07:09:48.000Z</time>
      </trkpt>
      <trkpt lat="45.85386" lon="-1.22816">
        <ele>-6.5999999046326</ele>
        <time>2021-11-21T07:09:50.000Z</time>
      </trkpt>
      <trkpt lat="45.85369" lon="-1.22792">
        <ele>-6.5999999046326</ele>
        <time>2021-11-21T07:09:55.000Z</time>
      </trkpt>
      <trkpt lat="45.85359" lon="-1.22779">
        <ele>-6.5999999046326</ele>
        <time>2021-11-21T07:09:58.000Z</time>
      </trkpt>
      <trkpt lat="45.85356" lon="-1.22774">
        <ele>-6.5999999046326</ele>
        <time>2021-11-21T07:09:59.000Z</time>
      </trkpt>
      <trkpt lat="45.85353" lon="-1.22761">
        <ele>-6.5999999046326</ele>
        <time>2021-11-21T07:10:01.000Z</time>
      </trkpt>
      <trkpt lat="45.85351" lon="-1.2275">
        <ele>-6.5999999046326</ele>
        <time>2021-11-21T07:10:03.000Z</time>
      </trkpt>
      <trkpt lat="45.85346" lon="-1.22725">
        <ele>-6.1999998092651</ele>
        <time>2021-11-21T07:10:07.000Z</time>
      </trkpt>
      <trkpt lat="45.85343" lon="-1.22716">
        <ele>-6</ele>
        <time>2021-11-21T07:10:08.000Z</time>
      </trkpt>
      <trkpt lat="45.85335" lon="-1.22697">
        <ele>-5.8000001907349</ele>
        <time>2021-11-21T07:10:10.000Z</time>
      </trkpt>
      <trkpt lat="45.85322" lon="-1.22669">
        <ele>-6</ele>
        <time>2021-11-21T07:10:13.000Z</time>
      </trkpt>
      <trkpt lat="45.85312" lon="-1.22646">
        <ele>-5.8000001907349</ele>
        <time>2021-11-21T07:10:16.000Z</time>
      </trkpt>
      <trkpt lat="45.85309" lon="-1.2264">
        <ele>-5.8000001907349</ele>
        <time>2021-11-21T07:10:17.000Z</time>
      </trkpt>
      <trkpt lat="45.85306" lon="-1.22632">
        <ele>-5.5999999046326</ele>
        <time>2021-11-21T07:10:18.000Z</time>
      </trkpt>
      <trkpt lat="45.85303" lon="-1.22622">
        <ele>-5.5999999046326</ele>
        <time>2021-11-21T07:10:19.000Z</time>
      </trkpt>
      <trkpt lat="45.85291" lon="-1.22589">
        <ele>-5.1999998092651</ele>
        <time>2021-11-21T07:10:23.000Z</time>
      </trkpt>
      <trkpt lat="45.85293" lon="-1.22574">
        <ele>-5.1999998092651</ele>
        <time>2021-11-21T07:10:25.000Z</time>
      </trkpt>
      <trkpt lat="45.85295" lon="-1.22566">
        <ele>-5.1999998092651</ele>
        <time>2021-11-21T07:10:26.000Z</time>
      </trkpt>
      <trkpt lat="45.853" lon="-1.2255">
        <ele>-5.1999998092651</ele>
        <time>2021-11-21T07:10:28.000Z</time>
      </trkpt>
      <trkpt lat="45.85304" lon="-1.22536">
        <ele>-5.1999998092651</ele>
        <time>2021-11-21T07:10:30.000Z</time>
      </trkpt>
      <trkpt lat="45.85312" lon="-1.22507">
        <ele>-5.1999998092651</ele>
        <time>2021-11-21T07:10:34.000Z</time>
      </trkpt>
      <trkpt lat="45.8531" lon="-1.22499">
        <ele>-5.1999998092651</ele>
        <time>2021-11-21T07:10:35.000Z</time>
      </trkpt>
      <trkpt lat="45.85305" lon="-1.22485">
        <ele>-5.5999999046326</ele>
        <time>2021-11-21T07:10:37.000Z</time>
      </trkpt>
      <trkpt lat="45.85296" lon="-1.22472">
        <ele>-5.5999999046326</ele>
        <time>2021-11-21T07:10:39.000Z</time>
      </trkpt>
      <trkpt lat="45.85287" lon="-1.22461">
        <ele>-5.8000001907349</ele>
        <time>2021-11-21T07:10:41.000Z</time>
      </trkpt>
      <trkpt lat="45.85276" lon="-1.22452">
        <ele>-5.8000001907349</ele>
        <time>2021-11-21T07:10:43.000Z</time>
      </trkpt>
      <trkpt lat="45.85265" lon="-1.22449">
        <ele>-6.1999998092651</ele>
        <time>2021-11-21T07:10:45.000Z</time>
      </trkpt>
      <trkpt lat="45.85256" lon="-1.22447">
        <ele>-6.1999998092651</ele>
        <time>2021-11-21T07:10:47.000Z</time>
      </trkpt>
      <trkpt lat="45.85251" lon="-1.22448">
        <ele>-6.1999998092651</ele>
        <time>2021-11-21T07:10:48.000Z</time>
      </trkpt>
      <trkpt lat="45.85236" lon="-1.22452">
        <ele>-5.8000001907349</ele>
        <time>2021-11-21T07:10:51.000Z</time>
      </trkpt>
      <trkpt lat="45.85226" lon="-1.22446">
        <ele>-5.8000001907349</ele>
        <time>2021-11-21T07:10:53.000Z</time>
      </trkpt>
      <trkpt lat="45.85221" lon="-1.22442">
        <ele>-5.8000001907349</ele>
        <time>2021-11-21T07:10:54.000Z</time>
      </trkpt>
      <trkpt lat="45.85208" lon="-1.22429">
        <ele>-5.4000000953674</ele>
        <time>2021-11-21T07:10:57.000Z</time>
      </trkpt>
      <trkpt lat="45.85199" lon="-1.22421">
        <ele>-5.4000000953674</ele>
        <time>2021-11-21T07:10:59.000Z</time>
      </trkpt>
      <trkpt lat="45.85185" lon="-1.2241">
        <ele>-5.1999998092651</ele>
        <time>2021-11-21T07:11:02.000Z</time>
      </trkpt>
      <trkpt lat="45.85175" lon="-1.22406">
        <ele>-4.8000001907349</ele>
        <time>2021-11-21T07:11:04.000Z</time>
      </trkpt>
      <trkpt lat="45.85153" lon="-1.22413">
        <ele>-5.1999998092651</ele>
        <time>2021-11-21T07:11:08.000Z</time>
      </trkpt>
      <trkpt lat="45.85147" lon="-1.22414">
        <ele>-5</ele>
        <time>2021-11-21T07:11:09.000Z</time>
      </trkpt>
      <trkpt lat="45.8513" lon="-1.22409">
        <ele>-5.4000000953674</ele>
        <time>2021-11-21T07:11:12.000Z</time>
      </trkpt>
      <trkpt lat="45.85122" lon="-1.224">
        <ele>-5.8000001907349</ele>
        <time>2021-11-21T07:11:14.000Z</time>
      </trkpt>
      <trkpt lat="45.8512" lon="-1.22393">
        <ele>-5.8000001907349</ele>
        <time>2021-11-21T07:11:15.000Z</time>
      </trkpt>
      <trkpt lat="45.85119" lon="-1.22387">
        <ele>-5.8000001907349</ele>
        <time>2021-11-21T07:11:16.000Z</time>
      </trkpt>
      <trkpt lat="45.85121" lon="-1.22373">
        <ele>-5.8000001907349</ele>
        <time>2021-11-21T07:11:18.000Z</time>
      </trkpt>
      <trkpt lat="45.85121" lon="-1.22358">
        <ele>-5.5999999046326</ele>
        <time>2021-11-21T07:11:20.000Z</time>
      </trkpt>
      <trkpt lat="45.85118" lon="-1.22351">
        <ele>-5.4000000953674</ele>
        <time>2021-11-21T07:11:21.000Z</time>
      </trkpt>
      <trkpt lat="45.85116" lon="-1.22346">
        <ele>-5.4000000953674</ele>
        <time>2021-11-21T07:11:22.000Z</time>
      </trkpt>
      <trkpt lat="45.85108" lon="-1.22328">
        <ele>-5.1999998092651</ele>
        <time>2021-11-21T07:11:25.000Z</time>
      </trkpt>
      <trkpt lat="45.85103" lon="-1.22323">
        <ele>-5.1999998092651</ele>
        <time>2021-11-21T07:11:26.000Z</time>
      </trkpt>
      <trkpt lat="45.85093" lon="-1.22319">
        <ele>-5.1999998092651</ele>
        <time>2021-11-21T07:11:28.000Z</time>
      </trkpt>
      <trkpt lat="45.85089" lon="-1.22319">
        <ele>-5.1999998092651</ele>
        <time>2021-11-21T07:11:29.000Z</time>
      </trkpt>
      <trkpt lat="45.85086" lon="-1.2232">
        <ele>-5.1999998092651</ele>
        <time>2021-11-21T07:11:30.000Z</time>
      </trkpt>
      <trkpt lat="45.85067" lon="-1.22325">
        <ele>-5</ele>
        <time>2021-11-21T07:11:35.000Z</time>
      </trkpt>
      <trkpt lat="45.85058" lon="-1.22324">
        <ele>-5</ele>
        <time>2021-11-21T07:11:37.000Z</time>
      </trkpt>
      <trkpt lat="45.85053" lon="-1.22319">
        <ele>-5</ele>
        <time>2021-11-21T07:11:38.000Z</time>
      </trkpt>
      <trkpt lat="45.85043" lon="-1.22306">
        <ele>-5</ele>
        <time>2021-11-21T07:11:40.000Z</time>
      </trkpt>
      <trkpt lat="45.85039" lon="-1.22298">
        <ele>-5</ele>
        <time>2021-11-21T07:11:41.000Z</time>
      </trkpt>
      <trkpt lat="45.85033" lon="-1.22283">
        <ele>-5.4000000953674</ele>
        <time>2021-11-21T07:11:43.000Z</time>
      </trkpt>
      <trkpt lat="45.85026" lon="-1.22267">
        <ele>-5.4000000953674</ele>
        <time>2021-11-21T07:11:45.000Z</time>
      </trkpt>
      <trkpt lat="45.85021" lon="-1.2226">
        <ele>-5.4000000953674</ele>
        <time>2021-11-21T07:11:46.000Z</time>
      </trkpt>
      <trkpt lat="45.85016" lon="-1.22254">
        <ele>-5.4000000953674</ele>
        <time>2021-11-21T07:11:47.000Z</time>
      </trkpt>
      <trkpt lat="45.85006" lon="-1.22244">
        <ele>-5.5999999046326</ele>
        <time>2021-11-21T07:11:49.000Z</time>
      </trkpt>
      <trkpt lat="45.85002" lon="-1.22238">
        <ele>-5.5999999046326</ele>
        <time>2021-11-21T07:11:50.000Z</time>
      </trkpt>
      <trkpt lat="45.84998" lon="-1.22231">
        <ele>-5.5999999046326</ele>
        <time>2021-11-21T07:11:51.000Z</time>
      </trkpt>
      <trkpt lat="45.84989" lon="-1.22219">
        <ele>-5.5999999046326</ele>
        <time>2021-11-21T07:11:53.000Z</time>
      </trkpt>
      <trkpt lat="45.84985" lon="-1.22214">
        <ele>-5.5999999046326</ele>
        <time>2021-11-21T07:11:54.000Z</time>
      </trkpt>
      <trkpt lat="45.84975" lon="-1.22202">
        <ele>-5.5999999046326</ele>
        <time>2021-11-21T07:11:56.000Z</time>
      </trkpt>
      <trkpt lat="45.84967" lon="-1.22188">
        <ele>-5.8000001907349</ele>
        <time>2021-11-21T07:11:58.000Z</time>
      </trkpt>
      <trkpt lat="45.84964" lon="-1.22182">
        <ele>-5.8000001907349</ele>
        <time>2021-11-21T07:11:59.000Z</time>
      </trkpt>
      <trkpt lat="45.8494" lon="-1.22129">
        <ele>-6.1999998092651</ele>
        <time>2021-11-21T07:12:06.000Z</time>
      </trkpt>
      <trkpt lat="45.84938" lon="-1.22122">
        <ele>-6.1999998092651</ele>
        <time>2021-11-21T07:12:07.000Z</time>
      </trkpt>
      <trkpt lat="45.84935" lon="-1.22099">
        <ele>-6.1999998092651</ele>
        <time>2021-11-21T07:12:10.000Z</time>
      </trkpt>
      <trkpt lat="45.84933" lon="-1.22092">
        <ele>-6.1999998092651</ele>
        <time>2021-11-21T07:12:11.000Z</time>
      </trkpt>
      <trkpt lat="45.8493" lon="-1.22086">
        <ele>-6.4000000953674</ele>
        <time>2021-11-21T07:12:13.000Z</time>
      </trkpt>
      <trkpt lat="45.84917" lon="-1.22093">
        <ele>-6.4000000953674</ele>
        <time>2021-11-21T07:12:17.000Z</time>
      </trkpt>
      <trkpt lat="45.84911" lon="-1.22101">
        <ele>-6.4000000953674</ele>
        <time>2021-11-21T07:12:19.000Z</time>
      </trkpt>
      <trkpt lat="45.84899" lon="-1.2211">
        <ele>-6.4000000953674</ele>
        <time>2021-11-21T07:12:22.000Z</time>
      </trkpt>
      <trkpt lat="45.84888" lon="-1.22107">
        <ele>-6.4000000953674</ele>
        <time>2021-11-21T07:12:25.000Z</time>
      </trkpt>
      <trkpt lat="45.84884" lon="-1.22103">
        <ele>-6.4000000953674</ele>
        <time>2021-11-21T07:12:26.000Z</time>
      </trkpt>
      <trkpt lat="45.84879" lon="-1.22093">
        <ele>-6.1999998092651</ele>
        <time>2021-11-21T07:12:28.000Z</time>
      </trkpt>
      <trkpt lat="45.84876" lon="-1.2208">
        <ele>-6.1999998092651</ele>
        <time>2021-11-21T07:12:30.000Z</time>
      </trkpt>
      <trkpt lat="45.84875" lon="-1.22074">
        <ele>-6.1999998092651</ele>
        <time>2021-11-21T07:12:31.000Z</time>
      </trkpt>
      <trkpt lat="45.8487" lon="-1.22063">
        <ele>-6</ele>
        <time>2021-11-21T07:12:33.000Z</time>
      </trkpt>
      <trkpt lat="45.84865" lon="-1.2206">
        <ele>-5.8000001907349</ele>
        <time>2021-11-21T07:12:34.000Z</time>
      </trkpt>
      <trkpt lat="45.84861" lon="-1.22058">
        <ele>-5.8000001907349</ele>
        <time>2021-11-21T07:12:35.000Z</time>
      </trkpt>
      <trkpt lat="45.84851" lon="-1.22061">
        <ele>-5.5999999046326</ele>
        <time>2021-11-21T07:12:37.000Z</time>
      </trkpt>
      <trkpt lat="45.84839" lon="-1.22075">
        <ele>-5.1999998092651</ele>
        <time>2021-11-21T07:12:40.000Z</time>
      </trkpt>
      <trkpt lat="45.84834" lon="-1.22091">
        <ele>-5</ele>
        <time>2021-11-21T07:12:42.000Z</time>
      </trkpt>
      <trkpt lat="45.84833" lon="-1.22099">
        <ele>-5</ele>
        <time>2021-11-21T07:12:43.000Z</time>
      </trkpt>
      <trkpt lat="45.84829" lon="-1.22107">
        <ele>-4.8000001907349</ele>
        <time>2021-11-21T07:12:44.000Z</time>
      </trkpt>
      <trkpt lat="45.84818" lon="-1.22115">
        <ele>-4.8000001907349</ele>
        <time>2021-11-21T07:12:46.000Z</time>
      </trkpt>
      <trkpt lat="45.84806" lon="-1.2212">
        <ele>-4.8000001907349</ele>
        <time>2021-11-21T07:12:48.000Z</time>
      </trkpt>
      <trkpt lat="45.84795" lon="-1.22127">
        <ele>-5.1999998092651</ele>
        <time>2021-11-21T07:12:50.000Z</time>
      </trkpt>
      <trkpt lat="45.8479" lon="-1.22131">
        <ele>-5.1999998092651</ele>
        <time>2021-11-21T07:12:51.000Z</time>
      </trkpt>
      <trkpt lat="45.84781" lon="-1.22139">
        <ele>-5.1999998092651</ele>
        <time>2021-11-21T07:12:53.000Z</time>
      </trkpt>
      <trkpt lat="45.84776" lon="-1.2214">
        <ele>-5.1999998092651</ele>
        <time>2021-11-21T07:12:54.000Z</time>
      </trkpt>
      <trkpt lat="45.84772" lon="-1.22138">
        <ele>-5.4000000953674</ele>
        <time>2021-11-21T07:12:55.000Z</time>
      </trkpt>
      <trkpt lat="45.84764" lon="-1.22133">
        <ele>-5.5999999046326</ele>
        <time>2021-11-21T07:12:57.000Z</time>
      </trkpt>
      <trkpt lat="45.84755" lon="-1.22126">
        <ele>-5.5999999046326</ele>
        <time>2021-11-21T07:12:59.000Z</time>
      </trkpt>
      <trkpt lat="45.84751" lon="-1.22118">
        <ele>-5.4000000953674</ele>
        <time>2021-11-21T07:13:01.000Z</time>
      </trkpt>
      <trkpt lat="45.84745" lon="-1.2211">
        <ele>-5.5999999046326</ele>
        <time>2021-11-21T07:13:03.000Z</time>
      </trkpt>
      <trkpt lat="45.84737" lon="-1.221">
        <ele>-5.8000001907349</ele>
        <time>2021-11-21T07:13:05.000Z</time>
      </trkpt>
      <trkpt lat="45.84734" lon="-1.22095">
        <ele>-6</ele>
        <time>2021-11-21T07:13:06.000Z</time>
      </trkpt>
      <trkpt lat="45.84722" lon="-1.22074">
        <ele>-5.1999998092651</ele>
        <time>2021-11-21T07:13:10.000Z</time>
      </trkpt>
      <trkpt lat="45.84718" lon="-1.22042">
        <ele>-5.4000000953674</ele>
        <time>2021-11-21T07:13:14.000Z</time>
      </trkpt>
      <trkpt lat="45.84713" lon="-1.2203">
        <ele>-5.5999999046326</ele>
        <time>2021-11-21T07:13:16.000Z</time>
      </trkpt>
      <trkpt lat="45.84709" lon="-1.22026">
        <ele>-5.4000000953674</ele>
        <time>2021-11-21T07:13:17.000Z</time>
      </trkpt>
      <trkpt lat="45.84704" lon="-1.22024">
        <ele>-5.4000000953674</ele>
        <time>2021-11-21T07:13:18.000Z</time>
      </trkpt>
      <trkpt lat="45.84695" lon="-1.22028">
        <ele>-5.4000000953674</ele>
        <time>2021-11-21T07:13:20.000Z</time>
      </trkpt>
      <trkpt lat="45.84686" lon="-1.22035">
        <ele>-5.4000000953674</ele>
        <time>2021-11-21T07:13:22.000Z</time>
      </trkpt>
      <trkpt lat="45.84678" lon="-1.22034">
        <ele>-5.4000000953674</ele>
        <time>2021-11-21T07:13:24.000Z</time>
      </trkpt>
      <trkpt lat="45.84672" lon="-1.22027">
        <ele>-5.4000000953674</ele>
        <time>2021-11-21T07:13:26.000Z</time>
      </trkpt>
      <trkpt lat="45.84671" lon="-1.22022">
        <ele>-5.4000000953674</ele>
        <time>2021-11-21T07:13:27.000Z</time>
      </trkpt>
      <trkpt lat="45.84671" lon="-1.22016">
        <ele>-5.4000000953674</ele>
        <time>2021-11-21T07:13:28.000Z</time>
      </trkpt>
      <trkpt lat="45.84669" lon="-1.21996">
        <ele>-5.1999998092651</ele>
        <time>2021-11-21T07:13:31.000Z</time>
      </trkpt>
      <trkpt lat="45.84666" lon="-1.21983">
        <ele>-5.1999998092651</ele>
        <time>2021-11-21T07:13:33.000Z</time>
      </trkpt>
      <trkpt lat="45.84662" lon="-1.21973">
        <ele>-5.1999998092651</ele>
        <time>2021-11-21T07:13:35.000Z</time>
      </trkpt>
      <trkpt lat="45.84659" lon="-1.21969">
        <ele>-5</ele>
        <time>2021-11-21T07:13:36.000Z</time>
      </trkpt>
      <trkpt lat="45.84657" lon="-1.21964">
        <ele>-5.1999998092651</ele>
        <time>2021-11-21T07:13:37.000Z</time>
      </trkpt>
      <trkpt lat="45.84652" lon="-1.21953">
        <ele>-5</ele>
        <time>2021-11-21T07:13:39.000Z</time>
      </trkpt>
      <trkpt lat="45.84647" lon="-1.2194">
        <ele>-4.8000001907349</ele>
        <time>2021-11-21T07:13:41.000Z</time>
      </trkpt>
      <trkpt lat="45.84642" lon="-1.21927">
        <ele>-4.8000001907349</ele>
        <time>2021-11-21T07:13:43.000Z</time>
      </trkpt>
      <trkpt lat="45.84639" lon="-1.21913">
        <ele>-5</ele>
        <time>2021-11-21T07:13:45.000Z</time>
      </trkpt>
      <trkpt lat="45.84638" lon="-1.21905">
        <ele>-4.8000001907349</ele>
        <time>2021-11-21T07:13:46.000Z</time>
      </trkpt>
      <trkpt lat="45.84634" lon="-1.21885">
        <ele>-4.8000001907349</ele>
        <time>2021-11-21T07:13:49.000Z</time>
      </trkpt>
      <trkpt lat="45.84628" lon="-1.21873">
        <ele>-4.5999999046326</ele>
        <time>2021-11-21T07:13:51.000Z</time>
      </trkpt>
      <trkpt lat="45.84626" lon="-1.21866">
        <ele>-4.4000000953674</ele>
        <time>2021-11-21T07:13:52.000Z</time>
      </trkpt>
      <trkpt lat="45.84624" lon="-1.21845">
        <ele>-4</ele>
        <time>2021-11-21T07:13:55.000Z</time>
      </trkpt>
      <trkpt lat="45.84621" lon="-1.21824">
        <ele>-3.7999999523163</ele>
        <time>2021-11-21T07:13:58.000Z</time>
      </trkpt>
      <trkpt lat="45.84618" lon="-1.2181">
        <ele>-3.7999999523163</ele>
        <time>2021-11-21T07:14:00.000Z</time>
      </trkpt>
      <trkpt lat="45.84616" lon="-1.21802">
        <ele>-3.7999999523163</ele>
        <time>2021-11-21T07:14:01.000Z</time>
      </trkpt>
      <trkpt lat="45.84614" lon="-1.21796">
        <ele>-3.4000000953674</ele>
        <time>2021-11-21T07:14:02.000Z</time>
      </trkpt>
      <trkpt lat="45.84612" lon="-1.21783">
        <ele>-3.2000000476837</ele>
        <time>2021-11-21T07:14:04.000Z</time>
      </trkpt>
      <trkpt lat="45.84611" lon="-1.21777">
        <ele>-3</ele>
        <time>2021-11-21T07:14:05.000Z</time>
      </trkpt>
      <trkpt lat="45.84612" lon="-1.2177">
        <ele>-3</ele>
        <time>2021-11-21T07:14:06.000Z</time>
      </trkpt>
      <trkpt lat="45.84613" lon="-1.21753">
        <ele>-3</ele>
        <time>2021-11-21T07:14:08.000Z</time>
      </trkpt>
      <trkpt lat="45.84611" lon="-1.21744">
        <ele>-3.2000000476837</ele>
        <time>2021-11-21T07:14:09.000Z</time>
      </trkpt>
      <trkpt lat="45.84608" lon="-1.21735">
        <ele>-3.4000000953674</ele>
        <time>2021-11-21T07:14:10.000Z</time>
      </trkpt>
      <trkpt lat="45.846" lon="-1.21726">
        <ele>-3.4000000953674</ele>
        <time>2021-11-21T07:14:12.000Z</time>
      </trkpt>
      <trkpt lat="45.84591" lon="-1.21722">
        <ele>-3.7999999523163</ele>
        <time>2021-11-21T07:14:14.000Z</time>
      </trkpt>
      <trkpt lat="45.84586" lon="-1.2172">
        <ele>-3.7999999523163</ele>
        <time>2021-11-21T07:14:15.000Z</time>
      </trkpt>
      <trkpt lat="45.84575" lon="-1.21718">
        <ele>-4</ele>
        <time>2021-11-21T07:14:17.000Z</time>
      </trkpt>
      <trkpt lat="45.84569" lon="-1.21716">
        <ele>-4.1999998092651</ele>
        <time>2021-11-21T07:14:18.000Z</time>
      </trkpt>
      <trkpt lat="45.84563" lon="-1.21714">
        <ele>-4.1999998092651</ele>
        <time>2021-11-21T07:14:19.000Z</time>
      </trkpt>
      <trkpt lat="45.84551" lon="-1.21709">
        <ele>-4.4000000953674</ele>
        <time>2021-11-21T07:14:21.000Z</time>
      </trkpt>
      <trkpt lat="45.84522" lon="-1.21704">
        <ele>-4.8000001907349</ele>
        <time>2021-11-21T07:14:26.000Z</time>
      </trkpt>
      <trkpt lat="45.84517" lon="-1.21702">
        <ele>-4.8000001907349</ele>
        <time>2021-11-21T07:14:27.000Z</time>
      </trkpt>
      <trkpt lat="45.84507" lon="-1.21699">
        <ele>-4.8000001907349</ele>
        <time>2021-11-21T07:14:29.000Z</time>
      </trkpt>
      <trkpt lat="45.84499" lon="-1.21699">
        <ele>-5</ele>
        <time>2021-11-21T07:14:31.000Z</time>
      </trkpt>
      <trkpt lat="45.84491" lon="-1.217">
        <ele>-5</ele>
        <time>2021-11-21T07:14:33.000Z</time>
      </trkpt>
      <trkpt lat="45.84481" lon="-1.21697">
        <ele>-5</ele>
        <time>2021-11-21T07:14:35.000Z</time>
      </trkpt>
      <trkpt lat="45.84473" lon="-1.21694">
        <ele>-5</ele>
        <time>2021-11-21T07:14:37.000Z</time>
      </trkpt>
      <trkpt lat="45.8446" lon="-1.21691">
        <ele>-5</ele>
        <time>2021-11-21T07:14:40.000Z</time>
      </trkpt>
      <trkpt lat="45.84454" lon="-1.21688">
        <ele>-5</ele>
        <time>2021-11-21T07:14:41.000Z</time>
      </trkpt>
      <trkpt lat="45.84437" lon="-1.2168">
        <ele>-5</ele>
        <time>2021-11-21T07:14:44.000Z</time>
      </trkpt>
      <trkpt lat="45.84404" lon="-1.2167">
        <ele>-5</ele>
        <time>2021-11-21T07:14:50.000Z</time>
      </trkpt>
      <trkpt lat="45.84399" lon="-1.21668">
        <ele>-4.8000001907349</ele>
        <time>2021-11-21T07:14:51.000Z</time>
      </trkpt>
      <trkpt lat="45.84378" lon="-1.2166">
        <ele>-4.5999999046326</ele>
        <time>2021-11-21T07:14:55.000Z</time>
      </trkpt>
      <trkpt lat="45.84356" lon="-1.21647">
        <ele>-4.5999999046326</ele>
        <time>2021-11-21T07:14:59.000Z</time>
      </trkpt>
      <trkpt lat="45.84351" lon="-1.21642">
        <ele>-4.4000000953674</ele>
        <time>2021-11-21T07:15:00.000Z</time>
      </trkpt>
      <trkpt lat="45.84321" lon="-1.21612">
        <ele>-4</ele>
        <time>2021-11-21T07:15:05.000Z</time>
      </trkpt>
      <trkpt lat="45.84308" lon="-1.21598">
        <ele>-4</ele>
        <time>2021-11-21T07:15:07.000Z</time>
      </trkpt>
      <trkpt lat="45.84293" lon="-1.2159">
        <ele>-4</ele>
        <time>2021-11-21T07:15:09.000Z</time>
      </trkpt>
      <trkpt lat="45.84278" lon="-1.21588">
        <ele>-4</ele>
        <time>2021-11-21T07:15:11.000Z</time>
      </trkpt>
      <trkpt lat="45.84263" lon="-1.21589">
        <ele>-4</ele>
        <time>2021-11-21T07:15:13.000Z</time>
      </trkpt>
      <trkpt lat="45.84213" lon="-1.21594">
        <ele>-4.1999998092651</ele>
        <time>2021-11-21T07:15:20.000Z</time>
      </trkpt>
      <trkpt lat="45.84193" lon="-1.21595">
        <ele>-4.1999998092651</ele>
        <time>2021-11-21T07:15:23.000Z</time>
      </trkpt>
      <trkpt lat="45.84175" lon="-1.21592">
        <ele>-4.1999998092651</ele>
        <time>2021-11-21T07:15:26.000Z</time>
      </trkpt>
      <trkpt lat="45.84138" lon="-1.21583">
        <ele>-4</ele>
        <time>2021-11-21T07:15:32.000Z</time>
      </trkpt>
      <trkpt lat="45.84125" lon="-1.2158">
        <ele>-4</ele>
        <time>2021-11-21T07:15:34.000Z</time>
      </trkpt>
      <trkpt lat="45.84068" lon="-1.21568">
        <ele>-3.7999999523163</ele>
        <time>2021-11-21T07:15:42.000Z</time>
      </trkpt>
      <trkpt lat="45.84038" lon="-1.21559">
        <ele>-3.5999999046326</ele>
        <time>2021-11-21T07:15:46.000Z</time>
      </trkpt>
      <trkpt lat="45.84023" lon="-1.21555">
        <ele>-3.5999999046326</ele>
        <time>2021-11-21T07:15:48.000Z</time>
      </trkpt>
      <trkpt lat="45.83968" lon="-1.21541">
        <ele>-3.7999999523163</ele>
        <time>2021-11-21T07:15:55.000Z</time>
      </trkpt>
      <trkpt lat="45.83908" lon="-1.21524">
        <ele>-4</ele>
        <time>2021-11-21T07:16:03.000Z</time>
      </trkpt>
      <trkpt lat="45.839" lon="-1.21522">
        <ele>-4</ele>
        <time>2021-11-21T07:16:04.000Z</time>
      </trkpt>
      <trkpt lat="45.83856" lon="-1.2151">
        <ele>-4.1999998092651</ele>
        <time>2021-11-21T07:16:10.000Z</time>
      </trkpt>
      <trkpt lat="45.83809" lon="-1.21497">
        <ele>-4.1999998092651</ele>
        <time>2021-11-21T07:16:17.000Z</time>
      </trkpt>
      <trkpt lat="45.83784" lon="-1.21488">
        <ele>-4</ele>
        <time>2021-11-21T07:16:22.000Z</time>
      </trkpt>
      <trkpt lat="45.83762" lon="-1.21473">
        <ele>-4</ele>
        <time>2021-11-21T07:16:26.000Z</time>
      </trkpt>
      <trkpt lat="45.8375" lon="-1.21466">
        <ele>-3.5999999046326</ele>
        <time>2021-11-21T07:16:28.000Z</time>
      </trkpt>
      <trkpt lat="45.83744" lon="-1.21462">
        <ele>-3.5999999046326</ele>
        <time>2021-11-21T07:16:29.000Z</time>
      </trkpt>
      <trkpt lat="45.8373" lon="-1.21457">
        <ele>-3.4000000953674</ele>
        <time>2021-11-21T07:16:31.000Z</time>
      </trkpt>
      <trkpt lat="45.83715" lon="-1.21455">
        <ele>-3.2000000476837</ele>
        <time>2021-11-21T07:16:33.000Z</time>
      </trkpt>
      <trkpt lat="45.837" lon="-1.21458">
        <ele>-3.4000000953674</ele>
        <time>2021-11-21T07:16:35.000Z</time>
      </trkpt>
      <trkpt lat="45.83686" lon="-1.21465">
        <ele>-3.2000000476837</ele>
        <time>2021-11-21T07:16:37.000Z</time>
      </trkpt>
      <trkpt lat="45.83665" lon="-1.21483">
        <ele>-3</ele>
        <time>2021-11-21T07:16:40.000Z</time>
      </trkpt>
      <trkpt lat="45.83624" lon="-1.21521">
        <ele>-3.4000000953674</ele>
        <time>2021-11-21T07:16:46.000Z</time>
      </trkpt>
      <trkpt lat="45.8358" lon="-1.21561">
        <ele>-3.7999999523163</ele>
        <time>2021-11-21T07:16:53.000Z</time>
      </trkpt>
      <trkpt lat="45.83566" lon="-1.21567">
        <ele>-3.7999999523163</ele>
        <time>2021-11-21T07:16:55.000Z</time>
      </trkpt>
      <trkpt lat="45.83558" lon="-1.21568">
        <ele>-3.7999999523163</ele>
        <time>2021-11-21T07:16:56.000Z</time>
      </trkpt>
      <trkpt lat="45.83528" lon="-1.21569">
        <ele>-3.7999999523163</ele>
        <time>2021-11-21T07:17:00.000Z</time>
      </trkpt>
      <trkpt lat="45.83507" lon="-1.21567">
        <ele>-4</ele>
        <time>2021-11-21T07:17:03.000Z</time>
      </trkpt>
      <trkpt lat="45.83492" lon="-1.21563">
        <ele>-4</ele>
        <time>2021-11-21T07:17:05.000Z</time>
      </trkpt>
      <trkpt lat="45.83479" lon="-1.21556">
        <ele>-4.1999998092651</ele>
        <time>2021-11-21T07:17:07.000Z</time>
      </trkpt>
      <trkpt lat="45.83444" lon="-1.21525">
        <ele>-4</ele>
        <time>2021-11-21T07:17:13.000Z</time>
      </trkpt>
      <trkpt lat="45.83423" lon="-1.21506">
        <ele>-4</ele>
        <time>2021-11-21T07:17:17.000Z</time>
      </trkpt>
      <trkpt lat="45.83417" lon="-1.21501">
        <ele>-4</ele>
        <time>2021-11-21T07:17:18.000Z</time>
      </trkpt>
      <trkpt lat="45.834" lon="-1.21485">
        <ele>-4</ele>
        <time>2021-11-21T07:17:21.000Z</time>
      </trkpt>
      <trkpt lat="45.8339" lon="-1.21469">
        <ele>-4.1999998092651</ele>
        <time>2021-11-21T07:17:23.000Z</time>
      </trkpt>
      <trkpt lat="45.83386" lon="-1.21454">
        <ele>-4.1999998092651</ele>
        <time>2021-11-21T07:17:25.000Z</time>
      </trkpt>
      <trkpt lat="45.83389" lon="-1.21445">
        <ele>-4.4000000953674</ele>
        <time>2021-11-21T07:17:26.000Z</time>
      </trkpt>
      <trkpt lat="45.83392" lon="-1.21435">
        <ele>-4.4000000953674</ele>
        <time>2021-11-21T07:17:27.000Z</time>
      </trkpt>
      <trkpt lat="45.83402" lon="-1.21411">
        <ele>-4.4000000953674</ele>
        <time>2021-11-21T07:17:30.000Z</time>
      </trkpt>
      <trkpt lat="45.83409" lon="-1.21399">
        <ele>-4.4000000953674</ele>
        <time>2021-11-21T07:17:32.000Z</time>
      </trkpt>
      <trkpt lat="45.83416" lon="-1.21386">
        <ele>-4.4000000953674</ele>
        <time>2021-11-21T07:17:34.000Z</time>
      </trkpt>
      <trkpt lat="45.83438" lon="-1.21346">
        <ele>-4.1999998092651</ele>
        <time>2021-11-21T07:17:39.000Z</time>
      </trkpt>
      <trkpt lat="45.8346" lon="-1.21296">
        <ele>-4.8000001907349</ele>
        <time>2021-11-21T07:17:44.000Z</time>
      </trkpt>
      <trkpt lat="45.83492" lon="-1.21239">
        <ele>-5</ele>
        <time>2021-11-21T07:17:51.000Z</time>
      </trkpt>
      <trkpt lat="45.83511" lon="-1.21202">
        <ele>-5.4000000953674</ele>
        <time>2021-11-21T07:17:56.000Z</time>
      </trkpt>
      <trkpt lat="45.83521" lon="-1.21185">
        <ele>-5.5999999046326</ele>
        <time>2021-11-21T07:17:59.000Z</time>
      </trkpt>
      <trkpt lat="45.83523" lon="-1.2118">
        <ele>-5.5999999046326</ele>
        <time>2021-11-21T07:18:00.000Z</time>
      </trkpt>
      <trkpt lat="45.83523" lon="-1.21177">
        <ele>-5.5999999046326</ele>
        <time>2021-11-21T07:18:01.000Z</time>
      </trkpt>
      <trkpt lat="45.83524" lon="-1.21175">
        <ele>-5.8000001907349</ele>
        <time>2021-11-21T07:18:03.000Z</time>
      </trkpt>
      <trkpt lat="45.83524" lon="-1.21176">
        <ele>-6</ele>
        <time>2021-11-21T07:18:04.000Z</time>
      </trkpt>
      <trkpt lat="45.83524" lon="-1.21178">
        <ele>-6</ele>
        <time>2021-11-21T07:18:05.000Z</time>
      </trkpt>
      <trkpt lat="45.83521" lon="-1.21184">
        <ele>-6</ele>
        <time>2021-11-21T07:18:07.000Z</time>
      </trkpt>
      <trkpt lat="45.83518" lon="-1.21191">
        <ele>-6</ele>
        <time>2021-11-21T07:18:10.000Z</time>
      </trkpt>
      <trkpt lat="45.83517" lon="-1.2119">
        <ele>-6</ele>
        <time>2021-11-21T07:18:11.000Z</time>
      </trkpt>
      <trkpt lat="45.8352" lon="-1.21184">
        <ele>-6.1999998092651</ele>
        <time>2021-11-21T07:18:14.000Z</time>
      </trkpt>
      <trkpt lat="45.83521" lon="-1.21176">
        <ele>-6.1999998092651</ele>
        <time>2021-11-21T07:18:16.000Z</time>
      </trkpt>
      <trkpt lat="45.83518" lon="-1.21168">
        <ele>-6.1999998092651</ele>
        <time>2021-11-21T07:18:18.000Z</time>
      </trkpt>
      <trkpt lat="45.83519" lon="-1.21158">
        <ele>-6.4000000953674</ele>
        <time>2021-11-21T07:18:21.000Z</time>
      </trkpt>
      <trkpt lat="45.83518" lon="-1.21155">
        <ele>-6.4000000953674</ele>
        <time>2021-11-21T07:18:22.000Z</time>
      </trkpt>
      <trkpt lat="45.8351" lon="-1.21142">
        <ele>-6.5999999046326</ele>
        <time>2021-11-21T07:18:25.000Z</time>
      </trkpt>
      <trkpt lat="45.83511" lon="-1.21136">
        <ele>-6.5999999046326</ele>
        <time>2021-11-21T07:18:26.000Z</time>
      </trkpt>
      <trkpt lat="45.83517" lon="-1.21125">
        <ele>-6.5999999046326</ele>
        <time>2021-11-21T07:18:28.000Z</time>
      </trkpt>
      <trkpt lat="45.83523" lon="-1.21114">
        <ele>-6.5999999046326</ele>
        <time>2021-11-21T07:18:30.000Z</time>
      </trkpt>
      <trkpt lat="45.83532" lon="-1.21102">
        <ele>-6.8000001907349</ele>
        <time>2021-11-21T07:18:32.000Z</time>
      </trkpt>
      <trkpt lat="45.83561" lon="-1.21052">
        <ele>-6.5999999046326</ele>
        <time>2021-11-21T07:18:39.000Z</time>
      </trkpt>
      <trkpt lat="45.8358" lon="-1.21016">
        <ele>-6.5999999046326</ele>
        <time>2021-11-21T07:18:43.000Z</time>
      </trkpt>
      <trkpt lat="45.83613" lon="-1.20968">
        <ele>-6.8000001907349</ele>
        <time>2021-11-21T07:18:49.000Z</time>
      </trkpt>
      <trkpt lat="45.83648" lon="-1.20932">
        <ele>-7.1999998092651</ele>
        <time>2021-11-21T07:18:55.000Z</time>
      </trkpt>
      <trkpt lat="45.83674" lon="-1.20901">
        <ele>-7.1999998092651</ele>
        <time>2021-11-21T07:19:00.000Z</time>
      </trkpt>
      <trkpt lat="45.83679" lon="-1.20894">
        <ele>-7.1999998092651</ele>
        <time>2021-11-21T07:19:01.000Z</time>
      </trkpt>
      <trkpt lat="45.83696" lon="-1.20868">
        <ele>-7.4000000953674</ele>
        <time>2021-11-21T07:19:05.000Z</time>
      </trkpt>
      <trkpt lat="45.837" lon="-1.20863">
        <ele>-7.4000000953674</ele>
        <time>2021-11-21T07:19:06.000Z</time>
      </trkpt>
      <trkpt lat="45.83713" lon="-1.20851">
        <ele>-7.1999998092651</ele>
        <time>2021-11-21T07:19:09.000Z</time>
      </trkpt>
      <trkpt lat="45.83717" lon="-1.20848">
        <ele>-7.1999998092651</ele>
        <time>2021-11-21T07:19:10.000Z</time>
      </trkpt>
      <trkpt lat="45.83722" lon="-1.20847">
        <ele>-7.1999998092651</ele>
        <time>2021-11-21T07:19:11.000Z</time>
      </trkpt>
      <trkpt lat="45.83732" lon="-1.20847">
        <ele>-7.1999998092651</ele>
        <time>2021-11-21T07:19:13.000Z</time>
      </trkpt>
      <trkpt lat="45.83741" lon="-1.20849">
        <ele>-7.1999998092651</ele>
        <time>2021-11-21T07:19:15.000Z</time>
      </trkpt>
      <trkpt lat="45.83747" lon="-1.2085">
        <ele>-7.1999998092651</ele>
        <time>2021-11-21T07:19:16.000Z</time>
      </trkpt>
      <trkpt lat="45.83759" lon="-1.20851">
        <ele>-7.1999998092651</ele>
        <time>2021-11-21T07:19:18.000Z</time>
      </trkpt>
      <trkpt lat="45.83765" lon="-1.2085">
        <ele>-7.1999998092651</ele>
        <time>2021-11-21T07:19:19.000Z</time>
      </trkpt>
      <trkpt lat="45.83803" lon="-1.20849">
        <ele>-7.1999998092651</ele>
        <time>2021-11-21T07:19:25.000Z</time>
      </trkpt>
      <trkpt lat="45.83815" lon="-1.2085">
        <ele>-7</ele>
        <time>2021-11-21T07:19:27.000Z</time>
      </trkpt>
      <trkpt lat="45.83819" lon="-1.20854">
        <ele>-7</ele>
        <time>2021-11-21T07:19:28.000Z</time>
      </trkpt>
      <trkpt lat="45.83821" lon="-1.2086">
        <ele>-7</ele>
        <time>2021-11-21T07:19:29.000Z</time>
      </trkpt>
      <trkpt lat="45.83824" lon="-1.20872">
        <ele>-6.8000001907349</ele>
        <time>2021-11-21T07:19:31.000Z</time>
      </trkpt>
      <trkpt lat="45.83826" lon="-1.20878">
        <ele>-6.8000001907349</ele>
        <time>2021-11-21T07:19:32.000Z</time>
      </trkpt>
      <trkpt lat="45.83832" lon="-1.20896">
        <ele>-6.4000000953674</ele>
        <time>2021-11-21T07:19:35.000Z</time>
      </trkpt>
      <trkpt lat="45.83834" lon="-1.209">
        <ele>-6.4000000953674</ele>
        <time>2021-11-21T07:19:36.000Z</time>
      </trkpt>
      <trkpt lat="45.83841" lon="-1.20909">
        <ele>-6.1999998092651</ele>
        <time>2021-11-21T07:19:40.000Z</time>
      </trkpt>
      <trkpt lat="45.83842" lon="-1.20909">
        <ele>-6</ele>
        <time>2021-11-21T07:19:41.000Z</time>
      </trkpt>
      <trkpt lat="45.83847" lon="-1.20905">
        <ele>-6</ele>
        <time>2021-11-21T07:19:44.000Z</time>
      </trkpt>
      <trkpt lat="45.8388" lon="-1.21079">
        <ele>14.5</ele>
      </trkpt>
      <trkpt lat="45.83924" lon="-1.21227">
        <ele>22.9</ele>
      </trkpt>
      <trkpt lat="45.84027" lon="-1.21248">
        <ele>28.7</ele>
      </trkpt>
      <trkpt lat="45.84075" lon="-1.21264">
        <ele>29</ele>
      </trkpt>
      <trkpt lat="45.84119" lon="-1.21291">
        <ele>30.3</ele>
      </trkpt>
      <trkpt lat="45.84204" lon="-1.2128">
        <ele>34.5</ele>
      </trkpt>
      <trkpt lat="45.84248" lon="-1.21243">
        <ele>32.8</ele>
      </trkpt>
      <trkpt lat="45.84311" lon="-1.21259">
        <ele>26.4</ele>
      </trkpt>
      <trkpt lat="45.84362" lon="-1.21174">
        <ele>30</ele>
      </trkpt>
      <trkpt lat="45.84395" lon="-1.211">
        <ele>24</ele>
      </trkpt>
      <trkpt lat="45.84465" lon="-1.21084">
        <ele>17</ele>
      </trkpt>
      <trkpt lat="45.84476" lon="-1.21032">
        <ele>13</ele>
      </trkpt>
      <trkpt lat="45.84478" lon="-1.21014">
        <ele>4.4000000953674</ele>
        <time>2021-11-21T07:22:22.000Z</time>
      </trkpt>
      <trkpt lat="45.84488" lon="-1.2101">
        <ele>4.1999998092651</ele>
        <time>2021-11-21T07:22:23.000Z</time>
      </trkpt>
      <trkpt lat="45.84514" lon="-1.20999">
        <ele>2.7999999523163</ele>
        <time>2021-11-21T07:22:26.000Z</time>
      </trkpt>
      <trkpt lat="45.84522" lon="-1.20998">
        <ele>2.5999999046326</ele>
        <time>2021-11-21T07:22:27.000Z</time>
      </trkpt>
      <trkpt lat="45.8453" lon="-1.20998">
        <ele>2.4000000953674</ele>
        <time>2021-11-21T07:22:28.000Z</time>
      </trkpt>
      <trkpt lat="45.84543" lon="-1.20997">
        <ele>1.6000000238419</ele>
        <time>2021-11-21T07:22:30.000Z</time>
      </trkpt>
      <trkpt lat="45.84548" lon="-1.20995">
        <ele>1.3999999761581</ele>
        <time>2021-11-21T07:22:31.000Z</time>
      </trkpt>
      <trkpt lat="45.84551" lon="-1.20991">
        <ele>1</ele>
        <time>2021-11-21T07:22:32.000Z</time>
      </trkpt>
      <trkpt lat="45.84554" lon="-1.20986">
        <ele>0.80000001192093</ele>
        <time>2021-11-21T07:22:33.000Z</time>
      </trkpt>
      <trkpt lat="45.84553" lon="-1.20979">
        <ele>0.40000000596046</ele>
        <time>2021-11-21T07:22:34.000Z</time>
      </trkpt>
      <trkpt lat="45.8455" lon="-1.20969">
        <ele>-0.40000000596046</ele>
        <time>2021-11-21T07:22:35.000Z</time>
      </trkpt>
      <trkpt lat="45.84546" lon="-1.20961">
        <ele>-0.80000001192093</ele>
        <time>2021-11-21T07:22:36.000Z</time>
      </trkpt>
      <trkpt lat="45.8454" lon="-1.20955">
        <ele>-1.3999999761581</ele>
        <time>2021-11-21T07:22:37.000Z</time>
      </trkpt>
      <trkpt lat="45.84534" lon="-1.2095">
        <ele>-1.3999999761581</ele>
        <time>2021-11-21T07:22:38.000Z</time>
      </trkpt>
      <trkpt lat="45.84527" lon="-1.20946">
        <ele>-2</ele>
        <time>2021-11-21T07:22:39.000Z</time>
      </trkpt>
      <trkpt lat="45.84514" lon="-1.2094">
        <ele>-2.5999999046326</ele>
        <time>2021-11-21T07:22:41.000Z</time>
      </trkpt>
      <trkpt lat="45.84508" lon="-1.20935">
        <ele>-2.7999999523163</ele>
        <time>2021-11-21T07:22:42.000Z</time>
      </trkpt>
      <trkpt lat="45.84502" lon="-1.20929">
        <ele>-3.2000000476837</ele>
        <time>2021-11-21T07:22:43.000Z</time>
      </trkpt>
      <trkpt lat="45.84474" lon="-1.20901">
        <ele>-4.5999999046326</ele>
        <time>2021-11-21T07:22:48.000Z</time>
      </trkpt>
      <trkpt lat="45.84466" lon="-1.20889">
        <ele>-5</ele>
        <time>2021-11-21T07:22:50.000Z</time>
      </trkpt>
      <trkpt lat="45.84464" lon="-1.20882">
        <ele>-5.1999998092651</ele>
        <time>2021-11-21T07:22:51.000Z</time>
      </trkpt>
      <trkpt lat="45.8447" lon="-1.20868">
        <ele>-5.5999999046326</ele>
        <time>2021-11-21T07:22:53.000Z</time>
      </trkpt>
      <trkpt lat="45.84496" lon="-1.20839">
        <ele>-6.5999999046326</ele>
        <time>2021-11-21T07:22:58.000Z</time>
      </trkpt>
      <trkpt lat="45.84506" lon="-1.20827">
        <ele>-7.1999998092651</ele>
        <time>2021-11-21T07:23:00.000Z</time>
      </trkpt>
      <trkpt lat="45.84521" lon="-1.20811">
        <ele>-7.8000001907349</ele>
        <time>2021-11-21T07:23:03.000Z</time>
      </trkpt>
      <trkpt lat="45.84543" lon="-1.20784">
        <ele>-8.6000003814697</ele>
        <time>2021-11-21T07:23:07.000Z</time>
      </trkpt>
      <trkpt lat="45.84553" lon="-1.20772">
        <ele>-9</ele>
        <time>2021-11-21T07:23:09.000Z</time>
      </trkpt>
      <trkpt lat="45.84564" lon="-1.20761">
        <ele>-9.3999996185303</ele>
        <time>2021-11-21T07:23:11.000Z</time>
      </trkpt>
      <trkpt lat="45.84578" lon="-1.20754">
        <ele>-9.8000001907349</ele>
        <time>2021-11-21T07:23:13.000Z</time>
      </trkpt>
      <trkpt lat="45.84591" lon="-1.20751">
        <ele>-10.199999809265</ele>
        <time>2021-11-21T07:23:15.000Z</time>
      </trkpt>
      <trkpt lat="45.84597" lon="-1.20749">
        <ele>-10.39999961853</ele>
        <time>2021-11-21T07:23:16.000Z</time>
      </trkpt>
      <trkpt lat="45.84601" lon="-1.20743">
        <ele>-10.39999961853</ele>
        <time>2021-11-21T07:23:17.000Z</time>
      </trkpt>
      <trkpt lat="45.84606" lon="-1.20727">
        <ele>-10.800000190735</ele>
        <time>2021-11-21T07:23:19.000Z</time>
      </trkpt>
      <trkpt lat="45.84606" lon="-1.20719">
        <ele>-11.199999809265</ele>
        <time>2021-11-21T07:23:20.000Z</time>
      </trkpt>
      <trkpt lat="45.84607" lon="-1.20682">
        <ele>-11.39999961853</ele>
        <time>2021-11-21T07:23:24.000Z</time>
      </trkpt>
      <trkpt lat="45.84603" lon="-1.20665">
        <ele>-11.800000190735</ele>
        <time>2021-11-21T07:23:26.000Z</time>
      </trkpt>
      <trkpt lat="45.84596" lon="-1.2065">
        <ele>-11.800000190735</ele>
        <time>2021-11-21T07:23:28.000Z</time>
      </trkpt>
      <trkpt lat="45.84594" lon="-1.20635">
        <ele>-12</ele>
        <time>2021-11-21T07:23:30.000Z</time>
      </trkpt>
      <trkpt lat="45.84604" lon="-1.20599">
        <ele>-12.199999809265</ele>
        <time>2021-11-21T07:23:34.000Z</time>
      </trkpt>
      <trkpt lat="45.84626" lon="-1.20522">
        <ele>-12.39999961853</ele>
        <time>2021-11-21T07:23:43.000Z</time>
      </trkpt>
      <trkpt lat="45.84628" lon="-1.20514">
        <ele>-12.39999961853</ele>
        <time>2021-11-21T07:23:44.000Z</time>
      </trkpt>
      <trkpt lat="45.84633" lon="-1.20499">
        <ele>-12.800000190735</ele>
        <time>2021-11-21T07:23:46.000Z</time>
      </trkpt>
      <trkpt lat="45.84637" lon="-1.20478">
        <ele>-13</ele>
        <time>2021-11-21T07:23:48.000Z</time>
      </trkpt>
      <trkpt lat="45.84636" lon="-1.20459">
        <ele>-13</ele>
        <time>2021-11-21T07:23:50.000Z</time>
      </trkpt>
      <trkpt lat="45.84632" lon="-1.20443">
        <ele>-13.199999809265</ele>
        <time>2021-11-21T07:23:52.000Z</time>
      </trkpt>
      <trkpt lat="45.84623" lon="-1.20414">
        <ele>-13.39999961853</ele>
        <time>2021-11-21T07:23:55.000Z</time>
      </trkpt>
      <trkpt lat="45.8461" lon="-1.20377">
        <ele>-13.60000038147</ele>
        <time>2021-11-21T07:24:00.000Z</time>
      </trkpt>
      <trkpt lat="45.84602" lon="-1.2036">
        <ele>-13.60000038147</ele>
        <time>2021-11-21T07:24:02.000Z</time>
      </trkpt>
      <trkpt lat="45.84593" lon="-1.20352">
        <ele>-13.39999961853</ele>
        <time>2021-11-21T07:24:04.000Z</time>
      </trkpt>
      <trkpt lat="45.84577" lon="-1.20349">
        <ele>-13.39999961853</ele>
        <time>2021-11-21T07:24:07.000Z</time>
      </trkpt>
      <trkpt lat="45.84572" lon="-1.2035">
        <ele>-13.39999961853</ele>
        <time>2021-11-21T07:24:08.000Z</time>
      </trkpt>
      <trkpt lat="45.84553" lon="-1.20349">
        <ele>-13.39999961853</ele>
        <time>2021-11-21T07:24:11.000Z</time>
      </trkpt>
      <trkpt lat="45.8452" lon="-1.20347">
        <ele>-13.39999961853</ele>
        <time>2021-11-21T07:24:16.000Z</time>
      </trkpt>
      <trkpt lat="45.84463" lon="-1.20346">
        <ele>-13.199999809265</ele>
        <time>2021-11-21T07:24:24.000Z</time>
      </trkpt>
      <trkpt lat="45.84443" lon="-1.20346">
        <ele>-14</ele>
        <time>2021-11-21T07:24:27.000Z</time>
      </trkpt>
      <trkpt lat="45.84418" lon="-1.20345">
        <ele>-15.39999961853</ele>
        <time>2021-11-21T07:24:31.000Z</time>
      </trkpt>
      <trkpt lat="45.84412" lon="-1.20345">
        <ele>-15.60000038147</ele>
        <time>2021-11-21T07:24:32.000Z</time>
      </trkpt>
      <trkpt lat="45.84394" lon="-1.20344">
        <ele>-15</ele>
        <time>2021-11-21T07:24:35.000Z</time>
      </trkpt>
      <trkpt lat="45.84374" lon="-1.20344">
        <ele>-15.39999961853</ele>
        <time>2021-11-21T07:24:38.000Z</time>
      </trkpt>
      <trkpt lat="45.84338" lon="-1.20343">
        <ele>-14.39999961853</ele>
        <time>2021-11-21T07:24:43.000Z</time>
      </trkpt>
      <trkpt lat="45.84284" lon="-1.20343">
        <ele>-14.60000038147</ele>
        <time>2021-11-21T07:24:50.000Z</time>
      </trkpt>
      <trkpt lat="45.84276" lon="-1.20343">
        <ele>-14.60000038147</ele>
        <time>2021-11-21T07:24:51.000Z</time>
      </trkpt>
      <trkpt lat="45.84222" lon="-1.20342">
        <ele>-14.800000190735</ele>
        <time>2021-11-21T07:24:58.000Z</time>
      </trkpt>
      <trkpt lat="45.84214" lon="-1.20342">
        <ele>-14.800000190735</ele>
        <time>2021-11-21T07:24:59.000Z</time>
      </trkpt>
      <trkpt lat="45.84198" lon="-1.20341">
        <ele>-15</ele>
        <time>2021-11-21T07:25:01.000Z</time>
      </trkpt>
      <trkpt lat="45.84184" lon="-1.20334">
        <ele>-15</ele>
        <time>2021-11-21T07:25:03.000Z</time>
      </trkpt>
      <trkpt lat="45.84162" lon="-1.20305">
        <ele>-14.800000190735</ele>
        <time>2021-11-21T07:25:07.000Z</time>
      </trkpt>
      <trkpt lat="45.84127" lon="-1.20262">
        <ele>-14.39999961853</ele>
        <time>2021-11-21T07:25:13.000Z</time>
      </trkpt>
      <trkpt lat="45.84121" lon="-1.20257">
        <ele>-14.39999961853</ele>
        <time>2021-11-21T07:25:14.000Z</time>
      </trkpt>
      <trkpt lat="45.84114" lon="-1.20253">
        <ele>-14.39999961853</ele>
        <time>2021-11-21T07:25:15.000Z</time>
      </trkpt>
      <trkpt lat="45.84085" lon="-1.20243">
        <ele>-14</ele>
        <time>2021-11-21T07:25:19.000Z</time>
      </trkpt>
      <trkpt lat="45.84027" lon="-1.20227">
        <ele>-0.60000002384186</ele>
        <time>2021-11-21T07:25:27.000Z</time>
      </trkpt>
      <trkpt lat="45.84019" lon="-1.20225">
        <ele>-14</ele>
        <time>2021-11-21T07:25:28.000Z</time>
      </trkpt>
      <trkpt lat="45.83959" lon="-1.20211">
        <ele>-14.39999961853</ele>
        <time>2021-11-21T07:25:36.000Z</time>
      </trkpt>
      <trkpt lat="45.83945" lon="-1.20209">
        <ele>-14.39999961853</ele>
        <time>2021-11-21T07:25:38.000Z</time>
      </trkpt>
      <trkpt lat="45.83923" lon="-1.20209">
        <ele>-14.39999961853</ele>
        <time>2021-11-21T07:25:41.000Z</time>
      </trkpt>
      <trkpt lat="45.83909" lon="-1.20214">
        <ele>-14.60000038147</ele>
        <time>2021-11-21T07:25:43.000Z</time>
      </trkpt>
      <trkpt lat="45.83865" lon="-1.20227">
        <ele>-14.800000190735</ele>
        <time>2021-11-21T07:25:49.000Z</time>
      </trkpt>
      <trkpt lat="45.83858" lon="-1.20227">
        <ele>-14.800000190735</ele>
        <time>2021-11-21T07:25:50.000Z</time>
      </trkpt>
      <trkpt lat="45.83843" lon="-1.20223">
        <ele>-14.800000190735</ele>
        <time>2021-11-21T07:25:52.000Z</time>
      </trkpt>
      <trkpt lat="45.83836" lon="-1.2022">
        <ele>-14.800000190735</ele>
        <time>2021-11-21T07:25:53.000Z</time>
      </trkpt>
      <trkpt lat="45.83785" lon="-1.20188">
        <ele>-14.60000038147</ele>
        <time>2021-11-21T07:26:00.000Z</time>
      </trkpt>
      <trkpt lat="45.83732" lon="-1.20154">
        <ele>-14.39999961853</ele>
        <time>2021-11-21T07:26:07.000Z</time>
      </trkpt>
      <trkpt lat="45.83725" lon="-1.20149">
        <ele>-14.60000038147</ele>
        <time>2021-11-21T07:26:08.000Z</time>
      </trkpt>
      <trkpt lat="45.83672" lon="-1.20112">
        <ele>-14.60000038147</ele>
        <time>2021-11-21T07:26:15.000Z</time>
      </trkpt>
      <trkpt lat="45.83626" lon="-1.2008">
        <ele>-14.39999961853</ele>
        <time>2021-11-21T07:26:21.000Z</time>
      </trkpt>
      <trkpt lat="45.83572" lon="-1.20043">
        <ele>-14.60000038147</ele>
        <time>2021-11-21T07:26:28.000Z</time>
      </trkpt>
      <trkpt lat="45.83535" lon="-1.20015">
        <ele>-14.800000190735</ele>
        <time>2021-11-21T07:26:33.000Z</time>
      </trkpt>
      <trkpt lat="45.83484" lon="-1.19976">
        <ele>-15</ele>
        <time>2021-11-21T07:26:40.000Z</time>
      </trkpt>
      <trkpt lat="45.83454" lon="-1.19954">
        <ele>-15.199999809265</ele>
        <time>2021-11-21T07:26:44.000Z</time>
      </trkpt>
      <trkpt lat="45.83404" lon="-1.19915">
        <ele>-15</ele>
        <time>2021-11-21T07:26:51.000Z</time>
      </trkpt>
      <trkpt lat="45.8339" lon="-1.19903">
        <ele>-15</ele>
        <time>2021-11-21T07:26:53.000Z</time>
      </trkpt>
      <trkpt lat="45.8334" lon="-1.19862">
        <ele>-14.800000190735</ele>
        <time>2021-11-21T07:27:00.000Z</time>
      </trkpt>
      <trkpt lat="45.83333" lon="-1.19857">
        <ele>-14.800000190735</ele>
        <time>2021-11-21T07:27:01.000Z</time>
      </trkpt>
      <trkpt lat="45.83294" lon="-1.19819">
        <ele>-14.800000190735</ele>
        <time>2021-11-21T07:27:07.000Z</time>
      </trkpt>
      <trkpt lat="45.83247" lon="-1.19775">
        <ele>-14.60000038147</ele>
        <time>2021-11-21T07:27:14.000Z</time>
      </trkpt>
      <trkpt lat="45.83219" lon="-1.1975">
        <ele>-14.60000038147</ele>
        <time>2021-11-21T07:27:18.000Z</time>
      </trkpt>
      <trkpt lat="45.83206" lon="-1.19737">
        <ele>-14.60000038147</ele>
        <time>2021-11-21T07:27:20.000Z</time>
      </trkpt>
      <trkpt lat="45.83155" lon="-1.19699">
        <ele>-14.199999809265</ele>
        <time>2021-11-21T07:27:27.000Z</time>
      </trkpt>
      <trkpt lat="45.83099" lon="-1.19672">
        <ele>-13.800000190735</ele>
        <time>2021-11-21T07:27:34.000Z</time>
      </trkpt>
      <trkpt lat="45.83083" lon="-1.19663">
        <ele>-14</ele>
        <time>2021-11-21T07:27:36.000Z</time>
      </trkpt>
      <trkpt lat="45.83026" lon="-1.19641">
        <ele>-13.800000190735</ele>
        <time>2021-11-21T07:27:43.000Z</time>
      </trkpt>
      <trkpt lat="45.83019" lon="-1.19638">
        <ele>-13.800000190735</ele>
        <time>2021-11-21T07:27:44.000Z</time>
      </trkpt>
      <trkpt lat="45.83004" lon="-1.19634">
        <ele>-13.800000190735</ele>
        <time>2021-11-21T07:27:46.000Z</time>
      </trkpt>
      <trkpt lat="45.82982" lon="-1.19628">
        <ele>-14</ele>
        <time>2021-11-21T07:27:49.000Z</time>
      </trkpt>
      <trkpt lat="45.82941" lon="-1.19615">
        <ele>-14</ele>
        <time>2021-11-21T07:27:55.000Z</time>
      </trkpt>
      <trkpt lat="45.82921" lon="-1.19609">
        <ele>-13.800000190735</ele>
        <time>2021-11-21T07:27:58.000Z</time>
      </trkpt>
      <trkpt lat="45.82908" lon="-1.19605">
        <ele>-13.60000038147</ele>
        <time>2021-11-21T07:28:00.000Z</time>
      </trkpt>
      <trkpt lat="45.82902" lon="-1.19605">
        <ele>-13.60000038147</ele>
        <time>2021-11-21T07:28:01.000Z</time>
      </trkpt>
      <trkpt lat="45.82896" lon="-1.19606">
        <ele>-13.39999961853</ele>
        <time>2021-11-21T07:28:02.000Z</time>
      </trkpt>
      <trkpt lat="45.82888" lon="-1.19608">
        <ele>-13.60000038147</ele>
        <time>2021-11-21T07:28:04.000Z</time>
      </trkpt>
      <trkpt lat="45.82885" lon="-1.19608">
        <ele>-13.60000038147</ele>
        <time>2021-11-21T07:28:05.000Z</time>
      </trkpt>
      <trkpt lat="45.82883" lon="-1.19606">
        <ele>-13.60000038147</ele>
        <time>2021-11-21T07:28:08.000Z</time>
      </trkpt>
      <trkpt lat="45.82882" lon="-1.19607">
        <ele>-13.60000038147</ele>
        <time>2021-11-21T07:28:10.000Z</time>
      </trkpt>
      <trkpt lat="45.82874" lon="-1.19615">
        <ele>-13.60000038147</ele>
        <time>2021-11-21T07:28:13.000Z</time>
      </trkpt>
      <trkpt lat="45.8287" lon="-1.1962">
        <ele>-13.60000038147</ele>
        <time>2021-11-21T07:28:14.000Z</time>
      </trkpt>
      <trkpt lat="45.82863" lon="-1.19634">
        <ele>-13.60000038147</ele>
        <time>2021-11-21T07:28:16.000Z</time>
      </trkpt>
      <trkpt lat="45.8285" lon="-1.19675">
        <ele>-14</ele>
        <time>2021-11-21T07:28:21.000Z</time>
      </trkpt>
      <trkpt lat="45.8283" lon="-1.19755">
        <ele>-14</ele>
        <time>2021-11-21T07:28:30.000Z</time>
      </trkpt>
      <trkpt lat="45.82811" lon="-1.19829">
        <ele>-13.800000190735</ele>
        <time>2021-11-21T07:28:38.000Z</time>
      </trkpt>
      <trkpt lat="45.82802" lon="-1.19855">
        <ele>-14</ele>
        <time>2021-11-21T07:28:41.000Z</time>
      </trkpt>
      <trkpt lat="45.82776" lon="-1.19909">
        <ele>-13.800000190735</ele>
        <time>2021-11-21T07:28:48.000Z</time>
      </trkpt>
      <trkpt lat="45.82771" lon="-1.19921">
        <ele>-14</ele>
        <time>2021-11-21T07:28:50.000Z</time>
      </trkpt>
      <trkpt lat="45.82769" lon="-1.19926">
        <ele>-14.199999809265</ele>
        <time>2021-11-21T07:28:52.000Z</time>
      </trkpt>
      <trkpt lat="45.82767" lon="-1.19928">
        <ele>-14</ele>
        <time>2021-11-21T07:28:55.000Z</time>
      </trkpt>
      <trkpt lat="45.82761" lon="-1.19943">
        <ele>-13.800000190735</ele>
        <time>2021-11-21T07:28:59.000Z</time>
      </trkpt>
      <trkpt lat="45.82758" lon="-1.19956">
        <ele>-14</ele>
        <time>2021-11-21T07:29:01.000Z</time>
      </trkpt>
      <trkpt lat="45.82755" lon="-1.19973">
        <ele>-14</ele>
        <time>2021-11-21T07:29:03.000Z</time>
      </trkpt>
      <trkpt lat="45.82753" lon="-1.19982">
        <ele>-14</ele>
        <time>2021-11-21T07:29:04.000Z</time>
      </trkpt>
      <trkpt lat="45.82742" lon="-1.20037">
        <ele>-14</ele>
        <time>2021-11-21T07:29:10.000Z</time>
      </trkpt>
      <trkpt lat="45.82727" lon="-1.20114">
        <ele>-13.800000190735</ele>
        <time>2021-11-21T07:29:18.000Z</time>
      </trkpt>
      <trkpt lat="45.82721" lon="-1.20143">
        <ele>-13.800000190735</ele>
        <time>2021-11-21T07:29:21.000Z</time>
      </trkpt>
      <trkpt lat="45.82718" lon="-1.20152">
        <ele>-13.800000190735</ele>
        <time>2021-11-21T07:29:22.000Z</time>
      </trkpt>
      <trkpt lat="45.8271" lon="-1.20168">
        <ele>-13.800000190735</ele>
        <time>2021-11-21T07:29:24.000Z</time>
      </trkpt>
      <trkpt lat="45.8267" lon="-1.20228">
        <ele>-13.60000038147</ele>
        <time>2021-11-21T07:29:32.000Z</time>
      </trkpt>
      <trkpt lat="45.82661" lon="-1.20243">
        <ele>-13.800000190735</ele>
        <time>2021-11-21T07:29:34.000Z</time>
      </trkpt>
      <trkpt lat="45.82655" lon="-1.2025">
        <ele>-13.60000038147</ele>
        <time>2021-11-21T07:29:35.000Z</time>
      </trkpt>
      <trkpt lat="45.82615" lon="-1.20312">
        <ele>-13.60000038147</ele>
        <time>2021-11-21T07:29:43.000Z</time>
      </trkpt>
      <trkpt lat="45.82604" lon="-1.20328">
        <ele>-13.60000038147</ele>
        <time>2021-11-21T07:29:45.000Z</time>
      </trkpt>
      <trkpt lat="45.82562" lon="-1.2039">
        <ele>-13.60000038147</ele>
        <time>2021-11-21T07:29:53.000Z</time>
      </trkpt>
      <trkpt lat="45.82552" lon="-1.20406">
        <ele>-13.60000038147</ele>
        <time>2021-11-21T07:29:55.000Z</time>
      </trkpt>
      <trkpt lat="45.8251" lon="-1.20469">
        <ele>-13.39999961853</ele>
        <time>2021-11-21T07:30:03.000Z</time>
      </trkpt>
      <trkpt lat="45.82493" lon="-1.20492">
        <ele>-13.39999961853</ele>
        <time>2021-11-21T07:30:06.000Z</time>
      </trkpt>
      <trkpt lat="45.8245" lon="-1.2054">
        <ele>-13.60000038147</ele>
        <time>2021-11-21T07:30:13.000Z</time>
      </trkpt>
      <trkpt lat="45.82444" lon="-1.20546">
        <ele>-13.60000038147</ele>
        <time>2021-11-21T07:30:14.000Z</time>
      </trkpt>
      <trkpt lat="45.824" lon="-1.20593">
        <ele>-13.39999961853</ele>
        <time>2021-11-21T07:30:21.000Z</time>
      </trkpt>
      <trkpt lat="45.82368" lon="-1.20627">
        <ele>-13.39999961853</ele>
        <time>2021-11-21T07:30:26.000Z</time>
      </trkpt>
      <trkpt lat="45.82323" lon="-1.20674">
        <ele>-13.39999961853</ele>
        <time>2021-11-21T07:30:33.000Z</time>
      </trkpt>
      <trkpt lat="45.82297" lon="-1.20701">
        <ele>-13.39999961853</ele>
        <time>2021-11-21T07:30:37.000Z</time>
      </trkpt>
      <trkpt lat="45.82252" lon="-1.20749">
        <ele>-13.800000190735</ele>
        <time>2021-11-21T07:30:44.000Z</time>
      </trkpt>
      <trkpt lat="45.82226" lon="-1.20776">
        <ele>-14</ele>
        <time>2021-11-21T07:30:48.000Z</time>
      </trkpt>
      <trkpt lat="45.82181" lon="-1.20824">
        <ele>-13.800000190735</ele>
        <time>2021-11-21T07:30:55.000Z</time>
      </trkpt>
      <trkpt lat="45.82154" lon="-1.20851">
        <ele>-13.60000038147</ele>
        <time>2021-11-21T07:30:59.000Z</time>
      </trkpt>
      <trkpt lat="45.82109" lon="-1.20899">
        <ele>-13.60000038147</ele>
        <time>2021-11-21T07:31:06.000Z</time>
      </trkpt>
      <trkpt lat="45.82096" lon="-1.20913">
        <ele>-13.60000038147</ele>
        <time>2021-11-21T07:31:08.000Z</time>
      </trkpt>
      <trkpt lat="45.82052" lon="-1.20959">
        <ele>-13.60000038147</ele>
        <time>2021-11-21T07:31:15.000Z</time>
      </trkpt>
      <trkpt lat="45.82033" lon="-1.2098">
        <ele>-13.60000038147</ele>
        <time>2021-11-21T07:31:18.000Z</time>
      </trkpt>
      <trkpt lat="45.81989" lon="-1.21026">
        <ele>-13.60000038147</ele>
        <time>2021-11-21T07:31:25.000Z</time>
      </trkpt>
      <trkpt lat="45.81976" lon="-1.21038">
        <ele>-13.60000038147</ele>
        <time>2021-11-21T07:31:27.000Z</time>
      </trkpt>
      <trkpt lat="45.81966" lon="-1.21049">
        <ele>-14</ele>
        <time>2021-11-21T07:31:29.000Z</time>
      </trkpt>
      <trkpt lat="45.81963" lon="-1.21055">
        <ele>-14</ele>
        <time>2021-11-21T07:31:30.000Z</time>
      </trkpt>
      <trkpt lat="45.81963" lon="-1.21061">
        <ele>-14</ele>
        <time>2021-11-21T07:31:31.000Z</time>
      </trkpt>
      <trkpt lat="45.81966" lon="-1.21069">
        <ele>-14</ele>
        <time>2021-11-21T07:31:33.000Z</time>
      </trkpt>
      <trkpt lat="45.81973" lon="-1.21076">
        <ele>-14</ele>
        <time>2021-11-21T07:31:35.000Z</time>
      </trkpt>
      <trkpt lat="45.81975" lon="-1.21089">
        <ele>-14</ele>
        <time>2021-11-21T07:31:37.000Z</time>
      </trkpt>
      <trkpt lat="45.81971" lon="-1.21122">
        <ele>-14.39999961853</ele>
        <time>2021-11-21T07:31:41.000Z</time>
      </trkpt>
      <trkpt lat="45.81962" lon="-1.21185">
        <ele>-14.60000038147</ele>
        <time>2021-11-21T07:31:48.000Z</time>
      </trkpt>
      <trkpt lat="45.81949" lon="-1.21249">
        <ele>-14.800000190735</ele>
        <time>2021-11-21T07:31:55.000Z</time>
      </trkpt>
      <trkpt lat="45.81948" lon="-1.21258">
        <ele>-14.60000038147</ele>
        <time>2021-11-21T07:31:56.000Z</time>
      </trkpt>
      <trkpt lat="45.81951" lon="-1.21273">
        <ele>-14.800000190735</ele>
        <time>2021-11-21T07:31:58.000Z</time>
      </trkpt>
      <trkpt lat="45.8196" lon="-1.21278">
        <ele>-14.60000038147</ele>
        <time>2021-11-21T07:32:00.000Z</time>
      </trkpt>
      <trkpt lat="45.81966" lon="-1.21279">
        <ele>-14.39999961853</ele>
        <time>2021-11-21T07:32:01.000Z</time>
      </trkpt>
      <trkpt lat="45.81986" lon="-1.21285">
        <ele>-14.39999961853</ele>
        <time>2021-11-21T07:32:04.000Z</time>
      </trkpt>
      <trkpt lat="45.81994" lon="-1.21287">
        <ele>-14.39999961853</ele>
        <time>2021-11-21T07:32:05.000Z</time>
      </trkpt>
      <trkpt lat="45.82041" lon="-1.21303">
        <ele>-14.199999809265</ele>
        <time>2021-11-21T07:32:12.000Z</time>
      </trkpt>
      <trkpt lat="45.82096" lon="-1.21323">
        <ele>-14.39999961853</ele>
        <time>2021-11-21T07:32:20.000Z</time>
      </trkpt>
      <trkpt lat="45.82107" lon="-1.21327">
        <ele>-14.199999809265</ele>
        <time>2021-11-21T07:32:22.000Z</time>
      </trkpt>
      <trkpt lat="45.82147" lon="-1.21341">
        <ele>-14.199999809265</ele>
        <time>2021-11-21T07:32:28.000Z</time>
      </trkpt>
      <trkpt lat="45.82171" lon="-1.21348">
        <ele>-14</ele>
        <time>2021-11-21T07:32:32.000Z</time>
      </trkpt>
      <trkpt lat="45.82177" lon="-1.21348">
        <ele>-14</ele>
        <time>2021-11-21T07:32:33.000Z</time>
      </trkpt>
      <trkpt lat="45.82183" lon="-1.21347">
        <ele>-14</ele>
        <time>2021-11-21T07:32:34.000Z</time>
      </trkpt>
      <trkpt lat="45.82203" lon="-1.21337">
        <ele>-14.199999809265</ele>
        <time>2021-11-21T07:32:37.000Z</time>
      </trkpt>
      <trkpt lat="45.82247" lon="-1.21315">
        <ele>-14.39999961853</ele>
        <time>2021-11-21T07:32:44.000Z</time>
      </trkpt>
      <trkpt lat="45.823" lon="-1.21288">
        <ele>-14.39999961853</ele>
        <time>2021-11-21T07:32:52.000Z</time>
      </trkpt>
      <trkpt lat="45.82306" lon="-1.21284">
        <ele>-14.39999961853</ele>
        <time>2021-11-21T07:32:53.000Z</time>
      </trkpt>
      <trkpt lat="45.82362" lon="-1.21258">
        <ele>-14.39999961853</ele>
        <time>2021-11-21T07:33:01.000Z</time>
      </trkpt>
      <trkpt lat="45.82377" lon="-1.21251">
        <ele>-14.39999961853</ele>
        <time>2021-11-21T07:33:03.000Z</time>
      </trkpt>
      <trkpt lat="45.82431" lon="-1.21224">
        <ele>-14.39999961853</ele>
        <time>2021-11-21T07:33:11.000Z</time>
      </trkpt>
      <trkpt lat="45.82436" lon="-1.21222">
        <ele>-14.39999961853</ele>
        <time>2021-11-21T07:33:12.000Z</time>
      </trkpt>
      <trkpt lat="45.82444" lon="-1.21226">
        <ele>-14.39999961853</ele>
        <time>2021-11-21T07:33:14.000Z</time>
      </trkpt>
      <trkpt lat="45.82449" lon="-1.21228">
        <ele>-14.39999961853</ele>
        <time>2021-11-21T07:33:15.000Z</time>
      </trkpt>
      <trkpt lat="45.82455" lon="-1.21228">
        <ele>-14.39999961853</ele>
        <time>2021-11-21T07:33:16.000Z</time>
      </trkpt>
      <trkpt lat="45.82467" lon="-1.21223">
        <ele>-14.39999961853</ele>
        <time>2021-11-21T07:33:18.000Z</time>
      </trkpt>
      <trkpt lat="45.82474" lon="-1.21221">
        <ele>-14.39999961853</ele>
        <time>2021-11-21T07:33:19.000Z</time>
      </trkpt>
      <trkpt lat="45.82487" lon="-1.2122">
        <ele>-14.199999809265</ele>
        <time>2021-11-21T07:33:21.000Z</time>
      </trkpt>
      <trkpt lat="45.82494" lon="-1.21223">
        <ele>-14.199999809265</ele>
        <time>2021-11-21T07:33:22.000Z</time>
      </trkpt>
      <trkpt lat="45.825" lon="-1.21228">
        <ele>-14.199999809265</ele>
        <time>2021-11-21T07:33:23.000Z</time>
      </trkpt>
      <trkpt lat="45.8251" lon="-1.21242">
        <ele>-14.199999809265</ele>
        <time>2021-11-21T07:33:25.000Z</time>
      </trkpt>
      <trkpt lat="45.82526" lon="-1.21262">
        <ele>-14.60000038147</ele>
        <time>2021-11-21T07:33:28.000Z</time>
      </trkpt>
      <trkpt lat="45.82529" lon="-1.21269">
        <ele>-14.60000038147</ele>
        <time>2021-11-21T07:33:29.000Z</time>
      </trkpt>
      <trkpt lat="45.8253" lon="-1.21276">
        <ele>-14.60000038147</ele>
        <time>2021-11-21T07:33:30.000Z</time>
      </trkpt>
      <trkpt lat="45.82537" lon="-1.21288">
        <ele>-14.800000190735</ele>
        <time>2021-11-21T07:33:32.000Z</time>
      </trkpt>
      <trkpt lat="45.82563" lon="-1.21318">
        <ele>-14.800000190735</ele>
        <time>2021-11-21T07:33:37.000Z</time>
      </trkpt>
      <trkpt lat="45.82604" lon="-1.21366">
        <ele>-15</ele>
        <time>2021-11-21T07:33:45.000Z</time>
      </trkpt>
      <trkpt lat="45.82612" lon="-1.21373">
        <ele>-15</ele>
        <time>2021-11-21T07:33:47.000Z</time>
      </trkpt>
      <trkpt lat="45.82619" lon="-1.21383">
        <ele>-15</ele>
        <time>2021-11-21T07:33:49.000Z</time>
      </trkpt>
      <trkpt lat="45.82631" lon="-1.21417">
        <ele>-15</ele>
        <time>2021-11-21T07:33:53.000Z</time>
      </trkpt>
      <trkpt lat="45.82651" lon="-1.21478">
        <ele>-15</ele>
        <time>2021-11-21T07:34:00.000Z</time>
      </trkpt>
      <trkpt lat="45.82675" lon="-1.2155">
        <ele>-15</ele>
        <time>2021-11-21T07:34:08.000Z</time>
      </trkpt>
      <trkpt lat="45.82678" lon="-1.21559">
        <ele>-15</ele>
        <time>2021-11-21T07:34:09.000Z</time>
      </trkpt>
      <trkpt lat="45.82703" lon="-1.21633">
        <ele>-15.199999809265</ele>
        <time>2021-11-21T07:34:17.000Z</time>
      </trkpt>
      <trkpt lat="45.82721" lon="-1.2169">
        <ele>-15.199999809265</ele>
        <time>2021-11-21T07:34:24.000Z</time>
      </trkpt>
      <trkpt lat="45.82723" lon="-1.21698">
        <ele>-15.199999809265</ele>
        <time>2021-11-21T07:34:25.000Z</time>
      </trkpt>
      <trkpt lat="45.82729" lon="-1.21712">
        <ele>-15.199999809265</ele>
        <time>2021-11-21T07:34:27.000Z</time>
      </trkpt>
      <trkpt lat="45.82733" lon="-1.21726">
        <ele>-15.199999809265</ele>
        <time>2021-11-21T07:34:29.000Z</time>
      </trkpt>
      <trkpt lat="45.82738" lon="-1.2174">
        <ele>-15</ele>
        <time>2021-11-21T07:34:31.000Z</time>
      </trkpt>
      <trkpt lat="45.82743" lon="-1.21756">
        <ele>-15</ele>
        <time>2021-11-21T07:34:33.000Z</time>
      </trkpt>
      <trkpt lat="45.82766" lon="-1.21823">
        <ele>-15.199999809265</ele>
        <time>2021-11-21T07:34:41.000Z</time>
      </trkpt>
      <trkpt lat="45.82788" lon="-1.21894">
        <ele>-15.199999809265</ele>
        <time>2021-11-21T07:34:49.000Z</time>
      </trkpt>
      <trkpt lat="45.82794" lon="-1.21911">
        <ele>-15.199999809265</ele>
        <time>2021-11-21T07:34:51.000Z</time>
      </trkpt>
      <trkpt lat="45.82818" lon="-1.21982">
        <ele>-15.39999961853</ele>
        <time>2021-11-21T07:34:59.000Z</time>
      </trkpt>
      <trkpt lat="45.82835" lon="-1.22032">
        <ele>-15</ele>
        <time>2021-11-21T07:35:05.000Z</time>
      </trkpt>
      <trkpt lat="45.82841" lon="-1.22048">
        <ele>-15</ele>
        <time>2021-11-21T07:35:07.000Z</time>
      </trkpt>
      <trkpt lat="45.82856" lon="-1.22093">
        <ele>-14.39999961853</ele>
        <time>2021-11-21T07:35:13.000Z</time>
      </trkpt>
      <trkpt lat="45.82871" lon="-1.22139">
        <ele>-14.199999809265</ele>
        <time>2021-11-21T07:35:21.000Z</time>
      </trkpt>
      <trkpt lat="45.82875" lon="-1.22155">
        <ele>-14.199999809265</ele>
        <time>2021-11-21T07:35:25.000Z</time>
      </trkpt>
      <trkpt lat="45.82875" lon="-1.22154">
        <ele>-14.39999961853</ele>
        <time>2021-11-21T07:35:26.000Z</time>
      </trkpt>
      <trkpt lat="45.82875" lon="-1.22153">
        <ele>-14.39999961853</ele>
        <time>2021-11-21T07:35:27.000Z</time>
      </trkpt>
      <trkpt lat="45.82874" lon="-1.22144">
        <ele>-14.60000038147</ele>
        <time>2021-11-21T07:35:31.000Z</time>
      </trkpt>
      <trkpt lat="45.82875" lon="-1.22144">
        <ele>-14.60000038147</ele>
        <time>2021-11-21T07:35:32.000Z</time>
      </trkpt>
      <trkpt lat="45.82877" lon="-1.22144">
        <ele>-14.60000038147</ele>
        <time>2021-11-21T07:35:35.000Z</time>
      </trkpt>
      <trkpt lat="45.82881" lon="-1.22146">
        <ele>-14.60000038147</ele>
        <time>2021-11-21T07:35:37.000Z</time>
      </trkpt>
      <trkpt lat="45.82886" lon="-1.22152">
        <ele>-14.60000038147</ele>
        <time>2021-11-21T07:35:40.000Z</time>
      </trkpt>
      <trkpt lat="45.8289" lon="-1.2215">
        <ele>-14.60000038147</ele>
        <time>2021-11-21T07:35:42.000Z</time>
      </trkpt>
      <trkpt lat="45.82902" lon="-1.22142">
        <ele>-14.60000038147</ele>
        <time>2021-11-21T07:35:46.000Z</time>
      </trkpt>
      <trkpt lat="45.82924" lon="-1.2214">
        <ele>-14.39999961853</ele>
        <time>2021-11-21T07:35:51.000Z</time>
      </trkpt>
      <trkpt lat="45.82929" lon="-1.2214">
        <ele>-14.39999961853</ele>
        <time>2021-11-21T07:35:52.000Z</time>
      </trkpt>
      <trkpt lat="45.82943" lon="-1.22143">
        <ele>-14.39999961853</ele>
        <time>2021-11-21T07:35:55.000Z</time>
      </trkpt>
      <trkpt lat="45.82948" lon="-1.22151">
        <ele>-14.39999961853</ele>
        <time>2021-11-21T07:35:57.000Z</time>
      </trkpt>
      <trkpt lat="45.82948" lon="-1.22157">
        <ele>-14.199999809265</ele>
        <time>2021-11-21T07:35:58.000Z</time>
      </trkpt>
      <trkpt lat="45.82948" lon="-1.22164">
        <ele>-14.199999809265</ele>
        <time>2021-11-21T07:35:59.000Z</time>
      </trkpt>
      <trkpt lat="45.82942" lon="-1.22197">
        <ele>-14</ele>
        <time>2021-11-21T07:36:03.000Z</time>
      </trkpt>
      <trkpt lat="45.82941" lon="-1.22206">
        <ele>-13.800000190735</ele>
        <time>2021-11-21T07:36:04.000Z</time>
      </trkpt>
      <trkpt lat="45.82934" lon="-1.2225">
        <ele>-13.39999961853</ele>
        <time>2021-11-21T07:36:09.000Z</time>
      </trkpt>
      <trkpt lat="45.82926" lon="-1.22298">
        <ele>-13.199999809265</ele>
        <time>2021-11-21T07:36:14.000Z</time>
      </trkpt>
      <trkpt lat="45.82921" lon="-1.2233">
        <ele>-13.199999809265</ele>
        <time>2021-11-21T07:36:18.000Z</time>
      </trkpt>
      <trkpt lat="45.82916" lon="-1.22349">
        <ele>-13.39999961853</ele>
        <time>2021-11-21T07:36:20.000Z</time>
      </trkpt>
      <trkpt lat="45.82913" lon="-1.22359">
        <ele>-13.39999961853</ele>
        <time>2021-11-21T07:36:21.000Z</time>
      </trkpt>
      <trkpt lat="45.82909" lon="-1.22367">
        <ele>-13.39999961853</ele>
        <time>2021-11-21T07:36:22.000Z</time>
      </trkpt>
      <trkpt lat="45.82899" lon="-1.22383">
        <ele>-13.39999961853</ele>
        <time>2021-11-21T07:36:24.000Z</time>
      </trkpt>
      <trkpt lat="45.82894" lon="-1.2239">
        <ele>-13.39999961853</ele>
        <time>2021-11-21T07:36:25.000Z</time>
      </trkpt>
      <trkpt lat="45.82862" lon="-1.22421">
        <ele>-13.39999961853</ele>
        <time>2021-11-21T07:36:31.000Z</time>
      </trkpt>
      <trkpt lat="45.82833" lon="-1.22457">
        <ele>-13.39999961853</ele>
        <time>2021-11-21T07:36:37.000Z</time>
      </trkpt>
      <trkpt lat="45.82832" lon="-1.22472">
        <ele>-13.39999961853</ele>
        <time>2021-11-21T07:36:39.000Z</time>
      </trkpt>
      <trkpt lat="45.82833" lon="-1.2248">
        <ele>-13.39999961853</ele>
        <time>2021-11-21T07:36:40.000Z</time>
      </trkpt>
      <trkpt lat="45.82841" lon="-1.22513">
        <ele>-13.199999809265</ele>
        <time>2021-11-21T07:36:44.000Z</time>
      </trkpt>
      <trkpt lat="45.82844" lon="-1.22521">
        <ele>-13.199999809265</ele>
        <time>2021-11-21T07:36:45.000Z</time>
      </trkpt>
      <trkpt lat="45.82848" lon="-1.22529">
        <ele>-13</ele>
        <time>2021-11-21T07:36:46.000Z</time>
      </trkpt>
      <trkpt lat="45.82852" lon="-1.22536">
        <ele>-13</ele>
        <time>2021-11-21T07:36:47.000Z</time>
      </trkpt>
      <trkpt lat="45.82862" lon="-1.22549">
        <ele>-12.800000190735</ele>
        <time>2021-11-21T07:36:49.000Z</time>
      </trkpt>
      <trkpt lat="45.82868" lon="-1.22555">
        <ele>-12.800000190735</ele>
        <time>2021-11-21T07:36:50.000Z</time>
      </trkpt>
      <trkpt lat="45.82874" lon="-1.2256">
        <ele>-12.800000190735</ele>
        <time>2021-11-21T07:36:51.000Z</time>
      </trkpt>
      <trkpt lat="45.82902" lon="-1.22577">
        <ele>-12.800000190735</ele>
        <time>2021-11-21T07:36:55.000Z</time>
      </trkpt>
      <trkpt lat="45.8295" lon="-1.22605">
        <ele>-12.800000190735</ele>
        <time>2021-11-21T07:37:02.000Z</time>
      </trkpt>
      <trkpt lat="45.82956" lon="-1.2261">
        <ele>-12.800000190735</ele>
        <time>2021-11-21T07:37:03.000Z</time>
      </trkpt>
      <trkpt lat="45.82966" lon="-1.22623">
        <ele>-12.800000190735</ele>
        <time>2021-11-21T07:37:05.000Z</time>
      </trkpt>
      <trkpt lat="45.8297" lon="-1.22641">
        <ele>-12.60000038147</ele>
        <time>2021-11-21T07:37:07.000Z</time>
      </trkpt>
      <trkpt lat="45.82971" lon="-1.22651">
        <ele>-12.60000038147</ele>
        <time>2021-11-21T07:37:08.000Z</time>
      </trkpt>
      <trkpt lat="45.82969" lon="-1.2268">
        <ele>-12.39999961853</ele>
        <time>2021-11-21T07:37:11.000Z</time>
      </trkpt>
      <trkpt lat="45.82967" lon="-1.22722">
        <ele>-12.199999809265</ele>
        <time>2021-11-21T07:37:15.000Z</time>
      </trkpt>
      <trkpt lat="45.82965" lon="-1.22752">
        <ele>-12.199999809265</ele>
        <time>2021-11-21T07:37:18.000Z</time>
      </trkpt>
      <trkpt lat="45.82964" lon="-1.22776">
        <ele>-12</ele>
        <time>2021-11-21T07:37:21.000Z</time>
      </trkpt>
      <trkpt lat="45.82962" lon="-1.22781">
        <ele>-12</ele>
        <time>2021-11-21T07:37:22.000Z</time>
      </trkpt>
      <trkpt lat="45.82959" lon="-1.22783">
        <ele>-11.800000190735</ele>
        <time>2021-11-21T07:37:23.000Z</time>
      </trkpt>
      <trkpt lat="45.82953" lon="-1.22782">
        <ele>-11.800000190735</ele>
        <time>2021-11-21T07:37:25.000Z</time>
      </trkpt>
      <trkpt lat="45.82948" lon="-1.2278">
        <ele>-11.800000190735</ele>
        <time>2021-11-21T07:37:26.000Z</time>
      </trkpt>
      <trkpt lat="45.82931" lon="-1.22777">
        <ele>-11.800000190735</ele>
        <time>2021-11-21T07:37:29.000Z</time>
      </trkpt>
      <trkpt lat="45.8289" lon="-1.22766">
        <ele>-12</ele>
        <time>2021-11-21T07:37:35.000Z</time>
      </trkpt>
      <trkpt lat="45.82849" lon="-1.22753">
        <ele>-11.60000038147</ele>
        <time>2021-11-21T07:37:41.000Z</time>
      </trkpt>
      <trkpt lat="45.82836" lon="-1.2275">
        <ele>-11.39999961853</ele>
        <time>2021-11-21T07:37:43.000Z</time>
      </trkpt>
      <trkpt lat="45.82792" lon="-1.22736">
        <ele>-11</ele>
        <time>2021-11-21T07:37:50.000Z</time>
      </trkpt>
      <trkpt lat="45.82776" lon="-1.22732">
        <ele>-11.199999809265</ele>
        <time>2021-11-21T07:37:53.000Z</time>
      </trkpt>
      <trkpt lat="45.82766" lon="-1.2273">
        <ele>-11</ele>
        <time>2021-11-21T07:37:55.000Z</time>
      </trkpt>
      <trkpt lat="45.82758" lon="-1.22727">
        <ele>-10.800000190735</ele>
        <time>2021-11-21T07:37:57.000Z</time>
      </trkpt>
      <trkpt lat="45.82747" lon="-1.22724">
        <ele>-10</ele>
        <time>2021-11-21T07:38:00.000Z</time>
      </trkpt>
      <trkpt lat="45.82739" lon="-1.22721">
        <ele>-9.6000003814697</ele>
        <time>2021-11-21T07:38:02.000Z</time>
      </trkpt>
      <trkpt lat="45.8273" lon="-1.2272">
        <ele>-9.3999996185303</ele>
        <time>2021-11-21T07:38:04.000Z</time>
      </trkpt>
      <trkpt lat="45.82721" lon="-1.22717">
        <ele>-9</ele>
        <time>2021-11-21T07:38:06.000Z</time>
      </trkpt>
      <trkpt lat="45.82711" lon="-1.22713">
        <ele>-8.8000001907349</ele>
        <time>2021-11-21T07:38:08.000Z</time>
      </trkpt>
      <trkpt lat="45.82705" lon="-1.22711">
        <ele>-8.6000003814697</ele>
        <time>2021-11-21T07:38:09.000Z</time>
      </trkpt>
      <trkpt lat="45.82699" lon="-1.22709">
        <ele>-8.6000003814697</ele>
        <time>2021-11-21T07:38:10.000Z</time>
      </trkpt>
      <trkpt lat="45.82674" lon="-1.22704">
        <ele>-7.5999999046326</ele>
        <time>2021-11-21T07:38:14.000Z</time>
      </trkpt>
      <trkpt lat="45.82662" lon="-1.22701">
        <ele>-7.4000000953674</ele>
        <time>2021-11-21T07:38:16.000Z</time>
      </trkpt>
      <trkpt lat="45.8265" lon="-1.22698">
        <ele>-7.4000000953674</ele>
        <time>2021-11-21T07:38:18.000Z</time>
      </trkpt>
      <trkpt lat="45.82628" lon="-1.22692">
        <ele>-6.8000001907349</ele>
        <time>2021-11-21T07:38:21.000Z</time>
      </trkpt>
      <trkpt lat="45.82613" lon="-1.22688">
        <ele>-6.5999999046326</ele>
        <time>2021-11-21T07:38:23.000Z</time>
      </trkpt>
      <trkpt lat="45.82589" lon="-1.22681">
        <ele>-6</ele>
        <time>2021-11-21T07:38:27.000Z</time>
      </trkpt>
      <trkpt lat="45.82565" lon="-1.22674">
        <ele>-5.5999999046326</ele>
        <time>2021-11-21T07:38:31.000Z</time>
      </trkpt>
      <trkpt lat="45.82551" lon="-1.2267">
        <ele>-5</ele>
        <time>2021-11-21T07:38:33.000Z</time>
      </trkpt>
      <trkpt lat="45.82537" lon="-1.22666">
        <ele>-4.8000001907349</ele>
        <time>2021-11-21T07:38:35.000Z</time>
      </trkpt>
      <trkpt lat="45.82507" lon="-1.2266">
        <ele>-5</ele>
        <time>2021-11-21T07:38:39.000Z</time>
      </trkpt>
      <trkpt lat="45.82462" lon="-1.22648">
        <ele>-4.8000001907349</ele>
        <time>2021-11-21T07:38:45.000Z</time>
      </trkpt>
      <trkpt lat="45.82408" lon="-1.22634">
        <ele>-5.1999998092651</ele>
        <time>2021-11-21T07:38:51.000Z</time>
      </trkpt>
      <trkpt lat="45.82383" lon="-1.22629">
        <ele>-5.4000000953674</ele>
        <time>2021-11-21T07:38:54.000Z</time>
      </trkpt>
      <trkpt lat="45.82375" lon="-1.22626">
        <ele>-5.5999999046326</ele>
        <time>2021-11-21T07:38:55.000Z</time>
      </trkpt>
      <trkpt lat="45.82323" lon="-1.22611">
        <ele>-6.1999998092651</ele>
        <time>2021-11-21T07:39:02.000Z</time>
      </trkpt>
      <trkpt lat="45.82268" lon="-1.22596">
        <ele>-6.8000001907349</ele>
        <time>2021-11-21T07:39:09.000Z</time>
      </trkpt>
      <trkpt lat="45.82227" lon="-1.22586">
        <ele>-6.8000001907349</ele>
        <time>2021-11-21T07:39:14.000Z</time>
      </trkpt>
      <trkpt lat="45.82185" lon="-1.22576">
        <ele>-7.4000000953674</ele>
        <time>2021-11-21T07:39:20.000Z</time>
      </trkpt>
      <trkpt lat="45.82174" lon="-1.22574">
        <ele>-8.1999998092651</ele>
        <time>2021-11-21T07:39:22.000Z</time>
      </trkpt>
      <trkpt lat="45.82162" lon="-1.22571">
        <ele>-8.3999996185303</ele>
        <time>2021-11-21T07:39:24.000Z</time>
      </trkpt>
      <trkpt lat="45.82142" lon="-1.22566">
        <ele>-9.1999998092651</ele>
        <time>2021-11-21T07:39:27.000Z</time>
      </trkpt>
      <trkpt lat="45.82127" lon="-1.22561">
        <ele>-9.6000003814697</ele>
        <time>2021-11-21T07:39:29.000Z</time>
      </trkpt>
      <trkpt lat="45.8208" lon="-1.22549">
        <ele>-10.199999809265</ele>
        <time>2021-11-21T07:39:35.000Z</time>
      </trkpt>
      <trkpt lat="45.82057" lon="-1.22544">
        <ele>-10.800000190735</ele>
        <time>2021-11-21T07:39:38.000Z</time>
      </trkpt>
      <trkpt lat="45.82042" lon="-1.22539">
        <ele>-11.199999809265</ele>
        <time>2021-11-21T07:39:40.000Z</time>
      </trkpt>
      <trkpt lat="45.82005" lon="-1.22527">
        <ele>-12</ele>
        <time>2021-11-21T07:39:45.000Z</time>
      </trkpt>
      <trkpt lat="45.81973" lon="-1.2252">
        <ele>-12.39999961853</ele>
        <time>2021-11-21T07:39:49.000Z</time>
      </trkpt>
      <trkpt lat="45.81951" lon="-1.22517">
        <ele>-12.800000190735</ele>
        <time>2021-11-21T07:39:52.000Z</time>
      </trkpt>
      <trkpt lat="45.81911" lon="-1.22507">
        <ele>-13</ele>
        <time>2021-11-21T07:39:57.000Z</time>
      </trkpt>
      <trkpt lat="45.81877" lon="-1.22496">
        <ele>-13.39999961853</ele>
        <time>2021-11-21T07:40:02.000Z</time>
      </trkpt>
      <trkpt lat="45.8183" lon="-1.2248">
        <ele>-13.60000038147</ele>
        <time>2021-11-21T07:40:08.000Z</time>
      </trkpt>
      <trkpt lat="45.81775" lon="-1.22465">
        <ele>-13.60000038147</ele>
        <time>2021-11-21T07:40:15.000Z</time>
      </trkpt>
      <trkpt lat="45.8173" lon="-1.22452">
        <ele>-14.60000038147</ele>
        <time>2021-11-21T07:40:21.000Z</time>
      </trkpt>
      <trkpt lat="45.81724" lon="-1.22451">
        <ele>-14.800000190735</ele>
        <time>2021-11-21T07:40:22.000Z</time>
      </trkpt>
      <trkpt lat="45.81687" lon="-1.2244">
        <ele>-15.39999961853</ele>
        <time>2021-11-21T07:40:27.000Z</time>
      </trkpt>
      <trkpt lat="45.81642" lon="-1.22429">
        <ele>-15.60000038147</ele>
        <time>2021-11-21T07:40:33.000Z</time>
      </trkpt>
      <trkpt lat="45.81592" lon="-1.22412">
        <ele>-15.60000038147</ele>
        <time>2021-11-21T07:40:40.000Z</time>
      </trkpt>
      <trkpt lat="45.81586" lon="-1.22411">
        <ele>-15.60000038147</ele>
        <time>2021-11-21T07:40:41.000Z</time>
      </trkpt>
      <trkpt lat="45.81489" lon="-1.23045">
        <ele>-15</ele>
        <time>2021-11-21T07:56:10.000Z</time>
      </trkpt>
      <trkpt lat="45.81486" lon="-1.23065">
        <ele>-15</ele>
        <time>2021-11-21T07:56:13.000Z</time>
      </trkpt>
      <trkpt lat="45.8148" lon="-1.23114">
        <ele>-15.199999809265</ele>
        <time>2021-11-21T07:56:19.000Z</time>
      </trkpt>
      <trkpt lat="45.81474" lon="-1.23163">
        <ele>-15.39999961853</ele>
        <time>2021-11-21T07:56:26.000Z</time>
      </trkpt>
      <trkpt lat="45.81472" lon="-1.23188">
        <ele>-15.199999809265</ele>
        <time>2021-11-21T07:56:28.000Z</time>
      </trkpt>
      <trkpt lat="45.81471" lon="-1.23199">
        <ele>-15.199999809265</ele>
        <time>2021-11-21T07:56:30.000Z</time>
      </trkpt>
      <trkpt lat="45.81468" lon="-1.23225">
        <ele>-15.199999809265</ele>
        <time>2021-11-21T07:56:34.000Z</time>
      </trkpt>
      <trkpt lat="45.81467" lon="-1.23239">
        <ele>-15.199999809265</ele>
        <time>2021-11-21T07:56:36.000Z</time>
      </trkpt>
      <trkpt lat="45.81468" lon="-1.23252">
        <ele>-15.199999809265</ele>
        <time>2021-11-21T07:56:39.000Z</time>
      </trkpt>
      <trkpt lat="45.81472" lon="-1.23254">
        <ele>-15.199999809265</ele>
        <time>2021-11-21T07:56:41.000Z</time>
      </trkpt>
      <trkpt lat="45.81483" lon="-1.23254">
        <ele>-15.199999809265</ele>
        <time>2021-11-21T07:56:44.000Z</time>
      </trkpt>
      <trkpt lat="45.81501" lon="-1.23254">
        <ele>-15.199999809265</ele>
        <time>2021-11-21T07:56:48.000Z</time>
      </trkpt>
      <trkpt lat="45.81505" lon="-1.23253">
        <ele>-15</ele>
        <time>2021-11-21T07:56:49.000Z</time>
      </trkpt>
      <trkpt lat="45.8152" lon="-1.23251">
        <ele>-15.199999809265</ele>
        <time>2021-11-21T07:56:52.000Z</time>
      </trkpt>
      <trkpt lat="45.8154" lon="-1.23248">
        <ele>-14.60000038147</ele>
        <time>2021-11-21T07:56:56.000Z</time>
      </trkpt>
      <trkpt lat="45.8155" lon="-1.23245">
        <ele>-14.39999961853</ele>
        <time>2021-11-21T07:56:58.000Z</time>
      </trkpt>
      <trkpt lat="45.81565" lon="-1.23239">
        <ele>-14.39999961853</ele>
        <time>2021-11-21T07:57:01.000Z</time>
      </trkpt>
      <trkpt lat="45.81576" lon="-1.23238">
        <ele>-14.39999961853</ele>
        <time>2021-11-21T07:57:03.000Z</time>
      </trkpt>
      <trkpt lat="45.81591" lon="-1.23236">
        <ele>-14.39999961853</ele>
        <time>2021-11-21T07:57:06.000Z</time>
      </trkpt>
      <trkpt lat="45.81609" lon="-1.23236">
        <ele>-14.60000038147</ele>
        <time>2021-11-21T07:57:09.000Z</time>
      </trkpt>
      <trkpt lat="45.8162" lon="-1.23232">
        <ele>-14.60000038147</ele>
        <time>2021-11-21T07:57:11.000Z</time>
      </trkpt>
      <trkpt lat="45.81626" lon="-1.23229">
        <ele>-14.60000038147</ele>
        <time>2021-11-21T07:57:12.000Z</time>
      </trkpt>
      <trkpt lat="45.81634" lon="-1.2322">
        <ele>-14.60000038147</ele>
        <time>2021-11-21T07:57:14.000Z</time>
      </trkpt>
      <trkpt lat="45.81643" lon="-1.23214">
        <ele>-14.800000190735</ele>
        <time>2021-11-21T07:57:16.000Z</time>
      </trkpt>
      <trkpt lat="45.81662" lon="-1.2321">
        <ele>-14.800000190735</ele>
        <time>2021-11-21T07:57:19.000Z</time>
      </trkpt>
      <trkpt lat="45.81669" lon="-1.23209">
        <ele>-14.800000190735</ele>
        <time>2021-11-21T07:57:20.000Z</time>
      </trkpt>
      <trkpt lat="45.81692" lon="-1.2321">
        <ele>-14.60000038147</ele>
        <time>2021-11-21T07:57:24.000Z</time>
      </trkpt>
      <trkpt lat="45.81715" lon="-1.2321">
        <ele>-14.39999961853</ele>
        <time>2021-11-21T07:57:28.000Z</time>
      </trkpt>
      <trkpt lat="45.81735" lon="-1.23213">
        <ele>-14.199999809265</ele>
        <time>2021-11-21T07:57:31.000Z</time>
      </trkpt>
      <trkpt lat="45.81746" lon="-1.2321">
        <ele>-14.199999809265</ele>
        <time>2021-11-21T07:57:33.000Z</time>
      </trkpt>
      <trkpt lat="45.81786" lon="-1.23197">
        <ele>-14.39999961853</ele>
        <time>2021-11-21T07:57:40.000Z</time>
      </trkpt>
      <trkpt lat="45.81802" lon="-1.23201">
        <ele>-14.39999961853</ele>
        <time>2021-11-21T07:57:43.000Z</time>
      </trkpt>
      <trkpt lat="45.8181" lon="-1.23207">
        <ele>-14.39999961853</ele>
        <time>2021-11-21T07:57:45.000Z</time>
      </trkpt>
      <trkpt lat="45.8184" lon="-1.23224">
        <ele>-14.60000038147</ele>
        <time>2021-11-21T07:57:52.000Z</time>
      </trkpt>
      <trkpt lat="45.81873" lon="-1.2324">
        <ele>-14.60000038147</ele>
        <time>2021-11-21T07:57:59.000Z</time>
      </trkpt>
      <trkpt lat="45.81891" lon="-1.23242">
        <ele>-14.60000038147</ele>
        <time>2021-11-21T07:58:02.000Z</time>
      </trkpt>
      <trkpt lat="45.81901" lon="-1.23239">
        <ele>-14.60000038147</ele>
        <time>2021-11-21T07:58:04.000Z</time>
      </trkpt>
      <trkpt lat="45.81912" lon="-1.23234">
        <ele>-14.60000038147</ele>
        <time>2021-11-21T07:58:06.000Z</time>
      </trkpt>
      <trkpt lat="45.81931" lon="-1.23226">
        <ele>-14.800000190735</ele>
        <time>2021-11-21T07:58:09.000Z</time>
      </trkpt>
      <trkpt lat="45.81936" lon="-1.23223">
        <ele>-14.800000190735</ele>
        <time>2021-11-21T07:58:10.000Z</time>
      </trkpt>
      <trkpt lat="45.81954" lon="-1.23222">
        <ele>-15</ele>
        <time>2021-11-21T07:58:13.000Z</time>
      </trkpt>
      <trkpt lat="45.81967" lon="-1.23223">
        <ele>-15</ele>
        <time>2021-11-21T07:58:15.000Z</time>
      </trkpt>
      <trkpt lat="45.81979" lon="-1.23228">
        <ele>-15</ele>
        <time>2021-11-21T07:58:17.000Z</time>
      </trkpt>
      <trkpt lat="45.81995" lon="-1.23234">
        <ele>-15</ele>
        <time>2021-11-21T07:58:20.000Z</time>
      </trkpt>
      <trkpt lat="45.82034" lon="-1.23252">
        <ele>-15.39999961853</ele>
        <time>2021-11-21T07:58:27.000Z</time>
      </trkpt>
      <trkpt lat="45.8204" lon="-1.23254">
        <ele>-15.39999961853</ele>
        <time>2021-11-21T07:58:28.000Z</time>
      </trkpt>
      <trkpt lat="45.82059" lon="-1.23264">
        <ele>-14.60000038147</ele>
        <time>2021-11-21T07:58:31.000Z</time>
      </trkpt>
      <trkpt lat="45.82071" lon="-1.23266">
        <ele>-14.800000190735</ele>
        <time>2021-11-21T07:58:33.000Z</time>
      </trkpt>
      <trkpt lat="45.82082" lon="-1.23271">
        <ele>-14.800000190735</ele>
        <time>2021-11-21T07:58:35.000Z</time>
      </trkpt>
      <trkpt lat="45.82091" lon="-1.23276">
        <ele>-14.800000190735</ele>
        <time>2021-11-21T07:58:37.000Z</time>
      </trkpt>
      <trkpt lat="45.82111" lon="-1.23281">
        <ele>-14.800000190735</ele>
        <time>2021-11-21T07:58:41.000Z</time>
      </trkpt>
      <trkpt lat="45.82126" lon="-1.23286">
        <ele>-14.60000038147</ele>
        <time>2021-11-21T07:58:44.000Z</time>
      </trkpt>
      <trkpt lat="45.82146" lon="-1.23291">
        <ele>-14.39999961853</ele>
        <time>2021-11-21T07:58:48.000Z</time>
      </trkpt>
      <trkpt lat="45.82158" lon="-1.23294">
        <ele>-14.199999809265</ele>
        <time>2021-11-21T07:58:50.000Z</time>
      </trkpt>
      <trkpt lat="45.82174" lon="-1.23304">
        <ele>-13.800000190735</ele>
        <time>2021-11-21T07:58:53.000Z</time>
      </trkpt>
      <trkpt lat="45.82208" lon="-1.23326">
        <ele>-13.60000038147</ele>
        <time>2021-11-21T07:58:59.000Z</time>
      </trkpt>
      <trkpt lat="45.82212" lon="-1.23329">
        <ele>-13.60000038147</ele>
        <time>2021-11-21T07:59:01.000Z</time>
      </trkpt>
      <trkpt lat="45.82254" lon="-1.23345">
        <ele>-13.60000038147</ele>
        <time>2021-11-21T07:59:07.000Z</time>
      </trkpt>
      <trkpt lat="45.82277" lon="-1.2335">
        <ele>-13.39999961853</ele>
        <time>2021-11-21T07:59:11.000Z</time>
      </trkpt>
      <trkpt lat="45.82282" lon="-1.23352">
        <ele>-13.39999961853</ele>
        <time>2021-11-21T07:59:12.000Z</time>
      </trkpt>
      <trkpt lat="45.82317" lon="-1.23358">
        <ele>-14</ele>
        <time>2021-11-21T07:59:18.000Z</time>
      </trkpt>
      <trkpt lat="45.82328" lon="-1.23359">
        <ele>-14</ele>
        <time>2021-11-21T07:59:20.000Z</time>
      </trkpt>
      <trkpt lat="45.82348" lon="-1.23363">
        <ele>-14</ele>
        <time>2021-11-21T07:59:23.000Z</time>
      </trkpt>
      <trkpt lat="45.82371" lon="-1.23367">
        <ele>-13.60000038147</ele>
        <time>2021-11-21T07:59:28.000Z</time>
      </trkpt>
      <trkpt lat="45.82409" lon="-1.23379">
        <ele>-13.39999961853</ele>
        <time>2021-11-21T07:59:34.000Z</time>
      </trkpt>
      <trkpt lat="45.82446" lon="-1.23395">
        <ele>-13.60000038147</ele>
        <time>2021-11-21T07:59:40.000Z</time>
      </trkpt>
      <trkpt lat="45.82452" lon="-1.23398">
        <ele>-13.60000038147</ele>
        <time>2021-11-21T07:59:41.000Z</time>
      </trkpt>
      <trkpt lat="45.82476" lon="-1.23408">
        <ele>-13.60000038147</ele>
        <time>2021-11-21T07:59:45.000Z</time>
      </trkpt>
      <trkpt lat="45.82493" lon="-1.23411">
        <ele>-13.60000038147</ele>
        <time>2021-11-21T07:59:48.000Z</time>
      </trkpt>
      <trkpt lat="45.82499" lon="-1.23412">
        <ele>-13.60000038147</ele>
        <time>2021-11-21T07:59:49.000Z</time>
      </trkpt>
      <trkpt lat="45.8251" lon="-1.23418">
        <ele>-13.199999809265</ele>
        <time>2021-11-21T07:59:51.000Z</time>
      </trkpt>
      <trkpt lat="45.82514" lon="-1.23424">
        <ele>-13.39999961853</ele>
        <time>2021-11-21T07:59:52.000Z</time>
      </trkpt>
      <trkpt lat="45.8254" lon="-1.23454">
        <ele>-13.800000190735</ele>
        <time>2021-11-21T07:59:57.000Z</time>
      </trkpt>
      <trkpt lat="45.8255" lon="-1.23463">
        <ele>-14</ele>
        <time>2021-11-21T07:59:59.000Z</time>
      </trkpt>
      <trkpt lat="45.82561" lon="-1.23467">
        <ele>-13.800000190735</ele>
        <time>2021-11-21T08:00:01.000Z</time>
      </trkpt>
      <trkpt lat="45.82577" lon="-1.23469">
        <ele>-13.800000190735</ele>
        <time>2021-11-21T08:00:04.000Z</time>
      </trkpt>
      <trkpt lat="45.8259" lon="-1.23469">
        <ele>-13.800000190735</ele>
        <time>2021-11-21T08:00:06.000Z</time>
      </trkpt>
      <trkpt lat="45.82595" lon="-1.2347">
        <ele>-13.800000190735</ele>
        <time>2021-11-21T08:00:07.000Z</time>
      </trkpt>
      <trkpt lat="45.82607" lon="-1.23474">
        <ele>-13.800000190735</ele>
        <time>2021-11-21T08:00:09.000Z</time>
      </trkpt>
      <trkpt lat="45.82613" lon="-1.23477">
        <ele>-14</ele>
        <time>2021-11-21T08:00:10.000Z</time>
      </trkpt>
      <trkpt lat="45.82619" lon="-1.2348">
        <ele>-14</ele>
        <time>2021-11-21T08:00:11.000Z</time>
      </trkpt>
      <trkpt lat="45.82637" lon="-1.23485">
        <ele>-14.199999809265</ele>
        <time>2021-11-21T08:00:14.000Z</time>
      </trkpt>
      <trkpt lat="45.82642" lon="-1.23488">
        <ele>-14.199999809265</ele>
        <time>2021-11-21T08:00:15.000Z</time>
      </trkpt>
      <trkpt lat="45.82648" lon="-1.23492">
        <ele>-14.199999809265</ele>
        <time>2021-11-21T08:00:16.000Z</time>
      </trkpt>
      <trkpt lat="45.82664" lon="-1.23507">
        <ele>-14.60000038147</ele>
        <time>2021-11-21T08:00:19.000Z</time>
      </trkpt>
      <trkpt lat="45.82674" lon="-1.23513">
        <ele>-14.199999809265</ele>
        <time>2021-11-21T08:00:21.000Z</time>
      </trkpt>
      <trkpt lat="45.82684" lon="-1.23517">
        <ele>-14.199999809265</ele>
        <time>2021-11-21T08:00:23.000Z</time>
      </trkpt>
      <trkpt lat="45.82718" lon="-1.23532">
        <ele>-14</ele>
        <time>2021-11-21T08:00:29.000Z</time>
      </trkpt>
      <trkpt lat="45.82741" lon="-1.23546">
        <ele>-14.199999809265</ele>
        <time>2021-11-21T08:00:33.000Z</time>
      </trkpt>
      <trkpt lat="45.82753" lon="-1.23548">
        <ele>-14.199999809265</ele>
        <time>2021-11-21T08:00:35.000Z</time>
      </trkpt>
      <trkpt lat="45.82759" lon="-1.2355">
        <ele>-14.39999961853</ele>
        <time>2021-11-21T08:00:36.000Z</time>
      </trkpt>
      <trkpt lat="45.8278" lon="-1.23561">
        <ele>-14.39999961853</ele>
        <time>2021-11-21T08:00:40.000Z</time>
      </trkpt>
      <trkpt lat="45.82792" lon="-1.23564">
        <ele>-14.199999809265</ele>
        <time>2021-11-21T08:00:42.000Z</time>
      </trkpt>
      <trkpt lat="45.82803" lon="-1.23562">
        <ele>-14.39999961853</ele>
        <time>2021-11-21T08:00:44.000Z</time>
      </trkpt>
      <trkpt lat="45.82813" lon="-1.23557">
        <ele>-14.39999961853</ele>
        <time>2021-11-21T08:00:46.000Z</time>
      </trkpt>
      <trkpt lat="45.82823" lon="-1.23553">
        <ele>-14.39999961853</ele>
        <time>2021-11-21T08:00:48.000Z</time>
      </trkpt>
      <trkpt lat="45.82851" lon="-1.23547">
        <ele>-14.39999961853</ele>
        <time>2021-11-21T08:00:53.000Z</time>
      </trkpt>
      <trkpt lat="45.82856" lon="-1.23544">
        <ele>-14.39999961853</ele>
        <time>2021-11-21T08:00:55.000Z</time>
      </trkpt>
      <trkpt lat="45.82865" lon="-1.2354">
        <ele>-14.199999809265</ele>
        <time>2021-11-21T08:00:58.000Z</time>
      </trkpt>
      <trkpt lat="45.82874" lon="-1.2355">
        <ele>-14.199999809265</ele>
        <time>2021-11-21T08:01:02.000Z</time>
      </trkpt>
      <trkpt lat="45.8288" lon="-1.23558">
        <ele>-14.199999809265</ele>
        <time>2021-11-21T08:01:04.000Z</time>
      </trkpt>
      <trkpt lat="45.82897" lon="-1.23576">
        <ele>-14.199999809265</ele>
        <time>2021-11-21T08:01:08.000Z</time>
      </trkpt>
      <trkpt lat="45.8292" lon="-1.236">
        <ele>-14.39999961853</ele>
        <time>2021-11-21T08:01:13.000Z</time>
      </trkpt>
      <trkpt lat="45.82929" lon="-1.23609">
        <ele>-14.39999961853</ele>
        <time>2021-11-21T08:01:15.000Z</time>
      </trkpt>
      <trkpt lat="45.82936" lon="-1.23613">
        <ele>-14.39999961853</ele>
        <time>2021-11-21T08:01:17.000Z</time>
      </trkpt>
      <trkpt lat="45.82952" lon="-1.23611">
        <ele>-14.39999961853</ele>
        <time>2021-11-21T08:01:21.000Z</time>
      </trkpt>
      <trkpt lat="45.82972" lon="-1.23601">
        <ele>-13.800000190735</ele>
        <time>2021-11-21T08:01:26.000Z</time>
      </trkpt>
      <trkpt lat="45.82987" lon="-1.23601">
        <ele>-13.800000190735</ele>
        <time>2021-11-21T08:01:29.000Z</time>
      </trkpt>
      <trkpt lat="45.82992" lon="-1.23603">
        <ele>-13.60000038147</ele>
        <time>2021-11-21T08:01:30.000Z</time>
      </trkpt>
      <trkpt lat="45.83015" lon="-1.2361">
        <ele>-13.800000190735</ele>
        <time>2021-11-21T08:01:35.000Z</time>
      </trkpt>
      <trkpt lat="45.83039" lon="-1.23611">
        <ele>-13.60000038147</ele>
        <time>2021-11-21T08:01:40.000Z</time>
      </trkpt>
      <trkpt lat="45.83045" lon="-1.23612">
        <ele>-13.60000038147</ele>
        <time>2021-11-21T08:01:41.000Z</time>
      </trkpt>
      <trkpt lat="45.83064" lon="-1.23625">
        <ele>-14</ele>
        <time>2021-11-21T08:01:45.000Z</time>
      </trkpt>
      <trkpt lat="45.83083" lon="-1.23632">
        <ele>-14</ele>
        <time>2021-11-21T08:01:50.000Z</time>
      </trkpt>
      <trkpt lat="45.83108" lon="-1.23637">
        <ele>-14</ele>
        <time>2021-11-21T08:01:55.000Z</time>
      </trkpt>
      <trkpt lat="45.83136" lon="-1.23644">
        <ele>-13.800000190735</ele>
        <time>2021-11-21T08:02:00.000Z</time>
      </trkpt>
      <trkpt lat="45.83149" lon="-1.23645">
        <ele>-13.800000190735</ele>
        <time>2021-11-21T08:02:04.000Z</time>
      </trkpt>
      <trkpt lat="45.83171" lon="-1.23652">
        <ele>-13.60000038147</ele>
        <time>2021-11-21T08:02:10.000Z</time>
      </trkpt>
      <trkpt lat="45.83178" lon="-1.23653">
        <ele>-13.60000038147</ele>
        <time>2021-11-21T08:02:11.000Z</time>
      </trkpt>
      <trkpt lat="45.83192" lon="-1.2365">
        <ele>-13.60000038147</ele>
        <time>2021-11-21T08:02:14.000Z</time>
      </trkpt>
      <trkpt lat="45.83218" lon="-1.23652">
        <ele>-13.60000038147</ele>
        <time>2021-11-21T08:02:20.000Z</time>
      </trkpt>
      <trkpt lat="45.83237" lon="-1.2366">
        <ele>-13.39999961853</ele>
        <time>2021-11-21T08:02:24.000Z</time>
      </trkpt>
      <trkpt lat="45.83242" lon="-1.23662">
        <ele>-13.39999961853</ele>
        <time>2021-11-21T08:02:25.000Z</time>
      </trkpt>
      <trkpt lat="45.83262" lon="-1.23667">
        <ele>-13.60000038147</ele>
        <time>2021-11-21T08:02:29.000Z</time>
      </trkpt>
      <trkpt lat="45.83274" lon="-1.23671">
        <ele>-14</ele>
        <time>2021-11-21T08:02:31.000Z</time>
      </trkpt>
      <trkpt lat="45.83286" lon="-1.23675">
        <ele>-14</ele>
        <time>2021-11-21T08:02:33.000Z</time>
      </trkpt>
      <trkpt lat="45.83292" lon="-1.23677">
        <ele>-14</ele>
        <time>2021-11-21T08:02:34.000Z</time>
      </trkpt>
      <trkpt lat="45.83304" lon="-1.23682">
        <ele>-14</ele>
        <time>2021-11-21T08:02:36.000Z</time>
      </trkpt>
      <trkpt lat="45.83317" lon="-1.23684">
        <ele>-14</ele>
        <time>2021-11-21T08:02:39.000Z</time>
      </trkpt>
      <trkpt lat="45.83339" lon="-1.23687">
        <ele>-13.60000038147</ele>
        <time>2021-11-21T08:02:43.000Z</time>
      </trkpt>
      <trkpt lat="45.83346" lon="-1.23687">
        <ele>-13.60000038147</ele>
        <time>2021-11-21T08:02:44.000Z</time>
      </trkpt>
      <trkpt lat="45.83358" lon="-1.23685">
        <ele>-13.39999961853</ele>
        <time>2021-11-21T08:02:46.000Z</time>
      </trkpt>
      <trkpt lat="45.8337" lon="-1.23685">
        <ele>-13.39999961853</ele>
        <time>2021-11-21T08:02:48.000Z</time>
      </trkpt>
      <trkpt lat="45.83375" lon="-1.23683">
        <ele>-13.39999961853</ele>
        <time>2021-11-21T08:02:49.000Z</time>
      </trkpt>
      <trkpt lat="45.83389" lon="-1.2368">
        <ele>-13.60000038147</ele>
        <time>2021-11-21T08:02:51.000Z</time>
      </trkpt>
      <trkpt lat="45.83395" lon="-1.23679">
        <ele>-13.60000038147</ele>
        <time>2021-11-21T08:02:52.000Z</time>
      </trkpt>
      <trkpt lat="45.834" lon="-1.23679">
        <ele>-13.60000038147</ele>
        <time>2021-11-21T08:02:53.000Z</time>
      </trkpt>
      <trkpt lat="45.83426" lon="-1.23681">
        <ele>-13.800000190735</ele>
        <time>2021-11-21T08:02:57.000Z</time>
      </trkpt>
      <trkpt lat="45.83436" lon="-1.23679">
        <ele>-13.800000190735</ele>
        <time>2021-11-21T08:02:59.000Z</time>
      </trkpt>
      <trkpt lat="45.83448" lon="-1.23677">
        <ele>-13.800000190735</ele>
        <time>2021-11-21T08:03:01.000Z</time>
      </trkpt>
      <trkpt lat="45.83453" lon="-1.23677">
        <ele>-13.60000038147</ele>
        <time>2021-11-21T08:03:02.000Z</time>
      </trkpt>
      <trkpt lat="45.83477" lon="-1.23676">
        <ele>-13.60000038147</ele>
        <time>2021-11-21T08:03:07.000Z</time>
      </trkpt>
      <trkpt lat="45.83492" lon="-1.23675">
        <ele>-13.60000038147</ele>
        <time>2021-11-21T08:03:11.000Z</time>
      </trkpt>
      <trkpt lat="45.83497" lon="-1.23677">
        <ele>-13.60000038147</ele>
        <time>2021-11-21T08:03:12.000Z</time>
      </trkpt>
      <trkpt lat="45.83509" lon="-1.23683">
        <ele>-13.60000038147</ele>
        <time>2021-11-21T08:03:14.000Z</time>
      </trkpt>
      <trkpt lat="45.83515" lon="-1.23684">
        <ele>-13.39999961853</ele>
        <time>2021-11-21T08:03:15.000Z</time>
      </trkpt>
      <trkpt lat="45.83526" lon="-1.23685">
        <ele>-13.199999809265</ele>
        <time>2021-11-21T08:03:17.000Z</time>
      </trkpt>
      <trkpt lat="45.83532" lon="-1.23685">
        <ele>-13.199999809265</ele>
        <time>2021-11-21T08:03:18.000Z</time>
      </trkpt>
      <trkpt lat="45.83537" lon="-1.23685">
        <ele>-13.199999809265</ele>
        <time>2021-11-21T08:03:19.000Z</time>
      </trkpt>
      <trkpt lat="45.83549" lon="-1.23688">
        <ele>-13</ele>
        <time>2021-11-21T08:03:21.000Z</time>
      </trkpt>
      <trkpt lat="45.83554" lon="-1.23691">
        <ele>-13</ele>
        <time>2021-11-21T08:03:22.000Z</time>
      </trkpt>
      <trkpt lat="45.83595" lon="-1.2371">
        <ele>-14</ele>
        <time>2021-11-21T08:03:29.000Z</time>
      </trkpt>
      <trkpt lat="45.83602" lon="-1.23712">
        <ele>-14</ele>
        <time>2021-11-21T08:03:30.000Z</time>
      </trkpt>
      <trkpt lat="45.83624" lon="-1.23719">
        <ele>-14</ele>
        <time>2021-11-21T08:03:34.000Z</time>
      </trkpt>
      <trkpt lat="45.83636" lon="-1.23725">
        <ele>-14</ele>
        <time>2021-11-21T08:03:36.000Z</time>
      </trkpt>
      <trkpt lat="45.83647" lon="-1.23731">
        <ele>-13.800000190735</ele>
        <time>2021-11-21T08:03:38.000Z</time>
      </trkpt>
      <trkpt lat="45.83653" lon="-1.23736">
        <ele>-13.60000038147</ele>
        <time>2021-11-21T08:03:39.000Z</time>
      </trkpt>
      <trkpt lat="45.83675" lon="-1.23755">
        <ele>-13.199999809265</ele>
        <time>2021-11-21T08:03:43.000Z</time>
      </trkpt>
      <trkpt lat="45.83684" lon="-1.2376">
        <ele>-13.199999809265</ele>
        <time>2021-11-21T08:03:45.000Z</time>
      </trkpt>
      <trkpt lat="45.83694" lon="-1.23762">
        <ele>-13.39999961853</ele>
        <time>2021-11-21T08:03:47.000Z</time>
      </trkpt>
      <trkpt lat="45.8371" lon="-1.23765">
        <ele>-13.199999809265</ele>
        <time>2021-11-21T08:03:50.000Z</time>
      </trkpt>
      <trkpt lat="45.8373" lon="-1.23771">
        <ele>-13.60000038147</ele>
        <time>2021-11-21T08:03:54.000Z</time>
      </trkpt>
      <trkpt lat="45.83735" lon="-1.23771">
        <ele>-13.60000038147</ele>
        <time>2021-11-21T08:03:55.000Z</time>
      </trkpt>
      <trkpt lat="45.83749" lon="-1.23768">
        <ele>-13.39999961853</ele>
        <time>2021-11-21T08:03:58.000Z</time>
      </trkpt>
      <trkpt lat="45.83761" lon="-1.2377">
        <ele>-13.39999961853</ele>
        <time>2021-11-21T08:04:00.000Z</time>
      </trkpt>
      <trkpt lat="45.83771" lon="-1.23774">
        <ele>-13.39999961853</ele>
        <time>2021-11-21T08:04:02.000Z</time>
      </trkpt>
      <trkpt lat="45.83781" lon="-1.23779">
        <ele>-13.39999961853</ele>
        <time>2021-11-21T08:04:04.000Z</time>
      </trkpt>
      <trkpt lat="45.83803" lon="-1.23788">
        <ele>-12.800000190735</ele>
        <time>2021-11-21T08:04:08.000Z</time>
      </trkpt>
      <trkpt lat="45.83809" lon="-1.23788">
        <ele>-12.800000190735</ele>
        <time>2021-11-21T08:04:09.000Z</time>
      </trkpt>
      <trkpt lat="45.83815" lon="-1.23788">
        <ele>-12.800000190735</ele>
        <time>2021-11-21T08:04:10.000Z</time>
      </trkpt>
      <trkpt lat="45.83831" lon="-1.23796">
        <ele>-13</ele>
        <time>2021-11-21T08:04:13.000Z</time>
      </trkpt>
      <trkpt lat="45.83849" lon="-1.23805">
        <ele>-13</ele>
        <time>2021-11-21T08:04:16.000Z</time>
      </trkpt>
      <trkpt lat="45.83873" lon="-1.23811">
        <ele>-13.39999961853</ele>
        <time>2021-11-21T08:04:20.000Z</time>
      </trkpt>
      <trkpt lat="45.83879" lon="-1.23812">
        <ele>-13.39999961853</ele>
        <time>2021-11-21T08:04:21.000Z</time>
      </trkpt>
      <trkpt lat="45.83886" lon="-1.23814">
        <ele>-13.800000190735</ele>
        <time>2021-11-21T08:04:22.000Z</time>
      </trkpt>
      <trkpt lat="45.83898" lon="-1.23817">
        <ele>-13.800000190735</ele>
        <time>2021-11-21T08:04:24.000Z</time>
      </trkpt>
      <trkpt lat="45.83909" lon="-1.23821">
        <ele>-14.199999809265</ele>
        <time>2021-11-21T08:04:26.000Z</time>
      </trkpt>
      <trkpt lat="45.83924" lon="-1.23829">
        <ele>-14.39999961853</ele>
        <time>2021-11-21T08:04:29.000Z</time>
      </trkpt>
      <trkpt lat="45.83934" lon="-1.23833">
        <ele>-14.39999961853</ele>
        <time>2021-11-21T08:04:31.000Z</time>
      </trkpt>
      <trkpt lat="45.83951" lon="-1.2384">
        <ele>-14.39999961853</ele>
        <time>2021-11-21T08:04:34.000Z</time>
      </trkpt>
      <trkpt lat="45.8396" lon="-1.23846">
        <ele>-14.199999809265</ele>
        <time>2021-11-21T08:04:36.000Z</time>
      </trkpt>
      <trkpt lat="45.83981" lon="-1.23855">
        <ele>-13.800000190735</ele>
        <time>2021-11-21T08:04:40.000Z</time>
      </trkpt>
      <trkpt lat="45.83995" lon="-1.23862">
        <ele>-13.39999961853</ele>
        <time>2021-11-21T08:04:43.000Z</time>
      </trkpt>
      <trkpt lat="45.84006" lon="-1.23864">
        <ele>-13</ele>
        <time>2021-11-21T08:04:45.000Z</time>
      </trkpt>
      <trkpt lat="45.84012" lon="-1.23863">
        <ele>-13</ele>
        <time>2021-11-21T08:04:46.000Z</time>
      </trkpt>
      <trkpt lat="45.84028" lon="-1.23857">
        <ele>-13.39999961853</ele>
        <time>2021-11-21T08:04:49.000Z</time>
      </trkpt>
      <trkpt lat="45.84044" lon="-1.23854">
        <ele>-13.39999961853</ele>
        <time>2021-11-21T08:04:52.000Z</time>
      </trkpt>
      <trkpt lat="45.84072" lon="-1.23861">
        <ele>-13.60000038147</ele>
        <time>2021-11-21T08:04:57.000Z</time>
      </trkpt>
      <trkpt lat="45.84101" lon="-1.23872">
        <ele>-13.800000190735</ele>
        <time>2021-11-21T08:05:02.000Z</time>
      </trkpt>
      <trkpt lat="45.84112" lon="-1.23877">
        <ele>-14</ele>
        <time>2021-11-21T08:05:04.000Z</time>
      </trkpt>
      <trkpt lat="45.84131" lon="-1.23883">
        <ele>-14</ele>
        <time>2021-11-21T08:05:08.000Z</time>
      </trkpt>
      <trkpt lat="45.84135" lon="-1.23883">
        <ele>-14</ele>
        <time>2021-11-21T08:05:09.000Z</time>
      </trkpt>
      <trkpt lat="45.84137" lon="-1.23883">
        <ele>-14</ele>
        <time>2021-11-21T08:05:10.000Z</time>
      </trkpt>
      <trkpt lat="45.84138" lon="-1.23878">
        <ele>-14</ele>
        <time>2021-11-21T08:05:12.000Z</time>
      </trkpt>
      <trkpt lat="45.84132" lon="-1.2385">
        <ele>-13.800000190735</ele>
        <time>2021-11-21T08:05:17.000Z</time>
      </trkpt>
      <trkpt lat="45.8413" lon="-1.23842">
        <ele>-13.800000190735</ele>
        <time>2021-11-21T08:05:18.000Z</time>
      </trkpt>
      <trkpt lat="45.84128" lon="-1.23828">
        <ele>-13.800000190735</ele>
        <time>2021-11-21T08:05:20.000Z</time>
      </trkpt>
      <trkpt lat="45.8413" lon="-1.23806">
        <ele>-13.800000190735</ele>
        <time>2021-11-21T08:05:23.000Z</time>
      </trkpt>
      <trkpt lat="45.84129" lon="-1.238">
        <ele>-13.800000190735</ele>
        <time>2021-11-21T08:05:24.000Z</time>
      </trkpt>
      <trkpt lat="45.84128" lon="-1.23787">
        <ele>-14</ele>
        <time>2021-11-21T08:05:26.000Z</time>
      </trkpt>
      <trkpt lat="45.84129" lon="-1.2378">
        <ele>-14</ele>
        <time>2021-11-21T08:05:27.000Z</time>
      </trkpt>
      <trkpt lat="45.84131" lon="-1.23772">
        <ele>-14</ele>
        <time>2021-11-21T08:05:28.000Z</time>
      </trkpt>
      <trkpt lat="45.84136" lon="-1.23752">
        <ele>-13.60000038147</ele>
        <time>2021-11-21T08:05:31.000Z</time>
      </trkpt>
      <trkpt lat="45.84137" lon="-1.23745">
        <ele>-13.60000038147</ele>
        <time>2021-11-21T08:05:32.000Z</time>
      </trkpt>
      <trkpt lat="45.84138" lon="-1.23731">
        <ele>-13.39999961853</ele>
        <time>2021-11-21T08:05:34.000Z</time>
      </trkpt>
      <trkpt lat="45.84137" lon="-1.23725">
        <ele>-13.39999961853</ele>
        <time>2021-11-21T08:05:35.000Z</time>
      </trkpt>
      <trkpt lat="45.84136" lon="-1.23715">
        <ele>-13.60000038147</ele>
        <time>2021-11-21T08:05:37.000Z</time>
      </trkpt>
      <trkpt lat="45.84137" lon="-1.23711">
        <ele>-13.800000190735</ele>
        <time>2021-11-21T08:05:38.000Z</time>
      </trkpt>
      <trkpt lat="45.84143" lon="-1.23685">
        <ele>-14</ele>
        <time>2021-11-21T08:05:43.000Z</time>
      </trkpt>
      <trkpt lat="45.84146" lon="-1.23679">
        <ele>-14</ele>
        <time>2021-11-21T08:05:44.000Z</time>
      </trkpt>
      <trkpt lat="45.84151" lon="-1.23667">
        <ele>-14.199999809265</ele>
        <time>2021-11-21T08:05:46.000Z</time>
      </trkpt>
      <trkpt lat="45.84155" lon="-1.23663">
        <ele>-14.199999809265</ele>
        <time>2021-11-21T08:05:47.000Z</time>
      </trkpt>
      <trkpt lat="45.84169" lon="-1.23656">
        <ele>-14.199999809265</ele>
        <time>2021-11-21T08:05:51.000Z</time>
      </trkpt>
      <trkpt lat="45.84176" lon="-1.23654">
        <ele>-14.199999809265</ele>
        <time>2021-11-21T08:05:53.000Z</time>
      </trkpt>
      <trkpt lat="45.84182" lon="-1.23647">
        <ele>-14.199999809265</ele>
        <time>2021-11-21T08:05:55.000Z</time>
      </trkpt>
      <trkpt lat="45.84193" lon="-1.2362">
        <ele>-13.800000190735</ele>
        <time>2021-11-21T08:06:00.000Z</time>
      </trkpt>
      <trkpt lat="45.84198" lon="-1.23595">
        <ele>-13.39999961853</ele>
        <time>2021-11-21T08:06:04.000Z</time>
      </trkpt>
      <trkpt lat="45.84201" lon="-1.2357">
        <ele>-13.39999961853</ele>
        <time>2021-11-21T08:06:07.000Z</time>
      </trkpt>
      <trkpt lat="45.84206" lon="-1.23556">
        <ele>-13.39999961853</ele>
        <time>2021-11-21T08:06:09.000Z</time>
      </trkpt>
      <trkpt lat="45.84213" lon="-1.23533">
        <ele>-13.60000038147</ele>
        <time>2021-11-21T08:06:13.000Z</time>
      </trkpt>
      <trkpt lat="45.84213" lon="-1.23512">
        <ele>-13.199999809265</ele>
        <time>2021-11-21T08:06:16.000Z</time>
      </trkpt>
      <trkpt lat="45.84212" lon="-1.23496">
        <ele>-13</ele>
        <time>2021-11-21T08:06:18.000Z</time>
      </trkpt>
      <trkpt lat="45.84215" lon="-1.23451">
        <ele>-12.60000038147</ele>
        <time>2021-11-21T08:06:24.000Z</time>
      </trkpt>
      <trkpt lat="45.84215" lon="-1.23424">
        <ele>-12.60000038147</ele>
        <time>2021-11-21T08:06:28.000Z</time>
      </trkpt>
      <trkpt lat="45.84213" lon="-1.23412">
        <ele>-12.60000038147</ele>
        <time>2021-11-21T08:06:29.000Z</time>
      </trkpt>
      <trkpt lat="45.84213" lon="-1.23394">
        <ele>-12.39999961853</ele>
        <time>2021-11-21T08:06:31.000Z</time>
      </trkpt>
      <trkpt lat="45.84211" lon="-1.23387">
        <ele>-12.199999809265</ele>
        <time>2021-11-21T08:06:32.000Z</time>
      </trkpt>
      <trkpt lat="45.8421" lon="-1.23381">
        <ele>-12.39999961853</ele>
        <time>2021-11-21T08:06:33.000Z</time>
      </trkpt>
      <trkpt lat="45.84205" lon="-1.23366">
        <ele>-12.199999809265</ele>
        <time>2021-11-21T08:06:36.000Z</time>
      </trkpt>
      <trkpt lat="45.84203" lon="-1.2336">
        <ele>-12.199999809265</ele>
        <time>2021-11-21T08:06:37.000Z</time>
      </trkpt>
      <trkpt lat="45.84203" lon="-1.2335">
        <ele>-12</ele>
        <time>2021-11-21T08:06:39.000Z</time>
      </trkpt>
      <trkpt lat="45.84204" lon="-1.23343">
        <ele>-12</ele>
        <time>2021-11-21T08:06:41.000Z</time>
      </trkpt>
      <trkpt lat="45.84213" lon="-1.23311">
        <ele>-11.39999961853</ele>
        <time>2021-11-21T08:06:47.000Z</time>
      </trkpt>
      <trkpt lat="45.84222" lon="-1.23303">
        <ele>-11.39999961853</ele>
        <time>2021-11-21T08:06:49.000Z</time>
      </trkpt>
      <trkpt lat="45.84228" lon="-1.23297">
        <ele>-11.199999809265</ele>
        <time>2021-11-21T08:06:50.000Z</time>
      </trkpt>
      <trkpt lat="45.84231" lon="-1.2329">
        <ele>-11.199999809265</ele>
        <time>2021-11-21T08:06:51.000Z</time>
      </trkpt>
      <trkpt lat="45.84233" lon="-1.23285">
        <ele>-11</ele>
        <time>2021-11-21T08:06:52.000Z</time>
      </trkpt>
      <trkpt lat="45.84236" lon="-1.23279">
        <ele>-11</ele>
        <time>2021-11-21T08:06:53.000Z</time>
      </trkpt>
      <trkpt lat="45.84238" lon="-1.23273">
        <ele>-10.800000190735</ele>
        <time>2021-11-21T08:06:54.000Z</time>
      </trkpt>
      <trkpt lat="45.84244" lon="-1.23259">
        <ele>-10.39999961853</ele>
        <time>2021-11-21T08:06:56.000Z</time>
      </trkpt>
      <trkpt lat="45.8425" lon="-1.23238">
        <ele>-10</ele>
        <time>2021-11-21T08:06:59.000Z</time>
      </trkpt>
      <trkpt lat="45.84255" lon="-1.23208">
        <ele>-9.6000003814697</ele>
        <time>2021-11-21T08:07:04.000Z</time>
      </trkpt>
      <trkpt lat="45.84258" lon="-1.23187">
        <ele>-9.1999998092651</ele>
        <time>2021-11-21T08:07:07.000Z</time>
      </trkpt>
      <trkpt lat="45.84262" lon="-1.23177">
        <ele>-9.1999998092651</ele>
        <time>2021-11-21T08:07:08.000Z</time>
      </trkpt>
      <trkpt lat="45.8427" lon="-1.23161">
        <ele>-9.1999998092651</ele>
        <time>2021-11-21T08:07:10.000Z</time>
      </trkpt>
      <trkpt lat="45.84269" lon="-1.23143">
        <ele>-9.1999998092651</ele>
        <time>2021-11-21T08:07:12.000Z</time>
      </trkpt>
      <trkpt lat="45.84269" lon="-1.23124">
        <ele>-9.1999998092651</ele>
        <time>2021-11-21T08:07:15.000Z</time>
      </trkpt>
      <trkpt lat="45.8427" lon="-1.23122">
        <ele>-9.1999998092651</ele>
        <time>2021-11-21T08:07:16.000Z</time>
      </trkpt>
      <trkpt lat="45.84277" lon="-1.2312">
        <ele>-9.1999998092651</ele>
        <time>2021-11-21T08:07:18.000Z</time>
      </trkpt>
      <trkpt lat="45.84285" lon="-1.23124">
        <ele>-9.3999996185303</ele>
        <time>2021-11-21T08:07:20.000Z</time>
      </trkpt>
      <trkpt lat="45.843" lon="-1.23128">
        <ele>-9.3999996185303</ele>
        <time>2021-11-21T08:07:24.000Z</time>
      </trkpt>
      <trkpt lat="45.84321" lon="-1.2313">
        <ele>-9.3999996185303</ele>
        <time>2021-11-21T08:07:28.000Z</time>
      </trkpt>
      <trkpt lat="45.84327" lon="-1.23132">
        <ele>-9.3999996185303</ele>
        <time>2021-11-21T08:07:29.000Z</time>
      </trkpt>
      <trkpt lat="45.84344" lon="-1.23137">
        <ele>-9.3999996185303</ele>
        <time>2021-11-21T08:07:32.000Z</time>
      </trkpt>
      <trkpt lat="45.8437" lon="-1.23146">
        <ele>-9.6000003814697</ele>
        <time>2021-11-21T08:07:36.000Z</time>
      </trkpt>
      <trkpt lat="45.84377" lon="-1.23147">
        <ele>-9.6000003814697</ele>
        <time>2021-11-21T08:07:37.000Z</time>
      </trkpt>
      <trkpt lat="45.84427" lon="-1.23159">
        <ele>-9.8000001907349</ele>
        <time>2021-11-21T08:07:45.000Z</time>
      </trkpt>
      <trkpt lat="45.84468" lon="-1.23167">
        <ele>-10</ele>
        <time>2021-11-21T08:07:51.000Z</time>
      </trkpt>
      <trkpt lat="45.8448" lon="-1.23171">
        <ele>-9.8000001907349</ele>
        <time>2021-11-21T08:07:53.000Z</time>
      </trkpt>
      <trkpt lat="45.84536" lon="-1.23187">
        <ele>-10.199999809265</ele>
        <time>2021-11-21T08:08:01.000Z</time>
      </trkpt>
      <trkpt lat="45.84548" lon="-1.23188">
        <ele>-10</ele>
        <time>2021-11-21T08:08:03.000Z</time>
      </trkpt>
      <trkpt lat="45.84582" lon="-1.23197">
        <ele>-10.199999809265</ele>
        <time>2021-11-21T08:08:08.000Z</time>
      </trkpt>
      <trkpt lat="45.84628" lon="-1.23207">
        <ele>-10.199999809265</ele>
        <time>2021-11-21T08:08:15.000Z</time>
      </trkpt>
      <trkpt lat="45.84659" lon="-1.23217">
        <ele>-10.39999961853</ele>
        <time>2021-11-21T08:08:19.000Z</time>
      </trkpt>
      <trkpt lat="45.84666" lon="-1.23217">
        <ele>-10.39999961853</ele>
        <time>2021-11-21T08:08:20.000Z</time>
      </trkpt>
      <trkpt lat="45.84687" lon="-1.23219">
        <ele>-10.800000190735</ele>
        <time>2021-11-21T08:08:23.000Z</time>
      </trkpt>
      <trkpt lat="45.84702" lon="-1.23223">
        <ele>-10.60000038147</ele>
        <time>2021-11-21T08:08:25.000Z</time>
      </trkpt>
      <trkpt lat="45.84731" lon="-1.23232">
        <ele>-10.60000038147</ele>
        <time>2021-11-21T08:08:30.000Z</time>
      </trkpt>
      <trkpt lat="45.8477" lon="-1.23241">
        <ele>-10.60000038147</ele>
        <time>2021-11-21T08:08:36.000Z</time>
      </trkpt>
      <trkpt lat="45.84828" lon="-1.23258">
        <ele>-11.39999961853</ele>
        <time>2021-11-21T08:08:44.000Z</time>
      </trkpt>
      <trkpt lat="45.84835" lon="-1.2326">
        <ele>-11.39999961853</ele>
        <time>2021-11-21T08:08:45.000Z</time>
      </trkpt>
      <trkpt lat="45.84861" lon="-1.23264">
        <ele>-11.39999961853</ele>
        <time>2021-11-21T08:08:49.000Z</time>
      </trkpt>
      <trkpt lat="45.84902" lon="-1.23276">
        <ele>-11.800000190735</ele>
        <time>2021-11-21T08:08:55.000Z</time>
      </trkpt>
      <trkpt lat="45.84953" lon="-1.23287">
        <ele>-11.800000190735</ele>
        <time>2021-11-21T08:09:03.000Z</time>
      </trkpt>
      <trkpt lat="45.84987" lon="-1.23295">
        <ele>-11.39999961853</ele>
        <time>2021-11-21T08:09:09.000Z</time>
      </trkpt>
      <trkpt lat="45.85024" lon="-1.23304">
        <ele>-10.800000190735</ele>
        <time>2021-11-21T08:09:16.000Z</time>
      </trkpt>
      <trkpt lat="45.85064" lon="-1.23314">
        <ele>-10.60000038147</ele>
        <time>2021-11-21T08:09:22.000Z</time>
      </trkpt>
      <trkpt lat="45.85093" lon="-1.23321">
        <ele>-10.60000038147</ele>
        <time>2021-11-21T08:09:27.000Z</time>
      </trkpt>
      <trkpt lat="45.85135" lon="-1.23331">
        <ele>-10.60000038147</ele>
        <time>2021-11-21T08:09:34.000Z</time>
      </trkpt>
      <trkpt lat="45.85149" lon="-1.23334">
        <ele>-10.199999809265</ele>
        <time>2021-11-21T08:09:36.000Z</time>
      </trkpt>
      <trkpt lat="45.85174" lon="-1.23341">
        <ele>-10.199999809265</ele>
        <time>2021-11-21T08:09:40.000Z</time>
      </trkpt>
      <trkpt lat="45.85203" lon="-1.23348">
        <ele>-10</ele>
        <time>2021-11-21T08:09:45.000Z</time>
      </trkpt>
      <trkpt lat="45.85238" lon="-1.23356">
        <ele>-9.6000003814697</ele>
        <time>2021-11-21T08:09:50.000Z</time>
      </trkpt>
      <trkpt lat="45.85267" lon="-1.23363">
        <ele>-9.6000003814697</ele>
        <time>2021-11-21T08:09:55.000Z</time>
      </trkpt>
      <trkpt lat="45.85278" lon="-1.23368">
        <ele>-9.3999996185303</ele>
        <time>2021-11-21T08:09:57.000Z</time>
      </trkpt>
      <trkpt lat="45.85287" lon="-1.23379">
        <ele>-9.6000003814697</ele>
        <time>2021-11-21T08:09:59.000Z</time>
      </trkpt>
      <trkpt lat="45.85294" lon="-1.23395">
        <ele>-9.3999996185303</ele>
        <time>2021-11-21T08:10:01.000Z</time>
      </trkpt>
      <trkpt lat="45.853" lon="-1.23412">
        <ele>-9.3999996185303</ele>
        <time>2021-11-21T08:10:03.000Z</time>
      </trkpt>
      <trkpt lat="45.8531" lon="-1.23439">
        <ele>-9</ele>
        <time>2021-11-21T08:10:06.000Z</time>
      </trkpt>
      <trkpt lat="45.85318" lon="-1.23456">
        <ele>-8.8000001907349</ele>
        <time>2021-11-21T08:10:08.000Z</time>
      </trkpt>
      <trkpt lat="45.85334" lon="-1.23499">
        <ele>-8.6000003814697</ele>
        <time>2021-11-21T08:10:13.000Z</time>
      </trkpt>
      <trkpt lat="45.85358" lon="-1.23557">
        <ele>-8.6000003814697</ele>
        <time>2021-11-21T08:10:20.000Z</time>
      </trkpt>
      <trkpt lat="45.85363" lon="-1.23563">
        <ele>-8.6000003814697</ele>
        <time>2021-11-21T08:10:21.000Z</time>
      </trkpt>
      <trkpt lat="45.85368" lon="-1.23569">
        <ele>-8.6000003814697</ele>
        <time>2021-11-21T08:10:22.000Z</time>
      </trkpt>
      <trkpt lat="45.85381" lon="-1.23577">
        <ele>-8.6000003814697</ele>
        <time>2021-11-21T08:10:24.000Z</time>
      </trkpt>
      <trkpt lat="45.85394" lon="-1.23584">
        <ele>-8.6000003814697</ele>
        <time>2021-11-21T08:10:26.000Z</time>
      </trkpt>
      <trkpt lat="45.85405" lon="-1.23594">
        <ele>-8.6000003814697</ele>
        <time>2021-11-21T08:10:28.000Z</time>
      </trkpt>
      <trkpt lat="45.85435" lon="-1.23628">
        <ele>-8.6000003814697</ele>
        <time>2021-11-21T08:10:34.000Z</time>
      </trkpt>
      <trkpt lat="45.8544" lon="-1.23633">
        <ele>-8.6000003814697</ele>
        <time>2021-11-21T08:10:35.000Z</time>
      </trkpt>
      <trkpt lat="45.85449" lon="-1.23643">
        <ele>-8.3999996185303</ele>
        <time>2021-11-21T08:10:37.000Z</time>
      </trkpt>
      <trkpt lat="45.85453" lon="-1.23648">
        <ele>-8.3999996185303</ele>
        <time>2021-11-21T08:10:38.000Z</time>
      </trkpt>
      <trkpt lat="45.8547" lon="-1.23664">
        <ele>-8.1999998092651</ele>
        <time>2021-11-21T08:10:41.000Z</time>
      </trkpt>
      <trkpt lat="45.85496" lon="-1.23694">
        <ele>-8</ele>
        <time>2021-11-21T08:10:45.000Z</time>
      </trkpt>
      <trkpt lat="45.85542" lon="-1.23748">
        <ele>-8</ele>
        <time>2021-11-21T08:10:52.000Z</time>
      </trkpt>
      <trkpt lat="45.85586" lon="-1.23799">
        <ele>-9</ele>
        <time>2021-11-21T08:10:59.000Z</time>
      </trkpt>
      <trkpt lat="45.85608" lon="-1.23824">
        <ele>-9.6000003814697</ele>
        <time>2021-11-21T08:11:03.000Z</time>
      </trkpt>
      <trkpt lat="45.85613" lon="-1.23829">
        <ele>-9.6000003814697</ele>
        <time>2021-11-21T08:11:04.000Z</time>
      </trkpt>
      <trkpt lat="45.85642" lon="-1.23865">
        <ele>-9.3999996185303</ele>
        <time>2021-11-21T08:11:11.000Z</time>
      </trkpt>
      <trkpt lat="45.85669" lon="-1.23896">
        <ele>-8.8000001907349</ele>
        <time>2021-11-21T08:11:16.000Z</time>
      </trkpt>
      <trkpt lat="45.85691" lon="-1.23922">
        <ele>-8.6000003814697</ele>
        <time>2021-11-21T08:11:20.000Z</time>
      </trkpt>
      <trkpt lat="45.85697" lon="-1.23928">
        <ele>-8.6000003814697</ele>
        <time>2021-11-21T08:11:21.000Z</time>
      </trkpt>
      <trkpt lat="45.85729" lon="-1.23966">
        <ele>-8.8000001907349</ele>
        <time>2021-11-21T08:11:26.000Z</time>
      </trkpt>
      <trkpt lat="45.85754" lon="-1.23993">
        <ele>-9.1999998092651</ele>
        <time>2021-11-21T08:11:30.000Z</time>
      </trkpt>
      <trkpt lat="45.85765" lon="-1.24007">
        <ele>-9.1999998092651</ele>
        <time>2021-11-21T08:11:32.000Z</time>
      </trkpt>
      <trkpt lat="45.858" lon="-1.24043">
        <ele>-9.1999998092651</ele>
        <time>2021-11-21T08:11:37.000Z</time>
      </trkpt>
      <trkpt lat="45.85839" lon="-1.24088">
        <ele>-9.1999998092651</ele>
        <time>2021-11-21T08:11:44.000Z</time>
      </trkpt>
      <trkpt lat="45.85879" lon="-1.24133">
        <ele>-9.6000003814697</ele>
        <time>2021-11-21T08:11:51.000Z</time>
      </trkpt>
      <trkpt lat="45.85883" lon="-1.24137">
        <ele>-9.6000003814697</ele>
        <time>2021-11-21T08:11:52.000Z</time>
      </trkpt>
      <trkpt lat="45.85891" lon="-1.24144">
        <ele>-9.6000003814697</ele>
        <time>2021-11-21T08:11:54.000Z</time>
      </trkpt>
      <trkpt lat="45.85907" lon="-1.24162">
        <ele>-9.6000003814697</ele>
        <time>2021-11-21T08:11:59.000Z</time>
      </trkpt>
      <trkpt lat="45.85926" lon="-1.24189">
        <ele>-9.6000003814697</ele>
        <time>2021-11-21T08:12:04.000Z</time>
      </trkpt>
      <trkpt lat="45.85931" lon="-1.24195">
        <ele>-9.6000003814697</ele>
        <time>2021-11-21T08:12:05.000Z</time>
      </trkpt>
      <trkpt lat="45.85946" lon="-1.24211">
        <ele>-9.6000003814697</ele>
        <time>2021-11-21T08:12:08.000Z</time>
      </trkpt>
      <trkpt lat="45.85956" lon="-1.24221">
        <ele>-9.6000003814697</ele>
        <time>2021-11-21T08:12:10.000Z</time>
      </trkpt>
      <trkpt lat="45.8599" lon="-1.2426">
        <ele>-9.8000001907349</ele>
        <time>2021-11-21T08:12:16.000Z</time>
      </trkpt>
      <trkpt lat="45.85995" lon="-1.24266">
        <ele>-9.8000001907349</ele>
        <time>2021-11-21T08:12:17.000Z</time>
      </trkpt>
      <trkpt lat="45.86024" lon="-1.24297">
        <ele>-10.199999809265</ele>
        <time>2021-11-21T08:12:23.000Z</time>
      </trkpt>
      <trkpt lat="45.86032" lon="-1.2431">
        <ele>-10.199999809265</ele>
        <time>2021-11-21T08:12:25.000Z</time>
      </trkpt>
      <trkpt lat="45.86035" lon="-1.2432">
        <ele>-10.39999961853</ele>
        <time>2021-11-21T08:12:26.000Z</time>
      </trkpt>
      <trkpt lat="45.86035" lon="-1.24329">
        <ele>-10.39999961853</ele>
        <time>2021-11-21T08:12:27.000Z</time>
      </trkpt>
      <trkpt lat="45.86032" lon="-1.24346">
        <ele>-10.39999961853</ele>
        <time>2021-11-21T08:12:29.000Z</time>
      </trkpt>
      <trkpt lat="45.86017" lon="-1.24408">
        <ele>-10</ele>
        <time>2021-11-21T08:12:36.000Z</time>
      </trkpt>
      <trkpt lat="45.86005" lon="-1.24444">
        <ele>-9.8000001907349</ele>
        <time>2021-11-21T08:12:40.000Z</time>
      </trkpt>
      <trkpt lat="45.86001" lon="-1.24451">
        <ele>-10</ele>
        <time>2021-11-21T08:12:41.000Z</time>
      </trkpt>
      <trkpt lat="45.85996" lon="-1.24462">
        <ele>-10</ele>
        <time>2021-11-21T08:12:43.000Z</time>
      </trkpt>
      <trkpt lat="45.8599" lon="-1.24478">
        <ele>-10</ele>
        <time>2021-11-21T08:12:45.000Z</time>
      </trkpt>
      <trkpt lat="45.85985" lon="-1.24493">
        <ele>-10</ele>
        <time>2021-11-21T08:12:47.000Z</time>
      </trkpt>
      <trkpt lat="45.8598" lon="-1.24509">
        <ele>-10</ele>
        <time>2021-11-21T08:12:49.000Z</time>
      </trkpt>
      <trkpt lat="45.85975" lon="-1.24532">
        <ele>-10</ele>
        <time>2021-11-21T08:12:52.000Z</time>
      </trkpt>
      <trkpt lat="45.85974" lon="-1.24541">
        <ele>-10</ele>
        <time>2021-11-21T08:12:53.000Z</time>
      </trkpt>
      <trkpt lat="45.85975" lon="-1.24547">
        <ele>-10</ele>
        <time>2021-11-21T08:12:54.000Z</time>
      </trkpt>
      <trkpt lat="45.85981" lon="-1.24555">
        <ele>-10.199999809265</ele>
        <time>2021-11-21T08:12:56.000Z</time>
      </trkpt>
      <trkpt lat="45.85996" lon="-1.24588">
        <ele>-10.800000190735</ele>
        <time>2021-11-21T08:13:02.000Z</time>
      </trkpt>
      <trkpt lat="45.86005" lon="-1.24609">
        <ele>-10.800000190735</ele>
        <time>2021-11-21T08:13:05.000Z</time>
      </trkpt>
      <trkpt lat="45.8601" lon="-1.24625">
        <ele>-10.800000190735</ele>
        <time>2021-11-21T08:13:07.000Z</time>
      </trkpt>
      <trkpt lat="45.86015" lon="-1.24641">
        <ele>-11</ele>
        <time>2021-11-21T08:13:09.000Z</time>
      </trkpt>
      <trkpt lat="45.86021" lon="-1.24657">
        <ele>-11.199999809265</ele>
        <time>2021-11-21T08:13:11.000Z</time>
      </trkpt>
      <trkpt lat="45.86031" lon="-1.2468">
        <ele>-11.800000190735</ele>
        <time>2021-11-21T08:13:14.000Z</time>
      </trkpt>
      <trkpt lat="45.86033" lon="-1.2469">
        <ele>-12</ele>
        <time>2021-11-21T08:13:15.000Z</time>
      </trkpt>
      <trkpt lat="45.86035" lon="-1.24699">
        <ele>-12</ele>
        <time>2021-11-21T08:13:16.000Z</time>
      </trkpt>
      <trkpt lat="45.86046" lon="-1.24737">
        <ele>-12.39999961853</ele>
        <time>2021-11-21T08:13:20.000Z</time>
      </trkpt>
      <trkpt lat="45.86051" lon="-1.24751">
        <ele>-12.39999961853</ele>
        <time>2021-11-21T08:13:22.000Z</time>
      </trkpt>
      <trkpt lat="45.86058" lon="-1.248">
        <ele>-12.39999961853</ele>
        <time>2021-11-21T08:13:27.000Z</time>
      </trkpt>
      <trkpt lat="45.86072" lon="-1.24867">
        <ele>-12.800000190735</ele>
        <time>2021-11-21T08:13:35.000Z</time>
      </trkpt>
      <trkpt lat="45.86079" lon="-1.24894">
        <ele>-12.800000190735</ele>
        <time>2021-11-21T08:13:38.000Z</time>
      </trkpt>
      <trkpt lat="45.86081" lon="-1.24909">
        <ele>-12.800000190735</ele>
        <time>2021-11-21T08:13:40.000Z</time>
      </trkpt>
      <trkpt lat="45.86081" lon="-1.24917">
        <ele>-12.800000190735</ele>
        <time>2021-11-21T08:13:41.000Z</time>
      </trkpt>
      <trkpt lat="45.86081" lon="-1.24925">
        <ele>-12.800000190735</ele>
        <time>2021-11-21T08:13:42.000Z</time>
      </trkpt>
      <trkpt lat="45.86084" lon="-1.24961">
        <ele>-12.800000190735</ele>
        <time>2021-11-21T08:13:46.000Z</time>
      </trkpt>
      <trkpt lat="45.86085" lon="-1.2498">
        <ele>-13</ele>
        <time>2021-11-21T08:13:48.000Z</time>
      </trkpt>
      <trkpt lat="45.86088" lon="-1.24996">
        <ele>-13</ele>
        <time>2021-11-21T08:13:50.000Z</time>
      </trkpt>
      <trkpt lat="45.8609" lon="-1.25005">
        <ele>-12.800000190735</ele>
        <time>2021-11-21T08:13:51.000Z</time>
      </trkpt>
      <trkpt lat="45.86105" lon="-1.2506">
        <ele>-13</ele>
        <time>2021-11-21T08:13:58.000Z</time>
      </trkpt>
      <trkpt lat="45.86109" lon="-1.25076">
        <ele>-12.800000190735</ele>
        <time>2021-11-21T08:14:00.000Z</time>
      </trkpt>
      <trkpt lat="45.86117" lon="-1.25107">
        <ele>-12.800000190735</ele>
        <time>2021-11-21T08:14:04.000Z</time>
      </trkpt>
      <trkpt lat="45.86132" lon="-1.25132">
        <ele>-12.39999961853</ele>
        <time>2021-11-21T08:14:08.000Z</time>
      </trkpt>
      <trkpt lat="45.86136" lon="-1.25138">
        <ele>-12.39999961853</ele>
        <time>2021-11-21T08:14:09.000Z</time>
      </trkpt>
      <trkpt lat="45.86148" lon="-1.25163">
        <ele>-12.199999809265</ele>
        <time>2021-11-21T08:14:13.000Z</time>
      </trkpt>
      <trkpt lat="45.86154" lon="-1.25175">
        <ele>-12.199999809265</ele>
        <time>2021-11-21T08:14:15.000Z</time>
      </trkpt>
      <trkpt lat="45.86164" lon="-1.25185">
        <ele>-12</ele>
        <time>2021-11-21T08:14:17.000Z</time>
      </trkpt>
      <trkpt lat="45.86189" lon="-1.25202">
        <ele>-12</ele>
        <time>2021-11-21T08:14:22.000Z</time>
      </trkpt>
      <trkpt lat="45.86194" lon="-1.25204">
        <ele>-12</ele>
        <time>2021-11-21T08:14:23.000Z</time>
      </trkpt>
      <trkpt lat="45.86203" lon="-1.25208">
        <ele>-11.800000190735</ele>
        <time>2021-11-21T08:14:25.000Z</time>
      </trkpt>
      <trkpt lat="45.86212" lon="-1.25214">
        <ele>-11.800000190735</ele>
        <time>2021-11-21T08:14:27.000Z</time>
      </trkpt>
      <trkpt lat="45.86227" lon="-1.25224">
        <ele>-11.60000038147</ele>
        <time>2021-11-21T08:14:30.000Z</time>
      </trkpt>
      <trkpt lat="45.86237" lon="-1.25229">
        <ele>-11.39999961853</ele>
        <time>2021-11-21T08:14:32.000Z</time>
      </trkpt>
      <trkpt lat="45.86246" lon="-1.25233">
        <ele>-11.199999809265</ele>
        <time>2021-11-21T08:14:34.000Z</time>
      </trkpt>
      <trkpt lat="45.86251" lon="-1.25236">
        <ele>-11</ele>
        <time>2021-11-21T08:14:35.000Z</time>
      </trkpt>
      <trkpt lat="45.86255" lon="-1.25237">
        <ele>-10.800000190735</ele>
        <time>2021-11-21T08:14:36.000Z</time>
      </trkpt>
      <trkpt lat="45.86264" lon="-1.25239">
        <ele>-10.60000038147</ele>
        <time>2021-11-21T08:14:38.000Z</time>
      </trkpt>
      <trkpt lat="45.8627" lon="-1.25243">
        <ele>-10.60000038147</ele>
        <time>2021-11-21T08:14:39.000Z</time>
      </trkpt>
      <trkpt lat="45.86275" lon="-1.25247">
        <ele>-10.60000038147</ele>
        <time>2021-11-21T08:14:40.000Z</time>
      </trkpt>
      <trkpt lat="45.86289" lon="-1.25265">
        <ele>-10.800000190735</ele>
        <time>2021-11-21T08:14:43.000Z</time>
      </trkpt>
      <trkpt lat="45.86299" lon="-1.2527">
        <ele>-10.800000190735</ele>
        <time>2021-11-21T08:14:45.000Z</time>
      </trkpt>
      <trkpt lat="45.86303" lon="-1.25273">
        <ele>-10.800000190735</ele>
        <time>2021-11-21T08:14:46.000Z</time>
      </trkpt>
      <trkpt lat="45.86307" lon="-1.25276">
        <ele>-10.800000190735</ele>
        <time>2021-11-21T08:14:47.000Z</time>
      </trkpt>
      <trkpt lat="45.86317" lon="-1.25281">
        <ele>-10.800000190735</ele>
        <time>2021-11-21T08:14:49.000Z</time>
      </trkpt>
      <trkpt lat="45.86322" lon="-1.25285">
        <ele>-11</ele>
        <time>2021-11-21T08:14:50.000Z</time>
      </trkpt>
      <trkpt lat="45.86334" lon="-1.25292">
        <ele>-11</ele>
        <time>2021-11-21T08:14:52.000Z</time>
      </trkpt>
      <trkpt lat="45.86351" lon="-1.25296">
        <ele>-10.60000038147</ele>
        <time>2021-11-21T08:14:55.000Z</time>
      </trkpt>
      <trkpt lat="45.86365" lon="-1.25299">
        <ele>-10</ele>
        <time>2021-11-21T08:14:58.000Z</time>
      </trkpt>
      <trkpt lat="45.86375" lon="-1.25302">
        <ele>-10</ele>
        <time>2021-11-21T08:15:00.000Z</time>
      </trkpt>
      <trkpt lat="45.86385" lon="-1.25307">
        <ele>-9.8000001907349</ele>
        <time>2021-11-21T08:15:02.000Z</time>
      </trkpt>
      <trkpt lat="45.86401" lon="-1.25321">
        <ele>-9.8000001907349</ele>
        <time>2021-11-21T08:15:05.000Z</time>
      </trkpt>
      <trkpt lat="45.86408" lon="-1.25331">
        <ele>-9.6000003814697</ele>
        <time>2021-11-21T08:15:07.000Z</time>
      </trkpt>
      <trkpt lat="45.86417" lon="-1.25337">
        <ele>-9.3999996185303</ele>
        <time>2021-11-21T08:15:09.000Z</time>
      </trkpt>
      <trkpt lat="45.86433" lon="-1.25337">
        <ele>-9.1999998092651</ele>
        <time>2021-11-21T08:15:13.000Z</time>
      </trkpt>
      <trkpt lat="45.86441" lon="-1.25339">
        <ele>-9</ele>
        <time>2021-11-21T08:15:15.000Z</time>
      </trkpt>
      <trkpt lat="45.8645" lon="-1.25344">
        <ele>-8.8000001907349</ele>
        <time>2021-11-21T08:15:17.000Z</time>
      </trkpt>
      <trkpt lat="45.8646" lon="-1.2535">
        <ele>-8.8000001907349</ele>
        <time>2021-11-21T08:15:19.000Z</time>
      </trkpt>
      <trkpt lat="45.86475" lon="-1.25363">
        <ele>-8.8000001907349</ele>
        <time>2021-11-21T08:15:22.000Z</time>
      </trkpt>
      <trkpt lat="45.86502" lon="-1.25386">
        <ele>-8.8000001907349</ele>
        <time>2021-11-21T08:15:27.000Z</time>
      </trkpt>
      <trkpt lat="45.86506" lon="-1.25393">
        <ele>-9</ele>
        <time>2021-11-21T08:15:28.000Z</time>
      </trkpt>
      <trkpt lat="45.86515" lon="-1.25406">
        <ele>-9</ele>
        <time>2021-11-21T08:15:30.000Z</time>
      </trkpt>
      <trkpt lat="45.86526" lon="-1.25415">
        <ele>-9</ele>
        <time>2021-11-21T08:15:32.000Z</time>
      </trkpt>
      <trkpt lat="45.86532" lon="-1.25418">
        <ele>-9</ele>
        <time>2021-11-21T08:15:33.000Z</time>
      </trkpt>
      <trkpt lat="45.8655" lon="-1.25431">
        <ele>-9.1999998092651</ele>
        <time>2021-11-21T08:15:36.000Z</time>
      </trkpt>
      <trkpt lat="45.86562" lon="-1.25443">
        <ele>-9.3999996185303</ele>
        <time>2021-11-21T08:15:38.000Z</time>
      </trkpt>
      <trkpt lat="45.86576" lon="-1.25449">
        <ele>-9.6000003814697</ele>
        <time>2021-11-21T08:15:40.000Z</time>
      </trkpt>
      <trkpt lat="45.86599" lon="-1.25454">
        <ele>-10</ele>
        <time>2021-11-21T08:15:44.000Z</time>
      </trkpt>
      <trkpt lat="45.86606" lon="-1.25456">
        <ele>-10</ele>
        <time>2021-11-21T08:15:45.000Z</time>
      </trkpt>
      <trkpt lat="45.86623" lon="-1.25458">
        <ele>-10.199999809265</ele>
        <time>2021-11-21T08:15:48.000Z</time>
      </trkpt>
      <trkpt lat="45.8663" lon="-1.25457">
        <ele>-10.199999809265</ele>
        <time>2021-11-21T08:15:49.000Z</time>
      </trkpt>
      <trkpt lat="45.86644" lon="-1.25458">
        <ele>-10.199999809265</ele>
        <time>2021-11-21T08:15:52.000Z</time>
      </trkpt>
      <trkpt lat="45.86651" lon="-1.25462">
        <ele>-10.199999809265</ele>
        <time>2021-11-21T08:15:53.000Z</time>
      </trkpt>
      <trkpt lat="45.86659" lon="-1.25472">
        <ele>-10</ele>
        <time>2021-11-21T08:15:55.000Z</time>
      </trkpt>
      <trkpt lat="45.8667" lon="-1.25484">
        <ele>-9.8000001907349</ele>
        <time>2021-11-21T08:15:57.000Z</time>
      </trkpt>
      <trkpt lat="45.86683" lon="-1.25494">
        <ele>-9.6000003814697</ele>
        <time>2021-11-21T08:16:00.000Z</time>
      </trkpt>
      <trkpt lat="45.86694" lon="-1.255">
        <ele>-9.6000003814697</ele>
        <time>2021-11-21T08:16:02.000Z</time>
      </trkpt>
      <trkpt lat="45.86705" lon="-1.25507">
        <ele>-9.6000003814697</ele>
        <time>2021-11-21T08:16:04.000Z</time>
      </trkpt>
      <trkpt lat="45.86718" lon="-1.25513">
        <ele>-9.3999996185303</ele>
        <time>2021-11-21T08:16:06.000Z</time>
      </trkpt>
      <trkpt lat="45.86721" lon="-1.25515">
        <ele>-9.3999996185303</ele>
        <time>2021-11-21T08:16:07.000Z</time>
      </trkpt>
      <trkpt lat="45.86753" lon="-1.25535">
        <ele>-9.1999998092651</ele>
        <time>2021-11-21T08:16:13.000Z</time>
      </trkpt>
      <trkpt lat="45.86775" lon="-1.25549">
        <ele>-9.1999998092651</ele>
        <time>2021-11-21T08:16:17.000Z</time>
      </trkpt>
      <trkpt lat="45.86781" lon="-1.25552">
        <ele>-9</ele>
        <time>2021-11-21T08:16:18.000Z</time>
      </trkpt>
      <trkpt lat="45.86791" lon="-1.25558">
        <ele>-9</ele>
        <time>2021-11-21T08:16:20.000Z</time>
      </trkpt>
      <trkpt lat="45.86799" lon="-1.25562">
        <ele>-9</ele>
        <time>2021-11-21T08:16:22.000Z</time>
      </trkpt>
      <trkpt lat="45.86803" lon="-1.25565">
        <ele>-8.8000001907349</ele>
        <time>2021-11-21T08:16:23.000Z</time>
      </trkpt>
      <trkpt lat="45.86832" lon="-1.25578">
        <ele>-8.6000003814697</ele>
        <time>2021-11-21T08:16:28.000Z</time>
      </trkpt>
      <trkpt lat="45.86861" lon="-1.25591">
        <ele>-8.6000003814697</ele>
        <time>2021-11-21T08:16:33.000Z</time>
      </trkpt>
      <trkpt lat="45.86872" lon="-1.25595">
        <ele>-8.6000003814697</ele>
        <time>2021-11-21T08:16:35.000Z</time>
      </trkpt>
      <trkpt lat="45.86904" lon="-1.25614">
        <ele>-8.3999996185303</ele>
        <time>2021-11-21T08:16:40.000Z</time>
      </trkpt>
      <trkpt lat="45.8691" lon="-1.25616">
        <ele>-8.3999996185303</ele>
        <time>2021-11-21T08:16:41.000Z</time>
      </trkpt>
      <trkpt lat="45.86921" lon="-1.25614">
        <ele>-8.1999998092651</ele>
        <time>2021-11-21T08:16:43.000Z</time>
      </trkpt>
      <trkpt lat="45.86931" lon="-1.25606">
        <ele>-8.6000003814697</ele>
        <time>2021-11-21T08:16:45.000Z</time>
      </trkpt>
      <trkpt lat="45.86936" lon="-1.25607">
        <ele>-8.6000003814697</ele>
        <time>2021-11-21T08:16:46.000Z</time>
      </trkpt>
      <trkpt lat="45.8694" lon="-1.2561">
        <ele>-8.8000001907349</ele>
        <time>2021-11-21T08:16:47.000Z</time>
      </trkpt>
      <trkpt lat="45.86955" lon="-1.25618">
        <ele>-8.8000001907349</ele>
        <time>2021-11-21T08:16:50.000Z</time>
      </trkpt>
      <trkpt lat="45.86966" lon="-1.25623">
        <ele>-8.8000001907349</ele>
        <time>2021-11-21T08:16:52.000Z</time>
      </trkpt>
      <trkpt lat="45.86986" lon="-1.25633">
        <ele>-9.1999998092651</ele>
        <time>2021-11-21T08:16:56.000Z</time>
      </trkpt>
      <trkpt lat="45.86996" lon="-1.25638">
        <ele>-9.6000003814697</ele>
        <time>2021-11-21T08:16:58.000Z</time>
      </trkpt>
      <trkpt lat="45.87008" lon="-1.25645">
        <ele>-9.6000003814697</ele>
        <time>2021-11-21T08:17:00.000Z</time>
      </trkpt>
      <trkpt lat="45.87024" lon="-1.25653">
        <ele>-9.8000001907349</ele>
        <time>2021-11-21T08:17:03.000Z</time>
      </trkpt>
      <trkpt lat="45.87033" lon="-1.25658">
        <ele>-9.6000003814697</ele>
        <time>2021-11-21T08:17:05.000Z</time>
      </trkpt>
      <trkpt lat="45.87044" lon="-1.25663">
        <ele>-9.3999996185303</ele>
        <time>2021-11-21T08:17:07.000Z</time>
      </trkpt>
      <trkpt lat="45.87059" lon="-1.25668">
        <ele>-9.3999996185303</ele>
        <time>2021-11-21T08:17:10.000Z</time>
      </trkpt>
      <trkpt lat="45.87081" lon="-1.25686">
        <ele>-9.6000003814697</ele>
        <time>2021-11-21T08:17:15.000Z</time>
      </trkpt>
      <trkpt lat="45.87085" lon="-1.25688">
        <ele>-9.6000003814697</ele>
        <time>2021-11-21T08:17:16.000Z</time>
      </trkpt>
      <trkpt lat="45.87093" lon="-1.25684">
        <ele>-9.8000001907349</ele>
        <time>2021-11-21T08:17:18.000Z</time>
      </trkpt>
      <trkpt lat="45.871" lon="-1.25676">
        <ele>-9.8000001907349</ele>
        <time>2021-11-21T08:17:20.000Z</time>
      </trkpt>
      <trkpt lat="45.87108" lon="-1.25674">
        <ele>-10</ele>
        <time>2021-11-21T08:17:22.000Z</time>
      </trkpt>
      <trkpt lat="45.87114" lon="-1.25681">
        <ele>-10</ele>
        <time>2021-11-21T08:17:24.000Z</time>
      </trkpt>
      <trkpt lat="45.87117" lon="-1.25686">
        <ele>-10</ele>
        <time>2021-11-21T08:17:25.000Z</time>
      </trkpt>
      <trkpt lat="45.87132" lon="-1.25705">
        <ele>-10</ele>
        <time>2021-11-21T08:17:29.000Z</time>
      </trkpt>
      <trkpt lat="45.87143" lon="-1.25714">
        <ele>-10</ele>
        <time>2021-11-21T08:17:31.000Z</time>
      </trkpt>
      <trkpt lat="45.87152" lon="-1.2572">
        <ele>-10.199999809265</ele>
        <time>2021-11-21T08:17:33.000Z</time>
      </trkpt>
      <trkpt lat="45.87178" lon="-1.25733">
        <ele>-10.39999961853</ele>
        <time>2021-11-21T08:17:37.000Z</time>
      </trkpt>
      <trkpt lat="45.872" lon="-1.25752">
        <ele>-10.39999961853</ele>
        <time>2021-11-21T08:17:41.000Z</time>
      </trkpt>
      <trkpt lat="45.87221" lon="-1.25762">
        <ele>-10.39999961853</ele>
        <time>2021-11-21T08:17:44.000Z</time>
      </trkpt>
      <trkpt lat="45.87229" lon="-1.25768">
        <ele>-10.39999961853</ele>
        <time>2021-11-21T08:17:45.000Z</time>
      </trkpt>
      <trkpt lat="45.87242" lon="-1.25777">
        <ele>-10.39999961853</ele>
        <time>2021-11-21T08:17:47.000Z</time>
      </trkpt>
      <trkpt lat="45.87259" lon="-1.25789">
        <ele>-10.60000038147</ele>
        <time>2021-11-21T08:17:50.000Z</time>
      </trkpt>
      <trkpt lat="45.87279" lon="-1.25804">
        <ele>-10.60000038147</ele>
        <time>2021-11-21T08:17:54.000Z</time>
      </trkpt>
      <trkpt lat="45.87305" lon="-1.25828">
        <ele>-10.800000190735</ele>
        <time>2021-11-21T08:17:59.000Z</time>
      </trkpt>
      <trkpt lat="45.87317" lon="-1.25838">
        <ele>-11</ele>
        <time>2021-11-21T08:18:01.000Z</time>
      </trkpt>
      <trkpt lat="45.87328" lon="-1.25849">
        <ele>-11</ele>
        <time>2021-11-21T08:18:03.000Z</time>
      </trkpt>
      <trkpt lat="45.8735" lon="-1.25868">
        <ele>-11.199999809265</ele>
        <time>2021-11-21T08:18:07.000Z</time>
      </trkpt>
      <trkpt lat="45.87374" lon="-1.25888">
        <ele>-11.60000038147</ele>
        <time>2021-11-21T08:18:11.000Z</time>
      </trkpt>
      <trkpt lat="45.87379" lon="-1.25892">
        <ele>-11.60000038147</ele>
        <time>2021-11-21T08:18:12.000Z</time>
      </trkpt>
      <trkpt lat="45.87411" lon="-1.25916">
        <ele>-11.60000038147</ele>
        <time>2021-11-21T08:18:17.000Z</time>
      </trkpt>
      <trkpt lat="45.87426" lon="-1.25922">
        <ele>-11.60000038147</ele>
        <time>2021-11-21T08:18:19.000Z</time>
      </trkpt>
      <trkpt lat="45.87437" lon="-1.25926">
        <ele>-11.60000038147</ele>
        <time>2021-11-21T08:18:21.000Z</time>
      </trkpt>
      <trkpt lat="45.87455" lon="-1.25936">
        <ele>-11.60000038147</ele>
        <time>2021-11-21T08:18:24.000Z</time>
      </trkpt>
      <trkpt lat="45.87471" lon="-1.25949">
        <ele>-11.60000038147</ele>
        <time>2021-11-21T08:18:27.000Z</time>
      </trkpt>
      <trkpt lat="45.87476" lon="-1.25953">
        <ele>-11.60000038147</ele>
        <time>2021-11-21T08:18:28.000Z</time>
      </trkpt>
      <trkpt lat="45.8749" lon="-1.25967">
        <ele>-11.60000038147</ele>
        <time>2021-11-21T08:18:31.000Z</time>
      </trkpt>
      <trkpt lat="45.87495" lon="-1.25971">
        <ele>-11.60000038147</ele>
        <time>2021-11-21T08:18:32.000Z</time>
      </trkpt>
      <trkpt lat="45.87519" lon="-1.25989">
        <ele>-11.39999961853</ele>
        <time>2021-11-21T08:18:38.000Z</time>
      </trkpt>
      <trkpt lat="45.87529" lon="-1.25994">
        <ele>-11.199999809265</ele>
        <time>2021-11-21T08:18:42.000Z</time>
      </trkpt>
      <trkpt lat="45.87535" lon="-1.25998">
        <ele>-11</ele>
        <time>2021-11-21T08:18:45.000Z</time>
      </trkpt>
      <trkpt lat="45.87543" lon="-1.26002">
        <ele>-11</ele>
        <time>2021-11-21T08:18:48.000Z</time>
      </trkpt>
      <trkpt lat="45.87549" lon="-1.26004">
        <ele>-10.800000190735</ele>
        <time>2021-11-21T08:18:50.000Z</time>
      </trkpt>
      <trkpt lat="45.87554" lon="-1.26">
        <ele>-10.800000190735</ele>
        <time>2021-11-21T08:18:52.000Z</time>
      </trkpt>
      <trkpt lat="45.87567" lon="-1.25992">
        <ele>-10.800000190735</ele>
        <time>2021-11-21T08:18:56.000Z</time>
      </trkpt>
      <trkpt lat="45.8757" lon="-1.25988">
        <ele>-10.800000190735</ele>
        <time>2021-11-21T08:18:57.000Z</time>
      </trkpt>
      <trkpt lat="45.87574" lon="-1.25983">
        <ele>-10.800000190735</ele>
        <time>2021-11-21T08:18:58.000Z</time>
      </trkpt>
      <trkpt lat="45.87579" lon="-1.25973">
        <ele>-10.800000190735</ele>
        <time>2021-11-21T08:19:00.000Z</time>
      </trkpt>
      <trkpt lat="45.8758" lon="-1.25966">
        <ele>-10.800000190735</ele>
        <time>2021-11-21T08:19:01.000Z</time>
      </trkpt>
      <trkpt lat="45.87582" lon="-1.2596">
        <ele>-10.800000190735</ele>
        <time>2021-11-21T08:19:02.000Z</time>
      </trkpt>
      <trkpt lat="45.87582" lon="-1.25947">
        <ele>-10.800000190735</ele>
        <time>2021-11-21T08:19:04.000Z</time>
      </trkpt>
      <trkpt lat="45.87583" lon="-1.25941">
        <ele>-10.800000190735</ele>
        <time>2021-11-21T08:19:05.000Z</time>
      </trkpt>
      <trkpt lat="45.87583" lon="-1.25936">
        <ele>-10.800000190735</ele>
        <time>2021-11-21T08:19:06.000Z</time>
      </trkpt>
      <trkpt lat="45.87582" lon="-1.2592">
        <ele>-10.60000038147</ele>
        <time>2021-11-21T08:19:09.000Z</time>
      </trkpt>
      <trkpt lat="45.8759" lon="-1.25887">
        <ele>-10.60000038147</ele>
        <time>2021-11-21T08:19:14.000Z</time>
      </trkpt>
      <trkpt lat="45.87593" lon="-1.25871">
        <ele>-10.60000038147</ele>
        <time>2021-11-21T08:19:16.000Z</time>
      </trkpt>
      <trkpt lat="45.87593" lon="-1.25854">
        <ele>-10.60000038147</ele>
        <time>2021-11-21T08:19:18.000Z</time>
      </trkpt>
      <trkpt lat="45.87594" lon="-1.25839">
        <ele>-10.60000038147</ele>
        <time>2021-11-21T08:19:20.000Z</time>
      </trkpt>
      <trkpt lat="45.87594" lon="-1.25826">
        <ele>-10.60000038147</ele>
        <time>2021-11-21T08:19:22.000Z</time>
      </trkpt>
      <trkpt lat="45.87593" lon="-1.2582">
        <ele>-10.60000038147</ele>
        <time>2021-11-21T08:19:23.000Z</time>
      </trkpt>
      <trkpt lat="45.8759" lon="-1.25798">
        <ele>-10.800000190735</ele>
        <time>2021-11-21T08:19:26.000Z</time>
      </trkpt>
      <trkpt lat="45.87588" lon="-1.25783">
        <ele>-10.800000190735</ele>
        <time>2021-11-21T08:19:28.000Z</time>
      </trkpt>
      <trkpt lat="45.87587" lon="-1.25775">
        <ele>-10.60000038147</ele>
        <time>2021-11-21T08:19:29.000Z</time>
      </trkpt>
      <trkpt lat="45.87587" lon="-1.25747">
        <ele>-10.60000038147</ele>
        <time>2021-11-21T08:19:33.000Z</time>
      </trkpt>
      <trkpt lat="45.87587" lon="-1.25734">
        <ele>-10.39999961853</ele>
        <time>2021-11-21T08:19:35.000Z</time>
      </trkpt>
      <trkpt lat="45.87588" lon="-1.25723">
        <ele>-10.199999809265</ele>
        <time>2021-11-21T08:19:37.000Z</time>
      </trkpt>
      <trkpt lat="45.87591" lon="-1.25709">
        <ele>-10</ele>
        <time>2021-11-21T08:19:39.000Z</time>
      </trkpt>
      <trkpt lat="45.87592" lon="-1.2569">
        <ele>-10.199999809265</ele>
        <time>2021-11-21T08:19:41.000Z</time>
      </trkpt>
      <trkpt lat="45.87593" lon="-1.25682">
        <ele>-10.199999809265</ele>
        <time>2021-11-21T08:19:42.000Z</time>
      </trkpt>
      <trkpt lat="45.87594" lon="-1.25667">
        <ele>-10.199999809265</ele>
        <time>2021-11-21T08:19:44.000Z</time>
      </trkpt>
      <trkpt lat="45.87594" lon="-1.2566">
        <ele>-10.199999809265</ele>
        <time>2021-11-21T08:19:45.000Z</time>
      </trkpt>
      <trkpt lat="45.87594" lon="-1.25653">
        <ele>-10.199999809265</ele>
        <time>2021-11-21T08:19:46.000Z</time>
      </trkpt>
      <trkpt lat="45.87594" lon="-1.25625">
        <ele>-10.39999961853</ele>
        <time>2021-11-21T08:19:50.000Z</time>
      </trkpt>
      <trkpt lat="45.87594" lon="-1.25617">
        <ele>-10.39999961853</ele>
        <time>2021-11-21T08:19:51.000Z</time>
      </trkpt>
      <trkpt lat="45.87595" lon="-1.2561">
        <ele>-10.39999961853</ele>
        <time>2021-11-21T08:19:52.000Z</time>
      </trkpt>
      <trkpt lat="45.87597" lon="-1.2558">
        <ele>-10.39999961853</ele>
        <time>2021-11-21T08:19:56.000Z</time>
      </trkpt>
      <trkpt lat="45.87598" lon="-1.25565">
        <ele>-10.39999961853</ele>
        <time>2021-11-21T08:19:58.000Z</time>
      </trkpt>
      <trkpt lat="45.87595" lon="-1.2555">
        <ele>-10.39999961853</ele>
        <time>2021-11-21T08:20:00.000Z</time>
      </trkpt>
      <trkpt lat="45.87594" lon="-1.25542">
        <ele>-10.199999809265</ele>
        <time>2021-11-21T08:20:01.000Z</time>
      </trkpt>
      <trkpt lat="45.87591" lon="-1.25524">
        <ele>-10.199999809265</ele>
        <time>2021-11-21T08:20:03.000Z</time>
      </trkpt>
      <trkpt lat="45.87593" lon="-1.25497">
        <ele>-10</ele>
        <time>2021-11-21T08:20:06.000Z</time>
      </trkpt>
      <trkpt lat="45.87596" lon="-1.25468">
        <ele>-9.8000001907349</ele>
        <time>2021-11-21T08:20:09.000Z</time>
      </trkpt>
      <trkpt lat="45.87596" lon="-1.25456">
        <ele>-10</ele>
        <time>2021-11-21T08:20:10.000Z</time>
      </trkpt>
      <trkpt lat="45.87598" lon="-1.25449">
        <ele>-10.199999809265</ele>
        <time>2021-11-21T08:20:11.000Z</time>
      </trkpt>
      <trkpt lat="45.87602" lon="-1.25414">
        <ele>-10.39999961853</ele>
        <time>2021-11-21T08:20:15.000Z</time>
      </trkpt>
      <trkpt lat="45.87602" lon="-1.25405">
        <ele>-10.60000038147</ele>
        <time>2021-11-21T08:20:16.000Z</time>
      </trkpt>
      <trkpt lat="45.87601" lon="-1.25389">
        <ele>-10.60000038147</ele>
        <time>2021-11-21T08:20:18.000Z</time>
      </trkpt>
      <trkpt lat="45.87601" lon="-1.25382">
        <ele>-10.60000038147</ele>
        <time>2021-11-21T08:20:19.000Z</time>
      </trkpt>
      <trkpt lat="45.87605" lon="-1.25358">
        <ele>-10.199999809265</ele>
        <time>2021-11-21T08:20:23.000Z</time>
      </trkpt>
      <trkpt lat="45.87608" lon="-1.25354">
        <ele>-10.199999809265</ele>
        <time>2021-11-21T08:20:25.000Z</time>
      </trkpt>
      <trkpt lat="45.87611" lon="-1.25355">
        <ele>-10.199999809265</ele>
        <time>2021-11-21T08:20:26.000Z</time>
      </trkpt>
      <trkpt lat="45.87627" lon="-1.25365">
        <ele>-10</ele>
        <time>2021-11-21T08:20:30.000Z</time>
      </trkpt>
      <trkpt lat="45.8766" lon="-1.25388">
        <ele>-9.8000001907349</ele>
        <time>2021-11-21T08:20:36.000Z</time>
      </trkpt>
      <trkpt lat="45.87697" lon="-1.25411">
        <ele>-9.6000003814697</ele>
        <time>2021-11-21T08:20:43.000Z</time>
      </trkpt>
      <trkpt lat="45.87729" lon="-1.25428">
        <ele>-9.1999998092651</ele>
        <time>2021-11-21T08:20:49.000Z</time>
      </trkpt>
      <trkpt lat="45.87734" lon="-1.25431">
        <ele>-9</ele>
        <time>2021-11-21T08:20:50.000Z</time>
      </trkpt>
      <trkpt lat="45.87774" lon="-1.25458">
        <ele>-8.6000003814697</ele>
        <time>2021-11-21T08:20:57.000Z</time>
      </trkpt>
      <trkpt lat="45.87788" lon="-1.25456">
        <ele>-8.6000003814697</ele>
        <time>2021-11-21T08:20:59.000Z</time>
      </trkpt>
      <trkpt lat="45.87793" lon="-1.25451">
        <ele>-8.6000003814697</ele>
        <time>2021-11-21T08:21:00.000Z</time>
      </trkpt>
      <trkpt lat="45.87798" lon="-1.25443">
        <ele>-8.6000003814697</ele>
        <time>2021-11-21T08:21:01.000Z</time>
      </trkpt>
      <trkpt lat="45.87808" lon="-1.2542">
        <ele>-8.3999996185303</ele>
        <time>2021-11-21T08:21:04.000Z</time>
      </trkpt>
      <trkpt lat="45.87814" lon="-1.25408">
        <ele>-8.3999996185303</ele>
        <time>2021-11-21T08:21:06.000Z</time>
      </trkpt>
      <trkpt lat="45.87817" lon="-1.25404">
        <ele>-8.3999996185303</ele>
        <time>2021-11-21T08:21:07.000Z</time>
      </trkpt>
      <trkpt lat="45.87821" lon="-1.25404">
        <ele>-8.1999998092651</ele>
        <time>2021-11-21T08:21:08.000Z</time>
      </trkpt>
      <trkpt lat="45.87825" lon="-1.25408">
        <ele>-8.1999998092651</ele>
        <time>2021-11-21T08:21:09.000Z</time>
      </trkpt>
      <trkpt lat="45.87829" lon="-1.25413">
        <ele>-8</ele>
        <time>2021-11-21T08:21:10.000Z</time>
      </trkpt>
      <trkpt lat="45.87841" lon="-1.25427">
        <ele>-8</ele>
        <time>2021-11-21T08:21:13.000Z</time>
      </trkpt>
      <trkpt lat="45.87853" lon="-1.25435">
        <ele>-7.8000001907349</ele>
        <time>2021-11-21T08:21:15.000Z</time>
      </trkpt>
      <trkpt lat="45.87864" lon="-1.25447">
        <ele>-7.8000001907349</ele>
        <time>2021-11-21T08:21:17.000Z</time>
      </trkpt>
      <trkpt lat="45.87873" lon="-1.25461">
        <ele>-7.8000001907349</ele>
        <time>2021-11-21T08:21:19.000Z</time>
      </trkpt>
      <trkpt lat="45.87903" lon="-1.25507">
        <ele>-7.8000001907349</ele>
        <time>2021-11-21T08:21:26.000Z</time>
      </trkpt>
      <trkpt lat="45.87924" lon="-1.25533">
        <ele>-7.5999999046326</ele>
        <time>2021-11-21T08:21:30.000Z</time>
      </trkpt>
      <trkpt lat="45.87929" lon="-1.25541">
        <ele>-7.5999999046326</ele>
        <time>2021-11-21T08:21:31.000Z</time>
      </trkpt>
      <trkpt lat="45.8794" lon="-1.25559">
        <ele>-7.5999999046326</ele>
        <time>2021-11-21T08:21:33.000Z</time>
      </trkpt>
      <trkpt lat="45.8795" lon="-1.25572">
        <ele>-7.5999999046326</ele>
        <time>2021-11-21T08:21:35.000Z</time>
      </trkpt>
      <trkpt lat="45.87966" lon="-1.25579">
        <ele>-7.5999999046326</ele>
        <time>2021-11-21T08:21:38.000Z</time>
      </trkpt>
      <trkpt lat="45.8799" lon="-1.25599">
        <ele>-7.5999999046326</ele>
        <time>2021-11-21T08:21:42.000Z</time>
      </trkpt>
      <trkpt lat="45.88023" lon="-1.25623">
        <ele>-7.4000000953674</ele>
        <time>2021-11-21T08:21:47.000Z</time>
      </trkpt>
      <trkpt lat="45.88036" lon="-1.25633">
        <ele>-7.4000000953674</ele>
        <time>2021-11-21T08:21:49.000Z</time>
      </trkpt>
      <trkpt lat="45.88042" lon="-1.25634">
        <ele>-7.4000000953674</ele>
        <time>2021-11-21T08:21:50.000Z</time>
      </trkpt>
      <trkpt lat="45.88049" lon="-1.25634">
        <ele>-7.4000000953674</ele>
        <time>2021-11-21T08:21:51.000Z</time>
      </trkpt>
      <trkpt lat="45.88062" lon="-1.25633">
        <ele>-7.5999999046326</ele>
        <time>2021-11-21T08:21:53.000Z</time>
      </trkpt>
      <trkpt lat="45.88069" lon="-1.25635">
        <ele>-7.5999999046326</ele>
        <time>2021-11-21T08:21:54.000Z</time>
      </trkpt>
      <trkpt lat="45.88074" lon="-1.25639">
        <ele>-7.8000001907349</ele>
        <time>2021-11-21T08:21:55.000Z</time>
      </trkpt>
      <trkpt lat="45.88081" lon="-1.25653">
        <ele>-8</ele>
        <time>2021-11-21T08:21:57.000Z</time>
      </trkpt>
      <trkpt lat="45.88085" lon="-1.25669">
        <ele>-8.1999998092651</ele>
        <time>2021-11-21T08:21:59.000Z</time>
      </trkpt>
      <trkpt lat="45.88089" lon="-1.25688">
        <ele>-8.3999996185303</ele>
        <time>2021-11-21T08:22:01.000Z</time>
      </trkpt>
      <trkpt lat="45.88099" lon="-1.25715">
        <ele>-8.6000003814697</ele>
        <time>2021-11-21T08:22:04.000Z</time>
      </trkpt>
      <trkpt lat="45.88118" lon="-1.25785">
        <ele>-9</ele>
        <time>2021-11-21T08:22:11.000Z</time>
      </trkpt>
      <trkpt lat="45.88119" lon="-1.25794">
        <ele>-9.1999998092651</ele>
        <time>2021-11-21T08:22:12.000Z</time>
      </trkpt>
      <trkpt lat="45.8812" lon="-1.25826">
        <ele>-9.1999998092651</ele>
        <time>2021-11-21T08:22:15.000Z</time>
      </trkpt>
      <trkpt lat="45.8812" lon="-1.25836">
        <ele>-9.1999998092651</ele>
        <time>2021-11-21T08:22:16.000Z</time>
      </trkpt>
      <trkpt lat="45.88119" lon="-1.25845">
        <ele>-9.1999998092651</ele>
        <time>2021-11-21T08:22:17.000Z</time>
      </trkpt>
      <trkpt lat="45.88118" lon="-1.25864">
        <ele>-9.1999998092651</ele>
        <time>2021-11-21T08:22:19.000Z</time>
      </trkpt>
      <trkpt lat="45.88115" lon="-1.25884">
        <ele>-9.3999996185303</ele>
        <time>2021-11-21T08:22:21.000Z</time>
      </trkpt>
      <trkpt lat="45.88116" lon="-1.25893">
        <ele>-9.3999996185303</ele>
        <time>2021-11-21T08:22:22.000Z</time>
      </trkpt>
      <trkpt lat="45.88119" lon="-1.25918">
        <ele>-9.3999996185303</ele>
        <time>2021-11-21T08:22:25.000Z</time>
      </trkpt>
      <trkpt lat="45.88122" lon="-1.25936">
        <ele>-9.3999996185303</ele>
        <time>2021-11-21T08:22:27.000Z</time>
      </trkpt>
      <trkpt lat="45.88124" lon="-1.25973">
        <ele>-9.1999998092651</ele>
        <time>2021-11-21T08:22:31.000Z</time>
      </trkpt>
      <trkpt lat="45.88126" lon="-1.25988">
        <ele>-9</ele>
        <time>2021-11-21T08:22:33.000Z</time>
      </trkpt>
      <trkpt lat="45.88134" lon="-1.26014">
        <ele>-9</ele>
        <time>2021-11-21T08:22:36.000Z</time>
      </trkpt>
      <trkpt lat="45.88143" lon="-1.26052">
        <ele>-9</ele>
        <time>2021-11-21T08:22:40.000Z</time>
      </trkpt>
      <trkpt lat="45.88146" lon="-1.26061">
        <ele>-9</ele>
        <time>2021-11-21T08:22:41.000Z</time>
      </trkpt>
      <trkpt lat="45.88151" lon="-1.2607">
        <ele>-9</ele>
        <time>2021-11-21T08:22:42.000Z</time>
      </trkpt>
      <trkpt lat="45.88161" lon="-1.26083">
        <ele>-9</ele>
        <time>2021-11-21T08:22:44.000Z</time>
      </trkpt>
      <trkpt lat="45.88167" lon="-1.26088">
        <ele>-9</ele>
        <time>2021-11-21T08:22:45.000Z</time>
      </trkpt>
      <trkpt lat="45.8818" lon="-1.26098">
        <ele>-9</ele>
        <time>2021-11-21T08:22:47.000Z</time>
      </trkpt>
      <trkpt lat="45.88191" lon="-1.26113">
        <ele>-9</ele>
        <time>2021-11-21T08:22:49.000Z</time>
      </trkpt>
      <trkpt lat="45.88204" lon="-1.26141">
        <ele>-9.1999998092651</ele>
        <time>2021-11-21T08:22:52.000Z</time>
      </trkpt>
      <trkpt lat="45.88213" lon="-1.26157">
        <ele>-9.6000003814697</ele>
        <time>2021-11-21T08:22:54.000Z</time>
      </trkpt>
      <trkpt lat="45.88218" lon="-1.26164">
        <ele>-9.8000001907349</ele>
        <time>2021-11-21T08:22:55.000Z</time>
      </trkpt>
      <trkpt lat="45.88229" lon="-1.26178">
        <ele>-10</ele>
        <time>2021-11-21T08:22:57.000Z</time>
      </trkpt>
      <trkpt lat="45.88234" lon="-1.26187">
        <ele>-10</ele>
        <time>2021-11-21T08:22:58.000Z</time>
      </trkpt>
      <trkpt lat="45.88248" lon="-1.26213">
        <ele>-10.199999809265</ele>
        <time>2021-11-21T08:23:01.000Z</time>
      </trkpt>
      <trkpt lat="45.88255" lon="-1.2623">
        <ele>-10.199999809265</ele>
        <time>2021-11-21T08:23:03.000Z</time>
      </trkpt>
      <trkpt lat="45.88269" lon="-1.26257">
        <ele>-10.39999961853</ele>
        <time>2021-11-21T08:23:06.000Z</time>
      </trkpt>
      <trkpt lat="45.88274" lon="-1.26267">
        <ele>-10.39999961853</ele>
        <time>2021-11-21T08:23:07.000Z</time>
      </trkpt>
      <trkpt lat="45.88278" lon="-1.26277">
        <ele>-10.39999961853</ele>
        <time>2021-11-21T08:23:08.000Z</time>
      </trkpt>
      <trkpt lat="45.88286" lon="-1.26304">
        <ele>-10.60000038147</ele>
        <time>2021-11-21T08:23:11.000Z</time>
      </trkpt>
      <trkpt lat="45.8829" lon="-1.26321">
        <ele>-10.60000038147</ele>
        <time>2021-11-21T08:23:13.000Z</time>
      </trkpt>
      <trkpt lat="45.88301" lon="-1.26355">
        <ele>-10.800000190735</ele>
        <time>2021-11-21T08:23:17.000Z</time>
      </trkpt>
      <trkpt lat="45.88308" lon="-1.2637">
        <ele>-10.800000190735</ele>
        <time>2021-11-21T08:23:19.000Z</time>
      </trkpt>
      <trkpt lat="45.88318" lon="-1.26398">
        <ele>-10.800000190735</ele>
        <time>2021-11-21T08:23:22.000Z</time>
      </trkpt>
      <trkpt lat="45.88322" lon="-1.26416">
        <ele>-10.800000190735</ele>
        <time>2021-11-21T08:23:24.000Z</time>
      </trkpt>
      <trkpt lat="45.88331" lon="-1.26443">
        <ele>-10.800000190735</ele>
        <time>2021-11-21T08:23:27.000Z</time>
      </trkpt>
      <trkpt lat="45.88344" lon="-1.26481">
        <ele>-10.800000190735</ele>
        <time>2021-11-21T08:23:31.000Z</time>
      </trkpt>
      <trkpt lat="45.88351" lon="-1.26499">
        <ele>-10.800000190735</ele>
        <time>2021-11-21T08:23:33.000Z</time>
      </trkpt>
      <trkpt lat="45.88354" lon="-1.26513">
        <ele>-11</ele>
        <time>2021-11-21T08:23:35.000Z</time>
      </trkpt>
      <trkpt lat="45.88355" lon="-1.2653">
        <ele>-11.199999809265</ele>
        <time>2021-11-21T08:23:37.000Z</time>
      </trkpt>
      <trkpt lat="45.88365" lon="-1.26559">
        <ele>-11.199999809265</ele>
        <time>2021-11-21T08:23:40.000Z</time>
      </trkpt>
      <trkpt lat="45.88364" lon="-1.26583">
        <ele>-11.199999809265</ele>
        <time>2021-11-21T08:23:42.000Z</time>
      </trkpt>
      <trkpt lat="45.88367" lon="-1.26599">
        <ele>-11.199999809265</ele>
        <time>2021-11-21T08:23:44.000Z</time>
      </trkpt>
      <trkpt lat="45.88368" lon="-1.26631">
        <ele>-11</ele>
        <time>2021-11-21T08:23:47.000Z</time>
      </trkpt>
      <trkpt lat="45.88367" lon="-1.26642">
        <ele>-11</ele>
        <time>2021-11-21T08:23:48.000Z</time>
      </trkpt>
      <trkpt lat="45.88368" lon="-1.26652">
        <ele>-11</ele>
        <time>2021-11-21T08:23:49.000Z</time>
      </trkpt>
      <trkpt lat="45.88367" lon="-1.26675">
        <ele>-11.199999809265</ele>
        <time>2021-11-21T08:23:52.000Z</time>
      </trkpt>
      <trkpt lat="45.88371" lon="-1.26691">
        <ele>-11.39999961853</ele>
        <time>2021-11-21T08:23:54.000Z</time>
      </trkpt>
      <trkpt lat="45.88376" lon="-1.26706">
        <ele>-11.39999961853</ele>
        <time>2021-11-21T08:23:56.000Z</time>
      </trkpt>
      <trkpt lat="45.88392" lon="-1.26748">
        <ele>-11.39999961853</ele>
        <time>2021-11-21T08:24:01.000Z</time>
      </trkpt>
      <trkpt lat="45.88395" lon="-1.26776">
        <ele>-11.39999961853</ele>
        <time>2021-11-21T08:24:04.000Z</time>
      </trkpt>
      <trkpt lat="45.88395" lon="-1.26785">
        <ele>-11.39999961853</ele>
        <time>2021-11-21T08:24:05.000Z</time>
      </trkpt>
      <trkpt lat="45.88396" lon="-1.26794">
        <ele>-11.199999809265</ele>
        <time>2021-11-21T08:24:06.000Z</time>
      </trkpt>
      <trkpt lat="45.88403" lon="-1.26812">
        <ele>-11.199999809265</ele>
        <time>2021-11-21T08:24:08.000Z</time>
      </trkpt>
      <trkpt lat="45.88413" lon="-1.26846">
        <ele>-11.199999809265</ele>
        <time>2021-11-21T08:24:12.000Z</time>
      </trkpt>
      <trkpt lat="45.88414" lon="-1.26892">
        <ele>-11.199999809265</ele>
        <time>2021-11-21T08:24:17.000Z</time>
      </trkpt>
      <trkpt lat="45.88416" lon="-1.26911">
        <ele>-11.199999809265</ele>
        <time>2021-11-21T08:24:19.000Z</time>
      </trkpt>
      <trkpt lat="45.88418" lon="-1.26932">
        <ele>-11</ele>
        <time>2021-11-21T08:24:21.000Z</time>
      </trkpt>
      <trkpt lat="45.88417" lon="-1.26954">
        <ele>-11</ele>
        <time>2021-11-21T08:24:23.000Z</time>
      </trkpt>
      <trkpt lat="45.88415" lon="-1.26974">
        <ele>-11</ele>
        <time>2021-11-21T08:24:25.000Z</time>
      </trkpt>
      <trkpt lat="45.88413" lon="-1.26984">
        <ele>-11</ele>
        <time>2021-11-21T08:24:26.000Z</time>
      </trkpt>
      <trkpt lat="45.88411" lon="-1.26992">
        <ele>-11.199999809265</ele>
        <time>2021-11-21T08:24:27.000Z</time>
      </trkpt>
      <trkpt lat="45.88409" lon="-1.27019">
        <ele>-11</ele>
        <time>2021-11-21T08:24:30.000Z</time>
      </trkpt>
      <trkpt lat="45.88407" lon="-1.27036">
        <ele>-11</ele>
        <time>2021-11-21T08:24:32.000Z</time>
      </trkpt>
      <trkpt lat="45.88407" lon="-1.27062">
        <ele>-11.199999809265</ele>
        <time>2021-11-21T08:24:35.000Z</time>
      </trkpt>
      <trkpt lat="45.88409" lon="-1.27082">
        <ele>-11.199999809265</ele>
        <time>2021-11-21T08:24:37.000Z</time>
      </trkpt>
      <trkpt lat="45.88414" lon="-1.27099">
        <ele>-11</ele>
        <time>2021-11-21T08:24:39.000Z</time>
      </trkpt>
      <trkpt lat="45.88419" lon="-1.27124">
        <ele>-11</ele>
        <time>2021-11-21T08:24:42.000Z</time>
      </trkpt>
      <trkpt lat="45.88423" lon="-1.27141">
        <ele>-11</ele>
        <time>2021-11-21T08:24:44.000Z</time>
      </trkpt>
      <trkpt lat="45.8843" lon="-1.27175">
        <ele>-11</ele>
        <time>2021-11-21T08:24:48.000Z</time>
      </trkpt>
      <trkpt lat="45.88436" lon="-1.27203">
        <ele>-10.800000190735</ele>
        <time>2021-11-21T08:24:51.000Z</time>
      </trkpt>
      <trkpt lat="45.88441" lon="-1.2722">
        <ele>-10.800000190735</ele>
        <time>2021-11-21T08:24:53.000Z</time>
      </trkpt>
      <trkpt lat="45.88447" lon="-1.27254">
        <ele>-10.800000190735</ele>
        <time>2021-11-21T08:24:57.000Z</time>
      </trkpt>
      <trkpt lat="45.8845" lon="-1.27269">
        <ele>-10.800000190735</ele>
        <time>2021-11-21T08:24:59.000Z</time>
      </trkpt>
      <trkpt lat="45.88455" lon="-1.2729">
        <ele>-10.60000038147</ele>
        <time>2021-11-21T08:25:02.000Z</time>
      </trkpt>
      <trkpt lat="45.88457" lon="-1.27297">
        <ele>-10.60000038147</ele>
        <time>2021-11-21T08:25:03.000Z</time>
      </trkpt>
      <trkpt lat="45.88463" lon="-1.2731">
        <ele>-10.60000038147</ele>
        <time>2021-11-21T08:25:05.000Z</time>
      </trkpt>
      <trkpt lat="45.88467" lon="-1.27316">
        <ele>-10.39999961853</ele>
        <time>2021-11-21T08:25:06.000Z</time>
      </trkpt>
      <trkpt lat="45.88482" lon="-1.27333">
        <ele>-10.199999809265</ele>
        <time>2021-11-21T08:25:09.000Z</time>
      </trkpt>
      <trkpt lat="45.88488" lon="-1.27337">
        <ele>-10.199999809265</ele>
        <time>2021-11-21T08:25:10.000Z</time>
      </trkpt>
      <trkpt lat="45.88499" lon="-1.27348">
        <ele>-10</ele>
        <time>2021-11-21T08:25:12.000Z</time>
      </trkpt>
      <trkpt lat="45.88515" lon="-1.27368">
        <ele>-10</ele>
        <time>2021-11-21T08:25:15.000Z</time>
      </trkpt>
      <trkpt lat="45.8853" lon="-1.27386">
        <ele>-10</ele>
        <time>2021-11-21T08:25:18.000Z</time>
      </trkpt>
      <trkpt lat="45.8854" lon="-1.27397">
        <ele>-10</ele>
        <time>2021-11-21T08:25:20.000Z</time>
      </trkpt>
      <trkpt lat="45.8855" lon="-1.27409">
        <ele>-9.8000001907349</ele>
        <time>2021-11-21T08:25:22.000Z</time>
      </trkpt>
      <trkpt lat="45.8857" lon="-1.27436">
        <ele>-9.6000003814697</ele>
        <time>2021-11-21T08:25:26.000Z</time>
      </trkpt>
      <trkpt lat="45.88585" lon="-1.27456">
        <ele>-9.3999996185303</ele>
        <time>2021-11-21T08:25:29.000Z</time>
      </trkpt>
      <trkpt lat="45.88599" lon="-1.27473">
        <ele>-9.1999998092651</ele>
        <time>2021-11-21T08:25:32.000Z</time>
      </trkpt>
      <trkpt lat="45.88609" lon="-1.27484">
        <ele>-9.1999998092651</ele>
        <time>2021-11-21T08:25:34.000Z</time>
      </trkpt>
      <trkpt lat="45.88625" lon="-1.27505">
        <ele>-9.1999998092651</ele>
        <time>2021-11-21T08:25:37.000Z</time>
      </trkpt>
      <trkpt lat="45.88632" lon="-1.27512">
        <ele>-9.1999998092651</ele>
        <time>2021-11-21T08:25:38.000Z</time>
      </trkpt>
      <trkpt lat="45.88649" lon="-1.27533">
        <ele>-9</ele>
        <time>2021-11-21T08:25:41.000Z</time>
      </trkpt>
      <trkpt lat="45.88673" lon="-1.27562">
        <ele>-9.3999996185303</ele>
        <time>2021-11-21T08:25:46.000Z</time>
      </trkpt>
      <trkpt lat="45.88687" lon="-1.27575">
        <ele>-9.8000001907349</ele>
        <time>2021-11-21T08:25:49.000Z</time>
      </trkpt>
      <trkpt lat="45.88696" lon="-1.27579">
        <ele>-9.8000001907349</ele>
        <time>2021-11-21T08:25:51.000Z</time>
      </trkpt>
      <trkpt lat="45.88707" lon="-1.27578">
        <ele>-9.8000001907349</ele>
        <time>2021-11-21T08:25:53.000Z</time>
      </trkpt>
      <trkpt lat="45.88712" lon="-1.27575">
        <ele>-9.6000003814697</ele>
        <time>2021-11-21T08:25:54.000Z</time>
      </trkpt>
      <trkpt lat="45.88723" lon="-1.27568">
        <ele>-9.3999996185303</ele>
        <time>2021-11-21T08:25:56.000Z</time>
      </trkpt>
      <trkpt lat="45.88732" lon="-1.27556">
        <ele>-9.1999998092651</ele>
        <time>2021-11-21T08:25:58.000Z</time>
      </trkpt>
      <trkpt lat="45.88738" lon="-1.2754">
        <ele>-9.1999998092651</ele>
        <time>2021-11-21T08:26:00.000Z</time>
      </trkpt>
      <trkpt lat="45.88744" lon="-1.27521">
        <ele>-9.1999998092651</ele>
        <time>2021-11-21T08:26:02.000Z</time>
      </trkpt>
      <trkpt lat="45.88747" lon="-1.27513">
        <ele>-9.1999998092651</ele>
        <time>2021-11-21T08:26:03.000Z</time>
      </trkpt>
      <trkpt lat="45.88757" lon="-1.2749">
        <ele>-9.3999996185303</ele>
        <time>2021-11-21T08:26:06.000Z</time>
      </trkpt>
      <trkpt lat="45.88761" lon="-1.27483">
        <ele>-9.6000003814697</ele>
        <time>2021-11-21T08:26:07.000Z</time>
      </trkpt>
      <trkpt lat="45.88775" lon="-1.2746">
        <ele>-10.39999961853</ele>
        <time>2021-11-21T08:26:10.000Z</time>
      </trkpt>
      <trkpt lat="45.88781" lon="-1.27451">
        <ele>-10.800000190735</ele>
        <time>2021-11-21T08:26:11.000Z</time>
      </trkpt>
      <trkpt lat="45.88792" lon="-1.27435">
        <ele>-11.199999809265</ele>
        <time>2021-11-21T08:26:13.000Z</time>
      </trkpt>
      <trkpt lat="45.88801" lon="-1.27418">
        <ele>-11.60000038147</ele>
        <time>2021-11-21T08:26:15.000Z</time>
      </trkpt>
      <trkpt lat="45.88806" lon="-1.2741">
        <ele>-11.800000190735</ele>
        <time>2021-11-21T08:26:16.000Z</time>
      </trkpt>
      <trkpt lat="45.88817" lon="-1.27399">
        <ele>-12</ele>
        <time>2021-11-21T08:26:18.000Z</time>
      </trkpt>
      <trkpt lat="45.88823" lon="-1.27394">
        <ele>-12</ele>
        <time>2021-11-21T08:26:19.000Z</time>
      </trkpt>
      <trkpt lat="45.88837" lon="-1.27383">
        <ele>-12</ele>
        <time>2021-11-21T08:26:21.000Z</time>
      </trkpt>
      <trkpt lat="45.88848" lon="-1.27369">
        <ele>-11.60000038147</ele>
        <time>2021-11-21T08:26:23.000Z</time>
      </trkpt>
      <trkpt lat="45.88853" lon="-1.27362">
        <ele>-11.60000038147</ele>
        <time>2021-11-21T08:26:24.000Z</time>
      </trkpt>
      <trkpt lat="45.88873" lon="-1.27333">
        <ele>-11.60000038147</ele>
        <time>2021-11-21T08:26:28.000Z</time>
      </trkpt>
      <trkpt lat="45.88882" lon="-1.27321">
        <ele>-11.39999961853</ele>
        <time>2021-11-21T08:26:30.000Z</time>
      </trkpt>
      <trkpt lat="45.88895" lon="-1.27305">
        <ele>-11.39999961853</ele>
        <time>2021-11-21T08:26:33.000Z</time>
      </trkpt>
      <trkpt lat="45.88903" lon="-1.27296">
        <ele>-11.60000038147</ele>
        <time>2021-11-21T08:26:35.000Z</time>
      </trkpt>
      <trkpt lat="45.88912" lon="-1.27284">
        <ele>-11.60000038147</ele>
        <time>2021-11-21T08:26:37.000Z</time>
      </trkpt>
      <trkpt lat="45.88934" lon="-1.27266">
        <ele>-12</ele>
        <time>2021-11-21T08:26:40.000Z</time>
      </trkpt>
      <trkpt lat="45.88949" lon="-1.27253">
        <ele>-12.39999961853</ele>
        <time>2021-11-21T08:26:43.000Z</time>
      </trkpt>
      <trkpt lat="45.88975" lon="-1.27224">
        <ele>-12.800000190735</ele>
        <time>2021-11-21T08:26:48.000Z</time>
      </trkpt>
      <trkpt lat="45.88987" lon="-1.27214">
        <ele>-13</ele>
        <time>2021-11-21T08:26:50.000Z</time>
      </trkpt>
      <trkpt lat="45.89018" lon="-1.27182">
        <ele>-13</ele>
        <time>2021-11-21T08:26:56.000Z</time>
      </trkpt>
      <trkpt lat="45.89053" lon="-1.27144">
        <ele>-12.800000190735</ele>
        <time>2021-11-21T08:27:03.000Z</time>
      </trkpt>
      <trkpt lat="45.89088" lon="-1.27106">
        <ele>-13</ele>
        <time>2021-11-21T08:27:10.000Z</time>
      </trkpt>
      <trkpt lat="45.89098" lon="-1.27097">
        <ele>-13</ele>
        <time>2021-11-21T08:27:12.000Z</time>
      </trkpt>
      <trkpt lat="45.89111" lon="-1.27084">
        <ele>-13</ele>
        <time>2021-11-21T08:27:15.000Z</time>
      </trkpt>
      <trkpt lat="45.89115" lon="-1.2708">
        <ele>-13</ele>
        <time>2021-11-21T08:27:16.000Z</time>
      </trkpt>
      <trkpt lat="45.89125" lon="-1.2707">
        <ele>-13</ele>
        <time>2021-11-21T08:27:19.000Z</time>
      </trkpt>
      <trkpt lat="45.89117" lon="-1.27055">
        <ele>-11.39999961853</ele>
        <time>2021-11-23T09:17:08.000Z</time>
      </trkpt>
      <trkpt lat="45.8913" lon="-1.27051">
        <ele>-11.39999961853</ele>
        <time>2021-11-23T09:17:11.000Z</time>
      </trkpt>
      <trkpt lat="45.89158" lon="-1.27037">
        <ele>-11.39999961853</ele>
        <time>2021-11-23T09:17:16.000Z</time>
      </trkpt>
      <trkpt lat="45.89164" lon="-1.27032">
        <ele>-11.39999961853</ele>
        <time>2021-11-23T09:17:17.000Z</time>
      </trkpt>
      <trkpt lat="45.89195" lon="-1.27009">
        <ele>-12.39999961853</ele>
        <time>2021-11-23T09:17:22.000Z</time>
      </trkpt>
      <trkpt lat="45.89205" lon="-1.27">
        <ele>-12.39999961853</ele>
        <time>2021-11-23T09:17:24.000Z</time>
      </trkpt>
      <trkpt lat="45.8922" lon="-1.26986">
        <ele>-12</ele>
        <time>2021-11-23T09:17:27.000Z</time>
      </trkpt>
      <trkpt lat="45.89241" lon="-1.26965">
        <ele>-12</ele>
        <time>2021-11-23T09:17:31.000Z</time>
      </trkpt>
      <trkpt lat="45.89273" lon="-1.26923">
        <ele>-12</ele>
        <time>2021-11-23T09:17:38.000Z</time>
      </trkpt>
      <trkpt lat="45.89294" lon="-1.26905">
        <ele>-12.199999809265</ele>
        <time>2021-11-23T09:17:42.000Z</time>
      </trkpt>
      <trkpt lat="45.89303" lon="-1.26896">
        <ele>-12.199999809265</ele>
        <time>2021-11-23T09:17:44.000Z</time>
      </trkpt>
      <trkpt lat="45.8931" lon="-1.26896">
        <ele>-12.199999809265</ele>
        <time>2021-11-23T09:17:46.000Z</time>
      </trkpt>
      <trkpt lat="45.89316" lon="-1.26906">
        <ele>-12.39999961853</ele>
        <time>2021-11-23T09:17:48.000Z</time>
      </trkpt>
      <trkpt lat="45.8932" lon="-1.26912">
        <ele>-12.39999961853</ele>
        <time>2021-11-23T09:17:49.000Z</time>
      </trkpt>
      <trkpt lat="45.89341" lon="-1.26945">
        <ele>-12.800000190735</ele>
        <time>2021-11-23T09:17:54.000Z</time>
      </trkpt>
      <trkpt lat="45.89377" lon="-1.26996">
        <ele>-13.199999809265</ele>
        <time>2021-11-23T09:18:01.000Z</time>
      </trkpt>
      <trkpt lat="45.89415" lon="-1.27043">
        <ele>-13.39999961853</ele>
        <time>2021-11-23T09:18:08.000Z</time>
      </trkpt>
      <trkpt lat="45.89449" lon="-1.27104">
        <ele>-13.60000038147</ele>
        <time>2021-11-23T09:18:16.000Z</time>
      </trkpt>
      <trkpt lat="45.89454" lon="-1.27111">
        <ele>-13.800000190735</ele>
        <time>2021-11-23T09:18:17.000Z</time>
      </trkpt>
      <trkpt lat="45.89479" lon="-1.27149">
        <ele>-14</ele>
        <time>2021-11-23T09:18:23.000Z</time>
      </trkpt>
      <trkpt lat="45.89483" lon="-1.27154">
        <ele>-14.199999809265</ele>
        <time>2021-11-23T09:18:24.000Z</time>
      </trkpt>
      <trkpt lat="45.895" lon="-1.2719">
        <ele>-15</ele>
        <time>2021-11-23T09:18:29.000Z</time>
      </trkpt>
      <trkpt lat="45.8952" lon="-1.27241">
        <ele>-15.60000038147</ele>
        <time>2021-11-23T09:18:35.000Z</time>
      </trkpt>
      <trkpt lat="45.89527" lon="-1.27258">
        <ele>-16</ele>
        <time>2021-11-23T09:18:37.000Z</time>
      </trkpt>
      <trkpt lat="45.89543" lon="-1.2731">
        <ele>-16.799999237061</ele>
        <time>2021-11-23T09:18:43.000Z</time>
      </trkpt>
      <trkpt lat="45.89545" lon="-1.27319">
        <ele>-17</ele>
        <time>2021-11-23T09:18:44.000Z</time>
      </trkpt>
      <trkpt lat="45.89548" lon="-1.27327">
        <ele>-17</ele>
        <time>2021-11-23T09:18:45.000Z</time>
      </trkpt>
      <trkpt lat="45.89558" lon="-1.27352">
        <ele>-17.60000038147</ele>
        <time>2021-11-23T09:18:48.000Z</time>
      </trkpt>
      <trkpt lat="45.89567" lon="-1.27377">
        <ele>-18.200000762939</ele>
        <time>2021-11-23T09:18:51.000Z</time>
      </trkpt>
      <trkpt lat="45.89583" lon="-1.2742">
        <ele>-18.60000038147</ele>
        <time>2021-11-23T09:18:56.000Z</time>
      </trkpt>
      <trkpt lat="45.89592" lon="-1.27445">
        <ele>-18.799999237061</ele>
        <time>2021-11-23T09:18:59.000Z</time>
      </trkpt>
      <trkpt lat="45.89604" lon="-1.2747">
        <ele>-19</ele>
        <time>2021-11-23T09:19:02.000Z</time>
      </trkpt>
      <trkpt lat="45.89613" lon="-1.27496">
        <ele>-19.39999961853</ele>
        <time>2021-11-23T09:19:05.000Z</time>
      </trkpt>
      <trkpt lat="45.89634" lon="-1.27548">
        <ele>-20.39999961853</ele>
        <time>2021-11-23T09:19:11.000Z</time>
      </trkpt>
      <trkpt lat="45.89662" lon="-1.27615">
        <ele>-20.39999961853</ele>
        <time>2021-11-23T09:19:19.000Z</time>
      </trkpt>
      <trkpt lat="45.89692" lon="-1.27689">
        <ele>-20</ele>
        <time>2021-11-23T09:19:28.000Z</time>
      </trkpt>
      <trkpt lat="45.89697" lon="-1.27702">
        <ele>-19.799999237061</ele>
        <time>2021-11-23T09:19:30.000Z</time>
      </trkpt>
      <trkpt lat="45.89705" lon="-1.27709">
        <ele>-19.60000038147</ele>
        <time>2021-11-23T09:19:32.000Z</time>
      </trkpt>
      <trkpt lat="45.89714" lon="-1.27709">
        <ele>-19.799999237061</ele>
        <time>2021-11-23T09:19:34.000Z</time>
      </trkpt>
      <trkpt lat="45.8972" lon="-1.27706">
        <ele>-19.799999237061</ele>
        <time>2021-11-23T09:19:35.000Z</time>
      </trkpt>
      <trkpt lat="45.8973" lon="-1.277">
        <ele>-19.799999237061</ele>
        <time>2021-11-23T09:19:37.000Z</time>
      </trkpt>
      <trkpt lat="45.89741" lon="-1.27692">
        <ele>-19.799999237061</ele>
        <time>2021-11-23T09:19:39.000Z</time>
      </trkpt>
      <trkpt lat="45.89747" lon="-1.27689">
        <ele>-19.799999237061</ele>
        <time>2021-11-23T09:19:40.000Z</time>
      </trkpt>
      <trkpt lat="45.89785" lon="-1.27658">
        <ele>-19.39999961853</ele>
        <time>2021-11-23T09:19:47.000Z</time>
      </trkpt>
      <trkpt lat="45.89809" lon="-1.2764">
        <ele>-19</ele>
        <time>2021-11-23T09:19:51.000Z</time>
      </trkpt>
      <trkpt lat="45.8984" lon="-1.27617">
        <ele>-18.60000038147</ele>
        <time>2021-11-23T09:19:56.000Z</time>
      </trkpt>
      <trkpt lat="45.8987" lon="-1.27594">
        <ele>-18.200000762939</ele>
        <time>2021-11-23T09:20:01.000Z</time>
      </trkpt>
      <trkpt lat="45.89889" lon="-1.27579">
        <ele>-17.799999237061</ele>
        <time>2021-11-23T09:20:04.000Z</time>
      </trkpt>
      <trkpt lat="45.89927" lon="-1.27549">
        <ele>-17.200000762939</ele>
        <time>2021-11-23T09:20:11.000Z</time>
      </trkpt>
      <trkpt lat="45.89935" lon="-1.27551">
        <ele>-17.200000762939</ele>
        <time>2021-11-23T09:20:13.000Z</time>
      </trkpt>
      <trkpt lat="45.89941" lon="-1.27564">
        <ele>-17.200000762939</ele>
        <time>2021-11-23T09:20:15.000Z</time>
      </trkpt>
      <trkpt lat="45.89947" lon="-1.2758">
        <ele>-17.200000762939</ele>
        <time>2021-11-23T09:20:17.000Z</time>
      </trkpt>
      <trkpt lat="45.89966" lon="-1.27626">
        <ele>-16.799999237061</ele>
        <time>2021-11-23T09:20:23.000Z</time>
      </trkpt>
      <trkpt lat="45.89981" lon="-1.2767">
        <ele>-16.799999237061</ele>
        <time>2021-11-23T09:20:28.000Z</time>
      </trkpt>
      <trkpt lat="45.89985" lon="-1.27678">
        <ele>-16.60000038147</ele>
        <time>2021-11-23T09:20:29.000Z</time>
      </trkpt>
      <trkpt lat="45.90022" lon="-1.2773">
        <ele>-16.60000038147</ele>
        <time>2021-11-23T09:20:37.000Z</time>
      </trkpt>
      <trkpt lat="45.90037" lon="-1.27747">
        <ele>-16.39999961853</ele>
        <time>2021-11-23T09:20:40.000Z</time>
      </trkpt>
      <trkpt lat="45.90058" lon="-1.27768">
        <ele>-16</ele>
        <time>2021-11-23T09:20:44.000Z</time>
      </trkpt>
      <trkpt lat="45.90088" lon="-1.27805">
        <ele>-15.60000038147</ele>
        <time>2021-11-23T09:20:50.000Z</time>
      </trkpt>
      <trkpt lat="45.90091" lon="-1.27812">
        <ele>-15.60000038147</ele>
        <time>2021-11-23T09:20:51.000Z</time>
      </trkpt>
      <trkpt lat="45.90099" lon="-1.27831">
        <ele>-15.60000038147</ele>
        <time>2021-11-23T09:20:53.000Z</time>
      </trkpt>
      <trkpt lat="45.90102" lon="-1.27841">
        <ele>-15.39999961853</ele>
        <time>2021-11-23T09:20:54.000Z</time>
      </trkpt>
      <trkpt lat="45.90111" lon="-1.27879">
        <ele>-14.800000190735</ele>
        <time>2021-11-23T09:20:58.000Z</time>
      </trkpt>
      <trkpt lat="45.90115" lon="-1.27888">
        <ele>-14.800000190735</ele>
        <time>2021-11-23T09:20:59.000Z</time>
      </trkpt>
      <trkpt lat="45.90146" lon="-1.27956">
        <ele>-14.800000190735</ele>
        <time>2021-11-23T09:21:07.000Z</time>
      </trkpt>
      <trkpt lat="45.9015" lon="-1.27965">
        <ele>-14.800000190735</ele>
        <time>2021-11-23T09:21:08.000Z</time>
      </trkpt>
      <trkpt lat="45.90183" lon="-1.28034">
        <ele>-15.60000038147</ele>
        <time>2021-11-23T09:21:16.000Z</time>
      </trkpt>
      <trkpt lat="45.90186" lon="-1.28043">
        <ele>-15.60000038147</ele>
        <time>2021-11-23T09:21:17.000Z</time>
      </trkpt>
      <trkpt lat="45.9019" lon="-1.28051">
        <ele>-15.60000038147</ele>
        <time>2021-11-23T09:21:18.000Z</time>
      </trkpt>
      <trkpt lat="45.90211" lon="-1.28093">
        <ele>-16</ele>
        <time>2021-11-23T09:21:23.000Z</time>
      </trkpt>
      <trkpt lat="45.90243" lon="-1.28136">
        <ele>-16.60000038147</ele>
        <time>2021-11-23T09:21:29.000Z</time>
      </trkpt>
      <trkpt lat="45.90248" lon="-1.28142">
        <ele>-16.60000038147</ele>
        <time>2021-11-23T09:21:30.000Z</time>
      </trkpt>
      <trkpt lat="45.90257" lon="-1.2815">
        <ele>-16.60000038147</ele>
        <time>2021-11-23T09:21:32.000Z</time>
      </trkpt>
      <trkpt lat="45.90272" lon="-1.28179">
        <ele>-16.60000038147</ele>
        <time>2021-11-23T09:21:36.000Z</time>
      </trkpt>
      <trkpt lat="45.90306" lon="-1.28231">
        <ele>-16.799999237061</ele>
        <time>2021-11-23T09:21:43.000Z</time>
      </trkpt>
      <trkpt lat="45.90318" lon="-1.28241">
        <ele>-17</ele>
        <time>2021-11-23T09:21:45.000Z</time>
      </trkpt>
      <trkpt lat="45.90325" lon="-1.28244">
        <ele>-17.200000762939</ele>
        <time>2021-11-23T09:21:46.000Z</time>
      </trkpt>
      <trkpt lat="45.90332" lon="-1.28247">
        <ele>-17.200000762939</ele>
        <time>2021-11-23T09:21:47.000Z</time>
      </trkpt>
      <trkpt lat="45.90365" lon="-1.28264">
        <ele>-17.39999961853</ele>
        <time>2021-11-23T09:21:52.000Z</time>
      </trkpt>
      <trkpt lat="45.9037" lon="-1.28269">
        <ele>-17.39999961853</ele>
        <time>2021-11-23T09:21:53.000Z</time>
      </trkpt>
      <trkpt lat="45.90418" lon="-1.28309">
        <ele>-17.60000038147</ele>
        <time>2021-11-23T09:22:01.000Z</time>
      </trkpt>
      <trkpt lat="45.90453" lon="-1.28335">
        <ele>-17.60000038147</ele>
        <time>2021-11-23T09:22:07.000Z</time>
      </trkpt>
      <trkpt lat="45.90463" lon="-1.28346">
        <ele>-17.799999237061</ele>
        <time>2021-11-23T09:22:09.000Z</time>
      </trkpt>
      <trkpt lat="45.90465" lon="-1.28361">
        <ele>-18</ele>
        <time>2021-11-23T09:22:11.000Z</time>
      </trkpt>
      <trkpt lat="45.9046" lon="-1.28374">
        <ele>-18</ele>
        <time>2021-11-23T09:22:13.000Z</time>
      </trkpt>
      <trkpt lat="45.90455" lon="-1.28381">
        <ele>-18</ele>
        <time>2021-11-23T09:22:14.000Z</time>
      </trkpt>
      <trkpt lat="45.90436" lon="-1.28422">
        <ele>-18.39999961853</ele>
        <time>2021-11-23T09:22:19.000Z</time>
      </trkpt>
      <trkpt lat="45.90435" lon="-1.2843">
        <ele>-18.60000038147</ele>
        <time>2021-11-23T09:22:20.000Z</time>
      </trkpt>
      <trkpt lat="45.90437" lon="-1.28438">
        <ele>-18.60000038147</ele>
        <time>2021-11-23T09:22:21.000Z</time>
      </trkpt>
      <trkpt lat="45.90446" lon="-1.28449">
        <ele>-18.60000038147</ele>
        <time>2021-11-23T09:22:23.000Z</time>
      </trkpt>
      <trkpt lat="45.90475" lon="-1.28474">
        <ele>-18.799999237061</ele>
        <time>2021-11-23T09:22:28.000Z</time>
      </trkpt>
      <trkpt lat="45.9048" lon="-1.28481">
        <ele>-18.799999237061</ele>
        <time>2021-11-23T09:22:29.000Z</time>
      </trkpt>
      <trkpt lat="45.90505" lon="-1.28528">
        <ele>-19.39999961853</ele>
        <time>2021-11-23T09:22:35.000Z</time>
      </trkpt>
      <trkpt lat="45.9054" lon="-1.28591">
        <ele>-19.39999961853</ele>
        <time>2021-11-23T09:22:43.000Z</time>
      </trkpt>
      <trkpt lat="45.9057" lon="-1.28642">
        <ele>-19.799999237061</ele>
        <time>2021-11-23T09:22:50.000Z</time>
      </trkpt>
      <trkpt lat="45.9059" lon="-1.28666">
        <ele>-19.799999237061</ele>
        <time>2021-11-23T09:22:54.000Z</time>
      </trkpt>
      <trkpt lat="45.90603" lon="-1.28674">
        <ele>-19.799999237061</ele>
        <time>2021-11-23T09:22:56.000Z</time>
      </trkpt>
      <trkpt lat="45.90636" lon="-1.28682">
        <ele>-19.799999237061</ele>
        <time>2021-11-23T09:23:01.000Z</time>
      </trkpt>
      <trkpt lat="45.90642" lon="-1.28684">
        <ele>-19.799999237061</ele>
        <time>2021-11-23T09:23:02.000Z</time>
      </trkpt>
      <trkpt lat="45.90648" lon="-1.28688">
        <ele>-19.60000038147</ele>
        <time>2021-11-23T09:23:03.000Z</time>
      </trkpt>
      <trkpt lat="45.90657" lon="-1.287">
        <ele>-19.799999237061</ele>
        <time>2021-11-23T09:23:05.000Z</time>
      </trkpt>
      <trkpt lat="45.90679" lon="-1.28736">
        <ele>-20</ele>
        <time>2021-11-23T09:23:10.000Z</time>
      </trkpt>
      <trkpt lat="45.90704" lon="-1.28772">
        <ele>-19.799999237061</ele>
        <time>2021-11-23T09:23:15.000Z</time>
      </trkpt>
      <trkpt lat="45.90709" lon="-1.28779">
        <ele>-19.799999237061</ele>
        <time>2021-11-23T09:23:16.000Z</time>
      </trkpt>
      <trkpt lat="45.90729" lon="-1.28808">
        <ele>-19.799999237061</ele>
        <time>2021-11-23T09:23:20.000Z</time>
      </trkpt>
      <trkpt lat="45.90738" lon="-1.28822">
        <ele>-19.60000038147</ele>
        <time>2021-11-23T09:23:22.000Z</time>
      </trkpt>
      <trkpt lat="45.9076" lon="-1.28851">
        <ele>-19.60000038147</ele>
        <time>2021-11-23T09:23:27.000Z</time>
      </trkpt>
      <trkpt lat="45.90785" lon="-1.2889">
        <ele>-19</ele>
        <time>2021-11-23T09:23:33.000Z</time>
      </trkpt>
      <trkpt lat="45.90789" lon="-1.28896">
        <ele>-19</ele>
        <time>2021-11-23T09:23:34.000Z</time>
      </trkpt>
      <trkpt lat="45.9083" lon="-1.28954">
        <ele>-18.39999961853</ele>
        <time>2021-11-23T09:23:43.000Z</time>
      </trkpt>
      <trkpt lat="45.9087" lon="-1.29006">
        <ele>-18.60000038147</ele>
        <time>2021-11-23T09:23:51.000Z</time>
      </trkpt>
      <trkpt lat="45.90911" lon="-1.29056">
        <ele>-18.60000038147</ele>
        <time>2021-11-23T09:23:59.000Z</time>
      </trkpt>
      <trkpt lat="45.90945" lon="-1.29099">
        <ele>-18.799999237061</ele>
        <time>2021-11-23T09:24:06.000Z</time>
      </trkpt>
      <trkpt lat="45.90979" lon="-1.2914">
        <ele>-18.799999237061</ele>
        <time>2021-11-23T09:24:13.000Z</time>
      </trkpt>
      <trkpt lat="45.91004" lon="-1.29173">
        <ele>-19</ele>
        <time>2021-11-23T09:24:19.000Z</time>
      </trkpt>
      <trkpt lat="45.91041" lon="-1.29217">
        <ele>-19</ele>
        <time>2021-11-23T09:24:27.000Z</time>
      </trkpt>
      <trkpt lat="45.91083" lon="-1.29269">
        <ele>-19.200000762939</ele>
        <time>2021-11-23T09:24:36.000Z</time>
      </trkpt>
      <trkpt lat="45.91116" lon="-1.29308">
        <ele>-19.39999961853</ele>
        <time>2021-11-23T09:24:43.000Z</time>
      </trkpt>
      <trkpt lat="45.91121" lon="-1.29311">
        <ele>-19.39999961853</ele>
        <time>2021-11-23T09:24:44.000Z</time>
      </trkpt>
      <trkpt lat="45.91127" lon="-1.29314">
        <ele>-19.60000038147</ele>
        <time>2021-11-23T09:24:45.000Z</time>
      </trkpt>
      <trkpt lat="45.91144" lon="-1.29322">
        <ele>-19.60000038147</ele>
        <time>2021-11-23T09:24:48.000Z</time>
      </trkpt>
      <trkpt lat="45.9115" lon="-1.29325">
        <ele>-19.799999237061</ele>
        <time>2021-11-23T09:24:49.000Z</time>
      </trkpt>
      <trkpt lat="45.9119" lon="-1.29345">
        <ele>-20.200000762939</ele>
        <time>2021-11-23T09:24:56.000Z</time>
      </trkpt>
      <trkpt lat="45.9122" lon="-1.2936">
        <ele>-20.39999961853</ele>
        <time>2021-11-23T09:25:02.000Z</time>
      </trkpt>
      <trkpt lat="45.91238" lon="-1.2937">
        <ele>-20.39999961853</ele>
        <time>2021-11-23T09:25:06.000Z</time>
      </trkpt>
      <trkpt lat="45.91241" lon="-1.29375">
        <ele>-20.39999961853</ele>
        <time>2021-11-23T09:25:07.000Z</time>
      </trkpt>
      <trkpt lat="45.91244" lon="-1.29381">
        <ele>-20.39999961853</ele>
        <time>2021-11-23T09:25:08.000Z</time>
      </trkpt>
      <trkpt lat="45.91247" lon="-1.2939">
        <ele>-20.39999961853</ele>
        <time>2021-11-23T09:25:09.000Z</time>
      </trkpt>
      <trkpt lat="45.9125" lon="-1.29407">
        <ele>-20.39999961853</ele>
        <time>2021-11-23T09:25:11.000Z</time>
      </trkpt>
      <trkpt lat="45.91256" lon="-1.29422">
        <ele>-20.39999961853</ele>
        <time>2021-11-23T09:25:13.000Z</time>
      </trkpt>
      <trkpt lat="45.91261" lon="-1.2943">
        <ele>-20.200000762939</ele>
        <time>2021-11-23T09:25:14.000Z</time>
      </trkpt>
      <trkpt lat="45.91264" lon="-1.29436">
        <ele>-20.200000762939</ele>
        <time>2021-11-23T09:25:15.000Z</time>
      </trkpt>
      <trkpt lat="45.91272" lon="-1.29454">
        <ele>-20.200000762939</ele>
        <time>2021-11-23T09:25:18.000Z</time>
      </trkpt>
      <trkpt lat="45.91273" lon="-1.29461">
        <ele>-20.200000762939</ele>
        <time>2021-11-23T09:25:19.000Z</time>
      </trkpt>
      <trkpt lat="45.91273" lon="-1.29466">
        <ele>-20.60000038147</ele>
        <time>2021-11-23T09:25:20.000Z</time>
      </trkpt>
      <trkpt lat="45.91269" lon="-1.29469">
        <ele>-20.60000038147</ele>
        <time>2021-11-23T09:25:21.000Z</time>
      </trkpt>
      <trkpt lat="45.9126" lon="-1.29466">
        <ele>-20.60000038147</ele>
        <time>2021-11-23T09:25:23.000Z</time>
      </trkpt>
      <trkpt lat="45.91255" lon="-1.29464">
        <ele>-20.799999237061</ele>
        <time>2021-11-23T09:25:24.000Z</time>
      </trkpt>
      <trkpt lat="45.91232" lon="-1.29454">
        <ele>-20.799999237061</ele>
        <time>2021-11-23T09:25:28.000Z</time>
      </trkpt>
      <trkpt lat="45.91221" lon="-1.29448">
        <ele>-21</ele>
        <time>2021-11-23T09:25:30.000Z</time>
      </trkpt>
      <trkpt lat="45.91197" lon="-1.29434">
        <ele>-21.200000762939</ele>
        <time>2021-11-23T09:25:34.000Z</time>
      </trkpt>
      <trkpt lat="45.91179" lon="-1.29426">
        <ele>-21.200000762939</ele>
        <time>2021-11-23T09:25:37.000Z</time>
      </trkpt>
      <trkpt lat="45.91166" lon="-1.29426">
        <ele>-21.200000762939</ele>
        <time>2021-11-23T09:25:39.000Z</time>
      </trkpt>
      <trkpt lat="45.91135" lon="-1.29439">
        <ele>-21.200000762939</ele>
        <time>2021-11-23T09:25:44.000Z</time>
      </trkpt>
      <trkpt lat="45.91112" lon="-1.29453">
        <ele>-21.200000762939</ele>
        <time>2021-11-23T09:25:48.000Z</time>
      </trkpt>
      <trkpt lat="45.91108" lon="-1.2946">
        <ele>-21.39999961853</ele>
        <time>2021-11-23T09:25:49.000Z</time>
      </trkpt>
      <trkpt lat="45.91105" lon="-1.29467">
        <ele>-21.200000762939</ele>
        <time>2021-11-23T09:25:50.000Z</time>
      </trkpt>
      <trkpt lat="45.91094" lon="-1.29489">
        <ele>-21</ele>
        <time>2021-11-23T09:25:53.000Z</time>
      </trkpt>
      <trkpt lat="45.91063" lon="-1.29547">
        <ele>-20.60000038147</ele>
        <time>2021-11-23T09:26:01.000Z</time>
      </trkpt>
      <trkpt lat="45.91056" lon="-1.29558">
        <ele>-20.60000038147</ele>
        <time>2021-11-23T09:26:03.000Z</time>
      </trkpt>
      <trkpt lat="45.91052" lon="-1.29572">
        <ele>-20.60000038147</ele>
        <time>2021-11-23T09:26:05.000Z</time>
      </trkpt>
      <trkpt lat="45.91048" lon="-1.29588">
        <ele>-20.799999237061</ele>
        <time>2021-11-23T09:26:07.000Z</time>
      </trkpt>
      <trkpt lat="45.91041" lon="-1.29601">
        <ele>-21</ele>
        <time>2021-11-23T09:26:09.000Z</time>
      </trkpt>
      <trkpt lat="45.91034" lon="-1.29612">
        <ele>-21</ele>
        <time>2021-11-23T09:26:11.000Z</time>
      </trkpt>
      <trkpt lat="45.91025" lon="-1.2962">
        <ele>-21.200000762939</ele>
        <time>2021-11-23T09:26:13.000Z</time>
      </trkpt>
      <trkpt lat="45.90994" lon="-1.29639">
        <ele>-21.200000762939</ele>
        <time>2021-11-23T09:26:19.000Z</time>
      </trkpt>
      <trkpt lat="45.9097" lon="-1.29648">
        <ele>-20.799999237061</ele>
        <time>2021-11-23T09:26:23.000Z</time>
      </trkpt>
      <trkpt lat="45.90964" lon="-1.29651">
        <ele>-20.799999237061</ele>
        <time>2021-11-23T09:26:24.000Z</time>
      </trkpt>
      <trkpt lat="45.90942" lon="-1.29659">
        <ele>-20.60000038147</ele>
        <time>2021-11-23T09:26:28.000Z</time>
      </trkpt>
      <trkpt lat="45.90921" lon="-1.29672">
        <ele>-20.39999961853</ele>
        <time>2021-11-23T09:26:32.000Z</time>
      </trkpt>
      <trkpt lat="45.9091" lon="-1.29677">
        <ele>-20.39999961853</ele>
        <time>2021-11-23T09:26:34.000Z</time>
      </trkpt>
      <trkpt lat="45.90898" lon="-1.2968">
        <ele>-20.39999961853</ele>
        <time>2021-11-23T09:26:36.000Z</time>
      </trkpt>
      <trkpt lat="45.90892" lon="-1.29681">
        <ele>-20.39999961853</ele>
        <time>2021-11-23T09:26:37.000Z</time>
      </trkpt>
      <trkpt lat="45.90879" lon="-1.29679">
        <ele>-20.39999961853</ele>
        <time>2021-11-23T09:26:39.000Z</time>
      </trkpt>
      <trkpt lat="45.9086" lon="-1.29674">
        <ele>-20.799999237061</ele>
        <time>2021-11-23T09:26:42.000Z</time>
      </trkpt>
      <trkpt lat="45.90845" lon="-1.29675">
        <ele>-21</ele>
        <time>2021-11-23T09:26:44.000Z</time>
      </trkpt>
      <trkpt lat="45.90814" lon="-1.29684">
        <ele>-21.200000762939</ele>
        <time>2021-11-23T09:26:49.000Z</time>
      </trkpt>
      <trkpt lat="45.90807" lon="-1.29688">
        <ele>-21.200000762939</ele>
        <time>2021-11-23T09:26:50.000Z</time>
      </trkpt>
      <trkpt lat="45.90801" lon="-1.29692">
        <ele>-21.39999961853</ele>
        <time>2021-11-23T09:26:51.000Z</time>
      </trkpt>
      <trkpt lat="45.9079" lon="-1.29701">
        <ele>-21.60000038147</ele>
        <time>2021-11-23T09:26:53.000Z</time>
      </trkpt>
      <trkpt lat="45.90779" lon="-1.29709">
        <ele>-22</ele>
        <time>2021-11-23T09:26:55.000Z</time>
      </trkpt>
      <trkpt lat="45.90774" lon="-1.29713">
        <ele>-22.200000762939</ele>
        <time>2021-11-23T09:26:56.000Z</time>
      </trkpt>
      <trkpt lat="45.90747" lon="-1.29737">
        <ele>-22.799999237061</ele>
        <time>2021-11-23T09:27:01.000Z</time>
      </trkpt>
      <trkpt lat="45.90743" lon="-1.29742">
        <ele>-22.799999237061</ele>
        <time>2021-11-23T09:27:02.000Z</time>
      </trkpt>
      <trkpt lat="45.90708" lon="-1.2978">
        <ele>-23</ele>
        <time>2021-11-23T09:27:09.000Z</time>
      </trkpt>
      <trkpt lat="45.90691" lon="-1.298">
        <ele>-22.799999237061</ele>
        <time>2021-11-23T09:27:13.000Z</time>
      </trkpt>
      <trkpt lat="45.90685" lon="-1.29804">
        <ele>-22.799999237061</ele>
        <time>2021-11-23T09:27:14.000Z</time>
      </trkpt>
      <trkpt lat="45.90676" lon="-1.29808">
        <ele>-23</ele>
        <time>2021-11-23T09:27:16.000Z</time>
      </trkpt>
      <trkpt lat="45.90668" lon="-1.2981">
        <ele>-22.799999237061</ele>
        <time>2021-11-23T09:27:18.000Z</time>
      </trkpt>
      <trkpt lat="45.90667" lon="-1.29819">
        <ele>-22.799999237061</ele>
        <time>2021-11-23T09:27:20.000Z</time>
      </trkpt>
      <trkpt lat="45.90683" lon="-1.29859">
        <ele>-22.60000038147</ele>
        <time>2021-11-23T09:27:26.000Z</time>
      </trkpt>
      <trkpt lat="45.90705" lon="-1.29913">
        <ele>-23</ele>
        <time>2021-11-23T09:27:33.000Z</time>
      </trkpt>
      <trkpt lat="45.90738" lon="-1.29984">
        <ele>-23.200000762939</ele>
        <time>2021-11-23T09:27:43.000Z</time>
      </trkpt>
      <trkpt lat="45.9076" lon="-1.30037">
        <ele>-23.200000762939</ele>
        <time>2021-11-23T09:27:50.000Z</time>
      </trkpt>
      <trkpt lat="45.9078" lon="-1.30083">
        <ele>-23</ele>
        <time>2021-11-23T09:27:56.000Z</time>
      </trkpt>
      <trkpt lat="45.90786" lon="-1.30097">
        <ele>-22.799999237061</ele>
        <time>2021-11-23T09:27:58.000Z</time>
      </trkpt>
      <trkpt lat="45.90801" lon="-1.30132">
        <ele>-22.60000038147</ele>
        <time>2021-11-23T09:28:03.000Z</time>
      </trkpt>
      <trkpt lat="45.90807" lon="-1.30146">
        <ele>-22.39999961853</ele>
        <time>2021-11-23T09:28:05.000Z</time>
      </trkpt>
      <trkpt lat="45.90819" lon="-1.30187">
        <ele>-21.200000762939</ele>
        <time>2021-11-23T09:28:11.000Z</time>
      </trkpt>
      <trkpt lat="45.90816" lon="-1.302">
        <ele>-20.799999237061</ele>
        <time>2021-11-23T09:28:13.000Z</time>
      </trkpt>
      <trkpt lat="45.90813" lon="-1.30204">
        <ele>-20.799999237061</ele>
        <time>2021-11-23T09:28:14.000Z</time>
      </trkpt>
      <trkpt lat="45.90806" lon="-1.30214">
        <ele>-20.799999237061</ele>
        <time>2021-11-23T09:28:16.000Z</time>
      </trkpt>
      <trkpt lat="45.90806" lon="-1.30219">
        <ele>-20.60000038147</ele>
        <time>2021-11-23T09:28:17.000Z</time>
      </trkpt>
      <trkpt lat="45.90807" lon="-1.30224">
        <ele>-20.39999961853</ele>
        <time>2021-11-23T09:28:18.000Z</time>
      </trkpt>
      <trkpt lat="45.90814" lon="-1.30235">
        <ele>-20.200000762939</ele>
        <time>2021-11-23T09:28:20.000Z</time>
      </trkpt>
      <trkpt lat="45.90817" lon="-1.30241">
        <ele>-20</ele>
        <time>2021-11-23T09:28:21.000Z</time>
      </trkpt>
      <trkpt lat="45.90828" lon="-1.30267">
        <ele>-19.799999237061</ele>
        <time>2021-11-23T09:28:25.000Z</time>
      </trkpt>
      <trkpt lat="45.90837" lon="-1.30294">
        <ele>-19</ele>
        <time>2021-11-23T09:28:29.000Z</time>
      </trkpt>
      <trkpt lat="45.9084" lon="-1.30299">
        <ele>-18.60000038147</ele>
        <time>2021-11-23T09:28:30.000Z</time>
      </trkpt>
      <trkpt lat="45.90846" lon="-1.30309">
        <ele>-18.39999961853</ele>
        <time>2021-11-23T09:28:32.000Z</time>
      </trkpt>
      <trkpt lat="45.90851" lon="-1.3032">
        <ele>-18.200000762939</ele>
        <time>2021-11-23T09:28:34.000Z</time>
      </trkpt>
      <trkpt lat="45.90852" lon="-1.30331">
        <ele>-18</ele>
        <time>2021-11-23T09:28:36.000Z</time>
      </trkpt>
      <trkpt lat="45.9085" lon="-1.30336">
        <ele>-17.799999237061</ele>
        <time>2021-11-23T09:28:37.000Z</time>
      </trkpt>
      <trkpt lat="45.90847" lon="-1.3034">
        <ele>-17.799999237061</ele>
        <time>2021-11-23T09:28:38.000Z</time>
      </trkpt>
      <trkpt lat="45.90838" lon="-1.30347">
        <ele>-17.799999237061</ele>
        <time>2021-11-23T09:28:40.000Z</time>
      </trkpt>
      <trkpt lat="45.90809" lon="-1.30368">
        <ele>-17.39999961853</ele>
        <time>2021-11-23T09:28:45.000Z</time>
      </trkpt>
      <trkpt lat="45.90803" lon="-1.30372">
        <ele>-17.200000762939</ele>
        <time>2021-11-23T09:28:46.000Z</time>
      </trkpt>
      <trkpt lat="45.90772" lon="-1.30394">
        <ele>-16.799999237061</ele>
        <time>2021-11-23T09:28:51.000Z</time>
      </trkpt>
      <trkpt lat="45.9073" lon="-1.30423">
        <ele>-16.60000038147</ele>
        <time>2021-11-23T09:28:58.000Z</time>
      </trkpt>
      <trkpt lat="45.90725" lon="-1.30427">
        <ele>-16.39999961853</ele>
        <time>2021-11-23T09:28:59.000Z</time>
      </trkpt>
      <trkpt lat="45.90719" lon="-1.3044">
        <ele>-16.39999961853</ele>
        <time>2021-11-23T09:29:01.000Z</time>
      </trkpt>
      <trkpt lat="45.90724" lon="-1.30453">
        <ele>-16.39999961853</ele>
        <time>2021-11-23T09:29:03.000Z</time>
      </trkpt>
      <trkpt lat="45.9073" lon="-1.30458">
        <ele>-16.39999961853</ele>
        <time>2021-11-23T09:29:04.000Z</time>
      </trkpt>
      <trkpt lat="45.90742" lon="-1.30467">
        <ele>-16.39999961853</ele>
        <time>2021-11-23T09:29:06.000Z</time>
      </trkpt>
      <trkpt lat="45.90747" lon="-1.30473">
        <ele>-16.39999961853</ele>
        <time>2021-11-23T09:29:07.000Z</time>
      </trkpt>
      <trkpt lat="45.90772" lon="-1.30505">
        <ele>-16.200000762939</ele>
        <time>2021-11-23T09:29:12.000Z</time>
      </trkpt>
      <trkpt lat="45.90776" lon="-1.30513">
        <ele>-16.200000762939</ele>
        <time>2021-11-23T09:29:13.000Z</time>
      </trkpt>
      <trkpt lat="45.9079" lon="-1.30534">
        <ele>-16.39999961853</ele>
        <time>2021-11-23T09:29:16.000Z</time>
      </trkpt>
      <trkpt lat="45.90795" lon="-1.30541">
        <ele>-16.39999961853</ele>
        <time>2021-11-23T09:29:17.000Z</time>
      </trkpt>
      <trkpt lat="45.90801" lon="-1.30546">
        <ele>-16.39999961853</ele>
        <time>2021-11-23T09:29:18.000Z</time>
      </trkpt>
      <trkpt lat="45.90838" lon="-1.30578">
        <ele>-16</ele>
        <time>2021-11-23T09:29:24.000Z</time>
      </trkpt>
      <trkpt lat="45.90868" lon="-1.30597">
        <ele>-15.800000190735</ele>
        <time>2021-11-23T09:29:29.000Z</time>
      </trkpt>
      <trkpt lat="45.90879" lon="-1.30605">
        <ele>-15.800000190735</ele>
        <time>2021-11-23T09:29:31.000Z</time>
      </trkpt>
      <trkpt lat="45.9089" lon="-1.30612">
        <ele>-15.800000190735</ele>
        <time>2021-11-23T09:29:33.000Z</time>
      </trkpt>
      <trkpt lat="45.90899" lon="-1.30624">
        <ele>-15.800000190735</ele>
        <time>2021-11-23T09:29:35.000Z</time>
      </trkpt>
      <trkpt lat="45.90911" lon="-1.30654">
        <ele>-15.60000038147</ele>
        <time>2021-11-23T09:29:39.000Z</time>
      </trkpt>
      <trkpt lat="45.90918" lon="-1.30667">
        <ele>-15.39999961853</ele>
        <time>2021-11-23T09:29:41.000Z</time>
      </trkpt>
      <trkpt lat="45.90943" lon="-1.30724">
        <ele>-15.39999961853</ele>
        <time>2021-11-23T09:29:49.000Z</time>
      </trkpt>
      <trkpt lat="45.90976" lon="-1.30793">
        <ele>-15</ele>
        <time>2021-11-23T09:29:58.000Z</time>
      </trkpt>
      <trkpt lat="45.91006" lon="-1.30855">
        <ele>-15.199999809265</ele>
        <time>2021-11-23T09:30:06.000Z</time>
      </trkpt>
      <trkpt lat="45.91026" lon="-1.30901">
        <ele>-15.60000038147</ele>
        <time>2021-11-23T09:30:12.000Z</time>
      </trkpt>
      <trkpt lat="45.91034" lon="-1.30921">
        <ele>-15.800000190735</ele>
        <time>2021-11-23T09:30:15.000Z</time>
      </trkpt>
      <trkpt lat="45.91038" lon="-1.30925">
        <ele>-15.60000038147</ele>
        <time>2021-11-23T09:30:16.000Z</time>
      </trkpt>
      <trkpt lat="45.91042" lon="-1.30925">
        <ele>-15.800000190735</ele>
        <time>2021-11-23T09:30:17.000Z</time>
      </trkpt>
      <trkpt lat="45.9105" lon="-1.3092">
        <ele>-16</ele>
        <time>2021-11-23T09:30:19.000Z</time>
      </trkpt>
      <trkpt lat="45.91054" lon="-1.30916">
        <ele>-16</ele>
        <time>2021-11-23T09:30:20.000Z</time>
      </trkpt>
      <trkpt lat="45.91068" lon="-1.30903">
        <ele>-16</ele>
        <time>2021-11-23T09:30:23.000Z</time>
      </trkpt>
      <trkpt lat="45.91089" lon="-1.30883">
        <ele>-16.799999237061</ele>
        <time>2021-11-23T09:30:27.000Z</time>
      </trkpt>
      <trkpt lat="45.91105" lon="-1.30868">
        <ele>-17</ele>
        <time>2021-11-23T09:30:30.000Z</time>
      </trkpt>
      <trkpt lat="45.91121" lon="-1.30852">
        <ele>-17</ele>
        <time>2021-11-23T09:30:33.000Z</time>
      </trkpt>
      <trkpt lat="45.91138" lon="-1.30839">
        <ele>-16.799999237061</ele>
        <time>2021-11-23T09:30:36.000Z</time>
      </trkpt>
      <trkpt lat="45.91164" lon="-1.30818">
        <ele>-16.39999961853</ele>
        <time>2021-11-23T09:30:41.000Z</time>
      </trkpt>
      <trkpt lat="45.91179" lon="-1.30803">
        <ele>-16.39999961853</ele>
        <time>2021-11-23T09:30:44.000Z</time>
      </trkpt>
      <trkpt lat="45.91221" lon="-1.30765">
        <ele>-16.60000038147</ele>
        <time>2021-11-23T09:30:52.000Z</time>
      </trkpt>
      <trkpt lat="45.91238" lon="-1.3075">
        <ele>-16.60000038147</ele>
        <time>2021-11-23T09:30:55.000Z</time>
      </trkpt>
      <trkpt lat="45.91255" lon="-1.30735">
        <ele>-16.60000038147</ele>
        <time>2021-11-23T09:30:58.000Z</time>
      </trkpt>
      <trkpt lat="45.91261" lon="-1.30731">
        <ele>-16.60000038147</ele>
        <time>2021-11-23T09:30:59.000Z</time>
      </trkpt>
      <trkpt lat="45.91272" lon="-1.30722">
        <ele>-16.60000038147</ele>
        <time>2021-11-23T09:31:01.000Z</time>
      </trkpt>
      <trkpt lat="45.913" lon="-1.30696">
        <ele>-16.60000038147</ele>
        <time>2021-11-23T09:31:06.000Z</time>
      </trkpt>
      <trkpt lat="45.91311" lon="-1.30687">
        <ele>-16.799999237061</ele>
        <time>2021-11-23T09:31:08.000Z</time>
      </trkpt>
      <trkpt lat="45.91345" lon="-1.30658">
        <ele>-16.60000038147</ele>
        <time>2021-11-23T09:31:14.000Z</time>
      </trkpt>
      <trkpt lat="45.91387" lon="-1.30622">
        <ele>-16.60000038147</ele>
        <time>2021-11-23T09:31:22.000Z</time>
      </trkpt>
      <trkpt lat="45.91391" lon="-1.3062">
        <ele>-16.60000038147</ele>
        <time>2021-11-23T09:31:23.000Z</time>
      </trkpt>
      <trkpt lat="45.91405" lon="-1.3061">
        <ele>-17</ele>
        <time>2021-11-23T09:31:26.000Z</time>
      </trkpt>
      <trkpt lat="45.91417" lon="-1.30604">
        <ele>-17.39999961853</ele>
        <time>2021-11-23T09:31:28.000Z</time>
      </trkpt>
      <trkpt lat="45.91435" lon="-1.30595">
        <ele>-17.60000038147</ele>
        <time>2021-11-23T09:31:31.000Z</time>
      </trkpt>
      <trkpt lat="45.91489" lon="-1.30568">
        <ele>-17.799999237061</ele>
        <time>2021-11-23T09:31:40.000Z</time>
      </trkpt>
      <trkpt lat="45.91509" lon="-1.30552">
        <ele>-18.200000762939</ele>
        <time>2021-11-23T09:31:44.000Z</time>
      </trkpt>
      <trkpt lat="45.91519" lon="-1.30545">
        <ele>-18.60000038147</ele>
        <time>2021-11-23T09:31:46.000Z</time>
      </trkpt>
      <trkpt lat="45.91554" lon="-1.3052">
        <ele>-18.60000038147</ele>
        <time>2021-11-23T09:31:53.000Z</time>
      </trkpt>
      <trkpt lat="45.91559" lon="-1.30517">
        <ele>-18.60000038147</ele>
        <time>2021-11-23T09:31:54.000Z</time>
      </trkpt>
      <trkpt lat="45.91569" lon="-1.3052">
        <ele>-18.60000038147</ele>
        <time>2021-11-23T09:31:56.000Z</time>
      </trkpt>
      <trkpt lat="45.9158" lon="-1.30534">
        <ele>-18.60000038147</ele>
        <time>2021-11-23T09:31:59.000Z</time>
      </trkpt>
      <trkpt lat="45.91586" lon="-1.30546">
        <ele>-18.39999961853</ele>
        <time>2021-11-23T09:32:01.000Z</time>
      </trkpt>
      <trkpt lat="45.91589" lon="-1.30552">
        <ele>-18.39999961853</ele>
        <time>2021-11-23T09:32:02.000Z</time>
      </trkpt>
      <trkpt lat="45.91601" lon="-1.30569">
        <ele>-18</ele>
        <time>2021-11-23T09:32:05.000Z</time>
      </trkpt>
      <trkpt lat="45.91606" lon="-1.30574">
        <ele>-17.799999237061</ele>
        <time>2021-11-23T09:32:06.000Z</time>
      </trkpt>
      <trkpt lat="45.91615" lon="-1.30585">
        <ele>-17.60000038147</ele>
        <time>2021-11-23T09:32:08.000Z</time>
      </trkpt>
      <trkpt lat="45.91632" lon="-1.30607">
        <ele>-17.39999961853</ele>
        <time>2021-11-23T09:32:12.000Z</time>
      </trkpt>
      <trkpt lat="45.91636" lon="-1.30614">
        <ele>-17.60000038147</ele>
        <time>2021-11-23T09:32:13.000Z</time>
      </trkpt>
      <trkpt lat="45.91656" lon="-1.30645">
        <ele>-17.200000762939</ele>
        <time>2021-11-23T09:32:18.000Z</time>
      </trkpt>
      <trkpt lat="45.91664" lon="-1.30657">
        <ele>-17.200000762939</ele>
        <time>2021-11-23T09:32:20.000Z</time>
      </trkpt>
      <trkpt lat="45.91675" lon="-1.3066">
        <ele>-17.200000762939</ele>
        <time>2021-11-23T09:32:22.000Z</time>
      </trkpt>
      <trkpt lat="45.91689" lon="-1.30653">
        <ele>-17.200000762939</ele>
        <time>2021-11-23T09:32:25.000Z</time>
      </trkpt>
      <trkpt lat="45.91694" lon="-1.30658">
        <ele>-17.200000762939</ele>
        <time>2021-11-23T09:32:27.000Z</time>
      </trkpt>
      <trkpt lat="45.91695" lon="-1.30665">
        <ele>-17</ele>
        <time>2021-11-23T09:32:28.000Z</time>
      </trkpt>
      <trkpt lat="45.91691" lon="-1.30679">
        <ele>-17</ele>
        <time>2021-11-23T09:32:30.000Z</time>
      </trkpt>
      <trkpt lat="45.91687" lon="-1.30695">
        <ele>-16.799999237061</ele>
        <time>2021-11-23T09:32:32.000Z</time>
      </trkpt>
      <trkpt lat="45.9169" lon="-1.30712">
        <ele>-16.799999237061</ele>
        <time>2021-11-23T09:32:34.000Z</time>
      </trkpt>
      <trkpt lat="45.91707" lon="-1.30749">
        <ele>-16.60000038147</ele>
        <time>2021-11-23T09:32:39.000Z</time>
      </trkpt>
      <trkpt lat="45.91731" lon="-1.30816">
        <ele>-17.39999961853</ele>
        <time>2021-11-23T09:32:47.000Z</time>
      </trkpt>
      <trkpt lat="45.91754" lon="-1.30873">
        <ele>-17.799999237061</ele>
        <time>2021-11-23T09:32:54.000Z</time>
      </trkpt>
      <trkpt lat="45.91757" lon="-1.30881">
        <ele>-18</ele>
        <time>2021-11-23T09:32:55.000Z</time>
      </trkpt>
      <trkpt lat="45.91763" lon="-1.30894">
        <ele>-18</ele>
        <time>2021-11-23T09:32:57.000Z</time>
      </trkpt>
      <trkpt lat="45.91767" lon="-1.30899">
        <ele>-18</ele>
        <time>2021-11-23T09:32:58.000Z</time>
      </trkpt>
      <trkpt lat="45.91772" lon="-1.30902">
        <ele>-18</ele>
        <time>2021-11-23T09:32:59.000Z</time>
      </trkpt>
      <trkpt lat="45.91783" lon="-1.30901">
        <ele>-17.799999237061</ele>
        <time>2021-11-23T09:33:01.000Z</time>
      </trkpt>
      <trkpt lat="45.91792" lon="-1.30893">
        <ele>-17.799999237061</ele>
        <time>2021-11-23T09:33:03.000Z</time>
      </trkpt>
      <trkpt lat="45.91797" lon="-1.30891">
        <ele>-18</ele>
        <time>2021-11-23T09:33:04.000Z</time>
      </trkpt>
      <trkpt lat="45.91803" lon="-1.3089">
        <ele>-18</ele>
        <time>2021-11-23T09:33:05.000Z</time>
      </trkpt>
      <trkpt lat="45.91811" lon="-1.30897">
        <ele>-18.39999961853</ele>
        <time>2021-11-23T09:33:07.000Z</time>
      </trkpt>
      <trkpt lat="45.91827" lon="-1.30932">
        <ele>-18.60000038147</ele>
        <time>2021-11-23T09:33:12.000Z</time>
      </trkpt>
      <trkpt lat="45.91834" lon="-1.30947">
        <ele>-18.799999237061</ele>
        <time>2021-11-23T09:33:14.000Z</time>
      </trkpt>
      <trkpt lat="45.91851" lon="-1.30981">
        <ele>-19.200000762939</ele>
        <time>2021-11-23T09:33:19.000Z</time>
      </trkpt>
      <trkpt lat="45.91861" lon="-1.31001">
        <ele>-19.60000038147</ele>
        <time>2021-11-23T09:33:22.000Z</time>
      </trkpt>
      <trkpt lat="45.9187" lon="-1.3101">
        <ele>-19.799999237061</ele>
        <time>2021-11-23T09:33:24.000Z</time>
      </trkpt>
      <trkpt lat="45.91881" lon="-1.31008">
        <ele>-20</ele>
        <time>2021-11-23T09:33:26.000Z</time>
      </trkpt>
      <trkpt lat="45.91884" lon="-1.31005">
        <ele>-20</ele>
        <time>2021-11-23T09:33:27.000Z</time>
      </trkpt>
      <trkpt lat="45.91889" lon="-1.31">
        <ele>-20.60000038147</ele>
        <time>2021-11-23T09:33:28.000Z</time>
      </trkpt>
      <trkpt lat="45.919" lon="-1.30985">
        <ele>-21</ele>
        <time>2021-11-23T09:33:31.000Z</time>
      </trkpt>
      <trkpt lat="45.9191" lon="-1.30981">
        <ele>-21</ele>
        <time>2021-11-23T09:33:33.000Z</time>
      </trkpt>
      <trkpt lat="45.91914" lon="-1.30983">
        <ele>-21</ele>
        <time>2021-11-23T09:33:34.000Z</time>
      </trkpt>
      <trkpt lat="45.91918" lon="-1.30987">
        <ele>-21</ele>
        <time>2021-11-23T09:33:35.000Z</time>
      </trkpt>
      <trkpt lat="45.91923" lon="-1.30998">
        <ele>-21</ele>
        <time>2021-11-23T09:33:37.000Z</time>
      </trkpt>
      <trkpt lat="45.91947" lon="-1.31051">
        <ele>-20.39999961853</ele>
        <time>2021-11-23T09:33:45.000Z</time>
      </trkpt>
      <trkpt lat="45.91963" lon="-1.31086">
        <ele>-20.799999237061</ele>
        <time>2021-11-23T09:33:50.000Z</time>
      </trkpt>
      <trkpt lat="45.91966" lon="-1.31093">
        <ele>-21</ele>
        <time>2021-11-23T09:33:51.000Z</time>
      </trkpt>
      <trkpt lat="45.91969" lon="-1.311">
        <ele>-21.39999961853</ele>
        <time>2021-11-23T09:33:52.000Z</time>
      </trkpt>
      <trkpt lat="45.91997" lon="-1.31167">
        <ele>-21.39999961853</ele>
        <time>2021-11-23T09:34:01.000Z</time>
      </trkpt>
      <trkpt lat="45.92027" lon="-1.31224">
        <ele>-21.39999961853</ele>
        <time>2021-11-23T09:34:09.000Z</time>
      </trkpt>
      <trkpt lat="45.92059" lon="-1.31281">
        <ele>-21.39999961853</ele>
        <time>2021-11-23T09:34:17.000Z</time>
      </trkpt>
      <trkpt lat="45.92074" lon="-1.31319">
        <ele>-21.39999961853</ele>
        <time>2021-11-23T09:34:22.000Z</time>
      </trkpt>
      <trkpt lat="45.92079" lon="-1.31333">
        <ele>-21.60000038147</ele>
        <time>2021-11-23T09:34:24.000Z</time>
      </trkpt>
      <trkpt lat="45.92082" lon="-1.31347">
        <ele>-21.60000038147</ele>
        <time>2021-11-23T09:34:26.000Z</time>
      </trkpt>
      <trkpt lat="45.92088" lon="-1.31355">
        <ele>-21.60000038147</ele>
        <time>2021-11-23T09:34:28.000Z</time>
      </trkpt>
      <trkpt lat="45.92102" lon="-1.31349">
        <ele>-21.60000038147</ele>
        <time>2021-11-23T09:34:31.000Z</time>
      </trkpt>
      <trkpt lat="45.92107" lon="-1.31345">
        <ele>-21.799999237061</ele>
        <time>2021-11-23T09:34:32.000Z</time>
      </trkpt>
      <trkpt lat="45.92119" lon="-1.31332">
        <ele>-21.799999237061</ele>
        <time>2021-11-23T09:34:35.000Z</time>
      </trkpt>
      <trkpt lat="45.92123" lon="-1.31329">
        <ele>-21.799999237061</ele>
        <time>2021-11-23T09:34:36.000Z</time>
      </trkpt>
      <trkpt lat="45.92131" lon="-1.31332">
        <ele>-21.799999237061</ele>
        <time>2021-11-23T09:34:38.000Z</time>
      </trkpt>
      <trkpt lat="45.92144" lon="-1.31351">
        <ele>-21.200000762939</ele>
        <time>2021-11-23T09:34:42.000Z</time>
      </trkpt>
      <trkpt lat="45.92148" lon="-1.31357">
        <ele>-21.200000762939</ele>
        <time>2021-11-23T09:34:43.000Z</time>
      </trkpt>
      <trkpt lat="45.92159" lon="-1.31372">
        <ele>-21</ele>
        <time>2021-11-23T09:34:46.000Z</time>
      </trkpt>
      <trkpt lat="45.92162" lon="-1.31377">
        <ele>-20.799999237061</ele>
        <time>2021-11-23T09:34:47.000Z</time>
      </trkpt>
      <trkpt lat="45.92173" lon="-1.31396">
        <ele>-20.60000038147</ele>
        <time>2021-11-23T09:34:50.000Z</time>
      </trkpt>
      <trkpt lat="45.92175" lon="-1.31403">
        <ele>-20.39999961853</ele>
        <time>2021-11-23T09:34:51.000Z</time>
      </trkpt>
      <trkpt lat="45.92176" lon="-1.31411">
        <ele>-20.39999961853</ele>
        <time>2021-11-23T09:34:52.000Z</time>
      </trkpt>
      <trkpt lat="45.92176" lon="-1.31427">
        <ele>-20.39999961853</ele>
        <time>2021-11-23T09:34:54.000Z</time>
      </trkpt>
      <trkpt lat="45.92178" lon="-1.31433">
        <ele>-20.39999961853</ele>
        <time>2021-11-23T09:34:55.000Z</time>
      </trkpt>
      <trkpt lat="45.92181" lon="-1.3144">
        <ele>-20.200000762939</ele>
        <time>2021-11-23T09:34:56.000Z</time>
      </trkpt>
      <trkpt lat="45.9219" lon="-1.31454">
        <ele>-20.200000762939</ele>
        <time>2021-11-23T09:34:58.000Z</time>
      </trkpt>
      <trkpt lat="45.92193" lon="-1.31461">
        <ele>-20.200000762939</ele>
        <time>2021-11-23T09:34:59.000Z</time>
      </trkpt>
      <trkpt lat="45.92197" lon="-1.31467">
        <ele>-20</ele>
        <time>2021-11-23T09:35:00.000Z</time>
      </trkpt>
      <trkpt lat="45.92214" lon="-1.31503">
        <ele>-19.799999237061</ele>
        <time>2021-11-23T09:35:05.000Z</time>
      </trkpt>
      <trkpt lat="45.92229" lon="-1.31528">
        <ele>-19.799999237061</ele>
        <time>2021-11-23T09:35:09.000Z</time>
      </trkpt>
      <trkpt lat="45.92234" lon="-1.31539">
        <ele>-19.799999237061</ele>
        <time>2021-11-23T09:35:11.000Z</time>
      </trkpt>
      <trkpt lat="45.92238" lon="-1.31544">
        <ele>-19.799999237061</ele>
        <time>2021-11-23T09:35:12.000Z</time>
      </trkpt>
      <trkpt lat="45.92241" lon="-1.31549">
        <ele>-19.60000038147</ele>
        <time>2021-11-23T09:35:13.000Z</time>
      </trkpt>
      <trkpt lat="45.92243" lon="-1.31555">
        <ele>-19.799999237061</ele>
        <time>2021-11-23T09:35:14.000Z</time>
      </trkpt>
      <trkpt lat="45.92243" lon="-1.31566">
        <ele>-19.799999237061</ele>
        <time>2021-11-23T09:35:16.000Z</time>
      </trkpt>
      <trkpt lat="45.92237" lon="-1.31576">
        <ele>-19.60000038147</ele>
        <time>2021-11-23T09:35:18.000Z</time>
      </trkpt>
      <trkpt lat="45.92227" lon="-1.31586">
        <ele>-19.200000762939</ele>
        <time>2021-11-23T09:35:20.000Z</time>
      </trkpt>
      <trkpt lat="45.92211" lon="-1.316">
        <ele>-19</ele>
        <time>2021-11-23T09:35:23.000Z</time>
      </trkpt>
      <trkpt lat="45.92198" lon="-1.31608">
        <ele>-19</ele>
        <time>2021-11-23T09:35:25.000Z</time>
      </trkpt>
      <trkpt lat="45.92186" lon="-1.31617">
        <ele>-19</ele>
        <time>2021-11-23T09:35:27.000Z</time>
      </trkpt>
      <trkpt lat="45.92174" lon="-1.31627">
        <ele>-18.799999237061</ele>
        <time>2021-11-23T09:35:29.000Z</time>
      </trkpt>
      <trkpt lat="45.92169" lon="-1.31633">
        <ele>-18.799999237061</ele>
        <time>2021-11-23T09:35:30.000Z</time>
      </trkpt>
      <trkpt lat="45.92128" lon="-1.31673">
        <ele>-18.39999961853</ele>
        <time>2021-11-23T09:35:37.000Z</time>
      </trkpt>
      <trkpt lat="45.92081" lon="-1.31718">
        <ele>-5.4000000953674</ele>
        <time>2021-11-23T09:35:45.000Z</time>
      </trkpt>
      <trkpt lat="45.92032" lon="-1.31768">
        <ele>-18.200000762939</ele>
        <time>2021-11-23T09:35:53.000Z</time>
      </trkpt>
      <trkpt lat="45.92007" lon="-1.31792">
        <ele>-18.200000762939</ele>
        <time>2021-11-23T09:35:57.000Z</time>
      </trkpt>
      <trkpt lat="45.91994" lon="-1.318">
        <ele>-18.200000762939</ele>
        <time>2021-11-23T09:35:59.000Z</time>
      </trkpt>
      <trkpt lat="45.91982" lon="-1.31811">
        <ele>-18.200000762939</ele>
        <time>2021-11-23T09:36:01.000Z</time>
      </trkpt>
      <trkpt lat="45.9197" lon="-1.31825">
        <ele>-18.200000762939</ele>
        <time>2021-11-23T09:36:03.000Z</time>
      </trkpt>
      <trkpt lat="45.91928" lon="-1.31884">
        <ele>-18.799999237061</ele>
        <time>2021-11-23T09:36:11.000Z</time>
      </trkpt>
      <trkpt lat="45.91923" lon="-1.31891">
        <ele>-18.799999237061</ele>
        <time>2021-11-23T09:36:12.000Z</time>
      </trkpt>
      <trkpt lat="45.91915" lon="-1.31908">
        <ele>-19</ele>
        <time>2021-11-23T09:36:14.000Z</time>
      </trkpt>
      <trkpt lat="45.91914" lon="-1.31918">
        <ele>-19.200000762939</ele>
        <time>2021-11-23T09:36:15.000Z</time>
      </trkpt>
      <trkpt lat="45.91916" lon="-1.31928">
        <ele>-19.200000762939</ele>
        <time>2021-11-23T09:36:16.000Z</time>
      </trkpt>
      <trkpt lat="45.91919" lon="-1.31937">
        <ele>-19</ele>
        <time>2021-11-23T09:36:17.000Z</time>
      </trkpt>
      <trkpt lat="45.91948" lon="-1.32014">
        <ele>-20</ele>
        <time>2021-11-23T09:36:25.000Z</time>
      </trkpt>
      <trkpt lat="45.91951" lon="-1.32024">
        <ele>-20</ele>
        <time>2021-11-23T09:36:26.000Z</time>
      </trkpt>
      <trkpt lat="45.9196" lon="-1.32051">
        <ele>-20.200000762939</ele>
        <time>2021-11-23T09:36:29.000Z</time>
      </trkpt>
      <trkpt lat="45.91972" lon="-1.32085">
        <ele>-20.39999961853</ele>
        <time>2021-11-23T09:36:33.000Z</time>
      </trkpt>
      <trkpt lat="45.91974" lon="-1.32094">
        <ele>-20.39999961853</ele>
        <time>2021-11-23T09:36:34.000Z</time>
      </trkpt>
      <trkpt lat="45.91972" lon="-1.32101">
        <ele>-20.39999961853</ele>
        <time>2021-11-23T09:36:35.000Z</time>
      </trkpt>
      <trkpt lat="45.91969" lon="-1.32108">
        <ele>-20.39999961853</ele>
        <time>2021-11-23T09:36:36.000Z</time>
      </trkpt>
      <trkpt lat="45.91964" lon="-1.32114">
        <ele>-20.60000038147</ele>
        <time>2021-11-23T09:36:37.000Z</time>
      </trkpt>
      <trkpt lat="45.91946" lon="-1.32132">
        <ele>-20.799999237061</ele>
        <time>2021-11-23T09:36:40.000Z</time>
      </trkpt>
      <trkpt lat="45.91928" lon="-1.32152">
        <ele>-20.799999237061</ele>
        <time>2021-11-23T09:36:43.000Z</time>
      </trkpt>
      <trkpt lat="45.91922" lon="-1.32155">
        <ele>-20.799999237061</ele>
        <time>2021-11-23T09:36:44.000Z</time>
      </trkpt>
      <trkpt lat="45.91915" lon="-1.32154">
        <ele>-21.200000762939</ele>
        <time>2021-11-23T09:36:45.000Z</time>
      </trkpt>
      <trkpt lat="45.9191" lon="-1.32148">
        <ele>-21</ele>
        <time>2021-11-23T09:36:46.000Z</time>
      </trkpt>
      <trkpt lat="45.91906" lon="-1.3214">
        <ele>-21.39999961853</ele>
        <time>2021-11-23T09:36:47.000Z</time>
      </trkpt>
      <trkpt lat="45.919" lon="-1.32122">
        <ele>-21.60000038147</ele>
        <time>2021-11-23T09:36:49.000Z</time>
      </trkpt>
      <trkpt lat="45.91897" lon="-1.32112">
        <ele>-21.60000038147</ele>
        <time>2021-11-23T09:36:50.000Z</time>
      </trkpt>
      <trkpt lat="45.91891" lon="-1.32093">
        <ele>-22</ele>
        <time>2021-11-23T09:36:52.000Z</time>
      </trkpt>
      <trkpt lat="45.91875" lon="-1.32035">
        <ele>-22.60000038147</ele>
        <time>2021-11-23T09:36:58.000Z</time>
      </trkpt>
      <trkpt lat="45.91866" lon="-1.32006">
        <ele>-22.60000038147</ele>
        <time>2021-11-23T09:37:01.000Z</time>
      </trkpt>
      <trkpt lat="45.9186" lon="-1.31988">
        <ele>-22.60000038147</ele>
        <time>2021-11-23T09:37:03.000Z</time>
      </trkpt>
      <trkpt lat="45.91847" lon="-1.31963">
        <ele>-22.60000038147</ele>
        <time>2021-11-23T09:37:06.000Z</time>
      </trkpt>
      <trkpt lat="45.91808" lon="-1.31903">
        <ele>-22.60000038147</ele>
        <time>2021-11-23T09:37:14.000Z</time>
      </trkpt>
      <trkpt lat="45.91765" lon="-1.31847">
        <ele>-22.200000762939</ele>
        <time>2021-11-23T09:37:22.000Z</time>
      </trkpt>
      <trkpt lat="45.9176" lon="-1.3184">
        <ele>-22.200000762939</ele>
        <time>2021-11-23T09:37:23.000Z</time>
      </trkpt>
      <trkpt lat="45.91718" lon="-1.31785">
        <ele>-22.39999961853</ele>
        <time>2021-11-23T09:37:31.000Z</time>
      </trkpt>
      <trkpt lat="45.91712" lon="-1.31778">
        <ele>-22.60000038147</ele>
        <time>2021-11-23T09:37:32.000Z</time>
      </trkpt>
      <trkpt lat="45.91701" lon="-1.31765">
        <ele>-22.60000038147</ele>
        <time>2021-11-23T09:37:34.000Z</time>
      </trkpt>
      <trkpt lat="45.91689" lon="-1.31757">
        <ele>-22.60000038147</ele>
        <time>2021-11-23T09:37:36.000Z</time>
      </trkpt>
      <trkpt lat="45.91655" lon="-1.31751">
        <ele>-22.799999237061</ele>
        <time>2021-11-23T09:37:41.000Z</time>
      </trkpt>
      <trkpt lat="45.91598" lon="-1.31744">
        <ele>-22.200000762939</ele>
        <time>2021-11-23T09:37:49.000Z</time>
      </trkpt>
      <trkpt lat="45.91591" lon="-1.31743">
        <ele>-22.200000762939</ele>
        <time>2021-11-23T09:37:50.000Z</time>
      </trkpt>
      <trkpt lat="45.91534" lon="-1.31734">
        <ele>-22</ele>
        <time>2021-11-23T09:37:58.000Z</time>
      </trkpt>
      <trkpt lat="45.91527" lon="-1.31732">
        <ele>-22</ele>
        <time>2021-11-23T09:37:59.000Z</time>
      </trkpt>
      <trkpt lat="45.91472" lon="-1.31709">
        <ele>-21.799999237061</ele>
        <time>2021-11-23T09:38:07.000Z</time>
      </trkpt>
      <trkpt lat="45.91424" lon="-1.31691">
        <ele>-22.200000762939</ele>
        <time>2021-11-23T09:38:14.000Z</time>
      </trkpt>
      <trkpt lat="45.91376" lon="-1.31687">
        <ele>-22.200000762939</ele>
        <time>2021-11-23T09:38:21.000Z</time>
      </trkpt>
      <trkpt lat="45.91339" lon="-1.31693">
        <ele>-21.60000038147</ele>
        <time>2021-11-23T09:38:26.000Z</time>
      </trkpt>
      <trkpt lat="45.91332" lon="-1.31696">
        <ele>-21.60000038147</ele>
        <time>2021-11-23T09:38:27.000Z</time>
      </trkpt>
      <trkpt lat="45.91326" lon="-1.31701">
        <ele>-21.60000038147</ele>
        <time>2021-11-23T09:38:28.000Z</time>
      </trkpt>
      <trkpt lat="45.913" lon="-1.31722">
        <ele>-21.60000038147</ele>
        <time>2021-11-23T09:38:32.000Z</time>
      </trkpt>
      <trkpt lat="45.91249" lon="-1.31755">
        <ele>-21.200000762939</ele>
        <time>2021-11-23T09:38:40.000Z</time>
      </trkpt>
      <trkpt lat="45.91239" lon="-1.31766">
        <ele>-21</ele>
        <time>2021-11-23T09:38:42.000Z</time>
      </trkpt>
      <trkpt lat="45.91231" lon="-1.3178">
        <ele>-21</ele>
        <time>2021-11-23T09:38:44.000Z</time>
      </trkpt>
      <trkpt lat="45.91223" lon="-1.31793">
        <ele>-20.799999237061</ele>
        <time>2021-11-23T09:38:46.000Z</time>
      </trkpt>
      <trkpt lat="45.91204" lon="-1.31816">
        <ele>-20.200000762939</ele>
        <time>2021-11-23T09:38:50.000Z</time>
      </trkpt>
      <trkpt lat="45.91199" lon="-1.31822">
        <ele>-20</ele>
        <time>2021-11-23T09:38:51.000Z</time>
      </trkpt>
      <trkpt lat="45.91177" lon="-1.31842">
        <ele>-19.39999961853</ele>
        <time>2021-11-23T09:38:56.000Z</time>
      </trkpt>
      <trkpt lat="45.91174" lon="-1.31847">
        <ele>-19.39999961853</ele>
        <time>2021-11-23T09:38:57.000Z</time>
      </trkpt>
      <trkpt lat="45.91173" lon="-1.31858">
        <ele>-19.39999961853</ele>
        <time>2021-11-23T09:38:59.000Z</time>
      </trkpt>
      <trkpt lat="45.91177" lon="-1.31872">
        <ele>-19.200000762939</ele>
        <time>2021-11-23T09:39:01.000Z</time>
      </trkpt>
      <trkpt lat="45.9118" lon="-1.31879">
        <ele>-19.200000762939</ele>
        <time>2021-11-23T09:39:02.000Z</time>
      </trkpt>
      <trkpt lat="45.91195" lon="-1.31921">
        <ele>-19</ele>
        <time>2021-11-23T09:39:07.000Z</time>
      </trkpt>
      <trkpt lat="45.91226" lon="-1.31987">
        <ele>-19</ele>
        <time>2021-11-23T09:39:15.000Z</time>
      </trkpt>
      <trkpt lat="45.91263" lon="-1.32056">
        <ele>-19</ele>
        <time>2021-11-23T09:39:24.000Z</time>
      </trkpt>
      <trkpt lat="45.91295" lon="-1.32118">
        <ele>-18.39999961853</ele>
        <time>2021-11-23T09:39:32.000Z</time>
      </trkpt>
      <trkpt lat="45.91299" lon="-1.32127">
        <ele>-18.39999961853</ele>
        <time>2021-11-23T09:39:33.000Z</time>
      </trkpt>
      <trkpt lat="45.91324" lon="-1.32178">
        <ele>-17.799999237061</ele>
        <time>2021-11-23T09:39:39.000Z</time>
      </trkpt>
      <trkpt lat="45.91361" lon="-1.32246">
        <ele>-17.60000038147</ele>
        <time>2021-11-23T09:39:48.000Z</time>
      </trkpt>
      <trkpt lat="45.91389" lon="-1.32292">
        <ele>-17.60000038147</ele>
        <time>2021-11-23T09:39:55.000Z</time>
      </trkpt>
      <trkpt lat="45.91393" lon="-1.32299">
        <ele>-17.39999961853</ele>
        <time>2021-11-23T09:39:56.000Z</time>
      </trkpt>
      <trkpt lat="45.9142" lon="-1.32344">
        <ele>-17.39999961853</ele>
        <time>2021-11-23T09:40:02.000Z</time>
      </trkpt>
      <trkpt lat="45.91428" lon="-1.32361">
        <ele>-17.200000762939</ele>
        <time>2021-11-23T09:40:04.000Z</time>
      </trkpt>
      <trkpt lat="45.91435" lon="-1.32386">
        <ele>-17.200000762939</ele>
        <time>2021-11-23T09:40:07.000Z</time>
      </trkpt>
      <trkpt lat="45.91447" lon="-1.32415">
        <ele>6.8</ele>
      </trkpt>
      <trkpt lat="45.91448" lon="-1.32415">
        <ele>6.7</ele>
      </trkpt>
      <trkpt lat="45.91457" lon="-1.32423">
        <ele>6.3</ele>
      </trkpt>
      <trkpt lat="45.91465" lon="-1.32444">
        <ele>6.5</ele>
      </trkpt>
      <trkpt lat="45.91469" lon="-1.32449">
        <ele>6.4</ele>
      </trkpt>
      <trkpt lat="45.91469" lon="-1.32457">
        <ele>6.7</ele>
      </trkpt>
      <trkpt lat="45.91479" lon="-1.32481">
        <ele>7.1</ele>
      </trkpt>
      <trkpt lat="45.91491" lon="-1.3251">
        <ele>7.3</ele>
      </trkpt>
      <trkpt lat="45.91508" lon="-1.32576">
        <ele>-17.60000038147</ele>
        <time>2021-11-23T09:40:42.000Z</time>
      </trkpt>
      <trkpt lat="45.9151" lon="-1.32585">
        <ele>-17.60000038147</ele>
        <time>2021-11-23T09:40:43.000Z</time>
      </trkpt>
      <trkpt lat="45.91521" lon="-1.32635">
        <ele>-17.200000762939</ele>
        <time>2021-11-23T09:40:48.000Z</time>
      </trkpt>
      <trkpt lat="45.91535" lon="-1.32681">
        <ele>-16.799999237061</ele>
        <time>2021-11-23T09:40:53.000Z</time>
      </trkpt>
      <trkpt lat="45.91536" lon="-1.3269">
        <ele>-16.799999237061</ele>
        <time>2021-11-23T09:40:54.000Z</time>
      </trkpt>
      <trkpt lat="45.9154" lon="-1.32717">
        <ele>-16.799999237061</ele>
        <time>2021-11-23T09:40:57.000Z</time>
      </trkpt>
      <trkpt lat="45.91545" lon="-1.32734">
        <ele>-16.799999237061</ele>
        <time>2021-11-23T09:40:59.000Z</time>
      </trkpt>
      <trkpt lat="45.91574" lon="-1.3281">
        <ele>-16.799999237061</ele>
        <time>2021-11-23T09:41:08.000Z</time>
      </trkpt>
      <trkpt lat="45.91586" lon="-1.3284">
        <ele>-17</ele>
        <time>2021-11-23T09:41:12.000Z</time>
      </trkpt>
      <trkpt lat="45.91594" lon="-1.32857">
        <ele>-17.200000762939</ele>
        <time>2021-11-23T09:41:15.000Z</time>
      </trkpt>
      <trkpt lat="45.91599" lon="-1.32865">
        <ele>-17.39999961853</ele>
        <time>2021-11-23T09:41:17.000Z</time>
      </trkpt>
      <trkpt lat="45.91614" lon="-1.32887">
        <ele>-17.60000038147</ele>
        <time>2021-11-23T09:41:21.000Z</time>
      </trkpt>
      <trkpt lat="45.91647" lon="-1.32937">
        <ele>-17.799999237061</ele>
        <time>2021-11-23T09:41:29.000Z</time>
      </trkpt>
      <trkpt lat="45.91666" lon="-1.32963">
        <ele>-17.799999237061</ele>
        <time>2021-11-23T09:41:34.000Z</time>
      </trkpt>
      <trkpt lat="45.91699" lon="-1.33005">
        <ele>3</ele>
      </trkpt>
      <trkpt lat="45.91761" lon="-1.32923">
        <ele>3.9</ele>
      </trkpt>
      <trkpt lat="45.9174" lon="-1.3287">
        <ele>-18.200000762939</ele>
        <time>2021-11-23T09:41:53.000Z</time>
      </trkpt>
      <trkpt lat="45.91735" lon="-1.32858">
        <ele>-18.200000762939</ele>
        <time>2021-11-23T09:41:55.000Z</time>
      </trkpt>
      <trkpt lat="45.91731" lon="-1.32851">
        <ele>-18</ele>
        <time>2021-11-23T09:41:56.000Z</time>
      </trkpt>
      <trkpt lat="45.91727" lon="-1.32845">
        <ele>-18</ele>
        <time>2021-11-23T09:41:57.000Z</time>
      </trkpt>
      <trkpt lat="45.91713" lon="-1.32814">
        <ele>-18</ele>
        <time>2021-11-23T09:42:01.000Z</time>
      </trkpt>
      <trkpt lat="45.91694" lon="-1.32768">
        <ele>-18.200000762939</ele>
        <time>2021-11-23T09:42:07.000Z</time>
      </trkpt>
      <trkpt lat="45.91692" lon="-1.32759">
        <ele>-18.200000762939</ele>
        <time>2021-11-23T09:42:08.000Z</time>
      </trkpt>
      <trkpt lat="45.91691" lon="-1.3275">
        <ele>-18.200000762939</ele>
        <time>2021-11-23T09:42:09.000Z</time>
      </trkpt>
      <trkpt lat="45.91694" lon="-1.32734">
        <ele>-18.200000762939</ele>
        <time>2021-11-23T09:42:11.000Z</time>
      </trkpt>
      <trkpt lat="45.91704" lon="-1.32713">
        <ele>-18.200000762939</ele>
        <time>2021-11-23T09:42:14.000Z</time>
      </trkpt>
      <trkpt lat="45.91706" lon="-1.32706">
        <ele>-18.200000762939</ele>
        <time>2021-11-23T09:42:15.000Z</time>
      </trkpt>
      <trkpt lat="45.91707" lon="-1.32698">
        <ele>-18.200000762939</ele>
        <time>2021-11-23T09:42:16.000Z</time>
      </trkpt>
      <trkpt lat="45.91704" lon="-1.32682">
        <ele>-18.200000762939</ele>
        <time>2021-11-23T09:42:18.000Z</time>
      </trkpt>
      <trkpt lat="45.91697" lon="-1.32651">
        <ele>-18.200000762939</ele>
        <time>2021-11-23T09:42:22.000Z</time>
      </trkpt>
      <trkpt lat="45.91699" lon="-1.32636">
        <ele>-18</ele>
        <time>2021-11-23T09:42:24.000Z</time>
      </trkpt>
      <trkpt lat="45.91712" lon="-1.32622">
        <ele>-18</ele>
        <time>2021-11-23T09:42:27.000Z</time>
      </trkpt>
      <trkpt lat="45.91756" lon="-1.32581">
        <ele>-17.200000762939</ele>
        <time>2021-11-23T09:42:36.000Z</time>
      </trkpt>
      <trkpt lat="45.91765" lon="-1.3257">
        <ele>-17.200000762939</ele>
        <time>2021-11-23T09:42:38.000Z</time>
      </trkpt>
      <trkpt lat="45.91795" lon="-1.32538">
        <ele>-16.799999237061</ele>
        <time>2021-11-23T09:42:44.000Z</time>
      </trkpt>
      <trkpt lat="45.91801" lon="-1.32536">
        <ele>-16.799999237061</ele>
        <time>2021-11-23T09:42:45.000Z</time>
      </trkpt>
      <trkpt lat="45.91807" lon="-1.32535">
        <ele>-16.799999237061</ele>
        <time>2021-11-23T09:42:46.000Z</time>
      </trkpt>
      <trkpt lat="45.91819" lon="-1.32538">
        <ele>-16.60000038147</ele>
        <time>2021-11-23T09:42:48.000Z</time>
      </trkpt>
      <trkpt lat="45.9183" lon="-1.32545">
        <ele>-16.39999961853</ele>
        <time>2021-11-23T09:42:50.000Z</time>
      </trkpt>
      <trkpt lat="45.91836" lon="-1.32545">
        <ele>-16.39999961853</ele>
        <time>2021-11-23T09:42:51.000Z</time>
      </trkpt>
      <trkpt lat="45.91841" lon="-1.32543">
        <ele>-16.39999961853</ele>
        <time>2021-11-23T09:42:52.000Z</time>
      </trkpt>
      <trkpt lat="45.91851" lon="-1.32532">
        <ele>-16.39999961853</ele>
        <time>2021-11-23T09:42:54.000Z</time>
      </trkpt>
      <trkpt lat="45.9187" lon="-1.32509">
        <ele>-16.39999961853</ele>
        <time>2021-11-23T09:42:58.000Z</time>
      </trkpt>
      <trkpt lat="45.91885" lon="-1.32494">
        <ele>-16.200000762939</ele>
        <time>2021-11-23T09:43:01.000Z</time>
      </trkpt>
      <trkpt lat="45.91896" lon="-1.32486">
        <ele>-16.200000762939</ele>
        <time>2021-11-23T09:43:03.000Z</time>
      </trkpt>
      <trkpt lat="45.91902" lon="-1.32484">
        <ele>-16.200000762939</ele>
        <time>2021-11-23T09:43:04.000Z</time>
      </trkpt>
      <trkpt lat="45.91933" lon="-1.32477">
        <ele>-15.800000190735</ele>
        <time>2021-11-23T09:43:09.000Z</time>
      </trkpt>
      <trkpt lat="45.9194" lon="-1.32477">
        <ele>-15.800000190735</ele>
        <time>2021-11-23T09:43:10.000Z</time>
      </trkpt>
      <trkpt lat="45.91953" lon="-1.3248">
        <ele>-15.60000038147</ele>
        <time>2021-11-23T09:43:12.000Z</time>
      </trkpt>
      <trkpt lat="45.91959" lon="-1.32483">
        <ele>-15.60000038147</ele>
        <time>2021-11-23T09:43:13.000Z</time>
      </trkpt>
      <trkpt lat="45.91972" lon="-1.32487">
        <ele>-15.800000190735</ele>
        <time>2021-11-23T09:43:15.000Z</time>
      </trkpt>
      <trkpt lat="45.91985" lon="-1.32486">
        <ele>-15.800000190735</ele>
        <time>2021-11-23T09:43:17.000Z</time>
      </trkpt>
      <trkpt lat="45.91996" lon="-1.32477">
        <ele>-15.800000190735</ele>
        <time>2021-11-23T09:43:19.000Z</time>
      </trkpt>
      <trkpt lat="45.92005" lon="-1.32465">
        <ele>-15.800000190735</ele>
        <time>2021-11-23T09:43:21.000Z</time>
      </trkpt>
      <trkpt lat="45.92041" lon="-1.32422">
        <ele>-16.39999961853</ele>
        <time>2021-11-23T09:43:29.000Z</time>
      </trkpt>
      <trkpt lat="45.92075" lon="-1.32396">
        <ele>-17.39999961853</ele>
        <time>2021-11-23T09:43:36.000Z</time>
      </trkpt>
      <trkpt lat="45.92086" lon="-1.32391">
        <ele>-17.39999961853</ele>
        <time>2021-11-23T09:43:38.000Z</time>
      </trkpt>
      <trkpt lat="45.92096" lon="-1.32391">
        <ele>-17.39999961853</ele>
        <time>2021-11-23T09:43:40.000Z</time>
      </trkpt>
      <trkpt lat="45.92105" lon="-1.32399">
        <ele>-17.60000038147</ele>
        <time>2021-11-23T09:43:42.000Z</time>
      </trkpt>
      <trkpt lat="45.92109" lon="-1.32405">
        <ele>-17.60000038147</ele>
        <time>2021-11-23T09:43:43.000Z</time>
      </trkpt>
      <trkpt lat="45.92138" lon="-1.32452">
        <ele>-18</ele>
        <time>2021-11-23T09:43:50.000Z</time>
      </trkpt>
      <trkpt lat="45.92174" lon="-1.32495">
        <ele>-18.200000762939</ele>
        <time>2021-11-23T09:43:57.000Z</time>
      </trkpt>
      <trkpt lat="45.92224" lon="-1.32539">
        <ele>-18</ele>
        <time>2021-11-23T09:44:06.000Z</time>
      </trkpt>
      <trkpt lat="45.92266" lon="-1.32561">
        <ele>-18</ele>
        <time>2021-11-23T09:44:13.000Z</time>
      </trkpt>
      <trkpt lat="45.92275" lon="-1.32573">
        <ele>-18</ele>
        <time>2021-11-23T09:44:15.000Z</time>
      </trkpt>
      <trkpt lat="45.92283" lon="-1.32588">
        <ele>-18</ele>
        <time>2021-11-23T09:44:17.000Z</time>
      </trkpt>
      <trkpt lat="45.92293" lon="-1.32612">
        <ele>-18</ele>
        <time>2021-11-23T09:44:20.000Z</time>
      </trkpt>
      <trkpt lat="45.92303" lon="-1.32623">
        <ele>-18</ele>
        <time>2021-11-23T09:44:22.000Z</time>
      </trkpt>
      <trkpt lat="45.92324" lon="-1.32642">
        <ele>-18</ele>
        <time>2021-11-23T09:44:26.000Z</time>
      </trkpt>
      <trkpt lat="45.92329" lon="-1.32648">
        <ele>-18</ele>
        <time>2021-11-23T09:44:27.000Z</time>
      </trkpt>
      <trkpt lat="45.92355" lon="-1.32685">
        <ele>-17.799999237061</ele>
        <time>2021-11-23T09:44:33.000Z</time>
      </trkpt>
      <trkpt lat="45.92364" lon="-1.32698">
        <ele>-18</ele>
        <time>2021-11-23T09:44:35.000Z</time>
      </trkpt>
      <trkpt lat="45.92376" lon="-1.32719">
        <ele>-18</ele>
        <time>2021-11-23T09:44:38.000Z</time>
      </trkpt>
      <trkpt lat="45.92399" lon="-1.32768">
        <ele>-18</ele>
        <time>2021-11-23T09:44:44.000Z</time>
      </trkpt>
      <trkpt lat="45.92428" lon="-1.32834">
        <ele>-18.39999961853</ele>
        <time>2021-11-23T09:44:52.000Z</time>
      </trkpt>
      <trkpt lat="45.92432" lon="-1.32842">
        <ele>-18.39999961853</ele>
        <time>2021-11-23T09:44:53.000Z</time>
      </trkpt>
      <trkpt lat="45.92444" lon="-1.32864">
        <ele>-18.60000038147</ele>
        <time>2021-11-23T09:44:56.000Z</time>
      </trkpt>
      <trkpt lat="45.92467" lon="-1.32897">
        <ele>-18.799999237061</ele>
        <time>2021-11-23T09:45:01.000Z</time>
      </trkpt>
      <trkpt lat="45.92477" lon="-1.32908">
        <ele>-19</ele>
        <time>2021-11-23T09:45:03.000Z</time>
      </trkpt>
      <trkpt lat="45.92494" lon="-1.32921">
        <ele>-19</ele>
        <time>2021-11-23T09:45:06.000Z</time>
      </trkpt>
      <trkpt lat="45.92506" lon="-1.32925">
        <ele>-19</ele>
        <time>2021-11-23T09:45:08.000Z</time>
      </trkpt>
      <trkpt lat="45.92531" lon="-1.32918">
        <ele>-19</ele>
        <time>2021-11-23T09:45:12.000Z</time>
      </trkpt>
      <trkpt lat="45.92564" lon="-1.32904">
        <ele>-19</ele>
        <time>2021-11-23T09:45:18.000Z</time>
      </trkpt>
      <trkpt lat="45.92585" lon="-1.32895">
        <ele>-18.799999237061</ele>
        <time>2021-11-23T09:45:22.000Z</time>
      </trkpt>
      <trkpt lat="45.92594" lon="-1.32887">
        <ele>-18.799999237061</ele>
        <time>2021-11-23T09:45:24.000Z</time>
      </trkpt>
      <trkpt lat="45.9262" lon="-1.32861">
        <ele>-19</ele>
        <time>2021-11-23T09:45:30.000Z</time>
      </trkpt>
      <trkpt lat="45.92639" lon="-1.32845">
        <ele>-19.200000762939</ele>
        <time>2021-11-23T09:45:34.000Z</time>
      </trkpt>
      <trkpt lat="45.92652" lon="-1.32832">
        <ele>-19.39999961853</ele>
        <time>2021-11-23T09:45:37.000Z</time>
      </trkpt>
      <trkpt lat="45.92661" lon="-1.32822">
        <ele>-19.200000762939</ele>
        <time>2021-11-23T09:45:39.000Z</time>
      </trkpt>
      <trkpt lat="45.9267" lon="-1.32813">
        <ele>-19.200000762939</ele>
        <time>2021-11-23T09:45:41.000Z</time>
      </trkpt>
      <trkpt lat="45.92674" lon="-1.32809">
        <ele>-19.39999961853</ele>
        <time>2021-11-23T09:45:42.000Z</time>
      </trkpt>
      <trkpt lat="45.92679" lon="-1.32805">
        <ele>-19.39999961853</ele>
        <time>2021-11-23T09:45:43.000Z</time>
      </trkpt>
      <trkpt lat="45.92689" lon="-1.32804">
        <ele>-19.39999961853</ele>
        <time>2021-11-23T09:45:45.000Z</time>
      </trkpt>
      <trkpt lat="45.92709" lon="-1.32814">
        <ele>-19.200000762939</ele>
        <time>2021-11-23T09:45:49.000Z</time>
      </trkpt>
      <trkpt lat="45.92719" lon="-1.32822">
        <ele>-19</ele>
        <time>2021-11-23T09:45:51.000Z</time>
      </trkpt>
      <trkpt lat="45.92728" lon="-1.32832">
        <ele>-19</ele>
        <time>2021-11-23T09:45:53.000Z</time>
      </trkpt>
      <trkpt lat="45.92732" lon="-1.32838">
        <ele>-18.799999237061</ele>
        <time>2021-11-23T09:45:54.000Z</time>
      </trkpt>
      <trkpt lat="45.92748" lon="-1.32864">
        <ele>-18.60000038147</ele>
        <time>2021-11-23T09:45:58.000Z</time>
      </trkpt>
      <trkpt lat="45.92779" lon="-1.32918">
        <ele>-18</ele>
        <time>2021-11-23T09:46:06.000Z</time>
      </trkpt>
      <trkpt lat="45.92783" lon="-1.32926">
        <ele>-18</ele>
        <time>2021-11-23T09:46:07.000Z</time>
      </trkpt>
      <trkpt lat="45.92805" lon="-1.32961">
        <ele>-17.60000038147</ele>
        <time>2021-11-23T09:46:12.000Z</time>
      </trkpt>
      <trkpt lat="45.92834" lon="-1.33008">
        <ele>-17.799999237061</ele>
        <time>2021-11-23T09:46:19.000Z</time>
      </trkpt>
      <trkpt lat="45.92837" lon="-1.33012">
        <ele>-17.799999237061</ele>
        <time>2021-11-23T09:46:20.000Z</time>
      </trkpt>
      <trkpt lat="45.92843" lon="-1.33021">
        <ele>-17.799999237061</ele>
        <time>2021-11-23T09:46:22.000Z</time>
      </trkpt>
      <trkpt lat="45.92845" lon="-1.33026">
        <ele>-17.799999237061</ele>
        <time>2021-11-23T09:46:23.000Z</time>
      </trkpt>
      <trkpt lat="45.92853" lon="-1.33066">
        <ele>-17.60000038147</ele>
        <time>2021-11-23T09:46:28.000Z</time>
      </trkpt>
      <trkpt lat="45.92862" lon="-1.33109">
        <ele>-17.60000038147</ele>
        <time>2021-11-23T09:46:33.000Z</time>
      </trkpt>
      <trkpt lat="45.92869" lon="-1.33163">
        <ele>-17.200000762939</ele>
        <time>2021-11-23T09:46:39.000Z</time>
      </trkpt>
      <trkpt lat="45.9287" lon="-1.33177">
        <ele>-17.200000762939</ele>
        <time>2021-11-23T09:46:41.000Z</time>
      </trkpt>
      <trkpt lat="45.92869" lon="-1.33181">
        <ele>-17.200000762939</ele>
        <time>2021-11-23T09:46:42.000Z</time>
      </trkpt>
      <trkpt lat="45.92868" lon="-1.33186">
        <ele>-16.799999237061</ele>
        <time>2021-11-23T09:46:44.000Z</time>
      </trkpt>
      <trkpt lat="45.92865" lon="-1.33189">
        <ele>-19.60000038147</ele>
        <time>2021-11-23T09:47:20.000Z</time>
      </trkpt>
      <trkpt lat="45.92849" lon="-1.33205">
        <ele>-19.799999237061</ele>
        <time>2021-11-23T09:47:24.000Z</time>
      </trkpt>
      <trkpt lat="45.92823" lon="-1.3323">
        <ele>-21</ele>
        <time>2021-11-23T09:47:29.000Z</time>
      </trkpt>
      <trkpt lat="45.9279" lon="-1.33265">
        <ele>-22</ele>
        <time>2021-11-23T09:47:35.000Z</time>
      </trkpt>
      <trkpt lat="45.92785" lon="-1.33271">
        <ele>-22</ele>
        <time>2021-11-23T09:47:36.000Z</time>
      </trkpt>
      <trkpt lat="45.92745" lon="-1.33313">
        <ele>-22.799999237061</ele>
        <time>2021-11-23T09:47:43.000Z</time>
      </trkpt>
      <trkpt lat="45.92738" lon="-1.33317">
        <ele>-22.799999237061</ele>
        <time>2021-11-23T09:47:44.000Z</time>
      </trkpt>
      <trkpt lat="45.92733" lon="-1.33317">
        <ele>-22.799999237061</ele>
        <time>2021-11-23T09:47:45.000Z</time>
      </trkpt>
      <trkpt lat="45.9272" lon="-1.33311">
        <ele>-22.799999237061</ele>
        <time>2021-11-23T09:47:47.000Z</time>
      </trkpt>
      <trkpt lat="45.92714" lon="-1.33309">
        <ele>-23</ele>
        <time>2021-11-23T09:47:48.000Z</time>
      </trkpt>
      <trkpt lat="45.92709" lon="-1.3331">
        <ele>-23</ele>
        <time>2021-11-23T09:47:49.000Z</time>
      </trkpt>
      <trkpt lat="45.92704" lon="-1.33314">
        <ele>-23</ele>
        <time>2021-11-23T09:47:50.000Z</time>
      </trkpt>
      <trkpt lat="45.92692" lon="-1.33328">
        <ele>-22.799999237061</ele>
        <time>2021-11-23T09:47:52.000Z</time>
      </trkpt>
      <trkpt lat="45.92654" lon="-1.33372">
        <ele>-22.799999237061</ele>
        <time>2021-11-23T09:47:59.000Z</time>
      </trkpt>
      <trkpt lat="45.92634" lon="-1.33396">
        <ele>-23.39999961853</ele>
        <time>2021-11-23T09:48:03.000Z</time>
      </trkpt>
      <trkpt lat="45.92632" lon="-1.33407">
        <ele>-23</ele>
        <time>2021-11-23T09:48:05.000Z</time>
      </trkpt>
      <trkpt lat="45.92633" lon="-1.33412">
        <ele>-22.799999237061</ele>
        <time>2021-11-23T09:48:06.000Z</time>
      </trkpt>
      <trkpt lat="45.92636" lon="-1.33418">
        <ele>-22.60000038147</ele>
        <time>2021-11-23T09:48:07.000Z</time>
      </trkpt>
      <trkpt lat="45.92643" lon="-1.33428">
        <ele>-22.39999961853</ele>
        <time>2021-11-23T09:48:09.000Z</time>
      </trkpt>
      <trkpt lat="45.92646" lon="-1.33435">
        <ele>-22.39999961853</ele>
        <time>2021-11-23T09:48:10.000Z</time>
      </trkpt>
      <trkpt lat="45.92653" lon="-1.33449">
        <ele>-22.200000762939</ele>
        <time>2021-11-23T09:48:12.000Z</time>
      </trkpt>
      <trkpt lat="45.92664" lon="-1.33471">
        <ele>-21.799999237061</ele>
        <time>2021-11-23T09:48:15.000Z</time>
      </trkpt>
      <trkpt lat="45.92683" lon="-1.33507">
        <ele>-21.60000038147</ele>
        <time>2021-11-23T09:48:20.000Z</time>
      </trkpt>
      <trkpt lat="45.92687" lon="-1.33515">
        <ele>-21.60000038147</ele>
        <time>2021-11-23T09:48:21.000Z</time>
      </trkpt>
      <trkpt lat="45.92702" lon="-1.33544">
        <ele>-21.60000038147</ele>
        <time>2021-11-23T09:48:25.000Z</time>
      </trkpt>
      <trkpt lat="45.92714" lon="-1.33566">
        <ele>-21.39999961853</ele>
        <time>2021-11-23T09:48:28.000Z</time>
      </trkpt>
      <trkpt lat="45.9273" lon="-1.33594">
        <ele>-21.200000762939</ele>
        <time>2021-11-23T09:48:32.000Z</time>
      </trkpt>
      <trkpt lat="45.92754" lon="-1.33637">
        <ele>-20.60000038147</ele>
        <time>2021-11-23T09:48:38.000Z</time>
      </trkpt>
      <trkpt lat="45.92759" lon="-1.33654">
        <ele>-20.39999961853</ele>
        <time>2021-11-23T09:48:40.000Z</time>
      </trkpt>
      <trkpt lat="45.92765" lon="-1.33669">
        <ele>-20.39999961853</ele>
        <time>2021-11-23T09:48:42.000Z</time>
      </trkpt>
      <trkpt lat="45.92775" lon="-1.33692">
        <ele>-20.39999961853</ele>
        <time>2021-11-23T09:48:45.000Z</time>
      </trkpt>
      <trkpt lat="45.92785" lon="-1.33705">
        <ele>-20.200000762939</ele>
        <time>2021-11-23T09:48:47.000Z</time>
      </trkpt>
      <trkpt lat="45.92813" lon="-1.33746">
        <ele>-19.799999237061</ele>
        <time>2021-11-23T09:48:53.000Z</time>
      </trkpt>
      <trkpt lat="45.92825" lon="-1.33768">
        <ele>-19.799999237061</ele>
        <time>2021-11-23T09:48:56.000Z</time>
      </trkpt>
      <trkpt lat="45.92843" lon="-1.33795">
        <ele>-19.799999237061</ele>
        <time>2021-11-23T09:49:00.000Z</time>
      </trkpt>
      <trkpt lat="45.92852" lon="-1.33808">
        <ele>-19.799999237061</ele>
        <time>2021-11-23T09:49:02.000Z</time>
      </trkpt>
      <trkpt lat="45.92859" lon="-1.33823">
        <ele>-19.799999237061</ele>
        <time>2021-11-23T09:49:04.000Z</time>
      </trkpt>
      <trkpt lat="45.92862" lon="-1.33829">
        <ele>-19.799999237061</ele>
        <time>2021-11-23T09:49:05.000Z</time>
      </trkpt>
      <trkpt lat="45.9289" lon="-1.33891">
        <ele>-20.200000762939</ele>
        <time>2021-11-23T09:49:13.000Z</time>
      </trkpt>
      <trkpt lat="45.92909" lon="-1.33944">
        <ele>-20.39999961853</ele>
        <time>2021-11-23T09:49:20.000Z</time>
      </trkpt>
      <trkpt lat="45.92917" lon="-1.33946">
        <ele>-20.39999961853</ele>
        <time>2021-11-23T09:49:22.000Z</time>
      </trkpt>
      <trkpt lat="45.92921" lon="-1.33942">
        <ele>-20.200000762939</ele>
        <time>2021-11-23T09:49:23.000Z</time>
      </trkpt>
      <trkpt lat="45.92926" lon="-1.33933">
        <ele>-20.39999961853</ele>
        <time>2021-11-23T09:49:25.000Z</time>
      </trkpt>
      <trkpt lat="45.92929" lon="-1.33928">
        <ele>-20.39999961853</ele>
        <time>2021-11-23T09:49:26.000Z</time>
      </trkpt>
      <trkpt lat="45.92937" lon="-1.33927">
        <ele>-20.39999961853</ele>
        <time>2021-11-23T09:49:28.000Z</time>
      </trkpt>
      <trkpt lat="45.92954" lon="-1.33948">
        <ele>-20.39999961853</ele>
        <time>2021-11-23T09:49:32.000Z</time>
      </trkpt>
      <trkpt lat="45.92983" lon="-1.33984">
        <ele>-20.799999237061</ele>
        <time>2021-11-23T09:49:38.000Z</time>
      </trkpt>
      <trkpt lat="45.92995" lon="-1.34004">
        <ele>-20.60000038147</ele>
        <time>2021-11-23T09:49:41.000Z</time>
      </trkpt>
      <trkpt lat="45.93" lon="-1.34021">
        <ele>-20</ele>
        <time>2021-11-23T09:49:43.000Z</time>
      </trkpt>
      <trkpt lat="45.93004" lon="-1.34036">
        <ele>-19.60000038147</ele>
        <time>2021-11-23T09:49:45.000Z</time>
      </trkpt>
      <trkpt lat="45.93007" lon="-1.34045">
        <ele>-19.39999961853</ele>
        <time>2021-11-23T09:49:46.000Z</time>
      </trkpt>
      <trkpt lat="45.93011" lon="-1.34052">
        <ele>-19.39999961853</ele>
        <time>2021-11-23T09:49:47.000Z</time>
      </trkpt>
      <trkpt lat="45.93014" lon="-1.34059">
        <ele>-19.39999961853</ele>
        <time>2021-11-23T09:49:48.000Z</time>
      </trkpt>
      <trkpt lat="45.93022" lon="-1.34071">
        <ele>-19.200000762939</ele>
        <time>2021-11-23T09:49:50.000Z</time>
      </trkpt>
      <trkpt lat="45.93032" lon="-1.34083">
        <ele>-19.200000762939</ele>
        <time>2021-11-23T09:49:52.000Z</time>
      </trkpt>
      <trkpt lat="45.93036" lon="-1.34087">
        <ele>-19.200000762939</ele>
        <time>2021-11-23T09:49:53.000Z</time>
      </trkpt>
      <trkpt lat="45.9305" lon="-1.34107">
        <ele>-19.200000762939</ele>
        <time>2021-11-23T09:49:56.000Z</time>
      </trkpt>
      <trkpt lat="45.93078" lon="-1.34156">
        <ele>-18.60000038147</ele>
        <time>2021-11-23T09:50:03.000Z</time>
      </trkpt>
      <trkpt lat="45.93082" lon="-1.34164">
        <ele>-18.39999961853</ele>
        <time>2021-11-23T09:50:04.000Z</time>
      </trkpt>
      <trkpt lat="45.93093" lon="-1.3419">
        <ele>-18.39999961853</ele>
        <time>2021-11-23T09:50:07.000Z</time>
      </trkpt>
      <trkpt lat="45.93097" lon="-1.34196">
        <ele>-18.39999961853</ele>
        <time>2021-11-23T09:50:08.000Z</time>
      </trkpt>
      <trkpt lat="45.93129" lon="-1.34224">
        <ele>-18.200000762939</ele>
        <time>2021-11-23T09:50:14.000Z</time>
      </trkpt>
      <trkpt lat="45.93136" lon="-1.34228">
        <ele>-18.200000762939</ele>
        <time>2021-11-23T09:50:15.000Z</time>
      </trkpt>
      <trkpt lat="45.93163" lon="-1.34249">
        <ele>-17.799999237061</ele>
        <time>2021-11-23T09:50:20.000Z</time>
      </trkpt>
      <trkpt lat="45.93168" lon="-1.34254">
        <ele>-17.39999961853</ele>
        <time>2021-11-23T09:50:21.000Z</time>
      </trkpt>
      <trkpt lat="45.93177" lon="-1.34265">
        <ele>-17.200000762939</ele>
        <time>2021-11-23T09:50:23.000Z</time>
      </trkpt>
      <trkpt lat="45.93185" lon="-1.3428">
        <ele>-16.799999237061</ele>
        <time>2021-11-23T09:50:25.000Z</time>
      </trkpt>
      <trkpt lat="45.93203" lon="-1.34316">
        <ele>-16.39999961853</ele>
        <time>2021-11-23T09:50:30.000Z</time>
      </trkpt>
      <trkpt lat="45.9321" lon="-1.3433">
        <ele>-16.39999961853</ele>
        <time>2021-11-23T09:50:32.000Z</time>
      </trkpt>
      <trkpt lat="45.93213" lon="-1.34338">
        <ele>-16.39999961853</ele>
        <time>2021-11-23T09:50:33.000Z</time>
      </trkpt>
      <trkpt lat="45.93218" lon="-1.34356">
        <ele>-16.39999961853</ele>
        <time>2021-11-23T09:50:35.000Z</time>
      </trkpt>
      <trkpt lat="45.93221" lon="-1.34364">
        <ele>-16.200000762939</ele>
        <time>2021-11-23T09:50:36.000Z</time>
      </trkpt>
      <trkpt lat="45.93246" lon="-1.34409">
        <ele>-15.800000190735</ele>
        <time>2021-11-23T09:50:42.000Z</time>
      </trkpt>
      <trkpt lat="45.93258" lon="-1.34454">
        <ele>-15.800000190735</ele>
        <time>2021-11-23T09:50:47.000Z</time>
      </trkpt>
      <trkpt lat="45.93268" lon="-1.34511">
        <ele>-15.60000038147</ele>
        <time>2021-11-23T09:50:53.000Z</time>
      </trkpt>
      <trkpt lat="45.93271" lon="-1.34521">
        <ele>-15.60000038147</ele>
        <time>2021-11-23T09:50:54.000Z</time>
      </trkpt>
      <trkpt lat="45.93273" lon="-1.34529">
        <ele>-15.39999961853</ele>
        <time>2021-11-23T09:50:55.000Z</time>
      </trkpt>
      <trkpt lat="45.93274" lon="-1.34546">
        <ele>-15.199999809265</ele>
        <time>2021-11-23T09:50:57.000Z</time>
      </trkpt>
      <trkpt lat="45.93273" lon="-1.34567">
        <ele>-15.199999809265</ele>
        <time>2021-11-23T09:50:59.000Z</time>
      </trkpt>
      <trkpt lat="45.93271" lon="-1.34636">
        <ele>-15</ele>
        <time>2021-11-23T09:51:06.000Z</time>
      </trkpt>
      <trkpt lat="45.93273" lon="-1.34645">
        <ele>-15</ele>
        <time>2021-11-23T09:51:07.000Z</time>
      </trkpt>
      <trkpt lat="45.93277" lon="-1.34653">
        <ele>-15</ele>
        <time>2021-11-23T09:51:08.000Z</time>
      </trkpt>
      <trkpt lat="45.93288" lon="-1.34666">
        <ele>-15</ele>
        <time>2021-11-23T09:51:10.000Z</time>
      </trkpt>
      <trkpt lat="45.93321" lon="-1.3471">
        <ele>-15.199999809265</ele>
        <time>2021-11-23T09:51:17.000Z</time>
      </trkpt>
      <trkpt lat="45.93344" lon="-1.34745">
        <ele>-15.39999961853</ele>
        <time>2021-11-23T09:51:22.000Z</time>
      </trkpt>
      <trkpt lat="45.93355" lon="-1.34759">
        <ele>-15.199999809265</ele>
        <time>2021-11-23T09:51:24.000Z</time>
      </trkpt>
      <trkpt lat="45.93391" lon="-1.34813">
        <ele>-15.39999961853</ele>
        <time>2021-11-23T09:51:32.000Z</time>
      </trkpt>
      <trkpt lat="45.93421" lon="-1.34853">
        <ele>-15.800000190735</ele>
        <time>2021-11-23T09:51:38.000Z</time>
      </trkpt>
      <trkpt lat="45.93444" lon="-1.34886">
        <ele>-16.200000762939</ele>
        <time>2021-11-23T09:51:43.000Z</time>
      </trkpt>
      <trkpt lat="45.93448" lon="-1.34894">
        <ele>-16.200000762939</ele>
        <time>2021-11-23T09:51:44.000Z</time>
      </trkpt>
      <trkpt lat="45.93484" lon="-1.34947">
        <ele>-16.200000762939</ele>
        <time>2021-11-23T09:51:52.000Z</time>
      </trkpt>
      <trkpt lat="45.93501" lon="-1.34975">
        <ele>-16.39999961853</ele>
        <time>2021-11-23T09:51:56.000Z</time>
      </trkpt>
      <trkpt lat="45.93516" lon="-1.34996">
        <ele>-16.799999237061</ele>
        <time>2021-11-23T09:51:59.000Z</time>
      </trkpt>
      <trkpt lat="45.93525" lon="-1.35007">
        <ele>-16.799999237061</ele>
        <time>2021-11-23T09:52:01.000Z</time>
      </trkpt>
      <trkpt lat="45.93553" lon="-1.35047">
        <ele>-16.799999237061</ele>
        <time>2021-11-23T09:52:07.000Z</time>
      </trkpt>
      <trkpt lat="45.93571" lon="-1.35071">
        <ele>-16.60000038147</ele>
        <time>2021-11-23T09:52:11.000Z</time>
      </trkpt>
      <trkpt lat="45.93579" lon="-1.35087">
        <ele>-16.60000038147</ele>
        <time>2021-11-23T09:52:13.000Z</time>
      </trkpt>
      <trkpt lat="45.93594" lon="-1.35121">
        <ele>-16.39999961853</ele>
        <time>2021-11-23T09:52:18.000Z</time>
      </trkpt>
      <trkpt lat="45.93601" lon="-1.35133">
        <ele>-16.39999961853</ele>
        <time>2021-11-23T09:52:20.000Z</time>
      </trkpt>
      <trkpt lat="45.93605" lon="-1.35139">
        <ele>-16.39999961853</ele>
        <time>2021-11-23T09:52:21.000Z</time>
      </trkpt>
      <trkpt lat="45.93624" lon="-1.35167">
        <ele>-16.39999961853</ele>
        <time>2021-11-23T09:52:25.000Z</time>
      </trkpt>
      <trkpt lat="45.93651" lon="-1.35209">
        <ele>-16.799999237061</ele>
        <time>2021-11-23T09:52:31.000Z</time>
      </trkpt>
      <trkpt lat="45.93685" lon="-1.35256">
        <ele>-17.200000762939</ele>
        <time>2021-11-23T09:52:38.000Z</time>
      </trkpt>
      <trkpt lat="45.937" lon="-1.35267">
        <ele>-17</ele>
        <time>2021-11-23T09:52:41.000Z</time>
      </trkpt>
      <trkpt lat="45.93706" lon="-1.35266">
        <ele>-17</ele>
        <time>2021-11-23T09:52:42.000Z</time>
      </trkpt>
      <trkpt lat="45.9371" lon="-1.35264">
        <ele>-17</ele>
        <time>2021-11-23T09:52:43.000Z</time>
      </trkpt>
      <trkpt lat="45.93718" lon="-1.35266">
        <ele>-17</ele>
        <time>2021-11-23T09:52:45.000Z</time>
      </trkpt>
      <trkpt lat="45.93733" lon="-1.35288">
        <ele>-17</ele>
        <time>2021-11-23T09:52:49.000Z</time>
      </trkpt>
      <trkpt lat="45.93737" lon="-1.35295">
        <ele>-16.799999237061</ele>
        <time>2021-11-23T09:52:50.000Z</time>
      </trkpt>
      <trkpt lat="45.93753" lon="-1.35321">
        <ele>-17.200000762939</ele>
        <time>2021-11-23T09:52:54.000Z</time>
      </trkpt>
      <trkpt lat="45.93761" lon="-1.35332">
        <ele>-17</ele>
        <time>2021-11-23T09:52:56.000Z</time>
      </trkpt>
      <trkpt lat="45.93785" lon="-1.35369">
        <ele>-17</ele>
        <time>2021-11-23T09:53:02.000Z</time>
      </trkpt>
      <trkpt lat="45.93786" lon="-1.35375">
        <ele>-17</ele>
        <time>2021-11-23T09:53:03.000Z</time>
      </trkpt>
      <trkpt lat="45.93786" lon="-1.3538">
        <ele>-17</ele>
        <time>2021-11-23T09:53:04.000Z</time>
      </trkpt>
      <trkpt lat="45.93786" lon="-1.35394">
        <ele>-17</ele>
        <time>2021-11-23T09:53:06.000Z</time>
      </trkpt>
      <trkpt lat="45.93787" lon="-1.35402">
        <ele>-17</ele>
        <time>2021-11-23T09:53:07.000Z</time>
      </trkpt>
      <trkpt lat="45.93791" lon="-1.35409">
        <ele>-17</ele>
        <time>2021-11-23T09:53:08.000Z</time>
      </trkpt>
      <trkpt lat="45.93798" lon="-1.3542">
        <ele>-17.39999961853</ele>
        <time>2021-11-23T09:53:10.000Z</time>
      </trkpt>
      <trkpt lat="45.93813" lon="-1.35448">
        <ele>-17.799999237061</ele>
        <time>2021-11-23T09:53:14.000Z</time>
      </trkpt>
      <trkpt lat="45.93821" lon="-1.35465">
        <ele>-18</ele>
        <time>2021-11-23T09:53:16.000Z</time>
      </trkpt>
      <trkpt lat="45.93825" lon="-1.35472">
        <ele>-18</ele>
        <time>2021-11-23T09:53:17.000Z</time>
      </trkpt>
      <trkpt lat="45.93836" lon="-1.35488">
        <ele>-18</ele>
        <time>2021-11-23T09:53:20.000Z</time>
      </trkpt>
      <trkpt lat="45.9384" lon="-1.35496">
        <ele>-18</ele>
        <time>2021-11-23T09:53:21.000Z</time>
      </trkpt>
      <trkpt lat="45.93864" lon="-1.35535">
        <ele>-18</ele>
        <time>2021-11-23T09:53:27.000Z</time>
      </trkpt>
      <trkpt lat="45.93891" lon="-1.35583">
        <ele>-18</ele>
        <time>2021-11-23T09:53:34.000Z</time>
      </trkpt>
      <trkpt lat="45.93904" lon="-1.35606">
        <ele>-18.39999961853</ele>
        <time>2021-11-23T09:53:37.000Z</time>
      </trkpt>
      <trkpt lat="45.93913" lon="-1.35617">
        <ele>-18.60000038147</ele>
        <time>2021-11-23T09:53:39.000Z</time>
      </trkpt>
      <trkpt lat="45.93942" lon="-1.35655">
        <ele>-18.799999237061</ele>
        <time>2021-11-23T09:53:45.000Z</time>
      </trkpt>
      <trkpt lat="45.93975" lon="-1.35699">
        <ele>-19</ele>
        <time>2021-11-23T09:53:52.000Z</time>
      </trkpt>
      <trkpt lat="45.93982" lon="-1.35713">
        <ele>-18.799999237061</ele>
        <time>2021-11-23T09:53:54.000Z</time>
      </trkpt>
      <trkpt lat="45.93983" lon="-1.35728">
        <ele>-19.200000762939</ele>
        <time>2021-11-23T09:53:56.000Z</time>
      </trkpt>
      <trkpt lat="45.93977" lon="-1.35739">
        <ele>-19.200000762939</ele>
        <time>2021-11-23T09:53:58.000Z</time>
      </trkpt>
      <trkpt lat="45.93972" lon="-1.35745">
        <ele>-19.39999961853</ele>
        <time>2021-11-23T09:53:59.000Z</time>
      </trkpt>
      <trkpt lat="45.93932" lon="-1.35802">
        <ele>-19.799999237061</ele>
        <time>2021-11-23T09:54:07.000Z</time>
      </trkpt>
      <trkpt lat="45.93914" lon="-1.35824">
        <ele>-20.200000762939</ele>
        <time>2021-11-23T09:54:11.000Z</time>
      </trkpt>
      <trkpt lat="45.93905" lon="-1.35835">
        <ele>-20.60000038147</ele>
        <time>2021-11-23T09:54:13.000Z</time>
      </trkpt>
      <trkpt lat="45.93905" lon="-1.35849">
        <ele>-20.799999237061</ele>
        <time>2021-11-23T09:54:15.000Z</time>
      </trkpt>
      <trkpt lat="45.93911" lon="-1.35861">
        <ele>-21</ele>
        <time>2021-11-23T09:54:17.000Z</time>
      </trkpt>
      <trkpt lat="45.93915" lon="-1.35865">
        <ele>-21</ele>
        <time>2021-11-23T09:54:18.000Z</time>
      </trkpt>
      <trkpt lat="45.93945" lon="-1.35905">
        <ele>-21.200000762939</ele>
        <time>2021-11-23T09:54:24.000Z</time>
      </trkpt>
      <trkpt lat="45.93984" lon="-1.35949">
        <ele>-21.200000762939</ele>
        <time>2021-11-23T09:54:31.000Z</time>
      </trkpt>
      <trkpt lat="45.93991" lon="-1.35957">
        <ele>-21.200000762939</ele>
        <time>2021-11-23T09:54:32.000Z</time>
      </trkpt>
      <trkpt lat="45.94012" lon="-1.35981">
        <ele>-20.799999237061</ele>
        <time>2021-11-23T09:54:36.000Z</time>
      </trkpt>
      <trkpt lat="45.94051" lon="-1.3602">
        <ele>-20.39999961853</ele>
        <time>2021-11-23T09:54:43.000Z</time>
      </trkpt>
      <trkpt lat="45.94079" lon="-1.3605">
        <ele>-19.799999237061</ele>
        <time>2021-11-23T09:54:48.000Z</time>
      </trkpt>
      <trkpt lat="45.94089" lon="-1.36063">
        <ele>-19.39999961853</ele>
        <time>2021-11-23T09:54:50.000Z</time>
      </trkpt>
      <trkpt lat="45.9411" lon="-1.36087">
        <ele>-18.60000038147</ele>
        <time>2021-11-23T09:54:54.000Z</time>
      </trkpt>
      <trkpt lat="45.94121" lon="-1.36101">
        <ele>-18.200000762939</ele>
        <time>2021-11-23T09:54:56.000Z</time>
      </trkpt>
      <trkpt lat="45.94144" lon="-1.36123">
        <ele>-18.200000762939</ele>
        <time>2021-11-23T09:55:00.000Z</time>
      </trkpt>
      <trkpt lat="45.9415" lon="-1.36127">
        <ele>-18.200000762939</ele>
        <time>2021-11-23T09:55:01.000Z</time>
      </trkpt>
      <trkpt lat="45.94167" lon="-1.36139">
        <ele>-17.60000038147</ele>
        <time>2021-11-23T09:55:04.000Z</time>
      </trkpt>
      <trkpt lat="45.94192" lon="-1.36152">
        <ele>-17.39999961853</ele>
        <time>2021-11-23T09:55:08.000Z</time>
      </trkpt>
      <trkpt lat="45.94222" lon="-1.36166">
        <ele>-16.799999237061</ele>
        <time>2021-11-23T09:55:13.000Z</time>
      </trkpt>
      <trkpt lat="45.94228" lon="-1.36169">
        <ele>-16.799999237061</ele>
        <time>2021-11-23T09:55:14.000Z</time>
      </trkpt>
      <trkpt lat="45.94244" lon="-1.36175">
        <ele>-16.799999237061</ele>
        <time>2021-11-23T09:55:17.000Z</time>
      </trkpt>
      <trkpt lat="45.9425" lon="-1.36176">
        <ele>-16.39999961853</ele>
        <time>2021-11-23T09:55:18.000Z</time>
      </trkpt>
      <trkpt lat="45.94272" lon="-1.36182">
        <ele>-16.39999961853</ele>
        <time>2021-11-23T09:55:22.000Z</time>
      </trkpt>
      <trkpt lat="45.94289" lon="-1.36192">
        <ele>-16.39999961853</ele>
        <time>2021-11-23T09:55:25.000Z</time>
      </trkpt>
      <trkpt lat="45.94293" lon="-1.36196">
        <ele>-16.200000762939</ele>
        <time>2021-11-23T09:55:26.000Z</time>
      </trkpt>
      <trkpt lat="45.94298" lon="-1.36209">
        <ele>-16.200000762939</ele>
        <time>2021-11-23T09:55:28.000Z</time>
      </trkpt>
      <trkpt lat="45.94303" lon="-1.3622">
        <ele>-16.60000038147</ele>
        <time>2021-11-23T09:55:30.000Z</time>
      </trkpt>
      <trkpt lat="45.94307" lon="-1.36221">
        <ele>-16.799999237061</ele>
        <time>2021-11-23T09:55:31.000Z</time>
      </trkpt>
      <trkpt lat="45.9431" lon="-1.36221">
        <ele>-17</ele>
        <time>2021-11-23T09:55:32.000Z</time>
      </trkpt>
      <trkpt lat="45.94321" lon="-1.36215">
        <ele>-17.39999961853</ele>
        <time>2021-11-23T09:55:34.000Z</time>
      </trkpt>
      <trkpt lat="45.94326" lon="-1.36212">
        <ele>-17.39999961853</ele>
        <time>2021-11-23T09:55:35.000Z</time>
      </trkpt>
      <trkpt lat="45.94331" lon="-1.36209">
        <ele>-17.39999961853</ele>
        <time>2021-11-23T09:55:36.000Z</time>
      </trkpt>
      <trkpt lat="45.94341" lon="-1.36203">
        <ele>-17.60000038147</ele>
        <time>2021-11-23T09:55:38.000Z</time>
      </trkpt>
      <trkpt lat="45.94351" lon="-1.36198">
        <ele>-17.799999237061</ele>
        <time>2021-11-23T09:55:40.000Z</time>
      </trkpt>
      <trkpt lat="45.9436" lon="-1.36193">
        <ele>-17.799999237061</ele>
        <time>2021-11-23T09:55:42.000Z</time>
      </trkpt>
      <trkpt lat="45.94374" lon="-1.36185">
        <ele>-17.200000762939</ele>
        <time>2021-11-23T09:55:45.000Z</time>
      </trkpt>
      <trkpt lat="45.94379" lon="-1.36183">
        <ele>-17.200000762939</ele>
        <time>2021-11-23T09:55:46.000Z</time>
      </trkpt>
      <trkpt lat="45.94389" lon="-1.36182">
        <ele>-17.200000762939</ele>
        <time>2021-11-23T09:55:48.000Z</time>
      </trkpt>
      <trkpt lat="45.94399" lon="-1.36179">
        <ele>-17.39999961853</ele>
        <time>2021-11-23T09:55:50.000Z</time>
      </trkpt>
      <trkpt lat="45.94404" lon="-1.36178">
        <ele>-17.39999961853</ele>
        <time>2021-11-23T09:55:51.000Z</time>
      </trkpt>
      <trkpt lat="45.94452" lon="-1.36167">
        <ele>-18.200000762939</ele>
        <time>2021-11-23T09:56:00.000Z</time>
      </trkpt>
      <trkpt lat="45.94482" lon="-1.36149">
        <ele>-18.39999961853</ele>
        <time>2021-11-23T09:56:06.000Z</time>
      </trkpt>
      <trkpt lat="45.9449" lon="-1.3614">
        <ele>-18.60000038147</ele>
        <time>2021-11-23T09:56:08.000Z</time>
      </trkpt>
      <trkpt lat="45.94494" lon="-1.36135">
        <ele>-18.60000038147</ele>
        <time>2021-11-23T09:56:09.000Z</time>
      </trkpt>
      <trkpt lat="45.9451" lon="-1.36105">
        <ele>-19</ele>
        <time>2021-11-23T09:56:14.000Z</time>
      </trkpt>
      <trkpt lat="45.94517" lon="-1.36099">
        <ele>-19</ele>
        <time>2021-11-23T09:56:16.000Z</time>
      </trkpt>
      <trkpt lat="45.94522" lon="-1.361">
        <ele>-19</ele>
        <time>2021-11-23T09:56:17.000Z</time>
      </trkpt>
      <trkpt lat="45.94526" lon="-1.36103">
        <ele>-19</ele>
        <time>2021-11-23T09:56:18.000Z</time>
      </trkpt>
      <trkpt lat="45.94546" lon="-1.36113">
        <ele>-19.39999961853</ele>
        <time>2021-11-23T09:56:22.000Z</time>
      </trkpt>
      <trkpt lat="45.94574" lon="-1.36127">
        <ele>-19.39999961853</ele>
        <time>2021-11-23T09:56:27.000Z</time>
      </trkpt>
      <trkpt lat="45.94579" lon="-1.36127">
        <ele>-19.39999961853</ele>
        <time>2021-11-23T09:56:28.000Z</time>
      </trkpt>
      <trkpt lat="45.94582" lon="-1.36125">
        <ele>-19.60000038147</ele>
        <time>2021-11-23T09:56:29.000Z</time>
      </trkpt>
      <trkpt lat="45.94584" lon="-1.36121">
        <ele>-19.799999237061</ele>
        <time>2021-11-23T09:56:30.000Z</time>
      </trkpt>
      <trkpt lat="45.94591" lon="-1.36095">
        <ele>-20</ele>
        <time>2021-11-23T09:56:34.000Z</time>
      </trkpt>
      <trkpt lat="45.94593" lon="-1.36089">
        <ele>-20</ele>
        <time>2021-11-23T09:56:35.000Z</time>
      </trkpt>
      <trkpt lat="45.94605" lon="-1.36037">
        <ele>-19.39999961853</ele>
        <time>2021-11-23T09:56:42.000Z</time>
      </trkpt>
      <trkpt lat="45.94619" lon="-1.35979">
        <ele>-19.200000762939</ele>
        <time>2021-11-23T09:56:50.000Z</time>
      </trkpt>
      <trkpt lat="45.94635" lon="-1.35908">
        <ele>-19.39999961853</ele>
        <time>2021-11-23T09:56:59.000Z</time>
      </trkpt>
      <trkpt lat="45.9465" lon="-1.35851">
        <ele>-19.200000762939</ele>
        <time>2021-11-23T09:57:07.000Z</time>
      </trkpt>
      <trkpt lat="45.94652" lon="-1.35845">
        <ele>-19.200000762939</ele>
        <time>2021-11-23T09:57:08.000Z</time>
      </trkpt>
      <trkpt lat="45.94657" lon="-1.35825">
        <ele>-19.60000038147</ele>
        <time>2021-11-23T09:57:11.000Z</time>
      </trkpt>
      <trkpt lat="45.94663" lon="-1.3581">
        <ele>-19.60000038147</ele>
        <time>2021-11-23T09:57:13.000Z</time>
      </trkpt>
      <trkpt lat="45.94665" lon="-1.35802">
        <ele>-19.60000038147</ele>
        <time>2021-11-23T09:57:14.000Z</time>
      </trkpt>
      <trkpt lat="45.94674" lon="-1.35761">
        <ele>-19.799999237061</ele>
        <time>2021-11-23T09:57:19.000Z</time>
      </trkpt>
      <trkpt lat="45.94683" lon="-1.35722">
        <ele>-19.799999237061</ele>
        <time>2021-11-23T09:57:24.000Z</time>
      </trkpt>
      <trkpt lat="45.94687" lon="-1.35707">
        <ele>-19.799999237061</ele>
        <time>2021-11-23T09:57:26.000Z</time>
      </trkpt>
      <trkpt lat="45.94695" lon="-1.35682">
        <ele>-20</ele>
        <time>2021-11-23T09:57:29.000Z</time>
      </trkpt>
      <trkpt lat="45.94701" lon="-1.35668">
        <ele>-20</ele>
        <time>2021-11-23T09:57:31.000Z</time>
      </trkpt>
      <trkpt lat="45.94712" lon="-1.35645">
        <ele>-20</ele>
        <time>2021-11-23T09:57:34.000Z</time>
      </trkpt>
      <trkpt lat="45.94722" lon="-1.35619">
        <ele>-19.799999237061</ele>
        <time>2021-11-23T09:57:37.000Z</time>
      </trkpt>
      <trkpt lat="45.9474" lon="-1.3558">
        <ele>-19.60000038147</ele>
        <time>2021-11-23T09:57:42.000Z</time>
      </trkpt>
      <trkpt lat="45.94746" lon="-1.35565">
        <ele>-19.60000038147</ele>
        <time>2021-11-23T09:57:44.000Z</time>
      </trkpt>
      <trkpt lat="45.94755" lon="-1.35552">
        <ele>-19.60000038147</ele>
        <time>2021-11-23T09:57:46.000Z</time>
      </trkpt>
      <trkpt lat="45.94772" lon="-1.35527">
        <ele>-19.200000762939</ele>
        <time>2021-11-23T09:57:50.000Z</time>
      </trkpt>
      <trkpt lat="45.9479" lon="-1.35502">
        <ele>-19</ele>
        <time>2021-11-23T09:57:55.000Z</time>
      </trkpt>
      <trkpt lat="45.94793" lon="-1.35498">
        <ele>-19</ele>
        <time>2021-11-23T09:57:56.000Z</time>
      </trkpt>
      <trkpt lat="45.94804" lon="-1.35478">
        <ele>-18.799999237061</ele>
        <time>2021-11-23T09:57:59.000Z</time>
      </trkpt>
      <trkpt lat="45.94807" lon="-1.35474">
        <ele>-18.799999237061</ele>
        <time>2021-11-23T09:58:00.000Z</time>
      </trkpt>
      <trkpt lat="45.94815" lon="-1.35464">
        <ele>-18.799999237061</ele>
        <time>2021-11-23T09:58:02.000Z</time>
      </trkpt>
      <trkpt lat="45.94827" lon="-1.35446">
        <ele>-18.39999961853</ele>
        <time>2021-11-23T09:58:05.000Z</time>
      </trkpt>
      <trkpt lat="45.94835" lon="-1.35442">
        <ele>-18.200000762939</ele>
        <time>2021-11-23T09:58:07.000Z</time>
      </trkpt>
      <trkpt lat="45.9484" lon="-1.35444">
        <ele>-18</ele>
        <time>2021-11-23T09:58:08.000Z</time>
      </trkpt>
      <trkpt lat="45.94854" lon="-1.35453">
        <ele>-17.799999237061</ele>
        <time>2021-11-23T09:58:11.000Z</time>
      </trkpt>
      <trkpt lat="45.94873" lon="-1.35465">
        <ele>-17.799999237061</ele>
        <time>2021-11-23T09:58:14.000Z</time>
      </trkpt>
      <trkpt lat="45.94878" lon="-1.35466">
        <ele>-17.60000038147</ele>
        <time>2021-11-23T09:58:15.000Z</time>
      </trkpt>
      <trkpt lat="45.94886" lon="-1.35466">
        <ele>-17.799999237061</ele>
        <time>2021-11-23T09:58:16.000Z</time>
      </trkpt>
      <trkpt lat="45.94899" lon="-1.35461">
        <ele>-17.799999237061</ele>
        <time>2021-11-23T09:58:18.000Z</time>
      </trkpt>
      <trkpt lat="45.94925" lon="-1.35439">
        <ele>-17.60000038147</ele>
        <time>2021-11-23T09:58:23.000Z</time>
      </trkpt>
      <trkpt lat="45.94965" lon="-1.35402">
        <ele>-17.39999961853</ele>
        <time>2021-11-23T09:58:31.000Z</time>
      </trkpt>
      <trkpt lat="45.94981" lon="-1.35387">
        <ele>-17.200000762939</ele>
        <time>2021-11-23T09:58:34.000Z</time>
      </trkpt>
      <trkpt lat="45.94994" lon="-1.35372">
        <ele>-17</ele>
        <time>2021-11-23T09:58:37.000Z</time>
      </trkpt>
      <trkpt lat="45.94999" lon="-1.35367">
        <ele>-16.799999237061</ele>
        <time>2021-11-23T09:58:38.000Z</time>
      </trkpt>
      <trkpt lat="45.95018" lon="-1.35346">
        <ele>-16.39999961853</ele>
        <time>2021-11-23T09:58:42.000Z</time>
      </trkpt>
      <trkpt lat="45.95032" lon="-1.35327">
        <ele>-16</ele>
        <time>2021-11-23T09:58:45.000Z</time>
      </trkpt>
      <trkpt lat="45.95038" lon="-1.35318">
        <ele>-16</ele>
        <time>2021-11-23T09:58:47.000Z</time>
      </trkpt>
      <trkpt lat="45.95046" lon="-1.35309">
        <ele>-16</ele>
        <time>2021-11-23T09:58:49.000Z</time>
      </trkpt>
      <trkpt lat="45.95052" lon="-1.35304">
        <ele>-15.800000190735</ele>
        <time>2021-11-23T09:58:50.000Z</time>
      </trkpt>
      <trkpt lat="45.95056" lon="-1.35299">
        <ele>-15.800000190735</ele>
        <time>2021-11-23T09:58:51.000Z</time>
      </trkpt>
      <trkpt lat="45.9506" lon="-1.35294">
        <ele>-15.800000190735</ele>
        <time>2021-11-23T09:58:52.000Z</time>
      </trkpt>
      <trkpt lat="45.95068" lon="-1.35285">
        <ele>-15.60000038147</ele>
        <time>2021-11-23T09:58:54.000Z</time>
      </trkpt>
      <trkpt lat="45.95082" lon="-1.35268">
        <ele>-15.60000038147</ele>
        <time>2021-11-23T09:58:57.000Z</time>
      </trkpt>
      <trkpt lat="45.95087" lon="-1.35264">
        <ele>-15.60000038147</ele>
        <time>2021-11-23T09:58:58.000Z</time>
      </trkpt>
      <trkpt lat="45.95105" lon="-1.35244">
        <ele>-14.60000038147</ele>
        <time>2021-11-23T09:59:02.000Z</time>
      </trkpt>
      <trkpt lat="45.9511" lon="-1.3524">
        <ele>-14.800000190735</ele>
        <time>2021-11-23T09:59:03.000Z</time>
      </trkpt>
      <trkpt lat="45.95133" lon="-1.35217">
        <ele>-13.800000190735</ele>
        <time>2021-11-23T09:59:08.000Z</time>
      </trkpt>
      <trkpt lat="45.9514" lon="-1.35213">
        <ele>-13.800000190735</ele>
        <time>2021-11-23T09:59:09.000Z</time>
      </trkpt>
      <trkpt lat="45.9515" lon="-1.35206">
        <ele>-13.60000038147</ele>
        <time>2021-11-23T09:59:11.000Z</time>
      </trkpt>
      <trkpt lat="45.95154" lon="-1.35202">
        <ele>-13.60000038147</ele>
        <time>2021-11-23T09:59:12.000Z</time>
      </trkpt>
      <trkpt lat="45.95179" lon="-1.35177">
        <ele>-13.39999961853</ele>
        <time>2021-11-23T09:59:17.000Z</time>
      </trkpt>
      <trkpt lat="45.95189" lon="-1.35167">
        <ele>-13.199999809265</ele>
        <time>2021-11-23T09:59:19.000Z</time>
      </trkpt>
      <trkpt lat="45.95198" lon="-1.35154">
        <ele>-13.199999809265</ele>
        <time>2021-11-23T09:59:21.000Z</time>
      </trkpt>
      <trkpt lat="45.9522" lon="-1.35118">
        <ele>-12.800000190735</ele>
        <time>2021-11-23T09:59:27.000Z</time>
      </trkpt>
      <trkpt lat="45.95224" lon="-1.35112">
        <ele>-12.800000190735</ele>
        <time>2021-11-23T09:59:28.000Z</time>
      </trkpt>
      <trkpt lat="45.95231" lon="-1.35102">
        <ele>-12.800000190735</ele>
        <time>2021-11-23T09:59:30.000Z</time>
      </trkpt>
      <trkpt lat="45.95235" lon="-1.35097">
        <ele>-12.800000190735</ele>
        <time>2021-11-23T09:59:31.000Z</time>
      </trkpt>
      <trkpt lat="45.95243" lon="-1.35086">
        <ele>-12.800000190735</ele>
        <time>2021-11-23T09:59:33.000Z</time>
      </trkpt>
      <trkpt lat="45.95245" lon="-1.35075">
        <ele>-12.800000190735</ele>
        <time>2021-11-23T09:59:35.000Z</time>
      </trkpt>
      <trkpt lat="45.95245" lon="-1.35065">
        <ele>-12.800000190735</ele>
        <time>2021-11-23T09:59:37.000Z</time>
      </trkpt>
      <trkpt lat="45.95248" lon="-1.3506">
        <ele>-12.800000190735</ele>
        <time>2021-11-23T09:59:38.000Z</time>
      </trkpt>
      <trkpt lat="45.95251" lon="-1.35057">
        <ele>-12.800000190735</ele>
        <time>2021-11-23T09:59:39.000Z</time>
      </trkpt>
      <trkpt lat="45.9526" lon="-1.35053">
        <ele>-12.800000190735</ele>
        <time>2021-11-23T09:59:41.000Z</time>
      </trkpt>
      <trkpt lat="45.9529" lon="-1.35041">
        <ele>-13.199999809265</ele>
        <time>2021-11-23T09:59:46.000Z</time>
      </trkpt>
      <trkpt lat="45.95331" lon="-1.35025">
        <ele>-13.800000190735</ele>
        <time>2021-11-23T09:59:53.000Z</time>
      </trkpt>
      <trkpt lat="45.95367" lon="-1.35011">
        <ele>-14</ele>
        <time>2021-11-23T10:00:00.000Z</time>
      </trkpt>
      <trkpt lat="45.9539" lon="-1.35003">
        <ele>-14</ele>
        <time>2021-11-23T10:00:06.000Z</time>
      </trkpt>
      <trkpt lat="45.954" lon="-1.35005">
        <ele>-14.199999809265</ele>
        <time>2021-11-23T10:00:11.000Z</time>
      </trkpt>
      <trkpt lat="45.95409" lon="-1.35006">
        <ele>-14.199999809265</ele>
        <time>2021-11-23T10:00:13.000Z</time>
      </trkpt>
      <trkpt lat="45.95418" lon="-1.35003">
        <ele>-14.199999809265</ele>
        <time>2021-11-23T10:00:15.000Z</time>
      </trkpt>
      <trkpt lat="45.95444" lon="-1.34996">
        <ele>-14.39999961853</ele>
        <time>2021-11-23T10:00:20.000Z</time>
      </trkpt>
      <trkpt lat="45.9546" lon="-1.34992">
        <ele>-15</ele>
        <time>2021-11-23T10:00:23.000Z</time>
      </trkpt>
      <trkpt lat="45.95475" lon="-1.34987">
        <ele>-15.39999961853</ele>
        <time>2021-11-23T10:00:26.000Z</time>
      </trkpt>
      <trkpt lat="45.9552" lon="-1.34968">
        <ele>-15.39999961853</ele>
        <time>2021-11-23T10:00:34.000Z</time>
      </trkpt>
      <trkpt lat="45.95524" lon="-1.34968">
        <ele>-15.199999809265</ele>
        <time>2021-11-23T10:00:35.000Z</time>
      </trkpt>
      <trkpt lat="45.95565" lon="-1.34964">
        <ele>-15</ele>
        <time>2021-11-23T10:00:42.000Z</time>
      </trkpt>
      <trkpt lat="45.95616" lon="-1.34952">
        <ele>-14.60000038147</ele>
        <time>2021-11-23T10:00:50.000Z</time>
      </trkpt>
      <trkpt lat="45.95662" lon="-1.34941">
        <ele>-14.199999809265</ele>
        <time>2021-11-23T10:00:58.000Z</time>
      </trkpt>
      <trkpt lat="45.95679" lon="-1.34938">
        <ele>-13.800000190735</ele>
        <time>2021-11-23T10:01:01.000Z</time>
      </trkpt>
      <trkpt lat="45.95725" lon="-1.3493">
        <ele>-13.800000190735</ele>
        <time>2021-11-23T10:01:09.000Z</time>
      </trkpt>
      <trkpt lat="45.95766" lon="-1.34922">
        <ele>-14</ele>
        <time>2021-11-23T10:01:16.000Z</time>
      </trkpt>
      <trkpt lat="45.95777" lon="-1.34925">
        <ele>-14</ele>
        <time>2021-11-23T10:01:18.000Z</time>
      </trkpt>
      <trkpt lat="45.95799" lon="-1.34947">
        <ele>-14.199999809265</ele>
        <time>2021-11-23T10:01:22.000Z</time>
      </trkpt>
      <trkpt lat="45.95807" lon="-1.34957">
        <ele>-14</ele>
        <time>2021-11-23T10:01:24.000Z</time>
      </trkpt>
      <trkpt lat="45.9582" lon="-1.34977">
        <ele>-14.39999961853</ele>
        <time>2021-11-23T10:01:27.000Z</time>
      </trkpt>
      <trkpt lat="45.95844" lon="-1.35024">
        <ele>-14.800000190735</ele>
        <time>2021-11-23T10:01:33.000Z</time>
      </trkpt>
      <trkpt lat="45.95845" lon="-1.35031">
        <ele>-14.800000190735</ele>
        <time>2021-11-23T10:01:34.000Z</time>
      </trkpt>
      <trkpt lat="45.95844" lon="-1.35039">
        <ele>-14.800000190735</ele>
        <time>2021-11-23T10:01:35.000Z</time>
      </trkpt>
      <trkpt lat="45.95842" lon="-1.35048">
        <ele>-15</ele>
        <time>2021-11-23T10:01:36.000Z</time>
      </trkpt>
      <trkpt lat="45.9584" lon="-1.35055">
        <ele>-15</ele>
        <time>2021-11-23T10:01:37.000Z</time>
      </trkpt>
      <trkpt lat="45.95841" lon="-1.35061">
        <ele>-15</ele>
        <time>2021-11-23T10:01:38.000Z</time>
      </trkpt>
      <trkpt lat="45.95842" lon="-1.35069">
        <ele>-15.199999809265</ele>
        <time>2021-11-23T10:01:39.000Z</time>
      </trkpt>
      <trkpt lat="45.9585" lon="-1.35083">
        <ele>-16</ele>
        <time>2021-11-23T10:01:41.000Z</time>
      </trkpt>
      <trkpt lat="45.95855" lon="-1.3509">
        <ele>-16.39999961853</ele>
        <time>2021-11-23T10:01:42.000Z</time>
      </trkpt>
      <trkpt lat="45.95867" lon="-1.35108">
        <ele>-17.60000038147</ele>
        <time>2021-11-23T10:01:45.000Z</time>
      </trkpt>
      <trkpt lat="45.95882" lon="-1.35125">
        <ele>-17.799999237061</ele>
        <time>2021-11-23T10:01:48.000Z</time>
      </trkpt>
      <trkpt lat="45.95896" lon="-1.3514">
        <ele>-18.799999237061</ele>
        <time>2021-11-23T10:01:51.000Z</time>
      </trkpt>
      <trkpt lat="45.95902" lon="-1.35146">
        <ele>-19</ele>
        <time>2021-11-23T10:01:52.000Z</time>
      </trkpt>
      <trkpt lat="45.95912" lon="-1.35156">
        <ele>-19.39999961853</ele>
        <time>2021-11-23T10:01:54.000Z</time>
      </trkpt>
      <trkpt lat="45.95919" lon="-1.35167">
        <ele>-19.39999961853</ele>
        <time>2021-11-23T10:01:56.000Z</time>
      </trkpt>
      <trkpt lat="45.95921" lon="-1.35175">
        <ele>-19.39999961853</ele>
        <time>2021-11-23T10:01:57.000Z</time>
      </trkpt>
      <trkpt lat="45.95921" lon="-1.35183">
        <ele>-19.39999961853</ele>
        <time>2021-11-23T10:01:58.000Z</time>
      </trkpt>
      <trkpt lat="45.9592" lon="-1.3521">
        <ele>-19.39999961853</ele>
        <time>2021-11-23T10:02:01.000Z</time>
      </trkpt>
      <trkpt lat="45.95923" lon="-1.35238">
        <ele>-19.60000038147</ele>
        <time>2021-11-23T10:02:04.000Z</time>
      </trkpt>
      <trkpt lat="45.95929" lon="-1.35251">
        <ele>-19.39999961853</ele>
        <time>2021-11-23T10:02:06.000Z</time>
      </trkpt>
      <trkpt lat="45.95938" lon="-1.35264">
        <ele>-19.200000762939</ele>
        <time>2021-11-23T10:02:08.000Z</time>
      </trkpt>
      <trkpt lat="45.95951" lon="-1.35276">
        <ele>-18.799999237061</ele>
        <time>2021-11-23T10:02:11.000Z</time>
      </trkpt>
      <trkpt lat="45.95979" lon="-1.35294">
        <ele>-18</ele>
        <time>2021-11-23T10:02:16.000Z</time>
      </trkpt>
      <trkpt lat="45.95984" lon="-1.35296">
        <ele>-18</ele>
        <time>2021-11-23T10:02:17.000Z</time>
      </trkpt>
      <trkpt lat="45.96017" lon="-1.35307">
        <ele>-17.200000762939</ele>
        <time>2021-11-23T10:02:23.000Z</time>
      </trkpt>
      <trkpt lat="45.96023" lon="-1.35309">
        <ele>-17</ele>
        <time>2021-11-23T10:02:24.000Z</time>
      </trkpt>
      <trkpt lat="45.96042" lon="-1.3532">
        <ele>-16.799999237061</ele>
        <time>2021-11-23T10:02:28.000Z</time>
      </trkpt>
      <trkpt lat="45.96064" lon="-1.35335">
        <ele>-16.60000038147</ele>
        <time>2021-11-23T10:02:32.000Z</time>
      </trkpt>
      <trkpt lat="45.96073" lon="-1.35346">
        <ele>-16.200000762939</ele>
        <time>2021-11-23T10:02:34.000Z</time>
      </trkpt>
      <trkpt lat="45.96098" lon="-1.35389">
        <ele>-16.39999961853</ele>
        <time>2021-11-23T10:02:40.000Z</time>
      </trkpt>
      <trkpt lat="45.96121" lon="-1.35434">
        <ele>-16.39999961853</ele>
        <time>2021-11-23T10:02:46.000Z</time>
      </trkpt>
      <trkpt lat="45.96156" lon="-1.35475">
        <ele>-16.39999961853</ele>
        <time>2021-11-23T10:02:53.000Z</time>
      </trkpt>
      <trkpt lat="45.96165" lon="-1.35485">
        <ele>-16.60000038147</ele>
        <time>2021-11-23T10:02:55.000Z</time>
      </trkpt>
      <trkpt lat="45.96179" lon="-1.35506">
        <ele>-16.799999237061</ele>
        <time>2021-11-23T10:02:58.000Z</time>
      </trkpt>
      <trkpt lat="45.962" lon="-1.35542">
        <ele>-16.799999237061</ele>
        <time>2021-11-23T10:03:03.000Z</time>
      </trkpt>
      <trkpt lat="45.96209" lon="-1.35553">
        <ele>-17.200000762939</ele>
        <time>2021-11-23T10:03:05.000Z</time>
      </trkpt>
      <trkpt lat="45.96221" lon="-1.35562">
        <ele>-17.200000762939</ele>
        <time>2021-11-23T10:03:07.000Z</time>
      </trkpt>
      <trkpt lat="45.96232" lon="-1.35566">
        <ele>-17.200000762939</ele>
        <time>2021-11-23T10:03:09.000Z</time>
      </trkpt>
      <trkpt lat="45.96268" lon="-1.35578">
        <ele>-17.60000038147</ele>
        <time>2021-11-23T10:03:15.000Z</time>
      </trkpt>
      <trkpt lat="45.96293" lon="-1.35591">
        <ele>-17.60000038147</ele>
        <time>2021-11-23T10:03:20.000Z</time>
      </trkpt>
      <trkpt lat="45.9631" lon="-1.35598">
        <ele>-17.60000038147</ele>
        <time>2021-11-23T10:03:23.000Z</time>
      </trkpt>
      <trkpt lat="45.96319" lon="-1.35598">
        <ele>-17.60000038147</ele>
        <time>2021-11-23T10:03:25.000Z</time>
      </trkpt>
      <trkpt lat="45.96322" lon="-1.35602">
        <ele>-17.60000038147</ele>
        <time>2021-11-23T10:03:27.000Z</time>
      </trkpt>
      <trkpt lat="45.96321" lon="-1.35605">
        <ele>-17.60000038147</ele>
        <time>2021-11-23T10:03:28.000Z</time>
      </trkpt>
      <trkpt lat="45.96309" lon="-1.35618">
        <ele>-17.60000038147</ele>
        <time>2021-11-23T10:03:32.000Z</time>
      </trkpt>
      <trkpt lat="45.96306" lon="-1.35623">
        <ele>-17.60000038147</ele>
        <time>2021-11-23T10:03:33.000Z</time>
      </trkpt>
      <trkpt lat="45.96293" lon="-1.35644">
        <ele>-17.60000038147</ele>
        <time>2021-11-23T10:03:36.000Z</time>
      </trkpt>
      <trkpt lat="45.96264" lon="-1.35694">
        <ele>-17.799999237061</ele>
        <time>2021-11-23T10:03:43.000Z</time>
      </trkpt>
      <trkpt lat="45.96248" lon="-1.35716">
        <ele>-18.200000762939</ele>
        <time>2021-11-23T10:03:46.000Z</time>
      </trkpt>
      <trkpt lat="45.96245" lon="-1.35722">
        <ele>-18</ele>
        <time>2021-11-23T10:03:47.000Z</time>
      </trkpt>
      <trkpt lat="45.96243" lon="-1.35731">
        <ele>-18.200000762939</ele>
        <time>2021-11-23T10:03:48.000Z</time>
      </trkpt>
      <trkpt lat="45.96234" lon="-1.35768">
        <ele>-18.799999237061</ele>
        <time>2021-11-23T10:03:52.000Z</time>
      </trkpt>
      <trkpt lat="45.9623" lon="-1.35782">
        <ele>-19</ele>
        <time>2021-11-23T10:03:54.000Z</time>
      </trkpt>
      <trkpt lat="45.96226" lon="-1.35805">
        <ele>-19.39999961853</ele>
        <time>2021-11-23T10:03:58.000Z</time>
      </trkpt>
      <trkpt lat="45.96228" lon="-1.35809">
        <ele>-19.39999961853</ele>
        <time>2021-11-23T10:03:59.000Z</time>
      </trkpt>
      <trkpt lat="45.96238" lon="-1.35823">
        <ele>-19.60000038147</ele>
        <time>2021-11-23T10:04:02.000Z</time>
      </trkpt>
      <trkpt lat="45.96265" lon="-1.35858">
        <ele>-20.39999961853</ele>
        <time>2021-11-23T10:04:08.000Z</time>
      </trkpt>
      <trkpt lat="45.9627" lon="-1.35866">
        <ele>-20.60000038147</ele>
        <time>2021-11-23T10:04:09.000Z</time>
      </trkpt>
      <trkpt lat="45.96295" lon="-1.35908">
        <ele>-20.799999237061</ele>
        <time>2021-11-23T10:04:15.000Z</time>
      </trkpt>
      <trkpt lat="45.96325" lon="-1.35964">
        <ele>-20.60000038147</ele>
        <time>2021-11-23T10:04:23.000Z</time>
      </trkpt>
      <trkpt lat="45.96364" lon="-1.36026">
        <ele>-20.60000038147</ele>
        <time>2021-11-23T10:04:32.000Z</time>
      </trkpt>
      <trkpt lat="45.96383" lon="-1.36055">
        <ele>-20.39999961853</ele>
        <time>2021-11-23T10:04:36.000Z</time>
      </trkpt>
      <trkpt lat="45.96394" lon="-1.36072">
        <ele>-20.39999961853</ele>
        <time>2021-11-23T10:04:39.000Z</time>
      </trkpt>
      <trkpt lat="45.96399" lon="-1.36078">
        <ele>-20.200000762939</ele>
        <time>2021-11-23T10:04:40.000Z</time>
      </trkpt>
      <trkpt lat="45.96407" lon="-1.36077">
        <ele>-20.200000762939</ele>
        <time>2021-11-23T10:04:42.000Z</time>
      </trkpt>
      <trkpt lat="45.96411" lon="-1.36073">
        <ele>-20</ele>
        <time>2021-11-23T10:04:43.000Z</time>
      </trkpt>
      <trkpt lat="45.96419" lon="-1.3606">
        <ele>-19.799999237061</ele>
        <time>2021-11-23T10:04:45.000Z</time>
      </trkpt>
      <trkpt lat="45.9643" lon="-1.36042">
        <ele>-19.60000038147</ele>
        <time>2021-11-23T10:04:48.000Z</time>
      </trkpt>
      <trkpt lat="45.96444" lon="-1.36027">
        <ele>-19.39999961853</ele>
        <time>2021-11-23T10:04:51.000Z</time>
      </trkpt>
      <trkpt lat="45.96449" lon="-1.36023">
        <ele>-19.39999961853</ele>
        <time>2021-11-23T10:04:52.000Z</time>
      </trkpt>
      <trkpt lat="45.9646" lon="-1.36015">
        <ele>-19.200000762939</ele>
        <time>2021-11-23T10:04:54.000Z</time>
      </trkpt>
      <trkpt lat="45.96465" lon="-1.36009">
        <ele>-19.200000762939</ele>
        <time>2021-11-23T10:04:55.000Z</time>
      </trkpt>
      <trkpt lat="45.96473" lon="-1.35999">
        <ele>-18.60000038147</ele>
        <time>2021-11-23T10:04:57.000Z</time>
      </trkpt>
      <trkpt lat="45.9649" lon="-1.35976">
        <ele>-18</ele>
        <time>2021-11-23T10:05:01.000Z</time>
      </trkpt>
      <trkpt lat="45.9652" lon="-1.35933">
        <ele>-18</ele>
        <time>2021-11-23T10:05:08.000Z</time>
      </trkpt>
      <trkpt lat="45.96531" lon="-1.35914">
        <ele>-18.200000762939</ele>
        <time>2021-11-23T10:05:11.000Z</time>
      </trkpt>
      <trkpt lat="45.96539" lon="-1.35892">
        <ele>-18.200000762939</ele>
        <time>2021-11-23T10:05:14.000Z</time>
      </trkpt>
      <trkpt lat="45.96563" lon="-1.35838">
        <ele>-19</ele>
        <time>2021-11-23T10:05:22.000Z</time>
      </trkpt>
      <trkpt lat="45.9657" lon="-1.35826">
        <ele>-19.39999961853</ele>
        <time>2021-11-23T10:05:24.000Z</time>
      </trkpt>
      <trkpt lat="45.96575" lon="-1.35814">
        <ele>-19.799999237061</ele>
        <time>2021-11-23T10:05:26.000Z</time>
      </trkpt>
      <trkpt lat="45.96579" lon="-1.35809">
        <ele>-19.799999237061</ele>
        <time>2021-11-23T10:05:27.000Z</time>
      </trkpt>
      <trkpt lat="45.96582" lon="-1.35803">
        <ele>-19.799999237061</ele>
        <time>2021-11-23T10:05:28.000Z</time>
      </trkpt>
      <trkpt lat="45.96614" lon="-1.35748">
        <ele>-19.799999237061</ele>
        <time>2021-11-23T10:05:38.000Z</time>
      </trkpt>
      <trkpt lat="45.96629" lon="-1.35712">
        <ele>-19.799999237061</ele>
        <time>2021-11-23T10:05:45.000Z</time>
      </trkpt>
      <trkpt lat="45.96631" lon="-1.3571">
        <ele>-19.799999237061</ele>
        <time>2021-11-23T10:05:46.000Z</time>
      </trkpt>
      <trkpt lat="45.96633" lon="-1.3571">
        <ele>-19.60000038147</ele>
        <time>2021-11-23T10:05:48.000Z</time>
      </trkpt>
      <trkpt lat="45.96636" lon="-1.35718">
        <ele>-19</ele>
        <time>2021-11-23T10:05:55.000Z</time>
      </trkpt>
      <trkpt lat="45.9664" lon="-1.35726">
        <ele>-19</ele>
        <time>2021-11-23T10:05:57.000Z</time>
      </trkpt>
      <trkpt lat="45.96651" lon="-1.3574">
        <ele>-19</ele>
        <time>2021-11-23T10:06:00.000Z</time>
      </trkpt>
      <trkpt lat="45.96659" lon="-1.3575">
        <ele>-19</ele>
        <time>2021-11-23T10:06:02.000Z</time>
      </trkpt>
      <trkpt lat="45.96682" lon="-1.35786">
        <ele>-19.200000762939</ele>
        <time>2021-11-23T10:06:08.000Z</time>
      </trkpt>
      <trkpt lat="45.96691" lon="-1.35803">
        <ele>-19.200000762939</ele>
        <time>2021-11-23T10:06:11.000Z</time>
      </trkpt>
      <trkpt lat="45.96695" lon="-1.35809">
        <ele>-19.200000762939</ele>
        <time>2021-11-23T10:06:13.000Z</time>
      </trkpt>
      <trkpt lat="45.96703" lon="-1.35822">
        <ele>-19.200000762939</ele>
        <time>2021-11-23T10:06:17.000Z</time>
      </trkpt>
      <trkpt lat="45.96705" lon="-1.35823">
        <ele>-19.200000762939</ele>
        <time>2021-11-23T10:06:18.000Z</time>
      </trkpt>
      <trkpt lat="45.96708" lon="-1.35822">
        <ele>-19.200000762939</ele>
        <time>2021-11-23T10:06:20.000Z</time>
      </trkpt>
      <trkpt lat="45.96709" lon="-1.35824">
        <ele>-19.200000762939</ele>
        <time>2021-11-23T10:06:21.000Z</time>
      </trkpt>
      <trkpt lat="45.96709" lon="-1.3583">
        <ele>-19.200000762939</ele>
        <time>2021-11-23T10:06:23.000Z</time>
      </trkpt>
      <trkpt lat="45.96713" lon="-1.35838">
        <ele>-19.200000762939</ele>
        <time>2021-11-23T10:06:25.000Z</time>
      </trkpt>
      <trkpt lat="45.96729" lon="-1.35862">
        <ele>-19.200000762939</ele>
        <time>2021-11-23T10:06:29.000Z</time>
      </trkpt>
      <trkpt lat="45.96763" lon="-1.35907">
        <ele>-19</ele>
        <time>2021-11-23T10:06:36.000Z</time>
      </trkpt>
      <trkpt lat="45.96787" lon="-1.3594">
        <ele>-18.799999237061</ele>
        <time>2021-11-23T10:06:41.000Z</time>
      </trkpt>
      <trkpt lat="45.96806" lon="-1.35966">
        <ele>-18.799999237061</ele>
        <time>2021-11-23T10:06:45.000Z</time>
      </trkpt>
      <trkpt lat="45.96829" lon="-1.35995">
        <ele>-19</ele>
        <time>2021-11-23T10:06:50.000Z</time>
      </trkpt>
      <trkpt lat="45.96831" lon="-1.36">
        <ele>-18.799999237061</ele>
        <time>2021-11-23T10:06:51.000Z</time>
      </trkpt>
      <trkpt lat="45.9683" lon="-1.36006">
        <ele>-18.799999237061</ele>
        <time>2021-11-23T10:06:52.000Z</time>
      </trkpt>
      <trkpt lat="45.96825" lon="-1.36016">
        <ele>-18.60000038147</ele>
        <time>2021-11-23T10:06:54.000Z</time>
      </trkpt>
      <trkpt lat="45.96814" lon="-1.36029">
        <ele>-18.60000038147</ele>
        <time>2021-11-23T10:06:57.000Z</time>
      </trkpt>
      <trkpt lat="45.96811" lon="-1.36042">
        <ele>-18.60000038147</ele>
        <time>2021-11-23T10:06:59.000Z</time>
      </trkpt>
      <trkpt lat="45.96818" lon="-1.36058">
        <ele>-18.60000038147</ele>
        <time>2021-11-23T10:07:02.000Z</time>
      </trkpt>
      <trkpt lat="45.96822" lon="-1.36065">
        <ele>-18.60000038147</ele>
        <time>2021-11-23T10:07:03.000Z</time>
      </trkpt>
      <trkpt lat="45.96838" lon="-1.36084">
        <ele>-18.60000038147</ele>
        <time>2021-11-23T10:07:06.000Z</time>
      </trkpt>
      <trkpt lat="45.96842" lon="-1.36091">
        <ele>-18.60000038147</ele>
        <time>2021-11-23T10:07:07.000Z</time>
      </trkpt>
      <trkpt lat="45.9686" lon="-1.36119">
        <ele>-18.60000038147</ele>
        <time>2021-11-23T10:07:11.000Z</time>
      </trkpt>
      <trkpt lat="45.96864" lon="-1.36126">
        <ele>-18.60000038147</ele>
        <time>2021-11-23T10:07:12.000Z</time>
      </trkpt>
      <trkpt lat="45.96885" lon="-1.36152">
        <ele>-18.60000038147</ele>
        <time>2021-11-23T10:07:16.000Z</time>
      </trkpt>
      <trkpt lat="45.96899" lon="-1.3617">
        <ele>-18.60000038147</ele>
        <time>2021-11-23T10:07:19.000Z</time>
      </trkpt>
      <trkpt lat="45.96913" lon="-1.36193">
        <ele>-18.60000038147</ele>
        <time>2021-11-23T10:07:22.000Z</time>
      </trkpt>
      <trkpt lat="45.96941" lon="-1.3623">
        <ele>-18.60000038147</ele>
        <time>2021-11-23T10:07:28.000Z</time>
      </trkpt>
      <trkpt lat="45.96968" lon="-1.36269">
        <ele>-18.60000038147</ele>
        <time>2021-11-23T10:07:34.000Z</time>
      </trkpt>
      <trkpt lat="45.96996" lon="-1.36306">
        <ele>-18.200000762939</ele>
        <time>2021-11-23T10:07:40.000Z</time>
      </trkpt>
      <trkpt lat="45.97007" lon="-1.36319">
        <ele>-18</ele>
        <time>2021-11-23T10:07:42.000Z</time>
      </trkpt>
      <trkpt lat="45.97012" lon="-1.36325">
        <ele>-18</ele>
        <time>2021-11-23T10:07:43.000Z</time>
      </trkpt>
      <trkpt lat="45.97031" lon="-1.36348">
        <ele>-18</ele>
        <time>2021-11-23T10:07:47.000Z</time>
      </trkpt>
      <trkpt lat="45.97041" lon="-1.3636">
        <ele>-18</ele>
        <time>2021-11-23T10:07:49.000Z</time>
      </trkpt>
      <trkpt lat="45.97049" lon="-1.36372">
        <ele>-18.200000762939</ele>
        <time>2021-11-23T10:07:51.000Z</time>
      </trkpt>
      <trkpt lat="45.97061" lon="-1.36383">
        <ele>-18.39999961853</ele>
        <time>2021-11-23T10:07:54.000Z</time>
      </trkpt>
      <trkpt lat="45.97066" lon="-1.36384">
        <ele>-18.39999961853</ele>
        <time>2021-11-23T10:07:55.000Z</time>
      </trkpt>
      <trkpt lat="45.9707" lon="-1.36384">
        <ele>-18.39999961853</ele>
        <time>2021-11-23T10:07:56.000Z</time>
      </trkpt>
      <trkpt lat="45.97076" lon="-1.36378">
        <ele>-18.39999961853</ele>
        <time>2021-11-23T10:07:58.000Z</time>
      </trkpt>
      <trkpt lat="45.97079" lon="-1.36375">
        <ele>-18.39999961853</ele>
        <time>2021-11-23T10:07:59.000Z</time>
      </trkpt>
      <trkpt lat="45.97086" lon="-1.36378">
        <ele>-18.60000038147</ele>
        <time>2021-11-23T10:08:01.000Z</time>
      </trkpt>
      <trkpt lat="45.97093" lon="-1.36388">
        <ele>-18.60000038147</ele>
        <time>2021-11-23T10:08:03.000Z</time>
      </trkpt>
      <trkpt lat="45.971" lon="-1.36401">
        <ele>-18.799999237061</ele>
        <time>2021-11-23T10:08:05.000Z</time>
      </trkpt>
      <trkpt lat="45.97111" lon="-1.36422">
        <ele>-19.200000762939</ele>
        <time>2021-11-23T10:08:08.000Z</time>
      </trkpt>
      <trkpt lat="45.97123" lon="-1.36442">
        <ele>-19.39999961853</ele>
        <time>2021-11-23T10:08:11.000Z</time>
      </trkpt>
      <trkpt lat="45.97127" lon="-1.36449">
        <ele>-19.39999961853</ele>
        <time>2021-11-23T10:08:12.000Z</time>
      </trkpt>
      <trkpt lat="45.9715" lon="-1.36481">
        <ele>-19.200000762939</ele>
        <time>2021-11-23T10:08:17.000Z</time>
      </trkpt>
      <trkpt lat="45.97191" lon="-1.36538">
        <ele>-19</ele>
        <time>2021-11-23T10:08:26.000Z</time>
      </trkpt>
      <trkpt lat="45.972" lon="-1.36553">
        <ele>-19.200000762939</ele>
        <time>2021-11-23T10:08:28.000Z</time>
      </trkpt>
      <trkpt lat="45.9721" lon="-1.36575">
        <ele>-19</ele>
        <time>2021-11-23T10:08:31.000Z</time>
      </trkpt>
      <trkpt lat="45.97238" lon="-1.36638">
        <ele>-18.799999237061</ele>
        <time>2021-11-23T10:08:39.000Z</time>
      </trkpt>
      <trkpt lat="45.97272" lon="-1.36707">
        <ele>-18.200000762939</ele>
        <time>2021-11-23T10:08:48.000Z</time>
      </trkpt>
      <trkpt lat="45.97276" lon="-1.36714">
        <ele>-18.200000762939</ele>
        <time>2021-11-23T10:08:49.000Z</time>
      </trkpt>
      <trkpt lat="45.97306" lon="-1.36776">
        <ele>-19</ele>
        <time>2021-11-23T10:08:57.000Z</time>
      </trkpt>
      <trkpt lat="45.97338" lon="-1.36841">
        <ele>-19.200000762939</ele>
        <time>2021-11-23T10:09:06.000Z</time>
      </trkpt>
      <trkpt lat="45.97346" lon="-1.36855">
        <ele>-19.200000762939</ele>
        <time>2021-11-23T10:09:08.000Z</time>
      </trkpt>
      <trkpt lat="45.97363" lon="-1.3689">
        <ele>-19.39999961853</ele>
        <time>2021-11-23T10:09:13.000Z</time>
      </trkpt>
      <trkpt lat="45.97385" lon="-1.36936">
        <ele>-18.60000038147</ele>
        <time>2021-11-23T10:09:20.000Z</time>
      </trkpt>
      <trkpt lat="45.97404" lon="-1.36976">
        <ele>-18.200000762939</ele>
        <time>2021-11-23T10:09:26.000Z</time>
      </trkpt>
      <trkpt lat="45.9742" lon="-1.3702">
        <ele>-17.799999237061</ele>
        <time>2021-11-23T10:09:32.000Z</time>
      </trkpt>
      <trkpt lat="45.97426" lon="-1.37034">
        <ele>-17.200000762939</ele>
        <time>2021-11-23T10:09:34.000Z</time>
      </trkpt>
      <trkpt lat="45.9744" lon="-1.3706">
        <ele>-17.200000762939</ele>
        <time>2021-11-23T10:09:38.000Z</time>
      </trkpt>
      <trkpt lat="45.97471" lon="-1.37122">
        <ele>-17.799999237061</ele>
        <time>2021-11-23T10:09:47.000Z</time>
      </trkpt>
      <trkpt lat="45.9748" lon="-1.3714">
        <ele>-17.799999237061</ele>
        <time>2021-11-23T10:09:50.000Z</time>
      </trkpt>
      <trkpt lat="45.97481" lon="-1.37145">
        <ele>-17.39999961853</ele>
        <time>2021-11-23T10:09:51.000Z</time>
      </trkpt>
      <trkpt lat="45.9748" lon="-1.3715">
        <ele>-17.200000762939</ele>
        <time>2021-11-23T10:09:52.000Z</time>
      </trkpt>
      <trkpt lat="45.97475" lon="-1.37157">
        <ele>-17</ele>
        <time>2021-11-23T10:09:54.000Z</time>
      </trkpt>
      <trkpt lat="45.97466" lon="-1.37164">
        <ele>-17</ele>
        <time>2021-11-23T10:09:56.000Z</time>
      </trkpt>
      <trkpt lat="45.97455" lon="-1.37173">
        <ele>-17</ele>
        <time>2021-11-23T10:09:58.000Z</time>
      </trkpt>
      <trkpt lat="45.97422" lon="-1.37205">
        <ele>-17.200000762939</ele>
        <time>2021-11-23T10:10:04.000Z</time>
      </trkpt>
      <trkpt lat="45.97392" lon="-1.37245">
        <ele>-18</ele>
        <time>2021-11-23T10:10:10.000Z</time>
      </trkpt>
      <trkpt lat="45.97363" lon="-1.37302">
        <ele>4.9</ele>
      </trkpt>
      <trkpt lat="45.9735" lon="-1.3735">
        <ele>4.6</ele>
      </trkpt>
      <trkpt lat="45.97343" lon="-1.37395">
        <ele>5</ele>
      </trkpt>
      <trkpt lat="45.97328" lon="-1.37424">
        <ele>4.9</ele>
      </trkpt>
      <trkpt lat="45.97308" lon="-1.37449">
        <ele>-20.200000762939</ele>
        <time>2021-11-23T10:11:48.000Z</time>
      </trkpt>
      <trkpt lat="45.97315" lon="-1.37471">
        <ele>-20.200000762939</ele>
        <time>2021-11-23T10:11:52.000Z</time>
      </trkpt>
      <trkpt lat="45.9733" lon="-1.37504">
        <ele>-20</ele>
        <time>2021-11-23T10:11:57.000Z</time>
      </trkpt>
      <trkpt lat="45.97334" lon="-1.37511">
        <ele>-20</ele>
        <time>2021-11-23T10:11:58.000Z</time>
      </trkpt>
      <trkpt lat="45.97337" lon="-1.3752">
        <ele>-20</ele>
        <time>2021-11-23T10:11:59.000Z</time>
      </trkpt>
      <trkpt lat="45.97343" lon="-1.37548">
        <ele>-20</ele>
        <time>2021-11-23T10:12:02.000Z</time>
      </trkpt>
      <trkpt lat="45.97352" lon="-1.37574">
        <ele>-20</ele>
        <time>2021-11-23T10:12:05.000Z</time>
      </trkpt>
      <trkpt lat="45.97355" lon="-1.3758">
        <ele>-20</ele>
        <time>2021-11-23T10:12:06.000Z</time>
      </trkpt>
      <trkpt lat="45.97364" lon="-1.37583">
        <ele>-19.799999237061</ele>
        <time>2021-11-23T10:12:08.000Z</time>
      </trkpt>
      <trkpt lat="45.97375" lon="-1.37579">
        <ele>-19.799999237061</ele>
        <time>2021-11-23T10:12:10.000Z</time>
      </trkpt>
      <trkpt lat="45.97385" lon="-1.37571">
        <ele>-19.200000762939</ele>
        <time>2021-11-23T10:12:12.000Z</time>
      </trkpt>
      <trkpt lat="45.97399" lon="-1.37555">
        <ele>-18.799999237061</ele>
        <time>2021-11-23T10:12:15.000Z</time>
      </trkpt>
      <trkpt lat="45.97409" lon="-1.37542">
        <ele>-18.60000038147</ele>
        <time>2021-11-23T10:12:17.000Z</time>
      </trkpt>
      <trkpt lat="45.97423" lon="-1.37524">
        <ele>-18.60000038147</ele>
        <time>2021-11-23T10:12:21.000Z</time>
      </trkpt>
      <trkpt lat="45.97452" lon="-1.37487">
        <ele>-18.39999961853</ele>
        <time>2021-11-23T10:12:26.000Z</time>
      </trkpt>
      <trkpt lat="45.97487" lon="-1.3744">
        <ele>-18</ele>
        <time>2021-11-23T10:12:34.000Z</time>
      </trkpt>
      <trkpt lat="45.97501" lon="-1.37422">
        <ele>-17.799999237061</ele>
        <time>2021-11-23T10:12:37.000Z</time>
      </trkpt>
      <trkpt lat="45.97529" lon="-1.37384">
        <ele>-17.799999237061</ele>
        <time>2021-11-23T10:12:44.000Z</time>
      </trkpt>
      <trkpt lat="45.97559" lon="-1.3735">
        <ele>-17.60000038147</ele>
        <time>2021-11-23T10:12:51.000Z</time>
      </trkpt>
      <trkpt lat="45.97606" lon="-1.37311">
        <ele>-17.60000038147</ele>
        <time>2021-11-23T10:13:01.000Z</time>
      </trkpt>
      <trkpt lat="45.97612" lon="-1.37306">
        <ele>-17.60000038147</ele>
        <time>2021-11-23T10:13:02.000Z</time>
      </trkpt>
      <trkpt lat="45.97664" lon="-1.37262">
        <ele>-17.799999237061</ele>
        <time>2021-11-23T10:13:13.000Z</time>
      </trkpt>
      <trkpt lat="45.97691" lon="-1.37239">
        <ele>-18</ele>
        <time>2021-11-23T10:13:19.000Z</time>
      </trkpt>
      <trkpt lat="45.97728" lon="-1.37206">
        <ele>-18.200000762939</ele>
        <time>2021-11-23T10:13:28.000Z</time>
      </trkpt>
      <trkpt lat="45.97736" lon="-1.37206">
        <ele>-18</ele>
        <time>2021-11-23T10:13:30.000Z</time>
      </trkpt>
      <trkpt lat="45.97741" lon="-1.37214">
        <ele>-17.799999237061</ele>
        <time>2021-11-23T10:13:32.000Z</time>
      </trkpt>
      <trkpt lat="45.97746" lon="-1.37229">
        <ele>-17.799999237061</ele>
        <time>2021-11-23T10:13:34.000Z</time>
      </trkpt>
      <trkpt lat="45.97762" lon="-1.37274">
        <ele>-17.60000038147</ele>
        <time>2021-11-23T10:13:40.000Z</time>
      </trkpt>
      <trkpt lat="45.97779" lon="-1.37321">
        <ele>-17.60000038147</ele>
        <time>2021-11-23T10:13:46.000Z</time>
      </trkpt>
      <trkpt lat="45.97781" lon="-1.37329">
        <ele>-17.60000038147</ele>
        <time>2021-11-23T10:13:47.000Z</time>
      </trkpt>
      <trkpt lat="45.97799" lon="-1.37391">
        <ele>-17.39999961853</ele>
        <time>2021-11-23T10:13:54.000Z</time>
      </trkpt>
      <trkpt lat="45.97808" lon="-1.37448">
        <ele>-17.200000762939</ele>
        <time>2021-11-23T10:14:00.000Z</time>
      </trkpt>
      <trkpt lat="45.97818" lon="-1.37494">
        <ele>-16.60000038147</ele>
        <time>2021-11-23T10:14:05.000Z</time>
      </trkpt>
      <trkpt lat="45.9782" lon="-1.37502">
        <ele>-16.39999961853</ele>
        <time>2021-11-23T10:14:06.000Z</time>
      </trkpt>
      <trkpt lat="45.97829" lon="-1.37512">
        <ele>-16</ele>
        <time>2021-11-23T10:14:08.000Z</time>
      </trkpt>
      <trkpt lat="45.97834" lon="-1.37513">
        <ele>-16</ele>
        <time>2021-11-23T10:14:09.000Z</time>
      </trkpt>
      <trkpt lat="45.97846" lon="-1.37517">
        <ele>-15.800000190735</ele>
        <time>2021-11-23T10:14:11.000Z</time>
      </trkpt>
      <trkpt lat="45.9785" lon="-1.3752">
        <ele>-15.800000190735</ele>
        <time>2021-11-23T10:14:12.000Z</time>
      </trkpt>
      <trkpt lat="45.97854" lon="-1.37528">
        <ele>-15.800000190735</ele>
        <time>2021-11-23T10:14:13.000Z</time>
      </trkpt>
      <trkpt lat="45.97857" lon="-1.37545">
        <ele>-15.60000038147</ele>
        <time>2021-11-23T10:14:15.000Z</time>
      </trkpt>
      <trkpt lat="45.97869" lon="-1.37598">
        <ele>-15.60000038147</ele>
        <time>2021-11-23T10:14:21.000Z</time>
      </trkpt>
      <trkpt lat="45.9787" lon="-1.37606">
        <ele>-15.60000038147</ele>
        <time>2021-11-23T10:14:22.000Z</time>
      </trkpt>
      <trkpt lat="45.97876" lon="-1.37646">
        <ele>-15.199999809265</ele>
        <time>2021-11-23T10:14:26.000Z</time>
      </trkpt>
      <trkpt lat="45.97873" lon="-1.37684">
        <ele>-15</ele>
        <time>2021-11-23T10:14:30.000Z</time>
      </trkpt>
      <trkpt lat="45.97875" lon="-1.37741">
        <ele>-15.199999809265</ele>
        <time>2021-11-23T10:14:36.000Z</time>
      </trkpt>
      <trkpt lat="45.97887" lon="-1.37813">
        <ele>-15.39999961853</ele>
        <time>2021-11-23T10:14:43.000Z</time>
      </trkpt>
      <trkpt lat="45.97901" lon="-1.37893">
        <ele>-15.199999809265</ele>
        <time>2021-11-23T10:14:51.000Z</time>
      </trkpt>
      <trkpt lat="45.97903" lon="-1.37903">
        <ele>-15</ele>
        <time>2021-11-23T10:14:52.000Z</time>
      </trkpt>
      <trkpt lat="45.97913" lon="-1.37948">
        <ele>-15.199999809265</ele>
        <time>2021-11-23T10:14:57.000Z</time>
      </trkpt>
      <trkpt lat="45.97913" lon="-1.37956">
        <ele>-15.199999809265</ele>
        <time>2021-11-23T10:14:58.000Z</time>
      </trkpt>
      <trkpt lat="45.97909" lon="-1.37962">
        <ele>-15.199999809265</ele>
        <time>2021-11-23T10:14:59.000Z</time>
      </trkpt>
      <trkpt lat="45.97904" lon="-1.37966">
        <ele>-15.199999809265</ele>
        <time>2021-11-23T10:15:00.000Z</time>
      </trkpt>
      <trkpt lat="45.97898" lon="-1.37967">
        <ele>-15.199999809265</ele>
        <time>2021-11-23T10:15:01.000Z</time>
      </trkpt>
      <trkpt lat="45.97879" lon="-1.37969">
        <ele>-15</ele>
        <time>2021-11-23T10:15:04.000Z</time>
      </trkpt>
      <trkpt lat="45.9784" lon="-1.37981">
        <ele>-15.199999809265</ele>
        <time>2021-11-23T10:15:10.000Z</time>
      </trkpt>
      <trkpt lat="45.97834" lon="-1.37982">
        <ele>-15.199999809265</ele>
        <time>2021-11-23T10:15:11.000Z</time>
      </trkpt>
      <trkpt lat="45.97799" lon="-1.37987">
        <ele>-15.800000190735</ele>
        <time>2021-11-23T10:15:16.000Z</time>
      </trkpt>
      <trkpt lat="45.97785" lon="-1.37993">
        <ele>-15.800000190735</ele>
        <time>2021-11-23T10:15:18.000Z</time>
      </trkpt>
      <trkpt lat="45.97766" lon="-1.38005">
        <ele>-16</ele>
        <time>2021-11-23T10:15:21.000Z</time>
      </trkpt>
      <trkpt lat="45.97754" lon="-1.38013">
        <ele>-16.39999961853</ele>
        <time>2021-11-23T10:15:23.000Z</time>
      </trkpt>
      <trkpt lat="45.97747" lon="-1.38016">
        <ele>-16.60000038147</ele>
        <time>2021-11-23T10:15:24.000Z</time>
      </trkpt>
      <trkpt lat="45.97741" lon="-1.38019">
        <ele>-17</ele>
        <time>2021-11-23T10:15:25.000Z</time>
      </trkpt>
      <trkpt lat="45.97695" lon="-1.38034">
        <ele>-17.60000038147</ele>
        <time>2021-11-23T10:15:32.000Z</time>
      </trkpt>
      <trkpt lat="45.97689" lon="-1.38038">
        <ele>-17.60000038147</ele>
        <time>2021-11-23T10:15:33.000Z</time>
      </trkpt>
      <trkpt lat="45.97677" lon="-1.38046">
        <ele>-17.60000038147</ele>
        <time>2021-11-23T10:15:35.000Z</time>
      </trkpt>
      <trkpt lat="45.97673" lon="-1.38052">
        <ele>-17.799999237061</ele>
        <time>2021-11-23T10:15:36.000Z</time>
      </trkpt>
      <trkpt lat="45.97671" lon="-1.3806">
        <ele>-17.799999237061</ele>
        <time>2021-11-23T10:15:37.000Z</time>
      </trkpt>
      <trkpt lat="45.97672" lon="-1.38067">
        <ele>-17.799999237061</ele>
        <time>2021-11-23T10:15:38.000Z</time>
      </trkpt>
      <trkpt lat="45.97678" lon="-1.38081">
        <ele>-18</ele>
        <time>2021-11-23T10:15:40.000Z</time>
      </trkpt>
      <trkpt lat="45.97688" lon="-1.38107">
        <ele>-18</ele>
        <time>2021-11-23T10:15:44.000Z</time>
      </trkpt>
      <trkpt lat="45.97707" lon="-1.38154">
        <ele>-18</ele>
        <time>2021-11-23T10:15:50.000Z</time>
      </trkpt>
      <trkpt lat="45.9772" lon="-1.38195">
        <ele>-18</ele>
        <time>2021-11-23T10:15:55.000Z</time>
      </trkpt>
      <trkpt lat="45.97724" lon="-1.38203">
        <ele>-18</ele>
        <time>2021-11-23T10:15:56.000Z</time>
      </trkpt>
      <trkpt lat="45.97727" lon="-1.38211">
        <ele>-18</ele>
        <time>2021-11-23T10:15:57.000Z</time>
      </trkpt>
      <trkpt lat="45.97733" lon="-1.38229">
        <ele>-17.799999237061</ele>
        <time>2021-11-23T10:15:59.000Z</time>
      </trkpt>
      <trkpt lat="45.97737" lon="-1.38237">
        <ele>-17.60000038147</ele>
        <time>2021-11-23T10:16:00.000Z</time>
      </trkpt>
      <trkpt lat="45.97763" lon="-1.38282">
        <ele>-17.39999961853</ele>
        <time>2021-11-23T10:16:06.000Z</time>
      </trkpt>
      <trkpt lat="45.97776" lon="-1.38328">
        <ele>-17.200000762939</ele>
        <time>2021-11-23T10:16:11.000Z</time>
      </trkpt>
      <trkpt lat="45.97792" lon="-1.38394">
        <ele>-17</ele>
        <time>2021-11-23T10:16:18.000Z</time>
      </trkpt>
      <trkpt lat="45.97794" lon="-1.38403">
        <ele>-17</ele>
        <time>2021-11-23T10:16:19.000Z</time>
      </trkpt>
      <trkpt lat="45.97798" lon="-1.38428">
        <ele>-16.799999237061</ele>
        <time>2021-11-23T10:16:22.000Z</time>
      </trkpt>
      <trkpt lat="45.97801" lon="-1.38436">
        <ele>-16.799999237061</ele>
        <time>2021-11-23T10:16:23.000Z</time>
      </trkpt>
      <trkpt lat="45.97808" lon="-1.3845">
        <ele>-16.60000038147</ele>
        <time>2021-11-23T10:16:25.000Z</time>
      </trkpt>
      <trkpt lat="45.97826" lon="-1.38487">
        <ele>-16.200000762939</ele>
        <time>2021-11-23T10:16:30.000Z</time>
      </trkpt>
      <trkpt lat="45.9783" lon="-1.38494">
        <ele>-16</ele>
        <time>2021-11-23T10:16:31.000Z</time>
      </trkpt>
      <trkpt lat="45.97842" lon="-1.38516">
        <ele>-16</ele>
        <time>2021-11-23T10:16:34.000Z</time>
      </trkpt>
      <trkpt lat="45.97845" lon="-1.38523">
        <ele>-16</ele>
        <time>2021-11-23T10:16:35.000Z</time>
      </trkpt>
      <trkpt lat="45.97855" lon="-1.38552">
        <ele>-16.200000762939</ele>
        <time>2021-11-23T10:16:39.000Z</time>
      </trkpt>
      <trkpt lat="45.97872" lon="-1.3859">
        <ele>-15.60000038147</ele>
        <time>2021-11-23T10:16:45.000Z</time>
      </trkpt>
      <trkpt lat="45.97882" lon="-1.38603">
        <ele>-14.800000190735</ele>
        <time>2021-11-23T10:16:49.000Z</time>
      </trkpt>
      <trkpt lat="45.97885" lon="-1.38605">
        <ele>-14.60000038147</ele>
        <time>2021-11-23T10:16:50.000Z</time>
      </trkpt>
      <trkpt lat="45.97904" lon="-1.38622">
        <ele>-13.39999961853</ele>
        <time>2021-11-23T10:16:55.000Z</time>
      </trkpt>
      <trkpt lat="45.97925" lon="-1.38651">
        <ele>-12.800000190735</ele>
        <time>2021-11-23T10:17:00.000Z</time>
      </trkpt>
      <trkpt lat="45.97934" lon="-1.38661">
        <ele>-12.60000038147</ele>
        <time>2021-11-23T10:17:02.000Z</time>
      </trkpt>
      <trkpt lat="45.97938" lon="-1.38665">
        <ele>-12.39999961853</ele>
        <time>2021-11-23T10:17:03.000Z</time>
      </trkpt>
      <trkpt lat="45.97943" lon="-1.38667">
        <ele>-12.199999809265</ele>
        <time>2021-11-23T10:17:04.000Z</time>
      </trkpt>
      <trkpt lat="45.9796" lon="-1.38665">
        <ele>-11.60000038147</ele>
        <time>2021-11-23T10:17:08.000Z</time>
      </trkpt>
      <trkpt lat="45.97969" lon="-1.38663">
        <ele>-11.199999809265</ele>
        <time>2021-11-23T10:17:11.000Z</time>
      </trkpt>
      <trkpt lat="45.97971" lon="-1.38662">
        <ele>-11.199999809265</ele>
        <time>2021-11-23T10:17:12.000Z</time>
      </trkpt>
      <trkpt lat="45.97979" lon="-1.38659">
        <ele>-10.800000190735</ele>
        <time>2021-11-23T10:17:16.000Z</time>
      </trkpt>
      <trkpt lat="45.97979" lon="-1.38666">
        <ele>38.799999237061</ele>
        <time>2021-12-07T10:08:19.000Z</time>
      </trkpt>
      <trkpt lat="45.97988" lon="-1.38644">
        <ele>38.400001525879</ele>
        <time>2021-12-07T10:08:16.000Z</time>
      </trkpt>
      <trkpt lat="45.97995" lon="-1.38632">
        <ele>38.200000762939</ele>
        <time>2021-12-07T10:08:14.000Z</time>
      </trkpt>
      <trkpt lat="45.97998" lon="-1.38628">
        <ele>38.200000762939</ele>
        <time>2021-12-07T10:08:13.000Z</time>
      </trkpt>
      <trkpt lat="45.98007" lon="-1.38621">
        <ele>38</ele>
        <time>2021-12-07T10:08:11.000Z</time>
      </trkpt>
      <trkpt lat="45.98015" lon="-1.38616">
        <ele>37.799999237061</ele>
        <time>2021-12-07T10:08:09.000Z</time>
      </trkpt>
      <trkpt lat="45.98025" lon="-1.3861">
        <ele>37.799999237061</ele>
        <time>2021-12-07T10:08:07.000Z</time>
      </trkpt>
      <trkpt lat="45.9804" lon="-1.38599">
        <ele>38</ele>
        <time>2021-12-07T10:08:04.000Z</time>
      </trkpt>
      <trkpt lat="45.98053" lon="-1.3858">
        <ele>38.200000762939</ele>
        <time>2021-12-07T10:08:01.000Z</time>
      </trkpt>
      <trkpt lat="45.98058" lon="-1.38574">
        <ele>38.200000762939</ele>
        <time>2021-12-07T10:08:00.000Z</time>
      </trkpt>
      <trkpt lat="45.98062" lon="-1.38567">
        <ele>38.200000762939</ele>
        <time>2021-12-07T10:07:59.000Z</time>
      </trkpt>
      <trkpt lat="45.9807" lon="-1.38553">
        <ele>38.400001525879</ele>
        <time>2021-12-07T10:07:57.000Z</time>
      </trkpt>
      <trkpt lat="45.98084" lon="-1.38533">
        <ele>38.599998474121</ele>
        <time>2021-12-07T10:07:54.000Z</time>
      </trkpt>
      <trkpt lat="45.98117" lon="-1.38491">
        <ele>39</ele>
        <time>2021-12-07T10:07:48.000Z</time>
      </trkpt>
      <trkpt lat="45.98129" lon="-1.38472">
        <ele>39.200000762939</ele>
        <time>2021-12-07T10:07:45.000Z</time>
      </trkpt>
      <trkpt lat="45.98134" lon="-1.38468">
        <ele>39.200000762939</ele>
        <time>2021-12-07T10:07:44.000Z</time>
      </trkpt>
      <trkpt lat="45.98139" lon="-1.38465">
        <ele>39.200000762939</ele>
        <time>2021-12-07T10:07:43.000Z</time>
      </trkpt>
      <trkpt lat="45.9815" lon="-1.38464">
        <ele>39.400001525879</ele>
        <time>2021-12-07T10:07:41.000Z</time>
      </trkpt>
      <trkpt lat="45.98164" lon="-1.38475">
        <ele>39.400001525879</ele>
        <time>2021-12-07T10:07:38.000Z</time>
      </trkpt>
      <trkpt lat="45.98176" lon="-1.38498">
        <ele>39.400001525879</ele>
        <time>2021-12-07T10:07:35.000Z</time>
      </trkpt>
      <trkpt lat="45.9818" lon="-1.38505">
        <ele>39.400001525879</ele>
        <time>2021-12-07T10:07:34.000Z</time>
      </trkpt>
      <trkpt lat="45.98188" lon="-1.38517">
        <ele>39.200000762939</ele>
        <time>2021-12-07T10:07:32.000Z</time>
      </trkpt>
      <trkpt lat="45.98191" lon="-1.38524">
        <ele>39.200000762939</ele>
        <time>2021-12-07T10:07:31.000Z</time>
      </trkpt>
      <trkpt lat="45.98197" lon="-1.3854">
        <ele>39</ele>
        <time>2021-12-07T10:07:28.000Z</time>
      </trkpt>
      <trkpt lat="45.98199" lon="-1.38544">
        <ele>38.799999237061</ele>
        <time>2021-12-07T10:07:27.000Z</time>
      </trkpt>
      <trkpt lat="45.98203" lon="-1.38549">
        <ele>38.599998474121</ele>
        <time>2021-12-07T10:07:26.000Z</time>
      </trkpt>
      <trkpt lat="45.98211" lon="-1.38553">
        <ele>38.200000762939</ele>
        <time>2021-12-07T10:07:24.000Z</time>
      </trkpt>
      <trkpt lat="45.98214" lon="-1.38554">
        <ele>38.200000762939</ele>
        <time>2021-12-07T10:07:23.000Z</time>
      </trkpt>
      <trkpt lat="45.98219" lon="-1.38557">
        <ele>38</ele>
        <time>2021-12-07T10:07:22.000Z</time>
      </trkpt>
      <trkpt lat="45.98233" lon="-1.3858">
        <ele>37.799999237061</ele>
        <time>2021-12-07T10:07:18.000Z</time>
      </trkpt>
      <trkpt lat="45.98259" lon="-1.38621">
        <ele>37.200000762939</ele>
        <time>2021-12-07T10:07:11.000Z</time>
      </trkpt>
      <trkpt lat="45.98263" lon="-1.38628">
        <ele>37.200000762939</ele>
        <time>2021-12-07T10:07:10.000Z</time>
      </trkpt>
      <trkpt lat="45.98265" lon="-1.38635">
        <ele>37.200000762939</ele>
        <time>2021-12-07T10:07:09.000Z</time>
      </trkpt>
      <trkpt lat="45.98271" lon="-1.38659">
        <ele>36.799999237061</ele>
        <time>2021-12-07T10:07:06.000Z</time>
      </trkpt>
      <trkpt lat="45.98286" lon="-1.38737">
        <ele>36</ele>
        <time>2021-12-07T10:06:56.000Z</time>
      </trkpt>
      <trkpt lat="45.98294" lon="-1.38777">
        <ele>35.400001525879</ele>
        <time>2021-12-07T10:06:51.000Z</time>
      </trkpt>
      <trkpt lat="45.98296" lon="-1.38785">
        <ele>35.200000762939</ele>
        <time>2021-12-07T10:06:50.000Z</time>
      </trkpt>
      <trkpt lat="45.98309" lon="-1.38822">
        <ele>35</ele>
        <time>2021-12-07T10:06:45.000Z</time>
      </trkpt>
      <trkpt lat="45.98312" lon="-1.38837">
        <ele>35</ele>
        <time>2021-12-07T10:06:43.000Z</time>
      </trkpt>
      <trkpt lat="45.98316" lon="-1.38856">
        <ele>35</ele>
        <time>2021-12-07T10:06:40.000Z</time>
      </trkpt>
      <trkpt lat="45.98322" lon="-1.38864">
        <ele>35</ele>
        <time>2021-12-07T10:06:38.000Z</time>
      </trkpt>
      <trkpt lat="45.98301" lon="-1.38795">
        <ele>-14.39999961853</ele>
        <time>2021-11-23T10:21:59.000Z</time>
      </trkpt>
      <trkpt lat="45.98309" lon="-1.38817">
        <ele>-14.39999961853</ele>
        <time>2021-11-23T10:22:03.000Z</time>
      </trkpt>
      <trkpt lat="45.98313" lon="-1.38832">
        <ele>-14.39999961853</ele>
        <time>2021-11-23T10:22:05.000Z</time>
      </trkpt>
      <trkpt lat="45.98316" lon="-1.38855">
        <ele>-14.39999961853</ele>
        <time>2021-11-23T10:22:08.000Z</time>
      </trkpt>
      <trkpt lat="45.9832" lon="-1.38865">
        <ele>-14.39999961853</ele>
        <time>2021-11-23T10:22:10.000Z</time>
      </trkpt>
      <trkpt lat="45.98324" lon="-1.38868">
        <ele>-14.39999961853</ele>
        <time>2021-11-23T10:22:11.000Z</time>
      </trkpt>
      <trkpt lat="45.98329" lon="-1.3887">
        <ele>-14.39999961853</ele>
        <time>2021-11-23T10:22:12.000Z</time>
      </trkpt>
      <trkpt lat="45.98352" lon="-1.38873">
        <ele>-15</ele>
        <time>2021-11-23T10:22:16.000Z</time>
      </trkpt>
      <trkpt lat="45.98358" lon="-1.38873">
        <ele>-15.199999809265</ele>
        <time>2021-11-23T10:22:17.000Z</time>
      </trkpt>
      <trkpt lat="45.98363" lon="-1.38875">
        <ele>-15.39999961853</ele>
        <time>2021-11-23T10:22:18.000Z</time>
      </trkpt>
      <trkpt lat="45.98367" lon="-1.38878">
        <ele>-15.60000038147</ele>
        <time>2021-11-23T10:22:19.000Z</time>
      </trkpt>
      <trkpt lat="45.9837" lon="-1.38883">
        <ele>-15.60000038147</ele>
        <time>2021-11-23T10:22:20.000Z</time>
      </trkpt>
      <trkpt lat="45.98373" lon="-1.38889">
        <ele>-15.60000038147</ele>
        <time>2021-11-23T10:22:21.000Z</time>
      </trkpt>
      <trkpt lat="45.98381" lon="-1.38912">
        <ele>-15.800000190735</ele>
        <time>2021-11-23T10:22:24.000Z</time>
      </trkpt>
      <trkpt lat="45.98397" lon="-1.38966">
        <ele>-15.800000190735</ele>
        <time>2021-11-23T10:22:31.000Z</time>
      </trkpt>
      <trkpt lat="45.98404" lon="-1.38973">
        <ele>-15.800000190735</ele>
        <time>2021-11-23T10:22:34.000Z</time>
      </trkpt>
      <trkpt lat="45.98414" lon="-1.38982">
        <ele>-15.60000038147</ele>
        <time>2021-11-23T10:22:38.000Z</time>
      </trkpt>
      <trkpt lat="45.98422" lon="-1.38984">
        <ele>-15.60000038147</ele>
        <time>2021-11-23T10:22:39.000Z</time>
      </trkpt>
      <trkpt lat="45.9843" lon="-1.38981">
        <ele>-15.60000038147</ele>
        <time>2021-11-23T10:22:41.000Z</time>
      </trkpt>
      <trkpt lat="45.98445" lon="-1.38976">
        <ele>-15.39999961853</ele>
        <time>2021-11-23T10:22:44.000Z</time>
      </trkpt>
      <trkpt lat="45.98448" lon="-1.38973">
        <ele>-15.39999961853</ele>
        <time>2021-11-23T10:22:45.000Z</time>
      </trkpt>
      <trkpt lat="45.98456" lon="-1.38959">
        <ele>-19</ele>
        <time>2021-11-23T10:24:22.000Z</time>
      </trkpt>
      <trkpt lat="45.9846" lon="-1.38957">
        <ele>-19.200000762939</ele>
        <time>2021-11-23T10:24:24.000Z</time>
      </trkpt>
      <trkpt lat="45.98477" lon="-1.38961">
        <ele>-19.200000762939</ele>
        <time>2021-11-23T10:24:29.000Z</time>
      </trkpt>
      <trkpt lat="45.98494" lon="-1.38963">
        <ele>-19.60000038147</ele>
        <time>2021-11-23T10:24:32.000Z</time>
      </trkpt>
      <trkpt lat="45.985" lon="-1.38963">
        <ele>-19.60000038147</ele>
        <time>2021-11-23T10:24:33.000Z</time>
      </trkpt>
      <trkpt lat="45.98506" lon="-1.38962">
        <ele>-19.799999237061</ele>
        <time>2021-11-23T10:24:34.000Z</time>
      </trkpt>
      <trkpt lat="45.98517" lon="-1.38955">
        <ele>-20</ele>
        <time>2021-11-23T10:24:36.000Z</time>
      </trkpt>
      <trkpt lat="45.9852" lon="-1.38951">
        <ele>-20</ele>
        <time>2021-11-23T10:24:37.000Z</time>
      </trkpt>
      <trkpt lat="45.98532" lon="-1.38938">
        <ele>-20</ele>
        <time>2021-11-23T10:24:40.000Z</time>
      </trkpt>
      <trkpt lat="45.98536" lon="-1.38934">
        <ele>-20</ele>
        <time>2021-11-23T10:24:41.000Z</time>
      </trkpt>
      <trkpt lat="45.9854" lon="-1.38925">
        <ele>-20</ele>
        <time>2021-11-23T10:24:43.000Z</time>
      </trkpt>
      <trkpt lat="45.98542" lon="-1.38919">
        <ele>-20</ele>
        <time>2021-11-23T10:24:44.000Z</time>
      </trkpt>
      <trkpt lat="45.98544" lon="-1.38913">
        <ele>-19.799999237061</ele>
        <time>2021-11-23T10:24:45.000Z</time>
      </trkpt>
      <trkpt lat="45.98555" lon="-1.38895">
        <ele>-19.799999237061</ele>
        <time>2021-11-23T10:24:48.000Z</time>
      </trkpt>
      <trkpt lat="45.98571" lon="-1.38867">
        <ele>-20</ele>
        <time>2021-11-23T10:24:52.000Z</time>
      </trkpt>
      <trkpt lat="45.9858" lon="-1.38854">
        <ele>-20</ele>
        <time>2021-11-23T10:24:54.000Z</time>
      </trkpt>
      <trkpt lat="45.98585" lon="-1.38848">
        <ele>-20</ele>
        <time>2021-11-23T10:24:55.000Z</time>
      </trkpt>
      <trkpt lat="45.98593" lon="-1.38837">
        <ele>-20</ele>
        <time>2021-11-23T10:24:57.000Z</time>
      </trkpt>
      <trkpt lat="45.98597" lon="-1.38831">
        <ele>-20</ele>
        <time>2021-11-23T10:24:58.000Z</time>
      </trkpt>
      <trkpt lat="45.98628" lon="-1.38781">
        <ele>-19.200000762939</ele>
        <time>2021-11-23T10:25:05.000Z</time>
      </trkpt>
      <trkpt lat="45.98641" lon="-1.38762">
        <ele>-19</ele>
        <time>2021-11-23T10:25:08.000Z</time>
      </trkpt>
      <trkpt lat="45.98645" lon="-1.38755">
        <ele>-19</ele>
        <time>2021-11-23T10:25:09.000Z</time>
      </trkpt>
      <trkpt lat="45.98663" lon="-1.38728">
        <ele>-18.39999961853</ele>
        <time>2021-11-23T10:25:13.000Z</time>
      </trkpt>
      <trkpt lat="45.98676" lon="-1.38708">
        <ele>-18</ele>
        <time>2021-11-23T10:25:16.000Z</time>
      </trkpt>
      <trkpt lat="45.98697" lon="-1.38672">
        <ele>-18</ele>
        <time>2021-11-23T10:25:21.000Z</time>
      </trkpt>
      <trkpt lat="45.98706" lon="-1.38657">
        <ele>-18.200000762939</ele>
        <time>2021-11-23T10:25:23.000Z</time>
      </trkpt>
      <trkpt lat="45.98731" lon="-1.38614">
        <ele>-17.799999237061</ele>
        <time>2021-11-23T10:25:29.000Z</time>
      </trkpt>
      <trkpt lat="45.98736" lon="-1.38608">
        <ele>-17.799999237061</ele>
        <time>2021-11-23T10:25:30.000Z</time>
      </trkpt>
      <trkpt lat="45.9874" lon="-1.38603">
        <ele>-17.60000038147</ele>
        <time>2021-11-23T10:25:31.000Z</time>
      </trkpt>
      <trkpt lat="45.98757" lon="-1.3858">
        <ele>-17.200000762939</ele>
        <time>2021-11-23T10:25:35.000Z</time>
      </trkpt>
      <trkpt lat="45.98775" lon="-1.38556">
        <ele>-17</ele>
        <time>2021-11-23T10:25:39.000Z</time>
      </trkpt>
      <trkpt lat="45.98779" lon="-1.38542">
        <ele>-16.799999237061</ele>
        <time>2021-11-23T10:25:41.000Z</time>
      </trkpt>
      <trkpt lat="45.9878" lon="-1.38526">
        <ele>-16.60000038147</ele>
        <time>2021-11-23T10:25:43.000Z</time>
      </trkpt>
      <trkpt lat="45.98779" lon="-1.38509">
        <ele>-16.39999961853</ele>
        <time>2021-11-23T10:25:45.000Z</time>
      </trkpt>
      <trkpt lat="45.98773" lon="-1.38465">
        <ele>-16.39999961853</ele>
        <time>2021-11-23T10:25:50.000Z</time>
      </trkpt>
      <trkpt lat="45.98773" lon="-1.38447">
        <ele>-16.200000762939</ele>
        <time>2021-11-23T10:25:52.000Z</time>
      </trkpt>
      <trkpt lat="45.9878" lon="-1.38405">
        <ele>-16.39999961853</ele>
        <time>2021-11-23T10:25:57.000Z</time>
      </trkpt>
      <trkpt lat="45.98783" lon="-1.38397">
        <ele>-16.39999961853</ele>
        <time>2021-11-23T10:25:58.000Z</time>
      </trkpt>
      <trkpt lat="45.98795" lon="-1.38376">
        <ele>-16.39999961853</ele>
        <time>2021-11-23T10:26:01.000Z</time>
      </trkpt>
      <trkpt lat="45.98799" lon="-1.38369">
        <ele>-16.39999961853</ele>
        <time>2021-11-23T10:26:02.000Z</time>
      </trkpt>
      <trkpt lat="45.98804" lon="-1.38354">
        <ele>-16.39999961853</ele>
        <time>2021-11-23T10:26:04.000Z</time>
      </trkpt>
      <trkpt lat="45.98806" lon="-1.38345">
        <ele>-16.39999961853</ele>
        <time>2021-11-23T10:26:05.000Z</time>
      </trkpt>
      <trkpt lat="45.9881" lon="-1.38321">
        <ele>-16.39999961853</ele>
        <time>2021-11-23T10:26:08.000Z</time>
      </trkpt>
      <trkpt lat="45.98813" lon="-1.38317">
        <ele>-16.60000038147</ele>
        <time>2021-11-23T10:26:09.000Z</time>
      </trkpt>
      <trkpt lat="45.9882" lon="-1.3832">
        <ele>-16.60000038147</ele>
        <time>2021-11-23T10:26:11.000Z</time>
      </trkpt>
      <trkpt lat="45.98822" lon="-1.38327">
        <ele>-16.60000038147</ele>
        <time>2021-11-23T10:26:12.000Z</time>
      </trkpt>
      <trkpt lat="45.98828" lon="-1.38351">
        <ele>-16.799999237061</ele>
        <time>2021-11-23T10:26:15.000Z</time>
      </trkpt>
      <trkpt lat="45.98835" lon="-1.38377">
        <ele>-16.799999237061</ele>
        <time>2021-11-23T10:26:18.000Z</time>
      </trkpt>
      <trkpt lat="45.98841" lon="-1.38404">
        <ele>-16.799999237061</ele>
        <time>2021-11-23T10:26:21.000Z</time>
      </trkpt>
      <trkpt lat="45.98862" lon="-1.38477">
        <ele>-16.799999237061</ele>
        <time>2021-11-23T10:26:29.000Z</time>
      </trkpt>
      <trkpt lat="45.98865" lon="-1.38486">
        <ele>-16.799999237061</ele>
        <time>2021-11-23T10:26:30.000Z</time>
      </trkpt>
      <trkpt lat="45.98887" lon="-1.38542">
        <ele>-16.200000762939</ele>
        <time>2021-11-23T10:26:37.000Z</time>
      </trkpt>
      <trkpt lat="45.9889" lon="-1.38549">
        <ele>-16.200000762939</ele>
        <time>2021-11-23T10:26:38.000Z</time>
      </trkpt>
      <trkpt lat="45.98895" lon="-1.38559">
        <ele>-16.200000762939</ele>
        <time>2021-11-23T10:26:40.000Z</time>
      </trkpt>
      <trkpt lat="45.98898" lon="-1.38558">
        <ele>-16.200000762939</ele>
        <time>2021-11-23T10:26:41.000Z</time>
      </trkpt>
      <trkpt lat="45.98901" lon="-1.38556">
        <ele>-16</ele>
        <time>2021-11-23T10:26:42.000Z</time>
      </trkpt>
      <trkpt lat="45.98912" lon="-1.38545">
        <ele>-16</ele>
        <time>2021-11-23T10:26:45.000Z</time>
      </trkpt>
      <trkpt lat="45.98927" lon="-1.38531">
        <ele>-16</ele>
        <time>2021-11-23T10:26:48.000Z</time>
      </trkpt>
      <trkpt lat="45.98933" lon="-1.38527">
        <ele>-16</ele>
        <time>2021-11-23T10:26:49.000Z</time>
      </trkpt>
      <trkpt lat="45.98971" lon="-1.38502">
        <ele>-16</ele>
        <time>2021-11-23T10:26:55.000Z</time>
      </trkpt>
      <trkpt lat="45.98999" lon="-1.38482">
        <ele>-15.60000038147</ele>
        <time>2021-11-23T10:26:59.000Z</time>
      </trkpt>
      <trkpt lat="45.99013" lon="-1.38474">
        <ele>-15.60000038147</ele>
        <time>2021-11-23T10:27:01.000Z</time>
      </trkpt>
      <trkpt lat="45.99027" lon="-1.38466">
        <ele>-15.39999961853</ele>
        <time>2021-11-23T10:27:03.000Z</time>
      </trkpt>
      <trkpt lat="45.9906" lon="-1.38442">
        <ele>-15.39999961853</ele>
        <time>2021-11-23T10:27:08.000Z</time>
      </trkpt>
      <trkpt lat="45.99066" lon="-1.38437">
        <ele>-15.39999961853</ele>
        <time>2021-11-23T10:27:09.000Z</time>
      </trkpt>
      <trkpt lat="45.9909" lon="-1.38415">
        <ele>-15.39999961853</ele>
        <time>2021-11-23T10:27:13.000Z</time>
      </trkpt>
      <trkpt lat="45.9911" lon="-1.38391">
        <ele>-15.39999961853</ele>
        <time>2021-11-23T10:27:17.000Z</time>
      </trkpt>
      <trkpt lat="45.99116" lon="-1.38375">
        <ele>-15.39999961853</ele>
        <time>2021-11-23T10:27:19.000Z</time>
      </trkpt>
      <trkpt lat="45.99114" lon="-1.38358">
        <ele>-15.39999961853</ele>
        <time>2021-11-23T10:27:21.000Z</time>
      </trkpt>
      <trkpt lat="45.99112" lon="-1.38349">
        <ele>-15.39999961853</ele>
        <time>2021-11-23T10:27:22.000Z</time>
      </trkpt>
      <trkpt lat="45.99098" lon="-1.38271">
        <ele>-16.200000762939</ele>
        <time>2021-11-23T10:27:31.000Z</time>
      </trkpt>
      <trkpt lat="45.99096" lon="-1.38262">
        <ele>-16.200000762939</ele>
        <time>2021-11-23T10:27:32.000Z</time>
      </trkpt>
      <trkpt lat="45.99084" lon="-1.3821">
        <ele>-16.60000038147</ele>
        <time>2021-11-23T10:27:38.000Z</time>
      </trkpt>
      <trkpt lat="45.99084" lon="-1.38202">
        <ele>-16.799999237061</ele>
        <time>2021-11-23T10:27:39.000Z</time>
      </trkpt>
      <trkpt lat="45.99086" lon="-1.38196">
        <ele>-16.799999237061</ele>
        <time>2021-11-23T10:27:40.000Z</time>
      </trkpt>
      <trkpt lat="45.99089" lon="-1.38191">
        <ele>-17.200000762939</ele>
        <time>2021-11-23T10:27:41.000Z</time>
      </trkpt>
      <trkpt lat="45.99093" lon="-1.38186">
        <ele>-17.200000762939</ele>
        <time>2021-11-23T10:27:42.000Z</time>
      </trkpt>
      <trkpt lat="45.99112" lon="-1.38151">
        <ele>-18</ele>
        <time>2021-11-23T10:27:47.000Z</time>
      </trkpt>
      <trkpt lat="45.99119" lon="-1.38136">
        <ele>-18.200000762939</ele>
        <time>2021-11-23T10:27:49.000Z</time>
      </trkpt>
      <trkpt lat="45.99134" lon="-1.38105">
        <ele>-19.39999961853</ele>
        <time>2021-11-23T10:27:53.000Z</time>
      </trkpt>
      <trkpt lat="45.99141" lon="-1.38088">
        <ele>-19.60000038147</ele>
        <time>2021-11-23T10:27:55.000Z</time>
      </trkpt>
      <trkpt lat="45.99175" lon="-1.38024">
        <ele>-20.200000762939</ele>
        <time>2021-11-23T10:28:03.000Z</time>
      </trkpt>
      <trkpt lat="45.99185" lon="-1.38008">
        <ele>-20.60000038147</ele>
        <time>2021-11-23T10:28:05.000Z</time>
      </trkpt>
      <trkpt lat="45.99206" lon="-1.37972">
        <ele>-21</ele>
        <time>2021-11-23T10:28:10.000Z</time>
      </trkpt>
      <trkpt lat="45.9921" lon="-1.37966">
        <ele>-21</ele>
        <time>2021-11-23T10:28:11.000Z</time>
      </trkpt>
      <trkpt lat="45.99221" lon="-1.37961">
        <ele>-21</ele>
        <time>2021-11-23T10:28:13.000Z</time>
      </trkpt>
      <trkpt lat="45.99231" lon="-1.37969">
        <ele>-21</ele>
        <time>2021-11-23T10:28:15.000Z</time>
      </trkpt>
      <trkpt lat="45.99242" lon="-1.37973">
        <ele>-20.799999237061</ele>
        <time>2021-11-23T10:28:17.000Z</time>
      </trkpt>
      <trkpt lat="45.99248" lon="-1.37972">
        <ele>-20.799999237061</ele>
        <time>2021-11-23T10:28:18.000Z</time>
      </trkpt>
      <trkpt lat="45.99258" lon="-1.37969">
        <ele>-20.60000038147</ele>
        <time>2021-11-23T10:28:20.000Z</time>
      </trkpt>
      <trkpt lat="45.9927" lon="-1.37969">
        <ele>-20.39999961853</ele>
        <time>2021-11-23T10:28:22.000Z</time>
      </trkpt>
      <trkpt lat="45.99297" lon="-1.37975">
        <ele>-20.39999961853</ele>
        <time>2021-11-23T10:28:27.000Z</time>
      </trkpt>
      <trkpt lat="45.99308" lon="-1.3798">
        <ele>-20.60000038147</ele>
        <time>2021-11-23T10:28:29.000Z</time>
      </trkpt>
      <trkpt lat="45.99314" lon="-1.37988">
        <ele>-20.60000038147</ele>
        <time>2021-11-23T10:28:31.000Z</time>
      </trkpt>
      <trkpt lat="45.99314" lon="-1.37989">
        <ele>-18.799999237061</ele>
        <time>2021-11-23T10:28:49.000Z</time>
      </trkpt>
      <trkpt lat="45.99318" lon="-1.37983">
        <ele>-18.60000038147</ele>
        <time>2021-11-23T10:28:51.000Z</time>
      </trkpt>
      <trkpt lat="45.99322" lon="-1.37982">
        <ele>-18.60000038147</ele>
        <time>2021-11-23T10:28:52.000Z</time>
      </trkpt>
      <trkpt lat="45.99334" lon="-1.37983">
        <ele>-18.60000038147</ele>
        <time>2021-11-23T10:28:55.000Z</time>
      </trkpt>
      <trkpt lat="45.99342" lon="-1.37987">
        <ele>-18.60000038147</ele>
        <time>2021-11-23T10:28:57.000Z</time>
      </trkpt>
      <trkpt lat="45.99364" lon="-1.37994">
        <ele>-18.60000038147</ele>
        <time>2021-11-23T10:29:03.000Z</time>
      </trkpt>
      <trkpt lat="45.99376" lon="-1.38008">
        <ele>-19</ele>
        <time>2021-11-23T10:29:07.000Z</time>
      </trkpt>
      <trkpt lat="45.99397" lon="-1.38033">
        <ele>-19</ele>
        <time>2021-11-23T10:29:12.000Z</time>
      </trkpt>
      <trkpt lat="45.99435" lon="-1.38067">
        <ele>-18.39999961853</ele>
        <time>2021-11-23T10:29:19.000Z</time>
      </trkpt>
      <trkpt lat="45.99449" lon="-1.38064">
        <ele>-18</ele>
        <time>2021-11-23T10:29:22.000Z</time>
      </trkpt>
      <trkpt lat="45.99455" lon="-1.38066">
        <ele>-17.799999237061</ele>
        <time>2021-11-23T10:29:23.000Z</time>
      </trkpt>
      <trkpt lat="45.99459" lon="-1.38071">
        <ele>-17.799999237061</ele>
        <time>2021-11-23T10:29:24.000Z</time>
      </trkpt>
      <trkpt lat="45.99468" lon="-1.38079">
        <ele>-17.60000038147</ele>
        <time>2021-11-23T10:29:26.000Z</time>
      </trkpt>
      <trkpt lat="45.99473" lon="-1.38081">
        <ele>-17.60000038147</ele>
        <time>2021-11-23T10:29:27.000Z</time>
      </trkpt>
      <trkpt lat="45.99478" lon="-1.38083">
        <ele>-17.39999961853</ele>
        <time>2021-11-23T10:29:28.000Z</time>
      </trkpt>
      <trkpt lat="45.99501" lon="-1.38092">
        <ele>-17.200000762939</ele>
        <time>2021-11-23T10:29:33.000Z</time>
      </trkpt>
      <trkpt lat="45.99513" lon="-1.381">
        <ele>-17.200000762939</ele>
        <time>2021-11-23T10:29:35.000Z</time>
      </trkpt>
      <trkpt lat="45.99525" lon="-1.3811">
        <ele>-17.200000762939</ele>
        <time>2021-11-23T10:29:37.000Z</time>
      </trkpt>
      <trkpt lat="45.99565" lon="-1.38134">
        <ele>-16.799999237061</ele>
        <time>2021-11-23T10:29:44.000Z</time>
      </trkpt>
      <trkpt lat="45.9958" lon="-1.38145">
        <ele>-16.60000038147</ele>
        <time>2021-11-23T10:29:47.000Z</time>
      </trkpt>
      <trkpt lat="45.9959" lon="-1.38151">
        <ele>-16.200000762939</ele>
        <time>2021-11-23T10:29:49.000Z</time>
      </trkpt>
      <trkpt lat="45.99623" lon="-1.38173">
        <ele>-15.60000038147</ele>
        <time>2021-11-23T10:29:55.000Z</time>
      </trkpt>
      <trkpt lat="45.99638" lon="-1.38188">
        <ele>-15.60000038147</ele>
        <time>2021-11-23T10:29:58.000Z</time>
      </trkpt>
      <trkpt lat="45.99653" lon="-1.38199">
        <ele>-15.199999809265</ele>
        <time>2021-11-23T10:30:01.000Z</time>
      </trkpt>
      <trkpt lat="45.99678" lon="-1.38216">
        <ele>-15</ele>
        <time>2021-11-23T10:30:06.000Z</time>
      </trkpt>
      <trkpt lat="45.99683" lon="-1.38219">
        <ele>-15</ele>
        <time>2021-11-23T10:30:07.000Z</time>
      </trkpt>
      <trkpt lat="45.99696" lon="-1.38229">
        <ele>-15</ele>
        <time>2021-11-23T10:30:10.000Z</time>
      </trkpt>
      <trkpt lat="45.99699" lon="-1.38228">
        <ele>-15</ele>
        <time>2021-11-23T10:30:11.000Z</time>
      </trkpt>
      <trkpt lat="45.9971" lon="-1.38214">
        <ele>-15</ele>
        <time>2021-11-23T10:30:15.000Z</time>
      </trkpt>
      <trkpt lat="45.99713" lon="-1.3821">
        <ele>-15</ele>
        <time>2021-11-23T10:30:16.000Z</time>
      </trkpt>
      <trkpt lat="45.99729" lon="-1.3819">
        <ele>-15.199999809265</ele>
        <time>2021-11-23T10:30:20.000Z</time>
      </trkpt>
      <trkpt lat="45.99734" lon="-1.38179">
        <ele>-15.39999961853</ele>
        <time>2021-11-23T10:30:22.000Z</time>
      </trkpt>
      <trkpt lat="45.99736" lon="-1.38173">
        <ele>-15.39999961853</ele>
        <time>2021-11-23T10:30:23.000Z</time>
      </trkpt>
      <trkpt lat="45.99743" lon="-1.38158">
        <ele>-15.60000038147</ele>
        <time>2021-11-23T10:30:26.000Z</time>
      </trkpt>
      <trkpt lat="45.99751" lon="-1.3813">
        <ele>2</ele>
      </trkpt>
      <trkpt lat="45.99748" lon="-1.38116">
        <ele>2</ele>
      </trkpt>
      <trkpt lat="45.99753" lon="-1.38079">
        <ele>2</ele>
      </trkpt>
      <trkpt lat="45.99766" lon="-1.3805">
        <ele>2</ele>
      </trkpt>
      <trkpt lat="45.99806" lon="-1.37463">
        <ele>2</ele>
      </trkpt>
      <trkpt lat="45.99775" lon="-1.37173">
        <ele>3</ele>
      </trkpt>
      <trkpt lat="45.99764" lon="-1.37027">
        <ele>3</ele>
      </trkpt>
      <trkpt lat="45.99762" lon="-1.3698">
        <ele>3</ele>
      </trkpt>
      <trkpt lat="45.99808" lon="-1.36953">
        <ele>3</ele>
      </trkpt>
      <trkpt lat="45.99865" lon="-1.3693">
        <ele>3.1</ele>
      </trkpt>
      <trkpt lat="45.99895" lon="-1.36972">
        <ele>3</ele>
      </trkpt>
      <trkpt lat="45.99939" lon="-1.3699">
        <ele>3.3</ele>
      </trkpt>
      <trkpt lat="45.99983" lon="-1.36996">
        <ele>3.2</ele>
      </trkpt>
      <trkpt lat="46.00032" lon="-1.3698">
        <ele>2.8</ele>
      </trkpt>
      <trkpt lat="46.00084" lon="-1.37009">
        <ele>2</ele>
      </trkpt>
      <trkpt lat="46.0003" lon="-1.37352">
        <ele>2</ele>
      </trkpt>
      <trkpt lat="46.00089" lon="-1.37447">
        <ele>2</ele>
      </trkpt>
      <trkpt lat="46.00329" lon="-1.36721">
        <ele>2</ele>
      </trkpt>
      <trkpt lat="46.00434" lon="-1.36774">
        <ele>2.7</ele>
      </trkpt>
      <trkpt lat="46.00419" lon="-1.36832">
        <ele>3</ele>
      </trkpt>
      <trkpt lat="46.00414" lon="-1.36895">
        <ele>2.9</ele>
      </trkpt>
      <trkpt lat="46.0041" lon="-1.36961">
        <ele>2.8</ele>
      </trkpt>
      <trkpt lat="46.00414" lon="-1.3702">
        <ele>2.9</ele>
      </trkpt>
      <trkpt lat="46.00419" lon="-1.37075">
        <ele>3</ele>
      </trkpt>
      <trkpt lat="46.00432" lon="-1.37115">
        <ele>2.9</ele>
      </trkpt>
      <trkpt lat="46.00469" lon="-1.37144">
        <ele>2.8</ele>
      </trkpt>
      <trkpt lat="46.00498" lon="-1.37141">
        <ele>2.9</ele>
      </trkpt>
      <trkpt lat="46.00526" lon="-1.37117">
        <ele>3.1</ele>
      </trkpt>
      <trkpt lat="46.00563" lon="-1.37078">
        <ele>3.2</ele>
      </trkpt>
      <trkpt lat="46.00596" lon="-1.37041">
        <ele>3.3</ele>
      </trkpt>
      <trkpt lat="46.00629" lon="-1.3702">
        <ele>3.1</ele>
      </trkpt>
      <trkpt lat="46.00682" lon="-1.37038">
        <ele>3</ele>
      </trkpt>
      <trkpt lat="46.00691" lon="-1.3707">
        <ele>3</ele>
      </trkpt>
      <trkpt lat="46.00847" lon="-1.37154">
        <ele>2.7</ele>
      </trkpt>
      <trkpt lat="46.00906" lon="-1.37157">
        <ele>3</ele>
      </trkpt>
      <trkpt lat="46.00946" lon="-1.37167">
        <ele>3</ele>
      </trkpt>
      <trkpt lat="46.00974" lon="-1.37199">
        <ele>2.9</ele>
      </trkpt>
      <trkpt lat="46.01007" lon="-1.37236">
        <ele>2.6</ele>
      </trkpt>
      <trkpt lat="46.01034" lon="-1.37252">
        <ele>2.9</ele>
      </trkpt>
      <trkpt lat="46.01089" lon="-1.37268">
        <ele>3.1</ele>
      </trkpt>
      <trkpt lat="46.01142" lon="-1.37278">
        <ele>3</ele>
      </trkpt>
      <trkpt lat="46.01183" lon="-1.37286">
        <ele>2.9</ele>
      </trkpt>
      <trkpt lat="46.01203" lon="-1.37307">
        <ele>3.2</ele>
      </trkpt>
      <trkpt lat="46.01227" lon="-1.37339">
        <ele>2.8</ele>
      </trkpt>
      <trkpt lat="46.01252" lon="-1.37344">
        <ele>2.6</ele>
      </trkpt>
      <trkpt lat="46.01289" lon="-1.37307">
        <ele>2.6</ele>
      </trkpt>
      <trkpt lat="46.01311" lon="-1.37276">
        <ele>3</ele>
      </trkpt>
      <trkpt lat="46.01326" lon="-1.37239">
        <ele>2.6</ele>
      </trkpt>
      <trkpt lat="46.01355" lon="-1.37263">
        <ele>2.5</ele>
      </trkpt>
      <trkpt lat="46.01377" lon="-1.37297">
        <ele>2.8</ele>
      </trkpt>
      <trkpt lat="46.01403" lon="-1.37297">
        <ele>3.7</ele>
      </trkpt>
      <trkpt lat="46.01443" lon="-1.37339">
        <ele>3.7</ele>
      </trkpt>
      <trkpt lat="46.01467" lon="-1.37376">
        <ele>3.3</ele>
      </trkpt>
      <trkpt lat="46.01515" lon="-1.37384">
        <ele>3.8</ele>
      </trkpt>
      <trkpt lat="46.01559" lon="-1.37416">
        <ele>3.1</ele>
      </trkpt>
      <trkpt lat="46.01595" lon="-1.37424">
        <ele>3.5</ele>
      </trkpt>
      <trkpt lat="46.01636" lon="-1.37437">
        <ele>3.2</ele>
      </trkpt>
      <trkpt lat="46.01685" lon="-1.37508">
        <ele>3.5</ele>
      </trkpt>
      <trkpt lat="46.01728" lon="-1.37532">
        <ele>3.8</ele>
      </trkpt>
      <trkpt lat="46.01772" lon="-1.37543">
        <ele>3.9</ele>
      </trkpt>
      <trkpt lat="46.01779" lon="-1.37635">
        <ele>4</ele>
      </trkpt>
      <trkpt lat="46.01766" lon="-1.37651">
        <ele>4.4</ele>
      </trkpt>
      <trkpt lat="46.01803" lon="-1.37733">
        <ele>6</ele>
      </trkpt>
      <trkpt lat="46.01799" lon="-1.37738">
        <ele>6</ele>
      </trkpt>
      <trkpt lat="46.01872" lon="-1.38">
        <ele>8.4</ele>
      </trkpt>
      <trkpt lat="46.01865" lon="-1.38014">
        <ele>-11.800000190735</ele>
        <time>2021-11-23T10:39:11.000Z</time>
      </trkpt>
      <trkpt lat="46.0187" lon="-1.38015">
        <ele>-11.800000190735</ele>
        <time>2021-11-23T10:39:12.000Z</time>
      </trkpt>
      <trkpt lat="46.01875" lon="-1.3802">
        <ele>-11.60000038147</ele>
        <time>2021-11-23T10:39:13.000Z</time>
      </trkpt>
      <trkpt lat="46.01877" lon="-1.38027">
        <ele>-11.60000038147</ele>
        <time>2021-11-23T10:39:14.000Z</time>
      </trkpt>
      <trkpt lat="46.01888" lon="-1.38073">
        <ele>-11.39999961853</ele>
        <time>2021-11-23T10:39:19.000Z</time>
      </trkpt>
      <trkpt lat="46.01891" lon="-1.38082">
        <ele>-11.39999961853</ele>
        <time>2021-11-23T10:39:20.000Z</time>
      </trkpt>
      <trkpt lat="46.01908" lon="-1.38159">
        <ele>-11.800000190735</ele>
        <time>2021-11-23T10:39:28.000Z</time>
      </trkpt>
      <trkpt lat="46.0191" lon="-1.38208">
        <ele>-12.199999809265</ele>
        <time>2021-11-23T10:39:33.000Z</time>
      </trkpt>
      <trkpt lat="46.01908" lon="-1.38219">
        <ele>-12.39999961853</ele>
        <time>2021-11-23T10:39:34.000Z</time>
      </trkpt>
      <trkpt lat="46.019" lon="-1.38249">
        <ele>-12.60000038147</ele>
        <time>2021-11-23T10:39:37.000Z</time>
      </trkpt>
      <trkpt lat="46.01897" lon="-1.3826">
        <ele>-12.800000190735</ele>
        <time>2021-11-23T10:39:38.000Z</time>
      </trkpt>
      <trkpt lat="46.01894" lon="-1.38281">
        <ele>-13</ele>
        <time>2021-11-23T10:39:40.000Z</time>
      </trkpt>
      <trkpt lat="46.01895" lon="-1.38293">
        <ele>-13.199999809265</ele>
        <time>2021-11-23T10:39:41.000Z</time>
      </trkpt>
      <trkpt lat="46.01896" lon="-1.38316">
        <ele>-13.39999961853</ele>
        <time>2021-11-23T10:39:43.000Z</time>
      </trkpt>
      <trkpt lat="46.01898" lon="-1.38384">
        <ele>-14.199999809265</ele>
        <time>2021-11-23T10:39:49.000Z</time>
      </trkpt>
      <trkpt lat="46.01899" lon="-1.38395">
        <ele>-14.39999961853</ele>
        <time>2021-11-23T10:39:50.000Z</time>
      </trkpt>
      <trkpt lat="46.01908" lon="-1.3845">
        <ele>-14.800000190735</ele>
        <time>2021-11-23T10:39:55.000Z</time>
      </trkpt>
      <trkpt lat="46.01924" lon="-1.38534">
        <ele>-15</ele>
        <time>2021-11-23T10:40:03.000Z</time>
      </trkpt>
      <trkpt lat="46.01928" lon="-1.38554">
        <ele>-15</ele>
        <time>2021-11-23T10:40:05.000Z</time>
      </trkpt>
      <trkpt lat="46.01945" lon="-1.38621">
        <ele>-14.800000190735</ele>
        <time>2021-11-23T10:40:12.000Z</time>
      </trkpt>
      <trkpt lat="46.01959" lon="-1.38666">
        <ele>-13.800000190735</ele>
        <time>2021-11-23T10:40:49.000Z</time>
      </trkpt>
      <trkpt lat="46.01974" lon="-1.38659">
        <ele>-13.60000038147</ele>
        <time>2021-11-23T10:40:53.000Z</time>
      </trkpt>
      <trkpt lat="46.02003" lon="-1.38647">
        <ele>-13.39999961853</ele>
        <time>2021-11-23T10:40:59.000Z</time>
      </trkpt>
      <trkpt lat="46.02046" lon="-1.38628">
        <ele>-13.199999809265</ele>
        <time>2021-11-23T10:41:08.000Z</time>
      </trkpt>
      <trkpt lat="46.02051" lon="-1.38626">
        <ele>-13</ele>
        <time>2021-11-23T10:41:09.000Z</time>
      </trkpt>
      <trkpt lat="46.02088" lon="-1.38608">
        <ele>-12.39999961853</ele>
        <time>2021-11-23T10:41:17.000Z</time>
      </trkpt>
      <trkpt lat="46.02116" lon="-1.38596">
        <ele>-12.39999961853</ele>
        <time>2021-11-23T10:41:24.000Z</time>
      </trkpt>
      <trkpt lat="46.02134" lon="-1.38589">
        <ele>-11.800000190735</ele>
        <time>2021-11-23T10:41:28.000Z</time>
      </trkpt>
      <trkpt lat="46.02143" lon="-1.38585">
        <ele>-11.60000038147</ele>
        <time>2021-11-23T10:41:30.000Z</time>
      </trkpt>
      <trkpt lat="46.02148" lon="-1.38584">
        <ele>-11.39999961853</ele>
        <time>2021-11-23T10:41:31.000Z</time>
      </trkpt>
      <trkpt lat="46.02177" lon="-1.38569">
        <ele>-10.800000190735</ele>
        <time>2021-11-23T10:41:38.000Z</time>
      </trkpt>
      <trkpt lat="46.02189" lon="-1.3856">
        <ele>-11.199999809265</ele>
        <time>2021-11-23T10:41:41.000Z</time>
      </trkpt>
      <trkpt lat="46.02208" lon="-1.38545">
        <ele>-11.199999809265</ele>
        <time>2021-11-23T10:41:46.000Z</time>
      </trkpt>
      <trkpt lat="46.02252" lon="-1.38513">
        <ele>-11.60000038147</ele>
        <time>2021-11-23T10:41:57.000Z</time>
      </trkpt>
      <trkpt lat="46.0228" lon="-1.38492">
        <ele>-11.60000038147</ele>
        <time>2021-11-23T10:42:04.000Z</time>
      </trkpt>
      <trkpt lat="46.02283" lon="-1.3849">
        <ele>-11.60000038147</ele>
        <time>2021-11-23T10:42:05.000Z</time>
      </trkpt>
      <trkpt lat="46.02311" lon="-1.38469">
        <ele>-11.800000190735</ele>
        <time>2021-11-23T10:42:12.000Z</time>
      </trkpt>
      <trkpt lat="46.02323" lon="-1.3846">
        <ele>-11.800000190735</ele>
        <time>2021-11-23T10:42:15.000Z</time>
      </trkpt>
      <trkpt lat="46.02333" lon="-1.38456">
        <ele>-11.800000190735</ele>
        <time>2021-11-23T10:42:18.000Z</time>
      </trkpt>
      <trkpt lat="46.02342" lon="-1.38467">
        <ele>-12.199999809265</ele>
        <time>2021-11-23T10:42:21.000Z</time>
      </trkpt>
      <trkpt lat="46.02356" lon="-1.38501">
        <ele>-12.199999809265</ele>
        <time>2021-11-23T10:42:26.000Z</time>
      </trkpt>
      <trkpt lat="46.0238" lon="-1.38553">
        <ele>-12.199999809265</ele>
        <time>2021-11-23T10:42:33.000Z</time>
      </trkpt>
      <trkpt lat="46.02399" lon="-1.38588">
        <ele>-12</ele>
        <time>2021-11-23T10:42:38.000Z</time>
      </trkpt>
      <trkpt lat="46.02403" lon="-1.38593">
        <ele>-12</ele>
        <time>2021-11-23T10:42:39.000Z</time>
      </trkpt>
      <trkpt lat="46.02408" lon="-1.38596">
        <ele>-11.800000190735</ele>
        <time>2021-11-23T10:42:40.000Z</time>
      </trkpt>
      <trkpt lat="46.02419" lon="-1.38595">
        <ele>-11.800000190735</ele>
        <time>2021-11-23T10:42:42.000Z</time>
      </trkpt>
      <trkpt lat="46.0244" lon="-1.38574">
        <ele>-12</ele>
        <time>2021-11-23T10:42:47.000Z</time>
      </trkpt>
      <trkpt lat="46.02484" lon="-1.38529">
        <ele>-12.199999809265</ele>
        <time>2021-11-23T10:42:57.000Z</time>
      </trkpt>
      <trkpt lat="46.02526" lon="-1.38491">
        <ele>-12.39999961853</ele>
        <time>2021-11-23T10:43:06.000Z</time>
      </trkpt>
      <trkpt lat="46.02577" lon="-1.38451">
        <ele>-12.60000038147</ele>
        <time>2021-11-23T10:43:16.000Z</time>
      </trkpt>
      <trkpt lat="46.02602" lon="-1.38433">
        <ele>-12.60000038147</ele>
        <time>2021-11-23T10:43:21.000Z</time>
      </trkpt>
      <trkpt lat="46.02607" lon="-1.38434">
        <ele>-12.60000038147</ele>
        <time>2021-11-23T10:43:22.000Z</time>
      </trkpt>
      <trkpt lat="46.02611" lon="-1.38438">
        <ele>-12.60000038147</ele>
        <time>2021-11-23T10:43:23.000Z</time>
      </trkpt>
      <trkpt lat="46.02617" lon="-1.3845">
        <ele>-12.39999961853</ele>
        <time>2021-11-23T10:43:25.000Z</time>
      </trkpt>
      <trkpt lat="46.02642" lon="-1.38502">
        <ele>-12.39999961853</ele>
        <time>2021-11-23T10:43:33.000Z</time>
      </trkpt>
      <trkpt lat="46.02667" lon="-1.38566">
        <ele>-10.800000190735</ele>
        <time>2021-11-23T10:43:42.000Z</time>
      </trkpt>
      <trkpt lat="46.0267" lon="-1.38572">
        <ele>-10.60000038147</ele>
        <time>2021-11-23T10:43:43.000Z</time>
      </trkpt>
      <trkpt lat="46.02688" lon="-1.38601">
        <ele>-10.60000038147</ele>
        <time>2021-11-23T10:43:48.000Z</time>
      </trkpt>
      <trkpt lat="46.02715" lon="-1.38649">
        <ele>-10</ele>
        <time>2021-11-23T10:43:56.000Z</time>
      </trkpt>
      <trkpt lat="46.02734" lon="-1.38676">
        <ele>-9.3999996185303</ele>
        <time>2021-11-23T10:44:01.000Z</time>
      </trkpt>
      <trkpt lat="46.02745" lon="-1.38693">
        <ele>-9.1999998092651</ele>
        <time>2021-11-23T10:44:04.000Z</time>
      </trkpt>
      <trkpt lat="46.02772" lon="-1.38732">
        <ele>-9.3999996185303</ele>
        <time>2021-11-23T10:44:11.000Z</time>
      </trkpt>
      <trkpt lat="46.028" lon="-1.3878">
        <ele>-9.6000003814697</ele>
        <time>2021-11-23T10:44:19.000Z</time>
      </trkpt>
      <trkpt lat="46.02804" lon="-1.38784">
        <ele>-9.6000003814697</ele>
        <time>2021-11-23T10:44:20.000Z</time>
      </trkpt>
      <trkpt lat="46.02813" lon="-1.38785">
        <ele>-10</ele>
        <time>2021-11-23T10:44:22.000Z</time>
      </trkpt>
      <trkpt lat="46.0282" lon="-1.38777">
        <ele>-10.39999961853</ele>
        <time>2021-11-23T10:44:24.000Z</time>
      </trkpt>
      <trkpt lat="46.02824" lon="-1.38773">
        <ele>-10.60000038147</ele>
        <time>2021-11-23T10:44:25.000Z</time>
      </trkpt>
      <trkpt lat="46.02829" lon="-1.3877">
        <ele>-10.60000038147</ele>
        <time>2021-11-23T10:44:26.000Z</time>
      </trkpt>
      <trkpt lat="46.02837" lon="-1.38775">
        <ele>-10.800000190735</ele>
        <time>2021-11-23T10:44:28.000Z</time>
      </trkpt>
      <trkpt lat="46.02841" lon="-1.3878">
        <ele>-11</ele>
        <time>2021-11-23T10:44:29.000Z</time>
      </trkpt>
      <trkpt lat="46.02858" lon="-1.3881">
        <ele>-10.800000190735</ele>
        <time>2021-11-23T10:44:34.000Z</time>
      </trkpt>
      <trkpt lat="46.02891" lon="-1.38868">
        <ele>-10.60000038147</ele>
        <time>2021-11-23T10:44:43.000Z</time>
      </trkpt>
      <trkpt lat="46.02915" lon="-1.38905">
        <ele>-11</ele>
        <time>2021-11-23T10:44:49.000Z</time>
      </trkpt>
      <trkpt lat="46.02927" lon="-1.38924">
        <ele>-11</ele>
        <time>2021-11-23T10:44:52.000Z</time>
      </trkpt>
      <trkpt lat="46.02933" lon="-1.38938">
        <ele>-11</ele>
        <time>2021-11-23T10:44:54.000Z</time>
      </trkpt>
      <trkpt lat="46.02935" lon="-1.38945">
        <ele>-10.800000190735</ele>
        <time>2021-11-23T10:44:55.000Z</time>
      </trkpt>
      <trkpt lat="46.02936" lon="-1.38953">
        <ele>-10.800000190735</ele>
        <time>2021-11-23T10:44:56.000Z</time>
      </trkpt>
      <trkpt lat="46.02937" lon="-1.3897">
        <ele>-11</ele>
        <time>2021-11-23T10:44:58.000Z</time>
      </trkpt>
      <trkpt lat="46.0294" lon="-1.38984">
        <ele>-11</ele>
        <time>2021-11-23T10:45:00.000Z</time>
      </trkpt>
      <trkpt lat="46.02946" lon="-1.38996">
        <ele>-10.800000190735</ele>
        <time>2021-11-23T10:45:02.000Z</time>
      </trkpt>
      <trkpt lat="46.02957" lon="-1.39014">
        <ele>-11.39999961853</ele>
        <time>2021-11-23T10:45:05.000Z</time>
      </trkpt>
      <trkpt lat="46.02984" lon="-1.39059">
        <ele>-11.800000190735</ele>
        <time>2021-11-23T10:45:12.000Z</time>
      </trkpt>
      <trkpt lat="46.03019" lon="-1.39119">
        <ele>-11.60000038147</ele>
        <time>2021-11-23T10:45:21.000Z</time>
      </trkpt>
      <trkpt lat="46.03044" lon="-1.39164">
        <ele>-11.39999961853</ele>
        <time>2021-11-23T10:45:28.000Z</time>
      </trkpt>
      <trkpt lat="46.03068" lon="-1.39201">
        <ele>-11.800000190735</ele>
        <time>2021-11-23T10:45:34.000Z</time>
      </trkpt>
      <trkpt lat="46.03101" lon="-1.39259">
        <ele>-12</ele>
        <time>2021-11-23T10:45:43.000Z</time>
      </trkpt>
      <trkpt lat="46.03127" lon="-1.39303">
        <ele>-11.800000190735</ele>
        <time>2021-11-23T10:45:50.000Z</time>
      </trkpt>
      <trkpt lat="46.03142" lon="-1.39326">
        <ele>-11.800000190735</ele>
        <time>2021-11-23T10:45:54.000Z</time>
      </trkpt>
      <trkpt lat="46.03145" lon="-1.39327">
        <ele>-11.800000190735</ele>
        <time>2021-11-23T10:45:55.000Z</time>
      </trkpt>
      <trkpt lat="46.03149" lon="-1.39325">
        <ele>-11.800000190735</ele>
        <time>2021-11-23T10:45:56.000Z</time>
      </trkpt>
      <trkpt lat="46.03155" lon="-1.39318">
        <ele>-11.800000190735</ele>
        <time>2021-11-23T10:45:58.000Z</time>
      </trkpt>
      <trkpt lat="46.03182" lon="-1.39284">
        <ele>-12</ele>
        <time>2021-11-23T10:46:05.000Z</time>
      </trkpt>
      <trkpt lat="46.03212" lon="-1.3925">
        <ele>-12.199999809265</ele>
        <time>2021-11-23T10:46:12.000Z</time>
      </trkpt>
      <trkpt lat="46.0323" lon="-1.39232">
        <ele>-12.39999961853</ele>
        <time>2021-11-23T10:46:16.000Z</time>
      </trkpt>
      <trkpt lat="46.0325" lon="-1.39215">
        <ele>-12.60000038147</ele>
        <time>2021-11-23T10:46:20.000Z</time>
      </trkpt>
      <trkpt lat="46.03259" lon="-1.39206">
        <ele>-12.60000038147</ele>
        <time>2021-11-23T10:46:22.000Z</time>
      </trkpt>
      <trkpt lat="46.03266" lon="-1.39194">
        <ele>-12.39999961853</ele>
        <time>2021-11-23T10:46:24.000Z</time>
      </trkpt>
      <trkpt lat="46.03269" lon="-1.39187">
        <ele>-12.39999961853</ele>
        <time>2021-11-23T10:46:25.000Z</time>
      </trkpt>
      <trkpt lat="46.03279" lon="-1.39142">
        <ele>-12.39999961853</ele>
        <time>2021-11-23T10:46:31.000Z</time>
      </trkpt>
      <trkpt lat="46.03289" lon="-1.39114">
        <ele>-12.39999961853</ele>
        <time>2021-11-23T10:46:35.000Z</time>
      </trkpt>
      <trkpt lat="46.03292" lon="-1.39109">
        <ele>-12.199999809265</ele>
        <time>2021-11-23T10:46:36.000Z</time>
      </trkpt>
      <trkpt lat="46.03296" lon="-1.39107">
        <ele>-12.199999809265</ele>
        <time>2021-11-23T10:46:37.000Z</time>
      </trkpt>
      <trkpt lat="46.033" lon="-1.39109">
        <ele>-12</ele>
        <time>2021-11-23T10:46:38.000Z</time>
      </trkpt>
      <trkpt lat="46.03304" lon="-1.39114">
        <ele>-12</ele>
        <time>2021-11-23T10:46:39.000Z</time>
      </trkpt>
      <trkpt lat="46.0331" lon="-1.39127">
        <ele>-11.800000190735</ele>
        <time>2021-11-23T10:46:41.000Z</time>
      </trkpt>
      <trkpt lat="46.03329" lon="-1.39173">
        <ele>-11.199999809265</ele>
        <time>2021-11-23T10:46:47.000Z</time>
      </trkpt>
      <trkpt lat="46.03332" lon="-1.39181">
        <ele>-11.199999809265</ele>
        <time>2021-11-23T10:46:48.000Z</time>
      </trkpt>
      <trkpt lat="46.03352" lon="-1.39229">
        <ele>-11</ele>
        <time>2021-11-23T10:46:54.000Z</time>
      </trkpt>
      <trkpt lat="46.0338" lon="-1.39292">
        <ele>-11.199999809265</ele>
        <time>2021-11-23T10:47:03.000Z</time>
      </trkpt>
      <trkpt lat="46.0339" lon="-1.39315">
        <ele>-11.39999961853</ele>
        <time>2021-11-23T10:47:07.000Z</time>
      </trkpt>
      <trkpt lat="46.03393" lon="-1.39319">
        <ele>-11.39999961853</ele>
        <time>2021-11-23T10:47:08.000Z</time>
      </trkpt>
      <trkpt lat="46.03395" lon="-1.3932">
        <ele>-11.39999961853</ele>
        <time>2021-11-23T10:47:09.000Z</time>
      </trkpt>
      <trkpt lat="46.03396" lon="-1.39321">
        <ele>-11.39999961853</ele>
        <time>2021-11-23T10:47:11.000Z</time>
      </trkpt>
      <trkpt lat="46.03402" lon="-1.39316">
        <ele>-11.60000038147</ele>
        <time>2021-11-23T10:47:16.000Z</time>
      </trkpt>
      <trkpt lat="46.03408" lon="-1.39312">
        <ele>-11.60000038147</ele>
        <time>2021-11-23T10:47:18.000Z</time>
      </trkpt>
      <trkpt lat="46.03412" lon="-1.39309">
        <ele>-11.60000038147</ele>
        <time>2021-11-23T10:47:19.000Z</time>
      </trkpt>
      <trkpt lat="46.03429" lon="-1.39296">
        <ele>-11.60000038147</ele>
        <time>2021-11-23T10:47:23.000Z</time>
      </trkpt>
      <trkpt lat="46.03445" lon="-1.39283">
        <ele>-11.39999961853</ele>
        <time>2021-11-23T10:47:27.000Z</time>
      </trkpt>
      <trkpt lat="46.03449" lon="-1.39284">
        <ele>-11.39999961853</ele>
        <time>2021-11-23T10:47:28.000Z</time>
      </trkpt>
      <trkpt lat="46.03451" lon="-1.39289">
        <ele>-11.199999809265</ele>
        <time>2021-11-23T10:47:29.000Z</time>
      </trkpt>
      <trkpt lat="46.03453" lon="-1.39294">
        <ele>-11.199999809265</ele>
        <time>2021-11-23T10:47:30.000Z</time>
      </trkpt>
      <trkpt lat="46.03466" lon="-1.39336">
        <ele>-11</ele>
        <time>2021-11-23T10:47:36.000Z</time>
      </trkpt>
      <trkpt lat="46.03474" lon="-1.39364">
        <ele>-11</ele>
        <time>2021-11-23T10:47:40.000Z</time>
      </trkpt>
      <trkpt lat="46.0348" lon="-1.39385">
        <ele>-11</ele>
        <time>2021-11-23T10:47:43.000Z</time>
      </trkpt>
      <trkpt lat="46.03497" lon="-1.39428">
        <ele>-11</ele>
        <time>2021-11-23T10:47:50.000Z</time>
      </trkpt>
      <trkpt lat="46.03503" lon="-1.39439">
        <ele>-10.800000190735</ele>
        <time>2021-11-23T10:47:52.000Z</time>
      </trkpt>
      <trkpt lat="46.03511" lon="-1.39464">
        <ele>-10.60000038147</ele>
        <time>2021-11-23T10:47:56.000Z</time>
      </trkpt>
      <trkpt lat="46.03516" lon="-1.39477">
        <ele>-10.60000038147</ele>
        <time>2021-11-23T10:47:58.000Z</time>
      </trkpt>
      <trkpt lat="46.03522" lon="-1.39487">
        <ele>-10.60000038147</ele>
        <time>2021-11-23T10:48:00.000Z</time>
      </trkpt>
      <trkpt lat="46.03527" lon="-1.39491">
        <ele>-10.60000038147</ele>
        <time>2021-11-23T10:48:01.000Z</time>
      </trkpt>
      <trkpt lat="46.03535" lon="-1.39499">
        <ele>-10.60000038147</ele>
        <time>2021-11-23T10:48:03.000Z</time>
      </trkpt>
      <trkpt lat="46.03547" lon="-1.39509">
        <ele>-10.39999961853</ele>
        <time>2021-11-23T10:48:06.000Z</time>
      </trkpt>
      <trkpt lat="46.03555" lon="-1.39517">
        <ele>-10.39999961853</ele>
        <time>2021-11-23T10:48:08.000Z</time>
      </trkpt>
      <trkpt lat="46.03559" lon="-1.39521">
        <ele>-10.39999961853</ele>
        <time>2021-11-23T10:48:09.000Z</time>
      </trkpt>
      <trkpt lat="46.03566" lon="-1.39532">
        <ele>-10.800000190735</ele>
        <time>2021-11-23T10:48:11.000Z</time>
      </trkpt>
      <trkpt lat="46.03569" lon="-1.39538">
        <ele>-11</ele>
        <time>2021-11-23T10:48:12.000Z</time>
      </trkpt>
      <trkpt lat="46.0358" lon="-1.39555">
        <ele>-11.39999961853</ele>
        <time>2021-11-23T10:48:15.000Z</time>
      </trkpt>
      <trkpt lat="46.0359" lon="-1.39572">
        <ele>-11.60000038147</ele>
        <time>2021-11-23T10:48:18.000Z</time>
      </trkpt>
      <trkpt lat="46.03627" lon="-1.39637">
        <ele>-10.800000190735</ele>
        <time>2021-11-23T10:48:28.000Z</time>
      </trkpt>
      <trkpt lat="46.03663" lon="-1.39702">
        <ele>-11.199999809265</ele>
        <time>2021-11-23T10:48:38.000Z</time>
      </trkpt>
      <trkpt lat="46.03669" lon="-1.39715">
        <ele>-11.199999809265</ele>
        <time>2021-11-23T10:48:40.000Z</time>
      </trkpt>
      <trkpt lat="46.03691" lon="-1.39754">
        <ele>-10</ele>
        <time>2021-11-23T10:48:46.000Z</time>
      </trkpt>
      <trkpt lat="46.03694" lon="-1.3976">
        <ele>-9.8000001907349</ele>
        <time>2021-11-23T10:48:47.000Z</time>
      </trkpt>
      <trkpt lat="46.03724" lon="-1.39812">
        <ele>-9</ele>
        <time>2021-11-23T10:48:55.000Z</time>
      </trkpt>
      <trkpt lat="46.0374" lon="-1.3984">
        <ele>-8.8000001907349</ele>
        <time>2021-11-23T10:48:59.000Z</time>
      </trkpt>
      <trkpt lat="46.03753" lon="-1.39858">
        <ele>-8.8000001907349</ele>
        <time>2021-11-23T10:49:02.000Z</time>
      </trkpt>
      <trkpt lat="46.03774" lon="-1.39889">
        <ele>-9.1999998092651</ele>
        <time>2021-11-23T10:49:07.000Z</time>
      </trkpt>
      <trkpt lat="46.03781" lon="-1.39902">
        <ele>-9.3999996185303</ele>
        <time>2021-11-23T10:49:09.000Z</time>
      </trkpt>
      <trkpt lat="46.03785" lon="-1.39908">
        <ele>-9.6000003814697</ele>
        <time>2021-11-23T10:49:10.000Z</time>
      </trkpt>
      <trkpt lat="46.03815" lon="-1.39949">
        <ele>-9.8000001907349</ele>
        <time>2021-11-23T10:49:17.000Z</time>
      </trkpt>
      <trkpt lat="46.03818" lon="-1.39956">
        <ele>-10</ele>
        <time>2021-11-23T10:49:18.000Z</time>
      </trkpt>
      <trkpt lat="46.0384" lon="-1.40006">
        <ele>-9.3999996185303</ele>
        <time>2021-11-23T10:49:25.000Z</time>
      </trkpt>
      <trkpt lat="46.03847" lon="-1.40053">
        <ele>-9.6000003814697</ele>
        <time>2021-11-23T10:49:31.000Z</time>
      </trkpt>
      <trkpt lat="46.03851" lon="-1.40092">
        <ele>-10.199999809265</ele>
        <time>2021-11-23T10:49:36.000Z</time>
      </trkpt>
      <trkpt lat="46.03855" lon="-1.40108">
        <ele>-10.60000038147</ele>
        <time>2021-11-23T10:49:38.000Z</time>
      </trkpt>
      <trkpt lat="46.03868" lon="-1.4016">
        <ele>-10.800000190735</ele>
        <time>2021-11-23T10:49:46.000Z</time>
      </trkpt>
      <trkpt lat="46.03874" lon="-1.40167">
        <ele>-10.800000190735</ele>
        <time>2021-11-23T10:49:48.000Z</time>
      </trkpt>
      <trkpt lat="46.03877" lon="-1.40169">
        <ele>-10.800000190735</ele>
        <time>2021-11-23T10:49:49.000Z</time>
      </trkpt>
      <trkpt lat="46.03882" lon="-1.40172">
        <ele>-10.800000190735</ele>
        <time>2021-11-23T10:49:50.000Z</time>
      </trkpt>
      <trkpt lat="46.03889" lon="-1.40179">
        <ele>-11</ele>
        <time>2021-11-23T10:49:52.000Z</time>
      </trkpt>
      <trkpt lat="46.03893" lon="-1.40184">
        <ele>-11</ele>
        <time>2021-11-23T10:49:53.000Z</time>
      </trkpt>
      <trkpt lat="46.03909" lon="-1.40205">
        <ele>-11</ele>
        <time>2021-11-23T10:49:57.000Z</time>
      </trkpt>
      <trkpt lat="46.03912" lon="-1.40211">
        <ele>-11</ele>
        <time>2021-11-23T10:49:58.000Z</time>
      </trkpt>
      <trkpt lat="46.03913" lon="-1.40219">
        <ele>-11</ele>
        <time>2021-11-23T10:49:59.000Z</time>
      </trkpt>
      <trkpt lat="46.03913" lon="-1.40237">
        <ele>-11.199999809265</ele>
        <time>2021-11-23T10:50:01.000Z</time>
      </trkpt>
      <trkpt lat="46.03911" lon="-1.40246">
        <ele>-11.199999809265</ele>
        <time>2021-11-23T10:50:02.000Z</time>
      </trkpt>
      <trkpt lat="46.03906" lon="-1.40273">
        <ele>-11.199999809265</ele>
        <time>2021-11-23T10:50:05.000Z</time>
      </trkpt>
      <trkpt lat="46.03898" lon="-1.40342">
        <ele>-11.800000190735</ele>
        <time>2021-11-23T10:50:12.000Z</time>
      </trkpt>
      <trkpt lat="46.03895" lon="-1.40362">
        <ele>-12.199999809265</ele>
        <time>2021-11-23T10:50:14.000Z</time>
      </trkpt>
      <trkpt lat="46.03889" lon="-1.40412">
        <ele>-12.39999961853</ele>
        <time>2021-11-23T10:50:19.000Z</time>
      </trkpt>
      <trkpt lat="46.03874" lon="-1.40479">
        <ele>-12.800000190735</ele>
        <time>2021-11-23T10:50:26.000Z</time>
      </trkpt>
      <trkpt lat="46.03859" lon="-1.40556">
        <ele>-13</ele>
        <time>2021-11-23T10:50:34.000Z</time>
      </trkpt>
      <trkpt lat="46.03855" lon="-1.40576">
        <ele>-13.199999809265</ele>
        <time>2021-11-23T10:50:36.000Z</time>
      </trkpt>
      <trkpt lat="46.03848" lon="-1.40614">
        <ele>-14.39999961853</ele>
        <time>2021-11-23T10:50:40.000Z</time>
      </trkpt>
      <trkpt lat="46.03846" lon="-1.40624">
        <ele>-14.800000190735</ele>
        <time>2021-11-23T10:50:41.000Z</time>
      </trkpt>
      <trkpt lat="46.03838" lon="-1.40664">
        <ele>-15.39999961853</ele>
        <time>2021-11-23T10:50:45.000Z</time>
      </trkpt>
      <trkpt lat="46.03832" lon="-1.4069">
        <ele>-15.800000190735</ele>
        <time>2021-11-23T10:50:48.000Z</time>
      </trkpt>
      <trkpt lat="46.03828" lon="-1.40708">
        <ele>-15.800000190735</ele>
        <time>2021-11-23T10:50:50.000Z</time>
      </trkpt>
      <trkpt lat="46.0382" lon="-1.40742">
        <ele>-16.200000762939</ele>
        <time>2021-11-23T10:50:54.000Z</time>
      </trkpt>
      <trkpt lat="46.03815" lon="-1.4076">
        <ele>-16.39999961853</ele>
        <time>2021-11-23T10:50:56.000Z</time>
      </trkpt>
      <trkpt lat="46.03801" lon="-1.40809">
        <ele>-17.200000762939</ele>
        <time>2021-11-23T10:51:02.000Z</time>
      </trkpt>
      <trkpt lat="46.03799" lon="-1.40816">
        <ele>-17.200000762939</ele>
        <time>2021-11-23T10:51:03.000Z</time>
      </trkpt>
      <trkpt lat="46.03797" lon="-1.40829">
        <ele>-17.39999961853</ele>
        <time>2021-11-23T10:51:05.000Z</time>
      </trkpt>
      <trkpt lat="46.03796" lon="-1.4084">
        <ele>-17.60000038147</ele>
        <time>2021-11-23T10:51:07.000Z</time>
      </trkpt>
      <trkpt lat="46.03796" lon="-1.40865">
        <ele>-17.799999237061</ele>
        <time>2021-11-23T10:51:12.000Z</time>
      </trkpt>
      <trkpt lat="46.038" lon="-1.40883">
        <ele>-17.799999237061</ele>
        <time>2021-11-23T10:51:16.000Z</time>
      </trkpt>
      <trkpt lat="46.03801" lon="-1.40884">
        <ele>-17.799999237061</ele>
        <time>2021-11-23T10:51:17.000Z</time>
      </trkpt>
      <trkpt lat="46.03802" lon="-1.40885">
        <ele>-17.60000038147</ele>
        <time>2021-11-23T10:51:20.000Z</time>
      </trkpt>
      <trkpt lat="46.03804" lon="-1.40885">
        <ele>-15.199999809265</ele>
        <time>2021-11-23T10:52:40.000Z</time>
      </trkpt>
      <trkpt lat="46.03806" lon="-1.40886">
        <ele>-15.39999961853</ele>
        <time>2021-11-23T10:52:41.000Z</time>
      </trkpt>
      <trkpt lat="46.03807" lon="-1.40892">
        <ele>-15.39999961853</ele>
        <time>2021-11-23T10:52:43.000Z</time>
      </trkpt>
      <trkpt lat="46.03804" lon="-1.40891">
        <ele>-15.60000038147</ele>
        <time>2021-11-23T10:52:45.000Z</time>
      </trkpt>
      <trkpt lat="46.03803" lon="-1.40889">
        <ele>-15.800000190735</ele>
        <time>2021-11-23T10:52:46.000Z</time>
      </trkpt>
      <trkpt lat="46.03801" lon="-1.40886">
        <ele>-16.200000762939</ele>
        <time>2021-11-23T10:52:49.000Z</time>
      </trkpt>
      <trkpt lat="46.03806" lon="-1.40891">
        <ele>-16</ele>
        <time>2021-11-23T10:53:17.000Z</time>
      </trkpt>
      <trkpt lat="46.03812" lon="-1.40893">
        <ele>-15.60000038147</ele>
        <time>2021-11-23T10:53:19.000Z</time>
      </trkpt>
      <trkpt lat="46.03831" lon="-1.40898">
        <ele>-15.60000038147</ele>
        <time>2021-11-23T10:53:23.000Z</time>
      </trkpt>
      <trkpt lat="46.03864" lon="-1.40905">
        <ele>-15.39999961853</ele>
        <time>2021-11-23T10:53:29.000Z</time>
      </trkpt>
      <trkpt lat="46.03886" lon="-1.4091">
        <ele>-15.199999809265</ele>
        <time>2021-11-23T10:53:33.000Z</time>
      </trkpt>
      <trkpt lat="46.03903" lon="-1.40914">
        <ele>-14.800000190735</ele>
        <time>2021-11-23T10:53:36.000Z</time>
      </trkpt>
      <trkpt lat="46.03921" lon="-1.40917">
        <ele>-14.199999809265</ele>
        <time>2021-11-23T10:53:39.000Z</time>
      </trkpt>
      <trkpt lat="46.03933" lon="-1.40916">
        <ele>-14</ele>
        <time>2021-11-23T10:53:41.000Z</time>
      </trkpt>
      <trkpt lat="46.03949" lon="-1.40911">
        <ele>-13.800000190735</ele>
        <time>2021-11-23T10:53:44.000Z</time>
      </trkpt>
      <trkpt lat="46.03954" lon="-1.40911">
        <ele>-13.60000038147</ele>
        <time>2021-11-23T10:53:45.000Z</time>
      </trkpt>
      <trkpt lat="46.03959" lon="-1.40911">
        <ele>-13.60000038147</ele>
        <time>2021-11-23T10:53:46.000Z</time>
      </trkpt>
      <trkpt lat="46.03969" lon="-1.40911">
        <ele>-13.60000038147</ele>
        <time>2021-11-23T10:53:48.000Z</time>
      </trkpt>
      <trkpt lat="46.03973" lon="-1.40914">
        <ele>-13.39999961853</ele>
        <time>2021-11-23T10:53:49.000Z</time>
      </trkpt>
      <trkpt lat="46.03982" lon="-1.40921">
        <ele>-13.199999809265</ele>
        <time>2021-11-23T10:53:51.000Z</time>
      </trkpt>
      <trkpt lat="46.03991" lon="-1.40926">
        <ele>-13.199999809265</ele>
        <time>2021-11-23T10:53:53.000Z</time>
      </trkpt>
      <trkpt lat="46.04011" lon="-1.40943">
        <ele>-13.199999809265</ele>
        <time>2021-11-23T10:53:57.000Z</time>
      </trkpt>
      <trkpt lat="46.04021" lon="-1.4095">
        <ele>-13</ele>
        <time>2021-11-23T10:53:59.000Z</time>
      </trkpt>
      <trkpt lat="46.04027" lon="-1.40951">
        <ele>-12.800000190735</ele>
        <time>2021-11-23T10:54:00.000Z</time>
      </trkpt>
      <trkpt lat="46.04038" lon="-1.40951">
        <ele>-12.60000038147</ele>
        <time>2021-11-23T10:54:02.000Z</time>
      </trkpt>
      <trkpt lat="46.04044" lon="-1.4095">
        <ele>-12.60000038147</ele>
        <time>2021-11-23T10:54:03.000Z</time>
      </trkpt>
      <trkpt lat="46.04049" lon="-1.40949">
        <ele>-12.39999961853</ele>
        <time>2021-11-23T10:54:04.000Z</time>
      </trkpt>
      <trkpt lat="46.04058" lon="-1.40956">
        <ele>-12.39999961853</ele>
        <time>2021-11-23T10:54:06.000Z</time>
      </trkpt>
      <trkpt lat="46.04063" lon="-1.4097">
        <ele>-12.39999961853</ele>
        <time>2021-11-23T10:54:08.000Z</time>
      </trkpt>
      <trkpt lat="46.04068" lon="-1.40995">
        <ele>-12.39999961853</ele>
        <time>2021-11-23T10:54:11.000Z</time>
      </trkpt>
      <trkpt lat="46.04077" lon="-1.41027">
        <ele>-12.39999961853</ele>
        <time>2021-11-23T10:54:15.000Z</time>
      </trkpt>
      <trkpt lat="46.0408" lon="-1.41033">
        <ele>-12.60000038147</ele>
        <time>2021-11-23T10:54:16.000Z</time>
      </trkpt>
      <trkpt lat="46.04084" lon="-1.41039">
        <ele>-12.60000038147</ele>
        <time>2021-11-23T10:54:17.000Z</time>
      </trkpt>
      <trkpt lat="46.04094" lon="-1.41046">
        <ele>-12.39999961853</ele>
        <time>2021-11-23T10:54:19.000Z</time>
      </trkpt>
      <trkpt lat="46.041" lon="-1.41048">
        <ele>-12.39999961853</ele>
        <time>2021-11-23T10:54:20.000Z</time>
      </trkpt>
      <trkpt lat="46.04121" lon="-1.41056">
        <ele>-11.60000038147</ele>
        <time>2021-11-23T10:54:24.000Z</time>
      </trkpt>
      <trkpt lat="46.04126" lon="-1.41057">
        <ele>-11.39999961853</ele>
        <time>2021-11-23T10:54:25.000Z</time>
      </trkpt>
      <trkpt lat="46.04147" lon="-1.41059">
        <ele>-11</ele>
        <time>2021-11-23T10:54:29.000Z</time>
      </trkpt>
      <trkpt lat="46.04159" lon="-1.41062">
        <ele>-11</ele>
        <time>2021-11-23T10:54:32.000Z</time>
      </trkpt>
      <trkpt lat="46.04161" lon="-1.41063">
        <ele>-10.60000038147</ele>
        <time>2021-11-23T10:54:34.000Z</time>
      </trkpt>
      <trkpt lat="46.0416" lon="-1.41063">
        <ele>-10</ele>
        <time>2021-11-23T10:54:39.000Z</time>
      </trkpt>
      <trkpt lat="46.04164" lon="-1.41063">
        <ele>-9.3999996185303</ele>
        <time>2021-11-23T10:55:01.000Z</time>
      </trkpt>
      <trkpt lat="46.04167" lon="-1.41063">
        <ele>-9.3999996185303</ele>
        <time>2021-11-23T10:55:02.000Z</time>
      </trkpt>
      <trkpt lat="46.04186" lon="-1.41067">
        <ele>-9.6000003814697</ele>
        <time>2021-11-23T10:55:07.000Z</time>
      </trkpt>
      <trkpt lat="46.04217" lon="-1.41066">
        <ele>-10.199999809265</ele>
        <time>2021-11-23T10:55:13.000Z</time>
      </trkpt>
      <trkpt lat="46.04226" lon="-1.4107">
        <ele>-10.199999809265</ele>
        <time>2021-11-23T10:55:15.000Z</time>
      </trkpt>
      <trkpt lat="46.04232" lon="-1.41072">
        <ele>-10.199999809265</ele>
        <time>2021-11-23T10:55:16.000Z</time>
      </trkpt>
      <trkpt lat="46.04244" lon="-1.41075">
        <ele>-10.39999961853</ele>
        <time>2021-11-23T10:55:18.000Z</time>
      </trkpt>
      <trkpt lat="46.0425" lon="-1.41075">
        <ele>-10.199999809265</ele>
        <time>2021-11-23T10:55:19.000Z</time>
      </trkpt>
      <trkpt lat="46.04255" lon="-1.41076">
        <ele>-10.199999809265</ele>
        <time>2021-11-23T10:55:20.000Z</time>
      </trkpt>
      <trkpt lat="46.04265" lon="-1.4108">
        <ele>-10</ele>
        <time>2021-11-23T10:55:22.000Z</time>
      </trkpt>
      <trkpt lat="46.0427" lon="-1.4108">
        <ele>-10</ele>
        <time>2021-11-23T10:55:23.000Z</time>
      </trkpt>
      <trkpt lat="46.04283" lon="-1.41082">
        <ele>-9.8000001907349</ele>
        <time>2021-11-23T10:55:26.000Z</time>
      </trkpt>
      <trkpt lat="46.04293" lon="-1.41084">
        <ele>-9.6000003814697</ele>
        <time>2021-11-23T10:55:28.000Z</time>
      </trkpt>
      <trkpt lat="46.04305" lon="-1.41085">
        <ele>-9.1999998092651</ele>
        <time>2021-11-23T10:55:31.000Z</time>
      </trkpt>
      <trkpt lat="46.04309" lon="-1.41085">
        <ele>-9.1999998092651</ele>
        <time>2021-11-23T10:55:32.000Z</time>
      </trkpt>
      <trkpt lat="46.04316" lon="-1.41085">
        <ele>-8.8000001907349</ele>
        <time>2021-11-23T10:55:34.000Z</time>
      </trkpt>
      <trkpt lat="46.0432" lon="-1.41086">
        <ele>-8.6000003814697</ele>
        <time>2021-11-23T10:55:38.000Z</time>
      </trkpt>
      <trkpt lat="46.04324" lon="-1.41085">
        <ele>-9</ele>
        <time>2021-11-23T11:01:41.000Z</time>
      </trkpt>
      <trkpt lat="46.04331" lon="-1.41085">
        <ele>-9.1999998092651</ele>
        <time>2021-11-23T11:01:43.000Z</time>
      </trkpt>
      <trkpt lat="46.0434" lon="-1.41083">
        <ele>-9.3999996185303</ele>
        <time>2021-11-23T11:01:45.000Z</time>
      </trkpt>
      <trkpt lat="46.04345" lon="-1.41081">
        <ele>-9.3999996185303</ele>
        <time>2021-11-23T11:01:46.000Z</time>
      </trkpt>
      <trkpt lat="46.0435" lon="-1.41081">
        <ele>-9.6000003814697</ele>
        <time>2021-11-23T11:01:47.000Z</time>
      </trkpt>
      <trkpt lat="46.04361" lon="-1.41081">
        <ele>-10</ele>
        <time>2021-11-23T11:01:49.000Z</time>
      </trkpt>
      <trkpt lat="46.04371" lon="-1.41078">
        <ele>-10.199999809265</ele>
        <time>2021-11-23T11:01:51.000Z</time>
      </trkpt>
      <trkpt lat="46.04381" lon="-1.41076">
        <ele>-10.199999809265</ele>
        <time>2021-11-23T11:01:53.000Z</time>
      </trkpt>
      <trkpt lat="46.04393" lon="-1.41077">
        <ele>-10</ele>
        <time>2021-11-23T11:01:55.000Z</time>
      </trkpt>
      <trkpt lat="46.04404" lon="-1.41079">
        <ele>-9.8000001907349</ele>
        <time>2021-11-23T11:01:57.000Z</time>
      </trkpt>
      <trkpt lat="46.04415" lon="-1.41083">
        <ele>-9.6000003814697</ele>
        <time>2021-11-23T11:01:59.000Z</time>
      </trkpt>
      <trkpt lat="46.0442" lon="-1.41085">
        <ele>-9.6000003814697</ele>
        <time>2021-11-23T11:02:00.000Z</time>
      </trkpt>
      <trkpt lat="46.04425" lon="-1.41087">
        <ele>-9.1999998092651</ele>
        <time>2021-11-23T11:02:01.000Z</time>
      </trkpt>
      <trkpt lat="46.04434" lon="-1.41086">
        <ele>-9.1999998092651</ele>
        <time>2021-11-23T11:02:03.000Z</time>
      </trkpt>
      <trkpt lat="46.04444" lon="-1.41085">
        <ele>-9</ele>
        <time>2021-11-23T11:02:05.000Z</time>
      </trkpt>
      <trkpt lat="46.04452" lon="-1.41081">
        <ele>-8.3999996185303</ele>
        <time>2021-11-23T11:02:07.000Z</time>
      </trkpt>
      <trkpt lat="46.04461" lon="-1.41077">
        <ele>-8</ele>
        <time>2021-11-23T11:02:09.000Z</time>
      </trkpt>
      <trkpt lat="46.04472" lon="-1.41072">
        <ele>-7.8000001907349</ele>
        <time>2021-11-23T11:02:11.000Z</time>
      </trkpt>
      <trkpt lat="46.0448" lon="-1.41078">
        <ele>-7.8000001907349</ele>
        <time>2021-11-23T11:02:13.000Z</time>
      </trkpt>
      <trkpt lat="46.04484" lon="-1.41082">
        <ele>-7.5999999046326</ele>
        <time>2021-11-23T11:02:14.000Z</time>
      </trkpt>
      <trkpt lat="46.04503" lon="-1.41093">
        <ele>-7.4000000953674</ele>
        <time>2021-11-23T11:02:18.000Z</time>
      </trkpt>
      <trkpt lat="46.04514" lon="-1.41094">
        <ele>-7.4000000953674</ele>
        <time>2021-11-23T11:02:20.000Z</time>
      </trkpt>
      <trkpt lat="46.04523" lon="-1.41095">
        <ele>-7.4000000953674</ele>
        <time>2021-11-23T11:02:22.000Z</time>
      </trkpt>
      <trkpt lat="46.04528" lon="-1.41098">
        <ele>-7.4000000953674</ele>
        <time>2021-11-23T11:02:23.000Z</time>
      </trkpt>
      <trkpt lat="46.04547" lon="-1.41111">
        <ele>-7.4000000953674</ele>
        <time>2021-11-23T11:02:27.000Z</time>
      </trkpt>
      <trkpt lat="46.04556" lon="-1.41112">
        <ele>-7.5999999046326</ele>
        <time>2021-11-23T11:02:29.000Z</time>
      </trkpt>
      <trkpt lat="46.04566" lon="-1.41111">
        <ele>-7.5999999046326</ele>
        <time>2021-11-23T11:02:32.000Z</time>
      </trkpt>
      <trkpt lat="46.04585" lon="-1.41145">
        <ele>-7.1999998092651</ele>
        <time>2021-11-23T11:02:38.000Z</time>
      </trkpt>
      <trkpt lat="46.04599" lon="-1.41171">
        <ele>-7.1999998092651</ele>
        <time>2021-11-23T11:02:42.000Z</time>
      </trkpt>
      <trkpt lat="46.04602" lon="-1.41178">
        <ele>-7.1999998092651</ele>
        <time>2021-11-23T11:02:43.000Z</time>
      </trkpt>
      <trkpt lat="46.04605" lon="-1.41185">
        <ele>-7.1999998092651</ele>
        <time>2021-11-23T11:02:44.000Z</time>
      </trkpt>
      <trkpt lat="46.04616" lon="-1.41202">
        <ele>-7</ele>
        <time>2021-11-23T11:02:47.000Z</time>
      </trkpt>
      <trkpt lat="46.0462" lon="-1.41208">
        <ele>-7</ele>
        <time>2021-11-23T11:02:48.000Z</time>
      </trkpt>
      <trkpt lat="46.04624" lon="-1.41213">
        <ele>-7</ele>
        <time>2021-11-23T11:02:49.000Z</time>
      </trkpt>
      <trkpt lat="46.04633" lon="-1.4122">
        <ele>-7</ele>
        <time>2021-11-23T11:02:51.000Z</time>
      </trkpt>
      <trkpt lat="46.04638" lon="-1.41221">
        <ele>-7</ele>
        <time>2021-11-23T11:02:52.000Z</time>
      </trkpt>
      <trkpt lat="46.04653" lon="-1.41222">
        <ele>-7</ele>
        <time>2021-11-23T11:02:55.000Z</time>
      </trkpt>
      <trkpt lat="46.04662" lon="-1.41218">
        <ele>-7.1999998092651</ele>
        <time>2021-11-23T11:02:57.000Z</time>
      </trkpt>
      <trkpt lat="46.0467" lon="-1.41206">
        <ele>-7.5999999046326</ele>
        <time>2021-11-23T11:03:00.000Z</time>
      </trkpt>
      <trkpt lat="46.04673" lon="-1.41196">
        <ele>-7.5999999046326</ele>
        <time>2021-11-23T11:03:02.000Z</time>
      </trkpt>
      <trkpt lat="46.0468" lon="-1.41172">
        <ele>-7.4000000953674</ele>
        <time>2021-11-23T11:03:06.000Z</time>
      </trkpt>
      <trkpt lat="46.04682" lon="-1.41166">
        <ele>-7.4000000953674</ele>
        <time>2021-11-23T11:03:07.000Z</time>
      </trkpt>
      <trkpt lat="46.04699" lon="-1.41135">
        <ele>-7.4000000953674</ele>
        <time>2021-11-23T11:03:12.000Z</time>
      </trkpt>
      <trkpt lat="46.04723" lon="-1.41105">
        <ele>-6</ele>
        <time>2021-11-23T11:03:18.000Z</time>
      </trkpt>
      <trkpt lat="46.04735" lon="-1.41089">
        <ele>-5.8000001907349</ele>
        <time>2021-11-23T11:03:21.000Z</time>
      </trkpt>
      <trkpt lat="46.04746" lon="-1.41073">
        <ele>-5.8000001907349</ele>
        <time>2021-11-23T11:03:24.000Z</time>
      </trkpt>
      <trkpt lat="46.0475" lon="-1.41067">
        <ele>-5.8000001907349</ele>
        <time>2021-11-23T11:03:25.000Z</time>
      </trkpt>
      <trkpt lat="46.04766" lon="-1.41043">
        <ele>-5.4000000953674</ele>
        <time>2021-11-23T11:03:29.000Z</time>
      </trkpt>
      <trkpt lat="46.04768" lon="-1.41035">
        <ele>-5.4000000953674</ele>
        <time>2021-11-23T11:03:30.000Z</time>
      </trkpt>
      <trkpt lat="46.0477" lon="-1.41026">
        <ele>-5.4000000953674</ele>
        <time>2021-11-23T11:03:31.000Z</time>
      </trkpt>
      <trkpt lat="46.0477" lon="-1.41008">
        <ele>-5</ele>
        <time>2021-11-23T11:03:33.000Z</time>
      </trkpt>
      <trkpt lat="46.04769" lon="-1.40999">
        <ele>-5</ele>
        <time>2021-11-23T11:03:34.000Z</time>
      </trkpt>
      <trkpt lat="46.04768" lon="-1.40991">
        <ele>-4.8000001907349</ele>
        <time>2021-11-23T11:03:35.000Z</time>
      </trkpt>
      <trkpt lat="46.04766" lon="-1.40974">
        <ele>-4.8000001907349</ele>
        <time>2021-11-23T11:03:37.000Z</time>
      </trkpt>
      <trkpt lat="46.04759" lon="-1.40928">
        <ele>-4.8000001907349</ele>
        <time>2021-11-23T11:03:43.000Z</time>
      </trkpt>
      <trkpt lat="46.04756" lon="-1.40914">
        <ele>-4.5999999046326</ele>
        <time>2021-11-23T11:03:45.000Z</time>
      </trkpt>
      <trkpt lat="46.04754" lon="-1.40891">
        <ele>-4.4000000953674</ele>
        <time>2021-11-23T11:03:48.000Z</time>
      </trkpt>
      <trkpt lat="46.04755" lon="-1.40875">
        <ele>-4.1999998092651</ele>
        <time>2021-11-23T11:03:50.000Z</time>
      </trkpt>
      <trkpt lat="46.0476" lon="-1.40844">
        <ele>-4.1999998092651</ele>
        <time>2021-11-23T11:03:54.000Z</time>
      </trkpt>
      <trkpt lat="46.04761" lon="-1.40836">
        <ele>-4.1999998092651</ele>
        <time>2021-11-23T11:03:55.000Z</time>
      </trkpt>
      <trkpt lat="46.04768" lon="-1.40822">
        <ele>-4.5999999046326</ele>
        <time>2021-11-23T11:03:57.000Z</time>
      </trkpt>
      <trkpt lat="46.0477" lon="-1.40816">
        <ele>-4.8000001907349</ele>
        <time>2021-11-23T11:03:58.000Z</time>
      </trkpt>
      <trkpt lat="46.04772" lon="-1.408">
        <ele>-5.1999998092651</ele>
        <time>2021-11-23T11:04:00.000Z</time>
      </trkpt>
      <trkpt lat="46.04774" lon="-1.40784">
        <ele>-5.4000000953674</ele>
        <time>2021-11-23T11:04:02.000Z</time>
      </trkpt>
      <trkpt lat="46.04778" lon="-1.40767">
        <ele>-5.5999999046326</ele>
        <time>2021-11-23T11:04:04.000Z</time>
      </trkpt>
      <trkpt lat="46.0478" lon="-1.40751">
        <ele>-5.8000001907349</ele>
        <time>2021-11-23T11:04:06.000Z</time>
      </trkpt>
      <trkpt lat="46.04781" lon="-1.40742">
        <ele>-5.8000001907349</ele>
        <time>2021-11-23T11:04:07.000Z</time>
      </trkpt>
      <trkpt lat="46.04783" lon="-1.40712">
        <ele>-6.1999998092651</ele>
        <time>2021-11-23T11:04:11.000Z</time>
      </trkpt>
      <trkpt lat="46.04779" lon="-1.40699">
        <ele>-6.4000000953674</ele>
        <time>2021-11-23T11:04:13.000Z</time>
      </trkpt>
      <trkpt lat="46.04773" lon="-1.40685">
        <ele>-6.5999999046326</ele>
        <time>2021-11-23T11:04:16.000Z</time>
      </trkpt>
      <trkpt lat="46.04775" lon="-1.40683">
        <ele>-6.4000000953674</ele>
        <time>2021-11-23T11:04:18.000Z</time>
      </trkpt>
      <trkpt lat="46.04776" lon="-1.40683">
        <ele>-6</ele>
        <time>2021-11-23T11:04:22.000Z</time>
      </trkpt>
      <trkpt lat="46.04773" lon="-1.40684">
        <ele>1.3999999761581</ele>
        <time>2021-11-23T11:04:54.000Z</time>
      </trkpt>
      <trkpt lat="46.04764" lon="-1.40682">
        <ele>1.6000000238419</ele>
        <time>2021-11-23T11:04:59.000Z</time>
      </trkpt>
      <trkpt lat="46.04757" lon="-1.40678">
        <ele>1.6000000238419</ele>
        <time>2021-11-23T11:05:00.000Z</time>
      </trkpt>
      <trkpt lat="46.04749" lon="-1.40671">
        <ele>1.2000000476837</ele>
        <time>2021-11-23T11:05:02.000Z</time>
      </trkpt>
      <trkpt lat="46.04743" lon="-1.40662">
        <ele>0.80000001192093</ele>
        <time>2021-11-23T11:05:04.000Z</time>
      </trkpt>
      <trkpt lat="46.0474" lon="-1.40658">
        <ele>0.60000002384186</ele>
        <time>2021-11-23T11:05:05.000Z</time>
      </trkpt>
      <trkpt lat="46.04736" lon="-1.40653">
        <ele>0.20000000298023</ele>
        <time>2021-11-23T11:05:06.000Z</time>
      </trkpt>
      <trkpt lat="46.04726" lon="-1.40633">
        <ele>-0.40000000596046</ele>
        <time>2021-11-23T11:05:10.000Z</time>
      </trkpt>
      <trkpt lat="46.04722" lon="-1.40627">
        <ele>-1</ele>
        <time>2021-11-23T11:05:12.000Z</time>
      </trkpt>
      <trkpt lat="46.04698" lon="-1.40567">
        <ele>9.9</ele>
      </trkpt>
      <trkpt lat="46.04606" lon="-1.40622">
        <ele>10.1</ele>
      </trkpt>
      <trkpt lat="46.04601" lon="-1.40607">
        <ele>-6.5999999046326</ele>
        <time>2021-11-23T11:06:26.000Z</time>
      </trkpt>
      <trkpt lat="46.04588" lon="-1.40542">
        <ele>-6.1999998092651</ele>
        <time>2021-11-23T11:06:34.000Z</time>
      </trkpt>
      <trkpt lat="46.04578" lon="-1.40482">
        <ele>-5.8000001907349</ele>
        <time>2021-11-23T11:06:41.000Z</time>
      </trkpt>
      <trkpt lat="46.04562" lon="-1.40411">
        <ele>-5.4000000953674</ele>
        <time>2021-11-23T11:06:49.000Z</time>
      </trkpt>
      <trkpt lat="46.0456" lon="-1.40403">
        <ele>-5.4000000953674</ele>
        <time>2021-11-23T11:06:50.000Z</time>
      </trkpt>
      <trkpt lat="46.04551" lon="-1.40362">
        <ele>-5.5999999046326</ele>
        <time>2021-11-23T11:06:55.000Z</time>
      </trkpt>
      <trkpt lat="46.04547" lon="-1.40358">
        <ele>-5.5999999046326</ele>
        <time>2021-11-23T11:06:56.000Z</time>
      </trkpt>
      <trkpt lat="46.04531" lon="-1.40362">
        <ele>-6</ele>
        <time>2021-11-23T11:06:59.000Z</time>
      </trkpt>
      <trkpt lat="46.04495" lon="-1.40379">
        <ele>-6.4000000953674</ele>
        <time>2021-11-23T11:07:05.000Z</time>
      </trkpt>
      <trkpt lat="46.04468" lon="-1.4039">
        <ele>-7</ele>
        <time>2021-11-23T11:07:09.000Z</time>
      </trkpt>
      <trkpt lat="46.04436" lon="-1.40404">
        <ele>-7.5999999046326</ele>
        <time>2021-11-23T11:07:14.000Z</time>
      </trkpt>
      <trkpt lat="46.04416" lon="-1.40412">
        <ele>-7.8000001907349</ele>
        <time>2021-11-23T11:07:17.000Z</time>
      </trkpt>
      <trkpt lat="46.04358" lon="-1.40432">
        <ele>-7.1999998092651</ele>
        <time>2021-11-23T11:07:26.000Z</time>
      </trkpt>
      <trkpt lat="46.04351" lon="-1.40434">
        <ele>-7.1999998092651</ele>
        <time>2021-11-23T11:07:27.000Z</time>
      </trkpt>
      <trkpt lat="46.04297" lon="-1.40444">
        <ele>-7.4000000953674</ele>
        <time>2021-11-23T11:07:35.000Z</time>
      </trkpt>
      <trkpt lat="46.0429" lon="-1.40446">
        <ele>-7.4000000953674</ele>
        <time>2021-11-23T11:07:36.000Z</time>
      </trkpt>
      <trkpt lat="46.04278" lon="-1.4045">
        <ele>-7.4000000953674</ele>
        <time>2021-11-23T11:07:38.000Z</time>
      </trkpt>
      <trkpt lat="46.04261" lon="-1.40461">
        <ele>-7.1999998092651</ele>
        <time>2021-11-23T11:07:41.000Z</time>
      </trkpt>
      <trkpt lat="46.0425" lon="-1.40468">
        <ele>-7.5999999046326</ele>
        <time>2021-11-23T11:07:43.000Z</time>
      </trkpt>
      <trkpt lat="46.04241" lon="-1.40476">
        <ele>-7.8000001907349</ele>
        <time>2021-11-23T11:07:45.000Z</time>
      </trkpt>
      <trkpt lat="46.04234" lon="-1.40475">
        <ele>-8</ele>
        <time>2021-11-23T11:07:47.000Z</time>
      </trkpt>
      <trkpt lat="46.04228" lon="-1.40466">
        <ele>-8.1999998092651</ele>
        <time>2021-11-23T11:07:49.000Z</time>
      </trkpt>
      <trkpt lat="46.04223" lon="-1.40452">
        <ele>-8.1999998092651</ele>
        <time>2021-11-23T11:07:51.000Z</time>
      </trkpt>
      <trkpt lat="46.042" lon="-1.40393">
        <ele>-7.5999999046326</ele>
        <time>2021-11-23T11:07:59.000Z</time>
      </trkpt>
      <trkpt lat="46.04198" lon="-1.40385">
        <ele>-7.5999999046326</ele>
        <time>2021-11-23T11:08:00.000Z</time>
      </trkpt>
      <trkpt lat="46.04199" lon="-1.40372">
        <ele>-7.5999999046326</ele>
        <time>2021-11-23T11:08:02.000Z</time>
      </trkpt>
      <trkpt lat="46.04212" lon="-1.40358">
        <ele>-7.4000000953674</ele>
        <time>2021-11-23T11:08:05.000Z</time>
      </trkpt>
      <trkpt lat="46.04252" lon="-1.40323">
        <ele>-6.5999999046326</ele>
        <time>2021-11-23T11:08:13.000Z</time>
      </trkpt>
      <trkpt lat="46.0427" lon="-1.40304">
        <ele>-6.4000000953674</ele>
        <time>2021-11-23T11:08:17.000Z</time>
      </trkpt>
      <trkpt lat="46.04289" lon="-1.40286">
        <ele>-6</ele>
        <time>2021-11-23T11:08:22.000Z</time>
      </trkpt>
      <trkpt lat="46.04314" lon="-1.40268">
        <ele>-5.5999999046326</ele>
        <time>2021-11-23T11:08:26.000Z</time>
      </trkpt>
      <trkpt lat="46.04319" lon="-1.40266">
        <ele>-5.4000000953674</ele>
        <time>2021-11-23T11:08:27.000Z</time>
      </trkpt>
      <trkpt lat="46.04329" lon="-1.4026">
        <ele>-5.1999998092651</ele>
        <time>2021-11-23T11:08:29.000Z</time>
      </trkpt>
      <trkpt lat="46.04348" lon="-1.40244">
        <ele>-5</ele>
        <time>2021-11-23T11:08:33.000Z</time>
      </trkpt>
      <trkpt lat="46.04366" lon="-1.40225">
        <ele>-4.5999999046326</ele>
        <time>2021-11-23T11:08:37.000Z</time>
      </trkpt>
      <trkpt lat="46.0437" lon="-1.40223">
        <ele>-4.4000000953674</ele>
        <time>2021-11-23T11:08:38.000Z</time>
      </trkpt>
      <trkpt lat="46.04386" lon="-1.40207">
        <ele>-4.1999998092651</ele>
        <time>2021-11-23T11:08:42.000Z</time>
      </trkpt>
      <trkpt lat="46.04388" lon="-1.40203">
        <ele>-4.1999998092651</ele>
        <time>2021-11-23T11:08:43.000Z</time>
      </trkpt>
      <trkpt lat="46.04381" lon="-1.40187">
        <ele>-4.1999998092651</ele>
        <time>2021-11-23T11:08:46.000Z</time>
      </trkpt>
      <trkpt lat="46.04371" lon="-1.40159">
        <ele>-3.7999999523163</ele>
        <time>2021-11-23T11:08:50.000Z</time>
      </trkpt>
      <trkpt lat="46.04349" lon="-1.40099">
        <ele>-3.5999999046326</ele>
        <time>2021-11-23T11:08:58.000Z</time>
      </trkpt>
      <trkpt lat="46.04334" lon="-1.40055">
        <ele>-3.7999999523163</ele>
        <time>2021-11-23T11:09:04.000Z</time>
      </trkpt>
      <trkpt lat="46.04334" lon="-1.40047">
        <ele>-3.7999999523163</ele>
        <time>2021-11-23T11:09:05.000Z</time>
      </trkpt>
      <trkpt lat="46.04336" lon="-1.40042">
        <ele>-3.7999999523163</ele>
        <time>2021-11-23T11:09:06.000Z</time>
      </trkpt>
      <trkpt lat="46.04344" lon="-1.40033">
        <ele>-3.7999999523163</ele>
        <time>2021-11-23T11:09:08.000Z</time>
      </trkpt>
      <trkpt lat="46.04378" lon="-1.40004">
        <ele>-4.1999998092651</ele>
        <time>2021-11-23T11:09:15.000Z</time>
      </trkpt>
      <trkpt lat="46.04413" lon="-1.39973">
        <ele>-3.5999999046326</ele>
        <time>2021-11-23T11:09:23.000Z</time>
      </trkpt>
      <trkpt lat="46.04416" lon="-1.39963">
        <ele>-3.4000000953674</ele>
        <time>2021-11-23T11:09:25.000Z</time>
      </trkpt>
      <trkpt lat="46.04417" lon="-1.39956">
        <ele>-3.2000000476837</ele>
        <time>2021-11-23T11:09:26.000Z</time>
      </trkpt>
      <trkpt lat="46.04419" lon="-1.39949">
        <ele>-3.2000000476837</ele>
        <time>2021-11-23T11:09:27.000Z</time>
      </trkpt>
      <trkpt lat="46.04426" lon="-1.39928">
        <ele>-3</ele>
        <time>2021-11-23T11:09:30.000Z</time>
      </trkpt>
      <trkpt lat="46.04429" lon="-1.39913">
        <ele>-3</ele>
        <time>2021-11-23T11:09:32.000Z</time>
      </trkpt>
      <trkpt lat="46.04439" lon="-1.39897">
        <ele>-3</ele>
        <time>2021-11-23T11:09:35.000Z</time>
      </trkpt>
      <trkpt lat="46.04453" lon="-1.39864">
        <ele>-2.7999999523163</ele>
        <time>2021-11-23T11:09:40.000Z</time>
      </trkpt>
      <trkpt lat="46.04458" lon="-1.39848">
        <ele>-2.7999999523163</ele>
        <time>2021-11-23T11:09:42.000Z</time>
      </trkpt>
      <trkpt lat="46.04459" lon="-1.39838">
        <ele>-3</ele>
        <time>2021-11-23T11:09:43.000Z</time>
      </trkpt>
      <trkpt lat="46.0446" lon="-1.39818">
        <ele>-3.2000000476837</ele>
        <time>2021-11-23T11:09:45.000Z</time>
      </trkpt>
      <trkpt lat="46.04458" lon="-1.39784">
        <ele>-3.5999999046326</ele>
        <time>2021-11-23T11:09:48.000Z</time>
      </trkpt>
      <trkpt lat="46.04455" lon="-1.39761">
        <ele>-4.1999998092651</ele>
        <time>2021-11-23T11:09:50.000Z</time>
      </trkpt>
      <trkpt lat="46.04447" lon="-1.39695">
        <ele>-5.4000000953674</ele>
        <time>2021-11-23T11:09:56.000Z</time>
      </trkpt>
      <trkpt lat="46.04445" lon="-1.39685">
        <ele>-5.4000000953674</ele>
        <time>2021-11-23T11:09:57.000Z</time>
      </trkpt>
      <trkpt lat="46.04434" lon="-1.39658">
        <ele>-5.4000000953674</ele>
        <time>2021-11-23T11:10:00.000Z</time>
      </trkpt>
      <trkpt lat="46.04432" lon="-1.3965">
        <ele>-5.5999999046326</ele>
        <time>2021-11-23T11:10:01.000Z</time>
      </trkpt>
      <trkpt lat="46.04422" lon="-1.39595">
        <ele>-6</ele>
        <time>2021-11-23T11:10:07.000Z</time>
      </trkpt>
      <trkpt lat="46.04415" lon="-1.3955">
        <ele>-6.1999998092651</ele>
        <time>2021-11-23T11:10:12.000Z</time>
      </trkpt>
      <trkpt lat="46.04407" lon="-1.39535">
        <ele>-6</ele>
        <time>2021-11-23T11:10:14.000Z</time>
      </trkpt>
      <trkpt lat="46.04397" lon="-1.39525">
        <ele>-5.8000001907349</ele>
        <time>2021-11-23T11:10:16.000Z</time>
      </trkpt>
      <trkpt lat="46.04392" lon="-1.3952">
        <ele>-5.8000001907349</ele>
        <time>2021-11-23T11:10:18.000Z</time>
      </trkpt>
      <trkpt lat="46.04385" lon="-1.39508">
        <ele>-5.8000001907349</ele>
        <time>2021-11-23T11:10:19.000Z</time>
      </trkpt>
      <trkpt lat="46.04378" lon="-1.39491">
        <ele>-5.5999999046326</ele>
        <time>2021-11-23T11:10:22.000Z</time>
      </trkpt>
      <trkpt lat="46.04375" lon="-1.39486">
        <ele>-5.1999998092651</ele>
        <time>2021-11-23T11:10:23.000Z</time>
      </trkpt>
      <trkpt lat="46.04368" lon="-1.39478">
        <ele>-5</ele>
        <time>2021-11-23T11:10:25.000Z</time>
      </trkpt>
      <trkpt lat="46.04364" lon="-1.39474">
        <ele>-5</ele>
        <time>2021-11-23T11:10:26.000Z</time>
      </trkpt>
      <trkpt lat="46.0436" lon="-1.39468">
        <ele>-4.5999999046326</ele>
        <time>2021-11-23T11:10:27.000Z</time>
      </trkpt>
      <trkpt lat="46.04353" lon="-1.39448">
        <ele>-4.1999998092651</ele>
        <time>2021-11-23T11:10:30.000Z</time>
      </trkpt>
      <trkpt lat="46.04332" lon="-1.39394">
        <ele>-4</ele>
        <time>2021-11-23T11:10:37.000Z</time>
      </trkpt>
      <trkpt lat="46.04319" lon="-1.39362">
        <ele>-4.1999998092651</ele>
        <time>2021-11-23T11:10:41.000Z</time>
      </trkpt>
      <trkpt lat="46.0431" lon="-1.3935">
        <ele>-4.4000000953674</ele>
        <time>2021-11-23T11:10:43.000Z</time>
      </trkpt>
      <trkpt lat="46.04283" lon="-1.3932">
        <ele>-4.5999999046326</ele>
        <time>2021-11-23T11:10:48.000Z</time>
      </trkpt>
      <trkpt lat="46.04276" lon="-1.39315">
        <ele>-5.8000001907349</ele>
        <time>2021-11-23T11:11:03.000Z</time>
      </trkpt>
      <trkpt lat="46.0427" lon="-1.39323">
        <ele>-5.8000001907349</ele>
        <time>2021-11-23T11:11:05.000Z</time>
      </trkpt>
      <trkpt lat="46.04262" lon="-1.39331">
        <ele>-6</ele>
        <time>2021-11-23T11:11:07.000Z</time>
      </trkpt>
      <trkpt lat="46.04253" lon="-1.39339">
        <ele>-6.1999998092651</ele>
        <time>2021-11-23T11:11:10.000Z</time>
      </trkpt>
      <trkpt lat="46.04244" lon="-1.39348">
        <ele>-7</ele>
        <time>2021-11-23T11:11:11.000Z</time>
      </trkpt>
      <trkpt lat="46.04225" lon="-1.39366">
        <ele>-7.8000001907349</ele>
        <time>2021-11-23T11:11:15.000Z</time>
      </trkpt>
      <trkpt lat="46.04218" lon="-1.39376">
        <ele>-7.8000001907349</ele>
        <time>2021-11-23T11:11:17.000Z</time>
      </trkpt>
      <trkpt lat="46.04218" lon="-1.39383">
        <ele>-8</ele>
        <time>2021-11-23T11:11:18.000Z</time>
      </trkpt>
      <trkpt lat="46.04218" lon="-1.39389">
        <ele>-8</ele>
        <time>2021-11-23T11:11:19.000Z</time>
      </trkpt>
      <trkpt lat="46.04216" lon="-1.39402">
        <ele>-8</ele>
        <time>2021-11-23T11:11:21.000Z</time>
      </trkpt>
      <trkpt lat="46.04212" lon="-1.39408">
        <ele>-8.1999998092651</ele>
        <time>2021-11-23T11:11:22.000Z</time>
      </trkpt>
      <trkpt lat="46.04208" lon="-1.39415">
        <ele>-8.1999998092651</ele>
        <time>2021-11-23T11:11:23.000Z</time>
      </trkpt>
      <trkpt lat="46.04194" lon="-1.39437">
        <ele>-8.6000003814697</ele>
        <time>2021-11-23T11:11:26.000Z</time>
      </trkpt>
      <trkpt lat="46.0416" lon="-1.39478">
        <ele>-9.1999998092651</ele>
        <time>2021-11-23T11:11:32.000Z</time>
      </trkpt>
      <trkpt lat="46.04122" lon="-1.39514">
        <ele>-9.6000003814697</ele>
        <time>2021-11-23T11:11:38.000Z</time>
      </trkpt>
      <trkpt lat="46.04091" lon="-1.39553">
        <ele>-9.8000001907349</ele>
        <time>2021-11-23T11:11:43.000Z</time>
      </trkpt>
      <trkpt lat="46.04079" lon="-1.39569">
        <ele>-10.199999809265</ele>
        <time>2021-11-23T11:11:45.000Z</time>
      </trkpt>
      <trkpt lat="46.04068" lon="-1.39585">
        <ele>-10.199999809265</ele>
        <time>2021-11-23T11:11:47.000Z</time>
      </trkpt>
      <trkpt lat="46.04058" lon="-1.39601">
        <ele>-10.199999809265</ele>
        <time>2021-11-23T11:11:49.000Z</time>
      </trkpt>
      <trkpt lat="46.04053" lon="-1.3961">
        <ele>-10.199999809265</ele>
        <time>2021-11-23T11:11:50.000Z</time>
      </trkpt>
      <trkpt lat="46.04043" lon="-1.39627">
        <ele>-10.39999961853</ele>
        <time>2021-11-23T11:11:52.000Z</time>
      </trkpt>
      <trkpt lat="46.0401" lon="-1.39677">
        <ele>-10.39999961853</ele>
        <time>2021-11-23T11:11:58.000Z</time>
      </trkpt>
      <trkpt lat="46.04005" lon="-1.39685">
        <ele>-10.39999961853</ele>
        <time>2021-11-23T11:11:59.000Z</time>
      </trkpt>
      <trkpt lat="46.04001" lon="-1.39691">
        <ele>-10.39999961853</ele>
        <time>2021-11-23T11:12:00.000Z</time>
      </trkpt>
      <trkpt lat="46.03991" lon="-1.39695">
        <ele>-10.60000038147</ele>
        <time>2021-11-23T11:12:02.000Z</time>
      </trkpt>
      <trkpt lat="46.03984" lon="-1.39683">
        <ele>-10.800000190735</ele>
        <time>2021-11-23T11:12:04.000Z</time>
      </trkpt>
      <trkpt lat="46.0398" lon="-1.39676">
        <ele>-10.800000190735</ele>
        <time>2021-11-23T11:12:05.000Z</time>
      </trkpt>
      <trkpt lat="46.03977" lon="-1.39668">
        <ele>-10.800000190735</ele>
        <time>2021-11-23T11:12:06.000Z</time>
      </trkpt>
      <trkpt lat="46.03964" lon="-1.39641">
        <ele>-11</ele>
        <time>2021-11-23T11:12:09.000Z</time>
      </trkpt>
      <trkpt lat="46.03956" lon="-1.39625">
        <ele>-11.199999809265</ele>
        <time>2021-11-23T11:12:11.000Z</time>
      </trkpt>
      <trkpt lat="46.03935" lon="-1.39583">
        <ele>-11.199999809265</ele>
        <time>2021-11-23T11:12:16.000Z</time>
      </trkpt>
      <trkpt lat="46.0393" lon="-1.39563">
        <ele>-11.199999809265</ele>
        <time>2021-11-23T11:12:18.000Z</time>
      </trkpt>
      <trkpt lat="46.03928" lon="-1.39542">
        <ele>-11.39999961853</ele>
        <time>2021-11-23T11:12:20.000Z</time>
      </trkpt>
      <trkpt lat="46.03917" lon="-1.39475">
        <ele>-11</ele>
        <time>2021-11-23T11:12:27.000Z</time>
      </trkpt>
      <trkpt lat="46.03914" lon="-1.39466">
        <ele>-11</ele>
        <time>2021-11-23T11:12:28.000Z</time>
      </trkpt>
      <trkpt lat="46.03904" lon="-1.39441">
        <ele>-10.39999961853</ele>
        <time>2021-11-23T11:12:31.000Z</time>
      </trkpt>
      <trkpt lat="46.039" lon="-1.39434">
        <ele>-10.199999809265</ele>
        <time>2021-11-23T11:12:32.000Z</time>
      </trkpt>
      <trkpt lat="46.03893" lon="-1.39419">
        <ele>-10</ele>
        <time>2021-11-23T11:12:34.000Z</time>
      </trkpt>
      <trkpt lat="46.03886" lon="-1.39403">
        <ele>-9.3999996185303</ele>
        <time>2021-11-23T11:12:36.000Z</time>
      </trkpt>
      <trkpt lat="46.03874" lon="-1.39381">
        <ele>-9</ele>
        <time>2021-11-23T11:12:39.000Z</time>
      </trkpt>
      <trkpt lat="46.03855" lon="-1.39346">
        <ele>-8.8000001907349</ele>
        <time>2021-11-23T11:12:44.000Z</time>
      </trkpt>
      <trkpt lat="46.03841" lon="-1.39317">
        <ele>-8</ele>
        <time>2021-11-23T11:12:48.000Z</time>
      </trkpt>
      <trkpt lat="46.03824" lon="-1.39279">
        <ele>-7.5999999046326</ele>
        <time>2021-11-23T11:12:53.000Z</time>
      </trkpt>
      <trkpt lat="46.0382" lon="-1.39271">
        <ele>-7</ele>
        <time>2021-11-23T11:12:54.000Z</time>
      </trkpt>
      <trkpt lat="46.03814" lon="-1.39256">
        <ele>-6.8000001907349</ele>
        <time>2021-11-23T11:12:56.000Z</time>
      </trkpt>
      <trkpt lat="46.03804" lon="-1.39225">
        <ele>-6.4000000953674</ele>
        <time>2021-11-23T11:13:00.000Z</time>
      </trkpt>
      <trkpt lat="46.03802" lon="-1.39208">
        <ele>-6.4000000953674</ele>
        <time>2021-11-23T11:13:02.000Z</time>
      </trkpt>
      <trkpt lat="46.03803" lon="-1.39199">
        <ele>-6.1999998092651</ele>
        <time>2021-11-23T11:13:03.000Z</time>
      </trkpt>
      <trkpt lat="46.03805" lon="-1.39191">
        <ele>-6.1999998092651</ele>
        <time>2021-11-23T11:13:04.000Z</time>
      </trkpt>
      <trkpt lat="46.03819" lon="-1.39151">
        <ele>-5.8000001907349</ele>
        <time>2021-11-23T11:13:09.000Z</time>
      </trkpt>
      <trkpt lat="46.0382" lon="-1.39143">
        <ele>-5.8000001907349</ele>
        <time>2021-11-23T11:13:10.000Z</time>
      </trkpt>
      <trkpt lat="46.0382" lon="-1.39127">
        <ele>-5.8000001907349</ele>
        <time>2021-11-23T11:13:12.000Z</time>
      </trkpt>
      <trkpt lat="46.03814" lon="-1.39115">
        <ele>-5.8000001907349</ele>
        <time>2021-11-23T11:13:14.000Z</time>
      </trkpt>
      <trkpt lat="46.03811" lon="-1.39108">
        <ele>-5.8000001907349</ele>
        <time>2021-11-23T11:13:15.000Z</time>
      </trkpt>
      <trkpt lat="46.03788" lon="-1.39069">
        <ele>-6</ele>
        <time>2021-11-23T11:13:21.000Z</time>
      </trkpt>
      <trkpt lat="46.03751" lon="-1.39005">
        <ele>-5.5999999046326</ele>
        <time>2021-11-23T11:13:30.000Z</time>
      </trkpt>
      <trkpt lat="46.03728" lon="-1.38963">
        <ele>-5.5999999046326</ele>
        <time>2021-11-23T11:13:36.000Z</time>
      </trkpt>
      <trkpt lat="46.03727" lon="-1.38955">
        <ele>-5.5999999046326</ele>
        <time>2021-11-23T11:13:37.000Z</time>
      </trkpt>
      <trkpt lat="46.03729" lon="-1.38949">
        <ele>-5.5999999046326</ele>
        <time>2021-11-23T11:13:38.000Z</time>
      </trkpt>
      <trkpt lat="46.03732" lon="-1.38944">
        <ele>-5.4000000953674</ele>
        <time>2021-11-23T11:13:39.000Z</time>
      </trkpt>
      <trkpt lat="46.03737" lon="-1.38942">
        <ele>-5.4000000953674</ele>
        <time>2021-11-23T11:13:40.000Z</time>
      </trkpt>
      <trkpt lat="46.03749" lon="-1.38942">
        <ele>-5.4000000953674</ele>
        <time>2021-11-23T11:13:42.000Z</time>
      </trkpt>
      <trkpt lat="46.0379" lon="-1.38937">
        <ele>-5.4000000953674</ele>
        <time>2021-11-23T11:13:49.000Z</time>
      </trkpt>
      <trkpt lat="46.03799" lon="-1.38928">
        <ele>-5.4000000953674</ele>
        <time>2021-11-23T11:13:51.000Z</time>
      </trkpt>
      <trkpt lat="46.03801" lon="-1.38921">
        <ele>-5.4000000953674</ele>
        <time>2021-11-23T11:13:52.000Z</time>
      </trkpt>
      <trkpt lat="46.03803" lon="-1.38913">
        <ele>-5.4000000953674</ele>
        <time>2021-11-23T11:13:53.000Z</time>
      </trkpt>
      <trkpt lat="46.03803" lon="-1.38897">
        <ele>-5.4000000953674</ele>
        <time>2021-11-23T11:13:55.000Z</time>
      </trkpt>
      <trkpt lat="46.03802" lon="-1.38888">
        <ele>-5.4000000953674</ele>
        <time>2021-11-23T11:13:56.000Z</time>
      </trkpt>
      <trkpt lat="46.038" lon="-1.3888">
        <ele>-5.4000000953674</ele>
        <time>2021-11-23T11:13:57.000Z</time>
      </trkpt>
      <trkpt lat="46.03795" lon="-1.38855">
        <ele>-5.4000000953674</ele>
        <time>2021-11-23T11:14:00.000Z</time>
      </trkpt>
      <trkpt lat="46.03787" lon="-1.38793">
        <ele>-5</ele>
        <time>2021-11-23T11:14:07.000Z</time>
      </trkpt>
      <trkpt lat="46.03779" lon="-1.38742">
        <ele>-4.8000001907349</ele>
        <time>2021-11-23T11:14:13.000Z</time>
      </trkpt>
      <trkpt lat="46.03777" lon="-1.38735">
        <ele>-4.8000001907349</ele>
        <time>2021-11-23T11:14:14.000Z</time>
      </trkpt>
      <trkpt lat="46.0376" lon="-1.38689">
        <ele>-5</ele>
        <time>2021-11-23T11:14:20.000Z</time>
      </trkpt>
      <trkpt lat="46.0376" lon="-1.38681">
        <ele>-5</ele>
        <time>2021-11-23T11:14:21.000Z</time>
      </trkpt>
      <trkpt lat="46.03763" lon="-1.38673">
        <ele>-5</ele>
        <time>2021-11-23T11:14:22.000Z</time>
      </trkpt>
      <trkpt lat="46.03766" lon="-1.38667">
        <ele>-5</ele>
        <time>2021-11-23T11:14:23.000Z</time>
      </trkpt>
      <trkpt lat="46.03798" lon="-1.38628">
        <ele>-5.4000000953674</ele>
        <time>2021-11-23T11:14:30.000Z</time>
      </trkpt>
      <trkpt lat="46.03839" lon="-1.38578">
        <ele>-6.5999999046326</ele>
        <time>2021-11-23T11:14:39.000Z</time>
      </trkpt>
      <trkpt lat="46.03864" lon="-1.38546">
        <ele>-6.4000000953674</ele>
        <time>2021-11-23T11:14:45.000Z</time>
      </trkpt>
      <trkpt lat="46.03867" lon="-1.3854">
        <ele>-6.4000000953674</ele>
        <time>2021-11-23T11:14:46.000Z</time>
      </trkpt>
      <trkpt lat="46.03869" lon="-1.38533">
        <ele>-6.4000000953674</ele>
        <time>2021-11-23T11:14:47.000Z</time>
      </trkpt>
      <trkpt lat="46.03867" lon="-1.38526">
        <ele>-6.4000000953674</ele>
        <time>2021-11-23T11:14:48.000Z</time>
      </trkpt>
      <trkpt lat="46.03865" lon="-1.38519">
        <ele>-6.4000000953674</ele>
        <time>2021-11-23T11:14:49.000Z</time>
      </trkpt>
      <trkpt lat="46.03856" lon="-1.38508">
        <ele>-6.4000000953674</ele>
        <time>2021-11-23T11:14:51.000Z</time>
      </trkpt>
      <trkpt lat="46.03819" lon="-1.38462">
        <ele>-6.5999999046326</ele>
        <time>2021-11-23T11:14:59.000Z</time>
      </trkpt>
      <trkpt lat="46.03792" lon="-1.38424">
        <ele>-7</ele>
        <time>2021-11-23T11:15:05.000Z</time>
      </trkpt>
      <trkpt lat="46.03784" lon="-1.38411">
        <ele>-7.4000000953674</ele>
        <time>2021-11-23T11:15:07.000Z</time>
      </trkpt>
      <trkpt lat="46.03764" lon="-1.38378">
        <ele>-7</ele>
        <time>2021-11-23T11:15:12.000Z</time>
      </trkpt>
      <trkpt lat="46.03761" lon="-1.38371">
        <ele>-7</ele>
        <time>2021-11-23T11:15:13.000Z</time>
      </trkpt>
      <trkpt lat="46.03761" lon="-1.38363">
        <ele>-7</ele>
        <time>2021-11-23T11:15:14.000Z</time>
      </trkpt>
      <trkpt lat="46.03765" lon="-1.3835">
        <ele>-7.1999998092651</ele>
        <time>2021-11-23T11:15:16.000Z</time>
      </trkpt>
      <trkpt lat="46.03789" lon="-1.3831">
        <ele>-7.1999998092651</ele>
        <time>2021-11-23T11:15:23.000Z</time>
      </trkpt>
      <trkpt lat="46.03819" lon="-1.38269">
        <ele>-6.4000000953674</ele>
        <time>2021-11-23T11:15:31.000Z</time>
      </trkpt>
      <trkpt lat="46.03826" lon="-1.38259">
        <ele>-5.8000001907349</ele>
        <time>2021-11-23T11:15:33.000Z</time>
      </trkpt>
      <trkpt lat="46.03829" lon="-1.38254">
        <ele>-5.5999999046326</ele>
        <time>2021-11-23T11:15:34.000Z</time>
      </trkpt>
      <trkpt lat="46.0383" lon="-1.38244">
        <ele>-4.8000001907349</ele>
        <time>2021-11-23T11:15:36.000Z</time>
      </trkpt>
      <trkpt lat="46.03827" lon="-1.3824">
        <ele>-4.5999999046326</ele>
        <time>2021-11-23T11:15:37.000Z</time>
      </trkpt>
      <trkpt lat="46.03824" lon="-1.38235">
        <ele>-4.4000000953674</ele>
        <time>2021-11-23T11:15:38.000Z</time>
      </trkpt>
      <trkpt lat="46.0382" lon="-1.38231">
        <ele>-4.1999998092651</ele>
        <time>2021-11-23T11:15:39.000Z</time>
      </trkpt>
      <trkpt lat="46.03794" lon="-1.38202">
        <ele>-4</ele>
        <time>2021-11-23T11:15:45.000Z</time>
      </trkpt>
      <trkpt lat="46.03791" lon="-1.38196">
        <ele>-4</ele>
        <time>2021-11-23T11:15:46.000Z</time>
      </trkpt>
      <trkpt lat="46.03791" lon="-1.38189">
        <ele>-4</ele>
        <time>2021-11-23T11:15:47.000Z</time>
      </trkpt>
      <trkpt lat="46.03795" lon="-1.38176">
        <ele>-3.7999999523163</ele>
        <time>2021-11-23T11:15:49.000Z</time>
      </trkpt>
      <trkpt lat="46.03811" lon="-1.38152">
        <ele>-3.4000000953674</ele>
        <time>2021-11-23T11:15:53.000Z</time>
      </trkpt>
      <trkpt lat="46.03831" lon="-1.38119">
        <ele>-3.2000000476837</ele>
        <time>2021-11-23T11:15:58.000Z</time>
      </trkpt>
      <trkpt lat="46.03867" lon="-1.38058">
        <ele>-3.5999999046326</ele>
        <time>2021-11-23T11:16:07.000Z</time>
      </trkpt>
      <trkpt lat="46.03875" lon="-1.38047">
        <ele>-3.4000000953674</ele>
        <time>2021-11-23T11:16:09.000Z</time>
      </trkpt>
      <trkpt lat="46.0388" lon="-1.38042">
        <ele>-3.4000000953674</ele>
        <time>2021-11-23T11:16:10.000Z</time>
      </trkpt>
      <trkpt lat="46.0389" lon="-1.38036">
        <ele>-3.4000000953674</ele>
        <time>2021-11-23T11:16:12.000Z</time>
      </trkpt>
      <trkpt lat="46.03913" lon="-1.38033">
        <ele>-3.5999999046326</ele>
        <time>2021-11-23T11:16:16.000Z</time>
      </trkpt>
      <trkpt lat="46.03924" lon="-1.38036">
        <ele>-3.5999999046326</ele>
        <time>2021-11-23T11:16:18.000Z</time>
      </trkpt>
      <trkpt lat="46.03935" lon="-1.38042">
        <ele>-3.5999999046326</ele>
        <time>2021-11-23T11:16:20.000Z</time>
      </trkpt>
      <trkpt lat="46.03945" lon="-1.38052">
        <ele>-3.5999999046326</ele>
        <time>2021-11-23T11:16:22.000Z</time>
      </trkpt>
      <trkpt lat="46.03973" lon="-1.38089">
        <ele>-4</ele>
        <time>2021-11-23T11:16:28.000Z</time>
      </trkpt>
      <trkpt lat="46.03993" lon="-1.38125">
        <ele>-3.7999999523163</ele>
        <time>2021-11-23T11:16:34.000Z</time>
      </trkpt>
      <trkpt lat="46.04" lon="-1.38127">
        <ele>-5.8000001907349</ele>
        <time>2021-11-23T11:17:29.000Z</time>
      </trkpt>
      <trkpt lat="46.04012" lon="-1.38115">
        <ele>-6</ele>
        <time>2021-11-23T11:17:32.000Z</time>
      </trkpt>
      <trkpt lat="46.04016" lon="-1.3811">
        <ele>-6.1999998092651</ele>
        <time>2021-11-23T11:17:33.000Z</time>
      </trkpt>
      <trkpt lat="46.0402" lon="-1.38105">
        <ele>-6.4000000953674</ele>
        <time>2021-11-23T11:17:34.000Z</time>
      </trkpt>
      <trkpt lat="46.04034" lon="-1.38089">
        <ele>-6.5999999046326</ele>
        <time>2021-11-23T11:17:37.000Z</time>
      </trkpt>
      <trkpt lat="46.04039" lon="-1.38084">
        <ele>-7</ele>
        <time>2021-11-23T11:17:38.000Z</time>
      </trkpt>
      <trkpt lat="46.04046" lon="-1.38074">
        <ele>-7.4000000953674</ele>
        <time>2021-11-23T11:17:40.000Z</time>
      </trkpt>
      <trkpt lat="46.04055" lon="-1.38068">
        <ele>-7.4000000953674</ele>
        <time>2021-11-23T11:17:42.000Z</time>
      </trkpt>
      <trkpt lat="46.04058" lon="-1.38066">
        <ele>-7.4000000953674</ele>
        <time>2021-11-23T11:17:43.000Z</time>
      </trkpt>
      <trkpt lat="46.04062" lon="-1.3807">
        <ele>-7.5999999046326</ele>
        <time>2021-11-23T11:17:45.000Z</time>
      </trkpt>
      <trkpt lat="46.04067" lon="-1.38076">
        <ele>-7.8000001907349</ele>
        <time>2021-11-23T11:17:48.000Z</time>
      </trkpt>
      <trkpt lat="46.04069" lon="-1.38075">
        <ele>-8</ele>
        <time>2021-11-23T11:17:49.000Z</time>
      </trkpt>
      <trkpt lat="46.04073" lon="-1.38069">
        <ele>-8</ele>
        <time>2021-11-23T11:17:51.000Z</time>
      </trkpt>
      <trkpt lat="46.04073" lon="-1.38059">
        <ele>-8</ele>
        <time>2021-11-23T11:17:53.000Z</time>
      </trkpt>
      <trkpt lat="46.04071" lon="-1.38053">
        <ele>-8</ele>
        <time>2021-11-23T11:17:54.000Z</time>
      </trkpt>
      <trkpt lat="46.04063" lon="-1.38043">
        <ele>-8.1999998092651</ele>
        <time>2021-11-23T11:17:56.000Z</time>
      </trkpt>
      <trkpt lat="46.04059" lon="-1.38036">
        <ele>-8.3999996185303</ele>
        <time>2021-11-23T11:17:57.000Z</time>
      </trkpt>
      <trkpt lat="46.04054" lon="-1.38029">
        <ele>-8.6000003814697</ele>
        <time>2021-11-23T11:17:58.000Z</time>
      </trkpt>
      <trkpt lat="46.04045" lon="-1.38015">
        <ele>-9</ele>
        <time>2021-11-23T11:18:00.000Z</time>
      </trkpt>
      <trkpt lat="46.04032" lon="-1.37992">
        <ele>-9.6000003814697</ele>
        <time>2021-11-23T11:18:03.000Z</time>
      </trkpt>
      <trkpt lat="46.04021" lon="-1.37964">
        <ele>-10.199999809265</ele>
        <time>2021-11-23T11:18:06.000Z</time>
      </trkpt>
      <trkpt lat="46.04012" lon="-1.37936">
        <ele>-10.60000038147</ele>
        <time>2021-11-23T11:18:09.000Z</time>
      </trkpt>
      <trkpt lat="46.03999" lon="-1.37888">
        <ele>-11</ele>
        <time>2021-11-23T11:18:14.000Z</time>
      </trkpt>
      <trkpt lat="46.03979" lon="-1.37826">
        <ele>-11.39999961853</ele>
        <time>2021-11-23T11:18:21.000Z</time>
      </trkpt>
      <trkpt lat="46.03955" lon="-1.37778">
        <ele>-11.39999961853</ele>
        <time>2021-11-23T11:18:27.000Z</time>
      </trkpt>
      <trkpt lat="46.03929" lon="-1.37717">
        <ele>-10.800000190735</ele>
        <time>2021-11-23T11:18:34.000Z</time>
      </trkpt>
      <trkpt lat="46.03902" lon="-1.37643">
        <ele>-10.199999809265</ele>
        <time>2021-11-23T11:18:42.000Z</time>
      </trkpt>
      <trkpt lat="46.03877" lon="-1.37578">
        <ele>-9.8000001907349</ele>
        <time>2021-11-23T11:18:49.000Z</time>
      </trkpt>
      <trkpt lat="46.03853" lon="-1.37528">
        <ele>-9.6000003814697</ele>
        <time>2021-11-23T11:18:55.000Z</time>
      </trkpt>
      <trkpt lat="46.03845" lon="-1.37513">
        <ele>-9.3999996185303</ele>
        <time>2021-11-23T11:18:57.000Z</time>
      </trkpt>
      <trkpt lat="46.03823" lon="-1.37474">
        <ele>-9</ele>
        <time>2021-11-23T11:19:02.000Z</time>
      </trkpt>
      <trkpt lat="46.03784" lon="-1.37416">
        <ele>-9</ele>
        <time>2021-11-23T11:19:10.000Z</time>
      </trkpt>
      <trkpt lat="46.03779" lon="-1.37409">
        <ele>-9</ele>
        <time>2021-11-23T11:19:11.000Z</time>
      </trkpt>
      <trkpt lat="46.03743" lon="-1.37361">
        <ele>-9</ele>
        <time>2021-11-23T11:19:18.000Z</time>
      </trkpt>
      <trkpt lat="46.03738" lon="-1.37354">
        <ele>-9</ele>
        <time>2021-11-23T11:19:19.000Z</time>
      </trkpt>
      <trkpt lat="46.03702" lon="-1.37314">
        <ele>-9</ele>
        <time>2021-11-23T11:19:25.000Z</time>
      </trkpt>
      <trkpt lat="46.03666" lon="-1.37279">
        <ele>-9.1999998092651</ele>
        <time>2021-11-23T11:19:31.000Z</time>
      </trkpt>
      <trkpt lat="46.03659" lon="-1.37277">
        <ele>-9.3999996185303</ele>
        <time>2021-11-23T11:19:32.000Z</time>
      </trkpt>
      <trkpt lat="46.03652" lon="-1.37276">
        <ele>-9.3999996185303</ele>
        <time>2021-11-23T11:19:33.000Z</time>
      </trkpt>
      <trkpt lat="46.03638" lon="-1.3728">
        <ele>-9.6000003814697</ele>
        <time>2021-11-23T11:19:35.000Z</time>
      </trkpt>
      <trkpt lat="46.03621" lon="-1.37299">
        <ele>-9.8000001907349</ele>
        <time>2021-11-23T11:19:38.000Z</time>
      </trkpt>
      <trkpt lat="46.03579" lon="-1.37357">
        <ele>-10.60000038147</ele>
        <time>2021-11-23T11:19:46.000Z</time>
      </trkpt>
      <trkpt lat="46.03551" lon="-1.37395">
        <ele>-11.199999809265</ele>
        <time>2021-11-23T11:19:52.000Z</time>
      </trkpt>
      <trkpt lat="46.03536" lon="-1.37416">
        <ele>-11.39999961853</ele>
        <time>2021-11-23T11:19:56.000Z</time>
      </trkpt>
      <trkpt lat="46.03531" lon="-1.37422">
        <ele>-11.39999961853</ele>
        <time>2021-11-23T11:19:57.000Z</time>
      </trkpt>
      <trkpt lat="46.03506" lon="-1.37454">
        <ele>-11.60000038147</ele>
        <time>2021-11-23T11:20:02.000Z</time>
      </trkpt>
      <trkpt lat="46.035" lon="-1.37461">
        <ele>-11.800000190735</ele>
        <time>2021-11-23T11:20:03.000Z</time>
      </trkpt>
      <trkpt lat="46.03491" lon="-1.37473">
        <ele>-11.800000190735</ele>
        <time>2021-11-23T11:20:05.000Z</time>
      </trkpt>
      <trkpt lat="46.03481" lon="-1.3748">
        <ele>-11.800000190735</ele>
        <time>2021-11-23T11:20:07.000Z</time>
      </trkpt>
      <trkpt lat="46.03474" lon="-1.37474">
        <ele>-12</ele>
        <time>2021-11-23T11:20:09.000Z</time>
      </trkpt>
      <trkpt lat="46.03465" lon="-1.37462">
        <ele>-12</ele>
        <time>2021-11-23T11:20:11.000Z</time>
      </trkpt>
      <trkpt lat="46.03461" lon="-1.37455">
        <ele>-12.199999809265</ele>
        <time>2021-11-23T11:20:12.000Z</time>
      </trkpt>
      <trkpt lat="46.03436" lon="-1.37418">
        <ele>-12.39999961853</ele>
        <time>2021-11-23T11:20:17.000Z</time>
      </trkpt>
      <trkpt lat="46.03401" lon="-1.37367">
        <ele>-12.199999809265</ele>
        <time>2021-11-23T11:20:24.000Z</time>
      </trkpt>
      <trkpt lat="46.03359" lon="-1.37309">
        <ele>-12</ele>
        <time>2021-11-23T11:20:32.000Z</time>
      </trkpt>
      <trkpt lat="46.03348" lon="-1.37294">
        <ele>-11.800000190735</ele>
        <time>2021-11-23T11:20:34.000Z</time>
      </trkpt>
      <trkpt lat="46.03332" lon="-1.37274">
        <ele>-11.800000190735</ele>
        <time>2021-11-23T11:20:37.000Z</time>
      </trkpt>
      <trkpt lat="46.03326" lon="-1.37272">
        <ele>-11.800000190735</ele>
        <time>2021-11-23T11:20:38.000Z</time>
      </trkpt>
      <trkpt lat="46.0332" lon="-1.37276">
        <ele>-11.800000190735</ele>
        <time>2021-11-23T11:20:39.000Z</time>
      </trkpt>
      <trkpt lat="46.03316" lon="-1.37282">
        <ele>-11.800000190735</ele>
        <time>2021-11-23T11:20:40.000Z</time>
      </trkpt>
      <trkpt lat="46.033" lon="-1.37315">
        <ele>-11.800000190735</ele>
        <time>2021-11-23T11:20:44.000Z</time>
      </trkpt>
      <trkpt lat="46.03294" lon="-1.37319">
        <ele>-11.60000038147</ele>
        <time>2021-11-23T11:20:45.000Z</time>
      </trkpt>
      <trkpt lat="46.03282" lon="-1.37315">
        <ele>-11.60000038147</ele>
        <time>2021-11-23T11:20:47.000Z</time>
      </trkpt>
      <trkpt lat="46.03276" lon="-1.37309">
        <ele>-11.60000038147</ele>
        <time>2021-11-23T11:20:48.000Z</time>
      </trkpt>
      <trkpt lat="46.03227" lon="-1.37267">
        <ele>-12.199999809265</ele>
        <time>2021-11-23T11:20:56.000Z</time>
      </trkpt>
      <trkpt lat="46.03206" lon="-1.37256">
        <ele>-12.199999809265</ele>
        <time>2021-11-23T11:20:59.000Z</time>
      </trkpt>
      <trkpt lat="46.0319" lon="-1.37253">
        <ele>-12.199999809265</ele>
        <time>2021-11-23T11:21:01.000Z</time>
      </trkpt>
      <trkpt lat="46.03176" lon="-1.37259">
        <ele>-12.199999809265</ele>
        <time>2021-11-23T11:21:03.000Z</time>
      </trkpt>
      <trkpt lat="46.03169" lon="-1.37265">
        <ele>-12.199999809265</ele>
        <time>2021-11-23T11:21:04.000Z</time>
      </trkpt>
      <trkpt lat="46.03165" lon="-1.37272">
        <ele>-12.199999809265</ele>
        <time>2021-11-23T11:21:05.000Z</time>
      </trkpt>
      <trkpt lat="46.03163" lon="-1.37291">
        <ele>-11.800000190735</ele>
        <time>2021-11-23T11:21:07.000Z</time>
      </trkpt>
      <trkpt lat="46.03164" lon="-1.37312">
        <ele>-11.800000190735</ele>
        <time>2021-11-23T11:21:09.000Z</time>
      </trkpt>
      <trkpt lat="46.03163" lon="-1.37331">
        <ele>-11.800000190735</ele>
        <time>2021-11-23T11:21:11.000Z</time>
      </trkpt>
      <trkpt lat="46.03161" lon="-1.3734">
        <ele>-12</ele>
        <time>2021-11-23T11:21:12.000Z</time>
      </trkpt>
      <trkpt lat="46.03152" lon="-1.37347">
        <ele>-12</ele>
        <time>2021-11-23T11:21:14.000Z</time>
      </trkpt>
      <trkpt lat="46.03112" lon="-1.37311">
        <ele>6</ele>
      </trkpt>
      <trkpt lat="46.03082" lon="-1.37268">
        <ele>5.7</ele>
      </trkpt>
      <trkpt lat="46.03054" lon="-1.37226">
        <ele>5.8</ele>
      </trkpt>
      <trkpt lat="46.03037" lon="-1.37183">
        <ele>5</ele>
      </trkpt>
      <trkpt lat="46.03019" lon="-1.3714">
        <ele>5</ele>
      </trkpt>
      <trkpt lat="46.03004" lon="-1.37084">
        <ele>5</ele>
      </trkpt>
      <trkpt lat="46.02984" lon="-1.37046">
        <ele>4.6</ele>
      </trkpt>
      <trkpt lat="46.02962" lon="-1.37014">
        <ele>5</ele>
      </trkpt>
      <trkpt lat="46.02938" lon="-1.36985">
        <ele>5.6</ele>
      </trkpt>
      <trkpt lat="46.02911" lon="-1.36945">
        <ele>5.8</ele>
      </trkpt>
      <trkpt lat="46.02898" lon="-1.3691">
        <ele>5.6</ele>
      </trkpt>
      <trkpt lat="46.0286" lon="-1.36843">
        <ele>5.3</ele>
      </trkpt>
      <trkpt lat="46.02827" lon="-1.36779">
        <ele>4.8</ele>
      </trkpt>
      <trkpt lat="46.02796" lon="-1.3673">
        <ele>5.9</ele>
      </trkpt>
      <trkpt lat="46.0277" lon="-1.3668">
        <ele>5.7</ele>
      </trkpt>
      <trkpt lat="46.0274" lon="-1.36611">
        <ele>5.7</ele>
      </trkpt>
      <trkpt lat="46.02731" lon="-1.36589">
        <ele>5.3</ele>
      </trkpt>
      <trkpt lat="46.02556" lon="-1.36762">
        <ele>-8</ele>
        <time>2021-11-23T11:32:32.000Z</time>
      </trkpt>
      <trkpt lat="46.02551" lon="-1.36763">
        <ele>-8</ele>
        <time>2021-11-23T11:32:33.000Z</time>
      </trkpt>
      <trkpt lat="46.02546" lon="-1.36761">
        <ele>-8</ele>
        <time>2021-11-23T11:32:34.000Z</time>
      </trkpt>
      <trkpt lat="46.02541" lon="-1.36757">
        <ele>-8</ele>
        <time>2021-11-23T11:32:35.000Z</time>
      </trkpt>
      <trkpt lat="46.02528" lon="-1.36739">
        <ele>-8.1999998092651</ele>
        <time>2021-11-23T11:32:38.000Z</time>
      </trkpt>
      <trkpt lat="46.02512" lon="-1.36721">
        <ele>-8.3999996185303</ele>
        <time>2021-11-23T11:32:41.000Z</time>
      </trkpt>
      <trkpt lat="46.02496" lon="-1.36701">
        <ele>-8.6000003814697</ele>
        <time>2021-11-23T11:32:44.000Z</time>
      </trkpt>
      <trkpt lat="46.02492" lon="-1.36693">
        <ele>-9</ele>
        <time>2021-11-23T11:32:45.000Z</time>
      </trkpt>
      <trkpt lat="46.02488" lon="-1.36685">
        <ele>-9.3999996185303</ele>
        <time>2021-11-23T11:32:46.000Z</time>
      </trkpt>
      <trkpt lat="46.02458" lon="-1.36622">
        <ele>-8.6000003814697</ele>
        <time>2021-11-23T11:32:54.000Z</time>
      </trkpt>
      <trkpt lat="46.02455" lon="-1.36614">
        <ele>-8.3999996185303</ele>
        <time>2021-11-23T11:32:55.000Z</time>
      </trkpt>
      <trkpt lat="46.0244" lon="-1.36575">
        <ele>-8.8000001907349</ele>
        <time>2021-11-23T11:33:00.000Z</time>
      </trkpt>
      <trkpt lat="46.02426" lon="-1.36544">
        <ele>-9</ele>
        <time>2021-11-23T11:33:04.000Z</time>
      </trkpt>
      <trkpt lat="46.02418" lon="-1.36532">
        <ele>-9</ele>
        <time>2021-11-23T11:33:06.000Z</time>
      </trkpt>
      <trkpt lat="46.02391" lon="-1.36497">
        <ele>-8.6000003814697</ele>
        <time>2021-11-23T11:33:12.000Z</time>
      </trkpt>
      <trkpt lat="46.02354" lon="-1.36448">
        <ele>-10.199999809265</ele>
        <time>2021-11-23T11:33:20.000Z</time>
      </trkpt>
      <trkpt lat="46.0235" lon="-1.36441">
        <ele>-10.60000038147</ele>
        <time>2021-11-23T11:33:21.000Z</time>
      </trkpt>
      <trkpt lat="46.02322" lon="-1.36395">
        <ele>-11.199999809265</ele>
        <time>2021-11-23T11:33:28.000Z</time>
      </trkpt>
      <trkpt lat="46.02318" lon="-1.36388">
        <ele>-11</ele>
        <time>2021-11-23T11:33:29.000Z</time>
      </trkpt>
      <trkpt lat="46.023" lon="-1.36368">
        <ele>-10.60000038147</ele>
        <time>2021-11-23T11:33:33.000Z</time>
      </trkpt>
      <trkpt lat="46.02273" lon="-1.36331">
        <ele>-10</ele>
        <time>2021-11-23T11:33:40.000Z</time>
      </trkpt>
      <trkpt lat="46.02257" lon="-1.36311">
        <ele>-9.6000003814697</ele>
        <time>2021-11-23T11:33:44.000Z</time>
      </trkpt>
      <trkpt lat="46.02248" lon="-1.36307">
        <ele>-9.6000003814697</ele>
        <time>2021-11-23T11:33:46.000Z</time>
      </trkpt>
      <trkpt lat="46.02239" lon="-1.36311">
        <ele>-9.3999996185303</ele>
        <time>2021-11-23T11:33:48.000Z</time>
      </trkpt>
      <trkpt lat="46.02234" lon="-1.36316">
        <ele>-9.6000003814697</ele>
        <time>2021-11-23T11:33:49.000Z</time>
      </trkpt>
      <trkpt lat="46.02211" lon="-1.36346">
        <ele>-9.6000003814697</ele>
        <time>2021-11-23T11:33:54.000Z</time>
      </trkpt>
      <trkpt lat="46.02192" lon="-1.36371">
        <ele>-9.6000003814697</ele>
        <time>2021-11-23T11:33:58.000Z</time>
      </trkpt>
      <trkpt lat="46.02184" lon="-1.36382">
        <ele>-9.6000003814697</ele>
        <time>2021-11-23T11:34:00.000Z</time>
      </trkpt>
      <trkpt lat="46.0218" lon="-1.36391">
        <ele>-9.6000003814697</ele>
        <time>2021-11-23T11:34:01.000Z</time>
      </trkpt>
      <trkpt lat="46.02058" lon="-1.36189">
        <ele>-8.1999998092651</ele>
        <time>2021-11-23T11:36:46.000Z</time>
      </trkpt>
      <trkpt lat="46.02054" lon="-1.36194">
        <ele>-8</ele>
        <time>2021-11-23T11:36:52.000Z</time>
      </trkpt>
      <trkpt lat="46.02052" lon="-1.36197">
        <ele>-7.8000001907349</ele>
        <time>2021-11-23T11:36:53.000Z</time>
      </trkpt>
      <trkpt lat="46.02036" lon="-1.36214">
        <ele>-7.5999999046326</ele>
        <time>2021-11-23T11:36:59.000Z</time>
      </trkpt>
      <trkpt lat="46.02027" lon="-1.36224">
        <ele>-7.1999998092651</ele>
        <time>2021-11-23T11:37:02.000Z</time>
      </trkpt>
      <trkpt lat="46.02021" lon="-1.36232">
        <ele>-7</ele>
        <time>2021-11-23T11:37:04.000Z</time>
      </trkpt>
      <trkpt lat="46.02007" lon="-1.3625">
        <ele>-7</ele>
        <time>2021-11-23T11:37:08.000Z</time>
      </trkpt>
      <trkpt lat="46.02001" lon="-1.36261">
        <ele>-7</ele>
        <time>2021-11-23T11:37:10.000Z</time>
      </trkpt>
      <trkpt lat="46.01998" lon="-1.36266">
        <ele>-7.4000000953674</ele>
        <time>2021-11-23T11:37:11.000Z</time>
      </trkpt>
      <trkpt lat="46.0199" lon="-1.36269">
        <ele>-7.5999999046326</ele>
        <time>2021-11-23T11:37:13.000Z</time>
      </trkpt>
      <trkpt lat="46.01985" lon="-1.36262">
        <ele>-7.8000001907349</ele>
        <time>2021-11-23T11:37:15.000Z</time>
      </trkpt>
      <trkpt lat="46.01979" lon="-1.36252">
        <ele>-7.8000001907349</ele>
        <time>2021-11-23T11:37:17.000Z</time>
      </trkpt>
      <trkpt lat="46.01971" lon="-1.3624">
        <ele>-7.8000001907349</ele>
        <time>2021-11-23T11:37:19.000Z</time>
      </trkpt>
      <trkpt lat="46.01959" lon="-1.36221">
        <ele>-7.8000001907349</ele>
        <time>2021-11-23T11:37:22.000Z</time>
      </trkpt>
      <trkpt lat="46.01926" lon="-1.36166">
        <ele>-7.8000001907349</ele>
        <time>2021-11-23T11:37:30.000Z</time>
      </trkpt>
      <trkpt lat="46.01887" lon="-1.36105">
        <ele>-7.8000001907349</ele>
        <time>2021-11-23T11:37:39.000Z</time>
      </trkpt>
      <trkpt lat="46.01848" lon="-1.36044">
        <ele>-8</ele>
        <time>2021-11-23T11:37:47.000Z</time>
      </trkpt>
      <trkpt lat="46.01833" lon="-1.36019">
        <ele>-8.1999998092651</ele>
        <time>2021-11-23T11:37:50.000Z</time>
      </trkpt>
      <trkpt lat="46.01809" lon="-1.35979">
        <ele>-8.6000003814697</ele>
        <time>2021-11-23T11:37:55.000Z</time>
      </trkpt>
      <trkpt lat="46.01792" lon="-1.3595">
        <ele>-9</ele>
        <time>2021-11-23T11:37:59.000Z</time>
      </trkpt>
      <trkpt lat="46.01788" lon="-1.35945">
        <ele>-9</ele>
        <time>2021-11-23T11:38:00.000Z</time>
      </trkpt>
      <trkpt lat="46.01784" lon="-1.35943">
        <ele>-9</ele>
        <time>2021-11-23T11:38:01.000Z</time>
      </trkpt>
      <trkpt lat="46.0178" lon="-1.35945">
        <ele>-9</ele>
        <time>2021-11-23T11:38:02.000Z</time>
      </trkpt>
      <trkpt lat="46.01774" lon="-1.35956">
        <ele>-9</ele>
        <time>2021-11-23T11:38:04.000Z</time>
      </trkpt>
      <trkpt lat="46.01771" lon="-1.35963">
        <ele>-9</ele>
        <time>2021-11-23T11:38:05.000Z</time>
      </trkpt>
      <trkpt lat="46.01755" lon="-1.36002">
        <ele>-9</ele>
        <time>2021-11-23T11:38:10.000Z</time>
      </trkpt>
      <trkpt lat="46.0173" lon="-1.36053">
        <ele>-9</ele>
        <time>2021-11-23T11:38:16.000Z</time>
      </trkpt>
      <trkpt lat="46.01727" lon="-1.36062">
        <ele>-9.1999998092651</ele>
        <time>2021-11-23T11:38:17.000Z</time>
      </trkpt>
      <trkpt lat="46.01728" lon="-1.36079">
        <ele>-9</ele>
        <time>2021-11-23T11:38:19.000Z</time>
      </trkpt>
      <trkpt lat="46.01735" lon="-1.36089">
        <ele>-9</ele>
        <time>2021-11-23T11:38:21.000Z</time>
      </trkpt>
      <trkpt lat="46.01746" lon="-1.36097">
        <ele>-9.1999998092651</ele>
        <time>2021-11-23T11:38:23.000Z</time>
      </trkpt>
      <trkpt lat="46.0175" lon="-1.36104">
        <ele>-9.3999996185303</ele>
        <time>2021-11-23T11:38:24.000Z</time>
      </trkpt>
      <trkpt lat="46.01753" lon="-1.36112">
        <ele>-9.3999996185303</ele>
        <time>2021-11-23T11:38:25.000Z</time>
      </trkpt>
      <trkpt lat="46.01759" lon="-1.3614">
        <ele>-9.3999996185303</ele>
        <time>2021-11-23T11:38:28.000Z</time>
      </trkpt>
      <trkpt lat="46.01771" lon="-1.36217">
        <ele>-9.6000003814697</ele>
        <time>2021-11-23T11:38:36.000Z</time>
      </trkpt>
      <trkpt lat="46.01772" lon="-1.36227">
        <ele>-9.6000003814697</ele>
        <time>2021-11-23T11:38:37.000Z</time>
      </trkpt>
      <trkpt lat="46.01772" lon="-1.36255">
        <ele>-9.8000001907349</ele>
        <time>2021-11-23T11:38:40.000Z</time>
      </trkpt>
      <trkpt lat="46.01769" lon="-1.36263">
        <ele>-9.8000001907349</ele>
        <time>2021-11-23T11:38:41.000Z</time>
      </trkpt>
      <trkpt lat="46.01765" lon="-1.36269">
        <ele>-9.8000001907349</ele>
        <time>2021-11-23T11:38:42.000Z</time>
      </trkpt>
      <trkpt lat="46.01755" lon="-1.36276">
        <ele>-9.8000001907349</ele>
        <time>2021-11-23T11:38:44.000Z</time>
      </trkpt>
      <trkpt lat="46.01731" lon="-1.36291">
        <ele>-10.199999809265</ele>
        <time>2021-11-23T11:38:48.000Z</time>
      </trkpt>
      <trkpt lat="46.01719" lon="-1.363">
        <ele>-10.199999809265</ele>
        <time>2021-11-23T11:38:50.000Z</time>
      </trkpt>
      <trkpt lat="46.0168" lon="-1.3632">
        <ele>-9.6000003814697</ele>
        <time>2021-11-23T11:38:56.000Z</time>
      </trkpt>
      <trkpt lat="46.01641" lon="-1.36342">
        <ele>-9.3999996185303</ele>
        <time>2021-11-23T11:39:02.000Z</time>
      </trkpt>
      <trkpt lat="46.0163" lon="-1.3635">
        <ele>-9.1999998092651</ele>
        <time>2021-11-23T11:39:04.000Z</time>
      </trkpt>
      <trkpt lat="46.01624" lon="-1.36353">
        <ele>-9.1999998092651</ele>
        <time>2021-11-23T11:39:05.000Z</time>
      </trkpt>
      <trkpt lat="46.01618" lon="-1.36356">
        <ele>-9.1999998092651</ele>
        <time>2021-11-23T11:39:06.000Z</time>
      </trkpt>
      <trkpt lat="46.01594" lon="-1.36371">
        <ele>-9.1999998092651</ele>
        <time>2021-11-23T11:39:10.000Z</time>
      </trkpt>
      <trkpt lat="46.01561" lon="-1.3639">
        <ele>-9.6000003814697</ele>
        <time>2021-11-23T11:39:15.000Z</time>
      </trkpt>
      <trkpt lat="46.01531" lon="-1.36407">
        <ele>-10</ele>
        <time>2021-11-23T11:39:20.000Z</time>
      </trkpt>
      <trkpt lat="46.01524" lon="-1.36421">
        <ele>-9.8000001907349</ele>
        <time>2021-11-23T11:39:22.000Z</time>
      </trkpt>
      <trkpt lat="46.01521" lon="-1.3643">
        <ele>-9.8000001907349</ele>
        <time>2021-11-23T11:39:23.000Z</time>
      </trkpt>
      <trkpt lat="46.01518" lon="-1.36437">
        <ele>-9.8000001907349</ele>
        <time>2021-11-23T11:39:24.000Z</time>
      </trkpt>
      <trkpt lat="46.01508" lon="-1.36447">
        <ele>-9.8000001907349</ele>
        <time>2021-11-23T11:39:26.000Z</time>
      </trkpt>
      <trkpt lat="46.0147" lon="-1.36477">
        <ele>-9.6000003814697</ele>
        <time>2021-11-23T11:39:33.000Z</time>
      </trkpt>
      <trkpt lat="46.0146" lon="-1.36484">
        <ele>-9.8000001907349</ele>
        <time>2021-11-23T11:39:35.000Z</time>
      </trkpt>
      <trkpt lat="46.01455" lon="-1.36484">
        <ele>-9.8000001907349</ele>
        <time>2021-11-23T11:39:36.000Z</time>
      </trkpt>
      <trkpt lat="46.01452" lon="-1.36481">
        <ele>-9.8000001907349</ele>
        <time>2021-11-23T11:39:37.000Z</time>
      </trkpt>
      <trkpt lat="46.0145" lon="-1.36475">
        <ele>-9.8000001907349</ele>
        <time>2021-11-23T11:39:38.000Z</time>
      </trkpt>
      <trkpt lat="46.01441" lon="-1.36457">
        <ele>-8</ele>
        <time>2021-11-23T11:40:03.000Z</time>
      </trkpt>
      <trkpt lat="46.0143" lon="-1.36463">
        <ele>-7.5999999046326</ele>
        <time>2021-11-23T11:40:07.000Z</time>
      </trkpt>
      <trkpt lat="46.0141" lon="-1.3647">
        <ele>-7.1999998092651</ele>
        <time>2021-11-23T11:40:13.000Z</time>
      </trkpt>
      <trkpt lat="46.01405" lon="-1.36469">
        <ele>-7.1999998092651</ele>
        <time>2021-11-23T11:40:14.000Z</time>
      </trkpt>
      <trkpt lat="46.01396" lon="-1.36467">
        <ele>-7</ele>
        <time>2021-11-23T11:40:16.000Z</time>
      </trkpt>
      <trkpt lat="46.01383" lon="-1.36462">
        <ele>-7</ele>
        <time>2021-11-23T11:40:19.000Z</time>
      </trkpt>
      <trkpt lat="46.01356" lon="-1.36451">
        <ele>-6.8000001907349</ele>
        <time>2021-11-23T11:40:25.000Z</time>
      </trkpt>
      <trkpt lat="46.01347" lon="-1.36448">
        <ele>-7</ele>
        <time>2021-11-23T11:40:27.000Z</time>
      </trkpt>
      <trkpt lat="46.01337" lon="-1.36446">
        <ele>-7.1999998092651</ele>
        <time>2021-11-23T11:40:29.000Z</time>
      </trkpt>
      <trkpt lat="46.01321" lon="-1.36447">
        <ele>-7</ele>
        <time>2021-11-23T11:40:32.000Z</time>
      </trkpt>
      <trkpt lat="46.01316" lon="-1.36449">
        <ele>-7</ele>
        <time>2021-11-23T11:40:33.000Z</time>
      </trkpt>
      <trkpt lat="46.01294" lon="-1.36457">
        <ele>-7</ele>
        <time>2021-11-23T11:40:37.000Z</time>
      </trkpt>
      <trkpt lat="46.01252" lon="-1.36468">
        <ele>-7.1999998092651</ele>
        <time>2021-11-23T11:40:44.000Z</time>
      </trkpt>
      <trkpt lat="46.01196" lon="-1.36483">
        <ele>-7.1999998092651</ele>
        <time>2021-11-23T11:40:53.000Z</time>
      </trkpt>
      <trkpt lat="46.01189" lon="-1.36484">
        <ele>-7.1999998092651</ele>
        <time>2021-11-23T11:40:54.000Z</time>
      </trkpt>
      <trkpt lat="46.01132" lon="-1.36494">
        <ele>-6.8000001907349</ele>
        <time>2021-11-23T11:41:03.000Z</time>
      </trkpt>
      <trkpt lat="46.01094" lon="-1.36491">
        <ele>-6.4000000953674</ele>
        <time>2021-11-23T11:41:09.000Z</time>
      </trkpt>
      <trkpt lat="46.01052" lon="-1.36486">
        <ele>-6.1999998092651</ele>
        <time>2021-11-23T11:41:15.000Z</time>
      </trkpt>
      <trkpt lat="46.01032" lon="-1.36482">
        <ele>-6</ele>
        <time>2021-11-23T11:41:18.000Z</time>
      </trkpt>
      <trkpt lat="46.01005" lon="-1.36475">
        <ele>-6</ele>
        <time>2021-11-23T11:41:22.000Z</time>
      </trkpt>
      <trkpt lat="46.00955" lon="-1.36466">
        <ele>-5.4000000953674</ele>
        <time>2021-11-23T11:41:29.000Z</time>
      </trkpt>
      <trkpt lat="46.00928" lon="-1.36458">
        <ele>-5</ele>
        <time>2021-11-23T11:41:33.000Z</time>
      </trkpt>
      <trkpt lat="46.00914" lon="-1.36454">
        <ele>-5</ele>
        <time>2021-11-23T11:41:35.000Z</time>
      </trkpt>
      <trkpt lat="46.00883" lon="-1.36444">
        <ele>-4.5999999046326</ele>
        <time>2021-11-23T11:41:40.000Z</time>
      </trkpt>
      <trkpt lat="46.0087" lon="-1.36441">
        <ele>-4</ele>
        <time>2021-11-23T11:41:42.000Z</time>
      </trkpt>
      <trkpt lat="46.00837" lon="-1.36435">
        <ele>-3.5999999046326</ele>
        <time>2021-11-23T11:41:47.000Z</time>
      </trkpt>
      <trkpt lat="46.00788" lon="-1.36432">
        <ele>-4</ele>
        <time>2021-11-23T11:41:54.000Z</time>
      </trkpt>
      <trkpt lat="46.00729" lon="-1.36441">
        <ele>-4.4000000953674</ele>
        <time>2021-11-23T11:42:02.000Z</time>
      </trkpt>
      <trkpt lat="46.00721" lon="-1.36443">
        <ele>-4.4000000953674</ele>
        <time>2021-11-23T11:42:03.000Z</time>
      </trkpt>
      <trkpt lat="46.00663" lon="-1.36455">
        <ele>-4</ele>
        <time>2021-11-23T11:42:11.000Z</time>
      </trkpt>
      <trkpt lat="46.00657" lon="-1.36457">
        <ele>-4</ele>
        <time>2021-11-23T11:42:12.000Z</time>
      </trkpt>
      <trkpt lat="46.00651" lon="-1.36458">
        <ele>-4</ele>
        <time>2021-11-23T11:42:13.000Z</time>
      </trkpt>
      <trkpt lat="46.00641" lon="-1.36453">
        <ele>-4</ele>
        <time>2021-11-23T11:42:15.000Z</time>
      </trkpt>
      <trkpt lat="46.00636" lon="-1.3644">
        <ele>-4.1999998092651</ele>
        <time>2021-11-23T11:42:17.000Z</time>
      </trkpt>
      <trkpt lat="46.00635" lon="-1.36433">
        <ele>-4.4000000953674</ele>
        <time>2021-11-23T11:42:18.000Z</time>
      </trkpt>
      <trkpt lat="46.00628" lon="-1.36402">
        <ele>-4.8000001907349</ele>
        <time>2021-11-23T11:42:22.000Z</time>
      </trkpt>
      <trkpt lat="46.00626" lon="-1.36394">
        <ele>-5</ele>
        <time>2021-11-23T11:42:23.000Z</time>
      </trkpt>
      <trkpt lat="46.00621" lon="-1.36378">
        <ele>-5.1999998092651</ele>
        <time>2021-11-23T11:42:25.000Z</time>
      </trkpt>
      <trkpt lat="46.00615" lon="-1.36353">
        <ele>-5.5999999046326</ele>
        <time>2021-11-23T11:42:28.000Z</time>
      </trkpt>
      <trkpt lat="46.0061" lon="-1.36327">
        <ele>-6</ele>
        <time>2021-11-23T11:42:31.000Z</time>
      </trkpt>
      <trkpt lat="46.00604" lon="-1.36302">
        <ele>-6.4000000953674</ele>
        <time>2021-11-23T11:42:34.000Z</time>
      </trkpt>
      <trkpt lat="46.00594" lon="-1.36263">
        <ele>-6.5999999046326</ele>
        <time>2021-11-23T11:42:39.000Z</time>
      </trkpt>
      <trkpt lat="46.00592" lon="-1.36255">
        <ele>-6.1999998092651</ele>
        <time>2021-11-23T11:42:40.000Z</time>
      </trkpt>
      <trkpt lat="46.0059" lon="-1.36249">
        <ele>-6.1999998092651</ele>
        <time>2021-11-23T11:42:41.000Z</time>
      </trkpt>
      <trkpt lat="46.00584" lon="-1.36241">
        <ele>-6</ele>
        <time>2021-11-23T11:42:43.000Z</time>
      </trkpt>
      <trkpt lat="46.00576" lon="-1.36241">
        <ele>-5.8000001907349</ele>
        <time>2021-11-23T11:42:45.000Z</time>
      </trkpt>
      <trkpt lat="46.00571" lon="-1.36244">
        <ele>-5.8000001907349</ele>
        <time>2021-11-23T11:42:46.000Z</time>
      </trkpt>
      <trkpt lat="46.00537" lon="-1.36265">
        <ele>-5.8000001907349</ele>
        <time>2021-11-23T11:42:52.000Z</time>
      </trkpt>
      <trkpt lat="46.00498" lon="-1.36286">
        <ele>-6</ele>
        <time>2021-11-23T11:42:58.000Z</time>
      </trkpt>
      <trkpt lat="46.00449" lon="-1.36307">
        <ele>-6</ele>
        <time>2021-11-23T11:43:05.000Z</time>
      </trkpt>
      <trkpt lat="46.0039" lon="-1.36327">
        <ele>-5.8000001907349</ele>
        <time>2021-11-23T11:43:13.000Z</time>
      </trkpt>
      <trkpt lat="46.00375" lon="-1.36331">
        <ele>-5.8000001907349</ele>
        <time>2021-11-23T11:43:15.000Z</time>
      </trkpt>
      <trkpt lat="46.00333" lon="-1.36346">
        <ele>-6</ele>
        <time>2021-11-23T11:43:21.000Z</time>
      </trkpt>
      <trkpt lat="46.00328" lon="-1.36345">
        <ele>-6</ele>
        <time>2021-11-23T11:43:22.000Z</time>
      </trkpt>
      <trkpt lat="46.00324" lon="-1.3634">
        <ele>-6</ele>
        <time>2021-11-23T11:43:23.000Z</time>
      </trkpt>
      <trkpt lat="46.00322" lon="-1.36333">
        <ele>-6</ele>
        <time>2021-11-23T11:43:24.000Z</time>
      </trkpt>
      <trkpt lat="46.00315" lon="-1.3629">
        <ele>-6.4000000953674</ele>
        <time>2021-11-23T11:43:29.000Z</time>
      </trkpt>
      <trkpt lat="46.00306" lon="-1.36235">
        <ele>-6.5999999046326</ele>
        <time>2021-11-23T11:43:35.000Z</time>
      </trkpt>
      <trkpt lat="46.00294" lon="-1.3617">
        <ele>-6.8000001907349</ele>
        <time>2021-11-23T11:43:42.000Z</time>
      </trkpt>
      <trkpt lat="46.00286" lon="-1.36157">
        <ele>-6.8000001907349</ele>
        <time>2021-11-23T11:43:44.000Z</time>
      </trkpt>
      <trkpt lat="46.00281" lon="-1.36158">
        <ele>-6.8000001907349</ele>
        <time>2021-11-23T11:43:45.000Z</time>
      </trkpt>
      <trkpt lat="46.0027" lon="-1.36163">
        <ele>-6.5999999046326</ele>
        <time>2021-11-23T11:43:47.000Z</time>
      </trkpt>
      <trkpt lat="46.00265" lon="-1.36161">
        <ele>-6.5999999046326</ele>
        <time>2021-11-23T11:43:48.000Z</time>
      </trkpt>
      <trkpt lat="46.00261" lon="-1.36156">
        <ele>-6.5999999046326</ele>
        <time>2021-11-23T11:43:49.000Z</time>
      </trkpt>
      <trkpt lat="46.00259" lon="-1.36148">
        <ele>-6.5999999046326</ele>
        <time>2021-11-23T11:43:50.000Z</time>
      </trkpt>
      <trkpt lat="46.00256" lon="-1.36132">
        <ele>-6.8000001907349</ele>
        <time>2021-11-23T11:43:52.000Z</time>
      </trkpt>
      <trkpt lat="46.00252" lon="-1.36105">
        <ele>-6.8000001907349</ele>
        <time>2021-11-23T11:43:55.000Z</time>
      </trkpt>
      <trkpt lat="46.00249" lon="-1.36096">
        <ele>-7</ele>
        <time>2021-11-23T11:43:56.000Z</time>
      </trkpt>
      <trkpt lat="46.00241" lon="-1.36083">
        <ele>-7.1999998092651</ele>
        <time>2021-11-23T11:43:58.000Z</time>
      </trkpt>
      <trkpt lat="46.00229" lon="-1.36084">
        <ele>-7.4000000953674</ele>
        <time>2021-11-23T11:44:00.000Z</time>
      </trkpt>
      <trkpt lat="46.00188" lon="-1.361">
        <ele>-7.5999999046326</ele>
        <time>2021-11-23T11:44:06.000Z</time>
      </trkpt>
      <trkpt lat="46.00174" lon="-1.36105">
        <ele>-8</ele>
        <time>2021-11-23T11:44:08.000Z</time>
      </trkpt>
      <trkpt lat="46.00167" lon="-1.36107">
        <ele>-7.8000001907349</ele>
        <time>2021-11-23T11:44:09.000Z</time>
      </trkpt>
      <trkpt lat="46.00161" lon="-1.36106">
        <ele>-8</ele>
        <time>2021-11-23T11:44:10.000Z</time>
      </trkpt>
      <trkpt lat="46.00156" lon="-1.36103">
        <ele>-8</ele>
        <time>2021-11-23T11:44:11.000Z</time>
      </trkpt>
      <trkpt lat="46.00153" lon="-1.36096">
        <ele>-8.1999998092651</ele>
        <time>2021-11-23T11:44:12.000Z</time>
      </trkpt>
      <trkpt lat="46.0015" lon="-1.36088">
        <ele>-8.1999998092651</ele>
        <time>2021-11-23T11:44:13.000Z</time>
      </trkpt>
      <trkpt lat="46.00144" lon="-1.36057">
        <ele>-8.3999996185303</ele>
        <time>2021-11-23T11:44:16.000Z</time>
      </trkpt>
      <trkpt lat="46.00133" lon="-1.36008">
        <ele>-8.6000003814697</ele>
        <time>2021-11-23T11:44:21.000Z</time>
      </trkpt>
      <trkpt lat="46.00134" lon="-1.35998">
        <ele>-8.6000003814697</ele>
        <time>2021-11-23T11:44:22.000Z</time>
      </trkpt>
      <trkpt lat="46.00137" lon="-1.35979">
        <ele>-8.8000001907349</ele>
        <time>2021-11-23T11:44:24.000Z</time>
      </trkpt>
      <trkpt lat="46.00135" lon="-1.35969">
        <ele>-8.8000001907349</ele>
        <time>2021-11-23T11:44:25.000Z</time>
      </trkpt>
      <trkpt lat="46.00119" lon="-1.35921">
        <ele>-8.8000001907349</ele>
        <time>2021-11-23T11:44:30.000Z</time>
      </trkpt>
      <trkpt lat="46.00115" lon="-1.35911">
        <ele>-8.8000001907349</ele>
        <time>2021-11-23T11:44:31.000Z</time>
      </trkpt>
      <trkpt lat="46.00089" lon="-1.35832">
        <ele>-9.1999998092651</ele>
        <time>2021-11-23T11:44:39.000Z</time>
      </trkpt>
      <trkpt lat="46.00063" lon="-1.35763">
        <ele>-9.1999998092651</ele>
        <time>2021-11-23T11:44:46.000Z</time>
      </trkpt>
      <trkpt lat="46.00052" lon="-1.35748">
        <ele>-9.1999998092651</ele>
        <time>2021-11-23T11:44:48.000Z</time>
      </trkpt>
      <trkpt lat="46.0004" lon="-1.35734">
        <ele>-9.1999998092651</ele>
        <time>2021-11-23T11:44:50.000Z</time>
      </trkpt>
      <trkpt lat="46.00032" lon="-1.35715">
        <ele>-9.1999998092651</ele>
        <time>2021-11-23T11:44:52.000Z</time>
      </trkpt>
      <trkpt lat="46.0003" lon="-1.35704">
        <ele>-9.1999998092651</ele>
        <time>2021-11-23T11:44:53.000Z</time>
      </trkpt>
      <trkpt lat="46.00014" lon="-1.35629">
        <ele>-8.8000001907349</ele>
        <time>2021-11-23T11:45:00.000Z</time>
      </trkpt>
      <trkpt lat="46.00009" lon="-1.35608">
        <ele>-8.1999998092651</ele>
        <time>2021-11-23T11:45:02.000Z</time>
      </trkpt>
      <trkpt lat="45.99998" lon="-1.35558">
        <ele>-7.8000001907349</ele>
        <time>2021-11-23T11:45:07.000Z</time>
      </trkpt>
      <trkpt lat="45.9999" lon="-1.35528">
        <ele>-7.1999998092651</ele>
        <time>2021-11-23T11:45:10.000Z</time>
      </trkpt>
      <trkpt lat="45.99981" lon="-1.35488">
        <ele>-6.8000001907349</ele>
        <time>2021-11-23T11:45:14.000Z</time>
      </trkpt>
      <trkpt lat="45.99973" lon="-1.35448">
        <ele>-6.1999998092651</ele>
        <time>2021-11-23T11:45:18.000Z</time>
      </trkpt>
      <trkpt lat="45.99958" lon="-1.35375">
        <ele>-5.8000001907349</ele>
        <time>2021-11-23T11:45:25.000Z</time>
      </trkpt>
      <trkpt lat="45.99958" lon="-1.35364">
        <ele>-5.8000001907349</ele>
        <time>2021-11-23T11:45:26.000Z</time>
      </trkpt>
      <trkpt lat="45.99959" lon="-1.35354">
        <ele>-5.8000001907349</ele>
        <time>2021-11-23T11:45:27.000Z</time>
      </trkpt>
      <trkpt lat="45.99963" lon="-1.35323">
        <ele>-5.5999999046326</ele>
        <time>2021-11-23T11:45:30.000Z</time>
      </trkpt>
      <trkpt lat="45.99971" lon="-1.35251">
        <ele>-5.5999999046326</ele>
        <time>2021-11-23T11:45:37.000Z</time>
      </trkpt>
      <trkpt lat="45.99978" lon="-1.3518">
        <ele>-5.8000001907349</ele>
        <time>2021-11-23T11:45:44.000Z</time>
      </trkpt>
      <trkpt lat="45.99971" lon="-1.35164">
        <ele>-6</ele>
        <time>2021-11-23T11:45:46.000Z</time>
      </trkpt>
      <trkpt lat="45.99965" lon="-1.35158">
        <ele>-6</ele>
        <time>2021-11-23T11:45:47.000Z</time>
      </trkpt>
      <trkpt lat="45.99918" lon="-1.35111">
        <ele>-7.1999998092651</ele>
        <time>2021-11-23T11:45:55.000Z</time>
      </trkpt>
      <trkpt lat="45.99906" lon="-1.35099">
        <ele>-7.5999999046326</ele>
        <time>2021-11-23T11:45:57.000Z</time>
      </trkpt>
      <trkpt lat="45.9987" lon="-1.35063">
        <ele>-8.3999996185303</ele>
        <time>2021-11-23T11:46:03.000Z</time>
      </trkpt>
      <trkpt lat="45.99852" lon="-1.35045">
        <ele>-8.6000003814697</ele>
        <time>2021-11-23T11:46:06.000Z</time>
      </trkpt>
      <trkpt lat="45.9984" lon="-1.35034">
        <ele>-8.8000001907349</ele>
        <time>2021-11-23T11:46:08.000Z</time>
      </trkpt>
      <trkpt lat="45.99829" lon="-1.35021">
        <ele>-8.8000001907349</ele>
        <time>2021-11-23T11:46:10.000Z</time>
      </trkpt>
      <trkpt lat="45.99801" lon="-1.34991">
        <ele>-8.8000001907349</ele>
        <time>2021-11-23T11:46:15.000Z</time>
      </trkpt>
      <trkpt lat="45.99784" lon="-1.34975">
        <ele>-9</ele>
        <time>2021-11-23T11:46:18.000Z</time>
      </trkpt>
      <trkpt lat="45.99767" lon="-1.34956">
        <ele>-9</ele>
        <time>2021-11-23T11:46:21.000Z</time>
      </trkpt>
      <trkpt lat="45.99735" lon="-1.34919">
        <ele>-9.1999998092651</ele>
        <time>2021-11-23T11:46:27.000Z</time>
      </trkpt>
      <trkpt lat="45.99717" lon="-1.34904">
        <ele>-9.1999998092651</ele>
        <time>2021-11-23T11:46:30.000Z</time>
      </trkpt>
      <trkpt lat="45.99714" lon="-1.34898">
        <ele>-9.1999998092651</ele>
        <time>2021-11-23T11:46:31.000Z</time>
      </trkpt>
      <trkpt lat="45.99712" lon="-1.3489">
        <ele>-9.1999998092651</ele>
        <time>2021-11-23T11:46:32.000Z</time>
      </trkpt>
      <trkpt lat="45.99713" lon="-1.34874">
        <ele>-9</ele>
        <time>2021-11-23T11:46:34.000Z</time>
      </trkpt>
      <trkpt lat="45.99714" lon="-1.34865">
        <ele>-9</ele>
        <time>2021-11-23T11:46:35.000Z</time>
      </trkpt>
      <trkpt lat="45.99716" lon="-1.34849">
        <ele>-9</ele>
        <time>2021-11-23T11:46:37.000Z</time>
      </trkpt>
      <trkpt lat="45.99716" lon="-1.34841">
        <ele>-8.8000001907349</ele>
        <time>2021-11-23T11:46:38.000Z</time>
      </trkpt>
      <trkpt lat="45.99705" lon="-1.34791">
        <ele>-8.1999998092651</ele>
        <time>2021-11-23T11:46:44.000Z</time>
      </trkpt>
      <trkpt lat="45.99688" lon="-1.34721">
        <ele>-8.1999998092651</ele>
        <time>2021-11-23T11:46:52.000Z</time>
      </trkpt>
      <trkpt lat="45.99681" lon="-1.34696">
        <ele>-8.1999998092651</ele>
        <time>2021-11-23T11:46:55.000Z</time>
      </trkpt>
      <trkpt lat="45.99677" lon="-1.34682">
        <ele>-7.8000001907349</ele>
        <time>2021-11-23T11:46:57.000Z</time>
      </trkpt>
      <trkpt lat="45.99671" lon="-1.3467">
        <ele>-7.4000000953674</ele>
        <time>2021-11-23T11:46:59.000Z</time>
      </trkpt>
      <trkpt lat="45.99661" lon="-1.34649">
        <ele>-7</ele>
        <time>2021-11-23T11:47:02.000Z</time>
      </trkpt>
      <trkpt lat="45.99636" lon="-1.34611">
        <ele>-7</ele>
        <time>2021-11-23T11:47:08.000Z</time>
      </trkpt>
      <trkpt lat="45.9962" lon="-1.3459">
        <ele>-7</ele>
        <time>2021-11-23T11:47:11.000Z</time>
      </trkpt>
      <trkpt lat="45.99615" lon="-1.34586">
        <ele>-7</ele>
        <time>2021-11-23T11:47:12.000Z</time>
      </trkpt>
      <trkpt lat="45.9959" lon="-1.34554">
        <ele>-6.4000000953674</ele>
        <time>2021-11-23T11:47:17.000Z</time>
      </trkpt>
      <trkpt lat="45.99581" lon="-1.34541">
        <ele>-6.4000000953674</ele>
        <time>2021-11-23T11:47:19.000Z</time>
      </trkpt>
      <trkpt lat="45.99562" lon="-1.34514">
        <ele>-5.8000001907349</ele>
        <time>2021-11-23T11:47:23.000Z</time>
      </trkpt>
      <trkpt lat="45.99553" lon="-1.345">
        <ele>-5.8000001907349</ele>
        <time>2021-11-23T11:47:25.000Z</time>
      </trkpt>
      <trkpt lat="45.99521" lon="-1.34449">
        <ele>-6.8000001907349</ele>
        <time>2021-11-23T11:47:32.000Z</time>
      </trkpt>
      <trkpt lat="45.99491" lon="-1.34408">
        <ele>-7.1999998092651</ele>
        <time>2021-11-23T11:47:38.000Z</time>
      </trkpt>
      <trkpt lat="45.99482" lon="-1.34395">
        <ele>-7.4000000953674</ele>
        <time>2021-11-23T11:47:40.000Z</time>
      </trkpt>
      <trkpt lat="45.99477" lon="-1.34389">
        <ele>-7.5999999046326</ele>
        <time>2021-11-23T11:47:41.000Z</time>
      </trkpt>
      <trkpt lat="45.99458" lon="-1.34365">
        <ele>-8.3999996185303</ele>
        <time>2021-11-23T11:47:45.000Z</time>
      </trkpt>
      <trkpt lat="45.99449" lon="-1.34354">
        <ele>-8.6000003814697</ele>
        <time>2021-11-23T11:47:47.000Z</time>
      </trkpt>
      <trkpt lat="45.99417" lon="-1.34318">
        <ele>-8.8000001907349</ele>
        <time>2021-11-23T11:47:54.000Z</time>
      </trkpt>
      <trkpt lat="45.99377" lon="-1.3427">
        <ele>-8.3999996185303</ele>
        <time>2021-11-23T11:48:02.000Z</time>
      </trkpt>
      <trkpt lat="45.99363" lon="-1.34251">
        <ele>-8.3999996185303</ele>
        <time>2021-11-23T11:48:05.000Z</time>
      </trkpt>
      <trkpt lat="45.99347" lon="-1.34234">
        <ele>-8.1999998092651</ele>
        <time>2021-11-23T11:48:08.000Z</time>
      </trkpt>
      <trkpt lat="45.99316" lon="-1.34195">
        <ele>-7.5999999046326</ele>
        <time>2021-11-23T11:48:15.000Z</time>
      </trkpt>
      <trkpt lat="45.99307" lon="-1.34184">
        <ele>-7.4000000953674</ele>
        <time>2021-11-23T11:48:17.000Z</time>
      </trkpt>
      <trkpt lat="45.99293" lon="-1.34167">
        <ele>-7.1999998092651</ele>
        <time>2021-11-23T11:48:20.000Z</time>
      </trkpt>
      <trkpt lat="45.99283" lon="-1.34155">
        <ele>-7.1999998092651</ele>
        <time>2021-11-23T11:48:22.000Z</time>
      </trkpt>
      <trkpt lat="45.99265" lon="-1.34133">
        <ele>-6.8000001907349</ele>
        <time>2021-11-23T11:48:26.000Z</time>
      </trkpt>
      <trkpt lat="45.99261" lon="-1.34119">
        <ele>-6.5999999046326</ele>
        <time>2021-11-23T11:48:28.000Z</time>
      </trkpt>
      <trkpt lat="45.99266" lon="-1.34102">
        <ele>-7.1999998092651</ele>
        <time>2021-11-23T11:48:31.000Z</time>
      </trkpt>
      <trkpt lat="45.99279" lon="-1.34076">
        <ele>-7.1999998092651</ele>
        <time>2021-11-23T11:48:35.000Z</time>
      </trkpt>
      <trkpt lat="45.99284" lon="-1.34062">
        <ele>-7.1999998092651</ele>
        <time>2021-11-23T11:48:37.000Z</time>
      </trkpt>
      <trkpt lat="45.99305" lon="-1.34014">
        <ele>-7</ele>
        <time>2021-11-23T11:48:44.000Z</time>
      </trkpt>
      <trkpt lat="45.99331" lon="-1.33961">
        <ele>-6.4000000953674</ele>
        <time>2021-11-23T11:48:52.000Z</time>
      </trkpt>
      <trkpt lat="45.99334" lon="-1.33954">
        <ele>-6</ele>
        <time>2021-11-23T11:48:53.000Z</time>
      </trkpt>
      <trkpt lat="45.99363" lon="-1.33896">
        <ele>-6</ele>
        <time>2021-11-23T11:49:01.000Z</time>
      </trkpt>
      <trkpt lat="45.99397" lon="-1.33832">
        <ele>-5.8000001907349</ele>
        <time>2021-11-23T11:49:10.000Z</time>
      </trkpt>
      <trkpt lat="45.99429" lon="-1.33765">
        <ele>-6</ele>
        <time>2021-11-23T11:49:19.000Z</time>
      </trkpt>
      <trkpt lat="45.99432" lon="-1.33758">
        <ele>-6</ele>
        <time>2021-11-23T11:49:20.000Z</time>
      </trkpt>
      <trkpt lat="45.99459" lon="-1.33704">
        <ele>-6.1999998092651</ele>
        <time>2021-11-23T11:49:28.000Z</time>
      </trkpt>
      <trkpt lat="45.99475" lon="-1.33672">
        <ele>-6.4000000953674</ele>
        <time>2021-11-23T11:49:33.000Z</time>
      </trkpt>
      <trkpt lat="45.99485" lon="-1.33652">
        <ele>-6.5999999046326</ele>
        <time>2021-11-23T11:49:36.000Z</time>
      </trkpt>
      <trkpt lat="45.99504" lon="-1.33615">
        <ele>-7.1999998092651</ele>
        <time>2021-11-23T11:49:42.000Z</time>
      </trkpt>
      <trkpt lat="45.99515" lon="-1.33592">
        <ele>-7.5999999046326</ele>
        <time>2021-11-23T11:49:46.000Z</time>
      </trkpt>
      <trkpt lat="45.99536" lon="-1.33555">
        <ele>-8</ele>
        <time>2021-11-23T11:49:53.000Z</time>
      </trkpt>
      <trkpt lat="45.99564" lon="-1.33526">
        <ele>-7.8000001907349</ele>
        <time>2021-11-23T11:50:00.000Z</time>
      </trkpt>
      <trkpt lat="45.99579" lon="-1.33517">
        <ele>-7.5999999046326</ele>
        <time>2021-11-23T11:50:03.000Z</time>
      </trkpt>
      <trkpt lat="45.99586" lon="-1.3351">
        <ele>-7.5999999046326</ele>
        <time>2021-11-23T11:50:05.000Z</time>
      </trkpt>
      <trkpt lat="45.99586" lon="-1.33497">
        <ele>-7.5999999046326</ele>
        <time>2021-11-23T11:50:07.000Z</time>
      </trkpt>
      <trkpt lat="45.99571" lon="-1.33469">
        <ele>-7.4000000953674</ele>
        <time>2021-11-23T11:50:12.000Z</time>
      </trkpt>
      <trkpt lat="45.99564" lon="-1.33458">
        <ele>-7.4000000953674</ele>
        <time>2021-11-23T11:50:14.000Z</time>
      </trkpt>
      <trkpt lat="45.99551" lon="-1.33444">
        <ele>-7.1999998092651</ele>
        <time>2021-11-23T11:50:17.000Z</time>
      </trkpt>
      <trkpt lat="45.99543" lon="-1.33433">
        <ele>-7</ele>
        <time>2021-11-23T11:50:21.000Z</time>
      </trkpt>
      <trkpt lat="45.99532" lon="-1.33426">
        <ele>-6.8000001907349</ele>
        <time>2021-11-23T11:50:25.000Z</time>
      </trkpt>
      <trkpt lat="45.99509" lon="-1.33403">
        <ele>-6.8000001907349</ele>
        <time>2021-11-23T11:50:30.000Z</time>
      </trkpt>
      <trkpt lat="45.99478" lon="-1.33372">
        <ele>-7.1999998092651</ele>
        <time>2021-11-23T11:50:36.000Z</time>
      </trkpt>
      <trkpt lat="45.99438" lon="-1.33328">
        <ele>-7.8000001907349</ele>
        <time>2021-11-23T11:50:44.000Z</time>
      </trkpt>
      <trkpt lat="45.9939" lon="-1.3328">
        <ele>-7.5999999046326</ele>
        <time>2021-11-23T11:50:53.000Z</time>
      </trkpt>
      <trkpt lat="45.99354" lon="-1.33244">
        <ele>-7.8000001907349</ele>
        <time>2021-11-23T11:51:00.000Z</time>
      </trkpt>
      <trkpt lat="45.99348" lon="-1.33239">
        <ele>-8</ele>
        <time>2021-11-23T11:51:01.000Z</time>
      </trkpt>
      <trkpt lat="45.99317" lon="-1.33208">
        <ele>-9.1999998092651</ele>
        <time>2021-11-23T11:51:07.000Z</time>
      </trkpt>
      <trkpt lat="45.99302" lon="-1.33194">
        <ele>-9.6000003814697</ele>
        <time>2021-11-23T11:51:10.000Z</time>
      </trkpt>
      <trkpt lat="45.99283" lon="-1.33176">
        <ele>-9.8000001907349</ele>
        <time>2021-11-23T11:51:14.000Z</time>
      </trkpt>
      <trkpt lat="45.99245" lon="-1.33137">
        <ele>-9.3999996185303</ele>
        <time>2021-11-23T11:51:22.000Z</time>
      </trkpt>
      <trkpt lat="45.99241" lon="-1.33132">
        <ele>-9.3999996185303</ele>
        <time>2021-11-23T11:51:23.000Z</time>
      </trkpt>
      <trkpt lat="45.99237" lon="-1.33127">
        <ele>-9.3999996185303</ele>
        <time>2021-11-23T11:51:24.000Z</time>
      </trkpt>
      <trkpt lat="45.99208" lon="-1.33097">
        <ele>-9.3999996185303</ele>
        <time>2021-11-23T11:51:30.000Z</time>
      </trkpt>
      <trkpt lat="45.99175" lon="-1.33063">
        <ele>-9.1999998092651</ele>
        <time>2021-11-23T11:51:37.000Z</time>
      </trkpt>
      <trkpt lat="45.99128" lon="-1.33014">
        <ele>-9</ele>
        <time>2021-11-23T11:51:47.000Z</time>
      </trkpt>
      <trkpt lat="45.9908" lon="-1.32966">
        <ele>-8.8000001907349</ele>
        <time>2021-11-23T11:51:57.000Z</time>
      </trkpt>
      <trkpt lat="45.99076" lon="-1.32961">
        <ele>-9</ele>
        <time>2021-11-23T11:51:58.000Z</time>
      </trkpt>
      <trkpt lat="45.99037" lon="-1.32924">
        <ele>-9</ele>
        <time>2021-11-23T11:52:06.000Z</time>
      </trkpt>
      <trkpt lat="45.99004" lon="-1.3289">
        <ele>-8.3999996185303</ele>
        <time>2021-11-23T11:52:13.000Z</time>
      </trkpt>
      <trkpt lat="45.9899" lon="-1.32875">
        <ele>-8.1999998092651</ele>
        <time>2021-11-23T11:52:16.000Z</time>
      </trkpt>
      <trkpt lat="45.98971" lon="-1.32856">
        <ele>-8</ele>
        <time>2021-11-23T11:52:20.000Z</time>
      </trkpt>
      <trkpt lat="45.9896" lon="-1.32847">
        <ele>-8</ele>
        <time>2021-11-23T11:52:22.000Z</time>
      </trkpt>
      <trkpt lat="45.98949" lon="-1.32841">
        <ele>-8</ele>
        <time>2021-11-23T11:52:24.000Z</time>
      </trkpt>
      <trkpt lat="45.98943" lon="-1.3284">
        <ele>-7.8000001907349</ele>
        <time>2021-11-23T11:52:25.000Z</time>
      </trkpt>
      <trkpt lat="45.98897" lon="-1.32842">
        <ele>-7.5999999046326</ele>
        <time>2021-11-23T11:52:32.000Z</time>
      </trkpt>
      <trkpt lat="45.98885" lon="-1.32848">
        <ele>-7.4000000953674</ele>
        <time>2021-11-23T11:52:34.000Z</time>
      </trkpt>
      <trkpt lat="45.98873" lon="-1.32856">
        <ele>-8</ele>
        <time>2021-11-23T11:52:36.000Z</time>
      </trkpt>
      <trkpt lat="45.98856" lon="-1.32871">
        <ele>-8.1999998092651</ele>
        <time>2021-11-23T11:52:39.000Z</time>
      </trkpt>
      <trkpt lat="45.98847" lon="-1.32884">
        <ele>-8.1999998092651</ele>
        <time>2021-11-23T11:52:41.000Z</time>
      </trkpt>
      <trkpt lat="45.98816" lon="-1.32948">
        <ele>-8.6000003814697</ele>
        <time>2021-11-23T11:52:49.000Z</time>
      </trkpt>
      <trkpt lat="45.98807" lon="-1.32965">
        <ele>-8.6000003814697</ele>
        <time>2021-11-23T11:52:51.000Z</time>
      </trkpt>
      <trkpt lat="45.98799" lon="-1.32981">
        <ele>-9.3999996185303</ele>
        <time>2021-11-23T11:52:53.000Z</time>
      </trkpt>
      <trkpt lat="45.98778" lon="-1.33023">
        <ele>-10.39999961853</ele>
        <time>2021-11-23T11:52:58.000Z</time>
      </trkpt>
      <trkpt lat="45.9877" lon="-1.33039">
        <ele>-10.39999961853</ele>
        <time>2021-11-23T11:53:00.000Z</time>
      </trkpt>
      <trkpt lat="45.98738" lon="-1.33104">
        <ele>-10</ele>
        <time>2021-11-23T11:53:08.000Z</time>
      </trkpt>
      <trkpt lat="45.98729" lon="-1.33121">
        <ele>-10.199999809265</ele>
        <time>2021-11-23T11:53:10.000Z</time>
      </trkpt>
      <trkpt lat="45.98701" lon="-1.33179">
        <ele>-11.39999961853</ele>
        <time>2021-11-23T11:53:17.000Z</time>
      </trkpt>
      <trkpt lat="45.98685" lon="-1.33212">
        <ele>-12</ele>
        <time>2021-11-23T11:53:21.000Z</time>
      </trkpt>
      <trkpt lat="45.98669" lon="-1.33243">
        <ele>-12.39999961853</ele>
        <time>2021-11-23T11:53:25.000Z</time>
      </trkpt>
      <trkpt lat="45.98664" lon="-1.33253">
        <ele>-12.39999961853</ele>
        <time>2021-11-23T11:53:26.000Z</time>
      </trkpt>
      <trkpt lat="45.98646" lon="-1.33288">
        <ele>-12.800000190735</ele>
        <time>2021-11-23T11:53:30.000Z</time>
      </trkpt>
      <trkpt lat="45.98614" lon="-1.33348">
        <ele>-12.60000038147</ele>
        <time>2021-11-23T11:53:37.000Z</time>
      </trkpt>
      <trkpt lat="45.98608" lon="-1.33354">
        <ele>-12.800000190735</ele>
        <time>2021-11-23T11:53:38.000Z</time>
      </trkpt>
      <trkpt lat="45.98601" lon="-1.3336">
        <ele>-12.60000038147</ele>
        <time>2021-11-23T11:53:39.000Z</time>
      </trkpt>
      <trkpt lat="45.9858" lon="-1.33373">
        <ele>-12.199999809265</ele>
        <time>2021-11-23T11:53:42.000Z</time>
      </trkpt>
      <trkpt lat="45.98525" lon="-1.33406">
        <ele>-12.60000038147</ele>
        <time>2021-11-23T11:53:50.000Z</time>
      </trkpt>
      <trkpt lat="45.98518" lon="-1.33411">
        <ele>-12.800000190735</ele>
        <time>2021-11-23T11:53:51.000Z</time>
      </trkpt>
      <trkpt lat="45.98464" lon="-1.33444">
        <ele>-12.800000190735</ele>
        <time>2021-11-23T11:53:59.000Z</time>
      </trkpt>
      <trkpt lat="45.98457" lon="-1.33449">
        <ele>-12.800000190735</ele>
        <time>2021-11-23T11:54:00.000Z</time>
      </trkpt>
      <trkpt lat="45.98413" lon="-1.33477">
        <ele>-12.39999961853</ele>
        <time>2021-11-23T11:54:07.000Z</time>
      </trkpt>
      <trkpt lat="45.98357" lon="-1.33511">
        <ele>-12.60000038147</ele>
        <time>2021-11-23T11:54:15.000Z</time>
      </trkpt>
      <trkpt lat="45.9835" lon="-1.33516">
        <ele>-12.800000190735</ele>
        <time>2021-11-23T11:54:16.000Z</time>
      </trkpt>
      <trkpt lat="45.98298" lon="-1.33548">
        <ele>-12.800000190735</ele>
        <time>2021-11-23T11:54:23.000Z</time>
      </trkpt>
      <trkpt lat="45.98276" lon="-1.33562">
        <ele>-12.199999809265</ele>
        <time>2021-11-23T11:54:26.000Z</time>
      </trkpt>
      <trkpt lat="45.98225" lon="-1.33593">
        <ele>-11.800000190735</ele>
        <time>2021-11-23T11:54:33.000Z</time>
      </trkpt>
      <trkpt lat="45.98218" lon="-1.33598">
        <ele>-11.60000038147</ele>
        <time>2021-11-23T11:54:34.000Z</time>
      </trkpt>
      <trkpt lat="45.98183" lon="-1.33621">
        <ele>-11.199999809265</ele>
        <time>2021-11-23T11:54:39.000Z</time>
      </trkpt>
      <trkpt lat="45.98169" lon="-1.33631">
        <ele>-11.199999809265</ele>
        <time>2021-11-23T11:54:41.000Z</time>
      </trkpt>
      <trkpt lat="45.98113" lon="-1.33665">
        <ele>-11</ele>
        <time>2021-11-23T11:54:49.000Z</time>
      </trkpt>
      <trkpt lat="45.98107" lon="-1.33668">
        <ele>-11.199999809265</ele>
        <time>2021-11-23T11:54:50.000Z</time>
      </trkpt>
      <trkpt lat="45.98059" lon="-1.33702">
        <ele>-11.39999961853</ele>
        <time>2021-11-23T11:54:58.000Z</time>
      </trkpt>
      <trkpt lat="45.98009" lon="-1.33739">
        <ele>-11.199999809265</ele>
        <time>2021-11-23T11:55:06.000Z</time>
      </trkpt>
      <trkpt lat="45.97991" lon="-1.33753">
        <ele>-10.199999809265</ele>
        <time>2021-11-23T11:55:09.000Z</time>
      </trkpt>
      <trkpt lat="45.97963" lon="-1.33768">
        <ele>-9</ele>
        <time>2021-11-23T11:55:14.000Z</time>
      </trkpt>
      <trkpt lat="45.97958" lon="-1.3377">
        <ele>-9</ele>
        <time>2021-11-23T11:55:15.000Z</time>
      </trkpt>
      <trkpt lat="45.9795" lon="-1.33772">
        <ele>-9.1999998092651</ele>
        <time>2021-11-23T11:55:17.000Z</time>
      </trkpt>
      <trkpt lat="45.97949" lon="-1.33774">
        <ele>-9</ele>
        <time>2021-11-23T11:55:18.000Z</time>
      </trkpt>
      <trkpt lat="45.97948" lon="-1.33777">
        <ele>-9</ele>
        <time>2021-11-23T11:55:19.000Z</time>
      </trkpt>
      <trkpt lat="45.9795" lon="-1.3379">
        <ele>-9.1999998092651</ele>
        <time>2021-11-23T11:55:22.000Z</time>
      </trkpt>
      <trkpt lat="45.97941" lon="-1.33798">
        <ele>-9.1999998092651</ele>
        <time>2021-11-23T11:55:25.000Z</time>
      </trkpt>
      <trkpt lat="45.97918" lon="-1.33798">
        <ele>-9.3999996185303</ele>
        <time>2021-11-23T11:55:29.000Z</time>
      </trkpt>
      <trkpt lat="45.97905" lon="-1.33796">
        <ele>-9.8000001907349</ele>
        <time>2021-11-23T11:55:31.000Z</time>
      </trkpt>
      <trkpt lat="45.97893" lon="-1.33789">
        <ele>-10</ele>
        <time>2021-11-23T11:55:33.000Z</time>
      </trkpt>
      <trkpt lat="45.97888" lon="-1.33785">
        <ele>-10.199999809265</ele>
        <time>2021-11-23T11:55:34.000Z</time>
      </trkpt>
      <trkpt lat="45.97879" lon="-1.33777">
        <ele>-10.39999961853</ele>
        <time>2021-11-23T11:55:36.000Z</time>
      </trkpt>
      <trkpt lat="45.9787" lon="-1.33777">
        <ele>-10.39999961853</ele>
        <time>2021-11-23T11:55:38.000Z</time>
      </trkpt>
      <trkpt lat="45.97863" lon="-1.33782">
        <ele>-10.39999961853</ele>
        <time>2021-11-23T11:55:40.000Z</time>
      </trkpt>
      <trkpt lat="45.97859" lon="-1.33782">
        <ele>-10.39999961853</ele>
        <time>2021-11-23T11:55:41.000Z</time>
      </trkpt>
      <trkpt lat="45.97854" lon="-1.33774">
        <ele>-10.39999961853</ele>
        <time>2021-11-23T11:55:43.000Z</time>
      </trkpt>
      <trkpt lat="45.97854" lon="-1.33768">
        <ele>-10.39999961853</ele>
        <time>2021-11-23T11:55:44.000Z</time>
      </trkpt>
      <trkpt lat="45.97852" lon="-1.33737">
        <ele>-10.39999961853</ele>
        <time>2021-11-23T11:55:48.000Z</time>
      </trkpt>
      <trkpt lat="45.97847" lon="-1.3372">
        <ele>-10.39999961853</ele>
        <time>2021-11-23T11:55:50.000Z</time>
      </trkpt>
      <trkpt lat="45.9784" lon="-1.33703">
        <ele>-10.199999809265</ele>
        <time>2021-11-23T11:55:52.000Z</time>
      </trkpt>
      <trkpt lat="45.97832" lon="-1.33688">
        <ele>-10.199999809265</ele>
        <time>2021-11-23T11:55:54.000Z</time>
      </trkpt>
      <trkpt lat="45.97821" lon="-1.33675">
        <ele>-10</ele>
        <time>2021-11-23T11:55:56.000Z</time>
      </trkpt>
      <trkpt lat="45.9779" lon="-1.33644">
        <ele>-9.3999996185303</ele>
        <time>2021-11-23T11:56:02.000Z</time>
      </trkpt>
      <trkpt lat="45.97786" lon="-1.33639">
        <ele>-9.1999998092651</ele>
        <time>2021-11-23T11:56:03.000Z</time>
      </trkpt>
      <trkpt lat="45.97781" lon="-1.33636">
        <ele>-9</ele>
        <time>2021-11-23T11:56:04.000Z</time>
      </trkpt>
      <trkpt lat="45.97775" lon="-1.3364">
        <ele>-8.6000003814697</ele>
        <time>2021-11-23T11:56:06.000Z</time>
      </trkpt>
      <trkpt lat="45.97771" lon="-1.33661">
        <ele>-8.1999998092651</ele>
        <time>2021-11-23T11:56:09.000Z</time>
      </trkpt>
      <trkpt lat="45.97768" lon="-1.33678">
        <ele>-8.1999998092651</ele>
        <time>2021-11-23T11:56:11.000Z</time>
      </trkpt>
      <trkpt lat="45.97764" lon="-1.33694">
        <ele>-8</ele>
        <time>2021-11-23T11:56:13.000Z</time>
      </trkpt>
      <trkpt lat="45.97761" lon="-1.33702">
        <ele>-8</ele>
        <time>2021-11-23T11:56:14.000Z</time>
      </trkpt>
      <trkpt lat="45.97756" lon="-1.33718">
        <ele>-7.8000001907349</ele>
        <time>2021-11-23T11:56:16.000Z</time>
      </trkpt>
      <trkpt lat="45.97738" lon="-1.33764">
        <ele>-7.4000000953674</ele>
        <time>2021-11-23T11:56:22.000Z</time>
      </trkpt>
      <trkpt lat="45.97728" lon="-1.33765">
        <ele>-7.4000000953674</ele>
        <time>2021-11-23T11:56:24.000Z</time>
      </trkpt>
      <trkpt lat="45.97723" lon="-1.33752">
        <ele>-7.4000000953674</ele>
        <time>2021-11-23T11:56:26.000Z</time>
      </trkpt>
      <trkpt lat="45.97723" lon="-1.33744">
        <ele>-7.4000000953674</ele>
        <time>2021-11-23T11:56:27.000Z</time>
      </trkpt>
      <trkpt lat="45.97724" lon="-1.33727">
        <ele>-7.4000000953674</ele>
        <time>2021-11-23T11:56:29.000Z</time>
      </trkpt>
      <trkpt lat="45.97723" lon="-1.33708">
        <ele>-7.4000000953674</ele>
        <time>2021-11-23T11:56:31.000Z</time>
      </trkpt>
      <trkpt lat="45.9772" lon="-1.33689">
        <ele>-7.4000000953674</ele>
        <time>2021-11-23T11:56:33.000Z</time>
      </trkpt>
      <trkpt lat="45.97713" lon="-1.3366">
        <ele>-7.1999998092651</ele>
        <time>2021-11-23T11:56:36.000Z</time>
      </trkpt>
      <trkpt lat="45.97693" lon="-1.33602">
        <ele>-6.8000001907349</ele>
        <time>2021-11-23T11:56:42.000Z</time>
      </trkpt>
      <trkpt lat="45.9769" lon="-1.33592">
        <ele>-6.8000001907349</ele>
        <time>2021-11-23T11:56:43.000Z</time>
      </trkpt>
      <trkpt lat="45.97667" lon="-1.33516">
        <ele>-6.1999998092651</ele>
        <time>2021-11-23T11:56:51.000Z</time>
      </trkpt>
      <trkpt lat="45.97658" lon="-1.33506">
        <ele>-5.5999999046326</ele>
        <time>2021-11-23T11:56:53.000Z</time>
      </trkpt>
      <trkpt lat="45.97653" lon="-1.33507">
        <ele>-5.5999999046326</ele>
        <time>2021-11-23T11:56:54.000Z</time>
      </trkpt>
      <trkpt lat="45.9762" lon="-1.33522">
        <ele>-5.5999999046326</ele>
        <time>2021-11-23T11:56:59.000Z</time>
      </trkpt>
      <trkpt lat="45.97605" lon="-1.33524">
        <ele>-5.5999999046326</ele>
        <time>2021-11-23T11:57:01.000Z</time>
      </trkpt>
      <trkpt lat="45.97582" lon="-1.33524">
        <ele>-5.8000001907349</ele>
        <time>2021-11-23T11:57:04.000Z</time>
      </trkpt>
      <trkpt lat="45.97566" lon="-1.33524">
        <ele>-5.8000001907349</ele>
        <time>2021-11-23T11:57:06.000Z</time>
      </trkpt>
      <trkpt lat="45.97551" lon="-1.33529">
        <ele>-5.8000001907349</ele>
        <time>2021-11-23T11:57:08.000Z</time>
      </trkpt>
      <trkpt lat="45.97522" lon="-1.33544">
        <ele>-6</ele>
        <time>2021-11-23T11:57:12.000Z</time>
      </trkpt>
      <trkpt lat="45.9751" lon="-1.33557">
        <ele>-6</ele>
        <time>2021-11-23T11:57:14.000Z</time>
      </trkpt>
      <trkpt lat="45.97478" lon="-1.33616">
        <ele>-5.5999999046326</ele>
        <time>2021-11-23T11:57:21.000Z</time>
      </trkpt>
      <trkpt lat="45.97444" lon="-1.33686">
        <ele>-4.8000001907349</ele>
        <time>2021-11-23T11:57:29.000Z</time>
      </trkpt>
      <trkpt lat="45.97437" lon="-1.33704">
        <ele>-4.8000001907349</ele>
        <time>2021-11-23T11:57:31.000Z</time>
      </trkpt>
      <trkpt lat="45.97428" lon="-1.33722">
        <ele>-4.8000001907349</ele>
        <time>2021-11-23T11:57:33.000Z</time>
      </trkpt>
      <trkpt lat="45.97423" lon="-1.33729">
        <ele>-4.5999999046326</ele>
        <time>2021-11-23T11:57:34.000Z</time>
      </trkpt>
      <trkpt lat="45.9741" lon="-1.33754">
        <ele>-4.5999999046326</ele>
        <time>2021-11-23T11:57:37.000Z</time>
      </trkpt>
      <trkpt lat="45.97406" lon="-1.33759">
        <ele>-4.5999999046326</ele>
        <time>2021-11-23T11:57:38.000Z</time>
      </trkpt>
      <trkpt lat="45.97382" lon="-1.33784">
        <ele>-4.4000000953674</ele>
        <time>2021-11-23T11:57:42.000Z</time>
      </trkpt>
      <trkpt lat="45.97369" lon="-1.33798">
        <ele>-4.4000000953674</ele>
        <time>2021-11-23T11:57:44.000Z</time>
      </trkpt>
      <trkpt lat="45.97333" lon="-1.33836">
        <ele>-4.5999999046326</ele>
        <time>2021-11-23T11:57:50.000Z</time>
      </trkpt>
      <trkpt lat="45.97291" lon="-1.33869">
        <ele>-4.8000001907349</ele>
        <time>2021-11-23T11:57:57.000Z</time>
      </trkpt>
      <trkpt lat="45.9728" lon="-1.33873">
        <ele>-4.8000001907349</ele>
        <time>2021-11-23T11:57:59.000Z</time>
      </trkpt>
      <trkpt lat="45.97278" lon="-1.33869">
        <ele>-4.8000001907349</ele>
        <time>2021-11-23T11:58:00.000Z</time>
      </trkpt>
      <trkpt lat="45.97277" lon="-1.33865">
        <ele>-4.8000001907349</ele>
        <time>2021-11-23T11:58:01.000Z</time>
      </trkpt>
      <trkpt lat="45.97272" lon="-1.33857">
        <ele>-4.8000001907349</ele>
        <time>2021-11-23T11:58:03.000Z</time>
      </trkpt>
      <trkpt lat="45.97261" lon="-1.33868">
        <ele>-4.8000001907349</ele>
        <time>2021-11-23T11:58:06.000Z</time>
      </trkpt>
      <trkpt lat="45.97244" lon="-1.33884">
        <ele>-5</ele>
        <time>2021-11-23T11:58:09.000Z</time>
      </trkpt>
      <trkpt lat="45.97239" lon="-1.33891">
        <ele>-5.1999998092651</ele>
        <time>2021-11-23T11:58:10.000Z</time>
      </trkpt>
      <trkpt lat="45.97235" lon="-1.33897">
        <ele>-5.4000000953674</ele>
        <time>2021-11-23T11:58:11.000Z</time>
      </trkpt>
      <trkpt lat="45.97231" lon="-1.33905">
        <ele>-5.5999999046326</ele>
        <time>2021-11-23T11:58:12.000Z</time>
      </trkpt>
      <trkpt lat="45.97229" lon="-1.33917">
        <ele>-5.8000001907349</ele>
        <time>2021-11-23T11:58:13.000Z</time>
      </trkpt>
      <trkpt lat="45.97224" lon="-1.33954">
        <ele>-6</ele>
        <time>2021-11-23T11:58:17.000Z</time>
      </trkpt>
      <trkpt lat="45.97215" lon="-1.33973">
        <ele>-6</ele>
        <time>2021-11-23T11:58:19.000Z</time>
      </trkpt>
      <trkpt lat="45.97188" lon="-1.34008">
        <ele>-5.5999999046326</ele>
        <time>2021-11-23T11:58:24.000Z</time>
      </trkpt>
      <trkpt lat="45.97152" lon="-1.34061">
        <ele>-5.5999999046326</ele>
        <time>2021-11-23T11:58:31.000Z</time>
      </trkpt>
      <trkpt lat="45.97115" lon="-1.3412">
        <ele>-5.4000000953674</ele>
        <time>2021-11-23T11:58:38.000Z</time>
      </trkpt>
      <trkpt lat="45.9709" lon="-1.34163">
        <ele>-5.1999998092651</ele>
        <time>2021-11-23T11:58:43.000Z</time>
      </trkpt>
      <trkpt lat="45.97059" lon="-1.34227">
        <ele>-5.1999998092651</ele>
        <time>2021-11-23T11:58:50.000Z</time>
      </trkpt>
      <trkpt lat="45.97049" lon="-1.34247">
        <ele>-5.1999998092651</ele>
        <time>2021-11-23T11:58:52.000Z</time>
      </trkpt>
      <trkpt lat="45.97021" lon="-1.34293">
        <ele>-5.1999998092651</ele>
        <time>2021-11-23T11:58:57.000Z</time>
      </trkpt>
      <trkpt lat="45.97004" lon="-1.34321">
        <ele>-5.1999998092651</ele>
        <time>2021-11-23T11:59:01.000Z</time>
      </trkpt>
      <trkpt lat="45.97002" lon="-1.34325">
        <ele>-5.1999998092651</ele>
        <time>2021-11-23T11:59:02.000Z</time>
      </trkpt>
      <trkpt lat="45.97001" lon="-1.34325">
        <ele>-5</ele>
        <time>2021-11-23T11:59:03.000Z</time>
      </trkpt>
      <trkpt lat="45.97001" lon="-1.34323">
        <ele>-5</ele>
        <time>2021-11-23T11:59:05.000Z</time>
      </trkpt>
      <trkpt lat="45.97004" lon="-1.3432">
        <ele>-5</ele>
        <time>2021-11-23T11:59:07.000Z</time>
      </trkpt>
      <trkpt lat="45.97005" lon="-1.34316">
        <ele>-4.8000001907349</ele>
        <time>2021-11-23T11:59:09.000Z</time>
      </trkpt>
      <trkpt lat="45.96996" lon="-1.34305">
        <ele>-4.8000001907349</ele>
        <time>2021-11-23T11:59:13.000Z</time>
      </trkpt>
      <trkpt lat="45.96981" lon="-1.34289">
        <ele>-5</ele>
        <time>2021-11-23T11:59:17.000Z</time>
      </trkpt>
      <trkpt lat="45.96976" lon="-1.34284">
        <ele>-5</ele>
        <time>2021-11-23T11:59:18.000Z</time>
      </trkpt>
      <trkpt lat="45.96972" lon="-1.34279">
        <ele>-5</ele>
        <time>2021-11-23T11:59:19.000Z</time>
      </trkpt>
      <trkpt lat="45.96954" lon="-1.34257">
        <ele>-5</ele>
        <time>2021-11-23T11:59:23.000Z</time>
      </trkpt>
      <trkpt lat="45.96919" lon="-1.3421">
        <ele>-4.4000000953674</ele>
        <time>2021-11-23T11:59:31.000Z</time>
      </trkpt>
      <trkpt lat="45.96882" lon="-1.34161">
        <ele>-3.4000000953674</ele>
        <time>2021-11-23T11:59:39.000Z</time>
      </trkpt>
      <trkpt lat="45.96872" lon="-1.34148">
        <ele>-3.2000000476837</ele>
        <time>2021-11-23T11:59:41.000Z</time>
      </trkpt>
      <trkpt lat="45.96837" lon="-1.34103">
        <ele>-3</ele>
        <time>2021-11-23T11:59:49.000Z</time>
      </trkpt>
      <trkpt lat="45.96807" lon="-1.34067">
        <ele>-2.7999999523163</ele>
        <time>2021-11-23T11:59:56.000Z</time>
      </trkpt>
      <trkpt lat="45.96793" lon="-1.34053">
        <ele>-2.7999999523163</ele>
        <time>2021-11-23T12:00:01.000Z</time>
      </trkpt>
      <trkpt lat="45.96791" lon="-1.34051">
        <ele>-2.7999999523163</ele>
        <time>2021-11-23T12:00:02.000Z</time>
      </trkpt>
      <trkpt lat="45.96789" lon="-1.34042">
        <ele>-2.7999999523163</ele>
        <time>2021-11-23T12:00:05.000Z</time>
      </trkpt>
      <trkpt lat="45.9679" lon="-1.34037">
        <ele>-3</ele>
        <time>2021-11-23T12:00:07.000Z</time>
      </trkpt>
      <trkpt lat="45.96791" lon="-1.34038">
        <ele>-3</ele>
        <time>2021-11-23T12:00:08.000Z</time>
      </trkpt>
      <trkpt lat="45.96788" lon="-1.34056">
        <ele>-3.4000000953674</ele>
        <time>2021-11-23T12:00:12.000Z</time>
      </trkpt>
      <trkpt lat="45.9678" lon="-1.34091">
        <ele>-4</ele>
        <time>2021-11-23T12:00:17.000Z</time>
      </trkpt>
      <trkpt lat="45.96776" lon="-1.34105">
        <ele>-4.4000000953674</ele>
        <time>2021-11-23T12:00:19.000Z</time>
      </trkpt>
      <trkpt lat="45.96764" lon="-1.34149">
        <ele>-5</ele>
        <time>2021-11-23T12:00:24.000Z</time>
      </trkpt>
      <trkpt lat="45.96747" lon="-1.34219">
        <ele>-5.1999998092651</ele>
        <time>2021-11-23T12:00:31.000Z</time>
      </trkpt>
      <trkpt lat="45.96742" lon="-1.34236">
        <ele>-5.4000000953674</ele>
        <time>2021-11-23T12:00:33.000Z</time>
      </trkpt>
      <trkpt lat="45.9674" lon="-1.34246">
        <ele>-5.4000000953674</ele>
        <time>2021-11-23T12:00:34.000Z</time>
      </trkpt>
      <trkpt lat="45.9673" lon="-1.34281">
        <ele>-5.4000000953674</ele>
        <time>2021-11-23T12:00:38.000Z</time>
      </trkpt>
      <trkpt lat="45.96719" lon="-1.34315">
        <ele>-5.1999998092651</ele>
        <time>2021-11-23T12:00:42.000Z</time>
      </trkpt>
      <trkpt lat="45.96712" lon="-1.34323">
        <ele>-5.1999998092651</ele>
        <time>2021-11-23T12:00:44.000Z</time>
      </trkpt>
      <trkpt lat="45.96702" lon="-1.34318">
        <ele>-5</ele>
        <time>2021-11-23T12:00:46.000Z</time>
      </trkpt>
      <trkpt lat="45.96694" lon="-1.34308">
        <ele>-5</ele>
        <time>2021-11-23T12:00:48.000Z</time>
      </trkpt>
      <trkpt lat="45.96682" lon="-1.34295">
        <ele>-5</ele>
        <time>2021-11-23T12:00:50.000Z</time>
      </trkpt>
      <trkpt lat="45.96654" lon="-1.34265">
        <ele>-5</ele>
        <time>2021-11-23T12:00:55.000Z</time>
      </trkpt>
      <trkpt lat="45.96605" lon="-1.34214">
        <ele>-4.4000000953674</ele>
        <time>2021-11-23T12:01:03.000Z</time>
      </trkpt>
      <trkpt lat="45.96569" lon="-1.34171">
        <ele>-3.2000000476837</ele>
        <time>2021-11-23T12:01:09.000Z</time>
      </trkpt>
      <trkpt lat="45.96562" lon="-1.34162">
        <ele>-3</ele>
        <time>2021-11-23T12:01:10.000Z</time>
      </trkpt>
      <trkpt lat="45.96533" lon="-1.34127">
        <ele>-2.2000000476837</ele>
        <time>2021-11-23T12:01:15.000Z</time>
      </trkpt>
      <trkpt lat="45.96516" lon="-1.34107">
        <ele>-1.7999999523163</ele>
        <time>2021-11-23T12:01:18.000Z</time>
      </trkpt>
      <trkpt lat="45.96482" lon="-1.3407">
        <ele>-1.3999999761581</ele>
        <time>2021-11-23T12:01:24.000Z</time>
      </trkpt>
      <trkpt lat="45.96465" lon="-1.34053">
        <ele>-1</ele>
        <time>2021-11-23T12:01:27.000Z</time>
      </trkpt>
      <trkpt lat="45.96434" lon="-1.3403">
        <ele>-0.60000002384186</ele>
        <time>2021-11-23T12:01:32.000Z</time>
      </trkpt>
      <trkpt lat="45.96382" lon="-1.33999">
        <ele>-0.20000000298023</ele>
        <time>2021-11-23T12:01:40.000Z</time>
      </trkpt>
      <trkpt lat="45.96367" lon="-1.3399">
        <ele>-0.20000000298023</ele>
        <time>2021-11-23T12:01:42.000Z</time>
      </trkpt>
      <trkpt lat="45.96317" lon="-1.33952">
        <ele>0.20000000298023</ele>
        <time>2021-11-23T12:01:50.000Z</time>
      </trkpt>
      <trkpt lat="45.96311" lon="-1.33945">
        <ele>0.20000000298023</ele>
        <time>2021-11-23T12:01:51.000Z</time>
      </trkpt>
      <trkpt lat="45.96278" lon="-1.33903">
        <ele>0.40000000596046</ele>
        <time>2021-11-23T12:01:57.000Z</time>
      </trkpt>
      <trkpt lat="45.96239" lon="-1.33843">
        <ele>0.60000002384186</ele>
        <time>2021-11-23T12:02:05.000Z</time>
      </trkpt>
      <trkpt lat="45.96199" lon="-1.33801">
        <ele>1.2000000476837</ele>
        <time>2021-11-23T12:02:12.000Z</time>
      </trkpt>
      <trkpt lat="45.96157" lon="-1.33758">
        <ele>1.6000000238419</ele>
        <time>2021-11-23T12:02:19.000Z</time>
      </trkpt>
      <trkpt lat="45.96111" lon="-1.33707">
        <ele>2</ele>
        <time>2021-11-23T12:02:27.000Z</time>
      </trkpt>
      <trkpt lat="45.96099" lon="-1.33695">
        <ele>2</ele>
        <time>2021-11-23T12:02:29.000Z</time>
      </trkpt>
      <trkpt lat="45.96055" lon="-1.33659">
        <ele>2.2000000476837</ele>
        <time>2021-11-23T12:02:36.000Z</time>
      </trkpt>
      <trkpt lat="45.96028" lon="-1.33644">
        <ele>2.4000000953674</ele>
        <time>2021-11-23T12:02:40.000Z</time>
      </trkpt>
      <trkpt lat="45.96021" lon="-1.33639">
        <ele>2.5999999046326</ele>
        <time>2021-11-23T12:02:41.000Z</time>
      </trkpt>
      <trkpt lat="45.95984" lon="-1.33601">
        <ele>2.7999999523163</ele>
        <time>2021-11-23T12:02:47.000Z</time>
      </trkpt>
      <trkpt lat="45.95937" lon="-1.33546">
        <ele>3</ele>
        <time>2021-11-23T12:02:55.000Z</time>
      </trkpt>
      <trkpt lat="45.95926" lon="-1.33531">
        <ele>3</ele>
        <time>2021-11-23T12:02:57.000Z</time>
      </trkpt>
      <trkpt lat="45.95888" lon="-1.3348">
        <ele>2.7999999523163</ele>
        <time>2021-11-23T12:03:04.000Z</time>
      </trkpt>
      <trkpt lat="45.95848" lon="-1.33418">
        <ele>2</ele>
        <time>2021-11-23T12:03:12.000Z</time>
      </trkpt>
      <trkpt lat="45.95816" lon="-1.3336">
        <ele>1.3999999761581</ele>
        <time>2021-11-23T12:03:19.000Z</time>
      </trkpt>
      <trkpt lat="45.95789" lon="-1.33313">
        <ele>1</ele>
        <time>2021-11-23T12:03:25.000Z</time>
      </trkpt>
      <trkpt lat="45.95752" lon="-1.33266">
        <ele>0.60000002384186</ele>
        <time>2021-11-23T12:03:32.000Z</time>
      </trkpt>
      <trkpt lat="45.9571" lon="-1.33209">
        <ele>0.80000001192093</ele>
        <time>2021-11-23T12:03:40.000Z</time>
      </trkpt>
      <trkpt lat="45.95678" lon="-1.33156">
        <ele>0.80000001192093</ele>
        <time>2021-11-23T12:03:47.000Z</time>
      </trkpt>
      <trkpt lat="45.95655" lon="-1.3312">
        <ele>0.60000002384186</ele>
        <time>2021-11-23T12:03:52.000Z</time>
      </trkpt>
      <trkpt lat="45.95631" lon="-1.33083">
        <ele>0.80000001192093</ele>
        <time>2021-11-23T12:03:57.000Z</time>
      </trkpt>
      <trkpt lat="45.95606" lon="-1.33034">
        <ele>0.60000002384186</ele>
        <time>2021-11-23T12:04:03.000Z</time>
      </trkpt>
      <trkpt lat="45.95603" lon="-1.33025">
        <ele>0.60000002384186</ele>
        <time>2021-11-23T12:04:04.000Z</time>
      </trkpt>
      <trkpt lat="45.95594" lon="-1.32999">
        <ele>0.40000000596046</ele>
        <time>2021-11-23T12:04:07.000Z</time>
      </trkpt>
      <trkpt lat="45.95591" lon="-1.32992">
        <ele>0.40000000596046</ele>
        <time>2021-11-23T12:04:08.000Z</time>
      </trkpt>
      <trkpt lat="45.95584" lon="-1.32978">
        <ele>0.20000000298023</ele>
        <time>2021-11-23T12:04:10.000Z</time>
      </trkpt>
      <trkpt lat="45.95576" lon="-1.32964">
        <ele>10</ele>
        <time>2021-11-23T12:04:12.000Z</time>
      </trkpt>
      <trkpt lat="45.9555" lon="-1.32922">
        <ele>10</ele>
        <time>2021-11-23T12:04:18.000Z</time>
      </trkpt>
      <trkpt lat="45.95516" lon="-1.32853">
        <ele>9.3</ele>
        <time>2021-11-23T12:04:26.000Z</time>
      </trkpt>
      <trkpt lat="45.95485" lon="-1.32782">
        <ele>-0.40000000596046</ele>
        <time>2021-11-23T12:04:34.000Z</time>
      </trkpt>
      <trkpt lat="45.95481" lon="-1.32773">
        <ele>-0.40000000596046</ele>
        <time>2021-11-23T12:04:35.000Z</time>
      </trkpt>
      <trkpt lat="45.95474" lon="-1.32756">
        <ele>-0.40000000596046</ele>
        <time>2021-11-23T12:04:37.000Z</time>
      </trkpt>
      <trkpt lat="45.95449" lon="-1.32696">
        <ele>8.9</ele>
        <time>2021-11-23T12:04:44.000Z</time>
      </trkpt>
      <trkpt lat="45.95433" lon="-1.32652">
        <ele>1</ele>
        <time>2021-11-23T12:04:49.000Z</time>
      </trkpt>
      <trkpt lat="45.95429" lon="-1.32643">
        <ele>1.2000000476837</ele>
        <time>2021-11-23T12:04:50.000Z</time>
      </trkpt>
      <trkpt lat="45.95404" lon="-1.32581">
        <ele>2</ele>
        <time>2021-11-23T12:04:57.000Z</time>
      </trkpt>
      <trkpt lat="45.954" lon="-1.32562">
        <ele>2</ele>
        <time>2021-11-23T12:04:59.000Z</time>
      </trkpt>
      <trkpt lat="45.95399" lon="-1.32552">
        <ele>2.2000000476837</ele>
        <time>2021-11-23T12:05:00.000Z</time>
      </trkpt>
      <trkpt lat="45.95395" lon="-1.32509">
        <ele>2.4000000953674</ele>
        <time>2021-11-23T12:05:04.000Z</time>
      </trkpt>
      <trkpt lat="45.95393" lon="-1.32499">
        <ele>2.5999999046326</ele>
        <time>2021-11-23T12:05:05.000Z</time>
      </trkpt>
      <trkpt lat="45.95384" lon="-1.3247">
        <ele>2.7999999523163</ele>
        <time>2021-11-23T12:05:08.000Z</time>
      </trkpt>
      <trkpt lat="45.95357" lon="-1.32397">
        <ele>2</ele>
        <time>2021-11-23T12:05:16.000Z</time>
      </trkpt>
      <trkpt lat="45.95353" lon="-1.32388">
        <ele>1.7999999523163</ele>
        <time>2021-11-23T12:05:17.000Z</time>
      </trkpt>
      <trkpt lat="45.9534" lon="-1.32341">
        <ele>1.2000000476837</ele>
        <time>2021-11-23T12:05:22.000Z</time>
      </trkpt>
      <trkpt lat="45.95336" lon="-1.32322">
        <ele>1</ele>
        <time>2021-11-23T12:05:24.000Z</time>
      </trkpt>
      <trkpt lat="45.95314" lon="-1.32251">
        <ele>0.20000000298023</ele>
        <time>2021-11-23T12:05:32.000Z</time>
      </trkpt>
      <trkpt lat="45.95294" lon="-1.32202">
        <ele>8</ele>
        <time>2021-11-23T12:05:38.000Z</time>
      </trkpt>
      <trkpt lat="45.95269" lon="-1.32145">
        <ele>-0.20000000298023</ele>
        <time>2021-11-23T12:05:45.000Z</time>
      </trkpt>
      <trkpt lat="45.95255" lon="-1.32087">
        <ele>-0.40000000596046</ele>
        <time>2021-11-23T12:05:51.000Z</time>
      </trkpt>
      <trkpt lat="45.95247" lon="-1.32015">
        <ele>-0.20000000298023</ele>
        <time>2021-11-23T12:05:58.000Z</time>
      </trkpt>
      <trkpt lat="45.95245" lon="-1.31984">
        <ele>6.4</ele>
        <time>2021-11-23T12:06:01.000Z</time>
      </trkpt>
      <trkpt lat="45.95245" lon="-1.31945">
        <ele>6</ele>
        <time>2021-11-23T12:06:05.000Z</time>
      </trkpt>
      <trkpt lat="45.95243" lon="-1.31912">
        <ele>6</ele>
        <time>2021-11-23T12:06:09.000Z</time>
      </trkpt>
      <trkpt lat="45.95241" lon="-1.31905">
        <ele>6</ele>
        <time>2021-11-23T12:06:10.000Z</time>
      </trkpt>
      <trkpt lat="45.95237" lon="-1.31899">
        <ele>-0.20000000298023</ele>
        <time>2021-11-23T12:06:11.000Z</time>
      </trkpt>
      <trkpt lat="45.95225" lon="-1.31893">
        <ele>-0.40000000596046</ele>
        <time>2021-11-23T12:06:13.000Z</time>
      </trkpt>
      <trkpt lat="45.95176" lon="-1.31878">
        <ele>-0.60000002384186</ele>
        <time>2021-11-23T12:06:20.000Z</time>
      </trkpt>
      <trkpt lat="45.95163" lon="-1.31873">
        <ele>-0.60000002384186</ele>
        <time>2021-11-23T12:06:22.000Z</time>
      </trkpt>
      <trkpt lat="45.95127" lon="-1.31861">
        <ele>-0.60000002384186</ele>
        <time>2021-11-23T12:06:27.000Z</time>
      </trkpt>
      <trkpt lat="45.95072" lon="-1.31852">
        <ele>-0.80000001192093</ele>
        <time>2021-11-23T12:06:34.000Z</time>
      </trkpt>
      <trkpt lat="45.95031" lon="-1.31843">
        <ele>-1.6000000238419</ele>
        <time>2021-11-23T12:06:39.000Z</time>
      </trkpt>
      <trkpt lat="45.95025" lon="-1.3184">
        <ele>-1.7999999523163</ele>
        <time>2021-11-23T12:06:40.000Z</time>
      </trkpt>
      <trkpt lat="45.95015" lon="-1.31835">
        <ele>-2</ele>
        <time>2021-11-23T12:06:42.000Z</time>
      </trkpt>
      <trkpt lat="45.95011" lon="-1.31828">
        <ele>-2.4000000953674</ele>
        <time>2021-11-23T12:06:45.000Z</time>
      </trkpt>
      <trkpt lat="45.95011" lon="-1.31827">
        <ele>-2.5999999046326</ele>
        <time>2021-11-23T12:06:46.000Z</time>
      </trkpt>
      <trkpt lat="45.95011" lon="-1.31826">
        <ele>-2.7999999523163</ele>
        <time>2021-11-23T12:06:48.000Z</time>
      </trkpt>
      <trkpt lat="45.95016" lon="-1.31819">
        <ele>-4</ele>
        <time>2021-11-23T12:06:57.000Z</time>
      </trkpt>
      <trkpt lat="45.95018" lon="-1.31815">
        <ele>-4.1999998092651</ele>
        <time>2021-11-23T12:06:58.000Z</time>
      </trkpt>
      <trkpt lat="45.9502" lon="-1.3181">
        <ele>-4.4000000953674</ele>
        <time>2021-11-23T12:06:59.000Z</time>
      </trkpt>
      <trkpt lat="45.95026" lon="-1.31789">
        <ele>-4.8000001907349</ele>
        <time>2021-11-23T12:07:02.000Z</time>
      </trkpt>
      <trkpt lat="45.95029" lon="-1.31772">
        <ele>-5.1999998092651</ele>
        <time>2021-11-23T12:07:04.000Z</time>
      </trkpt>
      <trkpt lat="45.95036" lon="-1.31745">
        <ele>-5.4000000953674</ele>
        <time>2021-11-23T12:07:07.000Z</time>
      </trkpt>
      <trkpt lat="45.95044" lon="-1.31718">
        <ele>-5.5999999046326</ele>
        <time>2021-11-23T12:07:10.000Z</time>
      </trkpt>
      <trkpt lat="45.95052" lon="-1.31702">
        <ele>-5.5999999046326</ele>
        <time>2021-11-23T12:07:12.000Z</time>
      </trkpt>
      <trkpt lat="45.95075" lon="-1.31668">
        <ele>-5.5999999046326</ele>
        <time>2021-11-23T12:07:17.000Z</time>
      </trkpt>
      <trkpt lat="45.95079" lon="-1.31659">
        <ele>-5.5999999046326</ele>
        <time>2021-11-23T12:07:18.000Z</time>
      </trkpt>
      <trkpt lat="45.95085" lon="-1.31632">
        <ele>-5.4000000953674</ele>
        <time>2021-11-23T12:07:21.000Z</time>
      </trkpt>
      <trkpt lat="45.95091" lon="-1.31617">
        <ele>-5.4000000953674</ele>
        <time>2021-11-23T12:07:23.000Z</time>
      </trkpt>
      <trkpt lat="45.951" lon="-1.31609">
        <ele>-5.1999998092651</ele>
        <time>2021-11-23T12:07:25.000Z</time>
      </trkpt>
      <trkpt lat="45.95106" lon="-1.31606">
        <ele>-5.1999998092651</ele>
        <time>2021-11-23T12:07:26.000Z</time>
      </trkpt>
      <trkpt lat="45.9511" lon="-1.31601">
        <ele>-5.1999998092651</ele>
        <time>2021-11-23T12:07:27.000Z</time>
      </trkpt>
      <trkpt lat="45.95113" lon="-1.31593">
        <ele>-5</ele>
        <time>2021-11-23T12:07:28.000Z</time>
      </trkpt>
      <trkpt lat="45.95121" lon="-1.31541">
        <ele>-4.8000001907349</ele>
        <time>2021-11-23T12:07:34.000Z</time>
      </trkpt>
      <trkpt lat="45.95124" lon="-1.31524">
        <ele>-4.5999999046326</ele>
        <time>2021-11-23T12:07:36.000Z</time>
      </trkpt>
      <trkpt lat="45.95127" lon="-1.31507">
        <ele>-4.4000000953674</ele>
        <time>2021-11-23T12:07:38.000Z</time>
      </trkpt>
      <trkpt lat="45.95129" lon="-1.31498">
        <ele>-4.1999998092651</ele>
        <time>2021-11-23T12:07:39.000Z</time>
      </trkpt>
      <trkpt lat="45.9513" lon="-1.31489">
        <ele>-4</ele>
        <time>2021-11-23T12:07:40.000Z</time>
      </trkpt>
      <trkpt lat="45.9513" lon="-1.3148">
        <ele>-3.7999999523163</ele>
        <time>2021-11-23T12:07:41.000Z</time>
      </trkpt>
      <trkpt lat="45.9513" lon="-1.31451">
        <ele>-3.2000000476837</ele>
        <time>2021-11-23T12:07:44.000Z</time>
      </trkpt>
      <trkpt lat="45.95128" lon="-1.31422">
        <ele>-3</ele>
        <time>2021-11-23T12:07:47.000Z</time>
      </trkpt>
      <trkpt lat="45.95128" lon="-1.31392">
        <ele>-2.7999999523163</ele>
        <time>2021-11-23T12:07:50.000Z</time>
      </trkpt>
      <trkpt lat="45.95123" lon="-1.31372">
        <ele>-2.7999999523163</ele>
        <time>2021-11-23T12:07:52.000Z</time>
      </trkpt>
      <trkpt lat="45.95118" lon="-1.31355">
        <ele>-3</ele>
        <time>2021-11-23T12:07:54.000Z</time>
      </trkpt>
      <trkpt lat="45.95116" lon="-1.31336">
        <ele>-3</ele>
        <time>2021-11-23T12:07:56.000Z</time>
      </trkpt>
      <trkpt lat="45.95114" lon="-1.31307">
        <ele>-3.2000000476837</ele>
        <time>2021-11-23T12:07:59.000Z</time>
      </trkpt>
      <trkpt lat="45.95113" lon="-1.31288">
        <ele>-3.4000000953674</ele>
        <time>2021-11-23T12:08:01.000Z</time>
      </trkpt>
      <trkpt lat="45.95111" lon="-1.31257">
        <ele>-3.7999999523163</ele>
        <time>2021-11-23T12:08:04.000Z</time>
      </trkpt>
      <trkpt lat="45.95111" lon="-1.31236">
        <ele>-4</ele>
        <time>2021-11-23T12:08:06.000Z</time>
      </trkpt>
      <trkpt lat="45.9511" lon="-1.31217">
        <ele>-3.7999999523163</ele>
        <time>2021-11-23T12:08:08.000Z</time>
      </trkpt>
      <trkpt lat="45.95109" lon="-1.31207">
        <ele>-3.7999999523163</ele>
        <time>2021-11-23T12:08:09.000Z</time>
      </trkpt>
      <trkpt lat="45.95103" lon="-1.31165">
        <ele>-4.1999998092651</ele>
        <time>2021-11-23T12:08:13.000Z</time>
      </trkpt>
      <trkpt lat="45.95101" lon="-1.31156">
        <ele>-4.1999998092651</ele>
        <time>2021-11-23T12:08:14.000Z</time>
      </trkpt>
      <trkpt lat="45.951" lon="-1.31147">
        <ele>-4.4000000953674</ele>
        <time>2021-11-23T12:08:15.000Z</time>
      </trkpt>
      <trkpt lat="45.95102" lon="-1.31128">
        <ele>-4.5999999046326</ele>
        <time>2021-11-23T12:08:17.000Z</time>
      </trkpt>
      <trkpt lat="45.95121" lon="-1.31065">
        <ele>-5</ele>
        <time>2021-11-23T12:08:24.000Z</time>
      </trkpt>
      <trkpt lat="45.95123" lon="-1.31056">
        <ele>-5</ele>
        <time>2021-11-23T12:08:25.000Z</time>
      </trkpt>
      <trkpt lat="45.95142" lon="-1.30994">
        <ele>-5</ele>
        <time>2021-11-23T12:08:32.000Z</time>
      </trkpt>
      <trkpt lat="45.95152" lon="-1.30981">
        <ele>-5.1999998092651</ele>
        <time>2021-11-23T12:08:34.000Z</time>
      </trkpt>
      <trkpt lat="45.95159" lon="-1.30976">
        <ele>-5.1999998092651</ele>
        <time>2021-11-23T12:08:35.000Z</time>
      </trkpt>
      <trkpt lat="45.952" lon="-1.30948">
        <ele>-5</ele>
        <time>2021-11-23T12:08:42.000Z</time>
      </trkpt>
      <trkpt lat="45.95205" lon="-1.30942">
        <ele>-5</ele>
        <time>2021-11-23T12:08:43.000Z</time>
      </trkpt>
      <trkpt lat="45.95215" lon="-1.30928">
        <ele>-5</ele>
        <time>2021-11-23T12:08:45.000Z</time>
      </trkpt>
      <trkpt lat="45.95218" lon="-1.3092">
        <ele>-5</ele>
        <time>2021-11-23T12:08:46.000Z</time>
      </trkpt>
      <trkpt lat="45.95229" lon="-1.30877">
        <ele>-5</ele>
        <time>2021-11-23T12:08:51.000Z</time>
      </trkpt>
      <trkpt lat="45.95243" lon="-1.30806">
        <ele>-4.5999999046326</ele>
        <time>2021-11-23T12:08:59.000Z</time>
      </trkpt>
      <trkpt lat="45.95246" lon="-1.30771">
        <ele>-4.1999998092651</ele>
        <time>2021-11-23T12:09:03.000Z</time>
      </trkpt>
      <trkpt lat="45.95252" lon="-1.30755">
        <ele>-4.1999998092651</ele>
        <time>2021-11-23T12:09:05.000Z</time>
      </trkpt>
      <trkpt lat="45.95262" lon="-1.30748">
        <ele>-4.1999998092651</ele>
        <time>2021-11-23T12:09:07.000Z</time>
      </trkpt>
      <trkpt lat="45.95284" lon="-1.30754">
        <ele>-4.1999998092651</ele>
        <time>2021-11-23T12:09:11.000Z</time>
      </trkpt>
      <trkpt lat="45.95301" lon="-1.3076">
        <ele>-4.5999999046326</ele>
        <time>2021-11-23T12:09:14.000Z</time>
      </trkpt>
      <trkpt lat="45.95318" lon="-1.30769">
        <ele>-4.8000001907349</ele>
        <time>2021-11-23T12:09:17.000Z</time>
      </trkpt>
      <trkpt lat="45.95355" lon="-1.30779">
        <ele>-4.8000001907349</ele>
        <time>2021-11-23T12:09:23.000Z</time>
      </trkpt>
      <trkpt lat="45.95393" lon="-1.30774">
        <ele>-4.8000001907349</ele>
        <time>2021-11-23T12:09:29.000Z</time>
      </trkpt>
      <trkpt lat="45.95399" lon="-1.30771">
        <ele>-4.8000001907349</ele>
        <time>2021-11-23T12:09:30.000Z</time>
      </trkpt>
      <trkpt lat="45.95411" lon="-1.30764">
        <ele>-4.8000001907349</ele>
        <time>2021-11-23T12:09:32.000Z</time>
      </trkpt>
      <trkpt lat="45.95417" lon="-1.30758">
        <ele>-4.8000001907349</ele>
        <time>2021-11-23T12:09:33.000Z</time>
      </trkpt>
      <trkpt lat="45.95436" lon="-1.30735">
        <ele>-4.8000001907349</ele>
        <time>2021-11-23T12:09:37.000Z</time>
      </trkpt>
      <trkpt lat="45.95443" lon="-1.3072">
        <ele>-4.5999999046326</ele>
        <time>2021-11-23T12:09:39.000Z</time>
      </trkpt>
      <trkpt lat="45.95453" lon="-1.30677">
        <ele>-4.8000001907349</ele>
        <time>2021-11-23T12:09:44.000Z</time>
      </trkpt>
      <trkpt lat="45.95454" lon="-1.30669">
        <ele>-4.5999999046326</ele>
        <time>2021-11-23T12:09:45.000Z</time>
      </trkpt>
      <trkpt lat="45.95455" lon="-1.3066">
        <ele>-4.5999999046326</ele>
        <time>2021-11-23T12:09:46.000Z</time>
      </trkpt>
      <trkpt lat="45.95455" lon="-1.30642">
        <ele>-4.5999999046326</ele>
        <time>2021-11-23T12:09:48.000Z</time>
      </trkpt>
      <trkpt lat="45.95454" lon="-1.30634">
        <ele>-4.5999999046326</ele>
        <time>2021-11-23T12:09:49.000Z</time>
      </trkpt>
      <trkpt lat="45.95452" lon="-1.30626">
        <ele>-4.5999999046326</ele>
        <time>2021-11-23T12:09:50.000Z</time>
      </trkpt>
      <trkpt lat="45.95448" lon="-1.30612">
        <ele>-4.4000000953674</ele>
        <time>2021-11-23T12:09:52.000Z</time>
      </trkpt>
      <trkpt lat="45.95445" lon="-1.30606">
        <ele>-4.4000000953674</ele>
        <time>2021-11-23T12:09:53.000Z</time>
      </trkpt>
      <trkpt lat="45.95437" lon="-1.30584">
        <ele>-4.4000000953674</ele>
        <time>2021-11-23T12:09:56.000Z</time>
      </trkpt>
      <trkpt lat="45.95435" lon="-1.30567">
        <ele>-4.4000000953674</ele>
        <time>2021-11-23T12:09:58.000Z</time>
      </trkpt>
      <trkpt lat="45.95441" lon="-1.30552">
        <ele>-4.4000000953674</ele>
        <time>2021-11-23T12:10:00.000Z</time>
      </trkpt>
      <trkpt lat="45.95445" lon="-1.30546">
        <ele>-4.4000000953674</ele>
        <time>2021-11-23T12:10:01.000Z</time>
      </trkpt>
      <trkpt lat="45.95451" lon="-1.3054">
        <ele>-4.4000000953674</ele>
        <time>2021-11-23T12:10:02.000Z</time>
      </trkpt>
      <trkpt lat="45.95463" lon="-1.30532">
        <ele>-4.4000000953674</ele>
        <time>2021-11-23T12:10:04.000Z</time>
      </trkpt>
      <trkpt lat="45.95469" lon="-1.3053">
        <ele>-4.4000000953674</ele>
        <time>2021-11-23T12:10:05.000Z</time>
      </trkpt>
      <trkpt lat="45.95515" lon="-1.30512">
        <ele>-4.4000000953674</ele>
        <time>2021-11-23T12:10:12.000Z</time>
      </trkpt>
      <trkpt lat="45.9556" lon="-1.30495">
        <ele>-4.4000000953674</ele>
        <time>2021-11-23T12:10:20.000Z</time>
      </trkpt>
      <trkpt lat="45.95619" lon="-1.30471">
        <ele>-4.5999999046326</ele>
        <time>2021-11-23T12:10:29.000Z</time>
      </trkpt>
      <trkpt lat="45.95671" lon="-1.30451">
        <ele>-4</ele>
        <time>2021-11-23T12:10:37.000Z</time>
      </trkpt>
      <trkpt lat="45.95691" lon="-1.30443">
        <ele>-4.1999998092651</ele>
        <time>2021-11-23T12:10:40.000Z</time>
      </trkpt>
      <trkpt lat="45.95743" lon="-1.30421">
        <ele>-4.1999998092651</ele>
        <time>2021-11-23T12:10:48.000Z</time>
      </trkpt>
      <trkpt lat="45.958" lon="-1.30398">
        <ele>-4.4000000953674</ele>
        <time>2021-11-23T12:10:57.000Z</time>
      </trkpt>
      <trkpt lat="45.95843" lon="-1.30382">
        <ele>-4.5999999046326</ele>
        <time>2021-11-23T12:11:04.000Z</time>
      </trkpt>
      <trkpt lat="45.95895" lon="-1.30362">
        <ele>-4</ele>
        <time>2021-11-23T12:11:12.000Z</time>
      </trkpt>
      <trkpt lat="45.95946" lon="-1.30342">
        <ele>-3.5999999046326</ele>
        <time>2021-11-23T12:11:20.000Z</time>
      </trkpt>
      <trkpt lat="45.96004" lon="-1.30319">
        <ele>-3.7999999523163</ele>
        <time>2021-11-23T12:11:29.000Z</time>
      </trkpt>
      <trkpt lat="45.9601" lon="-1.30317">
        <ele>-4</ele>
        <time>2021-11-23T12:11:30.000Z</time>
      </trkpt>
      <trkpt lat="45.96061" lon="-1.30298">
        <ele>-4.1999998092651</ele>
        <time>2021-11-23T12:11:38.000Z</time>
      </trkpt>
      <trkpt lat="45.96116" lon="-1.30274">
        <ele>-5</ele>
        <time>2021-11-23T12:11:47.000Z</time>
      </trkpt>
      <trkpt lat="45.96122" lon="-1.30272">
        <ele>-5</ele>
        <time>2021-11-23T12:11:48.000Z</time>
      </trkpt>
      <trkpt lat="45.96179" lon="-1.3025">
        <ele>-5</ele>
        <time>2021-11-23T12:11:57.000Z</time>
      </trkpt>
      <trkpt lat="45.96185" lon="-1.30247">
        <ele>-5</ele>
        <time>2021-11-23T12:11:58.000Z</time>
      </trkpt>
      <trkpt lat="45.9624" lon="-1.30225">
        <ele>-5</ele>
        <time>2021-11-23T12:12:07.000Z</time>
      </trkpt>
      <trkpt lat="45.96292" lon="-1.30205">
        <ele>-4.8000001907349</ele>
        <time>2021-11-23T12:12:16.000Z</time>
      </trkpt>
      <trkpt lat="45.96299" lon="-1.30202">
        <ele>-4.8000001907349</ele>
        <time>2021-11-23T12:12:17.000Z</time>
      </trkpt>
      <trkpt lat="45.96352" lon="-1.3018">
        <ele>-5</ele>
        <time>2021-11-23T12:12:26.000Z</time>
      </trkpt>
      <trkpt lat="45.96358" lon="-1.30178">
        <ele>-5.1999998092651</ele>
        <time>2021-11-23T12:12:27.000Z</time>
      </trkpt>
      <trkpt lat="45.96395" lon="-1.30158">
        <ele>-5</ele>
        <time>2021-11-23T12:12:34.000Z</time>
      </trkpt>
      <trkpt lat="45.96433" lon="-1.30137">
        <ele>-5</ele>
        <time>2021-11-23T12:12:42.000Z</time>
      </trkpt>
      <trkpt lat="45.96452" lon="-1.30127">
        <ele>-5.4000000953674</ele>
        <time>2021-11-23T12:12:46.000Z</time>
      </trkpt>
      <trkpt lat="45.9646" lon="-1.30122">
        <ele>-5.4000000953674</ele>
        <time>2021-11-23T12:12:48.000Z</time>
      </trkpt>
      <trkpt lat="45.9647" lon="-1.30118">
        <ele>-5.5999999046326</ele>
        <time>2021-11-23T12:12:50.000Z</time>
      </trkpt>
      <trkpt lat="45.96474" lon="-1.30116">
        <ele>-5.5999999046326</ele>
        <time>2021-11-23T12:12:51.000Z</time>
      </trkpt>
      <trkpt lat="45.96492" lon="-1.30105">
        <ele>-5.5999999046326</ele>
        <time>2021-11-23T12:12:55.000Z</time>
      </trkpt>
      <trkpt lat="45.96497" lon="-1.30103">
        <ele>-5.8000001907349</ele>
        <time>2021-11-23T12:12:56.000Z</time>
      </trkpt>
      <trkpt lat="45.96525" lon="-1.30088">
        <ele>-5.8000001907349</ele>
        <time>2021-11-23T12:13:02.000Z</time>
      </trkpt>
      <trkpt lat="45.96535" lon="-1.30083">
        <ele>-5.8000001907349</ele>
        <time>2021-11-23T12:13:04.000Z</time>
      </trkpt>
      <trkpt lat="45.96549" lon="-1.30075">
        <ele>-5.8000001907349</ele>
        <time>2021-11-23T12:13:07.000Z</time>
      </trkpt>
      <trkpt lat="45.96593" lon="-1.30051">
        <ele>-5.8000001907349</ele>
        <time>2021-11-23T12:13:16.000Z</time>
      </trkpt>
      <trkpt lat="45.96648" lon="-1.30022">
        <ele>-5.5999999046326</ele>
        <time>2021-11-23T12:13:26.000Z</time>
      </trkpt>
      <trkpt lat="45.96676" lon="-1.3001">
        <ele>-5.8000001907349</ele>
        <time>2021-11-23T12:13:31.000Z</time>
      </trkpt>
      <trkpt lat="45.96687" lon="-1.30003">
        <ele>-5.8000001907349</ele>
        <time>2021-11-23T12:13:33.000Z</time>
      </trkpt>
      <trkpt lat="45.96729" lon="-1.29974">
        <ele>-5.5999999046326</ele>
        <time>2021-11-23T12:13:41.000Z</time>
      </trkpt>
      <trkpt lat="45.96744" lon="-1.29967">
        <ele>-5.4000000953674</ele>
        <time>2021-11-23T12:13:44.000Z</time>
      </trkpt>
      <trkpt lat="45.96751" lon="-1.29957">
        <ele>-5.4000000953674</ele>
        <time>2021-11-23T12:13:46.000Z</time>
      </trkpt>
      <trkpt lat="45.96753" lon="-1.29934">
        <ele>-5.4000000953674</ele>
        <time>2021-11-23T12:13:49.000Z</time>
      </trkpt>
      <trkpt lat="45.96759" lon="-1.2986">
        <ele>-5.4000000953674</ele>
        <time>2021-11-23T12:13:58.000Z</time>
      </trkpt>
      <trkpt lat="45.96763" lon="-1.29844">
        <ele>-5.4000000953674</ele>
        <time>2021-11-23T12:14:00.000Z</time>
      </trkpt>
      <trkpt lat="45.96767" lon="-1.29839">
        <ele>-5.5999999046326</ele>
        <time>2021-11-23T12:14:01.000Z</time>
      </trkpt>
      <trkpt lat="45.96772" lon="-1.29836">
        <ele>-5.5999999046326</ele>
        <time>2021-11-23T12:14:02.000Z</time>
      </trkpt>
      <trkpt lat="45.96789" lon="-1.29831">
        <ele>-5.5999999046326</ele>
        <time>2021-11-23T12:14:05.000Z</time>
      </trkpt>
      <trkpt lat="45.96831" lon="-1.29823">
        <ele>-5.4000000953674</ele>
        <time>2021-11-23T12:14:12.000Z</time>
      </trkpt>
      <trkpt lat="45.9685" lon="-1.29822">
        <ele>-4.8000001907349</ele>
        <time>2021-11-23T12:14:15.000Z</time>
      </trkpt>
      <trkpt lat="45.9687" lon="-1.29823">
        <ele>-4.4000000953674</ele>
        <time>2021-11-23T12:14:18.000Z</time>
      </trkpt>
      <trkpt lat="45.96908" lon="-1.29827">
        <ele>-4</ele>
        <time>2021-11-23T12:14:24.000Z</time>
      </trkpt>
      <trkpt lat="45.96932" lon="-1.29827">
        <ele>-3.5999999046326</ele>
        <time>2021-11-23T12:14:28.000Z</time>
      </trkpt>
      <trkpt lat="45.96937" lon="-1.29828">
        <ele>-3.5999999046326</ele>
        <time>2021-11-23T12:14:29.000Z</time>
      </trkpt>
      <trkpt lat="45.9694" lon="-1.29833">
        <ele>-3.4000000953674</ele>
        <time>2021-11-23T12:14:30.000Z</time>
      </trkpt>
      <trkpt lat="45.96939" lon="-1.29853">
        <ele>-3.4000000953674</ele>
        <time>2021-11-23T12:14:33.000Z</time>
      </trkpt>
      <trkpt lat="45.96932" lon="-1.29899">
        <ele>-3.4000000953674</ele>
        <time>2021-11-23T12:14:39.000Z</time>
      </trkpt>
      <trkpt lat="45.96924" lon="-1.29954">
        <ele>-3.4000000953674</ele>
        <time>2021-11-23T12:14:45.000Z</time>
      </trkpt>
      <trkpt lat="45.96923" lon="-1.30002">
        <ele>-3.7999999523163</ele>
        <time>2021-11-23T12:14:50.000Z</time>
      </trkpt>
      <trkpt lat="45.96921" lon="-1.30022">
        <ele>-4</ele>
        <time>2021-11-23T12:14:52.000Z</time>
      </trkpt>
      <trkpt lat="45.96916" lon="-1.30049">
        <ele>-4.1999998092651</ele>
        <time>2021-11-23T12:14:55.000Z</time>
      </trkpt>
      <trkpt lat="45.96911" lon="-1.30066">
        <ele>-4.8000001907349</ele>
        <time>2021-11-23T12:14:57.000Z</time>
      </trkpt>
      <trkpt lat="45.96904" lon="-1.30082">
        <ele>-5</ele>
        <time>2021-11-23T12:14:59.000Z</time>
      </trkpt>
      <trkpt lat="45.96902" lon="-1.30092">
        <ele>-5</ele>
        <time>2021-11-23T12:15:00.000Z</time>
      </trkpt>
      <trkpt lat="45.96898" lon="-1.30111">
        <ele>-5</ele>
        <time>2021-11-23T12:15:02.000Z</time>
      </trkpt>
      <trkpt lat="45.96885" lon="-1.30157">
        <ele>-5.4000000953674</ele>
        <time>2021-11-23T12:15:07.000Z</time>
      </trkpt>
      <trkpt lat="45.96871" lon="-1.30201">
        <ele>-6</ele>
        <time>2021-11-23T12:15:12.000Z</time>
      </trkpt>
      <trkpt lat="45.9687" lon="-1.3021">
        <ele>-6.1999998092651</ele>
        <time>2021-11-23T12:15:13.000Z</time>
      </trkpt>
      <trkpt lat="45.96869" lon="-1.3022">
        <ele>-6.4000000953674</ele>
        <time>2021-11-23T12:15:14.000Z</time>
      </trkpt>
      <trkpt lat="45.96869" lon="-1.30229">
        <ele>-6.5999999046326</ele>
        <time>2021-11-23T12:15:15.000Z</time>
      </trkpt>
      <trkpt lat="45.96871" lon="-1.30259">
        <ele>-6.8000001907349</ele>
        <time>2021-11-23T12:15:18.000Z</time>
      </trkpt>
      <trkpt lat="45.96872" lon="-1.30278">
        <ele>-7</ele>
        <time>2021-11-23T12:15:20.000Z</time>
      </trkpt>
      <trkpt lat="45.96875" lon="-1.30308">
        <ele>-7.8000001907349</ele>
        <time>2021-11-23T12:15:23.000Z</time>
      </trkpt>
      <trkpt lat="45.96875" lon="-1.30318">
        <ele>-8</ele>
        <time>2021-11-23T12:15:24.000Z</time>
      </trkpt>
      <trkpt lat="45.96875" lon="-1.30328">
        <ele>-8.1999998092651</ele>
        <time>2021-11-23T12:15:25.000Z</time>
      </trkpt>
      <trkpt lat="45.9688" lon="-1.30415">
        <ele>-9</ele>
        <time>2021-11-23T12:15:33.000Z</time>
      </trkpt>
      <trkpt lat="45.96884" lon="-1.30475">
        <ele>-9.1999998092651</ele>
        <time>2021-11-23T12:15:39.000Z</time>
      </trkpt>
      <trkpt lat="45.96885" lon="-1.30496">
        <ele>-9.1999998092651</ele>
        <time>2021-11-23T12:15:41.000Z</time>
      </trkpt>
      <trkpt lat="45.96884" lon="-1.30523">
        <ele>-9.1999998092651</ele>
        <time>2021-11-23T12:15:44.000Z</time>
      </trkpt>
      <trkpt lat="45.96884" lon="-1.30551">
        <ele>-9.3999996185303</ele>
        <time>2021-11-23T12:15:47.000Z</time>
      </trkpt>
      <trkpt lat="45.96885" lon="-1.30577">
        <ele>-10</ele>
        <time>2021-11-23T12:15:50.000Z</time>
      </trkpt>
      <trkpt lat="45.96887" lon="-1.30595">
        <ele>-10</ele>
        <time>2021-11-23T12:15:52.000Z</time>
      </trkpt>
      <trkpt lat="45.96889" lon="-1.30613">
        <ele>-10</ele>
        <time>2021-11-23T12:15:54.000Z</time>
      </trkpt>
      <trkpt lat="45.96894" lon="-1.3063">
        <ele>-10</ele>
        <time>2021-11-23T12:15:56.000Z</time>
      </trkpt>
      <trkpt lat="45.96902" lon="-1.30645">
        <ele>-9.6000003814697</ele>
        <time>2021-11-23T12:15:58.000Z</time>
      </trkpt>
      <trkpt lat="45.96911" lon="-1.30655">
        <ele>-9.3999996185303</ele>
        <time>2021-11-23T12:16:00.000Z</time>
      </trkpt>
      <trkpt lat="45.96944" lon="-1.30676">
        <ele>-8.8000001907349</ele>
        <time>2021-11-23T12:16:06.000Z</time>
      </trkpt>
      <trkpt lat="45.9696" lon="-1.30684">
        <ele>-8.8000001907349</ele>
        <time>2021-11-23T12:16:09.000Z</time>
      </trkpt>
      <trkpt lat="45.96976" lon="-1.30692">
        <ele>-8.3999996185303</ele>
        <time>2021-11-23T12:16:12.000Z</time>
      </trkpt>
      <trkpt lat="45.96981" lon="-1.30695">
        <ele>-8.1999998092651</ele>
        <time>2021-11-23T12:16:13.000Z</time>
      </trkpt>
      <trkpt lat="45.97003" lon="-1.3071">
        <ele>-7.8000001907349</ele>
        <time>2021-11-23T12:16:17.000Z</time>
      </trkpt>
      <trkpt lat="45.97029" lon="-1.30737">
        <ele>-7.5999999046326</ele>
        <time>2021-11-23T12:16:22.000Z</time>
      </trkpt>
      <trkpt lat="45.97054" lon="-1.30765">
        <ele>-7.5999999046326</ele>
        <time>2021-11-23T12:16:27.000Z</time>
      </trkpt>
      <trkpt lat="45.97063" lon="-1.30777">
        <ele>-7.5999999046326</ele>
        <time>2021-11-23T12:16:29.000Z</time>
      </trkpt>
      <trkpt lat="45.97083" lon="-1.308">
        <ele>-8</ele>
        <time>2021-11-23T12:16:33.000Z</time>
      </trkpt>
      <trkpt lat="45.97094" lon="-1.3081">
        <ele>-8</ele>
        <time>2021-11-23T12:16:35.000Z</time>
      </trkpt>
      <trkpt lat="45.97122" lon="-1.30833">
        <ele>-7.8000001907349</ele>
        <time>2021-11-23T12:16:40.000Z</time>
      </trkpt>
      <trkpt lat="45.97127" lon="-1.30839">
        <ele>-7.8000001907349</ele>
        <time>2021-11-23T12:16:41.000Z</time>
      </trkpt>
      <trkpt lat="45.97146" lon="-1.30863">
        <ele>-8</ele>
        <time>2021-11-23T12:16:45.000Z</time>
      </trkpt>
      <trkpt lat="45.97152" lon="-1.30877">
        <ele>-7.8000001907349</ele>
        <time>2021-11-23T12:16:47.000Z</time>
      </trkpt>
      <trkpt lat="45.97154" lon="-1.30883">
        <ele>-7.8000001907349</ele>
        <time>2021-11-23T12:16:48.000Z</time>
      </trkpt>
      <trkpt lat="45.97163" lon="-1.30893">
        <ele>-7.8000001907349</ele>
        <time>2021-11-23T12:16:50.000Z</time>
      </trkpt>
      <trkpt lat="45.97193" lon="-1.30904">
        <ele>-8</ele>
        <time>2021-11-23T12:16:55.000Z</time>
      </trkpt>
      <trkpt lat="45.97234" lon="-1.30907">
        <ele>-8</ele>
        <time>2021-11-23T12:17:01.000Z</time>
      </trkpt>
      <trkpt lat="45.97248" lon="-1.30905">
        <ele>-8</ele>
        <time>2021-11-23T12:17:03.000Z</time>
      </trkpt>
      <trkpt lat="45.97261" lon="-1.309">
        <ele>-8</ele>
        <time>2021-11-23T12:17:05.000Z</time>
      </trkpt>
      <trkpt lat="45.97268" lon="-1.30897">
        <ele>-8</ele>
        <time>2021-11-23T12:17:06.000Z</time>
      </trkpt>
      <trkpt lat="45.973" lon="-1.30877">
        <ele>-7.4000000953674</ele>
        <time>2021-11-23T12:17:11.000Z</time>
      </trkpt>
      <trkpt lat="45.9732" lon="-1.30868">
        <ele>-7</ele>
        <time>2021-11-23T12:17:14.000Z</time>
      </trkpt>
      <trkpt lat="45.97346" lon="-1.30856">
        <ele>-6.1999998092651</ele>
        <time>2021-11-23T12:17:18.000Z</time>
      </trkpt>
      <trkpt lat="45.97374" lon="-1.30846">
        <ele>-5.1999998092651</ele>
        <time>2021-11-23T12:17:22.000Z</time>
      </trkpt>
      <trkpt lat="45.97381" lon="-1.30844">
        <ele>-5</ele>
        <time>2021-11-23T12:17:23.000Z</time>
      </trkpt>
      <trkpt lat="45.97424" lon="-1.30833">
        <ele>-4</ele>
        <time>2021-11-23T12:17:29.000Z</time>
      </trkpt>
      <trkpt lat="45.97437" lon="-1.30828">
        <ele>-3.5999999046326</ele>
        <time>2021-11-23T12:17:31.000Z</time>
      </trkpt>
      <trkpt lat="45.97458" lon="-1.3082">
        <ele>-3.2000000476837</ele>
        <time>2021-11-23T12:17:34.000Z</time>
      </trkpt>
      <trkpt lat="45.97465" lon="-1.30819">
        <ele>-2.7999999523163</ele>
        <time>2021-11-23T12:17:35.000Z</time>
      </trkpt>
      <trkpt lat="45.97478" lon="-1.30818">
        <ele>-2.7999999523163</ele>
        <time>2021-11-23T12:17:37.000Z</time>
      </trkpt>
      <trkpt lat="45.9751" lon="-1.30823">
        <ele>-2.4000000953674</ele>
        <time>2021-11-23T12:17:43.000Z</time>
      </trkpt>
      <trkpt lat="45.9752" lon="-1.30825">
        <ele>-2.4000000953674</ele>
        <time>2021-11-23T12:17:45.000Z</time>
      </trkpt>
      <trkpt lat="45.97536" lon="-1.30828">
        <ele>-2.2000000476837</ele>
        <time>2021-11-23T12:17:48.000Z</time>
      </trkpt>
      <trkpt lat="45.97568" lon="-1.30827">
        <ele>-2.2000000476837</ele>
        <time>2021-11-23T12:17:53.000Z</time>
      </trkpt>
      <trkpt lat="45.97606" lon="-1.30829">
        <ele>-1.7999999523163</ele>
        <time>2021-11-23T12:17:59.000Z</time>
      </trkpt>
      <trkpt lat="45.97612" lon="-1.3083">
        <ele>-1.7999999523163</ele>
        <time>2021-11-23T12:18:00.000Z</time>
      </trkpt>
      <trkpt lat="45.97646" lon="-1.30849">
        <ele>-1.3999999761581</ele>
        <time>2021-11-23T12:18:06.000Z</time>
      </trkpt>
      <trkpt lat="45.97682" lon="-1.30879">
        <ele>-1.3999999761581</ele>
        <time>2021-11-23T12:18:13.000Z</time>
      </trkpt>
      <trkpt lat="45.97687" lon="-1.30878">
        <ele>-1.3999999761581</ele>
        <time>2021-11-23T12:18:14.000Z</time>
      </trkpt>
      <trkpt lat="45.97693" lon="-1.30875">
        <ele>-1.3999999761581</ele>
        <time>2021-11-23T12:18:15.000Z</time>
      </trkpt>
      <trkpt lat="45.97701" lon="-1.30865">
        <ele>-1.3999999761581</ele>
        <time>2021-11-23T12:18:17.000Z</time>
      </trkpt>
      <trkpt lat="45.97715" lon="-1.30849">
        <ele>-1.3999999761581</ele>
        <time>2021-11-23T12:18:20.000Z</time>
      </trkpt>
      <trkpt lat="45.97731" lon="-1.30838">
        <ele>-1.7999999523163</ele>
        <time>2021-11-23T12:18:23.000Z</time>
      </trkpt>
      <trkpt lat="45.97763" lon="-1.3082">
        <ele>-2.2000000476837</ele>
        <time>2021-11-23T12:18:28.000Z</time>
      </trkpt>
      <trkpt lat="45.97795" lon="-1.30803">
        <ele>-2.5999999046326</ele>
        <time>2021-11-23T12:18:33.000Z</time>
      </trkpt>
      <trkpt lat="45.97801" lon="-1.30798">
        <ele>-2.4000000953674</ele>
        <time>2021-11-23T12:18:34.000Z</time>
      </trkpt>
      <trkpt lat="45.97813" lon="-1.30788">
        <ele>-2.5999999046326</ele>
        <time>2021-11-23T12:18:36.000Z</time>
      </trkpt>
      <trkpt lat="45.97825" lon="-1.3078">
        <ele>-2.7999999523163</ele>
        <time>2021-11-23T12:18:38.000Z</time>
      </trkpt>
      <trkpt lat="45.97835" lon="-1.30775">
        <ele>-3</ele>
        <time>2021-11-23T12:18:40.000Z</time>
      </trkpt>
      <trkpt lat="45.9784" lon="-1.30775">
        <ele>-3.2000000476837</ele>
        <time>2021-11-23T12:18:41.000Z</time>
      </trkpt>
      <trkpt lat="45.97842" lon="-1.30778">
        <ele>-3.4000000953674</ele>
        <time>2021-11-23T12:18:42.000Z</time>
      </trkpt>
      <trkpt lat="45.97842" lon="-1.30782">
        <ele>-3.4000000953674</ele>
        <time>2021-11-23T12:18:43.000Z</time>
      </trkpt>
      <trkpt lat="45.97841" lon="-1.30814">
        <ele>-3.7999999523163</ele>
        <time>2021-11-23T12:18:48.000Z</time>
      </trkpt>
      <trkpt lat="45.97841" lon="-1.30823">
        <ele>-3.7999999523163</ele>
        <time>2021-11-23T12:18:49.000Z</time>
      </trkpt>
      <trkpt lat="45.97847" lon="-1.3084">
        <ele>-3.7999999523163</ele>
        <time>2021-11-23T12:18:51.000Z</time>
      </trkpt>
      <trkpt lat="45.97866" lon="-1.30881">
        <ele>-4.8000001907349</ele>
        <time>2021-11-23T12:18:56.000Z</time>
      </trkpt>
      <trkpt lat="45.9787" lon="-1.30888">
        <ele>-5.1999998092651</ele>
        <time>2021-11-23T12:18:57.000Z</time>
      </trkpt>
      <trkpt lat="45.97888" lon="-1.30921">
        <ele>-5.8000001907349</ele>
        <time>2021-11-23T12:19:01.000Z</time>
      </trkpt>
      <trkpt lat="45.97901" lon="-1.30946">
        <ele>-6.1999998092651</ele>
        <time>2021-11-23T12:19:04.000Z</time>
      </trkpt>
      <trkpt lat="45.97909" lon="-1.30964">
        <ele>-7.1999998092651</ele>
        <time>2021-11-23T12:19:06.000Z</time>
      </trkpt>
      <trkpt lat="45.97932" lon="-1.31013">
        <ele>-8.3999996185303</ele>
        <time>2021-11-23T12:19:12.000Z</time>
      </trkpt>
      <trkpt lat="45.97935" lon="-1.31022">
        <ele>-8.3999996185303</ele>
        <time>2021-11-23T12:19:13.000Z</time>
      </trkpt>
      <trkpt lat="45.97937" lon="-1.31028">
        <ele>-8.6000003814697</ele>
        <time>2021-11-23T12:19:14.000Z</time>
      </trkpt>
      <trkpt lat="45.97942" lon="-1.31031">
        <ele>-8.6000003814697</ele>
        <time>2021-11-23T12:19:16.000Z</time>
      </trkpt>
      <trkpt lat="45.97959" lon="-1.31018">
        <ele>-8.8000001907349</ele>
        <time>2021-11-23T12:19:20.000Z</time>
      </trkpt>
      <trkpt lat="45.97967" lon="-1.31011">
        <ele>-8.8000001907349</ele>
        <time>2021-11-23T12:19:22.000Z</time>
      </trkpt>
      <trkpt lat="45.97982" lon="-1.31001">
        <ele>-8.8000001907349</ele>
        <time>2021-11-23T12:19:25.000Z</time>
      </trkpt>
      <trkpt lat="45.97996" lon="-1.3099">
        <ele>-8.6000003814697</ele>
        <time>2021-11-23T12:19:28.000Z</time>
      </trkpt>
      <trkpt lat="45.98005" lon="-1.30981">
        <ele>-8.6000003814697</ele>
        <time>2021-11-23T12:19:30.000Z</time>
      </trkpt>
      <trkpt lat="45.98012" lon="-1.30971">
        <ele>-8.6000003814697</ele>
        <time>2021-11-23T12:19:32.000Z</time>
      </trkpt>
      <trkpt lat="45.98019" lon="-1.30959">
        <ele>-8.6000003814697</ele>
        <time>2021-11-23T12:19:34.000Z</time>
      </trkpt>
      <trkpt lat="45.98029" lon="-1.30943">
        <ele>-8.1999998092651</ele>
        <time>2021-11-23T12:19:37.000Z</time>
      </trkpt>
      <trkpt lat="45.98031" lon="-1.30935">
        <ele>-8</ele>
        <time>2021-11-23T12:19:38.000Z</time>
      </trkpt>
      <trkpt lat="45.98031" lon="-1.3093">
        <ele>-7.5999999046326</ele>
        <time>2021-11-23T12:19:39.000Z</time>
      </trkpt>
      <trkpt lat="45.98028" lon="-1.3092">
        <ele>-7.1999998092651</ele>
        <time>2021-11-23T12:19:41.000Z</time>
      </trkpt>
      <trkpt lat="45.98015" lon="-1.30897">
        <ele>-6.4000000953674</ele>
        <time>2021-11-23T12:19:45.000Z</time>
      </trkpt>
      <trkpt lat="45.98002" lon="-1.30866">
        <ele>-6.1999998092651</ele>
        <time>2021-11-23T12:19:49.000Z</time>
      </trkpt>
      <trkpt lat="45.97999" lon="-1.3086">
        <ele>-6.1999998092651</ele>
        <time>2021-11-23T12:19:50.000Z</time>
      </trkpt>
      <trkpt lat="45.97988" lon="-1.30813">
        <ele>-5.8000001907349</ele>
        <time>2021-11-23T12:19:55.000Z</time>
      </trkpt>
      <trkpt lat="45.97984" lon="-1.30796">
        <ele>-6</ele>
        <time>2021-11-23T12:19:57.000Z</time>
      </trkpt>
      <trkpt lat="45.97981" lon="-1.3078">
        <ele>-5.8000001907349</ele>
        <time>2021-11-23T12:19:59.000Z</time>
      </trkpt>
      <trkpt lat="45.97981" lon="-1.30766">
        <ele>-5.5999999046326</ele>
        <time>2021-11-23T12:20:01.000Z</time>
      </trkpt>
      <trkpt lat="45.97988" lon="-1.30752">
        <ele>-5.4000000953674</ele>
        <time>2021-11-23T12:20:03.000Z</time>
      </trkpt>
      <trkpt lat="45.97998" lon="-1.30736">
        <ele>-5.1999998092651</ele>
        <time>2021-11-23T12:20:06.000Z</time>
      </trkpt>
      <trkpt lat="45.98002" lon="-1.30729">
        <ele>-5.1999998092651</ele>
        <time>2021-11-23T12:20:07.000Z</time>
      </trkpt>
      <trkpt lat="45.98008" lon="-1.30721">
        <ele>-5</ele>
        <time>2021-11-23T12:20:08.000Z</time>
      </trkpt>
      <trkpt lat="45.98016" lon="-1.30708">
        <ele>-4.8000001907349</ele>
        <time>2021-11-23T12:20:10.000Z</time>
      </trkpt>
      <trkpt lat="45.98021" lon="-1.30693">
        <ele>-5</ele>
        <time>2021-11-23T12:20:12.000Z</time>
      </trkpt>
      <trkpt lat="45.98023" lon="-1.30684">
        <ele>-4.8000001907349</ele>
        <time>2021-11-23T12:20:13.000Z</time>
      </trkpt>
      <trkpt lat="45.98022" lon="-1.30675">
        <ele>-4.8000001907349</ele>
        <time>2021-11-23T12:20:14.000Z</time>
      </trkpt>
      <trkpt lat="45.98019" lon="-1.30638">
        <ele>-4.8000001907349</ele>
        <time>2021-11-23T12:20:18.000Z</time>
      </trkpt>
      <trkpt lat="45.9802" lon="-1.30619">
        <ele>-4.8000001907349</ele>
        <time>2021-11-23T12:20:20.000Z</time>
      </trkpt>
      <trkpt lat="45.98024" lon="-1.30593">
        <ele>-5</ele>
        <time>2021-11-23T12:20:23.000Z</time>
      </trkpt>
      <trkpt lat="45.98031" lon="-1.30577">
        <ele>-4.8000001907349</ele>
        <time>2021-11-23T12:20:25.000Z</time>
      </trkpt>
      <trkpt lat="45.98038" lon="-1.30559">
        <ele>-5</ele>
        <time>2021-11-23T12:20:27.000Z</time>
      </trkpt>
      <trkpt lat="45.98047" lon="-1.30549">
        <ele>-4.8000001907349</ele>
        <time>2021-11-23T12:20:29.000Z</time>
      </trkpt>
      <trkpt lat="45.98056" lon="-1.30541">
        <ele>-4.1999998092651</ele>
        <time>2021-11-23T12:20:31.000Z</time>
      </trkpt>
      <trkpt lat="45.9806" lon="-1.30536">
        <ele>-4.4000000953674</ele>
        <time>2021-11-23T12:20:32.000Z</time>
      </trkpt>
      <trkpt lat="45.98078" lon="-1.30516">
        <ele>-4</ele>
        <time>2021-11-23T12:20:36.000Z</time>
      </trkpt>
      <trkpt lat="45.98091" lon="-1.30504">
        <ele>-4</ele>
        <time>2021-11-23T12:20:39.000Z</time>
      </trkpt>
      <trkpt lat="45.98109" lon="-1.30487">
        <ele>-4.1999998092651</ele>
        <time>2021-11-23T12:20:43.000Z</time>
      </trkpt>
      <trkpt lat="45.98125" lon="-1.30473">
        <ele>-3.5999999046326</ele>
        <time>2021-11-23T12:20:46.000Z</time>
      </trkpt>
      <trkpt lat="45.98141" lon="-1.30463">
        <ele>-3.5999999046326</ele>
        <time>2021-11-23T12:20:49.000Z</time>
      </trkpt>
      <trkpt lat="45.98156" lon="-1.30455">
        <ele>-3.4000000953674</ele>
        <time>2021-11-23T12:20:51.000Z</time>
      </trkpt>
      <trkpt lat="45.98172" lon="-1.30445">
        <ele>-3.4000000953674</ele>
        <time>2021-11-23T12:20:54.000Z</time>
      </trkpt>
      <trkpt lat="45.9818" lon="-1.30441">
        <ele>-3.4000000953674</ele>
        <time>2021-11-23T12:20:55.000Z</time>
      </trkpt>
      <trkpt lat="45.98198" lon="-1.30432">
        <ele>-3.7999999523163</ele>
        <time>2021-11-23T12:20:58.000Z</time>
      </trkpt>
      <trkpt lat="45.98204" lon="-1.30429">
        <ele>-3.7999999523163</ele>
        <time>2021-11-23T12:20:59.000Z</time>
      </trkpt>
      <trkpt lat="45.98209" lon="-1.30426">
        <ele>-3.5999999046326</ele>
        <time>2021-11-23T12:21:00.000Z</time>
      </trkpt>
      <trkpt lat="45.98224" lon="-1.30411">
        <ele>-3.4000000953674</ele>
        <time>2021-11-23T12:21:03.000Z</time>
      </trkpt>
      <trkpt lat="45.98231" lon="-1.30401">
        <ele>-3.2000000476837</ele>
        <time>2021-11-23T12:21:05.000Z</time>
      </trkpt>
      <trkpt lat="45.98232" lon="-1.30389">
        <ele>-3.4000000953674</ele>
        <time>2021-11-23T12:21:07.000Z</time>
      </trkpt>
      <trkpt lat="45.98228" lon="-1.30375">
        <ele>-3.7999999523163</ele>
        <time>2021-11-23T12:21:09.000Z</time>
      </trkpt>
      <trkpt lat="45.98221" lon="-1.30353">
        <ele>-3.7999999523163</ele>
        <time>2021-11-23T12:21:12.000Z</time>
      </trkpt>
      <trkpt lat="45.98213" lon="-1.3032">
        <ele>-4.1999998092651</ele>
        <time>2021-11-23T12:21:16.000Z</time>
      </trkpt>
      <trkpt lat="45.98213" lon="-1.30313">
        <ele>-4.1999998092651</ele>
        <time>2021-11-23T12:21:17.000Z</time>
      </trkpt>
      <trkpt lat="45.98209" lon="-1.30293">
        <ele>-4.1999998092651</ele>
        <time>2021-11-23T12:21:19.000Z</time>
      </trkpt>
      <trkpt lat="45.98205" lon="-1.30268">
        <ele>-3.5999999046326</ele>
        <time>2021-11-23T12:21:22.000Z</time>
      </trkpt>
      <trkpt lat="45.98196" lon="-1.30222">
        <ele>-3</ele>
        <time>2021-11-23T12:21:28.000Z</time>
      </trkpt>
      <trkpt lat="45.98193" lon="-1.30213">
        <ele>-3</ele>
        <time>2021-11-23T12:21:29.000Z</time>
      </trkpt>
      <trkpt lat="45.98186" lon="-1.30182">
        <ele>-4.1999998092651</ele>
        <time>2021-11-23T12:21:33.000Z</time>
      </trkpt>
      <trkpt lat="45.98181" lon="-1.30157">
        <ele>-4.8000001907349</ele>
        <time>2021-11-23T12:21:36.000Z</time>
      </trkpt>
      <trkpt lat="45.98178" lon="-1.30143">
        <ele>-4.8000001907349</ele>
        <time>2021-11-23T12:21:38.000Z</time>
      </trkpt>
      <trkpt lat="45.98169" lon="-1.30112">
        <ele>-4.5999999046326</ele>
        <time>2021-11-23T12:21:42.000Z</time>
      </trkpt>
      <trkpt lat="45.98154" lon="-1.30066">
        <ele>-4.8000001907349</ele>
        <time>2021-11-23T12:21:48.000Z</time>
      </trkpt>
      <trkpt lat="45.98152" lon="-1.3006">
        <ele>-5</ele>
        <time>2021-11-23T12:21:49.000Z</time>
      </trkpt>
      <trkpt lat="45.98143" lon="-1.30033">
        <ele>-5</ele>
        <time>2021-11-23T12:21:53.000Z</time>
      </trkpt>
      <trkpt lat="45.98141" lon="-1.30026">
        <ele>-5</ele>
        <time>2021-11-23T12:21:54.000Z</time>
      </trkpt>
      <trkpt lat="45.98139" lon="-1.30019">
        <ele>-5.1999998092651</ele>
        <time>2021-11-23T12:21:55.000Z</time>
      </trkpt>
      <trkpt lat="45.9813" lon="-1.29992">
        <ele>-5</ele>
        <time>2021-11-23T12:21:58.000Z</time>
      </trkpt>
      <trkpt lat="45.98121" lon="-1.29961">
        <ele>-4.8000001907349</ele>
        <time>2021-11-23T12:22:03.000Z</time>
      </trkpt>
      <trkpt lat="45.98118" lon="-1.29953">
        <ele>-4.8000001907349</ele>
        <time>2021-11-23T12:22:04.000Z</time>
      </trkpt>
      <trkpt lat="45.98105" lon="-1.29923">
        <ele>-4.5999999046326</ele>
        <time>2021-11-23T12:22:08.000Z</time>
      </trkpt>
      <trkpt lat="45.98094" lon="-1.299">
        <ele>-4.4000000953674</ele>
        <time>2021-11-23T12:22:11.000Z</time>
      </trkpt>
      <trkpt lat="45.98088" lon="-1.29883">
        <ele>-4.4000000953674</ele>
        <time>2021-11-23T12:22:13.000Z</time>
      </trkpt>
      <trkpt lat="45.98079" lon="-1.29852">
        <ele>-4.1999998092651</ele>
        <time>2021-11-23T12:22:16.000Z</time>
      </trkpt>
      <trkpt lat="45.98071" lon="-1.29834">
        <ele>-3.7999999523163</ele>
        <time>2021-11-23T12:22:19.000Z</time>
      </trkpt>
      <trkpt lat="45.98066" lon="-1.29815">
        <ele>-3.7999999523163</ele>
        <time>2021-11-23T12:22:21.000Z</time>
      </trkpt>
      <trkpt lat="45.98059" lon="-1.29786">
        <ele>-4.5999999046326</ele>
        <time>2021-11-23T12:22:25.000Z</time>
      </trkpt>
      <trkpt lat="45.98066" lon="-1.29792">
        <ele>-7.4000000953674</ele>
        <time>2021-11-23T12:23:03.000Z</time>
      </trkpt>
      <trkpt lat="45.98068" lon="-1.29789">
        <ele>-7.4000000953674</ele>
        <time>2021-11-23T12:23:05.000Z</time>
      </trkpt>
      <trkpt lat="45.98078" lon="-1.29781">
        <ele>-7.4000000953674</ele>
        <time>2021-11-23T12:23:09.000Z</time>
      </trkpt>
      <trkpt lat="45.98092" lon="-1.29772">
        <ele>-7.4000000953674</ele>
        <time>2021-11-23T12:23:13.000Z</time>
      </trkpt>
      <trkpt lat="45.98108" lon="-1.29763">
        <ele>-7.4000000953674</ele>
        <time>2021-11-23T12:23:18.000Z</time>
      </trkpt>
      <trkpt lat="45.9811" lon="-1.29763">
        <ele>-7.4000000953674</ele>
        <time>2021-11-23T12:23:19.000Z</time>
      </trkpt>
      <trkpt lat="45.98111" lon="-1.29759">
        <ele>-7</ele>
        <time>2021-11-23T12:23:21.000Z</time>
      </trkpt>
      <trkpt lat="45.98109" lon="-1.29746">
        <ele>-6.8000001907349</ele>
        <time>2021-11-23T12:23:25.000Z</time>
      </trkpt>
      <trkpt lat="45.98109" lon="-1.29741">
        <ele>-6.5999999046326</ele>
        <time>2021-11-23T12:23:26.000Z</time>
      </trkpt>
      <trkpt lat="45.9812" lon="-1.29712">
        <ele>-6.1999998092651</ele>
        <time>2021-11-23T12:23:30.000Z</time>
      </trkpt>
      <trkpt lat="45.98127" lon="-1.29687">
        <ele>-6.1999998092651</ele>
        <time>2021-11-23T12:23:34.000Z</time>
      </trkpt>
      <trkpt lat="45.98135" lon="-1.29642">
        <ele>-6</ele>
        <time>2021-11-23T12:23:39.000Z</time>
      </trkpt>
      <trkpt lat="45.98136" lon="-1.29633">
        <ele>-6</ele>
        <time>2021-11-23T12:23:40.000Z</time>
      </trkpt>
      <trkpt lat="45.98137" lon="-1.29625">
        <ele>-6.1999998092651</ele>
        <time>2021-11-23T12:23:41.000Z</time>
      </trkpt>
      <trkpt lat="45.98135" lon="-1.29606">
        <ele>-6.4000000953674</ele>
        <time>2021-11-23T12:23:43.000Z</time>
      </trkpt>
      <trkpt lat="45.98132" lon="-1.29596">
        <ele>-6.4000000953674</ele>
        <time>2021-11-23T12:23:44.000Z</time>
      </trkpt>
      <trkpt lat="45.98126" lon="-1.29563">
        <ele>-6</ele>
        <time>2021-11-23T12:23:48.000Z</time>
      </trkpt>
      <trkpt lat="45.98121" lon="-1.29537">
        <ele>-5.5999999046326</ele>
        <time>2021-11-23T12:23:52.000Z</time>
      </trkpt>
      <trkpt lat="45.98119" lon="-1.29529">
        <ele>-5.5999999046326</ele>
        <time>2021-11-23T12:23:53.000Z</time>
      </trkpt>
      <trkpt lat="45.98114" lon="-1.29512">
        <ele>-5.5999999046326</ele>
        <time>2021-11-23T12:23:55.000Z</time>
      </trkpt>
      <trkpt lat="45.9811" lon="-1.29504">
        <ele>-5.1999998092651</ele>
        <time>2021-11-23T12:23:56.000Z</time>
      </trkpt>
      <trkpt lat="45.98105" lon="-1.29485">
        <ele>-5.4000000953674</ele>
        <time>2021-11-23T12:23:58.000Z</time>
      </trkpt>
      <trkpt lat="45.981" lon="-1.29469">
        <ele>-5.1999998092651</ele>
        <time>2021-11-23T12:24:00.000Z</time>
      </trkpt>
      <trkpt lat="45.98099" lon="-1.29464">
        <ele>-5.1999998092651</ele>
        <time>2021-11-23T12:24:01.000Z</time>
      </trkpt>
      <trkpt lat="45.98088" lon="-1.29436">
        <ele>-5</ele>
        <time>2021-11-23T12:24:05.000Z</time>
      </trkpt>
      <trkpt lat="45.98083" lon="-1.29419">
        <ele>-5</ele>
        <time>2021-11-23T12:24:07.000Z</time>
      </trkpt>
      <trkpt lat="45.98078" lon="-1.29405">
        <ele>-5</ele>
        <time>2021-11-23T12:24:09.000Z</time>
      </trkpt>
      <trkpt lat="45.9808" lon="-1.294">
        <ele>-5</ele>
        <time>2021-11-23T12:24:11.000Z</time>
      </trkpt>
      <trkpt lat="45.98092" lon="-1.29401">
        <ele>-5.1999998092651</ele>
        <time>2021-11-23T12:24:14.000Z</time>
      </trkpt>
      <trkpt lat="45.98095" lon="-1.29403">
        <ele>-5.1999998092651</ele>
        <time>2021-11-23T12:24:15.000Z</time>
      </trkpt>
      <trkpt lat="45.98111" lon="-1.2941">
        <ele>-5.1999998092651</ele>
        <time>2021-11-23T12:24:18.000Z</time>
      </trkpt>
      <trkpt lat="45.98132" lon="-1.29423">
        <ele>-5.5999999046326</ele>
        <time>2021-11-23T12:24:23.000Z</time>
      </trkpt>
      <trkpt lat="45.98136" lon="-1.29426">
        <ele>-5.5999999046326</ele>
        <time>2021-11-23T12:24:24.000Z</time>
      </trkpt>
      <trkpt lat="45.98143" lon="-1.29424">
        <ele>-5.5999999046326</ele>
        <time>2021-11-23T12:24:26.000Z</time>
      </trkpt>
      <trkpt lat="45.98146" lon="-1.29419">
        <ele>-5.5999999046326</ele>
        <time>2021-11-23T12:24:27.000Z</time>
      </trkpt>
      <trkpt lat="45.98147" lon="-1.29413">
        <ele>-5.5999999046326</ele>
        <time>2021-11-23T12:24:28.000Z</time>
      </trkpt>
      <trkpt lat="45.98144" lon="-1.29402">
        <ele>-5.5999999046326</ele>
        <time>2021-11-23T12:24:30.000Z</time>
      </trkpt>
      <trkpt lat="45.98138" lon="-1.29387">
        <ele>-5.4000000953674</ele>
        <time>2021-11-23T12:24:32.000Z</time>
      </trkpt>
      <trkpt lat="45.98134" lon="-1.29372">
        <ele>-5.4000000953674</ele>
        <time>2021-11-23T12:24:34.000Z</time>
      </trkpt>
      <trkpt lat="45.98129" lon="-1.29349">
        <ele>-5.4000000953674</ele>
        <time>2021-11-23T12:24:37.000Z</time>
      </trkpt>
      <trkpt lat="45.98129" lon="-1.29332">
        <ele>-5.4000000953674</ele>
        <time>2021-11-23T12:24:39.000Z</time>
      </trkpt>
      <trkpt lat="45.98129" lon="-1.29304">
        <ele>-5</ele>
        <time>2021-11-23T12:24:42.000Z</time>
      </trkpt>
      <trkpt lat="45.98131" lon="-1.29286">
        <ele>-5</ele>
        <time>2021-11-23T12:24:44.000Z</time>
      </trkpt>
      <trkpt lat="45.98133" lon="-1.29257">
        <ele>-4.5999999046326</ele>
        <time>2021-11-23T12:24:47.000Z</time>
      </trkpt>
      <trkpt lat="45.98131" lon="-1.29228">
        <ele>-4.4000000953674</ele>
        <time>2021-11-23T12:24:50.000Z</time>
      </trkpt>
      <trkpt lat="45.98127" lon="-1.29163">
        <ele>-4</ele>
        <time>2021-11-23T12:24:56.000Z</time>
      </trkpt>
      <trkpt lat="45.98127" lon="-1.29141">
        <ele>-3.7999999523163</ele>
        <time>2021-11-23T12:24:58.000Z</time>
      </trkpt>
      <trkpt lat="45.98121" lon="-1.29101">
        <ele>-3.5999999046326</ele>
        <time>2021-11-23T12:25:02.000Z</time>
      </trkpt>
      <trkpt lat="45.98118" lon="-1.29082">
        <ele>-3.5999999046326</ele>
        <time>2021-11-23T12:25:04.000Z</time>
      </trkpt>
      <trkpt lat="45.98108" lon="-1.29035">
        <ele>-3.2000000476837</ele>
        <time>2021-11-23T12:25:09.000Z</time>
      </trkpt>
      <trkpt lat="45.98103" lon="-1.29011">
        <ele>-3.2000000476837</ele>
        <time>2021-11-23T12:25:12.000Z</time>
      </trkpt>
      <trkpt lat="45.98102" lon="-1.29003">
        <ele>-3.2000000476837</ele>
        <time>2021-11-23T12:25:13.000Z</time>
      </trkpt>
      <trkpt lat="45.98092" lon="-1.28953">
        <ele>-3</ele>
        <time>2021-11-23T12:25:18.000Z</time>
      </trkpt>
      <trkpt lat="45.98087" lon="-1.28935">
        <ele>-3</ele>
        <time>2021-11-23T12:25:20.000Z</time>
      </trkpt>
      <trkpt lat="45.98079" lon="-1.28914">
        <ele>-2.7999999523163</ele>
        <time>2021-11-23T12:25:22.000Z</time>
      </trkpt>
      <trkpt lat="45.98061" lon="-1.28868">
        <ele>-2.7999999523163</ele>
        <time>2021-11-23T12:25:27.000Z</time>
      </trkpt>
      <trkpt lat="45.98058" lon="-1.28858">
        <ele>-2.7999999523163</ele>
        <time>2021-11-23T12:25:28.000Z</time>
      </trkpt>
      <trkpt lat="45.98058" lon="-1.28835">
        <ele>-2.5999999046326</ele>
        <time>2021-11-23T12:25:30.000Z</time>
      </trkpt>
      <trkpt lat="45.98057" lon="-1.28785">
        <ele>-2.5999999046326</ele>
        <time>2021-11-23T12:25:35.000Z</time>
      </trkpt>
      <trkpt lat="45.98059" lon="-1.28773">
        <ele>-2.5999999046326</ele>
        <time>2021-11-23T12:25:36.000Z</time>
      </trkpt>
      <trkpt lat="45.9806" lon="-1.28724">
        <ele>-2.5999999046326</ele>
        <time>2021-11-23T12:25:41.000Z</time>
      </trkpt>
      <trkpt lat="45.98057" lon="-1.28699">
        <ele>-2.7999999523163</ele>
        <time>2021-11-23T12:25:43.000Z</time>
      </trkpt>
      <trkpt lat="45.98058" lon="-1.28671">
        <ele>-3</ele>
        <time>2021-11-23T12:25:46.000Z</time>
      </trkpt>
      <trkpt lat="45.98058" lon="-1.28661">
        <ele>-3</ele>
        <time>2021-11-23T12:25:47.000Z</time>
      </trkpt>
      <trkpt lat="45.98057" lon="-1.28651">
        <ele>-3</ele>
        <time>2021-11-23T12:25:48.000Z</time>
      </trkpt>
      <trkpt lat="45.98057" lon="-1.28631">
        <ele>-2.7999999523163</ele>
        <time>2021-11-23T12:25:50.000Z</time>
      </trkpt>
      <trkpt lat="45.98056" lon="-1.28622">
        <ele>-2.7999999523163</ele>
        <time>2021-11-23T12:25:51.000Z</time>
      </trkpt>
      <trkpt lat="45.9806" lon="-1.28611">
        <ele>-2.7999999523163</ele>
        <time>2021-11-23T12:25:52.000Z</time>
      </trkpt>
      <trkpt lat="45.98063" lon="-1.28588">
        <ele>-2.7999999523163</ele>
        <time>2021-11-23T12:25:54.000Z</time>
      </trkpt>
      <trkpt lat="45.98058" lon="-1.28557">
        <ele>-2.7999999523163</ele>
        <time>2021-11-23T12:25:57.000Z</time>
      </trkpt>
      <trkpt lat="45.98057" lon="-1.28548">
        <ele>-2.7999999523163</ele>
        <time>2021-11-23T12:25:58.000Z</time>
      </trkpt>
      <trkpt lat="45.98057" lon="-1.28538">
        <ele>-2.7999999523163</ele>
        <time>2021-11-23T12:25:59.000Z</time>
      </trkpt>
      <trkpt lat="45.98055" lon="-1.2852">
        <ele>-3</ele>
        <time>2021-11-23T12:26:01.000Z</time>
      </trkpt>
      <trkpt lat="45.98059" lon="-1.28502">
        <ele>-2.7999999523163</ele>
        <time>2021-11-23T12:26:03.000Z</time>
      </trkpt>
      <trkpt lat="45.98062" lon="-1.28493">
        <ele>-2.7999999523163</ele>
        <time>2021-11-23T12:26:04.000Z</time>
      </trkpt>
      <trkpt lat="45.98076" lon="-1.28452">
        <ele>-2.7999999523163</ele>
        <time>2021-11-23T12:26:09.000Z</time>
      </trkpt>
      <trkpt lat="45.98078" lon="-1.28444">
        <ele>-2.7999999523163</ele>
        <time>2021-11-23T12:26:10.000Z</time>
      </trkpt>
      <trkpt lat="45.9808" lon="-1.28412">
        <ele>-3</ele>
        <time>2021-11-23T12:26:13.000Z</time>
      </trkpt>
      <trkpt lat="45.98082" lon="-1.28359">
        <ele>-3.2000000476837</ele>
        <time>2021-11-23T12:26:19.000Z</time>
      </trkpt>
      <trkpt lat="45.98076" lon="-1.28349">
        <ele>-2.7999999523163</ele>
        <time>2021-11-23T12:26:21.000Z</time>
      </trkpt>
      <trkpt lat="45.98071" lon="-1.28345">
        <ele>-2.7999999523163</ele>
        <time>2021-11-23T12:26:22.000Z</time>
      </trkpt>
      <trkpt lat="45.98065" lon="-1.28343">
        <ele>-2.7999999523163</ele>
        <time>2021-11-23T12:26:23.000Z</time>
      </trkpt>
      <trkpt lat="45.98054" lon="-1.28339">
        <ele>-2.7999999523163</ele>
        <time>2021-11-23T12:26:25.000Z</time>
      </trkpt>
      <trkpt lat="45.98044" lon="-1.28337">
        <ele>-2.5999999046326</ele>
        <time>2021-11-23T12:26:27.000Z</time>
      </trkpt>
      <trkpt lat="45.98034" lon="-1.28336">
        <ele>-2.4000000953674</ele>
        <time>2021-11-23T12:26:29.000Z</time>
      </trkpt>
      <trkpt lat="45.98025" lon="-1.28336">
        <ele>-2</ele>
        <time>2021-11-23T12:26:31.000Z</time>
      </trkpt>
      <trkpt lat="45.98013" lon="-1.28329">
        <ele>-1.7999999523163</ele>
        <time>2021-11-23T12:26:33.000Z</time>
      </trkpt>
      <trkpt lat="45.9801" lon="-1.28325">
        <ele>-1.6000000238419</ele>
        <time>2021-11-23T12:26:34.000Z</time>
      </trkpt>
      <trkpt lat="45.9799" lon="-1.28288">
        <ele>-1.3999999761581</ele>
        <time>2021-11-23T12:26:39.000Z</time>
      </trkpt>
      <trkpt lat="45.97983" lon="-1.28274">
        <ele>-1.3999999761581</ele>
        <time>2021-11-23T12:26:41.000Z</time>
      </trkpt>
      <trkpt lat="45.97971" lon="-1.28251">
        <ele>-1.3999999761581</ele>
        <time>2021-11-23T12:26:44.000Z</time>
      </trkpt>
      <trkpt lat="45.97948" lon="-1.28205">
        <ele>-1.3999999761581</ele>
        <time>2021-11-23T12:26:50.000Z</time>
      </trkpt>
      <trkpt lat="45.97943" lon="-1.28188">
        <ele>-1.3999999761581</ele>
        <time>2021-11-23T12:26:52.000Z</time>
      </trkpt>
      <trkpt lat="45.97943" lon="-1.2818">
        <ele>-1.3999999761581</ele>
        <time>2021-11-23T12:26:53.000Z</time>
      </trkpt>
      <trkpt lat="45.97943" lon="-1.28171">
        <ele>-1.3999999761581</ele>
        <time>2021-11-23T12:26:54.000Z</time>
      </trkpt>
      <trkpt lat="45.97947" lon="-1.28154">
        <ele>-1.3999999761581</ele>
        <time>2021-11-23T12:26:56.000Z</time>
      </trkpt>
      <trkpt lat="45.9795" lon="-1.28133">
        <ele>-1.3999999761581</ele>
        <time>2021-11-23T12:26:58.000Z</time>
      </trkpt>
      <trkpt lat="45.97949" lon="-1.28122">
        <ele>-1.3999999761581</ele>
        <time>2021-11-23T12:26:59.000Z</time>
      </trkpt>
      <trkpt lat="45.97945" lon="-1.28102">
        <ele>-1.3999999761581</ele>
        <time>2021-11-23T12:27:01.000Z</time>
      </trkpt>
      <trkpt lat="45.97938" lon="-1.28084">
        <ele>-1.6000000238419</ele>
        <time>2021-11-23T12:27:03.000Z</time>
      </trkpt>
      <trkpt lat="45.97918" lon="-1.28037">
        <ele>-2.4000000953674</ele>
        <time>2021-11-23T12:27:08.000Z</time>
      </trkpt>
      <trkpt lat="45.97915" lon="-1.28028">
        <ele>-2.2000000476837</ele>
        <time>2021-11-23T12:27:09.000Z</time>
      </trkpt>
      <trkpt lat="45.9791" lon="-1.28009">
        <ele>-2.4000000953674</ele>
        <time>2021-11-23T12:27:11.000Z</time>
      </trkpt>
      <trkpt lat="45.97909" lon="-1.27991">
        <ele>-2.5999999046326</ele>
        <time>2021-11-23T12:27:13.000Z</time>
      </trkpt>
      <trkpt lat="45.97906" lon="-1.2798">
        <ele>-2.7999999523163</ele>
        <time>2021-11-23T12:27:14.000Z</time>
      </trkpt>
      <trkpt lat="45.97904" lon="-1.2797">
        <ele>-2.7999999523163</ele>
        <time>2021-11-23T12:27:15.000Z</time>
      </trkpt>
      <trkpt lat="45.979" lon="-1.27949">
        <ele>-2.7999999523163</ele>
        <time>2021-11-23T12:27:17.000Z</time>
      </trkpt>
      <trkpt lat="45.97897" lon="-1.27939">
        <ele>-3</ele>
        <time>2021-11-23T12:27:18.000Z</time>
      </trkpt>
      <trkpt lat="45.97894" lon="-1.27928">
        <ele>-3</ele>
        <time>2021-11-23T12:27:19.000Z</time>
      </trkpt>
      <trkpt lat="45.97888" lon="-1.27895">
        <ele>-3</ele>
        <time>2021-11-23T12:27:22.000Z</time>
      </trkpt>
      <trkpt lat="45.97878" lon="-1.27835">
        <ele>-3.2000000476837</ele>
        <time>2021-11-23T12:27:28.000Z</time>
      </trkpt>
      <trkpt lat="45.97877" lon="-1.27826">
        <ele>-3.4000000953674</ele>
        <time>2021-11-23T12:27:29.000Z</time>
      </trkpt>
      <trkpt lat="45.97868" lon="-1.27797">
        <ele>-3.4000000953674</ele>
        <time>2021-11-23T12:27:32.000Z</time>
      </trkpt>
      <trkpt lat="45.97861" lon="-1.27781">
        <ele>-3.2000000476837</ele>
        <time>2021-11-23T12:27:34.000Z</time>
      </trkpt>
      <trkpt lat="45.97851" lon="-1.27759">
        <ele>-3.5999999046326</ele>
        <time>2021-11-23T12:27:37.000Z</time>
      </trkpt>
      <trkpt lat="45.97849" lon="-1.27752">
        <ele>-3.7999999523163</ele>
        <time>2021-11-23T12:27:38.000Z</time>
      </trkpt>
      <trkpt lat="45.97848" lon="-1.27746">
        <ele>-3.7999999523163</ele>
        <time>2021-11-23T12:27:39.000Z</time>
      </trkpt>
      <trkpt lat="45.97842" lon="-1.27708">
        <ele>-4</ele>
        <time>2021-11-23T12:27:43.000Z</time>
      </trkpt>
      <trkpt lat="45.97829" lon="-1.27653">
        <ele>-4.5999999046326</ele>
        <time>2021-11-23T12:27:49.000Z</time>
      </trkpt>
      <trkpt lat="45.97826" lon="-1.27637">
        <ele>-4.8000001907349</ele>
        <time>2021-11-23T12:27:51.000Z</time>
      </trkpt>
      <trkpt lat="45.9782" lon="-1.27613">
        <ele>-5.1999998092651</ele>
        <time>2021-11-23T12:27:54.000Z</time>
      </trkpt>
      <trkpt lat="45.97812" lon="-1.27596">
        <ele>-5.1999998092651</ele>
        <time>2021-11-23T12:27:56.000Z</time>
      </trkpt>
      <trkpt lat="45.9781" lon="-1.27586">
        <ele>-5.4000000953674</ele>
        <time>2021-11-23T12:27:57.000Z</time>
      </trkpt>
      <trkpt lat="45.97808" lon="-1.27535">
        <ele>-5.4000000953674</ele>
        <time>2021-11-23T12:28:02.000Z</time>
      </trkpt>
      <trkpt lat="45.97806" lon="-1.27526">
        <ele>-5.4000000953674</ele>
        <time>2021-11-23T12:28:03.000Z</time>
      </trkpt>
      <trkpt lat="45.97806" lon="-1.27505">
        <ele>-5.4000000953674</ele>
        <time>2021-11-23T12:28:05.000Z</time>
      </trkpt>
      <trkpt lat="45.97806" lon="-1.27475">
        <ele>-5.4000000953674</ele>
        <time>2021-11-23T12:28:08.000Z</time>
      </trkpt>
      <trkpt lat="45.97808" lon="-1.27466">
        <ele>-5.4000000953674</ele>
        <time>2021-11-23T12:28:09.000Z</time>
      </trkpt>
      <trkpt lat="45.97807" lon="-1.27456">
        <ele>-5.4000000953674</ele>
        <time>2021-11-23T12:28:10.000Z</time>
      </trkpt>
      <trkpt lat="45.97807" lon="-1.27415">
        <ele>-5.4000000953674</ele>
        <time>2021-11-23T12:28:14.000Z</time>
      </trkpt>
      <trkpt lat="45.97804" lon="-1.27375">
        <ele>-5.4000000953674</ele>
        <time>2021-11-23T12:28:18.000Z</time>
      </trkpt>
      <trkpt lat="45.978" lon="-1.27359">
        <ele>-5.5999999046326</ele>
        <time>2021-11-23T12:28:20.000Z</time>
      </trkpt>
      <trkpt lat="45.97792" lon="-1.27331">
        <ele>-5.5999999046326</ele>
        <time>2021-11-23T12:28:23.000Z</time>
      </trkpt>
      <trkpt lat="45.97777" lon="-1.27285">
        <ele>-5.4000000953674</ele>
        <time>2021-11-23T12:28:28.000Z</time>
      </trkpt>
      <trkpt lat="45.97775" lon="-1.27276">
        <ele>-5.4000000953674</ele>
        <time>2021-11-23T12:28:29.000Z</time>
      </trkpt>
      <trkpt lat="45.97771" lon="-1.2726">
        <ele>-5.1999998092651</ele>
        <time>2021-11-23T12:28:31.000Z</time>
      </trkpt>
      <trkpt lat="45.97769" lon="-1.27247">
        <ele>-5.1999998092651</ele>
        <time>2021-11-23T12:28:33.000Z</time>
      </trkpt>
      <trkpt lat="45.97756" lon="-1.27205">
        <ele>-4.1999998092651</ele>
        <time>2021-11-23T12:28:39.000Z</time>
      </trkpt>
      <trkpt lat="45.97752" lon="-1.27188">
        <ele>-4</ele>
        <time>2021-11-23T12:28:41.000Z</time>
      </trkpt>
      <trkpt lat="45.9775" lon="-1.27181">
        <ele>-3.7999999523163</ele>
        <time>2021-11-23T12:28:42.000Z</time>
      </trkpt>
      <trkpt lat="45.97747" lon="-1.27172">
        <ele>-3.7999999523163</ele>
        <time>2021-11-23T12:28:43.000Z</time>
      </trkpt>
      <trkpt lat="45.97737" lon="-1.27147">
        <ele>-3.4000000953674</ele>
        <time>2021-11-23T12:28:46.000Z</time>
      </trkpt>
      <trkpt lat="45.97724" lon="-1.27126">
        <ele>-3</ele>
        <time>2021-11-23T12:28:48.000Z</time>
      </trkpt>
      <trkpt lat="45.97715" lon="-1.27105">
        <ele>-2.7999999523163</ele>
        <time>2021-11-23T12:28:50.000Z</time>
      </trkpt>
      <trkpt lat="45.97709" lon="-1.27086">
        <ele>-2.7999999523163</ele>
        <time>2021-11-23T12:28:52.000Z</time>
      </trkpt>
      <trkpt lat="45.97703" lon="-1.27074">
        <ele>-2.7999999523163</ele>
        <time>2021-11-23T12:28:53.000Z</time>
      </trkpt>
      <trkpt lat="45.97698" lon="-1.27053">
        <ele>-2.7999999523163</ele>
        <time>2021-11-23T12:28:55.000Z</time>
      </trkpt>
      <trkpt lat="45.97693" lon="-1.27019">
        <ele>-2.7999999523163</ele>
        <time>2021-11-23T12:28:58.000Z</time>
      </trkpt>
      <trkpt lat="45.9768" lon="-1.26935">
        <ele>-3.2000000476837</ele>
        <time>2021-11-23T12:29:06.000Z</time>
      </trkpt>
      <trkpt lat="45.97671" lon="-1.26889">
        <ele>-3.5999999046326</ele>
        <time>2021-11-23T12:29:11.000Z</time>
      </trkpt>
      <trkpt lat="45.97663" lon="-1.26838">
        <ele>-3.5999999046326</ele>
        <time>2021-11-23T12:29:16.000Z</time>
      </trkpt>
      <trkpt lat="45.97663" lon="-1.2683">
        <ele>-3.5999999046326</ele>
        <time>2021-11-23T12:29:17.000Z</time>
      </trkpt>
      <trkpt lat="45.9766" lon="-1.26808">
        <ele>-3.5999999046326</ele>
        <time>2021-11-23T12:29:19.000Z</time>
      </trkpt>
      <trkpt lat="45.97662" lon="-1.26779">
        <ele>-3.5999999046326</ele>
        <time>2021-11-23T12:29:22.000Z</time>
      </trkpt>
      <trkpt lat="45.97668" lon="-1.26718">
        <ele>-3.7999999523163</ele>
        <time>2021-11-23T12:29:28.000Z</time>
      </trkpt>
      <trkpt lat="45.97669" lon="-1.26707">
        <ele>-3.7999999523163</ele>
        <time>2021-11-23T12:29:29.000Z</time>
      </trkpt>
      <trkpt lat="45.97671" lon="-1.26675">
        <ele>-4</ele>
        <time>2021-11-23T12:29:32.000Z</time>
      </trkpt>
      <trkpt lat="45.97671" lon="-1.26663">
        <ele>-4</ele>
        <time>2021-11-23T12:29:33.000Z</time>
      </trkpt>
      <trkpt lat="45.97673" lon="-1.26579">
        <ele>-4.4000000953674</ele>
        <time>2021-11-23T12:29:41.000Z</time>
      </trkpt>
      <trkpt lat="45.97674" lon="-1.26568">
        <ele>-4.4000000953674</ele>
        <time>2021-11-23T12:29:42.000Z</time>
      </trkpt>
      <trkpt lat="45.97679" lon="-1.26529">
        <ele>-4.5999999046326</ele>
        <time>2021-11-23T12:29:46.000Z</time>
      </trkpt>
      <trkpt lat="45.97678" lon="-1.26475">
        <ele>-4.8000001907349</ele>
        <time>2021-11-23T12:29:52.000Z</time>
      </trkpt>
      <trkpt lat="45.97677" lon="-1.26458">
        <ele>-4.8000001907349</ele>
        <time>2021-11-23T12:29:54.000Z</time>
      </trkpt>
      <trkpt lat="45.97677" lon="-1.26439">
        <ele>-4.8000001907349</ele>
        <time>2021-11-23T12:29:56.000Z</time>
      </trkpt>
      <trkpt lat="45.97676" lon="-1.26419">
        <ele>-4.8000001907349</ele>
        <time>2021-11-23T12:29:58.000Z</time>
      </trkpt>
      <trkpt lat="45.97677" lon="-1.2639">
        <ele>-4.8000001907349</ele>
        <time>2021-11-23T12:30:01.000Z</time>
      </trkpt>
      <trkpt lat="45.97676" lon="-1.26335">
        <ele>-4.8000001907349</ele>
        <time>2021-11-23T12:30:06.000Z</time>
      </trkpt>
      <trkpt lat="45.97673" lon="-1.26282">
        <ele>-5</ele>
        <time>2021-11-23T12:30:11.000Z</time>
      </trkpt>
      <trkpt lat="45.97671" lon="-1.26272">
        <ele>-4.8000001907349</ele>
        <time>2021-11-23T12:30:12.000Z</time>
      </trkpt>
      <trkpt lat="45.97668" lon="-1.26252">
        <ele>-5</ele>
        <time>2021-11-23T12:30:14.000Z</time>
      </trkpt>
      <trkpt lat="45.97662" lon="-1.26224">
        <ele>-5</ele>
        <time>2021-11-23T12:30:17.000Z</time>
      </trkpt>
      <trkpt lat="45.97659" lon="-1.26207">
        <ele>-5</ele>
        <time>2021-11-23T12:30:19.000Z</time>
      </trkpt>
      <trkpt lat="45.97652" lon="-1.26195">
        <ele>-5</ele>
        <time>2021-11-23T12:30:21.000Z</time>
      </trkpt>
      <trkpt lat="45.97641" lon="-1.2619">
        <ele>-5</ele>
        <time>2021-11-23T12:30:23.000Z</time>
      </trkpt>
      <trkpt lat="45.97636" lon="-1.2619">
        <ele>-5</ele>
        <time>2021-11-23T12:30:24.000Z</time>
      </trkpt>
      <trkpt lat="45.97622" lon="-1.26191">
        <ele>-5</ele>
        <time>2021-11-23T12:30:27.000Z</time>
      </trkpt>
      <trkpt lat="45.97613" lon="-1.26193">
        <ele>-4.8000001907349</ele>
        <time>2021-11-23T12:30:29.000Z</time>
      </trkpt>
      <trkpt lat="45.97608" lon="-1.26193">
        <ele>-4.5999999046326</ele>
        <time>2021-11-23T12:30:30.000Z</time>
      </trkpt>
      <trkpt lat="45.97596" lon="-1.26198">
        <ele>-4.4000000953674</ele>
        <time>2021-11-23T12:30:32.000Z</time>
      </trkpt>
      <trkpt lat="45.97589" lon="-1.26202">
        <ele>-4.4000000953674</ele>
        <time>2021-11-23T12:30:33.000Z</time>
      </trkpt>
      <trkpt lat="45.97575" lon="-1.2621">
        <ele>-4.5999999046326</ele>
        <time>2021-11-23T12:30:35.000Z</time>
      </trkpt>
      <trkpt lat="45.97559" lon="-1.26215">
        <ele>-4.8000001907349</ele>
        <time>2021-11-23T12:30:37.000Z</time>
      </trkpt>
      <trkpt lat="45.97515" lon="-1.26229">
        <ele>-6</ele>
        <time>2021-11-23T12:30:43.000Z</time>
      </trkpt>
      <trkpt lat="45.97506" lon="-1.26233">
        <ele>-6.1999998092651</ele>
        <time>2021-11-23T12:30:44.000Z</time>
      </trkpt>
      <trkpt lat="45.9747" lon="-1.26245">
        <ele>-7.4000000953674</ele>
        <time>2021-11-23T12:30:49.000Z</time>
      </trkpt>
      <trkpt lat="45.97446" lon="-1.26253">
        <ele>-7.8000001907349</ele>
        <time>2021-11-23T12:30:52.000Z</time>
      </trkpt>
      <trkpt lat="45.97401" lon="-1.26268">
        <ele>-8.3999996185303</ele>
        <time>2021-11-23T12:30:58.000Z</time>
      </trkpt>
      <trkpt lat="45.97388" lon="-1.2627">
        <ele>-8.6000003814697</ele>
        <time>2021-11-23T12:31:00.000Z</time>
      </trkpt>
      <trkpt lat="45.97373" lon="-1.26263">
        <ele>-8.8000001907349</ele>
        <time>2021-11-23T12:31:02.000Z</time>
      </trkpt>
      <trkpt lat="45.97368" lon="-1.26258">
        <ele>-9</ele>
        <time>2021-11-23T12:31:03.000Z</time>
      </trkpt>
      <trkpt lat="45.97344" lon="-1.26235">
        <ele>-9.6000003814697</ele>
        <time>2021-11-23T12:31:07.000Z</time>
      </trkpt>
      <trkpt lat="45.97327" lon="-1.26218">
        <ele>-10</ele>
        <time>2021-11-23T12:31:10.000Z</time>
      </trkpt>
      <trkpt lat="45.97308" lon="-1.26198">
        <ele>-10.39999961853</ele>
        <time>2021-11-23T12:31:13.000Z</time>
      </trkpt>
      <trkpt lat="45.97303" lon="-1.26194">
        <ele>-10.800000190735</ele>
        <time>2021-11-23T12:31:14.000Z</time>
      </trkpt>
      <trkpt lat="45.97289" lon="-1.26186">
        <ele>-11.199999809265</ele>
        <time>2021-11-23T12:31:16.000Z</time>
      </trkpt>
      <trkpt lat="45.9728" lon="-1.26182">
        <ele>-11.199999809265</ele>
        <time>2021-11-23T12:31:17.000Z</time>
      </trkpt>
      <trkpt lat="45.97267" lon="-1.2618">
        <ele>-11.60000038147</ele>
        <time>2021-11-23T12:31:19.000Z</time>
      </trkpt>
      <trkpt lat="45.97259" lon="-1.26181">
        <ele>-11.800000190735</ele>
        <time>2021-11-23T12:31:20.000Z</time>
      </trkpt>
      <trkpt lat="45.97243" lon="-1.26183">
        <ele>-12</ele>
        <time>2021-11-23T12:31:22.000Z</time>
      </trkpt>
      <trkpt lat="45.97224" lon="-1.26181">
        <ele>-12</ele>
        <time>2021-11-23T12:31:25.000Z</time>
      </trkpt>
      <trkpt lat="45.97187" lon="-1.26186">
        <ele>-12.199999809265</ele>
        <time>2021-11-23T12:31:30.000Z</time>
      </trkpt>
      <trkpt lat="45.97181" lon="-1.26189">
        <ele>-12.199999809265</ele>
        <time>2021-11-23T12:31:31.000Z</time>
      </trkpt>
      <trkpt lat="45.97172" lon="-1.26193">
        <ele>-12.199999809265</ele>
        <time>2021-11-23T12:31:32.000Z</time>
      </trkpt>
      <trkpt lat="45.97158" lon="-1.26193">
        <ele>-12</ele>
        <time>2021-11-23T12:31:34.000Z</time>
      </trkpt>
      <trkpt lat="45.97137" lon="-1.26192">
        <ele>-12</ele>
        <time>2021-11-23T12:31:37.000Z</time>
      </trkpt>
      <trkpt lat="45.97123" lon="-1.26194">
        <ele>-11.800000190735</ele>
        <time>2021-11-23T12:31:39.000Z</time>
      </trkpt>
      <trkpt lat="45.97111" lon="-1.26196">
        <ele>-11.800000190735</ele>
        <time>2021-11-23T12:31:41.000Z</time>
      </trkpt>
      <trkpt lat="45.97088" lon="-1.26205">
        <ele>-11.60000038147</ele>
        <time>2021-11-23T12:31:44.000Z</time>
      </trkpt>
      <trkpt lat="45.97076" lon="-1.26212">
        <ele>-11.60000038147</ele>
        <time>2021-11-23T12:31:46.000Z</time>
      </trkpt>
      <trkpt lat="45.97054" lon="-1.2622">
        <ele>-11.39999961853</ele>
        <time>2021-11-23T12:31:49.000Z</time>
      </trkpt>
      <trkpt lat="45.97048" lon="-1.2622">
        <ele>-11.39999961853</ele>
        <time>2021-11-23T12:31:50.000Z</time>
      </trkpt>
      <trkpt lat="45.97043" lon="-1.26216">
        <ele>-11.60000038147</ele>
        <time>2021-11-23T12:31:51.000Z</time>
      </trkpt>
      <trkpt lat="45.9704" lon="-1.26209">
        <ele>-11.60000038147</ele>
        <time>2021-11-23T12:31:52.000Z</time>
      </trkpt>
      <trkpt lat="45.97038" lon="-1.26203">
        <ele>-11.800000190735</ele>
        <time>2021-11-23T12:31:53.000Z</time>
      </trkpt>
      <trkpt lat="45.9703" lon="-1.26196">
        <ele>-11.800000190735</ele>
        <time>2021-11-23T12:31:55.000Z</time>
      </trkpt>
      <trkpt lat="45.97015" lon="-1.26201">
        <ele>-12.199999809265</ele>
        <time>2021-11-23T12:31:58.000Z</time>
      </trkpt>
      <trkpt lat="45.96975" lon="-1.2621">
        <ele>-12.39999961853</ele>
        <time>2021-11-23T12:32:04.000Z</time>
      </trkpt>
      <trkpt lat="45.96967" lon="-1.26211">
        <ele>-12.39999961853</ele>
        <time>2021-11-23T12:32:05.000Z</time>
      </trkpt>
      <trkpt lat="45.96939" lon="-1.26211">
        <ele>-12.199999809265</ele>
        <time>2021-11-23T12:32:09.000Z</time>
      </trkpt>
      <trkpt lat="45.96913" lon="-1.26208">
        <ele>-12.60000038147</ele>
        <time>2021-11-23T12:32:13.000Z</time>
      </trkpt>
      <trkpt lat="45.96899" lon="-1.26201">
        <ele>-12.39999961853</ele>
        <time>2021-11-23T12:32:15.000Z</time>
      </trkpt>
      <trkpt lat="45.96874" lon="-1.26184">
        <ele>-12.39999961853</ele>
        <time>2021-11-23T12:32:19.000Z</time>
      </trkpt>
      <trkpt lat="45.96855" lon="-1.26177">
        <ele>-12.39999961853</ele>
        <time>2021-11-23T12:32:22.000Z</time>
      </trkpt>
      <trkpt lat="45.96827" lon="-1.26175">
        <ele>-12</ele>
        <time>2021-11-23T12:32:26.000Z</time>
      </trkpt>
      <trkpt lat="45.9682" lon="-1.26176">
        <ele>-12</ele>
        <time>2021-11-23T12:32:27.000Z</time>
      </trkpt>
      <trkpt lat="45.96806" lon="-1.26176">
        <ele>-12</ele>
        <time>2021-11-23T12:32:29.000Z</time>
      </trkpt>
      <trkpt lat="45.96777" lon="-1.26171">
        <ele>-11.60000038147</ele>
        <time>2021-11-23T12:32:33.000Z</time>
      </trkpt>
      <trkpt lat="45.9674" lon="-1.26165">
        <ele>-11</ele>
        <time>2021-11-23T12:32:38.000Z</time>
      </trkpt>
      <trkpt lat="45.96733" lon="-1.26162">
        <ele>-10.800000190735</ele>
        <time>2021-11-23T12:32:39.000Z</time>
      </trkpt>
      <trkpt lat="45.96727" lon="-1.26159">
        <ele>-10.60000038147</ele>
        <time>2021-11-23T12:32:40.000Z</time>
      </trkpt>
      <trkpt lat="45.96721" lon="-1.26156">
        <ele>-10.60000038147</ele>
        <time>2021-11-23T12:32:41.000Z</time>
      </trkpt>
      <trkpt lat="45.9671" lon="-1.26154">
        <ele>-10.60000038147</ele>
        <time>2021-11-23T12:32:43.000Z</time>
      </trkpt>
      <trkpt lat="45.96705" lon="-1.26158">
        <ele>-10.60000038147</ele>
        <time>2021-11-23T12:32:44.000Z</time>
      </trkpt>
      <trkpt lat="45.96702" lon="-1.26164">
        <ele>-10.60000038147</ele>
        <time>2021-11-23T12:32:45.000Z</time>
      </trkpt>
      <trkpt lat="45.96695" lon="-1.26177">
        <ele>-10.60000038147</ele>
        <time>2021-11-23T12:32:47.000Z</time>
      </trkpt>
      <trkpt lat="45.96686" lon="-1.26182">
        <ele>-10.800000190735</ele>
        <time>2021-11-23T12:32:49.000Z</time>
      </trkpt>
      <trkpt lat="45.96676" lon="-1.2618">
        <ele>-11.39999961853</ele>
        <time>2021-11-23T12:32:51.000Z</time>
      </trkpt>
      <trkpt lat="45.96671" lon="-1.26176">
        <ele>-11.39999961853</ele>
        <time>2021-11-23T12:32:52.000Z</time>
      </trkpt>
      <trkpt lat="45.96668" lon="-1.2617">
        <ele>-11.60000038147</ele>
        <time>2021-11-23T12:32:53.000Z</time>
      </trkpt>
      <trkpt lat="45.96661" lon="-1.26155">
        <ele>-11.800000190735</ele>
        <time>2021-11-23T12:32:55.000Z</time>
      </trkpt>
      <trkpt lat="45.96658" lon="-1.26146">
        <ele>-12</ele>
        <time>2021-11-23T12:32:56.000Z</time>
      </trkpt>
      <trkpt lat="45.96637" lon="-1.26089">
        <ele>-12.60000038147</ele>
        <time>2021-11-23T12:33:03.000Z</time>
      </trkpt>
      <trkpt lat="45.96615" lon="-1.26022">
        <ele>-11.60000038147</ele>
        <time>2021-11-23T12:33:11.000Z</time>
      </trkpt>
      <trkpt lat="45.96604" lon="-1.25969">
        <ele>-10.800000190735</ele>
        <time>2021-11-23T12:33:17.000Z</time>
      </trkpt>
      <trkpt lat="45.96602" lon="-1.25952">
        <ele>-10.60000038147</ele>
        <time>2021-11-23T12:33:19.000Z</time>
      </trkpt>
      <trkpt lat="45.96597" lon="-1.25906">
        <ele>-10</ele>
        <time>2021-11-23T12:33:25.000Z</time>
      </trkpt>
      <trkpt lat="45.96596" lon="-1.2589">
        <ele>-9.6000003814697</ele>
        <time>2021-11-23T12:33:27.000Z</time>
      </trkpt>
      <trkpt lat="45.96596" lon="-1.2585">
        <ele>-9</ele>
        <time>2021-11-23T12:33:32.000Z</time>
      </trkpt>
      <trkpt lat="45.96598" lon="-1.25809">
        <ele>-8.6000003814697</ele>
        <time>2021-11-23T12:33:37.000Z</time>
      </trkpt>
      <trkpt lat="45.96599" lon="-1.25765">
        <ele>-8.3999996185303</ele>
        <time>2021-11-23T12:33:42.000Z</time>
      </trkpt>
      <trkpt lat="45.96602" lon="-1.25684">
        <ele>-9.1999998092651</ele>
        <time>2021-11-23T12:33:52.000Z</time>
      </trkpt>
      <trkpt lat="45.96605" lon="-1.25634">
        <ele>-9</ele>
        <time>2021-11-23T12:33:59.000Z</time>
      </trkpt>
      <trkpt lat="45.96616" lon="-1.25559">
        <ele>-8.8000001907349</ele>
        <time>2021-11-23T12:34:09.000Z</time>
      </trkpt>
      <trkpt lat="45.96627" lon="-1.25496">
        <ele>-8.8000001907349</ele>
        <time>2021-11-23T12:34:17.000Z</time>
      </trkpt>
      <trkpt lat="45.96639" lon="-1.25434">
        <ele>-9.1999998092651</ele>
        <time>2021-11-23T12:34:25.000Z</time>
      </trkpt>
      <trkpt lat="45.96647" lon="-1.25387">
        <ele>-9.3999996185303</ele>
        <time>2021-11-23T12:34:32.000Z</time>
      </trkpt>
      <trkpt lat="45.96648" lon="-1.25373">
        <ele>-9.6000003814697</ele>
        <time>2021-11-23T12:34:35.000Z</time>
      </trkpt>
      <trkpt lat="45.96646" lon="-1.2537">
        <ele>-9.6000003814697</ele>
        <time>2021-11-23T12:34:36.000Z</time>
      </trkpt>
      <trkpt lat="45.96638" lon="-1.25365">
        <ele>-9.6000003814697</ele>
        <time>2021-11-23T12:34:38.000Z</time>
      </trkpt>
      <trkpt lat="45.96628" lon="-1.25361">
        <ele>-9.3999996185303</ele>
        <time>2021-11-23T12:34:40.000Z</time>
      </trkpt>
      <trkpt lat="45.96593" lon="-1.25348">
        <ele>-9.3999996185303</ele>
        <time>2021-11-23T12:34:46.000Z</time>
      </trkpt>
      <trkpt lat="45.96563" lon="-1.25339">
        <ele>-9.6000003814697</ele>
        <time>2021-11-23T12:34:51.000Z</time>
      </trkpt>
      <trkpt lat="45.96558" lon="-1.25338">
        <ele>-9.6000003814697</ele>
        <time>2021-11-23T12:34:52.000Z</time>
      </trkpt>
      <trkpt lat="45.96552" lon="-1.25337">
        <ele>-9.6000003814697</ele>
        <time>2021-11-23T12:34:53.000Z</time>
      </trkpt>
      <trkpt lat="45.96544" lon="-1.25333">
        <ele>-9.6000003814697</ele>
        <time>2021-11-23T12:34:55.000Z</time>
      </trkpt>
      <trkpt lat="45.96536" lon="-1.25313">
        <ele>-9.6000003814697</ele>
        <time>2021-11-23T12:34:58.000Z</time>
      </trkpt>
      <trkpt lat="45.96533" lon="-1.25305">
        <ele>-9.6000003814697</ele>
        <time>2021-11-23T12:34:59.000Z</time>
      </trkpt>
      <trkpt lat="45.96522" lon="-1.25281">
        <ele>-9.3999996185303</ele>
        <time>2021-11-23T12:35:02.000Z</time>
      </trkpt>
      <trkpt lat="45.96487" lon="-1.25223">
        <ele>-10.60000038147</ele>
        <time>2021-11-23T12:35:10.000Z</time>
      </trkpt>
      <trkpt lat="45.96459" lon="-1.25175">
        <ele>-11.199999809265</ele>
        <time>2021-11-23T12:35:17.000Z</time>
      </trkpt>
      <trkpt lat="45.96427" lon="-1.2512">
        <ele>-11.199999809265</ele>
        <time>2021-11-23T12:35:25.000Z</time>
      </trkpt>
      <trkpt lat="45.96389" lon="-1.25063">
        <ele>-11.199999809265</ele>
        <time>2021-11-23T12:35:33.000Z</time>
      </trkpt>
      <trkpt lat="45.96384" lon="-1.25057">
        <ele>-11.199999809265</ele>
        <time>2021-11-23T12:35:34.000Z</time>
      </trkpt>
      <trkpt lat="45.96364" lon="-1.25033">
        <ele>-11.60000038147</ele>
        <time>2021-11-23T12:35:38.000Z</time>
      </trkpt>
      <trkpt lat="45.96348" lon="-1.25018">
        <ele>-12</ele>
        <time>2021-11-23T12:35:41.000Z</time>
      </trkpt>
      <trkpt lat="45.96335" lon="-1.25015">
        <ele>-11.800000190735</ele>
        <time>2021-11-23T12:35:43.000Z</time>
      </trkpt>
      <trkpt lat="45.96322" lon="-1.25012">
        <ele>-11.60000038147</ele>
        <time>2021-11-23T12:35:45.000Z</time>
      </trkpt>
      <trkpt lat="45.96312" lon="-1.25002">
        <ele>-11.39999961853</ele>
        <time>2021-11-23T12:35:47.000Z</time>
      </trkpt>
      <trkpt lat="45.96308" lon="-1.24996">
        <ele>-11.39999961853</ele>
        <time>2021-11-23T12:35:48.000Z</time>
      </trkpt>
      <trkpt lat="45.963" lon="-1.24983">
        <ele>-11.39999961853</ele>
        <time>2021-11-23T12:35:50.000Z</time>
      </trkpt>
      <trkpt lat="45.96289" lon="-1.24973">
        <ele>-11.39999961853</ele>
        <time>2021-11-23T12:35:52.000Z</time>
      </trkpt>
      <trkpt lat="45.96279" lon="-1.24965">
        <ele>-11.60000038147</ele>
        <time>2021-11-23T12:35:54.000Z</time>
      </trkpt>
      <trkpt lat="45.96277" lon="-1.24959">
        <ele>-11.60000038147</ele>
        <time>2021-11-23T12:35:55.000Z</time>
      </trkpt>
      <trkpt lat="45.96278" lon="-1.24953">
        <ele>-11.800000190735</ele>
        <time>2021-11-23T12:35:56.000Z</time>
      </trkpt>
      <trkpt lat="45.96281" lon="-1.24947">
        <ele>-11.800000190735</ele>
        <time>2021-11-23T12:35:57.000Z</time>
      </trkpt>
      <trkpt lat="45.96289" lon="-1.24936">
        <ele>-12</ele>
        <time>2021-11-23T12:35:59.000Z</time>
      </trkpt>
      <trkpt lat="45.96298" lon="-1.24925">
        <ele>-12</ele>
        <time>2021-11-23T12:36:01.000Z</time>
      </trkpt>
      <trkpt lat="45.96303" lon="-1.2492">
        <ele>-12</ele>
        <time>2021-11-23T12:36:02.000Z</time>
      </trkpt>
      <trkpt lat="45.96336" lon="-1.2488">
        <ele>-11.60000038147</ele>
        <time>2021-11-23T12:36:09.000Z</time>
      </trkpt>
      <trkpt lat="45.96359" lon="-1.24854">
        <ele>-11.60000038147</ele>
        <time>2021-11-23T12:36:14.000Z</time>
      </trkpt>
      <trkpt lat="45.96364" lon="-1.24849">
        <ele>-11.60000038147</ele>
        <time>2021-11-23T12:36:15.000Z</time>
      </trkpt>
      <trkpt lat="45.96374" lon="-1.2484">
        <ele>-11.39999961853</ele>
        <time>2021-11-23T12:36:17.000Z</time>
      </trkpt>
      <trkpt lat="45.96383" lon="-1.24827">
        <ele>-11.199999809265</ele>
        <time>2021-11-23T12:36:19.000Z</time>
      </trkpt>
      <trkpt lat="45.96387" lon="-1.2482">
        <ele>-10.800000190735</ele>
        <time>2021-11-23T12:36:20.000Z</time>
      </trkpt>
      <trkpt lat="45.96389" lon="-1.24812">
        <ele>-10.60000038147</ele>
        <time>2021-11-23T12:36:21.000Z</time>
      </trkpt>
      <trkpt lat="45.96385" lon="-1.24799">
        <ele>-10.39999961853</ele>
        <time>2021-11-23T12:36:23.000Z</time>
      </trkpt>
      <trkpt lat="45.96372" lon="-1.24789">
        <ele>-10.39999961853</ele>
        <time>2021-11-23T12:36:26.000Z</time>
      </trkpt>
      <trkpt lat="45.96369" lon="-1.24784">
        <ele>-10.39999961853</ele>
        <time>2021-11-23T12:36:27.000Z</time>
      </trkpt>
      <trkpt lat="45.96367" lon="-1.24778">
        <ele>-10.39999961853</ele>
        <time>2021-11-23T12:36:28.000Z</time>
      </trkpt>
      <trkpt lat="45.96366" lon="-1.24764">
        <ele>-10.39999961853</ele>
        <time>2021-11-23T12:36:30.000Z</time>
      </trkpt>
      <trkpt lat="45.96366" lon="-1.24757">
        <ele>-10.39999961853</ele>
        <time>2021-11-23T12:36:31.000Z</time>
      </trkpt>
      <trkpt lat="45.96368" lon="-1.24743">
        <ele>-10.39999961853</ele>
        <time>2021-11-23T12:36:33.000Z</time>
      </trkpt>
      <trkpt lat="45.9637" lon="-1.24736">
        <ele>-10.39999961853</ele>
        <time>2021-11-23T12:36:34.000Z</time>
      </trkpt>
      <trkpt lat="45.96381" lon="-1.247">
        <ele>-10.60000038147</ele>
        <time>2021-11-23T12:36:39.000Z</time>
      </trkpt>
      <trkpt lat="45.96385" lon="-1.24685">
        <ele>-10.60000038147</ele>
        <time>2021-11-23T12:36:41.000Z</time>
      </trkpt>
      <trkpt lat="45.96391" lon="-1.24668">
        <ele>-10.60000038147</ele>
        <time>2021-11-23T12:36:43.000Z</time>
      </trkpt>
      <trkpt lat="45.96392" lon="-1.24653">
        <ele>-11</ele>
        <time>2021-11-23T12:36:45.000Z</time>
      </trkpt>
      <trkpt lat="45.96382" lon="-1.24622">
        <ele>-11</ele>
        <time>2021-11-23T12:36:49.000Z</time>
      </trkpt>
      <trkpt lat="45.96377" lon="-1.24608">
        <ele>-11</ele>
        <time>2021-11-23T12:36:51.000Z</time>
      </trkpt>
      <trkpt lat="45.96377" lon="-1.24601">
        <ele>-11</ele>
        <time>2021-11-23T12:36:52.000Z</time>
      </trkpt>
      <trkpt lat="45.96379" lon="-1.24595">
        <ele>-11</ele>
        <time>2021-11-23T12:36:53.000Z</time>
      </trkpt>
      <trkpt lat="45.96385" lon="-1.24582">
        <ele>-11</ele>
        <time>2021-11-23T12:36:55.000Z</time>
      </trkpt>
      <trkpt lat="45.96413" lon="-1.24541">
        <ele>-10.199999809265</ele>
        <time>2021-11-23T12:37:02.000Z</time>
      </trkpt>
      <trkpt lat="45.96428" lon="-1.24517">
        <ele>-9.3999996185303</ele>
        <time>2021-11-23T12:37:06.000Z</time>
      </trkpt>
      <trkpt lat="45.96447" lon="-1.24489">
        <ele>-8.6000003814697</ele>
        <time>2021-11-23T12:37:11.000Z</time>
      </trkpt>
      <trkpt lat="45.9645" lon="-1.24483">
        <ele>-8.6000003814697</ele>
        <time>2021-11-23T12:37:12.000Z</time>
      </trkpt>
      <trkpt lat="45.96453" lon="-1.24478">
        <ele>-8.3999996185303</ele>
        <time>2021-11-23T12:37:13.000Z</time>
      </trkpt>
      <trkpt lat="45.96454" lon="-1.24468">
        <ele>-8.1999998092651</ele>
        <time>2021-11-23T12:37:15.000Z</time>
      </trkpt>
      <trkpt lat="45.96449" lon="-1.24457">
        <ele>-8</ele>
        <time>2021-11-23T12:37:17.000Z</time>
      </trkpt>
      <trkpt lat="45.96444" lon="-1.24452">
        <ele>-8</ele>
        <time>2021-11-23T12:37:18.000Z</time>
      </trkpt>
      <trkpt lat="45.96431" lon="-1.24437">
        <ele>-7.4000000953674</ele>
        <time>2021-11-23T12:37:21.000Z</time>
      </trkpt>
      <trkpt lat="45.96422" lon="-1.24426">
        <ele>-7.1999998092651</ele>
        <time>2021-11-23T12:37:23.000Z</time>
      </trkpt>
      <trkpt lat="45.96418" lon="-1.24421">
        <ele>-7.1999998092651</ele>
        <time>2021-11-23T12:37:24.000Z</time>
      </trkpt>
      <trkpt lat="45.96407" lon="-1.24417">
        <ele>-6.8000001907349</ele>
        <time>2021-11-23T12:37:26.000Z</time>
      </trkpt>
      <trkpt lat="45.96402" lon="-1.2442">
        <ele>-6.5999999046326</ele>
        <time>2021-11-23T12:37:27.000Z</time>
      </trkpt>
      <trkpt lat="45.96397" lon="-1.24426">
        <ele>-6.4000000953674</ele>
        <time>2021-11-23T12:37:28.000Z</time>
      </trkpt>
      <trkpt lat="45.96387" lon="-1.24439">
        <ele>-6.1999998092651</ele>
        <time>2021-11-23T12:37:30.000Z</time>
      </trkpt>
      <trkpt lat="45.96383" lon="-1.24447">
        <ele>-6.1999998092651</ele>
        <time>2021-11-23T12:37:31.000Z</time>
      </trkpt>
      <trkpt lat="45.96345" lon="-1.2451">
        <ele>-6.8000001907349</ele>
        <time>2021-11-23T12:37:39.000Z</time>
      </trkpt>
      <trkpt lat="45.96309" lon="-1.2457">
        <ele>-7.1999998092651</ele>
        <time>2021-11-23T12:37:46.000Z</time>
      </trkpt>
      <trkpt lat="45.96304" lon="-1.24578">
        <ele>-7.1999998092651</ele>
        <time>2021-11-23T12:37:47.000Z</time>
      </trkpt>
      <trkpt lat="45.96299" lon="-1.24587">
        <ele>-7.4000000953674</ele>
        <time>2021-11-23T12:37:48.000Z</time>
      </trkpt>
      <trkpt lat="45.96262" lon="-1.24649">
        <ele>-7.8000001907349</ele>
        <time>2021-11-23T12:37:55.000Z</time>
      </trkpt>
      <trkpt lat="45.96246" lon="-1.24677">
        <ele>-8</ele>
        <time>2021-11-23T12:37:58.000Z</time>
      </trkpt>
      <trkpt lat="45.96235" lon="-1.24695">
        <ele>-8.3999996185303</ele>
        <time>2021-11-23T12:38:00.000Z</time>
      </trkpt>
      <trkpt lat="45.96208" lon="-1.2474">
        <ele>-8.6000003814697</ele>
        <time>2021-11-23T12:38:05.000Z</time>
      </trkpt>
      <trkpt lat="45.96171" lon="-1.24802">
        <ele>-8.8000001907349</ele>
        <time>2021-11-23T12:38:12.000Z</time>
      </trkpt>
      <trkpt lat="45.96149" lon="-1.24838">
        <ele>-8.6000003814697</ele>
        <time>2021-11-23T12:38:16.000Z</time>
      </trkpt>
      <trkpt lat="45.96114" lon="-1.2489">
        <ele>-8.8000001907349</ele>
        <time>2021-11-23T12:38:22.000Z</time>
      </trkpt>
      <trkpt lat="45.96107" lon="-1.24897">
        <ele>-9</ele>
        <time>2021-11-23T12:38:23.000Z</time>
      </trkpt>
      <trkpt lat="45.961" lon="-1.24903">
        <ele>-9</ele>
        <time>2021-11-23T12:38:24.000Z</time>
      </trkpt>
      <trkpt lat="45.96084" lon="-1.24911">
        <ele>-9</ele>
        <time>2021-11-23T12:38:26.000Z</time>
      </trkpt>
      <trkpt lat="45.96076" lon="-1.24914">
        <ele>-9.1999998092651</ele>
        <time>2021-11-23T12:38:27.000Z</time>
      </trkpt>
      <trkpt lat="45.96052" lon="-1.24919">
        <ele>-9.1999998092651</ele>
        <time>2021-11-23T12:38:30.000Z</time>
      </trkpt>
      <trkpt lat="45.96045" lon="-1.24924">
        <ele>-9.1999998092651</ele>
        <time>2021-11-23T12:38:31.000Z</time>
      </trkpt>
      <trkpt lat="45.96039" lon="-1.24932">
        <ele>-9.1999998092651</ele>
        <time>2021-11-23T12:38:32.000Z</time>
      </trkpt>
      <trkpt lat="45.96036" lon="-1.24953">
        <ele>-9.1999998092651</ele>
        <time>2021-11-23T12:38:34.000Z</time>
      </trkpt>
      <trkpt lat="45.96035" lon="-1.25001">
        <ele>-9.3999996185303</ele>
        <time>2021-11-23T12:38:38.000Z</time>
      </trkpt>
      <trkpt lat="45.96032" lon="-1.25036">
        <ele>-9.6000003814697</ele>
        <time>2021-11-23T12:38:41.000Z</time>
      </trkpt>
      <trkpt lat="45.96022" lon="-1.25079">
        <ele>-10</ele>
        <time>2021-11-23T12:38:45.000Z</time>
      </trkpt>
      <trkpt lat="45.96019" lon="-1.25089">
        <ele>-10</ele>
        <time>2021-11-23T12:38:46.000Z</time>
      </trkpt>
      <trkpt lat="45.95991" lon="-1.25161">
        <ele>-10</ele>
        <time>2021-11-23T12:38:53.000Z</time>
      </trkpt>
      <trkpt lat="45.95984" lon="-1.25218">
        <ele>-9.6000003814697</ele>
        <time>2021-11-23T12:38:58.000Z</time>
      </trkpt>
      <trkpt lat="45.95985" lon="-1.25241">
        <ele>-9.6000003814697</ele>
        <time>2021-11-23T12:39:00.000Z</time>
      </trkpt>
      <trkpt lat="45.95991" lon="-1.25276">
        <ele>-9.3999996185303</ele>
        <time>2021-11-23T12:39:03.000Z</time>
      </trkpt>
      <trkpt lat="45.96005" lon="-1.25357">
        <ele>-9.3999996185303</ele>
        <time>2021-11-23T12:39:10.000Z</time>
      </trkpt>
      <trkpt lat="45.9601" lon="-1.2538">
        <ele>-9.3999996185303</ele>
        <time>2021-11-23T12:39:12.000Z</time>
      </trkpt>
      <trkpt lat="45.9601" lon="-1.25392">
        <ele>-9.3999996185303</ele>
        <time>2021-11-23T12:39:13.000Z</time>
      </trkpt>
      <trkpt lat="45.96008" lon="-1.25403">
        <ele>-9.8000001907349</ele>
        <time>2021-11-23T12:39:14.000Z</time>
      </trkpt>
      <trkpt lat="45.96004" lon="-1.25413">
        <ele>-9.6000003814697</ele>
        <time>2021-11-23T12:39:15.000Z</time>
      </trkpt>
      <trkpt lat="45.95998" lon="-1.25421">
        <ele>-9.6000003814697</ele>
        <time>2021-11-23T12:39:16.000Z</time>
      </trkpt>
      <trkpt lat="45.95956" lon="-1.25462">
        <ele>-9.8000001907349</ele>
        <time>2021-11-23T12:39:22.000Z</time>
      </trkpt>
      <trkpt lat="45.95907" lon="-1.25511">
        <ele>-9.8000001907349</ele>
        <time>2021-11-23T12:39:29.000Z</time>
      </trkpt>
      <trkpt lat="45.95893" lon="-1.25525">
        <ele>-10</ele>
        <time>2021-11-23T12:39:31.000Z</time>
      </trkpt>
      <trkpt lat="45.95846" lon="-1.25574">
        <ele>-9.8000001907349</ele>
        <time>2021-11-23T12:39:38.000Z</time>
      </trkpt>
      <trkpt lat="45.95833" lon="-1.25589">
        <ele>-9.8000001907349</ele>
        <time>2021-11-23T12:39:40.000Z</time>
      </trkpt>
      <trkpt lat="45.95791" lon="-1.25645">
        <ele>-9</ele>
        <time>2021-11-23T12:39:47.000Z</time>
      </trkpt>
      <trkpt lat="45.95786" lon="-1.25654">
        <ele>-9</ele>
        <time>2021-11-23T12:39:48.000Z</time>
      </trkpt>
      <trkpt lat="45.95749" lon="-1.25713">
        <ele>-8.8000001907349</ele>
        <time>2021-11-23T12:39:55.000Z</time>
      </trkpt>
      <trkpt lat="45.95738" lon="-1.2573">
        <ele>-8.8000001907349</ele>
        <time>2021-11-23T12:39:57.000Z</time>
      </trkpt>
      <trkpt lat="45.95699" lon="-1.25797">
        <ele>-9</ele>
        <time>2021-11-23T12:40:05.000Z</time>
      </trkpt>
      <trkpt lat="45.95689" lon="-1.25802">
        <ele>-8.8000001907349</ele>
        <time>2021-11-23T12:40:07.000Z</time>
      </trkpt>
      <trkpt lat="45.95685" lon="-1.25801">
        <ele>-8.8000001907349</ele>
        <time>2021-11-23T12:40:08.000Z</time>
      </trkpt>
      <trkpt lat="45.95681" lon="-1.25798">
        <ele>-8.6000003814697</ele>
        <time>2021-11-23T12:40:09.000Z</time>
      </trkpt>
      <trkpt lat="45.95674" lon="-1.2579">
        <ele>-8.6000003814697</ele>
        <time>2021-11-23T12:40:11.000Z</time>
      </trkpt>
      <trkpt lat="45.95668" lon="-1.25781">
        <ele>-8.1999998092651</ele>
        <time>2021-11-23T12:40:13.000Z</time>
      </trkpt>
      <trkpt lat="45.95658" lon="-1.2577">
        <ele>-7.8000001907349</ele>
        <time>2021-11-23T12:40:16.000Z</time>
      </trkpt>
      <trkpt lat="45.95649" lon="-1.25761">
        <ele>-7.8000001907349</ele>
        <time>2021-11-23T12:40:18.000Z</time>
      </trkpt>
      <trkpt lat="45.9564" lon="-1.25751">
        <ele>-7.8000001907349</ele>
        <time>2021-11-23T12:40:20.000Z</time>
      </trkpt>
      <trkpt lat="45.95631" lon="-1.25738">
        <ele>-7.8000001907349</ele>
        <time>2021-11-23T12:40:22.000Z</time>
      </trkpt>
      <trkpt lat="45.95622" lon="-1.25724">
        <ele>-7.8000001907349</ele>
        <time>2021-11-23T12:40:24.000Z</time>
      </trkpt>
      <trkpt lat="45.95614" lon="-1.25711">
        <ele>-7.8000001907349</ele>
        <time>2021-11-23T12:40:26.000Z</time>
      </trkpt>
      <trkpt lat="45.95598" lon="-1.25691">
        <ele>-7.5999999046326</ele>
        <time>2021-11-23T12:40:29.000Z</time>
      </trkpt>
      <trkpt lat="45.95583" lon="-1.25675">
        <ele>-7.5999999046326</ele>
        <time>2021-11-23T12:40:32.000Z</time>
      </trkpt>
      <trkpt lat="45.95571" lon="-1.25665">
        <ele>-7.1999998092651</ele>
        <time>2021-11-23T12:40:34.000Z</time>
      </trkpt>
      <trkpt lat="45.95565" lon="-1.25659">
        <ele>-7.1999998092651</ele>
        <time>2021-11-23T12:40:35.000Z</time>
      </trkpt>
      <trkpt lat="45.9556" lon="-1.25653">
        <ele>-6.8000001907349</ele>
        <time>2021-11-23T12:40:36.000Z</time>
      </trkpt>
      <trkpt lat="45.95531" lon="-1.25628">
        <ele>-6.4000000953674</ele>
        <time>2021-11-23T12:40:41.000Z</time>
      </trkpt>
      <trkpt lat="45.95491" lon="-1.25589">
        <ele>-6.1999998092651</ele>
        <time>2021-11-23T12:40:48.000Z</time>
      </trkpt>
      <trkpt lat="45.95469" lon="-1.25568">
        <ele>-6</ele>
        <time>2021-11-23T12:40:52.000Z</time>
      </trkpt>
      <trkpt lat="45.9546" lon="-1.25558">
        <ele>-6</ele>
        <time>2021-11-23T12:40:54.000Z</time>
      </trkpt>
      <trkpt lat="45.9545" lon="-1.2555">
        <ele>-5.8000001907349</ele>
        <time>2021-11-23T12:40:56.000Z</time>
      </trkpt>
      <trkpt lat="45.95442" lon="-1.25547">
        <ele>-5.5999999046326</ele>
        <time>2021-11-23T12:40:58.000Z</time>
      </trkpt>
      <trkpt lat="45.95418" lon="-1.25557">
        <ele>-5.4000000953674</ele>
        <time>2021-11-23T12:41:02.000Z</time>
      </trkpt>
      <trkpt lat="45.95404" lon="-1.25572">
        <ele>-5.1999998092651</ele>
        <time>2021-11-23T12:41:05.000Z</time>
      </trkpt>
      <trkpt lat="45.954" lon="-1.25574">
        <ele>-5.1999998092651</ele>
        <time>2021-11-23T12:41:06.000Z</time>
      </trkpt>
      <trkpt lat="45.95392" lon="-1.25574">
        <ele>-5</ele>
        <time>2021-11-23T12:41:08.000Z</time>
      </trkpt>
      <trkpt lat="45.9537" lon="-1.25554">
        <ele>-4.8000001907349</ele>
        <time>2021-11-23T12:41:13.000Z</time>
      </trkpt>
      <trkpt lat="45.95354" lon="-1.25543">
        <ele>-4.5999999046326</ele>
        <time>2021-11-23T12:41:16.000Z</time>
      </trkpt>
      <trkpt lat="45.95348" lon="-1.25538">
        <ele>-4.5999999046326</ele>
        <time>2021-11-23T12:41:17.000Z</time>
      </trkpt>
      <trkpt lat="45.95325" lon="-1.25518">
        <ele>-4.1999998092651</ele>
        <time>2021-11-23T12:41:21.000Z</time>
      </trkpt>
      <trkpt lat="45.95319" lon="-1.25513">
        <ele>-4.1999998092651</ele>
        <time>2021-11-23T12:41:22.000Z</time>
      </trkpt>
      <trkpt lat="45.95289" lon="-1.25492">
        <ele>-3.5999999046326</ele>
        <time>2021-11-23T12:41:27.000Z</time>
      </trkpt>
      <trkpt lat="45.95279" lon="-1.25483">
        <ele>-3.5999999046326</ele>
        <time>2021-11-23T12:41:29.000Z</time>
      </trkpt>
      <trkpt lat="45.95269" lon="-1.25475">
        <ele>-3.5999999046326</ele>
        <time>2021-11-23T12:41:31.000Z</time>
      </trkpt>
      <trkpt lat="45.95263" lon="-1.25472">
        <ele>-3.5999999046326</ele>
        <time>2021-11-23T12:41:32.000Z</time>
      </trkpt>
      <trkpt lat="45.95259" lon="-1.25468">
        <ele>-3.4000000953674</ele>
        <time>2021-11-23T12:41:33.000Z</time>
      </trkpt>
      <trkpt lat="45.95231" lon="-1.25444">
        <ele>-2.7999999523163</ele>
        <time>2021-11-23T12:41:38.000Z</time>
      </trkpt>
      <trkpt lat="45.95226" lon="-1.25438">
        <ele>-2.7999999523163</ele>
        <time>2021-11-23T12:41:39.000Z</time>
      </trkpt>
      <trkpt lat="45.9521" lon="-1.25429">
        <ele>-2.5999999046326</ele>
        <time>2021-11-23T12:41:43.000Z</time>
      </trkpt>
      <trkpt lat="45.95208" lon="-1.25436">
        <ele>-2.5999999046326</ele>
        <time>2021-11-23T12:41:45.000Z</time>
      </trkpt>
      <trkpt lat="45.9521" lon="-1.25448">
        <ele>-2.5999999046326</ele>
        <time>2021-11-23T12:41:47.000Z</time>
      </trkpt>
      <trkpt lat="45.95213" lon="-1.25464">
        <ele>-2.4000000953674</ele>
        <time>2021-11-23T12:41:49.000Z</time>
      </trkpt>
      <trkpt lat="45.95219" lon="-1.2551">
        <ele>-2.4000000953674</ele>
        <time>2021-11-23T12:41:54.000Z</time>
      </trkpt>
      <trkpt lat="45.95223" lon="-1.25538">
        <ele>-2.2000000476837</ele>
        <time>2021-11-23T12:41:57.000Z</time>
      </trkpt>
      <trkpt lat="45.95221" lon="-1.25559">
        <ele>-2.2000000476837</ele>
        <time>2021-11-23T12:41:59.000Z</time>
      </trkpt>
      <trkpt lat="45.95214" lon="-1.25577">
        <ele>-2.2000000476837</ele>
        <time>2021-11-23T12:42:01.000Z</time>
      </trkpt>
      <trkpt lat="45.95208" lon="-1.25596">
        <ele>-2.4000000953674</ele>
        <time>2021-11-23T12:42:03.000Z</time>
      </trkpt>
      <trkpt lat="45.95208" lon="-1.25613">
        <ele>-2.2000000476837</ele>
        <time>2021-11-23T12:42:05.000Z</time>
      </trkpt>
      <trkpt lat="45.95211" lon="-1.25622">
        <ele>-2.4000000953674</ele>
        <time>2021-11-23T12:42:06.000Z</time>
      </trkpt>
      <trkpt lat="45.95215" lon="-1.2563">
        <ele>-2.4000000953674</ele>
        <time>2021-11-23T12:42:07.000Z</time>
      </trkpt>
      <trkpt lat="45.95233" lon="-1.25661">
        <ele>-2.5999999046326</ele>
        <time>2021-11-23T12:42:11.000Z</time>
      </trkpt>
      <trkpt lat="45.95261" lon="-1.25714">
        <ele>-2.5999999046326</ele>
        <time>2021-11-23T12:42:18.000Z</time>
      </trkpt>
      <trkpt lat="45.95268" lon="-1.25731">
        <ele>-2.5999999046326</ele>
        <time>2021-11-23T12:42:20.000Z</time>
      </trkpt>
      <trkpt lat="45.9528" lon="-1.25767">
        <ele>-2.5999999046326</ele>
        <time>2021-11-23T12:42:24.000Z</time>
      </trkpt>
      <trkpt lat="45.953" lon="-1.2583">
        <ele>-2.2000000476837</ele>
        <time>2021-11-23T12:42:31.000Z</time>
      </trkpt>
      <trkpt lat="45.95318" lon="-1.25885">
        <ele>-1.3999999761581</ele>
        <time>2021-11-23T12:42:37.000Z</time>
      </trkpt>
      <trkpt lat="45.95322" lon="-1.25893">
        <ele>-1.3999999761581</ele>
        <time>2021-11-23T12:42:38.000Z</time>
      </trkpt>
      <trkpt lat="45.95335" lon="-1.25917">
        <ele>-2</ele>
        <time>2021-11-23T12:42:41.000Z</time>
      </trkpt>
      <trkpt lat="45.9534" lon="-1.25935">
        <ele>-2</ele>
        <time>2021-11-23T12:42:43.000Z</time>
      </trkpt>
      <trkpt lat="45.95336" lon="-1.25951">
        <ele>-2.2000000476837</ele>
        <time>2021-11-23T12:42:45.000Z</time>
      </trkpt>
      <trkpt lat="45.9532" lon="-1.25969">
        <ele>-2</ele>
        <time>2021-11-23T12:42:48.000Z</time>
      </trkpt>
      <trkpt lat="45.95314" lon="-1.25974">
        <ele>-2</ele>
        <time>2021-11-23T12:42:49.000Z</time>
      </trkpt>
      <trkpt lat="45.95271" lon="-1.26014">
        <ele>-2.4000000953674</ele>
        <time>2021-11-23T12:42:56.000Z</time>
      </trkpt>
      <trkpt lat="45.9522" lon="-1.2606">
        <ele>-2.5999999046326</ele>
        <time>2021-11-23T12:43:04.000Z</time>
      </trkpt>
      <trkpt lat="45.95214" lon="-1.26066">
        <ele>-2.5999999046326</ele>
        <time>2021-11-23T12:43:05.000Z</time>
      </trkpt>
      <trkpt lat="45.95171" lon="-1.26105">
        <ele>-2.5999999046326</ele>
        <time>2021-11-23T12:43:12.000Z</time>
      </trkpt>
      <trkpt lat="45.95159" lon="-1.26116">
        <ele>-2.7999999523163</ele>
        <time>2021-11-23T12:43:14.000Z</time>
      </trkpt>
      <trkpt lat="45.95141" lon="-1.26133">
        <ele>-3</ele>
        <time>2021-11-23T12:43:17.000Z</time>
      </trkpt>
      <trkpt lat="45.95128" lon="-1.26143">
        <ele>-3</ele>
        <time>2021-11-23T12:43:19.000Z</time>
      </trkpt>
      <trkpt lat="45.95121" lon="-1.26145">
        <ele>-3</ele>
        <time>2021-11-23T12:43:20.000Z</time>
      </trkpt>
      <trkpt lat="45.95106" lon="-1.26147">
        <ele>-2.7999999523163</ele>
        <time>2021-11-23T12:43:22.000Z</time>
      </trkpt>
      <trkpt lat="45.95095" lon="-1.2616">
        <ele>-2.7999999523163</ele>
        <time>2021-11-23T12:43:24.000Z</time>
      </trkpt>
      <trkpt lat="45.95091" lon="-1.26181">
        <ele>-3</ele>
        <time>2021-11-23T12:43:26.000Z</time>
      </trkpt>
      <trkpt lat="45.9509" lon="-1.26192">
        <ele>-3</ele>
        <time>2021-11-23T12:43:27.000Z</time>
      </trkpt>
      <trkpt lat="45.9509" lon="-1.26203">
        <ele>-3.2000000476837</ele>
        <time>2021-11-23T12:43:28.000Z</time>
      </trkpt>
      <trkpt lat="45.95086" lon="-1.26225">
        <ele>-3.2000000476837</ele>
        <time>2021-11-23T12:43:30.000Z</time>
      </trkpt>
      <trkpt lat="45.95082" lon="-1.26247">
        <ele>-3.2000000476837</ele>
        <time>2021-11-23T12:43:32.000Z</time>
      </trkpt>
      <trkpt lat="45.95077" lon="-1.26269">
        <ele>-3.5999999046326</ele>
        <time>2021-11-23T12:43:34.000Z</time>
      </trkpt>
      <trkpt lat="45.95067" lon="-1.26286">
        <ele>-3.7999999523163</ele>
        <time>2021-11-23T12:43:36.000Z</time>
      </trkpt>
      <trkpt lat="45.95051" lon="-1.26292">
        <ele>-3.5999999046326</ele>
        <time>2021-11-23T12:43:38.000Z</time>
      </trkpt>
      <trkpt lat="45.95027" lon="-1.26285">
        <ele>-3.7999999523163</ele>
        <time>2021-11-23T12:43:41.000Z</time>
      </trkpt>
      <trkpt lat="45.9502" lon="-1.26281">
        <ele>-3.7999999523163</ele>
        <time>2021-11-23T12:43:42.000Z</time>
      </trkpt>
      <trkpt lat="45.95005" lon="-1.26272">
        <ele>-4</ele>
        <time>2021-11-23T12:43:44.000Z</time>
      </trkpt>
      <trkpt lat="45.94993" lon="-1.26258">
        <ele>-4.1999998092651</ele>
        <time>2021-11-23T12:43:46.000Z</time>
      </trkpt>
      <trkpt lat="45.94981" lon="-1.26243">
        <ele>-4.4000000953674</ele>
        <time>2021-11-23T12:43:48.000Z</time>
      </trkpt>
      <trkpt lat="45.94967" lon="-1.26237">
        <ele>-4.5999999046326</ele>
        <time>2021-11-23T12:43:50.000Z</time>
      </trkpt>
      <trkpt lat="45.94952" lon="-1.26243">
        <ele>-4.5999999046326</ele>
        <time>2021-11-23T12:43:52.000Z</time>
      </trkpt>
      <trkpt lat="45.94946" lon="-1.26249">
        <ele>-4.5999999046326</ele>
        <time>2021-11-23T12:43:53.000Z</time>
      </trkpt>
      <trkpt lat="45.94932" lon="-1.26258">
        <ele>-4.5999999046326</ele>
        <time>2021-11-23T12:43:55.000Z</time>
      </trkpt>
      <trkpt lat="45.94924" lon="-1.26259">
        <ele>-4.8000001907349</ele>
        <time>2021-11-23T12:43:56.000Z</time>
      </trkpt>
      <trkpt lat="45.94916" lon="-1.26258">
        <ele>-4.8000001907349</ele>
        <time>2021-11-23T12:43:57.000Z</time>
      </trkpt>
      <trkpt lat="45.94901" lon="-1.26258">
        <ele>-5</ele>
        <time>2021-11-23T12:43:59.000Z</time>
      </trkpt>
      <trkpt lat="45.94894" lon="-1.26261">
        <ele>-5</ele>
        <time>2021-11-23T12:44:00.000Z</time>
      </trkpt>
      <trkpt lat="45.94887" lon="-1.26267">
        <ele>-5</ele>
        <time>2021-11-23T12:44:01.000Z</time>
      </trkpt>
      <trkpt lat="45.94876" lon="-1.2628">
        <ele>-5</ele>
        <time>2021-11-23T12:44:03.000Z</time>
      </trkpt>
      <trkpt lat="45.94835" lon="-1.26328">
        <ele>-5</ele>
        <time>2021-11-23T12:44:10.000Z</time>
      </trkpt>
      <trkpt lat="45.9483" lon="-1.2635">
        <ele>-4.8000001907349</ele>
        <time>2021-11-23T12:44:12.000Z</time>
      </trkpt>
      <trkpt lat="45.9483" lon="-1.26361">
        <ele>-4.8000001907349</ele>
        <time>2021-11-23T12:44:13.000Z</time>
      </trkpt>
      <trkpt lat="45.9483" lon="-1.26397">
        <ele>-5</ele>
        <time>2021-11-23T12:44:16.000Z</time>
      </trkpt>
      <trkpt lat="45.94829" lon="-1.2642">
        <ele>-5.4000000953674</ele>
        <time>2021-11-23T12:44:18.000Z</time>
      </trkpt>
      <trkpt lat="45.94821" lon="-1.2644">
        <ele>-5.5999999046326</ele>
        <time>2021-11-23T12:44:20.000Z</time>
      </trkpt>
      <trkpt lat="45.94816" lon="-1.26447">
        <ele>-5.8000001907349</ele>
        <time>2021-11-23T12:44:21.000Z</time>
      </trkpt>
      <trkpt lat="45.94809" lon="-1.26453">
        <ele>-6</ele>
        <time>2021-11-23T12:44:22.000Z</time>
      </trkpt>
      <trkpt lat="45.94802" lon="-1.26458">
        <ele>-6.1999998092651</ele>
        <time>2021-11-23T12:44:23.000Z</time>
      </trkpt>
      <trkpt lat="45.94787" lon="-1.26466">
        <ele>-6.4000000953674</ele>
        <time>2021-11-23T12:44:25.000Z</time>
      </trkpt>
      <trkpt lat="45.94734" lon="-1.2649">
        <ele>-6.8000001907349</ele>
        <time>2021-11-23T12:44:32.000Z</time>
      </trkpt>
      <trkpt lat="45.94726" lon="-1.26495">
        <ele>-7</ele>
        <time>2021-11-23T12:44:33.000Z</time>
      </trkpt>
      <trkpt lat="45.94712" lon="-1.26506">
        <ele>-7</ele>
        <time>2021-11-23T12:44:35.000Z</time>
      </trkpt>
      <trkpt lat="45.94707" lon="-1.26512">
        <ele>-7.1999998092651</ele>
        <time>2021-11-23T12:44:36.000Z</time>
      </trkpt>
      <trkpt lat="45.94702" lon="-1.26518">
        <ele>-7.1999998092651</ele>
        <time>2021-11-23T12:44:37.000Z</time>
      </trkpt>
      <trkpt lat="45.94698" lon="-1.26525">
        <ele>-7.4000000953674</ele>
        <time>2021-11-23T12:44:39.000Z</time>
      </trkpt>
      <trkpt lat="45.94696" lon="-1.26525">
        <ele>-7.5999999046326</ele>
        <time>2021-11-23T12:44:40.000Z</time>
      </trkpt>
      <trkpt lat="45.94695" lon="-1.26516">
        <ele>-8</ele>
        <time>2021-11-23T12:44:43.000Z</time>
      </trkpt>
      <trkpt lat="45.94695" lon="-1.26512">
        <ele>-8</ele>
        <time>2021-11-23T12:44:44.000Z</time>
      </trkpt>
      <trkpt lat="45.94695" lon="-1.26507">
        <ele>-8.3999996185303</ele>
        <time>2021-11-23T12:44:45.000Z</time>
      </trkpt>
      <trkpt lat="45.94694" lon="-1.26502">
        <ele>-8.6000003814697</ele>
        <time>2021-11-23T12:44:46.000Z</time>
      </trkpt>
      <trkpt lat="45.94687" lon="-1.26484">
        <ele>-9.1999998092651</ele>
        <time>2021-11-23T12:44:49.000Z</time>
      </trkpt>
      <trkpt lat="45.94683" lon="-1.26471">
        <ele>-9.6000003814697</ele>
        <time>2021-11-23T12:44:51.000Z</time>
      </trkpt>
      <trkpt lat="45.94674" lon="-1.26442">
        <ele>-10</ele>
        <time>2021-11-23T12:44:55.000Z</time>
      </trkpt>
      <trkpt lat="45.94668" lon="-1.26429">
        <ele>-10.199999809265</ele>
        <time>2021-11-23T12:44:57.000Z</time>
      </trkpt>
      <trkpt lat="45.94656" lon="-1.26401">
        <ele>-10.199999809265</ele>
        <time>2021-11-23T12:45:01.000Z</time>
      </trkpt>
      <trkpt lat="45.94653" lon="-1.26385">
        <ele>-10.199999809265</ele>
        <time>2021-11-23T12:45:03.000Z</time>
      </trkpt>
      <trkpt lat="45.94653" lon="-1.26352">
        <ele>-10</ele>
        <time>2021-11-23T12:45:07.000Z</time>
      </trkpt>
      <trkpt lat="45.94652" lon="-1.26345">
        <ele>-10</ele>
        <time>2021-11-23T12:45:08.000Z</time>
      </trkpt>
      <trkpt lat="45.94635" lon="-1.26297">
        <ele>-8.8000001907349</ele>
        <time>2021-11-23T12:45:15.000Z</time>
      </trkpt>
      <trkpt lat="45.94632" lon="-1.2629">
        <ele>-8.3999996185303</ele>
        <time>2021-11-23T12:45:16.000Z</time>
      </trkpt>
      <trkpt lat="45.94612" lon="-1.26241">
        <ele>-8</ele>
        <time>2021-11-23T12:45:23.000Z</time>
      </trkpt>
      <trkpt lat="45.94595" lon="-1.26199">
        <ele>-7.4000000953674</ele>
        <time>2021-11-23T12:45:29.000Z</time>
      </trkpt>
      <trkpt lat="45.94586" lon="-1.26178">
        <ele>-7.1999998092651</ele>
        <time>2021-11-23T12:45:32.000Z</time>
      </trkpt>
      <trkpt lat="45.94575" lon="-1.26148">
        <ele>-7</ele>
        <time>2021-11-23T12:45:36.000Z</time>
      </trkpt>
      <trkpt lat="45.9456" lon="-1.26123">
        <ele>-7.4000000953674</ele>
        <time>2021-11-23T12:45:40.000Z</time>
      </trkpt>
      <trkpt lat="45.94553" lon="-1.26112">
        <ele>-7.4000000953674</ele>
        <time>2021-11-23T12:45:42.000Z</time>
      </trkpt>
      <trkpt lat="45.94543" lon="-1.26094">
        <ele>-7.8000001907349</ele>
        <time>2021-11-23T12:45:45.000Z</time>
      </trkpt>
      <trkpt lat="45.94536" lon="-1.26082">
        <ele>-7.8000001907349</ele>
        <time>2021-11-23T12:45:47.000Z</time>
      </trkpt>
      <trkpt lat="45.94524" lon="-1.26065">
        <ele>-8</ele>
        <time>2021-11-23T12:45:50.000Z</time>
      </trkpt>
      <trkpt lat="45.94515" lon="-1.26062">
        <ele>-8.1999998092651</ele>
        <time>2021-11-23T12:45:52.000Z</time>
      </trkpt>
      <trkpt lat="45.94511" lon="-1.26066">
        <ele>-8.3999996185303</ele>
        <time>2021-11-23T12:45:53.000Z</time>
      </trkpt>
      <trkpt lat="45.94498" lon="-1.26083">
        <ele>-8.6000003814697</ele>
        <time>2021-11-23T12:45:56.000Z</time>
      </trkpt>
      <trkpt lat="45.94473" lon="-1.26109">
        <ele>-9.1999998092651</ele>
        <time>2021-11-23T12:46:01.000Z</time>
      </trkpt>
      <trkpt lat="45.94468" lon="-1.2611">
        <ele>-9.3999996185303</ele>
        <time>2021-11-23T12:46:02.000Z</time>
      </trkpt>
      <trkpt lat="45.94463" lon="-1.2611">
        <ele>-9.3999996185303</ele>
        <time>2021-11-23T12:46:03.000Z</time>
      </trkpt>
      <trkpt lat="45.94457" lon="-1.26108">
        <ele>-9.6000003814697</ele>
        <time>2021-11-23T12:46:04.000Z</time>
      </trkpt>
      <trkpt lat="45.94452" lon="-1.26105">
        <ele>-9.6000003814697</ele>
        <time>2021-11-23T12:46:05.000Z</time>
      </trkpt>
      <trkpt lat="45.94431" lon="-1.26087">
        <ele>-10.199999809265</ele>
        <time>2021-11-23T12:46:10.000Z</time>
      </trkpt>
      <trkpt lat="45.94422" lon="-1.2608">
        <ele>-10.60000038147</ele>
        <time>2021-11-23T12:46:12.000Z</time>
      </trkpt>
      <trkpt lat="45.94413" lon="-1.26077">
        <ele>-10.39999961853</ele>
        <time>2021-11-23T12:46:14.000Z</time>
      </trkpt>
      <trkpt lat="45.94408" lon="-1.26077">
        <ele>-10.39999961853</ele>
        <time>2021-11-23T12:46:15.000Z</time>
      </trkpt>
      <trkpt lat="45.94375" lon="-1.26082">
        <ele>-10.60000038147</ele>
        <time>2021-11-23T12:46:22.000Z</time>
      </trkpt>
      <trkpt lat="45.94361" lon="-1.26081">
        <ele>-10.39999961853</ele>
        <time>2021-11-23T12:46:25.000Z</time>
      </trkpt>
      <trkpt lat="45.94343" lon="-1.26076">
        <ele>-10.800000190735</ele>
        <time>2021-11-23T12:46:29.000Z</time>
      </trkpt>
      <trkpt lat="45.94306" lon="-1.26066">
        <ele>-10.800000190735</ele>
        <time>2021-11-23T12:46:38.000Z</time>
      </trkpt>
      <trkpt lat="45.94285" lon="-1.26062">
        <ele>-10.199999809265</ele>
        <time>2021-11-23T12:46:43.000Z</time>
      </trkpt>
      <trkpt lat="45.94271" lon="-1.26057">
        <ele>-9.8000001907349</ele>
        <time>2021-11-23T12:46:46.000Z</time>
      </trkpt>
      <trkpt lat="45.94238" lon="-1.26051">
        <ele>-9.8000001907349</ele>
        <time>2021-11-23T12:46:53.000Z</time>
      </trkpt>
      <trkpt lat="45.94232" lon="-1.26058">
        <ele>-9.8000001907349</ele>
        <time>2021-11-23T12:46:55.000Z</time>
      </trkpt>
      <trkpt lat="45.94231" lon="-1.26064">
        <ele>-9.8000001907349</ele>
        <time>2021-11-23T12:46:56.000Z</time>
      </trkpt>
      <trkpt lat="45.94231" lon="-1.2607">
        <ele>-10</ele>
        <time>2021-11-23T12:46:57.000Z</time>
      </trkpt>
      <trkpt lat="45.94233" lon="-1.26098">
        <ele>-10.199999809265</ele>
        <time>2021-11-23T12:47:01.000Z</time>
      </trkpt>
      <trkpt lat="45.94234" lon="-1.26104">
        <ele>-10.39999961853</ele>
        <time>2021-11-23T12:47:02.000Z</time>
      </trkpt>
      <trkpt lat="45.94236" lon="-1.26117">
        <ele>-10.39999961853</ele>
        <time>2021-11-23T12:47:04.000Z</time>
      </trkpt>
      <trkpt lat="45.9424" lon="-1.26128">
        <ele>-10.39999961853</ele>
        <time>2021-11-23T12:47:06.000Z</time>
      </trkpt>
      <trkpt lat="45.94253" lon="-1.26143">
        <ele>-10.800000190735</ele>
        <time>2021-11-23T12:47:10.000Z</time>
      </trkpt>
      <trkpt lat="45.94257" lon="-1.26146">
        <ele>-11</ele>
        <time>2021-11-23T12:47:11.000Z</time>
      </trkpt>
      <trkpt lat="45.94263" lon="-1.26155">
        <ele>-11</ele>
        <time>2021-11-23T12:47:13.000Z</time>
      </trkpt>
      <trkpt lat="45.94267" lon="-1.2616">
        <ele>-11</ele>
        <time>2021-11-23T12:47:14.000Z</time>
      </trkpt>
      <trkpt lat="45.9427" lon="-1.26165">
        <ele>-11.199999809265</ele>
        <time>2021-11-23T12:47:15.000Z</time>
      </trkpt>
      <trkpt lat="45.94273" lon="-1.26178">
        <ele>-11.60000038147</ele>
        <time>2021-11-23T12:47:17.000Z</time>
      </trkpt>
      <trkpt lat="45.94273" lon="-1.26192">
        <ele>-11.800000190735</ele>
        <time>2021-11-23T12:47:19.000Z</time>
      </trkpt>
      <trkpt lat="45.94272" lon="-1.26198">
        <ele>-11.800000190735</ele>
        <time>2021-11-23T12:47:20.000Z</time>
      </trkpt>
      <trkpt lat="45.94271" lon="-1.26205">
        <ele>-12</ele>
        <time>2021-11-23T12:47:21.000Z</time>
      </trkpt>
      <trkpt lat="45.94269" lon="-1.26211">
        <ele>-11.800000190735</ele>
        <time>2021-11-23T12:47:22.000Z</time>
      </trkpt>
      <trkpt lat="45.94269" lon="-1.26217">
        <ele>-11.800000190735</ele>
        <time>2021-11-23T12:47:23.000Z</time>
      </trkpt>
      <trkpt lat="45.94269" lon="-1.26229">
        <ele>-12.199999809265</ele>
        <time>2021-11-23T12:47:25.000Z</time>
      </trkpt>
      <trkpt lat="45.9427" lon="-1.26236">
        <ele>-12.60000038147</ele>
        <time>2021-11-23T12:47:26.000Z</time>
      </trkpt>
      <trkpt lat="45.94271" lon="-1.26243">
        <ele>-12.60000038147</ele>
        <time>2021-11-23T12:47:27.000Z</time>
      </trkpt>
      <trkpt lat="45.94269" lon="-1.26257">
        <ele>-12.39999961853</ele>
        <time>2021-11-23T12:47:29.000Z</time>
      </trkpt>
      <trkpt lat="45.94267" lon="-1.26263">
        <ele>-12.39999961853</ele>
        <time>2021-11-23T12:47:30.000Z</time>
      </trkpt>
      <trkpt lat="45.94246" lon="-1.26308">
        <ele>-12.39999961853</ele>
        <time>2021-11-23T12:47:37.000Z</time>
      </trkpt>
      <trkpt lat="45.9424" lon="-1.26321">
        <ele>-12.199999809265</ele>
        <time>2021-11-23T12:47:39.000Z</time>
      </trkpt>
      <trkpt lat="45.94232" lon="-1.26332">
        <ele>-12.199999809265</ele>
        <time>2021-11-23T12:47:41.000Z</time>
      </trkpt>
      <trkpt lat="45.94227" lon="-1.26336">
        <ele>-12.199999809265</ele>
        <time>2021-11-23T12:47:42.000Z</time>
      </trkpt>
      <trkpt lat="45.94221" lon="-1.2634">
        <ele>-12.199999809265</ele>
        <time>2021-11-23T12:47:43.000Z</time>
      </trkpt>
      <trkpt lat="45.94199" lon="-1.26353">
        <ele>-12.199999809265</ele>
        <time>2021-11-23T12:47:47.000Z</time>
      </trkpt>
      <trkpt lat="45.94194" lon="-1.26358">
        <ele>-12.199999809265</ele>
        <time>2021-11-23T12:47:48.000Z</time>
      </trkpt>
      <trkpt lat="45.94192" lon="-1.26365">
        <ele>-12.199999809265</ele>
        <time>2021-11-23T12:47:49.000Z</time>
      </trkpt>
      <trkpt lat="45.94189" lon="-1.2638">
        <ele>-12.199999809265</ele>
        <time>2021-11-23T12:47:51.000Z</time>
      </trkpt>
      <trkpt lat="45.94185" lon="-1.26396">
        <ele>-12.199999809265</ele>
        <time>2021-11-23T12:47:53.000Z</time>
      </trkpt>
      <trkpt lat="45.94181" lon="-1.26421">
        <ele>-12.199999809265</ele>
        <time>2021-11-23T12:47:56.000Z</time>
      </trkpt>
      <trkpt lat="45.9418" lon="-1.2643">
        <ele>-12</ele>
        <time>2021-11-23T12:47:57.000Z</time>
      </trkpt>
      <trkpt lat="45.94183" lon="-1.26448">
        <ele>-11.800000190735</ele>
        <time>2021-11-23T12:47:59.000Z</time>
      </trkpt>
      <trkpt lat="45.942" lon="-1.26509">
        <ele>-11.800000190735</ele>
        <time>2021-11-23T12:48:06.000Z</time>
      </trkpt>
      <trkpt lat="45.942" lon="-1.26527">
        <ele>-11.800000190735</ele>
        <time>2021-11-23T12:48:08.000Z</time>
      </trkpt>
      <trkpt lat="45.94197" lon="-1.26536">
        <ele>-11.800000190735</ele>
        <time>2021-11-23T12:48:09.000Z</time>
      </trkpt>
      <trkpt lat="45.94175" lon="-1.26575">
        <ele>-11.60000038147</ele>
        <time>2021-11-23T12:48:14.000Z</time>
      </trkpt>
      <trkpt lat="45.94166" lon="-1.26592">
        <ele>-11.60000038147</ele>
        <time>2021-11-23T12:48:16.000Z</time>
      </trkpt>
      <trkpt lat="45.94159" lon="-1.26611">
        <ele>-11.60000038147</ele>
        <time>2021-11-23T12:48:18.000Z</time>
      </trkpt>
      <trkpt lat="45.94155" lon="-1.26632">
        <ele>-11.60000038147</ele>
        <time>2021-11-23T12:48:20.000Z</time>
      </trkpt>
      <trkpt lat="45.94153" lon="-1.26653">
        <ele>-11.60000038147</ele>
        <time>2021-11-23T12:48:22.000Z</time>
      </trkpt>
      <trkpt lat="45.94153" lon="-1.26663">
        <ele>-11.39999961853</ele>
        <time>2021-11-23T12:48:23.000Z</time>
      </trkpt>
      <trkpt lat="45.94153" lon="-1.26683">
        <ele>-11.199999809265</ele>
        <time>2021-11-23T12:48:25.000Z</time>
      </trkpt>
      <trkpt lat="45.94152" lon="-1.26692">
        <ele>-11</ele>
        <time>2021-11-23T12:48:26.000Z</time>
      </trkpt>
      <trkpt lat="45.94149" lon="-1.26701">
        <ele>-10.800000190735</ele>
        <time>2021-11-23T12:48:27.000Z</time>
      </trkpt>
      <trkpt lat="45.94142" lon="-1.26719">
        <ele>-10.60000038147</ele>
        <time>2021-11-23T12:48:29.000Z</time>
      </trkpt>
      <trkpt lat="45.94138" lon="-1.26729">
        <ele>-10.39999961853</ele>
        <time>2021-11-23T12:48:30.000Z</time>
      </trkpt>
      <trkpt lat="45.94112" lon="-1.26783">
        <ele>-9.8000001907349</ele>
        <time>2021-11-23T12:48:36.000Z</time>
      </trkpt>
      <trkpt lat="45.94107" lon="-1.26791">
        <ele>-9.6000003814697</ele>
        <time>2021-11-23T12:48:37.000Z</time>
      </trkpt>
      <trkpt lat="45.941" lon="-1.26797">
        <ele>-9.6000003814697</ele>
        <time>2021-11-23T12:48:38.000Z</time>
      </trkpt>
      <trkpt lat="45.94077" lon="-1.26819">
        <ele>-9.3999996185303</ele>
        <time>2021-11-23T12:48:42.000Z</time>
      </trkpt>
      <trkpt lat="45.94065" lon="-1.26832">
        <ele>-9.3999996185303</ele>
        <time>2021-11-23T12:48:44.000Z</time>
      </trkpt>
      <trkpt lat="45.94015" lon="-1.26879">
        <ele>-9.1999998092651</ele>
        <time>2021-11-23T12:48:52.000Z</time>
      </trkpt>
      <trkpt lat="45.93997" lon="-1.26896">
        <ele>-9.3999996185303</ele>
        <time>2021-11-23T12:48:55.000Z</time>
      </trkpt>
      <trkpt lat="45.93951" lon="-1.26947">
        <ele>-9.3999996185303</ele>
        <time>2021-11-23T12:49:03.000Z</time>
      </trkpt>
      <trkpt lat="45.93943" lon="-1.26964">
        <ele>-9.3999996185303</ele>
        <time>2021-11-23T12:49:05.000Z</time>
      </trkpt>
      <trkpt lat="45.93937" lon="-1.26981">
        <ele>-9.3999996185303</ele>
        <time>2021-11-23T12:49:07.000Z</time>
      </trkpt>
      <trkpt lat="45.93913" lon="-1.27018">
        <ele>-9.8000001907349</ele>
        <time>2021-11-23T12:49:12.000Z</time>
      </trkpt>
      <trkpt lat="45.93909" lon="-1.27026">
        <ele>-10</ele>
        <time>2021-11-23T12:49:13.000Z</time>
      </trkpt>
      <trkpt lat="45.93906" lon="-1.27046">
        <ele>-10</ele>
        <time>2021-11-23T12:49:15.000Z</time>
      </trkpt>
      <trkpt lat="45.93915" lon="-1.27075">
        <ele>-10.199999809265</ele>
        <time>2021-11-23T12:49:18.000Z</time>
      </trkpt>
      <trkpt lat="45.93929" lon="-1.27127">
        <ele>-10.800000190735</ele>
        <time>2021-11-23T12:49:23.000Z</time>
      </trkpt>
      <trkpt lat="45.93932" lon="-1.27138">
        <ele>-11</ele>
        <time>2021-11-23T12:49:24.000Z</time>
      </trkpt>
      <trkpt lat="45.93942" lon="-1.27178">
        <ele>-11.199999809265</ele>
        <time>2021-11-23T12:49:28.000Z</time>
      </trkpt>
      <trkpt lat="45.93946" lon="-1.27187">
        <ele>-11.199999809265</ele>
        <time>2021-11-23T12:49:29.000Z</time>
      </trkpt>
      <trkpt lat="45.93949" lon="-1.27195">
        <ele>-11.199999809265</ele>
        <time>2021-11-23T12:49:30.000Z</time>
      </trkpt>
      <trkpt lat="45.9395" lon="-1.27213">
        <ele>-11.39999961853</ele>
        <time>2021-11-23T12:49:32.000Z</time>
      </trkpt>
      <trkpt lat="45.93942" lon="-1.27227">
        <ele>-11.60000038147</ele>
        <time>2021-11-23T12:49:34.000Z</time>
      </trkpt>
      <trkpt lat="45.93936" lon="-1.27232">
        <ele>-11.60000038147</ele>
        <time>2021-11-23T12:49:35.000Z</time>
      </trkpt>
      <trkpt lat="45.93892" lon="-1.27266">
        <ele>-12</ele>
        <time>2021-11-23T12:49:42.000Z</time>
      </trkpt>
      <trkpt lat="45.93879" lon="-1.27275">
        <ele>-12.39999961853</ele>
        <time>2021-11-23T12:49:44.000Z</time>
      </trkpt>
      <trkpt lat="45.93847" lon="-1.27301">
        <ele>-12.60000038147</ele>
        <time>2021-11-23T12:49:50.000Z</time>
      </trkpt>
      <trkpt lat="45.93824" lon="-1.2732">
        <ele>-12</ele>
        <time>2021-11-23T12:49:55.000Z</time>
      </trkpt>
      <trkpt lat="45.93823" lon="-1.27328">
        <ele>-11.800000190735</ele>
        <time>2021-11-23T12:49:57.000Z</time>
      </trkpt>
      <trkpt lat="45.93825" lon="-1.27333">
        <ele>-11.60000038147</ele>
        <time>2021-11-23T12:49:58.000Z</time>
      </trkpt>
      <trkpt lat="45.93841" lon="-1.27367">
        <ele>-11</ele>
        <time>2021-11-23T12:50:03.000Z</time>
      </trkpt>
      <trkpt lat="45.93857" lon="-1.27404">
        <ele>-10.60000038147</ele>
        <time>2021-11-23T12:50:08.000Z</time>
      </trkpt>
      <trkpt lat="45.93858" lon="-1.2741">
        <ele>-10.60000038147</ele>
        <time>2021-11-23T12:50:09.000Z</time>
      </trkpt>
      <trkpt lat="45.93858" lon="-1.27415">
        <ele>-10.39999961853</ele>
        <time>2021-11-23T12:50:10.000Z</time>
      </trkpt>
      <trkpt lat="45.93852" lon="-1.27423">
        <ele>-10.39999961853</ele>
        <time>2021-11-23T12:50:12.000Z</time>
      </trkpt>
      <trkpt lat="45.93839" lon="-1.27435">
        <ele>-10</ele>
        <time>2021-11-23T12:50:15.000Z</time>
      </trkpt>
      <trkpt lat="45.93834" lon="-1.2744">
        <ele>-10</ele>
        <time>2021-11-23T12:50:16.000Z</time>
      </trkpt>
      <trkpt lat="45.93795" lon="-1.2748">
        <ele>-9.8000001907349</ele>
        <time>2021-11-23T12:50:23.000Z</time>
      </trkpt>
      <trkpt lat="45.93746" lon="-1.27526">
        <ele>-10.199999809265</ele>
        <time>2021-11-23T12:50:31.000Z</time>
      </trkpt>
      <trkpt lat="45.93722" lon="-1.27546">
        <ele>-10.60000038147</ele>
        <time>2021-11-23T12:50:35.000Z</time>
      </trkpt>
      <trkpt lat="45.93717" lon="-1.27553">
        <ele>-10.60000038147</ele>
        <time>2021-11-23T12:50:36.000Z</time>
      </trkpt>
      <trkpt lat="45.93713" lon="-1.27561">
        <ele>-10.800000190735</ele>
        <time>2021-11-23T12:50:37.000Z</time>
      </trkpt>
      <trkpt lat="45.93704" lon="-1.27587">
        <ele>-11.199999809265</ele>
        <time>2021-11-23T12:50:40.000Z</time>
      </trkpt>
      <trkpt lat="45.937" lon="-1.27596">
        <ele>-11.199999809265</ele>
        <time>2021-11-23T12:50:41.000Z</time>
      </trkpt>
      <trkpt lat="45.93682" lon="-1.27648">
        <ele>-11.60000038147</ele>
        <time>2021-11-23T12:50:47.000Z</time>
      </trkpt>
      <trkpt lat="45.93672" lon="-1.27658">
        <ele>-11.60000038147</ele>
        <time>2021-11-23T12:50:49.000Z</time>
      </trkpt>
      <trkpt lat="45.93666" lon="-1.2766">
        <ele>-11.60000038147</ele>
        <time>2021-11-23T12:50:50.000Z</time>
      </trkpt>
      <trkpt lat="45.93661" lon="-1.27659">
        <ele>-11.800000190735</ele>
        <time>2021-11-23T12:50:51.000Z</time>
      </trkpt>
      <trkpt lat="45.93657" lon="-1.27654">
        <ele>-11.800000190735</ele>
        <time>2021-11-23T12:50:52.000Z</time>
      </trkpt>
      <trkpt lat="45.93656" lon="-1.27647">
        <ele>-12</ele>
        <time>2021-11-23T12:50:53.000Z</time>
      </trkpt>
      <trkpt lat="45.93656" lon="-1.27639">
        <ele>-12</ele>
        <time>2021-11-23T12:50:54.000Z</time>
      </trkpt>
      <trkpt lat="45.93656" lon="-1.27632">
        <ele>-12.199999809265</ele>
        <time>2021-11-23T12:50:55.000Z</time>
      </trkpt>
      <trkpt lat="45.93653" lon="-1.27625">
        <ele>-12.199999809265</ele>
        <time>2021-11-23T12:50:56.000Z</time>
      </trkpt>
      <trkpt lat="45.93649" lon="-1.27622">
        <ele>-12.199999809265</ele>
        <time>2021-11-23T12:50:57.000Z</time>
      </trkpt>
      <trkpt lat="45.93643" lon="-1.27622">
        <ele>-12.39999961853</ele>
        <time>2021-11-23T12:50:58.000Z</time>
      </trkpt>
      <trkpt lat="45.93602" lon="-1.27629">
        <ele>-13</ele>
        <time>2021-11-23T12:51:04.000Z</time>
      </trkpt>
      <trkpt lat="45.93581" lon="-1.27634">
        <ele>-13.199999809265</ele>
        <time>2021-11-23T12:51:07.000Z</time>
      </trkpt>
      <trkpt lat="45.93568" lon="-1.27641">
        <ele>-13.199999809265</ele>
        <time>2021-11-23T12:51:09.000Z</time>
      </trkpt>
      <trkpt lat="45.93537" lon="-1.27654">
        <ele>-12.800000190735</ele>
        <time>2021-11-23T12:51:14.000Z</time>
      </trkpt>
      <trkpt lat="45.93501" lon="-1.27665">
        <ele>-12</ele>
        <time>2021-11-23T12:51:19.000Z</time>
      </trkpt>
      <trkpt lat="45.93495" lon="-1.2767">
        <ele>-11.800000190735</ele>
        <time>2021-11-23T12:51:20.000Z</time>
      </trkpt>
      <trkpt lat="45.93489" lon="-1.27675">
        <ele>-11.800000190735</ele>
        <time>2021-11-23T12:51:21.000Z</time>
      </trkpt>
      <trkpt lat="45.93472" lon="-1.27694">
        <ele>-11.39999961853</ele>
        <time>2021-11-23T12:51:24.000Z</time>
      </trkpt>
      <trkpt lat="45.93467" lon="-1.27701">
        <ele>-11.199999809265</ele>
        <time>2021-11-23T12:51:25.000Z</time>
      </trkpt>
      <trkpt lat="45.93454" lon="-1.27709">
        <ele>-11</ele>
        <time>2021-11-23T12:51:27.000Z</time>
      </trkpt>
      <trkpt lat="45.93442" lon="-1.27704">
        <ele>-10.800000190735</ele>
        <time>2021-11-23T12:51:29.000Z</time>
      </trkpt>
      <trkpt lat="45.93431" lon="-1.27693">
        <ele>-10.800000190735</ele>
        <time>2021-11-23T12:51:31.000Z</time>
      </trkpt>
      <trkpt lat="45.93419" lon="-1.27683">
        <ele>-10.60000038147</ele>
        <time>2021-11-23T12:51:33.000Z</time>
      </trkpt>
      <trkpt lat="45.93414" lon="-1.27677">
        <ele>-10.60000038147</ele>
        <time>2021-11-23T12:51:34.000Z</time>
      </trkpt>
      <trkpt lat="45.93396" lon="-1.27648">
        <ele>-10.39999961853</ele>
        <time>2021-11-23T12:51:38.000Z</time>
      </trkpt>
      <trkpt lat="45.9339" lon="-1.27642">
        <ele>-10.39999961853</ele>
        <time>2021-11-23T12:51:39.000Z</time>
      </trkpt>
      <trkpt lat="45.93384" lon="-1.27638">
        <ele>-10.39999961853</ele>
        <time>2021-11-23T12:51:40.000Z</time>
      </trkpt>
      <trkpt lat="45.9337" lon="-1.27635">
        <ele>-10.39999961853</ele>
        <time>2021-11-23T12:51:42.000Z</time>
      </trkpt>
      <trkpt lat="45.93356" lon="-1.2764">
        <ele>-10</ele>
        <time>2021-11-23T12:51:44.000Z</time>
      </trkpt>
      <trkpt lat="45.93349" lon="-1.27644">
        <ele>-9.8000001907349</ele>
        <time>2021-11-23T12:51:45.000Z</time>
      </trkpt>
      <trkpt lat="45.93338" lon="-1.27655">
        <ele>-9.6000003814697</ele>
        <time>2021-11-23T12:51:47.000Z</time>
      </trkpt>
      <trkpt lat="45.93321" lon="-1.27674">
        <ele>-9.1999998092651</ele>
        <time>2021-11-23T12:51:50.000Z</time>
      </trkpt>
      <trkpt lat="45.93309" lon="-1.27687">
        <ele>-9</ele>
        <time>2021-11-23T12:51:52.000Z</time>
      </trkpt>
      <trkpt lat="45.93286" lon="-1.27712">
        <ele>-8.8000001907349</ele>
        <time>2021-11-23T12:51:56.000Z</time>
      </trkpt>
      <trkpt lat="45.93238" lon="-1.27769">
        <ele>-8.1999998092651</ele>
        <time>2021-11-23T12:52:04.000Z</time>
      </trkpt>
      <trkpt lat="45.93232" lon="-1.27777">
        <ele>-8.1999998092651</ele>
        <time>2021-11-23T12:52:05.000Z</time>
      </trkpt>
      <trkpt lat="45.93227" lon="-1.27785">
        <ele>-8</ele>
        <time>2021-11-23T12:52:06.000Z</time>
      </trkpt>
      <trkpt lat="45.9322" lon="-1.27803">
        <ele>-8</ele>
        <time>2021-11-23T12:52:08.000Z</time>
      </trkpt>
      <trkpt lat="45.93213" lon="-1.27831">
        <ele>-8</ele>
        <time>2021-11-23T12:52:11.000Z</time>
      </trkpt>
      <trkpt lat="45.93198" lon="-1.27849">
        <ele>-7.5999999046326</ele>
        <time>2021-11-23T12:52:14.000Z</time>
      </trkpt>
      <trkpt lat="45.93192" lon="-1.27854">
        <ele>-7.5999999046326</ele>
        <time>2021-11-23T12:52:15.000Z</time>
      </trkpt>
      <trkpt lat="45.93179" lon="-1.27863">
        <ele>-7.1999998092651</ele>
        <time>2021-11-23T12:52:17.000Z</time>
      </trkpt>
      <trkpt lat="45.93172" lon="-1.27866">
        <ele>-7.1999998092651</ele>
        <time>2021-11-23T12:52:18.000Z</time>
      </trkpt>
      <trkpt lat="45.93165" lon="-1.27866">
        <ele>-7</ele>
        <time>2021-11-23T12:52:19.000Z</time>
      </trkpt>
      <trkpt lat="45.93158" lon="-1.27865">
        <ele>-7</ele>
        <time>2021-11-23T12:52:20.000Z</time>
      </trkpt>
      <trkpt lat="45.9315" lon="-1.27865">
        <ele>-6.8000001907349</ele>
        <time>2021-11-23T12:52:21.000Z</time>
      </trkpt>
      <trkpt lat="45.93144" lon="-1.27867">
        <ele>-6.8000001907349</ele>
        <time>2021-11-23T12:52:22.000Z</time>
      </trkpt>
      <trkpt lat="45.93138" lon="-1.27871">
        <ele>-6.5999999046326</ele>
        <time>2021-11-23T12:52:23.000Z</time>
      </trkpt>
      <trkpt lat="45.9312" lon="-1.27888">
        <ele>-6.5999999046326</ele>
        <time>2021-11-23T12:52:26.000Z</time>
      </trkpt>
      <trkpt lat="45.93089" lon="-1.27929">
        <ele>-6</ele>
        <time>2021-11-23T12:52:32.000Z</time>
      </trkpt>
      <trkpt lat="45.93067" lon="-1.27979">
        <ele>-5.4000000953674</ele>
        <time>2021-11-23T12:52:38.000Z</time>
      </trkpt>
      <trkpt lat="45.93052" lon="-1.28016">
        <ele>-5.1999998092651</ele>
        <time>2021-11-23T12:52:43.000Z</time>
      </trkpt>
      <trkpt lat="45.9305" lon="-1.28019">
        <ele>-5</ele>
        <time>2021-11-23T12:52:44.000Z</time>
      </trkpt>
      <trkpt lat="45.93044" lon="-1.28014">
        <ele>-5</ele>
        <time>2021-11-23T12:52:47.000Z</time>
      </trkpt>
      <trkpt lat="45.93038" lon="-1.28008">
        <ele>-4.8000001907349</ele>
        <time>2021-11-23T12:52:49.000Z</time>
      </trkpt>
      <trkpt lat="45.93031" lon="-1.27999">
        <ele>-4.8000001907349</ele>
        <time>2021-11-23T12:52:51.000Z</time>
      </trkpt>
      <trkpt lat="45.93022" lon="-1.27986">
        <ele>-4.8000001907349</ele>
        <time>2021-11-23T12:52:53.000Z</time>
      </trkpt>
      <trkpt lat="45.93012" lon="-1.27974">
        <ele>-4.8000001907349</ele>
        <time>2021-11-23T12:52:55.000Z</time>
      </trkpt>
      <trkpt lat="45.92997" lon="-1.27954">
        <ele>-5</ele>
        <time>2021-11-23T12:52:58.000Z</time>
      </trkpt>
      <trkpt lat="45.92987" lon="-1.2794">
        <ele>-4.8000001907349</ele>
        <time>2021-11-23T12:53:00.000Z</time>
      </trkpt>
      <trkpt lat="45.92952" lon="-1.27892">
        <ele>-4.8000001907349</ele>
        <time>2021-11-23T12:53:07.000Z</time>
      </trkpt>
      <trkpt lat="45.92911" lon="-1.27835">
        <ele>-4.5999999046326</ele>
        <time>2021-11-23T12:53:15.000Z</time>
      </trkpt>
      <trkpt lat="45.92906" lon="-1.27828">
        <ele>-4.4000000953674</ele>
        <time>2021-11-23T12:53:16.000Z</time>
      </trkpt>
      <trkpt lat="45.92899" lon="-1.27819">
        <ele>-4.4000000953674</ele>
        <time>2021-11-23T12:53:18.000Z</time>
      </trkpt>
      <trkpt lat="45.92895" lon="-1.27814">
        <ele>-4.4000000953674</ele>
        <time>2021-11-23T12:53:20.000Z</time>
      </trkpt>
      <trkpt lat="45.92892" lon="-1.27808">
        <ele>-4.1999998092651</ele>
        <time>2021-11-23T12:53:23.000Z</time>
      </trkpt>
      <trkpt lat="45.92892" lon="-1.27807">
        <ele>-4.1999998092651</ele>
        <time>2021-11-23T12:53:24.000Z</time>
      </trkpt>
      <trkpt lat="45.92696" lon="-1.27552">
        <ele>3.9</ele>
      </trkpt>
      <trkpt lat="45.92628" lon="-1.27559">
        <ele>4.1</ele>
      </trkpt>
      <trkpt lat="45.92608" lon="-1.27491">
        <ele>-2.4000000953674</ele>
        <time>2021-11-23T12:55:26.000Z</time>
      </trkpt>
      <trkpt lat="45.92608" lon="-1.27482">
        <ele>-2.4000000953674</ele>
        <time>2021-11-23T12:55:27.000Z</time>
      </trkpt>
      <trkpt lat="45.92612" lon="-1.27445">
        <ele>-2.4000000953674</ele>
        <time>2021-11-23T12:55:31.000Z</time>
      </trkpt>
      <trkpt lat="45.92612" lon="-1.2741">
        <ele>-2.5999999046326</ele>
        <time>2021-11-23T12:55:35.000Z</time>
      </trkpt>
      <trkpt lat="45.9261" lon="-1.27403">
        <ele>-2.5999999046326</ele>
        <time>2021-11-23T12:55:36.000Z</time>
      </trkpt>
      <trkpt lat="45.92608" lon="-1.27397">
        <ele>-2.5999999046326</ele>
        <time>2021-11-23T12:55:37.000Z</time>
      </trkpt>
      <trkpt lat="45.92601" lon="-1.27392">
        <ele>-2.5999999046326</ele>
        <time>2021-11-23T12:55:39.000Z</time>
      </trkpt>
      <trkpt lat="45.92578" lon="-1.2738">
        <ele>-2.5999999046326</ele>
        <time>2021-11-23T12:55:43.000Z</time>
      </trkpt>
      <trkpt lat="45.92548" lon="-1.27353">
        <ele>-2.5999999046326</ele>
        <time>2021-11-23T12:55:48.000Z</time>
      </trkpt>
      <trkpt lat="45.92505" lon="-1.27311">
        <ele>-3.4000000953674</ele>
        <time>2021-11-23T12:55:56.000Z</time>
      </trkpt>
      <trkpt lat="45.925" lon="-1.27306">
        <ele>-3.4000000953674</ele>
        <time>2021-11-23T12:55:57.000Z</time>
      </trkpt>
      <trkpt lat="45.9248" lon="-1.27284">
        <ele>-3.5999999046326</ele>
        <time>2021-11-23T12:56:01.000Z</time>
      </trkpt>
      <trkpt lat="45.92449" lon="-1.27237">
        <ele>-3.5999999046326</ele>
        <time>2021-11-23T12:56:08.000Z</time>
      </trkpt>
      <trkpt lat="45.92438" lon="-1.27217">
        <ele>-3.5999999046326</ele>
        <time>2021-11-23T12:56:11.000Z</time>
      </trkpt>
      <trkpt lat="45.92426" lon="-1.27201">
        <ele>-3.5999999046326</ele>
        <time>2021-11-23T12:56:14.000Z</time>
      </trkpt>
      <trkpt lat="45.92416" lon="-1.27181">
        <ele>-3.7999999523163</ele>
        <time>2021-11-23T12:56:17.000Z</time>
      </trkpt>
      <trkpt lat="45.9241" lon="-1.27167">
        <ele>-3.7999999523163</ele>
        <time>2021-11-23T12:56:19.000Z</time>
      </trkpt>
      <trkpt lat="45.92387" lon="-1.27107">
        <ele>-4.1999998092651</ele>
        <time>2021-11-23T12:56:27.000Z</time>
      </trkpt>
      <trkpt lat="45.92361" lon="-1.27044">
        <ele>-4.8000001907349</ele>
        <time>2021-11-23T12:56:35.000Z</time>
      </trkpt>
      <trkpt lat="45.92335" lon="-1.26992">
        <ele>-4.5999999046326</ele>
        <time>2021-11-23T12:56:42.000Z</time>
      </trkpt>
      <trkpt lat="45.92324" lon="-1.26974">
        <ele>-4.8000001907349</ele>
        <time>2021-11-23T12:56:45.000Z</time>
      </trkpt>
      <trkpt lat="45.92317" lon="-1.2696">
        <ele>-4.8000001907349</ele>
        <time>2021-11-23T12:56:47.000Z</time>
      </trkpt>
      <trkpt lat="45.92297" lon="-1.26918">
        <ele>-5</ele>
        <time>2021-11-23T12:56:53.000Z</time>
      </trkpt>
      <trkpt lat="45.92293" lon="-1.26911">
        <ele>-5</ele>
        <time>2021-11-23T12:56:54.000Z</time>
      </trkpt>
      <trkpt lat="45.9228" lon="-1.26882">
        <ele>-5</ele>
        <time>2021-11-23T12:56:58.000Z</time>
      </trkpt>
      <trkpt lat="45.92276" lon="-1.26866">
        <ele>-5</ele>
        <time>2021-11-23T12:57:00.000Z</time>
      </trkpt>
      <trkpt lat="45.92266" lon="-1.26844">
        <ele>-5</ele>
        <time>2021-11-23T12:57:03.000Z</time>
      </trkpt>
      <trkpt lat="45.92257" lon="-1.26822">
        <ele>-4.8000001907349</ele>
        <time>2021-11-23T12:57:06.000Z</time>
      </trkpt>
      <trkpt lat="45.9225" lon="-1.26799">
        <ele>-4.5999999046326</ele>
        <time>2021-11-23T12:57:09.000Z</time>
      </trkpt>
      <trkpt lat="45.92234" lon="-1.26752">
        <ele>-4.1999998092651</ele>
        <time>2021-11-23T12:57:16.000Z</time>
      </trkpt>
      <trkpt lat="45.92232" lon="-1.26748">
        <ele>-3.7999999523163</ele>
        <time>2021-11-23T12:57:19.000Z</time>
      </trkpt>
      <trkpt lat="45.92229" lon="-1.26739">
        <ele>-3.4000000953674</ele>
        <time>2021-11-23T12:57:55.000Z</time>
      </trkpt>
      <trkpt lat="45.92226" lon="-1.26732">
        <ele>-3.4000000953674</ele>
        <time>2021-11-23T12:57:57.000Z</time>
      </trkpt>
      <trkpt lat="45.92216" lon="-1.26705">
        <ele>-3.7999999523163</ele>
        <time>2021-11-23T12:58:03.000Z</time>
      </trkpt>
      <trkpt lat="45.92214" lon="-1.267">
        <ele>-3.7999999523163</ele>
        <time>2021-11-23T12:58:04.000Z</time>
      </trkpt>
      <trkpt lat="45.92213" lon="-1.26695">
        <ele>-3.5999999046326</ele>
        <time>2021-11-23T12:58:05.000Z</time>
      </trkpt>
      <trkpt lat="45.92207" lon="-1.26681">
        <ele>-3.5999999046326</ele>
        <time>2021-11-23T12:58:07.000Z</time>
      </trkpt>
      <trkpt lat="45.922" lon="-1.26657">
        <ele>-3.5999999046326</ele>
        <time>2021-11-23T12:58:10.000Z</time>
      </trkpt>
      <trkpt lat="45.92191" lon="-1.26614">
        <ele>-3.4000000953674</ele>
        <time>2021-11-23T12:58:15.000Z</time>
      </trkpt>
      <trkpt lat="45.9219" lon="-1.26605">
        <ele>-3.2000000476837</ele>
        <time>2021-11-23T12:58:16.000Z</time>
      </trkpt>
      <trkpt lat="45.92189" lon="-1.26587">
        <ele>-3.2000000476837</ele>
        <time>2021-11-23T12:58:18.000Z</time>
      </trkpt>
      <trkpt lat="45.92188" lon="-1.26555">
        <ele>-3</ele>
        <time>2021-11-23T12:58:22.000Z</time>
      </trkpt>
      <trkpt lat="45.92186" lon="-1.26538">
        <ele>-3</ele>
        <time>2021-11-23T12:58:24.000Z</time>
      </trkpt>
      <trkpt lat="45.92181" lon="-1.26522">
        <ele>-3</ele>
        <time>2021-11-23T12:58:26.000Z</time>
      </trkpt>
      <trkpt lat="45.92177" lon="-1.26507">
        <ele>-2.7999999523163</ele>
        <time>2021-11-23T12:58:28.000Z</time>
      </trkpt>
      <trkpt lat="45.92169" lon="-1.26467">
        <ele>-2.5999999046326</ele>
        <time>2021-11-23T12:58:33.000Z</time>
      </trkpt>
      <trkpt lat="45.92169" lon="-1.26459">
        <ele>-2.4000000953674</ele>
        <time>2021-11-23T12:58:34.000Z</time>
      </trkpt>
      <trkpt lat="45.92163" lon="-1.26411">
        <ele>-2.4000000953674</ele>
        <time>2021-11-23T12:58:40.000Z</time>
      </trkpt>
      <trkpt lat="45.92162" lon="-1.26403">
        <ele>-2.4000000953674</ele>
        <time>2021-11-23T12:58:41.000Z</time>
      </trkpt>
      <trkpt lat="45.92161" lon="-1.26369">
        <ele>-2.4000000953674</ele>
        <time>2021-11-23T12:58:45.000Z</time>
      </trkpt>
      <trkpt lat="45.92161" lon="-1.26353">
        <ele>-2.4000000953674</ele>
        <time>2021-11-23T12:58:47.000Z</time>
      </trkpt>
      <trkpt lat="45.9216" lon="-1.26322">
        <ele>-2.4000000953674</ele>
        <time>2021-11-23T12:58:51.000Z</time>
      </trkpt>
      <trkpt lat="45.92158" lon="-1.26295">
        <ele>-2.2000000476837</ele>
        <time>2021-11-23T12:58:54.000Z</time>
      </trkpt>
      <trkpt lat="45.92157" lon="-1.26269">
        <ele>-2.4000000953674</ele>
        <time>2021-11-23T12:58:57.000Z</time>
      </trkpt>
      <trkpt lat="45.92155" lon="-1.26236">
        <ele>-2.4000000953674</ele>
        <time>2021-11-23T12:59:01.000Z</time>
      </trkpt>
      <trkpt lat="45.92154" lon="-1.26228">
        <ele>-2.5999999046326</ele>
        <time>2021-11-23T12:59:02.000Z</time>
      </trkpt>
      <trkpt lat="45.92153" lon="-1.2622">
        <ele>-2.5999999046326</ele>
        <time>2021-11-23T12:59:03.000Z</time>
      </trkpt>
      <trkpt lat="45.92145" lon="-1.26191">
        <ele>-2.5999999046326</ele>
        <time>2021-11-23T12:59:07.000Z</time>
      </trkpt>
      <trkpt lat="45.92125" lon="-1.26142">
        <ele>-2.4000000953674</ele>
        <time>2021-11-23T12:59:13.000Z</time>
      </trkpt>
      <trkpt lat="45.92122" lon="-1.26134">
        <ele>-2.4000000953674</ele>
        <time>2021-11-23T12:59:14.000Z</time>
      </trkpt>
      <trkpt lat="45.92113" lon="-1.26114">
        <ele>-2.2000000476837</ele>
        <time>2021-11-23T12:59:17.000Z</time>
      </trkpt>
      <trkpt lat="45.92104" lon="-1.26093">
        <ele>-2</ele>
        <time>2021-11-23T12:59:20.000Z</time>
      </trkpt>
      <trkpt lat="45.92088" lon="-1.26046">
        <ele>-1.7999999523163</ele>
        <time>2021-11-23T12:59:26.000Z</time>
      </trkpt>
      <trkpt lat="45.92061" lon="-1.25985">
        <ele>-1.6000000238419</ele>
        <time>2021-11-23T12:59:34.000Z</time>
      </trkpt>
      <trkpt lat="45.92046" lon="-1.25957">
        <ele>-1.6000000238419</ele>
        <time>2021-11-23T12:59:38.000Z</time>
      </trkpt>
      <trkpt lat="45.92042" lon="-1.25951">
        <ele>-1.6000000238419</ele>
        <time>2021-11-23T12:59:39.000Z</time>
      </trkpt>
      <trkpt lat="45.92013" lon="-1.25898">
        <ele>-1.6000000238419</ele>
        <time>2021-11-23T12:59:46.000Z</time>
      </trkpt>
      <trkpt lat="45.9198" lon="-1.25846">
        <ele>-2</ele>
        <time>2021-11-23T12:59:54.000Z</time>
      </trkpt>
      <trkpt lat="45.91949" lon="-1.258">
        <ele>-2</ele>
        <time>2021-11-23T13:00:01.000Z</time>
      </trkpt>
      <trkpt lat="45.91919" lon="-1.25757">
        <ele>-1.7999999523163</ele>
        <time>2021-11-23T13:00:08.000Z</time>
      </trkpt>
      <trkpt lat="45.91915" lon="-1.25751">
        <ele>-1.6000000238419</ele>
        <time>2021-11-23T13:00:09.000Z</time>
      </trkpt>
      <trkpt lat="45.91904" lon="-1.25729">
        <ele>-1.3999999761581</ele>
        <time>2021-11-23T13:00:12.000Z</time>
      </trkpt>
      <trkpt lat="45.91894" lon="-1.25693">
        <ele>-1.3999999761581</ele>
        <time>2021-11-23T13:00:17.000Z</time>
      </trkpt>
      <trkpt lat="45.91893" lon="-1.25685">
        <ele>-1.3999999761581</ele>
        <time>2021-11-23T13:00:18.000Z</time>
      </trkpt>
      <trkpt lat="45.91892" lon="-1.25677">
        <ele>-1.6000000238419</ele>
        <time>2021-11-23T13:00:19.000Z</time>
      </trkpt>
      <trkpt lat="45.91888" lon="-1.25652">
        <ele>-1.6000000238419</ele>
        <time>2021-11-23T13:00:22.000Z</time>
      </trkpt>
      <trkpt lat="45.91886" lon="-1.25643">
        <ele>-1.7999999523163</ele>
        <time>2021-11-23T13:00:23.000Z</time>
      </trkpt>
      <trkpt lat="45.91876" lon="-1.25616">
        <ele>-1.7999999523163</ele>
        <time>2021-11-23T13:00:26.000Z</time>
      </trkpt>
      <trkpt lat="45.91856" lon="-1.25573">
        <ele>-2.4000000953674</ele>
        <time>2021-11-23T13:00:32.000Z</time>
      </trkpt>
      <trkpt lat="45.91849" lon="-1.25561">
        <ele>-2.4000000953674</ele>
        <time>2021-11-23T13:00:34.000Z</time>
      </trkpt>
      <trkpt lat="45.91841" lon="-1.25553">
        <ele>-2.5999999046326</ele>
        <time>2021-11-23T13:00:36.000Z</time>
      </trkpt>
      <trkpt lat="45.91829" lon="-1.2555">
        <ele>-2.7999999523163</ele>
        <time>2021-11-23T13:00:38.000Z</time>
      </trkpt>
      <trkpt lat="45.91809" lon="-1.25544">
        <ele>-3</ele>
        <time>2021-11-23T13:00:41.000Z</time>
      </trkpt>
      <trkpt lat="45.91781" lon="-1.25535">
        <ele>-3.2000000476837</ele>
        <time>2021-11-23T13:00:45.000Z</time>
      </trkpt>
      <trkpt lat="45.91774" lon="-1.25531">
        <ele>-3.2000000476837</ele>
        <time>2021-11-23T13:00:46.000Z</time>
      </trkpt>
      <trkpt lat="45.91767" lon="-1.25526">
        <ele>-3.4000000953674</ele>
        <time>2021-11-23T13:00:47.000Z</time>
      </trkpt>
      <trkpt lat="45.91723" lon="-1.2549">
        <ele>-4.1999998092651</ele>
        <time>2021-11-23T13:00:54.000Z</time>
      </trkpt>
      <trkpt lat="45.91712" lon="-1.25485">
        <ele>4.2</ele>
      </trkpt>
      <trkpt lat="45.91709" lon="-1.25489">
        <ele>4.3</ele>
      </trkpt>
      <trkpt lat="45.91671" lon="-1.2546">
        <ele>4</ele>
      </trkpt>
      <trkpt lat="45.91664" lon="-1.25459">
        <ele>4</ele>
      </trkpt>
      <trkpt lat="45.91636" lon="-1.25478">
        <ele>4.3</ele>
      </trkpt>
      <trkpt lat="45.91603" lon="-1.25482">
        <ele>5</ele>
      </trkpt>
      <trkpt lat="45.91572" lon="-1.25482">
        <ele>5</ele>
      </trkpt>
      <trkpt lat="45.91526" lon="-1.25489">
        <ele>5</ele>
      </trkpt>
      <trkpt lat="45.91521" lon="-1.25489">
        <ele>5</ele>
      </trkpt>
      <trkpt lat="45.91433" lon="-1.25264">
        <ele>4</ele>
      </trkpt>
      <trkpt lat="45.91352" lon="-1.25112">
        <ele>4</ele>
      </trkpt>
      <trkpt lat="45.9133" lon="-1.25068">
        <ele>4</ele>
      </trkpt>
      <trkpt lat="45.913" lon="-1.25027">
        <ele>4</ele>
      </trkpt>
      <trkpt lat="45.91275" lon="-1.25009">
        <ele>4</ele>
      </trkpt>
      <trkpt lat="45.91198" lon="-1.25005">
        <ele>3.3</ele>
      </trkpt>
      <trkpt lat="45.91186" lon="-1.24991">
        <ele>3.3</ele>
      </trkpt>
      <trkpt lat="45.91114" lon="-1.24612">
        <ele>-2.4000000953674</ele>
        <time>2021-11-23T13:04:38.000Z</time>
      </trkpt>
      <trkpt lat="45.91114" lon="-1.24598">
        <ele>-2.5999999046326</ele>
        <time>2021-11-23T13:04:40.000Z</time>
      </trkpt>
      <trkpt lat="45.91116" lon="-1.2458">
        <ele>-2.7999999523163</ele>
        <time>2021-11-23T13:04:42.000Z</time>
      </trkpt>
      <trkpt lat="45.91116" lon="-1.24572">
        <ele>-3</ele>
        <time>2021-11-23T13:04:43.000Z</time>
      </trkpt>
      <trkpt lat="45.91121" lon="-1.24514">
        <ele>-3.7999999523163</ele>
        <time>2021-11-23T13:04:50.000Z</time>
      </trkpt>
      <trkpt lat="45.91124" lon="-1.24454">
        <ele>-3.4000000953674</ele>
        <time>2021-11-23T13:04:57.000Z</time>
      </trkpt>
      <trkpt lat="45.91123" lon="-1.24422">
        <ele>-3.5999999046326</ele>
        <time>2021-11-23T13:05:01.000Z</time>
      </trkpt>
      <trkpt lat="45.91123" lon="-1.24407">
        <ele>-3.5999999046326</ele>
        <time>2021-11-23T13:05:03.000Z</time>
      </trkpt>
      <trkpt lat="45.91123" lon="-1.24386">
        <ele>-3.5999999046326</ele>
        <time>2021-11-23T13:05:06.000Z</time>
      </trkpt>
      <trkpt lat="45.91123" lon="-1.24373">
        <ele>-3.4000000953674</ele>
        <time>2021-11-23T13:05:08.000Z</time>
      </trkpt>
      <trkpt lat="45.91123" lon="-1.24367">
        <ele>-3.4000000953674</ele>
        <time>2021-11-23T13:05:09.000Z</time>
      </trkpt>
      <trkpt lat="45.91122" lon="-1.24359">
        <ele>-3.4000000953674</ele>
        <time>2021-11-23T13:05:10.000Z</time>
      </trkpt>
      <trkpt lat="45.9112" lon="-1.24315">
        <ele>-3.4000000953674</ele>
        <time>2021-11-23T13:05:15.000Z</time>
      </trkpt>
      <trkpt lat="45.9112" lon="-1.24272">
        <ele>-3.7999999523163</ele>
        <time>2021-11-23T13:05:20.000Z</time>
      </trkpt>
      <trkpt lat="45.9112" lon="-1.24261">
        <ele>-4</ele>
        <time>2021-11-23T13:05:21.000Z</time>
      </trkpt>
      <trkpt lat="45.91123" lon="-1.24186">
        <ele>-4.8000001907349</ele>
        <time>2021-11-23T13:05:30.000Z</time>
      </trkpt>
      <trkpt lat="45.91125" lon="-1.2414">
        <ele>-5</ele>
        <time>2021-11-23T13:05:36.000Z</time>
      </trkpt>
      <trkpt lat="45.91125" lon="-1.24132">
        <ele>-5.1999998092651</ele>
        <time>2021-11-23T13:05:37.000Z</time>
      </trkpt>
      <trkpt lat="45.91123" lon="-1.24125">
        <ele>-5.4000000953674</ele>
        <time>2021-11-23T13:05:38.000Z</time>
      </trkpt>
      <trkpt lat="45.9112" lon="-1.24119">
        <ele>-5.4000000953674</ele>
        <time>2021-11-23T13:05:39.000Z</time>
      </trkpt>
      <trkpt lat="45.9111" lon="-1.24108">
        <ele>-5.5999999046326</ele>
        <time>2021-11-23T13:05:41.000Z</time>
      </trkpt>
      <trkpt lat="45.91101" lon="-1.241">
        <ele>-5.5999999046326</ele>
        <time>2021-11-23T13:05:43.000Z</time>
      </trkpt>
      <trkpt lat="45.91096" lon="-1.24086">
        <ele>-5.5999999046326</ele>
        <time>2021-11-23T13:05:45.000Z</time>
      </trkpt>
      <trkpt lat="45.91094" lon="-1.24047">
        <ele>-6.1999998092651</ele>
        <time>2021-11-23T13:05:50.000Z</time>
      </trkpt>
      <trkpt lat="45.91092" lon="-1.24024">
        <ele>-6.5999999046326</ele>
        <time>2021-11-23T13:05:53.000Z</time>
      </trkpt>
      <trkpt lat="45.9109" lon="-1.23974">
        <ele>-7.1999998092651</ele>
        <time>2021-11-23T13:05:59.000Z</time>
      </trkpt>
      <trkpt lat="45.91088" lon="-1.23908">
        <ele>-7.1999998092651</ele>
        <time>2021-11-23T13:06:07.000Z</time>
      </trkpt>
      <trkpt lat="45.9108" lon="-1.23842">
        <ele>-7.1999998092651</ele>
        <time>2021-11-23T13:06:15.000Z</time>
      </trkpt>
      <trkpt lat="45.91071" lon="-1.23814">
        <ele>-7</ele>
        <time>2021-11-23T13:06:19.000Z</time>
      </trkpt>
      <trkpt lat="45.91068" lon="-1.23808">
        <ele>-6.8000001907349</ele>
        <time>2021-11-23T13:06:20.000Z</time>
      </trkpt>
      <trkpt lat="45.9106" lon="-1.23789">
        <ele>-6.8000001907349</ele>
        <time>2021-11-23T13:06:23.000Z</time>
      </trkpt>
      <trkpt lat="45.91049" lon="-1.2377">
        <ele>-6.8000001907349</ele>
        <time>2021-11-23T13:06:26.000Z</time>
      </trkpt>
      <trkpt lat="45.91039" lon="-1.23762">
        <ele>-6.8000001907349</ele>
        <time>2021-11-23T13:06:28.000Z</time>
      </trkpt>
      <trkpt lat="45.91032" lon="-1.23762">
        <ele>-6.8000001907349</ele>
        <time>2021-11-23T13:06:29.000Z</time>
      </trkpt>
      <trkpt lat="45.91026" lon="-1.23765">
        <ele>-7</ele>
        <time>2021-11-23T13:06:30.000Z</time>
      </trkpt>
      <trkpt lat="45.91021" lon="-1.23768">
        <ele>-7.1999998092651</ele>
        <time>2021-11-23T13:06:31.000Z</time>
      </trkpt>
      <trkpt lat="45.91004" lon="-1.23779">
        <ele>-7.4000000953674</ele>
        <time>2021-11-23T13:06:34.000Z</time>
      </trkpt>
      <trkpt lat="45.90959" lon="-1.23809">
        <ele>-8.1999998092651</ele>
        <time>2021-11-23T13:06:42.000Z</time>
      </trkpt>
      <trkpt lat="45.90948" lon="-1.23817">
        <ele>-8.3999996185303</ele>
        <time>2021-11-23T13:06:44.000Z</time>
      </trkpt>
      <trkpt lat="45.90916" lon="-1.23839">
        <ele>-8.8000001907349</ele>
        <time>2021-11-23T13:06:50.000Z</time>
      </trkpt>
      <trkpt lat="45.90908" lon="-1.23844">
        <ele>-9</ele>
        <time>2021-11-23T13:06:52.000Z</time>
      </trkpt>
      <trkpt lat="45.909" lon="-1.23843">
        <ele>-9</ele>
        <time>2021-11-23T13:06:54.000Z</time>
      </trkpt>
      <trkpt lat="45.90892" lon="-1.23825">
        <ele>-9</ele>
        <time>2021-11-23T13:06:57.000Z</time>
      </trkpt>
      <trkpt lat="45.9089" lon="-1.23818">
        <ele>-9.1999998092651</ele>
        <time>2021-11-23T13:06:58.000Z</time>
      </trkpt>
      <trkpt lat="45.9088" lon="-1.23785">
        <ele>-9.3999996185303</ele>
        <time>2021-11-23T13:07:02.000Z</time>
      </trkpt>
      <trkpt lat="45.90877" lon="-1.23776">
        <ele>-9.3999996185303</ele>
        <time>2021-11-23T13:07:03.000Z</time>
      </trkpt>
      <trkpt lat="45.9086" lon="-1.23727">
        <ele>-9.8000001907349</ele>
        <time>2021-11-23T13:07:09.000Z</time>
      </trkpt>
      <trkpt lat="45.90842" lon="-1.23652">
        <ele>-10</ele>
        <time>2021-11-23T13:07:17.000Z</time>
      </trkpt>
      <trkpt lat="45.90827" lon="-1.2359">
        <ele>-9.8000001907349</ele>
        <time>2021-11-23T13:07:24.000Z</time>
      </trkpt>
      <trkpt lat="45.90817" lon="-1.23517">
        <ele>-9.1999998092651</ele>
        <time>2021-11-23T13:07:32.000Z</time>
      </trkpt>
      <trkpt lat="45.90813" lon="-1.23482">
        <ele>-8.3999996185303</ele>
        <time>2021-11-23T13:07:36.000Z</time>
      </trkpt>
      <trkpt lat="45.90812" lon="-1.23473">
        <ele>-8.1999998092651</ele>
        <time>2021-11-23T13:07:37.000Z</time>
      </trkpt>
      <trkpt lat="45.90799" lon="-1.23419">
        <ele>-7.4000000953674</ele>
        <time>2021-11-23T13:07:43.000Z</time>
      </trkpt>
      <trkpt lat="45.90796" lon="-1.2341">
        <ele>-7.1999998092651</ele>
        <time>2021-11-23T13:07:44.000Z</time>
      </trkpt>
      <trkpt lat="45.90767" lon="-1.23354">
        <ele>-7</ele>
        <time>2021-11-23T13:07:51.000Z</time>
      </trkpt>
      <trkpt lat="45.90735" lon="-1.23304">
        <ele>-6.8000001907349</ele>
        <time>2021-11-23T13:07:58.000Z</time>
      </trkpt>
      <trkpt lat="45.90723" lon="-1.23292">
        <ele>-7</ele>
        <time>2021-11-23T13:08:00.000Z</time>
      </trkpt>
      <trkpt lat="45.90711" lon="-1.23284">
        <ele>-7.4000000953674</ele>
        <time>2021-11-23T13:08:02.000Z</time>
      </trkpt>
      <trkpt lat="45.90682" lon="-1.23264">
        <ele>-8</ele>
        <time>2021-11-23T13:08:07.000Z</time>
      </trkpt>
      <trkpt lat="45.90675" lon="-1.23264">
        <ele>-8</ele>
        <time>2021-11-23T13:08:08.000Z</time>
      </trkpt>
      <trkpt lat="45.90669" lon="-1.23265">
        <ele>-8.1999998092651</ele>
        <time>2021-11-23T13:08:09.000Z</time>
      </trkpt>
      <trkpt lat="45.90663" lon="-1.23269">
        <ele>-8.3999996185303</ele>
        <time>2021-11-23T13:08:10.000Z</time>
      </trkpt>
      <trkpt lat="45.90658" lon="-1.23274">
        <ele>-8.3999996185303</ele>
        <time>2021-11-23T13:08:11.000Z</time>
      </trkpt>
      <trkpt lat="45.90639" lon="-1.233">
        <ele>-9.3999996185303</ele>
        <time>2021-11-23T13:08:15.000Z</time>
      </trkpt>
      <trkpt lat="45.90635" lon="-1.23307">
        <ele>-9.6000003814697</ele>
        <time>2021-11-23T13:08:16.000Z</time>
      </trkpt>
      <trkpt lat="45.9061" lon="-1.23336">
        <ele>-10.60000038147</ele>
        <time>2021-11-23T13:08:21.000Z</time>
      </trkpt>
      <trkpt lat="45.90594" lon="-1.23355">
        <ele>-10.800000190735</ele>
        <time>2021-11-23T13:08:24.000Z</time>
      </trkpt>
      <trkpt lat="45.90584" lon="-1.23365">
        <ele>-11.199999809265</ele>
        <time>2021-11-23T13:08:26.000Z</time>
      </trkpt>
      <trkpt lat="45.90572" lon="-1.23365">
        <ele>-11</ele>
        <time>2021-11-23T13:08:28.000Z</time>
      </trkpt>
      <trkpt lat="45.90565" lon="-1.23353">
        <ele>-10.800000190735</ele>
        <time>2021-11-23T13:08:30.000Z</time>
      </trkpt>
      <trkpt lat="45.90562" lon="-1.23346">
        <ele>-10.800000190735</ele>
        <time>2021-11-23T13:08:31.000Z</time>
      </trkpt>
      <trkpt lat="45.90544" lon="-1.23306">
        <ele>-10.60000038147</ele>
        <time>2021-11-23T13:08:37.000Z</time>
      </trkpt>
      <trkpt lat="45.90528" lon="-1.23272">
        <ele>-10.60000038147</ele>
        <time>2021-11-23T13:08:42.000Z</time>
      </trkpt>
      <trkpt lat="45.90524" lon="-1.23266">
        <ele>-10.60000038147</ele>
        <time>2021-11-23T13:08:43.000Z</time>
      </trkpt>
      <trkpt lat="45.90498" lon="-1.23222">
        <ele>-10.60000038147</ele>
        <time>2021-11-23T13:08:50.000Z</time>
      </trkpt>
      <trkpt lat="45.90473" lon="-1.2317">
        <ele>-10.199999809265</ele>
        <time>2021-11-23T13:08:58.000Z</time>
      </trkpt>
      <trkpt lat="45.9046" lon="-1.23146">
        <ele>-9.8000001907349</ele>
        <time>2021-11-23T13:09:02.000Z</time>
      </trkpt>
      <trkpt lat="45.90452" lon="-1.23129">
        <ele>-9.8000001907349</ele>
        <time>2021-11-23T13:09:05.000Z</time>
      </trkpt>
      <trkpt lat="45.90428" lon="-1.23083">
        <ele>-9.1999998092651</ele>
        <time>2021-11-23T13:09:13.000Z</time>
      </trkpt>
      <trkpt lat="45.90415" lon="-1.23062">
        <ele>-9</ele>
        <time>2021-11-23T13:09:17.000Z</time>
      </trkpt>
      <trkpt lat="45.90412" lon="-1.23057">
        <ele>-8.8000001907349</ele>
        <time>2021-11-23T13:09:18.000Z</time>
      </trkpt>
      <trkpt lat="45.90408" lon="-1.23054">
        <ele>-8.6000003814697</ele>
        <time>2021-11-23T13:09:19.000Z</time>
      </trkpt>
      <trkpt lat="45.90404" lon="-1.23052">
        <ele>-8.3999996185303</ele>
        <time>2021-11-23T13:09:20.000Z</time>
      </trkpt>
      <trkpt lat="45.90395" lon="-1.2305">
        <ele>-8</ele>
        <time>2021-11-23T13:09:22.000Z</time>
      </trkpt>
      <trkpt lat="45.90386" lon="-1.2305">
        <ele>-7.8000001907349</ele>
        <time>2021-11-23T13:09:24.000Z</time>
      </trkpt>
      <trkpt lat="45.90358" lon="-1.23036">
        <ele>-7.5999999046326</ele>
        <time>2021-11-23T13:09:30.000Z</time>
      </trkpt>
      <trkpt lat="45.90349" lon="-1.23031">
        <ele>-7.5999999046326</ele>
        <time>2021-11-23T13:09:32.000Z</time>
      </trkpt>
      <trkpt lat="45.90339" lon="-1.23029">
        <ele>-7.5999999046326</ele>
        <time>2021-11-23T13:09:34.000Z</time>
      </trkpt>
      <trkpt lat="45.90335" lon="-1.2303">
        <ele>-7.5999999046326</ele>
        <time>2021-11-23T13:09:35.000Z</time>
      </trkpt>
      <trkpt lat="45.90302" lon="-1.23037">
        <ele>-8.1999998092651</ele>
        <time>2021-11-23T13:09:42.000Z</time>
      </trkpt>
      <trkpt lat="45.90294" lon="-1.23035">
        <ele>-8.1999998092651</ele>
        <time>2021-11-23T13:09:44.000Z</time>
      </trkpt>
      <trkpt lat="45.90291" lon="-1.23031">
        <ele>-8.1999998092651</ele>
        <time>2021-11-23T13:09:45.000Z</time>
      </trkpt>
      <trkpt lat="45.90289" lon="-1.23026">
        <ele>-8.1999998092651</ele>
        <time>2021-11-23T13:09:46.000Z</time>
      </trkpt>
      <trkpt lat="45.90287" lon="-1.23008">
        <ele>-8.1999998092651</ele>
        <time>2021-11-23T13:09:49.000Z</time>
      </trkpt>
      <trkpt lat="45.90286" lon="-1.23001">
        <ele>-8.1999998092651</ele>
        <time>2021-11-23T13:09:50.000Z</time>
      </trkpt>
      <trkpt lat="45.90279" lon="-1.22977">
        <ele>-8.1999998092651</ele>
        <time>2021-11-23T13:09:54.000Z</time>
      </trkpt>
      <trkpt lat="45.90275" lon="-1.22967">
        <ele>-8.1999998092651</ele>
        <time>2021-11-23T13:09:56.000Z</time>
      </trkpt>
      <trkpt lat="45.90262" lon="-1.2295">
        <ele>-8.3999996185303</ele>
        <time>2021-11-23T13:10:00.000Z</time>
      </trkpt>
      <trkpt lat="45.90256" lon="-1.22942">
        <ele>-8.3999996185303</ele>
        <time>2021-11-23T13:10:02.000Z</time>
      </trkpt>
      <trkpt lat="45.90252" lon="-1.22931">
        <ele>-8.6000003814697</ele>
        <time>2021-11-23T13:10:04.000Z</time>
      </trkpt>
      <trkpt lat="45.90251" lon="-1.22925">
        <ele>-8.6000003814697</ele>
        <time>2021-11-23T13:10:05.000Z</time>
      </trkpt>
      <trkpt lat="45.9025" lon="-1.22913">
        <ele>-8.6000003814697</ele>
        <time>2021-11-23T13:10:07.000Z</time>
      </trkpt>
      <trkpt lat="45.90246" lon="-1.22902">
        <ele>-8.3999996185303</ele>
        <time>2021-11-23T13:10:09.000Z</time>
      </trkpt>
      <trkpt lat="45.90244" lon="-1.22896">
        <ele>-8.3999996185303</ele>
        <time>2021-11-23T13:10:10.000Z</time>
      </trkpt>
      <trkpt lat="45.90231" lon="-1.22868">
        <ele>-8.6000003814697</ele>
        <time>2021-11-23T13:10:16.000Z</time>
      </trkpt>
      <trkpt lat="45.90229" lon="-1.22865">
        <ele>-8.8000001907349</ele>
        <time>2021-11-23T13:10:17.000Z</time>
      </trkpt>
      <trkpt lat="45.90223" lon="-1.22862">
        <ele>-8.8000001907349</ele>
        <time>2021-11-23T13:10:19.000Z</time>
      </trkpt>
      <trkpt lat="45.90209" lon="-1.22861">
        <ele>-8.1999998092651</ele>
        <time>2021-11-23T13:10:24.000Z</time>
      </trkpt>
      <trkpt lat="45.90205" lon="-1.2285">
        <ele>-8.3999996185303</ele>
        <time>2021-11-23T13:10:27.000Z</time>
      </trkpt>
      <trkpt lat="45.90212" lon="-1.22823">
        <ele>-9.1999998092651</ele>
        <time>2021-11-23T13:10:33.000Z</time>
      </trkpt>
      <trkpt lat="45.90224" lon="-1.22797">
        <ele>-9.6000003814697</ele>
        <time>2021-11-23T13:10:40.000Z</time>
      </trkpt>
      <trkpt lat="45.90225" lon="-1.22784">
        <ele>-8.8000001907349</ele>
        <time>2021-11-23T13:10:44.000Z</time>
      </trkpt>
      <trkpt lat="45.90225" lon="-1.22783">
        <ele>-8.8000001907349</ele>
        <time>2021-11-23T13:10:45.000Z</time>
      </trkpt>
      <trkpt lat="45.90225" lon="-1.22781">
        <ele>-8.6000003814697</ele>
        <time>2021-11-23T13:10:52.000Z</time>
      </trkpt>
      <trkpt lat="45.90223" lon="-1.22778">
        <ele>-9</ele>
        <time>2021-11-23T13:10:57.000Z</time>
      </trkpt>
      <trkpt lat="45.90222" lon="-1.22774">
        <ele>-9</ele>
        <time>2021-11-23T13:10:59.000Z</time>
      </trkpt>
      <trkpt lat="45.9022" lon="-1.22772">
        <ele>-9.1999998092651</ele>
        <time>2021-11-23T13:11:00.000Z</time>
      </trkpt>
      <trkpt lat="45.90211" lon="-1.22761">
        <ele>-9.3999996185303</ele>
        <time>2021-11-23T13:11:04.000Z</time>
      </trkpt>
      <trkpt lat="45.90207" lon="-1.22761">
        <ele>-9.3999996185303</ele>
        <time>2021-11-23T13:11:05.000Z</time>
      </trkpt>
      <trkpt lat="45.90199" lon="-1.22764">
        <ele>-9.6000003814697</ele>
        <time>2021-11-23T13:11:07.000Z</time>
      </trkpt>
      <trkpt lat="45.90195" lon="-1.22766">
        <ele>-9.8000001907349</ele>
        <time>2021-11-23T13:11:08.000Z</time>
      </trkpt>
      <trkpt lat="45.90176" lon="-1.22774">
        <ele>-10.199999809265</ele>
        <time>2021-11-23T13:11:12.000Z</time>
      </trkpt>
      <trkpt lat="45.9017" lon="-1.22775">
        <ele>-10.199999809265</ele>
        <time>2021-11-23T13:11:13.000Z</time>
      </trkpt>
      <trkpt lat="45.9016" lon="-1.22773">
        <ele>-10.199999809265</ele>
        <time>2021-11-23T13:11:15.000Z</time>
      </trkpt>
      <trkpt lat="45.90155" lon="-1.22769">
        <ele>-10.199999809265</ele>
        <time>2021-11-23T13:11:16.000Z</time>
      </trkpt>
      <trkpt lat="45.9015" lon="-1.22764">
        <ele>-10</ele>
        <time>2021-11-23T13:11:17.000Z</time>
      </trkpt>
      <trkpt lat="45.90135" lon="-1.22743">
        <ele>-9.8000001907349</ele>
        <time>2021-11-23T13:11:21.000Z</time>
      </trkpt>
      <trkpt lat="45.90131" lon="-1.22738">
        <ele>-9.8000001907349</ele>
        <time>2021-11-23T13:11:22.000Z</time>
      </trkpt>
      <trkpt lat="45.9012" lon="-1.22722">
        <ele>-9.8000001907349</ele>
        <time>2021-11-23T13:11:25.000Z</time>
      </trkpt>
      <trkpt lat="45.90113" lon="-1.22712">
        <ele>-9.6000003814697</ele>
        <time>2021-11-23T13:11:27.000Z</time>
      </trkpt>
      <trkpt lat="45.90086" lon="-1.22666">
        <ele>-8.3999996185303</ele>
        <time>2021-11-23T13:11:35.000Z</time>
      </trkpt>
      <trkpt lat="45.90079" lon="-1.22655">
        <ele>-8.3999996185303</ele>
        <time>2021-11-23T13:11:37.000Z</time>
      </trkpt>
      <trkpt lat="45.90065" lon="-1.22629">
        <ele>-8.1999998092651</ele>
        <time>2021-11-23T13:11:41.000Z</time>
      </trkpt>
      <trkpt lat="45.90061" lon="-1.22622">
        <ele>-8</ele>
        <time>2021-11-23T13:11:42.000Z</time>
      </trkpt>
      <trkpt lat="45.90041" lon="-1.22584">
        <ele>-8</ele>
        <time>2021-11-23T13:11:48.000Z</time>
      </trkpt>
      <trkpt lat="45.90037" lon="-1.22578">
        <ele>-7.8000001907349</ele>
        <time>2021-11-23T13:11:49.000Z</time>
      </trkpt>
      <trkpt lat="45.90032" lon="-1.22573">
        <ele>-7.8000001907349</ele>
        <time>2021-11-23T13:11:50.000Z</time>
      </trkpt>
      <trkpt lat="45.90022" lon="-1.22567">
        <ele>-7.8000001907349</ele>
        <time>2021-11-23T13:11:52.000Z</time>
      </trkpt>
      <trkpt lat="45.90016" lon="-1.22565">
        <ele>-7.8000001907349</ele>
        <time>2021-11-23T13:11:53.000Z</time>
      </trkpt>
      <trkpt lat="45.89985" lon="-1.22557">
        <ele>-7.8000001907349</ele>
        <time>2021-11-23T13:11:58.000Z</time>
      </trkpt>
      <trkpt lat="45.89979" lon="-1.22557">
        <ele>-7.5999999046326</ele>
        <time>2021-11-23T13:11:59.000Z</time>
      </trkpt>
      <trkpt lat="45.89973" lon="-1.22558">
        <ele>-7.5999999046326</ele>
        <time>2021-11-23T13:12:00.000Z</time>
      </trkpt>
      <trkpt lat="45.89949" lon="-1.2257">
        <ele>-7.5999999046326</ele>
        <time>2021-11-23T13:12:04.000Z</time>
      </trkpt>
      <trkpt lat="45.89911" lon="-1.22587">
        <ele>-7.5999999046326</ele>
        <time>2021-11-23T13:12:10.000Z</time>
      </trkpt>
      <trkpt lat="45.89905" lon="-1.22587">
        <ele>-7.5999999046326</ele>
        <time>2021-11-23T13:12:11.000Z</time>
      </trkpt>
      <trkpt lat="45.89899" lon="-1.22584">
        <ele>-7.8000001907349</ele>
        <time>2021-11-23T13:12:12.000Z</time>
      </trkpt>
      <trkpt lat="45.89895" lon="-1.22579">
        <ele>-7.5999999046326</ele>
        <time>2021-11-23T13:12:13.000Z</time>
      </trkpt>
      <trkpt lat="45.89891" lon="-1.22572">
        <ele>-7.5999999046326</ele>
        <time>2021-11-23T13:12:14.000Z</time>
      </trkpt>
      <trkpt lat="45.89882" lon="-1.2255">
        <ele>-7.8000001907349</ele>
        <time>2021-11-23T13:12:17.000Z</time>
      </trkpt>
      <trkpt lat="45.89862" lon="-1.22518">
        <ele>-7.5999999046326</ele>
        <time>2021-11-23T13:12:22.000Z</time>
      </trkpt>
      <trkpt lat="45.89858" lon="-1.22512">
        <ele>-7.5999999046326</ele>
        <time>2021-11-23T13:12:23.000Z</time>
      </trkpt>
      <trkpt lat="45.89852" lon="-1.22508">
        <ele>-7.5999999046326</ele>
        <time>2021-11-23T13:12:24.000Z</time>
      </trkpt>
      <trkpt lat="45.8984" lon="-1.22503">
        <ele>-7.4000000953674</ele>
        <time>2021-11-23T13:12:26.000Z</time>
      </trkpt>
      <trkpt lat="45.89834" lon="-1.22502">
        <ele>-7.1999998092651</ele>
        <time>2021-11-23T13:12:27.000Z</time>
      </trkpt>
      <trkpt lat="45.89789" lon="-1.22495">
        <ele>-7</ele>
        <time>2021-11-23T13:12:34.000Z</time>
      </trkpt>
      <trkpt lat="45.89739" lon="-1.22494">
        <ele>-6.4000000953674</ele>
        <time>2021-11-23T13:12:42.000Z</time>
      </trkpt>
      <trkpt lat="45.89721" lon="-1.22501">
        <ele>-6.1999998092651</ele>
        <time>2021-11-23T13:12:45.000Z</time>
      </trkpt>
      <trkpt lat="45.89698" lon="-1.22514">
        <ele>-6.1999998092651</ele>
        <time>2021-11-23T13:12:49.000Z</time>
      </trkpt>
      <trkpt lat="45.89648" lon="-1.22539">
        <ele>-6</ele>
        <time>2021-11-23T13:12:58.000Z</time>
      </trkpt>
      <trkpt lat="45.89596" lon="-1.22557">
        <ele>-6</ele>
        <time>2021-11-23T13:13:08.000Z</time>
      </trkpt>
      <trkpt lat="45.89549" lon="-1.22572">
        <ele>-5.5999999046326</ele>
        <time>2021-11-23T13:13:17.000Z</time>
      </trkpt>
      <trkpt lat="45.8954" lon="-1.22568">
        <ele>-5.4000000953674</ele>
        <time>2021-11-23T13:13:19.000Z</time>
      </trkpt>
      <trkpt lat="45.89536" lon="-1.22563">
        <ele>-5.4000000953674</ele>
        <time>2021-11-23T13:13:20.000Z</time>
      </trkpt>
      <trkpt lat="45.89533" lon="-1.22558">
        <ele>-5.4000000953674</ele>
        <time>2021-11-23T13:13:21.000Z</time>
      </trkpt>
      <trkpt lat="45.8953" lon="-1.22552">
        <ele>-5.1999998092651</ele>
        <time>2021-11-23T13:13:22.000Z</time>
      </trkpt>
      <trkpt lat="45.89517" lon="-1.22528">
        <ele>-5</ele>
        <time>2021-11-23T13:13:26.000Z</time>
      </trkpt>
      <trkpt lat="45.89502" lon="-1.22504">
        <ele>-4.5999999046326</ele>
        <time>2021-11-23T13:13:30.000Z</time>
      </trkpt>
      <trkpt lat="45.89497" lon="-1.22501">
        <ele>-4.5999999046326</ele>
        <time>2021-11-23T13:13:31.000Z</time>
      </trkpt>
      <trkpt lat="45.89492" lon="-1.22501">
        <ele>-4.5999999046326</ele>
        <time>2021-11-23T13:13:32.000Z</time>
      </trkpt>
      <trkpt lat="45.89487" lon="-1.22505">
        <ele>-4.5999999046326</ele>
        <time>2021-11-23T13:13:33.000Z</time>
      </trkpt>
      <trkpt lat="45.89483" lon="-1.2251">
        <ele>-4.4000000953674</ele>
        <time>2021-11-23T13:13:34.000Z</time>
      </trkpt>
      <trkpt lat="45.89478" lon="-1.22515">
        <ele>-4.1999998092651</ele>
        <time>2021-11-23T13:13:35.000Z</time>
      </trkpt>
      <trkpt lat="45.8946" lon="-1.22535">
        <ele>-3.4000000953674</ele>
        <time>2021-11-23T13:13:39.000Z</time>
      </trkpt>
      <trkpt lat="45.89447" lon="-1.22552">
        <ele>-3.2000000476837</ele>
        <time>2021-11-23T13:13:42.000Z</time>
      </trkpt>
      <trkpt lat="45.89424" lon="-1.22581">
        <ele>-2.7999999523163</ele>
        <time>2021-11-23T13:13:47.000Z</time>
      </trkpt>
      <trkpt lat="45.89403" lon="-1.22607">
        <ele>-2.7999999523163</ele>
        <time>2021-11-23T13:13:52.000Z</time>
      </trkpt>
      <trkpt lat="45.89393" lon="-1.2261">
        <ele>-2.5999999046326</ele>
        <time>2021-11-23T13:13:54.000Z</time>
      </trkpt>
      <trkpt lat="45.89386" lon="-1.22602">
        <ele>-2.5999999046326</ele>
        <time>2021-11-23T13:13:56.000Z</time>
      </trkpt>
      <trkpt lat="45.89369" lon="-1.22553">
        <ele>-2.5999999046326</ele>
        <time>2021-11-23T13:14:03.000Z</time>
      </trkpt>
      <trkpt lat="45.89348" lon="-1.22502">
        <ele>-2.4000000953674</ele>
        <time>2021-11-23T13:14:10.000Z</time>
      </trkpt>
      <trkpt lat="45.89335" lon="-1.22473">
        <ele>-2</ele>
        <time>2021-11-23T13:14:14.000Z</time>
      </trkpt>
      <trkpt lat="45.89322" lon="-1.22444">
        <ele>-2</ele>
        <time>2021-11-23T13:14:18.000Z</time>
      </trkpt>
      <trkpt lat="45.89302" lon="-1.22394">
        <ele>-1.3999999761581</ele>
        <time>2021-11-23T13:14:25.000Z</time>
      </trkpt>
      <trkpt lat="45.89287" lon="-1.22359">
        <ele>-1</ele>
        <time>2021-11-23T13:14:30.000Z</time>
      </trkpt>
      <trkpt lat="45.89276" lon="-1.22332">
        <ele>-0.60000002384186</ele>
        <time>2021-11-23T13:14:34.000Z</time>
      </trkpt>
      <trkpt lat="45.89253" lon="-1.22284">
        <ele>9</ele>
        <time>2021-11-23T13:14:41.000Z</time>
      </trkpt>
      <trkpt lat="45.89247" lon="-1.22271">
        <ele>9</ele>
        <time>2021-11-23T13:14:43.000Z</time>
      </trkpt>
      <trkpt lat="45.89225" lon="-1.22228">
        <ele>0.20000000298023</ele>
        <time>2021-11-23T13:14:50.000Z</time>
      </trkpt>
      <trkpt lat="45.89218" lon="-1.22222">
        <ele>0.40000000596046</ele>
        <time>2021-11-23T13:14:52.000Z</time>
      </trkpt>
      <trkpt lat="45.89213" lon="-1.22223">
        <ele>0.60000002384186</ele>
        <time>2021-11-23T13:14:53.000Z</time>
      </trkpt>
      <trkpt lat="45.89208" lon="-1.22227">
        <ele>0.60000002384186</ele>
        <time>2021-11-23T13:14:54.000Z</time>
      </trkpt>
      <trkpt lat="45.89193" lon="-1.2224">
        <ele>1</ele>
        <time>2021-11-23T13:14:57.000Z</time>
      </trkpt>
      <trkpt lat="45.89154" lon="-1.22271">
        <ele>1.2000000476837</ele>
        <time>2021-11-23T13:15:05.000Z</time>
      </trkpt>
      <trkpt lat="45.8915" lon="-1.22274">
        <ele>1.2000000476837</ele>
        <time>2021-11-23T13:15:06.000Z</time>
      </trkpt>
      <trkpt lat="45.89146" lon="-1.22275">
        <ele>1.2000000476837</ele>
        <time>2021-11-23T13:15:08.000Z</time>
      </trkpt>
      <trkpt lat="45.89138" lon="-1.22265">
        <ele>1.2000000476837</ele>
        <time>2021-11-23T13:15:11.000Z</time>
      </trkpt>
      <trkpt lat="45.89136" lon="-1.22259">
        <ele>1.2000000476837</ele>
        <time>2021-11-23T13:15:12.000Z</time>
      </trkpt>
      <trkpt lat="45.89129" lon="-1.22232">
        <ele>1</ele>
        <time>2021-11-23T13:15:16.000Z</time>
      </trkpt>
      <trkpt lat="45.89126" lon="-1.22225">
        <ele>1</ele>
        <time>2021-11-23T13:15:17.000Z</time>
      </trkpt>
      <trkpt lat="45.89119" lon="-1.22222">
        <ele>1</ele>
        <time>2021-11-23T13:15:19.000Z</time>
      </trkpt>
      <trkpt lat="45.89115" lon="-1.22224">
        <ele>1</ele>
        <time>2021-11-23T13:15:20.000Z</time>
      </trkpt>
      <trkpt lat="45.89103" lon="-1.22236">
        <ele>1</ele>
        <time>2021-11-23T13:15:23.000Z</time>
      </trkpt>
      <trkpt lat="45.89099" lon="-1.22241">
        <ele>1</ele>
        <time>2021-11-23T13:15:24.000Z</time>
      </trkpt>
      <trkpt lat="45.89096" lon="-1.22253">
        <ele>1</ele>
        <time>2021-11-23T13:15:26.000Z</time>
      </trkpt>
      <trkpt lat="45.89096" lon="-1.22299">
        <ele>1.2000000476837</ele>
        <time>2021-11-23T13:15:32.000Z</time>
      </trkpt>
      <trkpt lat="45.8909" lon="-1.2231">
        <ele>1</ele>
        <time>2021-11-23T13:15:34.000Z</time>
      </trkpt>
      <trkpt lat="45.89085" lon="-1.22315">
        <ele>1</ele>
        <time>2021-11-23T13:15:35.000Z</time>
      </trkpt>
      <trkpt lat="45.89056" lon="-1.22335">
        <ele>0.80000001192093</ele>
        <time>2021-11-23T13:15:40.000Z</time>
      </trkpt>
      <trkpt lat="45.89015" lon="-1.2236">
        <ele>0.60000002384186</ele>
        <time>2021-11-23T13:15:47.000Z</time>
      </trkpt>
      <trkpt lat="45.88967" lon="-1.22391">
        <ele>0.20000000298023</ele>
        <time>2021-11-23T13:15:55.000Z</time>
      </trkpt>
      <trkpt lat="45.88955" lon="-1.224">
        <ele>8</ele>
        <time>2021-11-23T13:15:57.000Z</time>
      </trkpt>
      <trkpt lat="45.88924" lon="-1.22419">
        <ele>-0.80000001192093</ele>
        <time>2021-11-23T13:16:02.000Z</time>
      </trkpt>
      <trkpt lat="45.88911" lon="-1.22425">
        <ele>-1.2000000476837</ele>
        <time>2021-11-23T13:16:04.000Z</time>
      </trkpt>
      <trkpt lat="45.8886" lon="-1.22452">
        <ele>-1.2000000476837</ele>
        <time>2021-11-23T13:16:12.000Z</time>
      </trkpt>
      <trkpt lat="45.88817" lon="-1.22477">
        <ele>-1.3999999761581</ele>
        <time>2021-11-23T13:16:19.000Z</time>
      </trkpt>
      <trkpt lat="45.88768" lon="-1.22508">
        <ele>-1.6000000238419</ele>
        <time>2021-11-23T13:16:27.000Z</time>
      </trkpt>
      <trkpt lat="45.88717" lon="-1.22534">
        <ele>-1.7999999523163</ele>
        <time>2021-11-23T13:16:35.000Z</time>
      </trkpt>
      <trkpt lat="45.88677" lon="-1.22554">
        <ele>-1.6000000238419</ele>
        <time>2021-11-23T13:16:42.000Z</time>
      </trkpt>
      <trkpt lat="45.88673" lon="-1.22556">
        <ele>-1.6000000238419</ele>
        <time>2021-11-23T13:16:43.000Z</time>
      </trkpt>
      <trkpt lat="45.88667" lon="-1.22553">
        <ele>-1.6000000238419</ele>
        <time>2021-11-23T13:16:45.000Z</time>
      </trkpt>
      <trkpt lat="45.88664" lon="-1.22543">
        <ele>-1.6000000238419</ele>
        <time>2021-11-23T13:16:47.000Z</time>
      </trkpt>
      <trkpt lat="45.88663" lon="-1.22529">
        <ele>-1.6000000238419</ele>
        <time>2021-11-23T13:16:49.000Z</time>
      </trkpt>
      <trkpt lat="45.88657" lon="-1.22484">
        <ele>-1.7999999523163</ele>
        <time>2021-11-23T13:16:55.000Z</time>
      </trkpt>
      <trkpt lat="45.88648" lon="-1.22425">
        <ele>-1.3999999761581</ele>
        <time>2021-11-23T13:17:03.000Z</time>
      </trkpt>
      <trkpt lat="45.88641" lon="-1.22368">
        <ele>-0.60000002384186</ele>
        <time>2021-11-23T13:17:10.000Z</time>
      </trkpt>
      <trkpt lat="45.88633" lon="-1.22303">
        <ele>6</ele>
        <time>2021-11-23T13:17:18.000Z</time>
      </trkpt>
      <trkpt lat="45.88606" lon="-1.22321">
        <ele>6</ele>
      </trkpt>
      <trkpt lat="45.88598" lon="-1.22302">
        <ele>-13.199999809265</ele>
        <time>2021-11-21T09:45:05.000Z</time>
      </trkpt>
      <trkpt lat="45.88585" lon="-1.22276">
        <ele>-13.199999809265</ele>
        <time>2021-11-21T09:45:08.000Z</time>
      </trkpt>
      <trkpt lat="45.88577" lon="-1.22258">
        <ele>-13.199999809265</ele>
        <time>2021-11-21T09:45:10.000Z</time>
      </trkpt>
      <trkpt lat="45.88573" lon="-1.22249">
        <ele>-13.199999809265</ele>
        <time>2021-11-21T09:45:11.000Z</time>
      </trkpt>
      <trkpt lat="45.88555" lon="-1.22214">
        <ele>-13.199999809265</ele>
        <time>2021-11-21T09:45:15.000Z</time>
      </trkpt>
      <trkpt lat="45.88546" lon="-1.22197">
        <ele>-13.39999961853</ele>
        <time>2021-11-21T09:45:17.000Z</time>
      </trkpt>
      <trkpt lat="45.88525" lon="-1.22155">
        <ele>-13.39999961853</ele>
        <time>2021-11-21T09:45:22.000Z</time>
      </trkpt>
      <trkpt lat="45.88518" lon="-1.22136">
        <ele>-13.199999809265</ele>
        <time>2021-11-21T09:45:24.000Z</time>
      </trkpt>
      <trkpt lat="45.88498" lon="-1.22081">
        <ele>-13.199999809265</ele>
        <time>2021-11-21T09:45:30.000Z</time>
      </trkpt>
      <trkpt lat="45.88494" lon="-1.22073">
        <ele>-13.199999809265</ele>
        <time>2021-11-21T09:45:31.000Z</time>
      </trkpt>
      <trkpt lat="45.88485" lon="-1.22056">
        <ele>-13.39999961853</ele>
        <time>2021-11-21T09:45:33.000Z</time>
      </trkpt>
      <trkpt lat="45.88481" lon="-1.22047">
        <ele>-13.39999961853</ele>
        <time>2021-11-21T09:45:34.000Z</time>
      </trkpt>
      <trkpt lat="45.88456" lon="-1.21979">
        <ele>-13.60000038147</ele>
        <time>2021-11-21T09:45:41.000Z</time>
      </trkpt>
      <trkpt lat="45.88452" lon="-1.2196">
        <ele>-13.60000038147</ele>
        <time>2021-11-21T09:45:43.000Z</time>
      </trkpt>
      <trkpt lat="45.88451" lon="-1.21943">
        <ele>-13.60000038147</ele>
        <time>2021-11-21T09:45:45.000Z</time>
      </trkpt>
      <trkpt lat="45.88453" lon="-1.21919">
        <ele>-13.800000190735</ele>
        <time>2021-11-21T09:45:48.000Z</time>
      </trkpt>
      <trkpt lat="45.88452" lon="-1.21911">
        <ele>-13.800000190735</ele>
        <time>2021-11-21T09:45:49.000Z</time>
      </trkpt>
      <trkpt lat="45.88447" lon="-1.21905">
        <ele>-13.800000190735</ele>
        <time>2021-11-21T09:45:50.000Z</time>
      </trkpt>
      <trkpt lat="45.88435" lon="-1.21899">
        <ele>-13.800000190735</ele>
        <time>2021-11-21T09:45:52.000Z</time>
      </trkpt>
      <trkpt lat="45.88421" lon="-1.21894">
        <ele>-14</ele>
        <time>2021-11-21T09:45:54.000Z</time>
      </trkpt>
      <trkpt lat="45.884" lon="-1.21888">
        <ele>-14</ele>
        <time>2021-11-21T09:45:57.000Z</time>
      </trkpt>
      <trkpt lat="45.88389" lon="-1.21878">
        <ele>-14</ele>
        <time>2021-11-21T09:45:59.000Z</time>
      </trkpt>
      <trkpt lat="45.88384" lon="-1.21872">
        <ele>-14</ele>
        <time>2021-11-21T09:46:00.000Z</time>
      </trkpt>
      <trkpt lat="45.88374" lon="-1.21859">
        <ele>-14</ele>
        <time>2021-11-21T09:46:02.000Z</time>
      </trkpt>
      <trkpt lat="45.88363" lon="-1.21846">
        <ele>-14.199999809265</ele>
        <time>2021-11-21T09:46:04.000Z</time>
      </trkpt>
      <trkpt lat="45.88357" lon="-1.21842">
        <ele>-14.39999961853</ele>
        <time>2021-11-21T09:46:05.000Z</time>
      </trkpt>
      <trkpt lat="45.88345" lon="-1.21831">
        <ele>-14.800000190735</ele>
        <time>2021-11-21T09:46:07.000Z</time>
      </trkpt>
      <trkpt lat="45.8834" lon="-1.21824">
        <ele>-15</ele>
        <time>2021-11-21T09:46:08.000Z</time>
      </trkpt>
      <trkpt lat="45.88335" lon="-1.21815">
        <ele>-15.199999809265</ele>
        <time>2021-11-21T09:46:09.000Z</time>
      </trkpt>
      <trkpt lat="45.88331" lon="-1.21806">
        <ele>-15.39999961853</ele>
        <time>2021-11-21T09:46:10.000Z</time>
      </trkpt>
      <trkpt lat="45.88324" lon="-1.21789">
        <ele>-15.39999961853</ele>
        <time>2021-11-21T09:46:12.000Z</time>
      </trkpt>
      <trkpt lat="45.88312" lon="-1.21778">
        <ele>-15.39999961853</ele>
        <time>2021-11-21T09:46:14.000Z</time>
      </trkpt>
      <trkpt lat="45.88305" lon="-1.21774">
        <ele>-15.39999961853</ele>
        <time>2021-11-21T09:46:15.000Z</time>
      </trkpt>
      <trkpt lat="45.88299" lon="-1.2177">
        <ele>-15.39999961853</ele>
        <time>2021-11-21T09:46:16.000Z</time>
      </trkpt>
      <trkpt lat="45.8829" lon="-1.21757">
        <ele>-15.199999809265</ele>
        <time>2021-11-21T09:46:18.000Z</time>
      </trkpt>
      <trkpt lat="45.88285" lon="-1.21739">
        <ele>-15</ele>
        <time>2021-11-21T09:46:20.000Z</time>
      </trkpt>
      <trkpt lat="45.88284" lon="-1.21721">
        <ele>-15</ele>
        <time>2021-11-21T09:46:22.000Z</time>
      </trkpt>
      <trkpt lat="45.88283" lon="-1.21705">
        <ele>-15</ele>
        <time>2021-11-21T09:46:24.000Z</time>
      </trkpt>
      <trkpt lat="45.88281" lon="-1.21689">
        <ele>-14.800000190735</ele>
        <time>2021-11-21T09:46:26.000Z</time>
      </trkpt>
      <trkpt lat="45.88281" lon="-1.21681">
        <ele>-14.800000190735</ele>
        <time>2021-11-21T09:46:27.000Z</time>
      </trkpt>
      <trkpt lat="45.88279" lon="-1.21672">
        <ele>-14.800000190735</ele>
        <time>2021-11-21T09:46:28.000Z</time>
      </trkpt>
      <trkpt lat="45.88276" lon="-1.21649">
        <ele>-14.60000038147</ele>
        <time>2021-11-21T09:46:31.000Z</time>
      </trkpt>
      <trkpt lat="45.8827" lon="-1.21612">
        <ele>-14.60000038147</ele>
        <time>2021-11-21T09:46:35.000Z</time>
      </trkpt>
      <trkpt lat="45.88265" lon="-1.21583">
        <ele>-14.60000038147</ele>
        <time>2021-11-21T09:46:38.000Z</time>
      </trkpt>
      <trkpt lat="45.88263" lon="-1.21575">
        <ele>-14.60000038147</ele>
        <time>2021-11-21T09:46:39.000Z</time>
      </trkpt>
      <trkpt lat="45.88261" lon="-1.21556">
        <ele>-14.39999961853</ele>
        <time>2021-11-21T09:46:41.000Z</time>
      </trkpt>
      <trkpt lat="45.88255" lon="-1.21535">
        <ele>-14.199999809265</ele>
        <time>2021-11-21T09:46:43.000Z</time>
      </trkpt>
      <trkpt lat="45.88243" lon="-1.21462">
        <ele>-13.800000190735</ele>
        <time>2021-11-21T09:46:50.000Z</time>
      </trkpt>
      <trkpt lat="45.88231" lon="-1.21393">
        <ele>-13.39999961853</ele>
        <time>2021-11-21T09:46:57.000Z</time>
      </trkpt>
      <trkpt lat="45.8822" lon="-1.21345">
        <ele>-13.39999961853</ele>
        <time>2021-11-21T09:47:02.000Z</time>
      </trkpt>
      <trkpt lat="45.88216" lon="-1.21328">
        <ele>-13.39999961853</ele>
        <time>2021-11-21T09:47:04.000Z</time>
      </trkpt>
      <trkpt lat="45.88201" lon="-1.2127">
        <ele>-13</ele>
        <time>2021-11-21T09:47:10.000Z</time>
      </trkpt>
      <trkpt lat="45.88196" lon="-1.21246">
        <ele>-12.800000190735</ele>
        <time>2021-11-21T09:47:13.000Z</time>
      </trkpt>
      <trkpt lat="45.88195" lon="-1.21239">
        <ele>-12.800000190735</ele>
        <time>2021-11-21T09:47:14.000Z</time>
      </trkpt>
      <trkpt lat="45.88194" lon="-1.21226">
        <ele>-12.800000190735</ele>
        <time>2021-11-21T09:47:16.000Z</time>
      </trkpt>
      <trkpt lat="45.88189" lon="-1.21199">
        <ele>-12.800000190735</ele>
        <time>2021-11-21T09:47:19.000Z</time>
      </trkpt>
      <trkpt lat="45.8818" lon="-1.21159">
        <ele>-12.800000190735</ele>
        <time>2021-11-21T09:47:23.000Z</time>
      </trkpt>
      <trkpt lat="45.88178" lon="-1.21148">
        <ele>-13.199999809265</ele>
        <time>2021-11-21T09:47:24.000Z</time>
      </trkpt>
      <trkpt lat="45.88178" lon="-1.21137">
        <ele>-13.39999961853</ele>
        <time>2021-11-21T09:47:25.000Z</time>
      </trkpt>
      <trkpt lat="45.88179" lon="-1.21115">
        <ele>-13.60000038147</ele>
        <time>2021-11-21T09:47:27.000Z</time>
      </trkpt>
      <trkpt lat="45.88179" lon="-1.21104">
        <ele>-13.39999961853</ele>
        <time>2021-11-21T09:47:28.000Z</time>
      </trkpt>
      <trkpt lat="45.88183" lon="-1.2106">
        <ele>-13.60000038147</ele>
        <time>2021-11-21T09:47:32.000Z</time>
      </trkpt>
      <trkpt lat="45.88183" lon="-1.2105">
        <ele>-13.800000190735</ele>
        <time>2021-11-21T09:47:33.000Z</time>
      </trkpt>
      <trkpt lat="45.8818" lon="-1.21018">
        <ele>-14.800000190735</ele>
        <time>2021-11-21T09:47:36.000Z</time>
      </trkpt>
      <trkpt lat="45.88178" lon="-1.21008">
        <ele>-14.800000190735</ele>
        <time>2021-11-21T09:47:37.000Z</time>
      </trkpt>
      <trkpt lat="45.88169" lon="-1.20992">
        <ele>-15</ele>
        <time>2021-11-21T09:47:39.000Z</time>
      </trkpt>
      <trkpt lat="45.88155" lon="-1.20982">
        <ele>-15</ele>
        <time>2021-11-21T09:47:41.000Z</time>
      </trkpt>
      <trkpt lat="45.8814" lon="-1.20976">
        <ele>-15.39999961853</ele>
        <time>2021-11-21T09:47:43.000Z</time>
      </trkpt>
      <trkpt lat="45.88117" lon="-1.20969">
        <ele>-15.39999961853</ele>
        <time>2021-11-21T09:47:46.000Z</time>
      </trkpt>
      <trkpt lat="45.88101" lon="-1.20971">
        <ele>-15.39999961853</ele>
        <time>2021-11-21T09:47:48.000Z</time>
      </trkpt>
      <trkpt lat="45.88085" lon="-1.20972">
        <ele>-15.60000038147</ele>
        <time>2021-11-21T09:47:50.000Z</time>
      </trkpt>
      <trkpt lat="45.88078" lon="-1.20966">
        <ele>-15.60000038147</ele>
        <time>2021-11-21T09:47:51.000Z</time>
      </trkpt>
      <trkpt lat="45.88073" lon="-1.20959">
        <ele>-15.60000038147</ele>
        <time>2021-11-21T09:47:52.000Z</time>
      </trkpt>
      <trkpt lat="45.88063" lon="-1.20941">
        <ele>-15.60000038147</ele>
        <time>2021-11-21T09:47:54.000Z</time>
      </trkpt>
      <trkpt lat="45.8805" lon="-1.20901">
        <ele>-15.800000190735</ele>
        <time>2021-11-21T09:47:58.000Z</time>
      </trkpt>
      <trkpt lat="45.88044" lon="-1.2088">
        <ele>-15.800000190735</ele>
        <time>2021-11-21T09:48:00.000Z</time>
      </trkpt>
      <trkpt lat="45.88041" lon="-1.2087">
        <ele>-15.800000190735</ele>
        <time>2021-11-21T09:48:01.000Z</time>
      </trkpt>
      <trkpt lat="45.88033" lon="-1.20851">
        <ele>-16</ele>
        <time>2021-11-21T09:48:03.000Z</time>
      </trkpt>
      <trkpt lat="45.88028" lon="-1.20842">
        <ele>-16</ele>
        <time>2021-11-21T09:48:04.000Z</time>
      </trkpt>
      <trkpt lat="45.87993" lon="-1.20792">
        <ele>-16.200000762939</ele>
        <time>2021-11-21T09:48:10.000Z</time>
      </trkpt>
      <trkpt lat="45.87986" lon="-1.20788">
        <ele>-16.200000762939</ele>
        <time>2021-11-21T09:48:11.000Z</time>
      </trkpt>
      <trkpt lat="45.87979" lon="-1.20787">
        <ele>-16.200000762939</ele>
        <time>2021-11-21T09:48:12.000Z</time>
      </trkpt>
      <trkpt lat="45.87971" lon="-1.2079">
        <ele>-16.200000762939</ele>
        <time>2021-11-21T09:48:13.000Z</time>
      </trkpt>
      <trkpt lat="45.87926" lon="-1.2082">
        <ele>-16.60000038147</ele>
        <time>2021-11-21T09:48:19.000Z</time>
      </trkpt>
      <trkpt lat="45.87887" lon="-1.20844">
        <ele>-16.799999237061</ele>
        <time>2021-11-21T09:48:24.000Z</time>
      </trkpt>
      <trkpt lat="45.87872" lon="-1.20854">
        <ele>-16.799999237061</ele>
        <time>2021-11-21T09:48:26.000Z</time>
      </trkpt>
      <trkpt lat="45.87864" lon="-1.20858">
        <ele>-17</ele>
        <time>2021-11-21T09:48:27.000Z</time>
      </trkpt>
      <trkpt lat="45.87856" lon="-1.20861">
        <ele>-17</ele>
        <time>2021-11-21T09:48:28.000Z</time>
      </trkpt>
      <trkpt lat="45.87834" lon="-1.20864">
        <ele>-17</ele>
        <time>2021-11-21T09:48:31.000Z</time>
      </trkpt>
      <trkpt lat="45.87819" lon="-1.20857">
        <ele>-17</ele>
        <time>2021-11-21T09:48:33.000Z</time>
      </trkpt>
      <trkpt lat="45.87813" lon="-1.2085">
        <ele>-17</ele>
        <time>2021-11-21T09:48:34.000Z</time>
      </trkpt>
      <trkpt lat="45.87801" lon="-1.20834">
        <ele>-16.799999237061</ele>
        <time>2021-11-21T09:48:36.000Z</time>
      </trkpt>
      <trkpt lat="45.87787" lon="-1.20806">
        <ele>-16.60000038147</ele>
        <time>2021-11-21T09:48:39.000Z</time>
      </trkpt>
      <trkpt lat="45.87782" lon="-1.20785">
        <ele>-16.799999237061</ele>
        <time>2021-11-21T09:48:41.000Z</time>
      </trkpt>
      <trkpt lat="45.8778" lon="-1.20774">
        <ele>-16.799999237061</ele>
        <time>2021-11-21T09:48:42.000Z</time>
      </trkpt>
      <trkpt lat="45.8778" lon="-1.20763">
        <ele>-16.799999237061</ele>
        <time>2021-11-21T09:48:43.000Z</time>
      </trkpt>
      <trkpt lat="45.87782" lon="-1.20718">
        <ele>-16.799999237061</ele>
        <time>2021-11-21T09:48:47.000Z</time>
      </trkpt>
      <trkpt lat="45.87782" lon="-1.20707">
        <ele>-17</ele>
        <time>2021-11-21T09:48:48.000Z</time>
      </trkpt>
      <trkpt lat="45.87776" lon="-1.2069">
        <ele>-17</ele>
        <time>2021-11-21T09:48:50.000Z</time>
      </trkpt>
      <trkpt lat="45.87762" lon="-1.20685">
        <ele>-17</ele>
        <time>2021-11-21T09:48:52.000Z</time>
      </trkpt>
      <trkpt lat="45.87732" lon="-1.20697">
        <ele>-17.200000762939</ele>
        <time>2021-11-21T09:48:56.000Z</time>
      </trkpt>
      <trkpt lat="45.87683" lon="-1.20716">
        <ele>-17.39999961853</ele>
        <time>2021-11-21T09:49:02.000Z</time>
      </trkpt>
      <trkpt lat="45.87666" lon="-1.2072">
        <ele>-17.39999961853</ele>
        <time>2021-11-21T09:49:04.000Z</time>
      </trkpt>
      <trkpt lat="45.87648" lon="-1.2072">
        <ele>-17.39999961853</ele>
        <time>2021-11-21T09:49:06.000Z</time>
      </trkpt>
      <trkpt lat="45.87631" lon="-1.2072">
        <ele>-17.39999961853</ele>
        <time>2021-11-21T09:49:08.000Z</time>
      </trkpt>
      <trkpt lat="45.87615" lon="-1.20725">
        <ele>-17.60000038147</ele>
        <time>2021-11-21T09:49:10.000Z</time>
      </trkpt>
      <trkpt lat="45.87601" lon="-1.20732">
        <ele>-17.60000038147</ele>
        <time>2021-11-21T09:49:12.000Z</time>
      </trkpt>
      <trkpt lat="45.87593" lon="-1.20733">
        <ele>-17.60000038147</ele>
        <time>2021-11-21T09:49:13.000Z</time>
      </trkpt>
      <trkpt lat="45.87586" lon="-1.20732">
        <ele>-17.60000038147</ele>
        <time>2021-11-21T09:49:14.000Z</time>
      </trkpt>
      <trkpt lat="45.8757" lon="-1.20727">
        <ele>-17.60000038147</ele>
        <time>2021-11-21T09:49:16.000Z</time>
      </trkpt>
      <trkpt lat="45.87554" lon="-1.20725">
        <ele>-17.60000038147</ele>
        <time>2021-11-21T09:49:18.000Z</time>
      </trkpt>
      <trkpt lat="45.87539" lon="-1.20723">
        <ele>-17.799999237061</ele>
        <time>2021-11-21T09:49:20.000Z</time>
      </trkpt>
      <trkpt lat="45.87532" lon="-1.20717">
        <ele>-17.799999237061</ele>
        <time>2021-11-21T09:49:21.000Z</time>
      </trkpt>
      <trkpt lat="45.87527" lon="-1.20709">
        <ele>-17.799999237061</ele>
        <time>2021-11-21T09:49:22.000Z</time>
      </trkpt>
      <trkpt lat="45.87518" lon="-1.20691">
        <ele>-17.799999237061</ele>
        <time>2021-11-21T09:49:24.000Z</time>
      </trkpt>
      <trkpt lat="45.8749" lon="-1.20626">
        <ele>-17.799999237061</ele>
        <time>2021-11-21T09:49:31.000Z</time>
      </trkpt>
      <trkpt lat="45.87485" lon="-1.20597">
        <ele>-17.799999237061</ele>
        <time>2021-11-21T09:49:34.000Z</time>
      </trkpt>
      <trkpt lat="45.87485" lon="-1.20586">
        <ele>-17.60000038147</ele>
        <time>2021-11-21T09:49:35.000Z</time>
      </trkpt>
      <trkpt lat="45.87484" lon="-1.20553">
        <ele>-17.60000038147</ele>
        <time>2021-11-21T09:49:38.000Z</time>
      </trkpt>
      <trkpt lat="45.87486" lon="-1.20542">
        <ele>-17.60000038147</ele>
        <time>2021-11-21T09:49:39.000Z</time>
      </trkpt>
      <trkpt lat="45.87489" lon="-1.20533">
        <ele>-17.60000038147</ele>
        <time>2021-11-21T09:49:40.000Z</time>
      </trkpt>
      <trkpt lat="45.87499" lon="-1.20515">
        <ele>-17.60000038147</ele>
        <time>2021-11-21T09:49:42.000Z</time>
      </trkpt>
      <trkpt lat="45.87542" lon="-1.20463">
        <ele>-17.200000762939</ele>
        <time>2021-11-21T09:49:49.000Z</time>
      </trkpt>
      <trkpt lat="45.87548" lon="-1.20455">
        <ele>-17.200000762939</ele>
        <time>2021-11-21T09:49:50.000Z</time>
      </trkpt>
      <trkpt lat="45.87576" lon="-1.20403">
        <ele>-17.39999961853</ele>
        <time>2021-11-21T09:49:56.000Z</time>
      </trkpt>
      <trkpt lat="45.87596" lon="-1.20356">
        <ele>-17.39999961853</ele>
        <time>2021-11-21T09:50:01.000Z</time>
      </trkpt>
      <trkpt lat="45.87598" lon="-1.20345">
        <ele>-17.60000038147</ele>
        <time>2021-11-21T09:50:02.000Z</time>
      </trkpt>
      <trkpt lat="45.87599" lon="-1.20334">
        <ele>-17.60000038147</ele>
        <time>2021-11-21T09:50:03.000Z</time>
      </trkpt>
      <trkpt lat="45.87598" lon="-1.20312">
        <ele>-17.60000038147</ele>
        <time>2021-11-21T09:50:05.000Z</time>
      </trkpt>
      <trkpt lat="45.87587" lon="-1.2026">
        <ele>-17.60000038147</ele>
        <time>2021-11-21T09:50:10.000Z</time>
      </trkpt>
      <trkpt lat="45.87583" lon="-1.20239">
        <ele>-17.60000038147</ele>
        <time>2021-11-21T09:50:12.000Z</time>
      </trkpt>
      <trkpt lat="45.87582" lon="-1.20218">
        <ele>-17.39999961853</ele>
        <time>2021-11-21T09:50:14.000Z</time>
      </trkpt>
      <trkpt lat="45.87585" lon="-1.20197">
        <ele>-17.39999961853</ele>
        <time>2021-11-21T09:50:16.000Z</time>
      </trkpt>
      <trkpt lat="45.87588" lon="-1.20187">
        <ele>-17.39999961853</ele>
        <time>2021-11-21T09:50:17.000Z</time>
      </trkpt>
      <trkpt lat="45.87593" lon="-1.20178">
        <ele>-17.39999961853</ele>
        <time>2021-11-21T09:50:18.000Z</time>
      </trkpt>
      <trkpt lat="45.87611" lon="-1.20158">
        <ele>-17.200000762939</ele>
        <time>2021-11-21T09:50:20.000Z</time>
      </trkpt>
      <trkpt lat="45.87619" lon="-1.20154">
        <ele>-17.200000762939</ele>
        <time>2021-11-21T09:50:22.000Z</time>
      </trkpt>
      <trkpt lat="45.87641" lon="-1.20147">
        <ele>-17.200000762939</ele>
        <time>2021-11-21T09:50:25.000Z</time>
      </trkpt>
      <trkpt lat="45.87694" lon="-1.20134">
        <ele>-17.39999961853</ele>
        <time>2021-11-21T09:50:31.000Z</time>
      </trkpt>
      <trkpt lat="45.87701" lon="-1.20131">
        <ele>-17.39999961853</ele>
        <time>2021-11-21T09:50:33.000Z</time>
      </trkpt>
      <trkpt lat="45.87716" lon="-1.20119">
        <ele>-17.39999961853</ele>
        <time>2021-11-21T09:50:34.000Z</time>
      </trkpt>
      <trkpt lat="45.87721" lon="-1.20112">
        <ele>-17.39999961853</ele>
        <time>2021-11-21T09:50:35.000Z</time>
      </trkpt>
      <trkpt lat="45.87725" lon="-1.20104">
        <ele>-17.39999961853</ele>
        <time>2021-11-21T09:50:36.000Z</time>
      </trkpt>
      <trkpt lat="45.87731" lon="-1.20084">
        <ele>-17.39999961853</ele>
        <time>2021-11-21T09:50:38.000Z</time>
      </trkpt>
      <trkpt lat="45.87739" lon="-1.20021">
        <ele>-17.200000762939</ele>
        <time>2021-11-21T09:50:44.000Z</time>
      </trkpt>
      <trkpt lat="45.87752" lon="-1.19938">
        <ele>-17.200000762939</ele>
        <time>2021-11-21T09:50:52.000Z</time>
      </trkpt>
      <trkpt lat="45.87756" lon="-1.19929">
        <ele>-17.200000762939</ele>
        <time>2021-11-21T09:50:53.000Z</time>
      </trkpt>
      <trkpt lat="45.87766" lon="-1.19916">
        <ele>-17.60000038147</ele>
        <time>2021-11-21T09:50:55.000Z</time>
      </trkpt>
      <trkpt lat="45.87773" lon="-1.19908">
        <ele>-17.39999961853</ele>
        <time>2021-11-21T09:50:57.000Z</time>
      </trkpt>
      <trkpt lat="45.87788" lon="-1.19903">
        <ele>-17.39999961853</ele>
        <time>2021-11-21T09:50:58.000Z</time>
      </trkpt>
      <trkpt lat="45.87794" lon="-1.19903">
        <ele>-17.39999961853</ele>
        <time>2021-11-21T09:51:00.000Z</time>
      </trkpt>
      <trkpt lat="45.8781" lon="-1.19905">
        <ele>-17.39999961853</ele>
        <time>2021-11-21T09:51:01.000Z</time>
      </trkpt>
      <trkpt lat="45.87842" lon="-1.19909">
        <ele>-17.39999961853</ele>
        <time>2021-11-21T09:51:05.000Z</time>
      </trkpt>
      <trkpt lat="45.87881" lon="-1.19907">
        <ele>-17.60000038147</ele>
        <time>2021-11-21T09:51:10.000Z</time>
      </trkpt>
      <trkpt lat="45.87889" lon="-1.19908">
        <ele>-17.799999237061</ele>
        <time>2021-11-21T09:51:11.000Z</time>
      </trkpt>
      <trkpt lat="45.87934" lon="-1.19917">
        <ele>-18</ele>
        <time>2021-11-21T09:51:17.000Z</time>
      </trkpt>
      <trkpt lat="45.87951" lon="-1.19911">
        <ele>-18</ele>
        <time>2021-11-21T09:51:19.000Z</time>
      </trkpt>
      <trkpt lat="45.87965" lon="-1.19904">
        <ele>-18</ele>
        <time>2021-11-21T09:51:21.000Z</time>
      </trkpt>
      <trkpt lat="45.88016" lon="-1.19876">
        <ele>-18.200000762939</ele>
        <time>2021-11-21T09:51:28.000Z</time>
      </trkpt>
      <trkpt lat="45.88038" lon="-1.19865">
        <ele>-18.200000762939</ele>
        <time>2021-11-21T09:51:31.000Z</time>
      </trkpt>
      <trkpt lat="45.88082" lon="-1.19842">
        <ele>-18.39999961853</ele>
        <time>2021-11-21T09:51:37.000Z</time>
      </trkpt>
      <trkpt lat="45.88094" lon="-1.19831">
        <ele>-18.39999961853</ele>
        <time>2021-11-21T09:51:39.000Z</time>
      </trkpt>
      <trkpt lat="45.88105" lon="-1.19815">
        <ele>-18.39999961853</ele>
        <time>2021-11-21T09:51:41.000Z</time>
      </trkpt>
      <trkpt lat="45.88112" lon="-1.19796">
        <ele>-18.200000762939</ele>
        <time>2021-11-21T09:51:43.000Z</time>
      </trkpt>
      <trkpt lat="45.88121" lon="-1.1977">
        <ele>-18.200000762939</ele>
        <time>2021-11-21T09:51:46.000Z</time>
      </trkpt>
      <trkpt lat="45.88136" lon="-1.19746">
        <ele>-18.200000762939</ele>
        <time>2021-11-21T09:51:49.000Z</time>
      </trkpt>
      <trkpt lat="45.8818" lon="-1.19685">
        <ele>-18.60000038147</ele>
        <time>2021-11-21T09:51:57.000Z</time>
      </trkpt>
      <trkpt lat="45.88196" lon="-1.19662">
        <ele>-18.60000038147</ele>
        <time>2021-11-21T09:52:00.000Z</time>
      </trkpt>
      <trkpt lat="45.88201" lon="-1.19654">
        <ele>-18.39999961853</ele>
        <time>2021-11-21T09:52:01.000Z</time>
      </trkpt>
      <trkpt lat="45.88223" lon="-1.19611">
        <ele>-18.39999961853</ele>
        <time>2021-11-21T09:52:06.000Z</time>
      </trkpt>
      <trkpt lat="45.88249" lon="-1.19566">
        <ele>-18.39999961853</ele>
        <time>2021-11-21T09:52:12.000Z</time>
      </trkpt>
      <trkpt lat="45.88261" lon="-1.19556">
        <ele>-18.200000762939</ele>
        <time>2021-11-21T09:52:14.000Z</time>
      </trkpt>
      <trkpt lat="45.88275" lon="-1.19551">
        <ele>-18.200000762939</ele>
        <time>2021-11-21T09:52:16.000Z</time>
      </trkpt>
      <trkpt lat="45.88288" lon="-1.19552">
        <ele>-18.200000762939</ele>
        <time>2021-11-21T09:52:18.000Z</time>
      </trkpt>
      <trkpt lat="45.88308" lon="-1.19557">
        <ele>-18.200000762939</ele>
        <time>2021-11-21T09:52:21.000Z</time>
      </trkpt>
      <trkpt lat="45.88364" lon="-1.19574">
        <ele>-18.200000762939</ele>
        <time>2021-11-21T09:52:29.000Z</time>
      </trkpt>
      <trkpt lat="45.88372" lon="-1.19575">
        <ele>-18</ele>
        <time>2021-11-21T09:52:31.000Z</time>
      </trkpt>
      <trkpt lat="45.88391" lon="-1.19569">
        <ele>-18</ele>
        <time>2021-11-21T09:52:33.000Z</time>
      </trkpt>
      <trkpt lat="45.88397" lon="-1.19565">
        <ele>-18</ele>
        <time>2021-11-21T09:52:34.000Z</time>
      </trkpt>
      <trkpt lat="45.88407" lon="-1.19552">
        <ele>-17.799999237061</ele>
        <time>2021-11-21T09:52:36.000Z</time>
      </trkpt>
      <trkpt lat="45.88422" lon="-1.19535">
        <ele>-17.60000038147</ele>
        <time>2021-11-21T09:52:39.000Z</time>
      </trkpt>
      <trkpt lat="45.88433" lon="-1.19537">
        <ele>-17.60000038147</ele>
        <time>2021-11-21T09:52:41.000Z</time>
      </trkpt>
      <trkpt lat="45.88437" lon="-1.19541">
        <ele>-17.60000038147</ele>
        <time>2021-11-21T09:52:42.000Z</time>
      </trkpt>
      <trkpt lat="45.88441" lon="-1.19545">
        <ele>-17.60000038147</ele>
        <time>2021-11-21T09:52:44.000Z</time>
      </trkpt>
      <trkpt lat="45.88449" lon="-1.19549">
        <ele>-17.39999961853</ele>
        <time>2021-11-21T09:52:46.000Z</time>
      </trkpt>
      <trkpt lat="45.88449" lon="-1.19559">
        <ele>-17.39999961853</ele>
        <time>2021-11-21T09:52:47.000Z</time>
      </trkpt>
      <trkpt lat="45.88447" lon="-1.19566">
        <ele>-17.39999961853</ele>
        <time>2021-11-21T09:52:48.000Z</time>
      </trkpt>
      <trkpt lat="45.8844" lon="-1.19603">
        <ele>-17.200000762939</ele>
        <time>2021-11-21T09:52:52.000Z</time>
      </trkpt>
      <trkpt lat="45.88424" lon="-1.19667">
        <ele>-17.39999961853</ele>
        <time>2021-11-21T09:52:58.000Z</time>
      </trkpt>
      <trkpt lat="45.88413" lon="-1.1971">
        <ele>-17.39999961853</ele>
        <time>2021-11-21T09:53:02.000Z</time>
      </trkpt>
      <trkpt lat="45.88405" lon="-1.19728">
        <ele>-17.39999961853</ele>
        <time>2021-11-21T09:53:04.000Z</time>
      </trkpt>
      <trkpt lat="45.88401" lon="-1.19743">
        <ele>-17.39999961853</ele>
        <time>2021-11-21T09:53:06.000Z</time>
      </trkpt>
      <trkpt lat="45.88401" lon="-1.19748">
        <ele>-17.60000038147</ele>
        <time>2021-11-21T09:53:07.000Z</time>
      </trkpt>
      <trkpt lat="45.88403" lon="-1.19751">
        <ele>-17.60000038147</ele>
        <time>2021-11-21T09:53:08.000Z</time>
      </trkpt>
      <trkpt lat="45.88408" lon="-1.19755">
        <ele>-17.799999237061</ele>
        <time>2021-11-21T09:53:09.000Z</time>
      </trkpt>
      <trkpt lat="45.88433" lon="-1.19773">
        <ele>-17.799999237061</ele>
        <time>2021-11-21T09:53:13.000Z</time>
      </trkpt>
      <trkpt lat="45.88486" lon="-1.19811">
        <ele>-18</ele>
        <time>2021-11-21T09:53:21.000Z</time>
      </trkpt>
      <trkpt lat="45.88493" lon="-1.19816">
        <ele>-18</ele>
        <time>2021-11-21T09:53:22.000Z</time>
      </trkpt>
      <trkpt lat="45.88543" lon="-1.19854">
        <ele>-17.799999237061</ele>
        <time>2021-11-21T09:53:30.000Z</time>
      </trkpt>
      <trkpt lat="45.88547" lon="-1.19858">
        <ele>-17.799999237061</ele>
        <time>2021-11-21T09:53:31.000Z</time>
      </trkpt>
      <trkpt lat="45.88548" lon="-1.19865">
        <ele>-17.799999237061</ele>
        <time>2021-11-21T09:53:33.000Z</time>
      </trkpt>
      <trkpt lat="45.88544" lon="-1.19879">
        <ele>-17.60000038147</ele>
        <time>2021-11-21T09:53:36.000Z</time>
      </trkpt>
      <trkpt lat="45.8855" lon="-1.19886">
        <ele>-17.60000038147</ele>
        <time>2021-11-21T09:53:38.000Z</time>
      </trkpt>
      <trkpt lat="45.88561" lon="-1.19896">
        <ele>-17.60000038147</ele>
        <time>2021-11-21T09:53:40.000Z</time>
      </trkpt>
      <trkpt lat="45.88588" lon="-1.19927">
        <ele>-17.799999237061</ele>
        <time>2021-11-21T09:53:45.000Z</time>
      </trkpt>
      <trkpt lat="45.8862" lon="-1.19964">
        <ele>-17.60000038147</ele>
        <time>2021-11-21T09:53:51.000Z</time>
      </trkpt>
      <trkpt lat="45.88645" lon="-1.1999">
        <ele>-17.39999961853</ele>
        <time>2021-11-21T09:53:55.000Z</time>
      </trkpt>
      <trkpt lat="45.88653" lon="-1.19993">
        <ele>-17.200000762939</ele>
        <time>2021-11-21T09:53:56.000Z</time>
      </trkpt>
      <trkpt lat="45.8866" lon="-1.19994">
        <ele>-17.200000762939</ele>
        <time>2021-11-21T09:53:57.000Z</time>
      </trkpt>
      <trkpt lat="45.88667" lon="-1.19991">
        <ele>-17.200000762939</ele>
        <time>2021-11-21T09:53:58.000Z</time>
      </trkpt>
      <trkpt lat="45.88708" lon="-1.19966">
        <ele>-17.39999961853</ele>
        <time>2021-11-21T09:54:04.000Z</time>
      </trkpt>
      <trkpt lat="45.8875" lon="-1.19942">
        <ele>-17.39999961853</ele>
        <time>2021-11-21T09:54:10.000Z</time>
      </trkpt>
      <trkpt lat="45.88771" lon="-1.1993">
        <ele>-17.39999961853</ele>
        <time>2021-11-21T09:54:13.000Z</time>
      </trkpt>
      <trkpt lat="45.88782" lon="-1.19926">
        <ele>-17.39999961853</ele>
        <time>2021-11-21T09:54:15.000Z</time>
      </trkpt>
      <trkpt lat="45.88793" lon="-1.19923">
        <ele>-17.200000762939</ele>
        <time>2021-11-21T09:54:19.000Z</time>
      </trkpt>
      <trkpt lat="45.88797" lon="-1.1992">
        <ele>-16.799999237061</ele>
        <time>2021-11-21T09:54:22.000Z</time>
      </trkpt>
      <trkpt lat="45.88801" lon="-1.19918">
        <ele>-16.60000038147</ele>
        <time>2021-11-21T09:54:23.000Z</time>
      </trkpt>
      <trkpt lat="45.88804" lon="-1.19919">
        <ele>-16.39999961853</ele>
        <time>2021-11-21T09:54:24.000Z</time>
      </trkpt>
      <trkpt lat="45.88808" lon="-1.19926">
        <ele>-16.39999961853</ele>
        <time>2021-11-21T09:54:26.000Z</time>
      </trkpt>
      <trkpt lat="45.88949" lon="-1.19859">
        <ele>4.4</ele>
      </trkpt>
      <trkpt lat="45.89045" lon="-1.19484">
        <ele>4.7</ele>
      </trkpt>
      <trkpt lat="45.89018" lon="-1.19455">
        <ele>5.2</ele>
      </trkpt>
      <trkpt lat="45.88935" lon="-1.19331">
        <ele>4.5</ele>
      </trkpt>
      <trkpt lat="45.88874" lon="-1.19144">
        <ele>6.4</ele>
      </trkpt>
      <trkpt lat="45.88736" lon="-1.18991">
        <ele>2.3</ele>
      </trkpt>
      <trkpt lat="45.88671" lon="-1.19026">
        <ele>4.6</ele>
      </trkpt>
      <trkpt lat="45.88668" lon="-1.18981">
        <ele>8.3</ele>
      </trkpt>
      <trkpt lat="45.88591" lon="-1.19028">
        <ele>7.5</ele>
      </trkpt>
      <trkpt lat="45.88546" lon="-1.19008">
        <ele>4.7</ele>
      </trkpt>
      <trkpt lat="45.88464" lon="-1.19134">
        <ele>6.7</ele>
      </trkpt>
      <trkpt lat="45.88436" lon="-1.19082">
        <ele>5.3</ele>
      </trkpt>
      <trkpt lat="45.88405" lon="-1.1911">
        <ele>6.7</ele>
      </trkpt>
      <trkpt lat="45.88421" lon="-1.19191">
        <ele>6.6</ele>
      </trkpt>
      <trkpt lat="45.88416" lon="-1.19252">
        <ele>6.8</ele>
      </trkpt>
      <trkpt lat="45.88404" lon="-1.19252">
        <ele>5.2</ele>
      </trkpt>
      <trkpt lat="45.884" lon="-1.19238">
        <ele>5.7</ele>
      </trkpt>
      <trkpt lat="45.88361" lon="-1.19285">
        <ele>4</ele>
      </trkpt>
      <trkpt lat="45.88368" lon="-1.19349">
        <ele>3.4</ele>
      </trkpt>
      <trkpt lat="45.88383" lon="-1.19413">
        <ele>3.5</ele>
      </trkpt>
      <trkpt lat="45.88368" lon="-1.19521">
        <ele>1.7</ele>
      </trkpt>
      <trkpt lat="45.88225" lon="-1.19541">
        <ele>2</ele>
      </trkpt>
      <trkpt lat="45.88194" lon="-1.19479">
        <ele>3</ele>
      </trkpt>
      <trkpt lat="45.88213" lon="-1.19403">
        <ele>2</ele>
      </trkpt>
      <trkpt lat="45.88203" lon="-1.19358">
        <ele>2.8</ele>
      </trkpt>
      <trkpt lat="45.88208" lon="-1.19299">
        <ele>3.4</ele>
      </trkpt>
      <trkpt lat="45.88095" lon="-1.19383">
        <ele>3.4</ele>
      </trkpt>
      <trkpt lat="45.88028" lon="-1.19368">
        <ele>2.7</ele>
      </trkpt>
      <trkpt lat="45.87925" lon="-1.19368">
        <ele>2.8</ele>
      </trkpt>
      <trkpt lat="45.87789" lon="-1.19361">
        <ele>3</ele>
      </trkpt>
      <trkpt lat="45.87679" lon="-1.19368">
        <ele>2.9</ele>
      </trkpt>
      <trkpt lat="45.87458" lon="-1.19285">
        <ele>3.9</ele>
      </trkpt>
      <trkpt lat="45.87343" lon="-1.19304">
        <ele>2.9</ele>
      </trkpt>
      <trkpt lat="45.87323" lon="-1.19493">
        <ele>2.5</ele>
      </trkpt>
      <trkpt lat="45.87238" lon="-1.19579">
        <ele>2.4</ele>
      </trkpt>
      <trkpt lat="45.8724" lon="-1.19676">
        <ele>3</ele>
      </trkpt>
      <trkpt lat="45.87176" lon="-1.19739">
        <ele>2.6</ele>
      </trkpt>
      <trkpt lat="45.87118" lon="-1.1972">
        <ele>2.2</ele>
      </trkpt>
      <trkpt lat="45.87052" lon="-1.1975">
        <ele>3.1</ele>
      </trkpt>
      <trkpt lat="45.8702" lon="-1.19739">
        <ele>2.8</ele>
      </trkpt>
      <trkpt lat="45.86763" lon="-1.20009">
        <ele>3.3</ele>
      </trkpt>
      <trkpt lat="45.8662" lon="-1.20016">
        <ele>3.6</ele>
      </trkpt>
      <trkpt lat="45.86426" lon="-1.20156">
        <ele>3</ele>
      </trkpt>
      <trkpt lat="45.86406" lon="-1.20199">
        <ele>3.6</ele>
      </trkpt>
      <trkpt lat="45.86416" lon="-1.20218">
        <ele>4</ele>
      </trkpt>
      <trkpt lat="45.86418" lon="-1.20253">
        <ele>3</ele>
      </trkpt>
      <trkpt lat="45.86405" lon="-1.203">
        <ele>1.8</ele>
      </trkpt>
      <trkpt lat="45.86423" lon="-1.20318">
        <ele>2.1</ele>
      </trkpt>
      <trkpt lat="45.86432" lon="-1.20361">
        <ele>2.5</ele>
      </trkpt>
      <trkpt lat="45.86471" lon="-1.20508">
        <ele>3</ele>
      </trkpt>
      <trkpt lat="45.86503" lon="-1.20508">
        <ele>2.8</ele>
      </trkpt>
      <trkpt lat="45.86588" lon="-1.20694">
        <ele>3</ele>
      </trkpt>
      <trkpt lat="45.86694" lon="-1.20842">
        <ele>4</ele>
      </trkpt>
      <trkpt lat="45.86718" lon="-1.20905">
        <ele>3.6</ele>
      </trkpt>
      <trkpt lat="45.86779" lon="-1.20971">
        <ele>4</ele>
      </trkpt>
      <trkpt lat="45.86871" lon="-1.21147">
        <ele>2.8</ele>
      </trkpt>
    </trkseg>
  </trk>
</gpx>